<?xml version='1.0' encoding='UTF-8'?><gpx version="1.1" creator="JPX - https://github.com/jenetics/jpx" xmlns="http://www.topografix.com/GPX/1/1"><trk><trkseg><trkpt lat="44.280892543459295" lon="11.589976133408205"><ele>96.0</ele><time>2026-04-12T07:45:55Z</time></trkpt><trkpt lat="44.28090873085569" lon="11.58973991948"><ele>96.0</ele><time>2026-04-12T07:46:05Z</time></trkpt><trkpt lat="44.28085674758642" lon="11.58964331265745"><ele>96.0</ele><time>2026-04-12T07:46:06Z</time></trkpt><trkpt lat="44.28081297305783" lon="11.589533041962191"><ele>96.0</ele><time>2026-04-12T07:46:07Z</time></trkpt><trkpt lat="44.28076407558455" lon="11.589425423552155"><ele>96.0</ele><time>2026-04-12T07:46:08Z</time></trkpt><trkpt lat="44.28070611782581" lon="11.589299078569217"><ele>96.75</ele><time>2026-04-12T07:46:09Z</time></trkpt><trkpt lat="44.280647107501856" lon="11.589175679126647"><ele>97.5</ele><time>2026-04-12T07:46:10Z</time></trkpt><trkpt lat="44.280580689150185" lon="11.589054894596138"><ele>98.25</ele><time>2026-04-12T07:46:11Z</time></trkpt><trkpt lat="44.28050280650966" lon="11.588921334623572"><ele>99.0</ele><time>2026-04-12T07:46:12Z</time></trkpt><trkpt lat="44.280430557218025" lon="11.588782741448405"><ele>97.25</ele><time>2026-04-12T07:46:13Z</time></trkpt><trkpt lat="44.28035938756408" lon="11.58863509973737"><ele>95.5</ele><time>2026-04-12T07:46:14Z</time></trkpt><trkpt lat="44.28028134829932" lon="11.588487064900574"><ele>93.75</ele><time>2026-04-12T07:46:15Z</time></trkpt><trkpt lat="44.280196428777636" lon="11.588344473216164"><ele>92.0</ele><time>2026-04-12T07:46:16Z</time></trkpt><trkpt lat="44.28009136630945" lon="11.588246649202077"><ele>92.0</ele><time>2026-04-12T07:46:17Z</time></trkpt><trkpt lat="44.27997459215121" lon="11.588182818393566"><ele>92.0</ele><time>2026-04-12T07:46:18Z</time></trkpt><trkpt lat="44.2798433772202" lon="11.588157034176884"><ele>92.0</ele><time>2026-04-12T07:46:19Z</time></trkpt><trkpt lat="44.27969941873774" lon="11.588164259543184"><ele>92.0</ele><time>2026-04-12T07:46:20Z</time></trkpt><trkpt lat="44.27955569491903" lon="11.588188431847252"><ele>92.5</ele><time>2026-04-12T07:46:21Z</time></trkpt><trkpt lat="44.27941428203334" lon="11.588211381302628"><ele>93.0</ele><time>2026-04-12T07:46:22Z</time></trkpt><trkpt lat="44.27927684356755" lon="11.588219141006892"><ele>93.5</ele><time>2026-04-12T07:46:23Z</time></trkpt><trkpt lat="44.27913765770066" lon="11.588235688789975"><ele>94.0</ele><time>2026-04-12T07:46:24Z</time></trkpt><trkpt lat="44.27898298596572" lon="11.588275711341659"><ele>94.66666666666666</ele><time>2026-04-12T07:46:25Z</time></trkpt><trkpt lat="44.2788154885816" lon="11.588319101271798"><ele>95.33333333333333</ele><time>2026-04-12T07:46:26Z</time></trkpt><trkpt lat="44.27865622550866" lon="11.588376148820766"><ele>96.0</ele><time>2026-04-12T07:46:27Z</time></trkpt><trkpt lat="44.27848449465036" lon="11.588413204999569"><ele>96.0</ele><time>2026-04-12T07:46:28Z</time></trkpt><trkpt lat="44.27834683263071" lon="11.588455401626451"><ele>96.0</ele><time>2026-04-12T07:46:29Z</time></trkpt><trkpt lat="44.27822209935703" lon="11.588483603797476"><ele>96.0</ele><time>2026-04-12T07:46:30Z</time></trkpt><trkpt lat="44.27809805521998" lon="11.588514845790945"><ele>96.0</ele><time>2026-04-12T07:46:31Z</time></trkpt><trkpt lat="44.277975154782595" lon="11.588511521340516"><ele>96.5</ele><time>2026-04-12T07:46:32Z</time></trkpt><trkpt lat="44.27786331162589" lon="11.58848367382163"><ele>97.0</ele><time>2026-04-12T07:46:33Z</time></trkpt><trkpt lat="44.27774163630187" lon="11.588438500585662"><ele>97.5</ele><time>2026-04-12T07:46:34Z</time></trkpt><trkpt lat="44.27761786075501" lon="11.588430652292827"><ele>98.0</ele><time>2026-04-12T07:46:35Z</time></trkpt><trkpt lat="44.277500243218256" lon="11.588395878373989"><ele>98.0</ele><time>2026-04-12T07:46:36Z</time></trkpt><trkpt lat="44.277372353552536" lon="11.588338182687389"><ele>98.0</ele><time>2026-04-12T07:46:37Z</time></trkpt><trkpt lat="44.277246067269665" lon="11.58827391733867"><ele>98.0</ele><time>2026-04-12T07:46:38Z</time></trkpt><trkpt lat="44.27712281006781" lon="11.588189618008306"><ele>98.0</ele><time>2026-04-12T07:46:39Z</time></trkpt><trkpt lat="44.27698409951179" lon="11.588086307251919"><ele>98.25</ele><time>2026-04-12T07:46:40Z</time></trkpt><trkpt lat="44.27685388074389" lon="11.588009216266576"><ele>98.5</ele><time>2026-04-12T07:46:41Z</time></trkpt><trkpt lat="44.27673670151776" lon="11.587918051537782"><ele>98.75</ele><time>2026-04-12T07:46:42Z</time></trkpt><trkpt lat="44.27661617637725" lon="11.58777776954353"><ele>99.0</ele><time>2026-04-12T07:46:43Z</time></trkpt><trkpt lat="44.27648569443163" lon="11.587700586855306"><ele>99.5</ele><time>2026-04-12T07:46:44Z</time></trkpt><trkpt lat="44.27635256682005" lon="11.587599155278244"><ele>100.0</ele><time>2026-04-12T07:46:45Z</time></trkpt><trkpt lat="44.276228090945004" lon="11.587499453971072"><ele>100.5</ele><time>2026-04-12T07:46:46Z</time></trkpt><trkpt lat="44.27609989832558" lon="11.587398178960468"><ele>101.0</ele><time>2026-04-12T07:46:47Z</time></trkpt><trkpt lat="44.27597941256593" lon="11.587305802472311"><ele>101.0</ele><time>2026-04-12T07:46:48Z</time></trkpt><trkpt lat="44.27583506279848" lon="11.587224293644876"><ele>101.0</ele><time>2026-04-12T07:46:49Z</time></trkpt><trkpt lat="44.275680873723154" lon="11.587204631352183"><ele>101.0</ele><time>2026-04-12T07:46:50Z</time></trkpt><trkpt lat="44.27553549091639" lon="11.587225315799849"><ele>101.0</ele><time>2026-04-12T07:46:51Z</time></trkpt><trkpt lat="44.27539105866654" lon="11.587286104072017"><ele>101.0</ele><time>2026-04-12T07:46:52Z</time></trkpt><trkpt lat="44.27524063438704" lon="11.587401809847275"><ele>101.0</ele><time>2026-04-12T07:46:53Z</time></trkpt><trkpt lat="44.27511392152296" lon="11.587480372558389"><ele>101.0</ele><time>2026-04-12T07:46:54Z</time></trkpt><trkpt lat="44.2749998050715" lon="11.587532575199168"><ele>101.0</ele><time>2026-04-12T07:46:55Z</time></trkpt><trkpt lat="44.274842340435136" lon="11.587604974431214"><ele>101.0</ele><time>2026-04-12T07:46:56Z</time></trkpt><trkpt lat="44.274626249058976" lon="11.587699986196348"><ele>101.25</ele><time>2026-04-12T07:46:57Z</time></trkpt><trkpt lat="44.274463379036575" lon="11.587769635855404"><ele>101.5</ele><time>2026-04-12T07:46:58Z</time></trkpt><trkpt lat="44.27432699140145" lon="11.587827099077504"><ele>101.75</ele><time>2026-04-12T07:46:59Z</time></trkpt><trkpt lat="44.27420400965648" lon="11.587871495392108"><ele>102.0</ele><time>2026-04-12T07:47:00Z</time></trkpt><trkpt lat="44.27408754960275" lon="11.587880066567639"><ele>102.0</ele><time>2026-04-12T07:47:01Z</time></trkpt><trkpt lat="44.27399221005188" lon="11.587866458331735"><ele>102.0</ele><time>2026-04-12T07:47:02Z</time></trkpt><trkpt lat="44.27389805188202" lon="11.587780207238373"><ele>102.0</ele><time>2026-04-12T07:47:03Z</time></trkpt><trkpt lat="44.27383236484488" lon="11.587620903557097"><ele>102.0</ele><time>2026-04-12T07:47:04Z</time></trkpt><trkpt lat="44.27377181032094" lon="11.587467524747025"><ele>103.0</ele><time>2026-04-12T07:47:05Z</time></trkpt><trkpt lat="44.27372029517622" lon="11.5873586116831"><ele>104.0</ele><time>2026-04-12T07:47:06Z</time></trkpt><trkpt lat="44.27366211138525" lon="11.587239557251321"><ele>104.99999999999999</ele><time>2026-04-12T07:47:07Z</time></trkpt><trkpt lat="44.27360357224795" lon="11.587120258449218"><ele>106.0</ele><time>2026-04-12T07:47:08Z</time></trkpt><trkpt lat="44.27355483981733" lon="11.586984206445011"><ele>107.0</ele><time>2026-04-12T07:47:09Z</time></trkpt><trkpt lat="44.27347778653875" lon="11.586856618164369"><ele>107.0</ele><time>2026-04-12T07:47:10Z</time></trkpt><trkpt lat="44.2734125334941" lon="11.586715364165405"><ele>107.0</ele><time>2026-04-12T07:47:11Z</time></trkpt><trkpt lat="44.27334555485967" lon="11.586562022466316"><ele>107.0</ele><time>2026-04-12T07:47:12Z</time></trkpt><trkpt lat="44.27327873846838" lon="11.586427126271252"><ele>107.0</ele><time>2026-04-12T07:47:13Z</time></trkpt><trkpt lat="44.27321413736383" lon="11.586293812544218"><ele>106.25</ele><time>2026-04-12T07:47:14Z</time></trkpt><trkpt lat="44.27312622334434" lon="11.586163955756012"><ele>105.5</ele><time>2026-04-12T07:47:15Z</time></trkpt><trkpt lat="44.27306710937386" lon="11.586011887670844"><ele>104.75</ele><time>2026-04-12T07:47:16Z</time></trkpt><trkpt lat="44.27298927995237" lon="11.585828850983775"><ele>104.0</ele><time>2026-04-12T07:47:17Z</time></trkpt><trkpt lat="44.272910739024944" lon="11.585674349062138"><ele>106.0</ele><time>2026-04-12T07:47:18Z</time></trkpt><trkpt lat="44.272840033342455" lon="11.585515302778525"><ele>108.0</ele><time>2026-04-12T07:47:19Z</time></trkpt><trkpt lat="44.27277348773853" lon="11.585360961503678"><ele>110.0</ele><time>2026-04-12T07:47:20Z</time></trkpt><trkpt lat="44.27272378209015" lon="11.585207519878493"><ele>112.0</ele><time>2026-04-12T07:47:21Z</time></trkpt><trkpt lat="44.27268459963835" lon="11.585063247351163"><ele>112.5</ele><time>2026-04-12T07:47:22Z</time></trkpt><trkpt lat="44.2726639789373" lon="11.584883729157589"><ele>113.0</ele><time>2026-04-12T07:47:23Z</time></trkpt><trkpt lat="44.27264399603438" lon="11.58471509792705"><ele>113.5</ele><time>2026-04-12T07:47:24Z</time></trkpt><trkpt lat="44.27261793204598" lon="11.584541468177003"><ele>114.0</ele><time>2026-04-12T07:47:25Z</time></trkpt><trkpt lat="44.272589911343836" lon="11.584376573474351"><ele>113.0</ele><time>2026-04-12T07:47:26Z</time></trkpt><trkpt lat="44.27256650881629" lon="11.584217892975776"><ele>112.0</ele><time>2026-04-12T07:47:27Z</time></trkpt><trkpt lat="44.27253289161728" lon="11.584054653834745"><ele>111.0</ele><time>2026-04-12T07:47:28Z</time></trkpt><trkpt lat="44.272502361275876" lon="11.583888822091398"><ele>110.0</ele><time>2026-04-12T07:47:29Z</time></trkpt><trkpt lat="44.27247578546352" lon="11.583718885062948"><ele>109.75</ele><time>2026-04-12T07:47:30Z</time></trkpt><trkpt lat="44.272445490853855" lon="11.58354854199644"><ele>109.5</ele><time>2026-04-12T07:47:31Z</time></trkpt><trkpt lat="44.272399206550574" lon="11.583378684085995"><ele>109.25</ele><time>2026-04-12T07:47:32Z</time></trkpt><trkpt lat="44.27233317788149" lon="11.583210797773088"><ele>109.0</ele><time>2026-04-12T07:47:33Z</time></trkpt><trkpt lat="44.27225617648545" lon="11.583058656891058"><ele>111.0</ele><time>2026-04-12T07:47:34Z</time></trkpt><trkpt lat="44.27215397923667" lon="11.582930911136952"><ele>113.0</ele><time>2026-04-12T07:47:35Z</time></trkpt><trkpt lat="44.272051557061815" lon="11.582817258768793"><ele>115.0</ele><time>2026-04-12T07:47:36Z</time></trkpt><trkpt lat="44.27194840535434" lon="11.582715037319998"><ele>117.0</ele><time>2026-04-12T07:47:37Z</time></trkpt><trkpt lat="44.27183838730444" lon="11.582614302186153"><ele>117.0</ele><time>2026-04-12T07:47:38Z</time></trkpt><trkpt lat="44.2717193507195" lon="11.582509519569687"><ele>117.0</ele><time>2026-04-12T07:47:39Z</time></trkpt><trkpt lat="44.2715941015914" lon="11.582396485589642"><ele>117.0</ele><time>2026-04-12T07:47:40Z</time></trkpt><trkpt lat="44.271472207111344" lon="11.582271531369344"><ele>117.0</ele><time>2026-04-12T07:47:41Z</time></trkpt><trkpt lat="44.27135400712477" lon="11.582144129427432"><ele>117.5</ele><time>2026-04-12T07:47:42Z</time></trkpt><trkpt lat="44.271236447566" lon="11.582030880373743"><ele>118.0</ele><time>2026-04-12T07:47:43Z</time></trkpt><trkpt lat="44.27111833188128" lon="11.581915281016792"><ele>118.5</ele><time>2026-04-12T07:47:44Z</time></trkpt><trkpt lat="44.27100897918897" lon="11.581805373490498"><ele>119.0</ele><time>2026-04-12T07:47:45Z</time></trkpt><trkpt lat="44.27090386111849" lon="11.581697056037555"><ele>119.0</ele><time>2026-04-12T07:47:46Z</time></trkpt><trkpt lat="44.270808039320755" lon="11.581586890379317"><ele>119.0</ele><time>2026-04-12T07:47:47Z</time></trkpt><trkpt lat="44.270707957755086" lon="11.581473505874387"><ele>119.0</ele><time>2026-04-12T07:47:48Z</time></trkpt><trkpt lat="44.270610645625545" lon="11.58134865061684"><ele>119.0</ele><time>2026-04-12T07:47:49Z</time></trkpt><trkpt lat="44.27051087293762" lon="11.581221354914316"><ele>121.5</ele><time>2026-04-12T07:47:50Z</time></trkpt><trkpt lat="44.27042293571559" lon="11.581098910864975"><ele>124.0</ele><time>2026-04-12T07:47:51Z</time></trkpt><trkpt lat="44.27032432973995" lon="11.580971025167832"><ele>126.5</ele><time>2026-04-12T07:47:52Z</time></trkpt><trkpt lat="44.270227754995645" lon="11.580839943580044"><ele>129.0</ele><time>2026-04-12T07:47:53Z</time></trkpt><trkpt lat="44.27014245475405" lon="11.580728992297734"><ele>129.0</ele><time>2026-04-12T07:47:54Z</time></trkpt><trkpt lat="44.27005407074522" lon="11.580611214352748"><ele>129.0</ele><time>2026-04-12T07:47:55Z</time></trkpt><trkpt lat="44.269969493357735" lon="11.580489580810719"><ele>129.0</ele><time>2026-04-12T07:47:56Z</time></trkpt><trkpt lat="44.26987700054117" lon="11.580370340373511"><ele>129.0</ele><time>2026-04-12T07:47:57Z</time></trkpt><trkpt lat="44.26978735448783" lon="11.580248263082316"><ele>130.25</ele><time>2026-04-12T07:47:58Z</time></trkpt><trkpt lat="44.269700479689014" lon="11.580125254230857"><ele>131.5</ele><time>2026-04-12T07:47:59Z</time></trkpt><trkpt lat="44.26961019371861" lon="11.580001832510733"><ele>132.75</ele><time>2026-04-12T07:48:00Z</time></trkpt><trkpt lat="44.26952364358761" lon="11.579871694386846"><ele>134.0</ele><time>2026-04-12T07:48:01Z</time></trkpt><trkpt lat="44.26942763242449" lon="11.579735179172143"><ele>134.0</ele><time>2026-04-12T07:48:02Z</time></trkpt><trkpt lat="44.2693366987866" lon="11.579601619153381"><ele>134.0</ele><time>2026-04-12T07:48:03Z</time></trkpt><trkpt lat="44.26924570487746" lon="11.579473015541645"><ele>134.0</ele><time>2026-04-12T07:48:04Z</time></trkpt><trkpt lat="44.26915625601078" lon="11.57934623858406"><ele>134.0</ele><time>2026-04-12T07:48:05Z</time></trkpt><trkpt lat="44.269081978091336" lon="11.579210412568678"><ele>134.0</ele><time>2026-04-12T07:48:06Z</time></trkpt><trkpt lat="44.26900984714696" lon="11.579044391474849"><ele>134.0</ele><time>2026-04-12T07:48:07Z</time></trkpt><trkpt lat="44.268948380674146" lon="11.578876784020693"><ele>134.0</ele><time>2026-04-12T07:48:08Z</time></trkpt><trkpt lat="44.26889261768774" lon="11.578708832272817"><ele>134.0</ele><time>2026-04-12T07:48:09Z</time></trkpt><trkpt lat="44.26887054802666" lon="11.578525954018035"><ele>134.0</ele><time>2026-04-12T07:48:10Z</time></trkpt><trkpt lat="44.26881200103938" lon="11.578335405517914"><ele>134.0</ele><time>2026-04-12T07:48:11Z</time></trkpt><trkpt lat="44.26876146481302" lon="11.57815562068507"><ele>134.0</ele><time>2026-04-12T07:48:12Z</time></trkpt><trkpt lat="44.26870586235346" lon="11.577956594736944"><ele>134.0</ele><time>2026-04-12T07:48:13Z</time></trkpt><trkpt lat="44.268656258375096" lon="11.577772217923266"><ele>133.25</ele><time>2026-04-12T07:48:14Z</time></trkpt><trkpt lat="44.26860544732608" lon="11.577583122900826"><ele>132.5</ele><time>2026-04-12T07:48:15Z</time></trkpt><trkpt lat="44.26855550140638" lon="11.577408967927342"><ele>131.75</ele><time>2026-04-12T07:48:16Z</time></trkpt><trkpt lat="44.2685052558248" lon="11.577230970628037"><ele>131.0</ele><time>2026-04-12T07:48:17Z</time></trkpt><trkpt lat="44.26845685178616" lon="11.57705208598228"><ele>130.5</ele><time>2026-04-12T07:48:18Z</time></trkpt><trkpt lat="44.26840996178814" lon="11.576882798565673"><ele>130.0</ele><time>2026-04-12T07:48:19Z</time></trkpt><trkpt lat="44.268363373101295" lon="11.576706373820572"><ele>129.5</ele><time>2026-04-12T07:48:20Z</time></trkpt><trkpt lat="44.26832121331247" lon="11.576546093220125"><ele>129.0</ele><time>2026-04-12T07:48:21Z</time></trkpt><trkpt lat="44.26827613168166" lon="11.57637932996348"><ele>129.0</ele><time>2026-04-12T07:48:22Z</time></trkpt><trkpt lat="44.268229288074465" lon="11.576207759105115"><ele>129.0</ele><time>2026-04-12T07:48:23Z</time></trkpt><trkpt lat="44.26818140099131" lon="11.576039557660192"><ele>129.0</ele><time>2026-04-12T07:48:24Z</time></trkpt><trkpt lat="44.26813427734401" lon="11.575878472596298"><ele>129.0</ele><time>2026-04-12T07:48:25Z</time></trkpt><trkpt lat="44.268088845794544" lon="11.575706293626327"><ele>130.75</ele><time>2026-04-12T07:48:26Z</time></trkpt><trkpt lat="44.26803807847663" lon="11.575541866600378"><ele>132.5</ele><time>2026-04-12T07:48:27Z</time></trkpt><trkpt lat="44.26798877912198" lon="11.575368591195629"><ele>134.25</ele><time>2026-04-12T07:48:28Z</time></trkpt><trkpt lat="44.267936544972194" lon="11.575185432446354"><ele>136.0</ele><time>2026-04-12T07:48:29Z</time></trkpt><trkpt lat="44.26788652894591" lon="11.575009713454296"><ele>136.0</ele><time>2026-04-12T07:48:30Z</time></trkpt><trkpt lat="44.267827717154" lon="11.574832013957803"><ele>136.0</ele><time>2026-04-12T07:48:31Z</time></trkpt><trkpt lat="44.26777595905472" lon="11.574639410681986"><ele>136.0</ele><time>2026-04-12T07:48:32Z</time></trkpt><trkpt lat="44.267725875079066" lon="11.57446359866734"><ele>136.0</ele><time>2026-04-12T07:48:33Z</time></trkpt><trkpt lat="44.26767652722473" lon="11.574283154018287"><ele>137.0</ele><time>2026-04-12T07:48:34Z</time></trkpt><trkpt lat="44.26763038182753" lon="11.574113083483187"><ele>138.0</ele><time>2026-04-12T07:48:35Z</time></trkpt><trkpt lat="44.26758226924892" lon="11.573939753739207"><ele>139.0</ele><time>2026-04-12T07:48:36Z</time></trkpt><trkpt lat="44.26753443224664" lon="11.573770358354466"><ele>140.0</ele><time>2026-04-12T07:48:37Z</time></trkpt><trkpt lat="44.26748690360309" lon="11.573610351045705"><ele>141.0</ele><time>2026-04-12T07:48:38Z</time></trkpt><trkpt lat="44.26744366691435" lon="11.573444770721496"><ele>142.0</ele><time>2026-04-12T07:48:39Z</time></trkpt><trkpt lat="44.26739528806221" lon="11.573281996634071"><ele>143.0</ele><time>2026-04-12T07:48:40Z</time></trkpt><trkpt lat="44.26734847655811" lon="11.573110745144994"><ele>144.0</ele><time>2026-04-12T07:48:41Z</time></trkpt><trkpt lat="44.267304085841616" lon="11.57295970435868"><ele>145.5</ele><time>2026-04-12T07:48:42Z</time></trkpt><trkpt lat="44.26726365793544" lon="11.572835176275952"><ele>147.0</ele><time>2026-04-12T07:48:43Z</time></trkpt><trkpt lat="44.26724724298759" lon="11.572721862103943"><ele>148.5</ele><time>2026-04-12T07:48:44Z</time></trkpt><trkpt lat="44.267208960055676" lon="11.572643878628242"><ele>150.0</ele><time>2026-04-12T07:48:45Z</time></trkpt><trkpt lat="44.26718602944078" lon="11.572558803895133"><ele>151.5</ele><time>2026-04-12T07:48:46Z</time></trkpt><trkpt lat="44.26715435912881" lon="11.572418459182238"><ele>153.0</ele><time>2026-04-12T07:48:48Z</time></trkpt><trkpt lat="44.267122062549966" lon="11.57232606395757"><ele>153.0</ele><time>2026-04-12T07:48:49Z</time></trkpt><trkpt lat="44.26708346801229" lon="11.57222427546395"><ele>153.0</ele><time>2026-04-12T07:48:50Z</time></trkpt><trkpt lat="44.26702864649577" lon="11.572099519468928"><ele>153.0</ele><time>2026-04-12T07:48:51Z</time></trkpt><trkpt lat="44.266949771711424" lon="11.571965775909474"><ele>153.0</ele><time>2026-04-12T07:48:52Z</time></trkpt><trkpt lat="44.266856701976565" lon="11.571827793579834"><ele>153.0</ele><time>2026-04-12T07:48:53Z</time></trkpt><trkpt lat="44.26675570276294" lon="11.571709491757233"><ele>152.5</ele><time>2026-04-12T07:48:54Z</time></trkpt><trkpt lat="44.266650624116274" lon="11.571585291264572"><ele>152.0</ele><time>2026-04-12T07:48:55Z</time></trkpt><trkpt lat="44.26654876061648" lon="11.571466088801147"><ele>151.5</ele><time>2026-04-12T07:48:56Z</time></trkpt><trkpt lat="44.266449787428016" lon="11.571344507439175"><ele>151.0</ele><time>2026-04-12T07:48:57Z</time></trkpt><trkpt lat="44.26634950997577" lon="11.57122754687365"><ele>152.75</ele><time>2026-04-12T07:48:58Z</time></trkpt><trkpt lat="44.266240241552005" lon="11.57109371787293"><ele>154.5</ele><time>2026-04-12T07:48:59Z</time></trkpt><trkpt lat="44.266131260775865" lon="11.570965455170315"><ele>156.25</ele><time>2026-04-12T07:49:00Z</time></trkpt><trkpt lat="44.266021561549415" lon="11.57083236499759"><ele>158.0</ele><time>2026-04-12T07:49:01Z</time></trkpt><trkpt lat="44.26591417434412" lon="11.57070106731595"><ele>158.0</ele><time>2026-04-12T07:49:02Z</time></trkpt><trkpt lat="44.26580118513291" lon="11.570567811315088"><ele>158.0</ele><time>2026-04-12T07:49:03Z</time></trkpt><trkpt lat="44.26569026760109" lon="11.570439657303291"><ele>158.0</ele><time>2026-04-12T07:49:04Z</time></trkpt><trkpt lat="44.265580444554764" lon="11.570302511064046"><ele>158.0</ele><time>2026-04-12T07:49:05Z</time></trkpt><trkpt lat="44.265474609467155" lon="11.570169950361768"><ele>158.5</ele><time>2026-04-12T07:49:06Z</time></trkpt><trkpt lat="44.26536644920734" lon="11.57003439066234"><ele>159.0</ele><time>2026-04-12T07:49:07Z</time></trkpt><trkpt lat="44.265256563350505" lon="11.569891884163361"><ele>159.5</ele><time>2026-04-12T07:49:08Z</time></trkpt><trkpt lat="44.26515702180877" lon="11.569737994033654"><ele>160.0</ele><time>2026-04-12T07:49:09Z</time></trkpt><trkpt lat="44.265064363815746" lon="11.569576256305355"><ele>158.66666666666669</ele><time>2026-04-12T07:49:10Z</time></trkpt><trkpt lat="44.264986627296615" lon="11.569390818167369"><ele>157.33333333333334</ele><time>2026-04-12T07:49:11Z</time></trkpt><trkpt lat="44.264915759178166" lon="11.569204367388977"><ele>156.0</ele><time>2026-04-12T07:49:12Z</time></trkpt><trkpt lat="44.26484819788338" lon="11.569010767784999"><ele>156.0</ele><time>2026-04-12T07:49:13Z</time></trkpt><trkpt lat="44.26478754615837" lon="11.568815799607739"><ele>156.0</ele><time>2026-04-12T07:49:14Z</time></trkpt><trkpt lat="44.264721155718554" lon="11.568608415345095"><ele>156.0</ele><time>2026-04-12T07:49:15Z</time></trkpt><trkpt lat="44.26464882076492" lon="11.568392278538443"><ele>157.0</ele><time>2026-04-12T07:49:16Z</time></trkpt><trkpt lat="44.26458470386901" lon="11.568179506368743"><ele>158.0</ele><time>2026-04-12T07:49:17Z</time></trkpt><trkpt lat="44.26451666316114" lon="11.567968057273902"><ele>159.0</ele><time>2026-04-12T07:49:18Z</time></trkpt><trkpt lat="44.264448980509776" lon="11.567756825546077"><ele>159.0</ele><time>2026-04-12T07:49:19Z</time></trkpt><trkpt lat="44.264379694923896" lon="11.567544102145508"><ele>159.0</ele><time>2026-04-12T07:49:20Z</time></trkpt><trkpt lat="44.264318000060285" lon="11.567343362430561"><ele>159.0</ele><time>2026-04-12T07:49:21Z</time></trkpt><trkpt lat="44.26424577182629" lon="11.567142299982807"><ele>158.0</ele><time>2026-04-12T07:49:22Z</time></trkpt><trkpt lat="44.26418988593526" lon="11.566958701479033"><ele>157.0</ele><time>2026-04-12T07:49:23Z</time></trkpt><trkpt lat="44.26413754694159" lon="11.566772897167455"><ele>156.0</ele><time>2026-04-12T07:49:24Z</time></trkpt><trkpt lat="44.264078857156186" lon="11.566590569962512"><ele>155.0</ele><time>2026-04-12T07:49:25Z</time></trkpt><trkpt lat="44.26402199088741" lon="11.566415657315556"><ele>155.0</ele><time>2026-04-12T07:49:26Z</time></trkpt><trkpt lat="44.263954325856695" lon="11.566249252840057"><ele>155.0</ele><time>2026-04-12T07:49:27Z</time></trkpt><trkpt lat="44.26387437261259" lon="11.566094971657225"><ele>155.0</ele><time>2026-04-12T07:49:28Z</time></trkpt><trkpt lat="44.26379291379359" lon="11.565957475291489"><ele>155.0</ele><time>2026-04-12T07:49:29Z</time></trkpt><trkpt lat="44.263706244400275" lon="11.565825581814448"><ele>155.75</ele><time>2026-04-12T07:49:30Z</time></trkpt><trkpt lat="44.26361128294517" lon="11.565695803514473"><ele>156.5</ele><time>2026-04-12T07:49:31Z</time></trkpt><trkpt lat="44.2635137483626" lon="11.565575387441845"><ele>157.25</ele><time>2026-04-12T07:49:32Z</time></trkpt><trkpt lat="44.26341661881943" lon="11.565451019454873"><ele>158.0</ele><time>2026-04-12T07:49:33Z</time></trkpt><trkpt lat="44.263319251009634" lon="11.565321477771956"><ele>158.0</ele><time>2026-04-12T07:49:34Z</time></trkpt><trkpt lat="44.26322360034235" lon="11.565210292847384"><ele>158.0</ele><time>2026-04-12T07:49:35Z</time></trkpt><trkpt lat="44.26312242317212" lon="11.565092324308095"><ele>158.0</ele><time>2026-04-12T07:49:36Z</time></trkpt><trkpt lat="44.263021991826044" lon="11.564964917202744"><ele>158.0</ele><time>2026-04-12T07:49:37Z</time></trkpt><trkpt lat="44.26292120175301" lon="11.564847728609376"><ele>159.0</ele><time>2026-04-12T07:49:38Z</time></trkpt><trkpt lat="44.2628237834575" lon="11.564716639632117"><ele>160.0</ele><time>2026-04-12T07:49:39Z</time></trkpt><trkpt lat="44.26272427616347" lon="11.564601991448072"><ele>161.0</ele><time>2026-04-12T07:49:40Z</time></trkpt><trkpt lat="44.26262273563393" lon="11.564482217763079"><ele>162.0</ele><time>2026-04-12T07:49:41Z</time></trkpt><trkpt lat="44.262527441401474" lon="11.56435431121432"><ele>162.0</ele><time>2026-04-12T07:49:42Z</time></trkpt><trkpt lat="44.26243651794442" lon="11.564230760892709"><ele>162.0</ele><time>2026-04-12T07:49:43Z</time></trkpt><trkpt lat="44.26234153639563" lon="11.564104141305913"><ele>162.0</ele><time>2026-04-12T07:49:44Z</time></trkpt><trkpt lat="44.262243181775055" lon="11.563980179739014"><ele>162.0</ele><time>2026-04-12T07:49:45Z</time></trkpt><trkpt lat="44.26213736077616" lon="11.563850919931031"><ele>163.0</ele><time>2026-04-12T07:49:46Z</time></trkpt><trkpt lat="44.26203659092782" lon="11.563726337201519"><ele>164.0</ele><time>2026-04-12T07:49:47Z</time></trkpt><trkpt lat="44.26192981237974" lon="11.563602142345305"><ele>165.0</ele><time>2026-04-12T07:49:48Z</time></trkpt><trkpt lat="44.26183692159974" lon="11.563485312823214"><ele>166.0</ele><time>2026-04-12T07:49:49Z</time></trkpt><trkpt lat="44.26173108311265" lon="11.563353038454858"><ele>166.0</ele><time>2026-04-12T07:49:50Z</time></trkpt><trkpt lat="44.2616319455075" lon="11.56322626362809"><ele>166.0</ele><time>2026-04-12T07:49:51Z</time></trkpt><trkpt lat="44.26153017764401" lon="11.563101843835767"><ele>166.0</ele><time>2026-04-12T07:49:52Z</time></trkpt><trkpt lat="44.26143050839589" lon="11.562976677599073"><ele>166.0</ele><time>2026-04-12T07:49:53Z</time></trkpt><trkpt lat="44.26133282175628" lon="11.562851819423592"><ele>167.25</ele><time>2026-04-12T07:49:54Z</time></trkpt><trkpt lat="44.26123486461722" lon="11.562732500768625"><ele>168.5</ele><time>2026-04-12T07:49:55Z</time></trkpt><trkpt lat="44.261133341827176" lon="11.562617117185384"><ele>169.75</ele><time>2026-04-12T07:49:56Z</time></trkpt><trkpt lat="44.26102633041796" lon="11.562507464584735"><ele>171.0</ele><time>2026-04-12T07:49:57Z</time></trkpt><trkpt lat="44.26090671583674" lon="11.56239134656996"><ele>171.0</ele><time>2026-04-12T07:49:58Z</time></trkpt><trkpt lat="44.26078754931787" lon="11.562304120668161"><ele>171.0</ele><time>2026-04-12T07:49:59Z</time></trkpt><trkpt lat="44.260668205863006" lon="11.562233543181728"><ele>171.0</ele><time>2026-04-12T07:50:00Z</time></trkpt><trkpt lat="44.260550012541785" lon="11.562167125123711"><ele>171.0</ele><time>2026-04-12T07:50:01Z</time></trkpt><trkpt lat="44.2604306124535" lon="11.562115897665771"><ele>170.5</ele><time>2026-04-12T07:50:02Z</time></trkpt><trkpt lat="44.26030859709201" lon="11.56206085996924"><ele>170.0</ele><time>2026-04-12T07:50:03Z</time></trkpt><trkpt lat="44.260187141172615" lon="11.56200591297886"><ele>169.5</ele><time>2026-04-12T07:50:04Z</time></trkpt><trkpt lat="44.260060275918484" lon="11.561936802503183"><ele>169.0</ele><time>2026-04-12T07:50:05Z</time></trkpt><trkpt lat="44.25993828277408" lon="11.561879454593276"><ele>170.0</ele><time>2026-04-12T07:50:06Z</time></trkpt><trkpt lat="44.25981699617767" lon="11.56182213764828"><ele>171.0</ele><time>2026-04-12T07:50:07Z</time></trkpt><trkpt lat="44.25969262616941" lon="11.56174736194598"><ele>172.0</ele><time>2026-04-12T07:50:08Z</time></trkpt><trkpt lat="44.25957800207297" lon="11.561659079328246"><ele>173.0</ele><time>2026-04-12T07:50:09Z</time></trkpt><trkpt lat="44.25947623491608" lon="11.561528000685888"><ele>173.0</ele><time>2026-04-12T07:50:10Z</time></trkpt><trkpt lat="44.25938743583111" lon="11.561430682985499"><ele>173.0</ele><time>2026-04-12T07:50:11Z</time></trkpt><trkpt lat="44.259316045716695" lon="11.56131541348911"><ele>173.0</ele><time>2026-04-12T07:50:12Z</time></trkpt><trkpt lat="44.2592520179537" lon="11.561203185500036"><ele>173.0</ele><time>2026-04-12T07:50:13Z</time></trkpt><trkpt lat="44.25919069081909" lon="11.561054755559088"><ele>173.0</ele><time>2026-04-12T07:50:14Z</time></trkpt><trkpt lat="44.2591343522699" lon="11.560920703898097"><ele>172.25</ele><time>2026-04-12T07:50:15Z</time></trkpt><trkpt lat="44.25908663630017" lon="11.560777815876333"><ele>171.5</ele><time>2026-04-12T07:50:16Z</time></trkpt><trkpt lat="44.259052354963046" lon="11.560636942241919"><ele>170.75</ele><time>2026-04-12T07:50:17Z</time></trkpt><trkpt lat="44.25901558056746" lon="11.560486353469965"><ele>170.0</ele><time>2026-04-12T07:50:18Z</time></trkpt><trkpt lat="44.25897838795222" lon="11.560330275060759"><ele>169.8</ele><time>2026-04-12T07:50:19Z</time></trkpt><trkpt lat="44.258947094827775" lon="11.56018084932121"><ele>169.6</ele><time>2026-04-12T07:50:20Z</time></trkpt><trkpt lat="44.25891404684892" lon="11.560037836725032"><ele>169.39999999999998</ele><time>2026-04-12T07:50:21Z</time></trkpt><trkpt lat="44.258878456711805" lon="11.559900962915926"><ele>169.2</ele><time>2026-04-12T07:50:22Z</time></trkpt><trkpt lat="44.258848141141904" lon="11.559760426792934"><ele>169.0</ele><time>2026-04-12T07:50:23Z</time></trkpt><trkpt lat="44.25880636099576" lon="11.559628477795364"><ele>170.75</ele><time>2026-04-12T07:50:24Z</time></trkpt><trkpt lat="44.258765552327326" lon="11.559484872946738"><ele>172.5</ele><time>2026-04-12T07:50:25Z</time></trkpt><trkpt lat="44.25872669583478" lon="11.559335899589602"><ele>174.25</ele><time>2026-04-12T07:50:26Z</time></trkpt><trkpt lat="44.25868287668038" lon="11.559182801977974"><ele>176.0</ele><time>2026-04-12T07:50:27Z</time></trkpt><trkpt lat="44.258640550114855" lon="11.559022766463842"><ele>176.0</ele><time>2026-04-12T07:50:28Z</time></trkpt><trkpt lat="44.2585928207973" lon="11.558858091389146"><ele>176.0</ele><time>2026-04-12T07:50:29Z</time></trkpt><trkpt lat="44.25855018189032" lon="11.558691553776264"><ele>176.0</ele><time>2026-04-12T07:50:30Z</time></trkpt><trkpt lat="44.258502679850025" lon="11.55854660924129"><ele>176.0</ele><time>2026-04-12T07:50:31Z</time></trkpt><trkpt lat="44.258448507027374" lon="11.558415007735707"><ele>175.75</ele><time>2026-04-12T07:50:32Z</time></trkpt><trkpt lat="44.258378773582535" lon="11.558303305078331"><ele>175.5</ele><time>2026-04-12T07:50:33Z</time></trkpt><trkpt lat="44.25830566859751" lon="11.558187340731784"><ele>175.25</ele><time>2026-04-12T07:50:34Z</time></trkpt><trkpt lat="44.25822511085795" lon="11.558058140079293"><ele>175.0</ele><time>2026-04-12T07:50:35Z</time></trkpt><trkpt lat="44.25813464957415" lon="11.557927228571298"><ele>174.5</ele><time>2026-04-12T07:50:36Z</time></trkpt><trkpt lat="44.25803997231006" lon="11.557795630150002"><ele>174.0</ele><time>2026-04-12T07:50:37Z</time></trkpt><trkpt lat="44.257950245601876" lon="11.557661017775557"><ele>173.5</ele><time>2026-04-12T07:50:38Z</time></trkpt><trkpt lat="44.257858851842926" lon="11.557532348009648"><ele>173.0</ele><time>2026-04-12T07:50:39Z</time></trkpt><trkpt lat="44.257768954939934" lon="11.55739812350453"><ele>173.0</ele><time>2026-04-12T07:50:40Z</time></trkpt><trkpt lat="44.25767974841355" lon="11.557263794530243"><ele>173.0</ele><time>2026-04-12T07:50:41Z</time></trkpt><trkpt lat="44.257591495733195" lon="11.557130368315295"><ele>173.0</ele><time>2026-04-12T07:50:42Z</time></trkpt><trkpt lat="44.25749665241206" lon="11.556983487455312"><ele>173.0</ele><time>2026-04-12T07:50:43Z</time></trkpt><trkpt lat="44.2573986812736" lon="11.556840528634172"><ele>173.25</ele><time>2026-04-12T07:50:44Z</time></trkpt><trkpt lat="44.25730597092436" lon="11.556706476536107"><ele>173.5</ele><time>2026-04-12T07:50:45Z</time></trkpt><trkpt lat="44.25720896461189" lon="11.556553984886765"><ele>173.75</ele><time>2026-04-12T07:50:46Z</time></trkpt><trkpt lat="44.257104002376565" lon="11.556405465950155"><ele>174.0</ele><time>2026-04-12T07:50:47Z</time></trkpt><trkpt lat="44.257001350050835" lon="11.556259162108457"><ele>174.0</ele><time>2026-04-12T07:50:48Z</time></trkpt><trkpt lat="44.25689991097332" lon="11.556105525951558"><ele>174.0</ele><time>2026-04-12T07:50:49Z</time></trkpt><trkpt lat="44.256788784211146" lon="11.555943570585002"><ele>174.0</ele><time>2026-04-12T07:50:50Z</time></trkpt><trkpt lat="44.256676604298065" lon="11.555781393883601"><ele>174.0</ele><time>2026-04-12T07:50:51Z</time></trkpt><trkpt lat="44.256564794525" lon="11.555614260364022"><ele>174.0</ele><time>2026-04-12T07:50:52Z</time></trkpt><trkpt lat="44.25645035614048" lon="11.555438261302115"><ele>174.0</ele><time>2026-04-12T07:50:53Z</time></trkpt><trkpt lat="44.25633090299785" lon="11.555255321509044"><ele>174.0</ele><time>2026-04-12T07:50:54Z</time></trkpt><trkpt lat="44.25620527212904" lon="11.555075869590267"><ele>174.0</ele><time>2026-04-12T07:50:55Z</time></trkpt><trkpt lat="44.256086410372355" lon="11.554897846775924"><ele>174.0</ele><time>2026-04-12T07:50:56Z</time></trkpt><trkpt lat="44.255969510096484" lon="11.554720729299081"><ele>174.0</ele><time>2026-04-12T07:50:57Z</time></trkpt><trkpt lat="44.255857583142536" lon="11.554554382343117"><ele>174.0</ele><time>2026-04-12T07:50:58Z</time></trkpt><trkpt lat="44.25574977967729" lon="11.554382895041579"><ele>174.0</ele><time>2026-04-12T07:50:59Z</time></trkpt><trkpt lat="44.25564812841228" lon="11.55420745077383"><ele>174.66666666666666</ele><time>2026-04-12T07:51:00Z</time></trkpt><trkpt lat="44.255554387732595" lon="11.554029632458214"><ele>175.33333333333331</ele><time>2026-04-12T07:51:01Z</time></trkpt><trkpt lat="44.25546140764352" lon="11.553840707227312"><ele>176.0</ele><time>2026-04-12T07:51:02Z</time></trkpt><trkpt lat="44.25537797118852" lon="11.553655377650188"><ele>174.0</ele><time>2026-04-12T07:51:03Z</time></trkpt><trkpt lat="44.25529887482353" lon="11.553468250505246"><ele>172.0</ele><time>2026-04-12T07:51:04Z</time></trkpt><trkpt lat="44.25520811917755" lon="11.553264682678641"><ele>170.0</ele><time>2026-04-12T07:51:05Z</time></trkpt><trkpt lat="44.25513084976785" lon="11.553076378369413"><ele>170.0</ele><time>2026-04-12T07:51:06Z</time></trkpt><trkpt lat="44.255056022965704" lon="11.552898299629982"><ele>170.0</ele><time>2026-04-12T07:51:07Z</time></trkpt><trkpt lat="44.25498456390675" lon="11.552727893566052"><ele>170.0</ele><time>2026-04-12T07:51:08Z</time></trkpt><trkpt lat="44.254918774070454" lon="11.552563754302737"><ele>170.0</ele><time>2026-04-12T07:51:09Z</time></trkpt><trkpt lat="44.254856815796174" lon="11.55240279509611"><ele>169.5</ele><time>2026-04-12T07:51:10Z</time></trkpt><trkpt lat="44.25479011475282" lon="11.55223473647263"><ele>169.0</ele><time>2026-04-12T07:51:11Z</time></trkpt><trkpt lat="44.25471841346744" lon="11.552065420073482"><ele>168.5</ele><time>2026-04-12T07:51:12Z</time></trkpt><trkpt lat="44.25465221239917" lon="11.551915351912061"><ele>168.0</ele><time>2026-04-12T07:51:13Z</time></trkpt><trkpt lat="44.25457879880551" lon="11.551774249862067"><ele>168.0</ele><time>2026-04-12T07:51:14Z</time></trkpt><trkpt lat="44.254491762684154" lon="11.551634470108938"><ele>168.0</ele><time>2026-04-12T07:51:15Z</time></trkpt><trkpt lat="44.25439346763035" lon="11.551503982929985"><ele>168.0</ele><time>2026-04-12T07:51:16Z</time></trkpt><trkpt lat="44.25428379342411" lon="11.551377264646986"><ele>168.0</ele><time>2026-04-12T07:51:17Z</time></trkpt><trkpt lat="44.25417100740203" lon="11.551262080486792"><ele>167.75</ele><time>2026-04-12T07:51:18Z</time></trkpt><trkpt lat="44.25405241467132" lon="11.551158580561289"><ele>167.5</ele><time>2026-04-12T07:51:19Z</time></trkpt><trkpt lat="44.25393596212071" lon="11.551045906126605"><ele>167.25</ele><time>2026-04-12T07:51:20Z</time></trkpt><trkpt lat="44.2538217420641" lon="11.550936916750901"><ele>167.0</ele><time>2026-04-12T07:51:21Z</time></trkpt><trkpt lat="44.253711626066895" lon="11.550843358109526"><ele>168.75</ele><time>2026-04-12T07:51:22Z</time></trkpt><trkpt lat="44.25361197226237" lon="11.550750626917372"><ele>170.5</ele><time>2026-04-12T07:51:23Z</time></trkpt><trkpt lat="44.25351525867601" lon="11.550664900519303"><ele>172.25</ele><time>2026-04-12T07:51:24Z</time></trkpt><trkpt lat="44.25340757122023" lon="11.550580768068691"><ele>174.0</ele><time>2026-04-12T07:51:25Z</time></trkpt><trkpt lat="44.25330391052321" lon="11.55049292550502"><ele>174.0</ele><time>2026-04-12T07:51:26Z</time></trkpt><trkpt lat="44.25319467454314" lon="11.550403127859676"><ele>174.0</ele><time>2026-04-12T07:51:27Z</time></trkpt><trkpt lat="44.25309919338731" lon="11.550311162533871"><ele>174.0</ele><time>2026-04-12T07:51:28Z</time></trkpt><trkpt lat="44.25299822114843" lon="11.550195388164207"><ele>174.0</ele><time>2026-04-12T07:51:29Z</time></trkpt><trkpt lat="44.252913766490856" lon="11.550061533563282"><ele>174.25</ele><time>2026-04-12T07:51:30Z</time></trkpt><trkpt lat="44.25284377248008" lon="11.549923307095186"><ele>174.5</ele><time>2026-04-12T07:51:31Z</time></trkpt><trkpt lat="44.25278120562265" lon="11.5497668734479"><ele>174.75</ele><time>2026-04-12T07:51:32Z</time></trkpt><trkpt lat="44.25272961460721" lon="11.54960438630093"><ele>175.0</ele><time>2026-04-12T07:51:33Z</time></trkpt><trkpt lat="44.252689541322546" lon="11.549427243891207"><ele>175.0</ele><time>2026-04-12T07:51:34Z</time></trkpt><trkpt lat="44.25267620349096" lon="11.549246050097414"><ele>175.0</ele><time>2026-04-12T07:51:35Z</time></trkpt><trkpt lat="44.25264445872457" lon="11.549070914309944"><ele>175.0</ele><time>2026-04-12T07:51:36Z</time></trkpt><trkpt lat="44.252619128198" lon="11.548901386154098"><ele>175.0</ele><time>2026-04-12T07:51:37Z</time></trkpt><trkpt lat="44.25258464126655" lon="11.548719442478733"><ele>175.25</ele><time>2026-04-12T07:51:38Z</time></trkpt><trkpt lat="44.25255713501762" lon="11.548538527018428"><ele>175.5</ele><time>2026-04-12T07:51:39Z</time></trkpt><trkpt lat="44.25252636279395" lon="11.548360591566052"><ele>175.75</ele><time>2026-04-12T07:51:40Z</time></trkpt><trkpt lat="44.25249642659064" lon="11.548183952288147"><ele>176.0</ele><time>2026-04-12T07:51:41Z</time></trkpt><trkpt lat="44.25246678070169" lon="11.548005898062772"><ele>175.0</ele><time>2026-04-12T07:51:42Z</time></trkpt><trkpt lat="44.25243834188916" lon="11.547826333752036"><ele>174.0</ele><time>2026-04-12T07:51:43Z</time></trkpt><trkpt lat="44.25240689525378" lon="11.547648586969421"><ele>173.0</ele><time>2026-04-12T07:51:44Z</time></trkpt><trkpt lat="44.25237689252937" lon="11.547479518777877"><ele>172.0</ele><time>2026-04-12T07:51:45Z</time></trkpt><trkpt lat="44.252346240329814" lon="11.547300410222102"><ele>172.0</ele><time>2026-04-12T07:51:46Z</time></trkpt><trkpt lat="44.2523157708313" lon="11.547117223781582"><ele>172.0</ele><time>2026-04-12T07:51:47Z</time></trkpt><trkpt lat="44.252284189776006" lon="11.54693437532265"><ele>172.0</ele><time>2026-04-12T07:51:48Z</time></trkpt><trkpt lat="44.252246609498876" lon="11.54674757616471"><ele>172.0</ele><time>2026-04-12T07:51:49Z</time></trkpt><trkpt lat="44.25220050322427" lon="11.546571983265212"><ele>172.75</ele><time>2026-04-12T07:51:50Z</time></trkpt><trkpt lat="44.25214531684001" lon="11.546413344217964"><ele>173.5</ele><time>2026-04-12T07:51:51Z</time></trkpt><trkpt lat="44.25208120178292" lon="11.546262871093251"><ele>174.25</ele><time>2026-04-12T07:51:52Z</time></trkpt><trkpt lat="44.2520063195686" lon="11.546123390831069"><ele>175.0</ele><time>2026-04-12T07:51:53Z</time></trkpt><trkpt lat="44.25192171399732" lon="11.54598082888258"><ele>175.25</ele><time>2026-04-12T07:51:54Z</time></trkpt><trkpt lat="44.25183073594021" lon="11.545843602185522"><ele>175.5</ele><time>2026-04-12T07:51:55Z</time></trkpt><trkpt lat="44.25173686364048" lon="11.54569869873456"><ele>175.75</ele><time>2026-04-12T07:51:56Z</time></trkpt><trkpt lat="44.25164476780413" lon="11.54558165558754"><ele>176.0</ele><time>2026-04-12T07:51:57Z</time></trkpt><trkpt lat="44.25155459837116" lon="11.545477683732713"><ele>176.0</ele><time>2026-04-12T07:51:58Z</time></trkpt><trkpt lat="44.25147196350803" lon="11.545385673943994"><ele>176.0</ele><time>2026-04-12T07:51:59Z</time></trkpt><trkpt lat="44.251384619564824" lon="11.545297302510924"><ele>176.0</ele><time>2026-04-12T07:52:00Z</time></trkpt><trkpt lat="44.25130570671105" lon="11.545201143653237"><ele>176.0</ele><time>2026-04-12T07:52:01Z</time></trkpt><trkpt lat="44.251234983583004" lon="11.545112092719908"><ele>176.0</ele><time>2026-04-12T07:52:02Z</time></trkpt><trkpt lat="44.25116278905594" lon="11.545039012984002"><ele>176.0</ele><time>2026-04-12T07:52:03Z</time></trkpt><trkpt lat="44.251095224267" lon="11.544965605252333"><ele>176.0</ele><time>2026-04-12T07:52:04Z</time></trkpt><trkpt lat="44.25106666780982" lon="11.544879379774054"><ele>176.0</ele><time>2026-04-12T07:52:05Z</time></trkpt><trkpt lat="44.25111835249015" lon="11.544695511548271"><ele>176.0</ele><time>2026-04-12T07:52:07Z</time></trkpt><trkpt lat="44.251094904362546" lon="11.544575136960336"><ele>176.0</ele><time>2026-04-12T07:52:08Z</time></trkpt><trkpt lat="44.251050287851854" lon="11.544470032447075"><ele>174.83333333333331</ele><time>2026-04-12T07:52:09Z</time></trkpt><trkpt lat="44.25095737146847" lon="11.54443660610467"><ele>173.66666666666666</ele><time>2026-04-12T07:52:10Z</time></trkpt><trkpt lat="44.25090363478954" lon="11.54437972220201"><ele>172.5</ele><time>2026-04-12T07:52:11Z</time></trkpt><trkpt lat="44.25087284327692" lon="11.544279576084085"><ele>171.33333333333334</ele><time>2026-04-12T07:52:12Z</time></trkpt><trkpt lat="44.250867069984274" lon="11.544168903102442"><ele>170.16666666666669</ele><time>2026-04-12T07:52:13Z</time></trkpt><trkpt lat="44.250850694939835" lon="11.544057000640333"><ele>169.0</ele><time>2026-04-12T07:52:14Z</time></trkpt><trkpt lat="44.25082650814353" lon="11.54395814366898"><ele>169.0</ele><time>2026-04-12T07:52:15Z</time></trkpt><trkpt lat="44.250778191111124" lon="11.543869622230728"><ele>169.0</ele><time>2026-04-12T07:52:16Z</time></trkpt><trkpt lat="44.25070974745666" lon="11.543806572632755"><ele>169.0</ele><time>2026-04-12T07:52:17Z</time></trkpt><trkpt lat="44.25064049871495" lon="11.543721815721355"><ele>169.0</ele><time>2026-04-12T07:52:18Z</time></trkpt><trkpt lat="44.25056318688459" lon="11.543636604475395"><ele>169.0</ele><time>2026-04-12T07:52:19Z</time></trkpt><trkpt lat="44.25049999392092" lon="11.54352453885939"><ele>168.75</ele><time>2026-04-12T07:52:20Z</time></trkpt><trkpt lat="44.250477817897696" lon="11.543377159345274"><ele>168.5</ele><time>2026-04-12T07:52:21Z</time></trkpt><trkpt lat="44.25048845695147" lon="11.54321496879304"><ele>168.25</ele><time>2026-04-12T07:52:22Z</time></trkpt><trkpt lat="44.250545098498065" lon="11.543082900708901"><ele>168.0</ele><time>2026-04-12T07:52:23Z</time></trkpt><trkpt lat="44.25059115957059" lon="11.5429355869217"><ele>166.60000000000002</ele><time>2026-04-12T07:52:24Z</time></trkpt><trkpt lat="44.250612606127866" lon="11.542782006021243"><ele>165.20000000000002</ele><time>2026-04-12T07:52:25Z</time></trkpt><trkpt lat="44.25065070912197" lon="11.54264166841051"><ele>163.8</ele><time>2026-04-12T07:52:26Z</time></trkpt><trkpt lat="44.25068557205818" lon="11.542498394495555"><ele>162.4</ele><time>2026-04-12T07:52:27Z</time></trkpt><trkpt lat="44.25073494896268" lon="11.542363409492092"><ele>161.0</ele><time>2026-04-12T07:52:28Z</time></trkpt><trkpt lat="44.25081061845837" lon="11.542260795595368"><ele>157.75</ele><time>2026-04-12T07:52:29Z</time></trkpt><trkpt lat="44.250897525477406" lon="11.542184127459489"><ele>154.5</ele><time>2026-04-12T07:52:30Z</time></trkpt><trkpt lat="44.25098859922679" lon="11.542089453263717"><ele>151.25</ele><time>2026-04-12T07:52:31Z</time></trkpt><trkpt lat="44.25104357303556" lon="11.541939417051692"><ele>148.0</ele><time>2026-04-12T07:52:32Z</time></trkpt><trkpt lat="44.25112480940581" lon="11.541828021395062"><ele>147.5</ele><time>2026-04-12T07:52:33Z</time></trkpt><trkpt lat="44.25120757535802" lon="11.541726411910842"><ele>147.0</ele><time>2026-04-12T07:52:34Z</time></trkpt><trkpt lat="44.25132014177012" lon="11.541668713874019"><ele>146.5</ele><time>2026-04-12T07:52:35Z</time></trkpt><trkpt lat="44.25129680133005" lon="11.541473621780495"><ele>146.0</ele><time>2026-04-12T07:52:36Z</time></trkpt><trkpt lat="44.25128866547057" lon="11.541353504978579"><ele>146.0</ele><time>2026-04-12T07:52:37Z</time></trkpt><trkpt lat="44.25125355579071" lon="11.541233634875987"><ele>146.0</ele><time>2026-04-12T07:52:38Z</time></trkpt><trkpt lat="44.251205315943736" lon="11.541115791139989"><ele>146.0</ele><time>2026-04-12T07:52:39Z</time></trkpt><trkpt lat="44.25115286408072" lon="11.540991112815618"><ele>146.0</ele><time>2026-04-12T07:52:40Z</time></trkpt><trkpt lat="44.25108818954639" lon="11.540853930590814"><ele>146.0</ele><time>2026-04-12T07:52:41Z</time></trkpt><trkpt lat="44.25102069292429" lon="11.540711042189217"><ele>146.0</ele><time>2026-04-12T07:52:42Z</time></trkpt><trkpt lat="44.25096676358125" lon="11.540550129481586"><ele>146.0</ele><time>2026-04-12T07:52:43Z</time></trkpt><trkpt lat="44.25089596987413" lon="11.540401602345886"><ele>146.0</ele><time>2026-04-12T07:52:44Z</time></trkpt><trkpt lat="44.25082615899834" lon="11.540246712913126"><ele>146.0</ele><time>2026-04-12T07:52:45Z</time></trkpt><trkpt lat="44.250749113903375" lon="11.540094022898307"><ele>145.75</ele><time>2026-04-12T07:52:46Z</time></trkpt><trkpt lat="44.25067121960755" lon="11.539932174018103"><ele>145.5</ele><time>2026-04-12T07:52:47Z</time></trkpt><trkpt lat="44.25060548957171" lon="11.539764574656768"><ele>145.25</ele><time>2026-04-12T07:52:48Z</time></trkpt><trkpt lat="44.25051705562978" lon="11.539619399250983"><ele>145.0</ele><time>2026-04-12T07:52:49Z</time></trkpt><trkpt lat="44.25041318495136" lon="11.539463668815857"><ele>145.0</ele><time>2026-04-12T07:52:50Z</time></trkpt><trkpt lat="44.25029791980804" lon="11.539319894091353"><ele>145.0</ele><time>2026-04-12T07:52:51Z</time></trkpt><trkpt lat="44.250191189881015" lon="11.53919297475367"><ele>145.0</ele><time>2026-04-12T07:52:52Z</time></trkpt><trkpt lat="44.25009056662945" lon="11.539096224242137"><ele>145.0</ele><time>2026-04-12T07:52:53Z</time></trkpt><trkpt lat="44.25000134681464" lon="11.538978165683114"><ele>145.0</ele><time>2026-04-12T07:52:54Z</time></trkpt><trkpt lat="44.24991008068734" lon="11.538899475726609"><ele>145.0</ele><time>2026-04-12T07:52:55Z</time></trkpt><trkpt lat="44.24984746082508" lon="11.538789049669743"><ele>145.0</ele><time>2026-04-12T07:52:56Z</time></trkpt><trkpt lat="44.24981127297535" lon="11.538661392625748"><ele>145.0</ele><time>2026-04-12T07:52:58Z</time></trkpt><trkpt lat="44.24980257288375" lon="11.538532517178313"><ele>145.0</ele><time>2026-04-12T07:53:00Z</time></trkpt><trkpt lat="44.24984043283413" lon="11.538372397420062"><ele>143.0</ele><time>2026-04-12T07:53:02Z</time></trkpt><trkpt lat="44.24988148045239" lon="11.538279802910955"><ele>141.0</ele><time>2026-04-12T07:53:03Z</time></trkpt><trkpt lat="44.249936273858545" lon="11.538183809552692"><ele>139.0</ele><time>2026-04-12T07:53:04Z</time></trkpt><trkpt lat="44.249993608951925" lon="11.538071274767782"><ele>137.0</ele><time>2026-04-12T07:53:05Z</time></trkpt><trkpt lat="44.250052012916456" lon="11.53794730038548"><ele>135.0</ele><time>2026-04-12T07:53:06Z</time></trkpt><trkpt lat="44.25011560586524" lon="11.537819513055636"><ele>134.4</ele><time>2026-04-12T07:53:07Z</time></trkpt><trkpt lat="44.250179352821526" lon="11.537700137936158"><ele>133.8</ele><time>2026-04-12T07:53:08Z</time></trkpt><trkpt lat="44.25024423868783" lon="11.537572650718301"><ele>133.2</ele><time>2026-04-12T07:53:09Z</time></trkpt><trkpt lat="44.25030592313753" lon="11.537441865973786"><ele>132.6</ele><time>2026-04-12T07:53:10Z</time></trkpt><trkpt lat="44.25036790829495" lon="11.537328176353853"><ele>132.0</ele><time>2026-04-12T07:53:11Z</time></trkpt><trkpt lat="44.2504190396688" lon="11.537224628355434"><ele>132.0</ele><time>2026-04-12T07:53:12Z</time></trkpt><trkpt lat="44.250468040871674" lon="11.537109270604043"><ele>132.0</ele><time>2026-04-12T07:53:13Z</time></trkpt><trkpt lat="44.25047566348013" lon="11.53696897775458"><ele>132.0</ele><time>2026-04-12T07:53:14Z</time></trkpt><trkpt lat="44.25041005076563" lon="11.536826288359364"><ele>132.0</ele><time>2026-04-12T07:53:15Z</time></trkpt><trkpt lat="44.25034039636383" lon="11.536684907418067"><ele>132.0</ele><time>2026-04-12T07:53:16Z</time></trkpt><trkpt lat="44.25026486269482" lon="11.53654384722981"><ele>133.16666666666666</ele><time>2026-04-12T07:53:17Z</time></trkpt><trkpt lat="44.250195775442435" lon="11.536427312092297"><ele>134.33333333333334</ele><time>2026-04-12T07:53:18Z</time></trkpt><trkpt lat="44.25014317767534" lon="11.536324653611999"><ele>135.5</ele><time>2026-04-12T07:53:19Z</time></trkpt><trkpt lat="44.25009539978187" lon="11.536220965552307"><ele>136.66666666666669</ele><time>2026-04-12T07:53:20Z</time></trkpt><trkpt lat="44.25007578054138" lon="11.536124377003329"><ele>137.83333333333334</ele><time>2026-04-12T07:53:21Z</time></trkpt><trkpt lat="44.25008987219056" lon="11.536029442670444"><ele>139.0</ele><time>2026-04-12T07:53:22Z</time></trkpt><trkpt lat="44.250128309514" lon="11.535919574340813"><ele>141.75</ele><time>2026-04-12T07:53:23Z</time></trkpt><trkpt lat="44.250188487951306" lon="11.535815824828278"><ele>144.5</ele><time>2026-04-12T07:53:24Z</time></trkpt><trkpt lat="44.250266908054115" lon="11.5357087061572"><ele>147.25</ele><time>2026-04-12T07:53:25Z</time></trkpt><trkpt lat="44.25035611365265" lon="11.535591029427868"><ele>150.0</ele><time>2026-04-12T07:53:26Z</time></trkpt><trkpt lat="44.25044501999096" lon="11.535447302448748"><ele>151.5</ele><time>2026-04-12T07:53:27Z</time></trkpt><trkpt lat="44.25053057114089" lon="11.53529483278633"><ele>153.0</ele><time>2026-04-12T07:53:28Z</time></trkpt><trkpt lat="44.25062168335195" lon="11.535154243227096"><ele>154.5</ele><time>2026-04-12T07:53:29Z</time></trkpt><trkpt lat="44.25071397440688" lon="11.535027555077626"><ele>156.0</ele><time>2026-04-12T07:53:30Z</time></trkpt><trkpt lat="44.2508023571835" lon="11.534915484173094"><ele>156.25</ele><time>2026-04-12T07:53:31Z</time></trkpt><trkpt lat="44.25086867598608" lon="11.534781637275131"><ele>156.5</ele><time>2026-04-12T07:53:32Z</time></trkpt><trkpt lat="44.250901987506126" lon="11.534617250261029"><ele>156.75</ele><time>2026-04-12T07:53:33Z</time></trkpt><trkpt lat="44.25089570034959" lon="11.534438229977471"><ele>157.0</ele><time>2026-04-12T07:53:34Z</time></trkpt><trkpt lat="44.25083918682996" lon="11.534241515349876"><ele>158.25</ele><time>2026-04-12T07:53:35Z</time></trkpt><trkpt lat="44.25077232204945" lon="11.534077606385706"><ele>159.5</ele><time>2026-04-12T07:53:36Z</time></trkpt><trkpt lat="44.250711952826734" lon="11.533918991560554"><ele>160.75</ele><time>2026-04-12T07:53:37Z</time></trkpt><trkpt lat="44.25065421638604" lon="11.533760790761042"><ele>162.0</ele><time>2026-04-12T07:53:38Z</time></trkpt><trkpt lat="44.25059984482855" lon="11.533604982596897"><ele>162.0</ele><time>2026-04-12T07:53:39Z</time></trkpt><trkpt lat="44.25055011874189" lon="11.533446508729936"><ele>162.0</ele><time>2026-04-12T07:53:40Z</time></trkpt><trkpt lat="44.25049893366466" lon="11.533295804586235"><ele>162.0</ele><time>2026-04-12T07:53:41Z</time></trkpt><trkpt lat="44.25044601151845" lon="11.533153046736809"><ele>162.0</ele><time>2026-04-12T07:53:42Z</time></trkpt><trkpt lat="44.25038673659578" lon="11.533005510275542"><ele>163.0</ele><time>2026-04-12T07:53:43Z</time></trkpt><trkpt lat="44.250337776624825" lon="11.532867533989162"><ele>164.0</ele><time>2026-04-12T07:53:44Z</time></trkpt><trkpt lat="44.250292776889175" lon="11.532749565373265"><ele>165.0</ele><time>2026-04-12T07:53:45Z</time></trkpt><trkpt lat="44.25025394813106" lon="11.532643399171764"><ele>166.0</ele><time>2026-04-12T07:53:46Z</time></trkpt><trkpt lat="44.25023740612778" lon="11.532534709030212"><ele>167.0</ele><time>2026-04-12T07:53:47Z</time></trkpt><trkpt lat="44.25023760021183" lon="11.532430755220838"><ele>168.0</ele><time>2026-04-12T07:53:48Z</time></trkpt><trkpt lat="44.2502735942914" lon="11.532349066828953"><ele>168.0</ele><time>2026-04-12T07:53:49Z</time></trkpt><trkpt lat="44.25033619966413" lon="11.53230180342333"><ele>168.0</ele><time>2026-04-12T07:53:50Z</time></trkpt><trkpt lat="44.250418169164064" lon="11.532323949787127"><ele>168.0</ele><time>2026-04-12T07:53:51Z</time></trkpt><trkpt lat="44.25048298072988" lon="11.53238227317683"><ele>168.0</ele><time>2026-04-12T07:53:52Z</time></trkpt><trkpt lat="44.250527986710836" lon="11.53250948874822"><ele>168.0</ele><time>2026-04-12T07:53:53Z</time></trkpt><trkpt lat="44.2505937397664" lon="11.532641758355906"><ele>168.0</ele><time>2026-04-12T07:53:54Z</time></trkpt><trkpt lat="44.25067539429508" lon="11.532775176903783"><ele>170.75</ele><time>2026-04-12T07:53:55Z</time></trkpt><trkpt lat="44.25073537090551" lon="11.532929272492305"><ele>173.5</ele><time>2026-04-12T07:53:56Z</time></trkpt><trkpt lat="44.25079605780575" lon="11.533080085708239"><ele>176.25</ele><time>2026-04-12T07:53:57Z</time></trkpt><trkpt lat="44.25085589866725" lon="11.533232824829376"><ele>179.0</ele><time>2026-04-12T07:53:58Z</time></trkpt><trkpt lat="44.25091150143747" lon="11.53338253227047"><ele>179.0</ele><time>2026-04-12T07:53:59Z</time></trkpt><trkpt lat="44.25096421226446" lon="11.533535972038756"><ele>179.0</ele><time>2026-04-12T07:54:00Z</time></trkpt><trkpt lat="44.251005664904206" lon="11.533683032017521"><ele>179.0</ele><time>2026-04-12T07:54:01Z</time></trkpt><trkpt lat="44.25104304225854" lon="11.533806119264607"><ele>179.0</ele><time>2026-04-12T07:54:02Z</time></trkpt><trkpt lat="44.25108963661689" lon="11.5339053390365"><ele>179.0</ele><time>2026-04-12T07:54:03Z</time></trkpt><trkpt lat="44.2511495067817" lon="11.53399591796265"><ele>179.0</ele><time>2026-04-12T07:54:04Z</time></trkpt><trkpt lat="44.251282448164176" lon="11.533973353579126"><ele>179.0</ele><time>2026-04-12T07:54:06Z</time></trkpt><trkpt lat="44.25134913125231" lon="11.533908348188445"><ele>179.0</ele><time>2026-04-12T07:54:07Z</time></trkpt><trkpt lat="44.251378325849934" lon="11.533759504776642"><ele>179.0</ele><time>2026-04-12T07:54:08Z</time></trkpt><trkpt lat="44.25132469156887" lon="11.533589635929884"><ele>179.0</ele><time>2026-04-12T07:54:09Z</time></trkpt><trkpt lat="44.251263058586254" lon="11.5334331980725"><ele>179.0</ele><time>2026-04-12T07:54:10Z</time></trkpt><trkpt lat="44.25120149334108" lon="11.533277431915845"><ele>179.0</ele><time>2026-04-12T07:54:11Z</time></trkpt><trkpt lat="44.25114085688084" lon="11.533120782140779"><ele>179.0</ele><time>2026-04-12T07:54:12Z</time></trkpt><trkpt lat="44.25108756306853" lon="11.532972388091208"><ele>181.0</ele><time>2026-04-12T07:54:13Z</time></trkpt><trkpt lat="44.25104847728429" lon="11.532811556722915"><ele>183.0</ele><time>2026-04-12T07:54:14Z</time></trkpt><trkpt lat="44.251025749534996" lon="11.5326371116091"><ele>185.0</ele><time>2026-04-12T07:54:15Z</time></trkpt><trkpt lat="44.251002009005155" lon="11.532454692639515"><ele>187.0</ele><time>2026-04-12T07:54:16Z</time></trkpt><trkpt lat="44.25100434183955" lon="11.532260072979659"><ele>187.0</ele><time>2026-04-12T07:54:17Z</time></trkpt><trkpt lat="44.25103875653118" lon="11.532062076132059"><ele>187.0</ele><time>2026-04-12T07:54:18Z</time></trkpt><trkpt lat="44.251075338945405" lon="11.531856677149326"><ele>187.0</ele><time>2026-04-12T07:54:19Z</time></trkpt><trkpt lat="44.251113978512194" lon="11.531658787829812"><ele>187.0</ele><time>2026-04-12T07:54:20Z</time></trkpt><trkpt lat="44.2511522035524" lon="11.531463415317408"><ele>187.0</ele><time>2026-04-12T07:54:21Z</time></trkpt><trkpt lat="44.25119469189234" lon="11.531262589015173"><ele>187.0</ele><time>2026-04-12T07:54:22Z</time></trkpt><trkpt lat="44.251248012566045" lon="11.53109538043608"><ele>187.0</ele><time>2026-04-12T07:54:23Z</time></trkpt><trkpt lat="44.251314251049365" lon="11.530912307569434"><ele>187.0</ele><time>2026-04-12T07:54:24Z</time></trkpt><trkpt lat="44.251414141476275" lon="11.530741053060826"><ele>193.33333333333334</ele><time>2026-04-12T07:54:25Z</time></trkpt><trkpt lat="44.25148371084385" lon="11.530534135891896"><ele>199.66666666666669</ele><time>2026-04-12T07:54:26Z</time></trkpt><trkpt lat="44.2515237124913" lon="11.530298765807512"><ele>206.0</ele><time>2026-04-12T07:54:27Z</time></trkpt><trkpt lat="44.2515564076248" lon="11.53007330209012"><ele>206.0</ele><time>2026-04-12T07:54:28Z</time></trkpt><trkpt lat="44.25161371875222" lon="11.52988148858805"><ele>206.0</ele><time>2026-04-12T07:54:29Z</time></trkpt><trkpt lat="44.25166119007768" lon="11.529697837012575"><ele>206.0</ele><time>2026-04-12T07:54:30Z</time></trkpt><trkpt lat="44.25171625033619" lon="11.529534198178592"><ele>206.0</ele><time>2026-04-12T07:54:31Z</time></trkpt><trkpt lat="44.25175776951879" lon="11.52940676266653"><ele>204.66666666666669</ele><time>2026-04-12T07:54:32Z</time></trkpt><trkpt lat="44.25176971364424" lon="11.529300351401009"><ele>203.33333333333334</ele><time>2026-04-12T07:54:33Z</time></trkpt><trkpt lat="44.25178630287478" lon="11.52920476748883"><ele>202.0</ele><time>2026-04-12T07:54:34Z</time></trkpt><trkpt lat="44.2518899656942" lon="11.529129816169062"><ele>200.66666666666669</ele><time>2026-04-12T07:54:36Z</time></trkpt><trkpt lat="44.25194833050387" lon="11.529201672986542"><ele>199.33333333333334</ele><time>2026-04-12T07:54:37Z</time></trkpt><trkpt lat="44.25196268469564" lon="11.52930807504512"><ele>198.0</ele><time>2026-04-12T07:54:38Z</time></trkpt><trkpt lat="44.251902979227815" lon="11.529391619193552"><ele>198.0</ele><time>2026-04-12T07:54:39Z</time></trkpt><trkpt lat="44.25185910898738" lon="11.52953134756235"><ele>198.0</ele><time>2026-04-12T07:54:40Z</time></trkpt><trkpt lat="44.25178681557286" lon="11.529678070371077"><ele>198.0</ele><time>2026-04-12T07:54:41Z</time></trkpt><trkpt lat="44.251740088629575" lon="11.529854462934145"><ele>198.0</ele><time>2026-04-12T07:54:42Z</time></trkpt><trkpt lat="44.25170282722591" lon="11.530009032580226"><ele>200.0</ele><time>2026-04-12T07:54:43Z</time></trkpt><trkpt lat="44.251704128642935" lon="11.530179979403766"><ele>202.0</ele><time>2026-04-12T07:54:44Z</time></trkpt><trkpt lat="44.2517381854088" lon="11.530342461703256"><ele>204.0</ele><time>2026-04-12T07:54:45Z</time></trkpt><trkpt lat="44.2517781952294" lon="11.530490141121216"><ele>206.0</ele><time>2026-04-12T07:54:46Z</time></trkpt><trkpt lat="44.251795669142815" lon="11.530666295142083"><ele>208.75</ele><time>2026-04-12T07:54:47Z</time></trkpt><trkpt lat="44.2517746584879" lon="11.530843143945546"><ele>211.5</ele><time>2026-04-12T07:54:48Z</time></trkpt><trkpt lat="44.25173096214579" lon="11.531018403387055"><ele>214.25</ele><time>2026-04-12T07:54:49Z</time></trkpt><trkpt lat="44.251674881635665" lon="11.531182720528518"><ele>217.0</ele><time>2026-04-12T07:54:50Z</time></trkpt><trkpt lat="44.25163548054836" lon="11.531348545033769"><ele>218.5</ele><time>2026-04-12T07:54:51Z</time></trkpt><trkpt lat="44.25160850986061" lon="11.531527914842178"><ele>220.0</ele><time>2026-04-12T07:54:52Z</time></trkpt><trkpt lat="44.25156692163233" lon="11.531690539746974"><ele>221.5</ele><time>2026-04-12T07:54:53Z</time></trkpt><trkpt lat="44.25154616203441" lon="11.53186343829016"><ele>223.0</ele><time>2026-04-12T07:54:54Z</time></trkpt><trkpt lat="44.25154337562027" lon="11.532042156286714"><ele>222.0</ele><time>2026-04-12T07:54:55Z</time></trkpt><trkpt lat="44.2515639524196" lon="11.532199574997545"><ele>221.0</ele><time>2026-04-12T07:54:56Z</time></trkpt><trkpt lat="44.25160439175177" lon="11.53232410718328"><ele>220.0</ele><time>2026-04-12T07:54:57Z</time></trkpt><trkpt lat="44.25167597919391" lon="11.53239791656281"><ele>219.0</ele><time>2026-04-12T07:54:58Z</time></trkpt><trkpt lat="44.25176158755966" lon="11.532441972462975"><ele>218.0</ele><time>2026-04-12T07:54:59Z</time></trkpt><trkpt lat="44.25185422921157" lon="11.532440544136202"><ele>218.0</ele><time>2026-04-12T07:55:00Z</time></trkpt><trkpt lat="44.25193754817109" lon="11.53239263126952"><ele>218.0</ele><time>2026-04-12T07:55:01Z</time></trkpt><trkpt lat="44.252001292128575" lon="11.532295575322204"><ele>218.0</ele><time>2026-04-12T07:55:02Z</time></trkpt><trkpt lat="44.25204297944129" lon="11.532181022129738"><ele>218.0</ele><time>2026-04-12T07:55:03Z</time></trkpt><trkpt lat="44.252061304352495" lon="11.532034688584064"><ele>218.0</ele><time>2026-04-12T07:55:04Z</time></trkpt><trkpt lat="44.25206460271709" lon="11.531857799914487"><ele>217.75</ele><time>2026-04-12T07:55:05Z</time></trkpt><trkpt lat="44.25205070361293" lon="11.53166116379419"><ele>217.5</ele><time>2026-04-12T07:55:06Z</time></trkpt><trkpt lat="44.2520354204358" lon="11.531457587759576"><ele>217.25</ele><time>2026-04-12T07:55:07Z</time></trkpt><trkpt lat="44.25206245330099" lon="11.531280283002738"><ele>217.0</ele><time>2026-04-12T07:55:08Z</time></trkpt><trkpt lat="44.25210935512153" lon="11.531129997780837"><ele>217.0</ele><time>2026-04-12T07:55:09Z</time></trkpt><trkpt lat="44.252154910797714" lon="11.53096700695357"><ele>217.0</ele><time>2026-04-12T07:55:10Z</time></trkpt><trkpt lat="44.25222041360063" lon="11.530823418799736"><ele>217.0</ele><time>2026-04-12T07:55:11Z</time></trkpt><trkpt lat="44.25228917111789" lon="11.530680441010608"><ele>217.0</ele><time>2026-04-12T07:55:12Z</time></trkpt><trkpt lat="44.25232493862521" lon="11.5305056159531"><ele>223.25</ele><time>2026-04-12T07:55:13Z</time></trkpt><trkpt lat="44.252335061072834" lon="11.53032134940423"><ele>229.5</ele><time>2026-04-12T07:55:14Z</time></trkpt><trkpt lat="44.25235672022812" lon="11.530148843773738"><ele>235.75</ele><time>2026-04-12T07:55:15Z</time></trkpt><trkpt lat="44.252411275539224" lon="11.529982531055563"><ele>242.0</ele><time>2026-04-12T07:55:16Z</time></trkpt><trkpt lat="44.25247832245784" lon="11.529800169614651"><ele>242.0</ele><time>2026-04-12T07:55:17Z</time></trkpt><trkpt lat="44.252537333006174" lon="11.529616714734717"><ele>242.0</ele><time>2026-04-12T07:55:18Z</time></trkpt><trkpt lat="44.25258402209771" lon="11.529423979012797"><ele>242.0</ele><time>2026-04-12T07:55:19Z</time></trkpt><trkpt lat="44.2526047597118" lon="11.529225267835752"><ele>242.0</ele><time>2026-04-12T07:55:20Z</time></trkpt><trkpt lat="44.252633848435835" lon="11.529048571745577"><ele>241.5</ele><time>2026-04-12T07:55:21Z</time></trkpt><trkpt lat="44.25267999061841" lon="11.528871793141334"><ele>241.0</ele><time>2026-04-12T07:55:22Z</time></trkpt><trkpt lat="44.25275112935851" lon="11.528714844210056"><ele>240.5</ele><time>2026-04-12T07:55:23Z</time></trkpt><trkpt lat="44.25283609871465" lon="11.528576222498428"><ele>240.0</ele><time>2026-04-12T07:55:24Z</time></trkpt><trkpt lat="44.25291612409521" lon="11.528437026587408"><ele>241.25</ele><time>2026-04-12T07:55:25Z</time></trkpt><trkpt lat="44.25299371748741" lon="11.528303416754675"><ele>242.5</ele><time>2026-04-12T07:55:26Z</time></trkpt><trkpt lat="44.253073164458414" lon="11.528169518535897"><ele>243.75</ele><time>2026-04-12T07:55:27Z</time></trkpt><trkpt lat="44.2531267949695" lon="11.528007207405985"><ele>245.0</ele><time>2026-04-12T07:55:28Z</time></trkpt><trkpt lat="44.253151074655484" lon="11.527843537820964"><ele>243.25</ele><time>2026-04-12T07:55:29Z</time></trkpt><trkpt lat="44.253154419734315" lon="11.527668129202045"><ele>241.5</ele><time>2026-04-12T07:55:30Z</time></trkpt><trkpt lat="44.25314261286323" lon="11.527484530567751"><ele>239.75</ele><time>2026-04-12T07:55:31Z</time></trkpt><trkpt lat="44.25311813749692" lon="11.527298775184304"><ele>238.0</ele><time>2026-04-12T07:55:32Z</time></trkpt><trkpt lat="44.25308876581154" lon="11.527102367802694"><ele>237.33333333333331</ele><time>2026-04-12T07:55:33Z</time></trkpt><trkpt lat="44.253042468284455" lon="11.526899280741276"><ele>236.66666666666669</ele><time>2026-04-12T07:55:34Z</time></trkpt><trkpt lat="44.25302876211982" lon="11.526684864355055"><ele>236.0</ele><time>2026-04-12T07:55:35Z</time></trkpt><trkpt lat="44.25301700188293" lon="11.526482506554972"><ele>236.0</ele><time>2026-04-12T07:55:36Z</time></trkpt><trkpt lat="44.2529928093343" lon="11.526298970972668"><ele>236.0</ele><time>2026-04-12T07:55:37Z</time></trkpt><trkpt lat="44.252964904687744" lon="11.526115698227608"><ele>236.0</ele><time>2026-04-12T07:55:38Z</time></trkpt><trkpt lat="44.25294865355223" lon="11.52593929045607"><ele>236.0</ele><time>2026-04-12T07:55:39Z</time></trkpt><trkpt lat="44.252935143634396" lon="11.52575140389592"><ele>239.25</ele><time>2026-04-12T07:55:40Z</time></trkpt><trkpt lat="44.252920459712485" lon="11.525572812005985"><ele>242.5</ele><time>2026-04-12T07:55:41Z</time></trkpt><trkpt lat="44.25290214513252" lon="11.525389500348819"><ele>245.75</ele><time>2026-04-12T07:55:42Z</time></trkpt><trkpt lat="44.252868351420304" lon="11.525213057147605"><ele>249.0</ele><time>2026-04-12T07:55:43Z</time></trkpt><trkpt lat="44.252806998799315" lon="11.52505467484459"><ele>256.0</ele><time>2026-04-12T07:55:44Z</time></trkpt><trkpt lat="44.25271064268122" lon="11.524901944730212"><ele>263.0</ele><time>2026-04-12T07:55:45Z</time></trkpt><trkpt lat="44.252608428487804" lon="11.524744542331685"><ele>270.0</ele><time>2026-04-12T07:55:46Z</time></trkpt><trkpt lat="44.25251750472624" lon="11.524570734747071"><ele>274.5</ele><time>2026-04-12T07:55:47Z</time></trkpt><trkpt lat="44.25244677927329" lon="11.524396822990468"><ele>279.0</ele><time>2026-04-12T07:55:48Z</time></trkpt><trkpt lat="44.2523908937583" lon="11.524230366194585"><ele>283.5</ele><time>2026-04-12T07:55:49Z</time></trkpt><trkpt lat="44.252337554372346" lon="11.52405116292781"><ele>288.0</ele><time>2026-04-12T07:55:50Z</time></trkpt><trkpt lat="44.25230469589726" lon="11.523881542563979"><ele>282.75</ele><time>2026-04-12T07:55:51Z</time></trkpt><trkpt lat="44.25227334198183" lon="11.52370302106918"><ele>277.5</ele><time>2026-04-12T07:55:52Z</time></trkpt><trkpt lat="44.25225188297518" lon="11.523517207922318"><ele>272.25</ele><time>2026-04-12T07:55:53Z</time></trkpt><trkpt lat="44.252242109484015" lon="11.523328201905164"><ele>267.0</ele><time>2026-04-12T07:55:54Z</time></trkpt><trkpt lat="44.252238524903035" lon="11.523130246477605"><ele>267.0</ele><time>2026-04-12T07:55:55Z</time></trkpt><trkpt lat="44.25225095464418" lon="11.522944465313895"><ele>267.0</ele><time>2026-04-12T07:55:56Z</time></trkpt><trkpt lat="44.25224353150921" lon="11.522774686494165"><ele>267.0</ele><time>2026-04-12T07:55:57Z</time></trkpt><trkpt lat="44.25222773916883" lon="11.522605944803052"><ele>267.0</ele><time>2026-04-12T07:55:58Z</time></trkpt><trkpt lat="44.25220272304158" lon="11.52245898017985"><ele>268.8333333333333</ele><time>2026-04-12T07:55:59Z</time></trkpt><trkpt lat="44.25217486914589" lon="11.522332757833192"><ele>270.6666666666667</ele><time>2026-04-12T07:56:00Z</time></trkpt><trkpt lat="44.252151601540575" lon="11.52223447320121"><ele>272.5</ele><time>2026-04-12T07:56:01Z</time></trkpt><trkpt lat="44.25211101093552" lon="11.522089047409024"><ele>274.33333333333337</ele><time>2026-04-12T07:56:03Z</time></trkpt><trkpt lat="44.25208069028948" lon="11.521987706958344"><ele>276.1666666666667</ele><time>2026-04-12T07:56:05Z</time></trkpt><trkpt lat="44.25204317287572" lon="11.521903151768552"><ele>278.0</ele><time>2026-04-12T07:56:08Z</time></trkpt><trkpt lat="44.25194073258017" lon="11.521640603957906"><ele>280.5</ele><time>2026-04-12T07:57:24Z</time></trkpt><trkpt lat="44.25188447757146" lon="11.521494069612139"><ele>283.0</ele><time>2026-04-12T07:57:25Z</time></trkpt><trkpt lat="44.251861490531745" lon="11.521409134967065"><ele>285.5</ele><time>2026-04-12T07:57:26Z</time></trkpt><trkpt lat="44.25183546632548" lon="11.521303309729111"><ele>288.0</ele><time>2026-04-12T07:57:27Z</time></trkpt><trkpt lat="44.251803051432965" lon="11.521187439897663"><ele>290.5</ele><time>2026-04-12T07:57:28Z</time></trkpt><trkpt lat="44.25175295685473" lon="11.521084418633967"><ele>293.0</ele><time>2026-04-12T07:57:29Z</time></trkpt><trkpt lat="44.25169412156142" lon="11.520979997946707"><ele>295.0</ele><time>2026-04-12T07:57:30Z</time></trkpt><trkpt lat="44.25161950903154" lon="11.520863284752851"><ele>297.0</ele><time>2026-04-12T07:57:31Z</time></trkpt><trkpt lat="44.2515399368619" lon="11.520749611830354"><ele>299.0</ele><time>2026-04-12T07:57:32Z</time></trkpt><trkpt lat="44.251450428522375" lon="11.520666263204848"><ele>301.0</ele><time>2026-04-12T07:57:33Z</time></trkpt><trkpt lat="44.251383612769686" lon="11.520562881418458"><ele>303.0</ele><time>2026-04-12T07:57:34Z</time></trkpt><trkpt lat="44.251303044722455" lon="11.520513775403215"><ele>303.0</ele><time>2026-04-12T07:57:35Z</time></trkpt><trkpt lat="44.251223909115474" lon="11.52043037765008"><ele>303.0</ele><time>2026-04-12T07:57:36Z</time></trkpt><trkpt lat="44.2511476276646" lon="11.520359387654267"><ele>303.0</ele><time>2026-04-12T07:57:37Z</time></trkpt><trkpt lat="44.2510740968341" lon="11.52030753662489"><ele>303.0</ele><time>2026-04-12T07:57:38Z</time></trkpt><trkpt lat="44.25099543362872" lon="11.52027155310621"><ele>303.0</ele><time>2026-04-12T07:57:39Z</time></trkpt><trkpt lat="44.25092274126375" lon="11.520223657809638"><ele>303.0</ele><time>2026-04-12T07:57:40Z</time></trkpt><trkpt lat="44.250888628407026" lon="11.520135787095024"><ele>305.4</ele><time>2026-04-12T07:57:41Z</time></trkpt><trkpt lat="44.25089071056068" lon="11.520033732952752"><ele>307.8</ele><time>2026-04-12T07:57:42Z</time></trkpt><trkpt lat="44.25095101494544" lon="11.519934565947057"><ele>310.2</ele><time>2026-04-12T07:57:43Z</time></trkpt><trkpt lat="44.25098083514154" lon="11.519811871451202"><ele>312.6</ele><time>2026-04-12T07:57:44Z</time></trkpt><trkpt lat="44.25098199305324" lon="11.519647545747567"><ele>315.0</ele><time>2026-04-12T07:57:45Z</time></trkpt><trkpt lat="44.25093643152881" lon="11.51947669475741"><ele>316.0</ele><time>2026-04-12T07:57:46Z</time></trkpt><trkpt lat="44.25091208743317" lon="11.519305099008584"><ele>317.0</ele><time>2026-04-12T07:57:47Z</time></trkpt><trkpt lat="44.2508519221554" lon="11.51913257723588"><ele>318.0</ele><time>2026-04-12T07:57:48Z</time></trkpt><trkpt lat="44.25082201641176" lon="11.51893879859518"><ele>319.0</ele><time>2026-04-12T07:57:49Z</time></trkpt><trkpt lat="44.25075892714208" lon="11.518752900013297"><ele>321.0</ele><time>2026-04-12T07:57:50Z</time></trkpt><trkpt lat="44.25070889786672" lon="11.51856428102408"><ele>323.0</ele><time>2026-04-12T07:57:51Z</time></trkpt><trkpt lat="44.25066719005793" lon="11.518389597622125"><ele>325.0</ele><time>2026-04-12T07:57:52Z</time></trkpt><trkpt lat="44.250622667996836" lon="11.518215606354048"><ele>327.0</ele><time>2026-04-12T07:57:53Z</time></trkpt><trkpt lat="44.25057025652064" lon="11.518055205236788"><ele>328.5</ele><time>2026-04-12T07:57:54Z</time></trkpt><trkpt lat="44.25051046896631" lon="11.517889109790246"><ele>330.0</ele><time>2026-04-12T07:57:55Z</time></trkpt><trkpt lat="44.25043025964079" lon="11.51774417768564"><ele>331.5</ele><time>2026-04-12T07:57:56Z</time></trkpt><trkpt lat="44.2503230406886" lon="11.517633980692873"><ele>333.0</ele><time>2026-04-12T07:57:57Z</time></trkpt><trkpt lat="44.2502159368505" lon="11.517491004123094"><ele>333.0</ele><time>2026-04-12T07:57:58Z</time></trkpt><trkpt lat="44.25010134255767" lon="11.517365925759249"><ele>333.0</ele><time>2026-04-12T07:57:59Z</time></trkpt><trkpt lat="44.24999604573246" lon="11.517254194432228"><ele>333.0</ele><time>2026-04-12T07:58:00Z</time></trkpt><trkpt lat="44.24990018653267" lon="11.517156668294001"><ele>333.0</ele><time>2026-04-12T07:58:01Z</time></trkpt><trkpt lat="44.24979369197702" lon="11.517103308078527"><ele>334.0</ele><time>2026-04-12T07:58:02Z</time></trkpt><trkpt lat="44.24967582506103" lon="11.517077331155551"><ele>335.0</ele><time>2026-04-12T07:58:03Z</time></trkpt><trkpt lat="44.24955692065154" lon="11.517100888000838"><ele>336.0</ele><time>2026-04-12T07:58:04Z</time></trkpt><trkpt lat="44.2494362754133" lon="11.517119121054462"><ele>337.0</ele><time>2026-04-12T07:58:05Z</time></trkpt><trkpt lat="44.2493298156433" lon="11.517084784813484"><ele>340.6</ele><time>2026-04-12T07:58:06Z</time></trkpt><trkpt lat="44.24923951353828" lon="11.51703413992529"><ele>344.20000000000005</ele><time>2026-04-12T07:58:07Z</time></trkpt><trkpt lat="44.24914215034092" lon="11.516957221302503"><ele>347.8</ele><time>2026-04-12T07:58:08Z</time></trkpt><trkpt lat="44.24906582117238" lon="11.516868604273599"><ele>351.4</ele><time>2026-04-12T07:58:09Z</time></trkpt><trkpt lat="44.248964679089696" lon="11.516791293632249"><ele>355.0</ele><time>2026-04-12T07:58:10Z</time></trkpt><trkpt lat="44.24883974565142" lon="11.516744806682242"><ele>355.0</ele><time>2026-04-12T07:58:11Z</time></trkpt><trkpt lat="44.2487323529662" lon="11.516682054126692"><ele>355.0</ele><time>2026-04-12T07:58:12Z</time></trkpt><trkpt lat="44.24864530617867" lon="11.516595433799534"><ele>355.0</ele><time>2026-04-12T07:58:13Z</time></trkpt><trkpt lat="44.24856883520252" lon="11.516487260101629"><ele>355.0</ele><time>2026-04-12T07:58:14Z</time></trkpt><trkpt lat="44.248495326732666" lon="11.516362723198617"><ele>355.0</ele><time>2026-04-12T07:58:15Z</time></trkpt><trkpt lat="44.24841071226299" lon="11.516223337801202"><ele>354.0</ele><time>2026-04-12T07:58:16Z</time></trkpt><trkpt lat="44.24832129974148" lon="11.516070880726744"><ele>353.0</ele><time>2026-04-12T07:58:17Z</time></trkpt><trkpt lat="44.2482228668096" lon="11.51589662689818"><ele>352.0</ele><time>2026-04-12T07:58:18Z</time></trkpt><trkpt lat="44.24813203773227" lon="11.515718623068638"><ele>351.0</ele><time>2026-04-12T07:58:19Z</time></trkpt><trkpt lat="44.24804044112644" lon="11.515544016901964"><ele>350.0</ele><time>2026-04-12T07:58:20Z</time></trkpt><trkpt lat="44.24795493288593" lon="11.515360420465768"><ele>349.0</ele><time>2026-04-12T07:58:21Z</time></trkpt><trkpt lat="44.24787959208609" lon="11.515202532469367"><ele>348.0</ele><time>2026-04-12T07:58:22Z</time></trkpt><trkpt lat="44.24779642430354" lon="11.515023185448982"><ele>348.0</ele><time>2026-04-12T07:58:23Z</time></trkpt><trkpt lat="44.2477154942755" lon="11.514848644581209"><ele>348.0</ele><time>2026-04-12T07:58:24Z</time></trkpt><trkpt lat="44.247636976839" lon="11.514665892796618"><ele>348.0</ele><time>2026-04-12T07:58:25Z</time></trkpt><trkpt lat="44.2475575707552" lon="11.514476538490735"><ele>350.6666666666667</ele><time>2026-04-12T07:58:26Z</time></trkpt><trkpt lat="44.24748734618141" lon="11.514284494288924"><ele>353.33333333333337</ele><time>2026-04-12T07:58:27Z</time></trkpt><trkpt lat="44.24743392829599" lon="11.514087265877697"><ele>356.0</ele><time>2026-04-12T07:58:28Z</time></trkpt><trkpt lat="44.24738124057032" lon="11.513884277902905"><ele>354.6666666666667</ele><time>2026-04-12T07:58:29Z</time></trkpt><trkpt lat="44.24731537591653" lon="11.51368518419714"><ele>353.3333333333333</ele><time>2026-04-12T07:58:30Z</time></trkpt><trkpt lat="44.247228981988385" lon="11.513509003140864"><ele>352.0</ele><time>2026-04-12T07:58:31Z</time></trkpt><trkpt lat="44.24714026706245" lon="11.513355992574411"><ele>355.25</ele><time>2026-04-12T07:58:32Z</time></trkpt><trkpt lat="44.24705497524688" lon="11.513225472497762"><ele>358.5</ele><time>2026-04-12T07:58:33Z</time></trkpt><trkpt lat="44.246966629109956" lon="11.513102677322223"><ele>361.75</ele><time>2026-04-12T07:58:34Z</time></trkpt><trkpt lat="44.246893580973" lon="11.512991191133121"><ele>365.0</ele><time>2026-04-12T07:58:35Z</time></trkpt><trkpt lat="44.24683918935609" lon="11.5128611327431"><ele>365.0</ele><time>2026-04-12T07:58:36Z</time></trkpt><trkpt lat="44.246827261999265" lon="11.512703644471191"><ele>365.0</ele><time>2026-04-12T07:58:37Z</time></trkpt><trkpt lat="44.24679049688511" lon="11.512546264759832"><ele>365.0</ele><time>2026-04-12T07:58:38Z</time></trkpt><trkpt lat="44.2467545144423" lon="11.51237615698448"><ele>365.0</ele><time>2026-04-12T07:58:39Z</time></trkpt><trkpt lat="44.246690920378036" lon="11.512204473156888"><ele>362.6666666666667</ele><time>2026-04-12T07:58:40Z</time></trkpt><trkpt lat="44.2466194399887" lon="11.512020729598705"><ele>360.3333333333333</ele><time>2026-04-12T07:58:41Z</time></trkpt><trkpt lat="44.24654604500326" lon="11.511832679054564"><ele>358.0</ele><time>2026-04-12T07:58:42Z</time></trkpt><trkpt lat="44.246469625865664" lon="11.511645813513617"><ele>360.0</ele><time>2026-04-12T07:58:43Z</time></trkpt><trkpt lat="44.246402643690075" lon="11.511478040516891"><ele>362.0</ele><time>2026-04-12T07:58:44Z</time></trkpt><trkpt lat="44.24632700649791" lon="11.511325147566863"><ele>364.0</ele><time>2026-04-12T07:58:45Z</time></trkpt><trkpt lat="44.24623083747455" lon="11.511191783949132"><ele>366.0</ele><time>2026-04-12T07:58:46Z</time></trkpt><trkpt lat="44.24613080037685" lon="11.511081005728444"><ele>366.0</ele><time>2026-04-12T07:58:47Z</time></trkpt><trkpt lat="44.24602394235656" lon="11.510970854676069"><ele>366.0</ele><time>2026-04-12T07:58:48Z</time></trkpt><trkpt lat="44.24592417863796" lon="11.510880260208308"><ele>366.0</ele><time>2026-04-12T07:58:49Z</time></trkpt><trkpt lat="44.245825079526156" lon="11.510787037545308"><ele>366.0</ele><time>2026-04-12T07:58:50Z</time></trkpt><trkpt lat="44.24572507723179" lon="11.510681911245952"><ele>366.0</ele><time>2026-04-12T07:58:51Z</time></trkpt><trkpt lat="44.245630314753576" lon="11.510582342970896"><ele>366.0</ele><time>2026-04-12T07:58:52Z</time></trkpt><trkpt lat="44.24553127483149" lon="11.510487427176827"><ele>366.0</ele><time>2026-04-12T07:58:53Z</time></trkpt><trkpt lat="44.245431293965225" lon="11.510387491462097"><ele>366.0</ele><time>2026-04-12T07:58:54Z</time></trkpt><trkpt lat="44.24533584131073" lon="11.510281113797905"><ele>369.0</ele><time>2026-04-12T07:58:55Z</time></trkpt><trkpt lat="44.24524609648676" lon="11.510161881060151"><ele>372.0</ele><time>2026-04-12T07:58:56Z</time></trkpt><trkpt lat="44.24517007869773" lon="11.510026248570082"><ele>375.0</ele><time>2026-04-12T07:58:57Z</time></trkpt><trkpt lat="44.245121272464445" lon="11.509869466099452"><ele>378.0</ele><time>2026-04-12T07:58:58Z</time></trkpt><trkpt lat="44.24510233374802" lon="11.509706954115059"><ele>381.0</ele><time>2026-04-12T07:58:59Z</time></trkpt><trkpt lat="44.245109075130195" lon="11.509536372870748"><ele>384.0</ele><time>2026-04-12T07:59:00Z</time></trkpt><trkpt lat="44.245148828988846" lon="11.509358013378732"><ele>387.0</ele><time>2026-04-12T07:59:01Z</time></trkpt><trkpt lat="44.245203428471186" lon="11.509165473581504"><ele>390.0</ele><time>2026-04-12T07:59:02Z</time></trkpt><trkpt lat="44.24526639435679" lon="11.508963729324712"><ele>397.0</ele><time>2026-04-12T07:59:03Z</time></trkpt><trkpt lat="44.2453331711666" lon="11.508739967480702"><ele>404.0</ele><time>2026-04-12T07:59:04Z</time></trkpt><trkpt lat="44.24540302378699" lon="11.508507571371887"><ele>411.0</ele><time>2026-04-12T07:59:05Z</time></trkpt><trkpt lat="44.24547916780049" lon="11.50828570145191"><ele>411.0</ele><time>2026-04-12T07:59:06Z</time></trkpt><trkpt lat="44.24556003412363" lon="11.50808121605857"><ele>411.0</ele><time>2026-04-12T07:59:07Z</time></trkpt><trkpt lat="44.24563863982224" lon="11.507882430898029"><ele>411.0</ele><time>2026-04-12T07:59:08Z</time></trkpt><trkpt lat="44.24571055338192" lon="11.507699105940064"><ele>407.25</ele><time>2026-04-12T07:59:09Z</time></trkpt><trkpt lat="44.24576956827394" lon="11.50752942450928"><ele>403.5</ele><time>2026-04-12T07:59:10Z</time></trkpt><trkpt lat="44.24580382705563" lon="11.507368128843185"><ele>399.75</ele><time>2026-04-12T07:59:11Z</time></trkpt><trkpt lat="44.24581633515732" lon="11.507224479062792"><ele>396.0</ele><time>2026-04-12T07:59:12Z</time></trkpt><trkpt lat="44.24579865902837" lon="11.507071154840268"><ele>395.75</ele><time>2026-04-12T07:59:13Z</time></trkpt><trkpt lat="44.24575564013549" lon="11.506904718020822"><ele>395.5</ele><time>2026-04-12T07:59:14Z</time></trkpt><trkpt lat="44.2456980834628" lon="11.506725487077286"><ele>395.25</ele><time>2026-04-12T07:59:15Z</time></trkpt><trkpt lat="44.245634143518714" lon="11.506525828037457"><ele>395.0</ele><time>2026-04-12T07:59:16Z</time></trkpt><trkpt lat="44.245576351423296" lon="11.506318461589746"><ele>397.3333333333333</ele><time>2026-04-12T07:59:17Z</time></trkpt><trkpt lat="44.24551188211674" lon="11.506101399512737"><ele>399.66666666666663</ele><time>2026-04-12T07:59:18Z</time></trkpt><trkpt lat="44.245445878314506" lon="11.505882466760566"><ele>402.0</ele><time>2026-04-12T07:59:19Z</time></trkpt><trkpt lat="44.245388668427346" lon="11.505663008398182"><ele>402.0</ele><time>2026-04-12T07:59:20Z</time></trkpt><trkpt lat="44.245328690410794" lon="11.505445349193506"><ele>402.0</ele><time>2026-04-12T07:59:21Z</time></trkpt><trkpt lat="44.24527803291702" lon="11.50524582168771"><ele>402.0</ele><time>2026-04-12T07:59:22Z</time></trkpt><trkpt lat="44.245238243321666" lon="11.505061822902166"><ele>399.0</ele><time>2026-04-12T07:59:23Z</time></trkpt><trkpt lat="44.24521748315532" lon="11.504894973513144"><ele>396.0</ele><time>2026-04-12T07:59:24Z</time></trkpt><trkpt lat="44.245222844228" lon="11.504715060519047"><ele>393.0</ele><time>2026-04-12T07:59:25Z</time></trkpt><trkpt lat="44.24525179601663" lon="11.504522798146821"><ele>390.0</ele><time>2026-04-12T07:59:26Z</time></trkpt><trkpt lat="44.24527953629942" lon="11.504324835633511"><ele>390.0</ele><time>2026-04-12T07:59:27Z</time></trkpt><trkpt lat="44.245304692218355" lon="11.504137645711161"><ele>390.0</ele><time>2026-04-12T07:59:28Z</time></trkpt><trkpt lat="44.24532352892969" lon="11.50395093493491"><ele>390.0</ele><time>2026-04-12T07:59:29Z</time></trkpt><trkpt lat="44.24531991736158" lon="11.503767040460534"><ele>390.0</ele><time>2026-04-12T07:59:30Z</time></trkpt><trkpt lat="44.245295788072404" lon="11.50359233661633"><ele>391.5</ele><time>2026-04-12T07:59:31Z</time></trkpt><trkpt lat="44.24527241772909" lon="11.503414919909577"><ele>393.0</ele><time>2026-04-12T07:59:32Z</time></trkpt><trkpt lat="44.24525344655463" lon="11.503236355022008"><ele>394.5</ele><time>2026-04-12T07:59:33Z</time></trkpt><trkpt lat="44.24522420352391" lon="11.50305847283733"><ele>396.0</ele><time>2026-04-12T07:59:34Z</time></trkpt><trkpt lat="44.24518984527156" lon="11.502871484376143"><ele>399.0</ele><time>2026-04-12T07:59:35Z</time></trkpt><trkpt lat="44.24514411930198" lon="11.50268990537772"><ele>402.0</ele><time>2026-04-12T07:59:36Z</time></trkpt><trkpt lat="44.24508078828647" lon="11.502524187150392"><ele>405.0</ele><time>2026-04-12T07:59:37Z</time></trkpt><trkpt lat="44.2450032294479" lon="11.502371382648112"><ele>408.0</ele><time>2026-04-12T07:59:38Z</time></trkpt><trkpt lat="44.244921240015735" lon="11.502207070015762"><ele>407.75</ele><time>2026-04-12T07:59:39Z</time></trkpt><trkpt lat="44.24483937298057" lon="11.502040855480871"><ele>407.5</ele><time>2026-04-12T07:59:40Z</time></trkpt><trkpt lat="44.24475886756545" lon="11.501869003924966"><ele>407.25</ele><time>2026-04-12T07:59:41Z</time></trkpt><trkpt lat="44.24467505957523" lon="11.501689756138381"><ele>407.0</ele><time>2026-04-12T07:59:42Z</time></trkpt><trkpt lat="44.244593315535184" lon="11.501523401654799"><ele>407.0</ele><time>2026-04-12T07:59:43Z</time></trkpt><trkpt lat="44.24450760976353" lon="11.501350576711618"><ele>407.0</ele><time>2026-04-12T07:59:44Z</time></trkpt><trkpt lat="44.24442588276361" lon="11.501176243811697"><ele>407.0</ele><time>2026-04-12T07:59:45Z</time></trkpt><trkpt lat="44.244344467121834" lon="11.50100549603705"><ele>407.0</ele><time>2026-04-12T07:59:46Z</time></trkpt><trkpt lat="44.244267224941595" lon="11.500831609372641"><ele>409.75</ele><time>2026-04-12T07:59:47Z</time></trkpt><trkpt lat="44.24418558981956" lon="11.500659543490679"><ele>412.5</ele><time>2026-04-12T07:59:48Z</time></trkpt><trkpt lat="44.24410525824255" lon="11.500489539772975"><ele>415.25</ele><time>2026-04-12T07:59:49Z</time></trkpt><trkpt lat="44.24402111302383" lon="11.500321661250199"><ele>418.0</ele><time>2026-04-12T07:59:50Z</time></trkpt><trkpt lat="44.243937608111416" lon="11.500145017523998"><ele>423.0</ele><time>2026-04-12T07:59:51Z</time></trkpt><trkpt lat="44.243855123054246" lon="11.499959968092776"><ele>428.0</ele><time>2026-04-12T07:59:52Z</time></trkpt><trkpt lat="44.24378361607556" lon="11.499772194109338"><ele>433.0</ele><time>2026-04-12T07:59:53Z</time></trkpt><trkpt lat="44.24371997225969" lon="11.499561840866145"><ele>437.6666666666667</ele><time>2026-04-12T07:59:54Z</time></trkpt><trkpt lat="44.24366486378132" lon="11.499362276646867"><ele>442.33333333333337</ele><time>2026-04-12T07:59:55Z</time></trkpt><trkpt lat="44.24360266355453" lon="11.499162328805085"><ele>447.0</ele><time>2026-04-12T07:59:56Z</time></trkpt><trkpt lat="44.24353158450206" lon="11.498974553877677"><ele>447.0</ele><time>2026-04-12T07:59:57Z</time></trkpt><trkpt lat="44.24344879214109" lon="11.498791662694593"><ele>447.0</ele><time>2026-04-12T07:59:58Z</time></trkpt><trkpt lat="44.24334866706099" lon="11.498610219360655"><ele>447.0</ele><time>2026-04-12T07:59:59Z</time></trkpt><trkpt lat="44.243240798320336" lon="11.498425169300734"><ele>446.66666666666663</ele><time>2026-04-12T08:00:00Z</time></trkpt><trkpt lat="44.24313080268394" lon="11.498229227696406"><ele>446.3333333333333</ele><time>2026-04-12T08:00:01Z</time></trkpt><trkpt lat="44.24302541541945" lon="11.498035595907547"><ele>446.0</ele><time>2026-04-12T08:00:02Z</time></trkpt><trkpt lat="44.24293268051379" lon="11.49784687261837"><ele>445.3333333333333</ele><time>2026-04-12T08:00:03Z</time></trkpt><trkpt lat="44.24284243771281" lon="11.497655141182985"><ele>444.66666666666663</ele><time>2026-04-12T08:00:04Z</time></trkpt><trkpt lat="44.242762319133824" lon="11.497459329546885"><ele>444.0</ele><time>2026-04-12T08:00:05Z</time></trkpt><trkpt lat="44.24269627880973" lon="11.497262865902268"><ele>443.75</ele><time>2026-04-12T08:00:06Z</time></trkpt><trkpt lat="44.24264335929585" lon="11.49708100450061"><ele>443.5</ele><time>2026-04-12T08:00:07Z</time></trkpt><trkpt lat="44.242582285690126" lon="11.496900816439453"><ele>443.25</ele><time>2026-04-12T08:00:08Z</time></trkpt><trkpt lat="44.242520956187995" lon="11.496726780093887"><ele>443.0</ele><time>2026-04-12T08:00:09Z</time></trkpt><trkpt lat="44.242423234477236" lon="11.496574076113639"><ele>443.0</ele><time>2026-04-12T08:00:10Z</time></trkpt><trkpt lat="44.242315293946035" lon="11.496434249983079"><ele>443.0</ele><time>2026-04-12T08:00:11Z</time></trkpt><trkpt lat="44.2422031821111" lon="11.496286910787324"><ele>443.0</ele><time>2026-04-12T08:00:12Z</time></trkpt><trkpt lat="44.24208724425081" lon="11.496135509946008"><ele>443.25</ele><time>2026-04-12T08:00:13Z</time></trkpt><trkpt lat="44.24196956754732" lon="11.495983084180432"><ele>443.5</ele><time>2026-04-12T08:00:14Z</time></trkpt><trkpt lat="44.24186698661816" lon="11.495845326110269"><ele>443.75</ele><time>2026-04-12T08:00:15Z</time></trkpt><trkpt lat="44.24180089973224" lon="11.495701767424645"><ele>444.0</ele><time>2026-04-12T08:00:16Z</time></trkpt><trkpt lat="44.24177859200063" lon="11.495557942400042"><ele>447.5</ele><time>2026-04-12T08:00:17Z</time></trkpt><trkpt lat="44.2417863347475" lon="11.495392112257388"><ele>451.0</ele><time>2026-04-12T08:00:18Z</time></trkpt><trkpt lat="44.24182289035813" lon="11.495222628840231"><ele>454.5</ele><time>2026-04-12T08:00:19Z</time></trkpt><trkpt lat="44.24187405561705" lon="11.495047622359763"><ele>458.0</ele><time>2026-04-12T08:00:20Z</time></trkpt><trkpt lat="44.24193430112429" lon="11.494876609766376"><ele>458.0</ele><time>2026-04-12T08:00:21Z</time></trkpt><trkpt lat="44.241987014353384" lon="11.49470337806459"><ele>458.0</ele><time>2026-04-12T08:00:22Z</time></trkpt><trkpt lat="44.242036549306526" lon="11.494534584973373"><ele>458.0</ele><time>2026-04-12T08:00:23Z</time></trkpt><trkpt lat="44.2420842549528" lon="11.49437636202459"><ele>458.0</ele><time>2026-04-12T08:00:24Z</time></trkpt><trkpt lat="44.24212330142104" lon="11.494221751805263"><ele>460.59999999999997</ele><time>2026-04-12T08:00:25Z</time></trkpt><trkpt lat="44.2421512622024" lon="11.494064308021374"><ele>463.19999999999993</ele><time>2026-04-12T08:00:26Z</time></trkpt><trkpt lat="44.242146398610046" lon="11.49391396482623"><ele>465.8</ele><time>2026-04-12T08:00:27Z</time></trkpt><trkpt lat="44.24210172490457" lon="11.493788151240564"><ele>468.4</ele><time>2026-04-12T08:00:28Z</time></trkpt><trkpt lat="44.24201775978806" lon="11.493693032069237"><ele>471.0</ele><time>2026-04-12T08:00:29Z</time></trkpt><trkpt lat="44.241909740124925" lon="11.493605214141356"><ele>471.0</ele><time>2026-04-12T08:00:30Z</time></trkpt><trkpt lat="44.24181354617029" lon="11.493528230672139"><ele>471.0</ele><time>2026-04-12T08:00:31Z</time></trkpt><trkpt lat="44.24171691300532" lon="11.493460752480342"><ele>471.0</ele><time>2026-04-12T08:00:32Z</time></trkpt><trkpt lat="44.241621936269574" lon="11.493395385794233"><ele>471.0</ele><time>2026-04-12T08:00:33Z</time></trkpt><trkpt lat="44.24152994381794" lon="11.49334120131855"><ele>471.0</ele><time>2026-04-12T08:00:34Z</time></trkpt><trkpt lat="44.24143260814013" lon="11.493280672101305"><ele>471.6</ele><time>2026-04-12T08:00:35Z</time></trkpt><trkpt lat="44.24134062685691" lon="11.493213693257072"><ele>472.20000000000005</ele><time>2026-04-12T08:00:36Z</time></trkpt><trkpt lat="44.24124808551418" lon="11.493131715345994"><ele>472.79999999999995</ele><time>2026-04-12T08:00:37Z</time></trkpt><trkpt lat="44.24116076659563" lon="11.493021971049576"><ele>473.4</ele><time>2026-04-12T08:00:38Z</time></trkpt><trkpt lat="44.24107518352581" lon="11.492907761276545"><ele>474.0</ele><time>2026-04-12T08:00:39Z</time></trkpt><trkpt lat="44.24102017022249" lon="11.492785961165557"><ele>474.0</ele><time>2026-04-12T08:00:40Z</time></trkpt><trkpt lat="44.24100280647414" lon="11.492659318920692"><ele>474.0</ele><time>2026-04-12T08:00:41Z</time></trkpt><trkpt lat="44.241010538332176" lon="11.492518666543985"><ele>474.0</ele><time>2026-04-12T08:00:42Z</time></trkpt><trkpt lat="44.24104128658286" lon="11.492345687635884"><ele>474.0</ele><time>2026-04-12T08:00:43Z</time></trkpt><trkpt lat="44.241088783226274" lon="11.492157464797163"><ele>472.0</ele><time>2026-04-12T08:00:44Z</time></trkpt><trkpt lat="44.24113927428677" lon="11.491961272924206"><ele>470.0</ele><time>2026-04-12T08:00:45Z</time></trkpt><trkpt lat="44.24118070246031" lon="11.49175707196473"><ele>468.0</ele><time>2026-04-12T08:00:46Z</time></trkpt><trkpt lat="44.24120210756616" lon="11.491552851696964"><ele>466.0</ele><time>2026-04-12T08:00:47Z</time></trkpt><trkpt lat="44.24119589539213" lon="11.491359752732135"><ele>466.5</ele><time>2026-04-12T08:00:48Z</time></trkpt><trkpt lat="44.241173792915596" lon="11.491183506164987"><ele>467.0</ele><time>2026-04-12T08:00:49Z</time></trkpt><trkpt lat="44.2411458724647" lon="11.491012201116126"><ele>467.5</ele><time>2026-04-12T08:00:50Z</time></trkpt><trkpt lat="44.241107007599524" lon="11.490864634636589"><ele>468.0</ele><time>2026-04-12T08:00:51Z</time></trkpt><trkpt lat="44.24106016992466" lon="11.490728708615784"><ele>468.0</ele><time>2026-04-12T08:00:52Z</time></trkpt><trkpt lat="44.24101712569706" lon="11.490611974884894"><ele>467.99999999999994</ele><time>2026-04-12T08:00:53Z</time></trkpt><trkpt lat="44.2409791811701" lon="11.490489027719144"><ele>467.99999999999994</ele><time>2026-04-12T08:00:54Z</time></trkpt><trkpt lat="44.24096355608101" lon="11.490365652182053"><ele>468.0</ele><time>2026-04-12T08:00:55Z</time></trkpt><trkpt lat="44.24097411156853" lon="11.490247152979036"><ele>468.0</ele><time>2026-04-12T08:00:56Z</time></trkpt><trkpt lat="44.24101645072328" lon="11.490126106583205"><ele>469.25</ele><time>2026-04-12T08:00:57Z</time></trkpt><trkpt lat="44.241087562792686" lon="11.490014351895967"><ele>470.5</ele><time>2026-04-12T08:00:58Z</time></trkpt><trkpt lat="44.24117963948025" lon="11.489923183365324"><ele>471.75</ele><time>2026-04-12T08:00:59Z</time></trkpt><trkpt lat="44.24128211970381" lon="11.489846770027391"><ele>473.0</ele><time>2026-04-12T08:01:00Z</time></trkpt><trkpt lat="44.24139625793229" lon="11.48977540746928"><ele>472.5</ele><time>2026-04-12T08:01:01Z</time></trkpt><trkpt lat="44.24150834039984" lon="11.489690926773141"><ele>472.0</ele><time>2026-04-12T08:01:02Z</time></trkpt><trkpt lat="44.241617302735335" lon="11.48959727523658"><ele>471.5</ele><time>2026-04-12T08:01:03Z</time></trkpt><trkpt lat="44.24173979277393" lon="11.48950598195333"><ele>471.0</ele><time>2026-04-12T08:01:04Z</time></trkpt><trkpt lat="44.241841215430455" lon="11.489378153607445"><ele>471.0</ele><time>2026-04-12T08:01:05Z</time></trkpt><trkpt lat="44.24192704665952" lon="11.48922763867857"><ele>471.0</ele><time>2026-04-12T08:01:06Z</time></trkpt><trkpt lat="44.241983172651715" lon="11.489057307353884"><ele>471.0</ele><time>2026-04-12T08:01:07Z</time></trkpt><trkpt lat="44.24201877807334" lon="11.488873316226323"><ele>471.0</ele><time>2026-04-12T08:01:08Z</time></trkpt><trkpt lat="44.242050969092205" lon="11.488708928803561"><ele>468.4</ele><time>2026-04-12T08:01:09Z</time></trkpt><trkpt lat="44.24207009575385" lon="11.488556808306"><ele>465.8</ele><time>2026-04-12T08:01:10Z</time></trkpt><trkpt lat="44.24209502577648" lon="11.488419176777535"><ele>463.19999999999993</ele><time>2026-04-12T08:01:11Z</time></trkpt><trkpt lat="44.242118886127244" lon="11.48828860860582"><ele>460.59999999999997</ele><time>2026-04-12T08:01:12Z</time></trkpt><trkpt lat="44.2421471255806" lon="11.48814850382039"><ele>458.0</ele><time>2026-04-12T08:01:13Z</time></trkpt><trkpt lat="44.24219416854676" lon="11.488012138342949"><ele>456.2</ele><time>2026-04-12T08:01:14Z</time></trkpt><trkpt lat="44.242259252725546" lon="11.48788144123363"><ele>454.4</ele><time>2026-04-12T08:01:15Z</time></trkpt><trkpt lat="44.24233777041755" lon="11.487776371804781"><ele>452.59999999999997</ele><time>2026-04-12T08:01:16Z</time></trkpt><trkpt lat="44.242397496266626" lon="11.487658222977378"><ele>450.79999999999995</ele><time>2026-04-12T08:01:17Z</time></trkpt><trkpt lat="44.242418567007576" lon="11.487520601565981"><ele>449.0</ele><time>2026-04-12T08:01:18Z</time></trkpt><trkpt lat="44.24239734364968" lon="11.48737525630094"><ele>449.0</ele><time>2026-04-12T08:01:19Z</time></trkpt><trkpt lat="44.242343367482356" lon="11.487238144286419"><ele>449.0</ele><time>2026-04-12T08:01:20Z</time></trkpt><trkpt lat="44.24229621916538" lon="11.487089468651734"><ele>449.0</ele><time>2026-04-12T08:01:21Z</time></trkpt><trkpt lat="44.242263256264415" lon="11.486914697587864"><ele>449.0</ele><time>2026-04-12T08:01:22Z</time></trkpt><trkpt lat="44.242239942282886" lon="11.486769029731306"><ele>449.0</ele><time>2026-04-12T08:01:23Z</time></trkpt><trkpt lat="44.242211044219296" lon="11.486634523064595"><ele>449.0</ele><time>2026-04-12T08:01:24Z</time></trkpt><trkpt lat="44.24219145100678" lon="11.486501945233735"><ele>449.0</ele><time>2026-04-12T08:01:25Z</time></trkpt><trkpt lat="44.242171775563264" lon="11.48636873928808"><ele>449.0</ele><time>2026-04-12T08:01:26Z</time></trkpt><trkpt lat="44.24214851962074" lon="11.486238881394126"><ele>449.0</ele><time>2026-04-12T08:01:27Z</time></trkpt><trkpt lat="44.242131261613636" lon="11.486133837455396"><ele>449.4</ele><time>2026-04-12T08:01:28Z</time></trkpt><trkpt lat="44.24210759295341" lon="11.486037621753983"><ele>449.79999999999995</ele><time>2026-04-12T08:01:29Z</time></trkpt><trkpt lat="44.24204884734169" lon="11.485925549148572"><ele>450.20000000000005</ele><time>2026-04-12T08:01:31Z</time></trkpt><trkpt lat="44.24202291858109" lon="11.48579425770111"><ele>450.6</ele><time>2026-04-12T08:01:33Z</time></trkpt><trkpt lat="44.24202231544763" lon="11.485661471830735"><ele>451.0</ele><time>2026-04-12T08:01:34Z</time></trkpt><trkpt lat="44.24205147641161" lon="11.485512877374996"><ele>451.0</ele><time>2026-04-12T08:01:35Z</time></trkpt><trkpt lat="44.24211405700746" lon="11.485360661298023"><ele>451.0</ele><time>2026-04-12T08:01:36Z</time></trkpt><trkpt lat="44.242169010314896" lon="11.485220712090644"><ele>451.0</ele><time>2026-04-12T08:01:37Z</time></trkpt><trkpt lat="44.242201271586154" lon="11.48508579225227"><ele>451.0</ele><time>2026-04-12T08:01:38Z</time></trkpt><trkpt lat="44.24223862420402" lon="11.484991949369043"><ele>451.0</ele><time>2026-04-12T08:01:39Z</time></trkpt><trkpt lat="44.24224839692997" lon="11.484900891606447"><ele>451.0</ele><time>2026-04-12T08:01:40Z</time></trkpt><trkpt lat="44.24225649723476" lon="11.484811633602138"><ele>451.0</ele><time>2026-04-12T08:01:41Z</time></trkpt><trkpt lat="44.24223198689589" lon="11.484697120028994"><ele>451.0</ele><time>2026-04-12T08:01:43Z</time></trkpt><trkpt lat="44.24220885146157" lon="11.484605819862876"><ele>451.0</ele><time>2026-04-12T08:01:49Z</time></trkpt><trkpt lat="44.24215314669462" lon="11.484367029169954"><ele>451.0</ele><time>2026-04-12T08:02:19Z</time></trkpt><trkpt lat="44.24217672301078" lon="11.484252646673818"><ele>450.6666666666667</ele><time>2026-04-12T08:02:20Z</time></trkpt><trkpt lat="44.24222100091497" lon="11.484163832281792"><ele>450.33333333333337</ele><time>2026-04-12T08:02:21Z</time></trkpt><trkpt lat="44.24226020125493" lon="11.484072675379322"><ele>450.0</ele><time>2026-04-12T08:02:22Z</time></trkpt><trkpt lat="44.242295536336904" lon="11.483970624317077"><ele>449.66666666666663</ele><time>2026-04-12T08:02:24Z</time></trkpt><trkpt lat="44.24232056041047" lon="11.4838502709414"><ele>449.3333333333333</ele><time>2026-04-12T08:02:26Z</time></trkpt><trkpt lat="44.24236275167614" lon="11.483706445763419"><ele>449.0</ele><time>2026-04-12T08:02:28Z</time></trkpt><trkpt lat="44.24236400359245" lon="11.483599969722068"><ele>449.79999999999995</ele><time>2026-04-12T08:02:29Z</time></trkpt><trkpt lat="44.242364567750634" lon="11.483485012827893"><ele>450.59999999999997</ele><time>2026-04-12T08:02:30Z</time></trkpt><trkpt lat="44.24235000419681" lon="11.483362491121925"><ele>451.4</ele><time>2026-04-12T08:02:31Z</time></trkpt><trkpt lat="44.24232085531677" lon="11.483250904397913"><ele>452.2</ele><time>2026-04-12T08:02:32Z</time></trkpt><trkpt lat="44.242271401052044" lon="11.483129346896611"><ele>453.0</ele><time>2026-04-12T08:02:33Z</time></trkpt><trkpt lat="44.242206652466244" lon="11.482978808103624"><ele>457.2</ele><time>2026-04-12T08:02:34Z</time></trkpt><trkpt lat="44.24213315430059" lon="11.482845812944081"><ele>461.4</ele><time>2026-04-12T08:02:35Z</time></trkpt><trkpt lat="44.242057503662316" lon="11.482705865103949"><ele>465.59999999999997</ele><time>2026-04-12T08:02:36Z</time></trkpt><trkpt lat="44.24199612624098" lon="11.482592615304867"><ele>469.79999999999995</ele><time>2026-04-12T08:02:37Z</time></trkpt><trkpt lat="44.241938553489355" lon="11.482486440279446"><ele>474.0</ele><time>2026-04-12T08:02:38Z</time></trkpt><trkpt lat="44.24190219635579" lon="11.482399138420124"><ele>474.0</ele><time>2026-04-12T08:02:39Z</time></trkpt><trkpt lat="44.24185928301889" lon="11.482296407655946"><ele>474.0</ele><time>2026-04-12T08:02:40Z</time></trkpt><trkpt lat="44.24177690613222" lon="11.482224580612913"><ele>474.0</ele><time>2026-04-12T08:02:41Z</time></trkpt><trkpt lat="44.24168989426877" lon="11.482171920856333"><ele>474.0</ele><time>2026-04-12T08:02:42Z</time></trkpt><trkpt lat="44.24161317415115" lon="11.482151909292316"><ele>474.0</ele><time>2026-04-12T08:02:43Z</time></trkpt><trkpt lat="44.24154137046007" lon="11.482114222057389"><ele>474.0</ele><time>2026-04-12T08:02:44Z</time></trkpt><trkpt lat="44.2414804492191" lon="11.482087495960323"><ele>475.5714285714285</ele><time>2026-04-12T08:02:45Z</time></trkpt><trkpt lat="44.24140264210928" lon="11.482044060053417"><ele>477.1428571428571</ele><time>2026-04-12T08:02:46Z</time></trkpt><trkpt lat="44.24133917793982" lon="11.48200656342695"><ele>478.7142857142857</ele><time>2026-04-12T08:02:47Z</time></trkpt><trkpt lat="44.24127607200613" lon="11.481961714334144"><ele>480.2857142857143</ele><time>2026-04-12T08:02:48Z</time></trkpt><trkpt lat="44.24122162848963" lon="11.481886772676024"><ele>481.8571428571429</ele><time>2026-04-12T08:02:49Z</time></trkpt><trkpt lat="44.24118780619146" lon="11.481812084456642"><ele>483.4285714285715</ele><time>2026-04-12T08:02:50Z</time></trkpt><trkpt lat="44.24114719212957" lon="11.481733039908221"><ele>485.00000000000006</ele><time>2026-04-12T08:02:51Z</time></trkpt><trkpt lat="44.241111641305494" lon="11.481591664852873"><ele>484.99999999999994</ele><time>2026-04-12T08:02:53Z</time></trkpt><trkpt lat="44.24108596822629" lon="11.481479164946418"><ele>485.0</ele><time>2026-04-12T08:02:55Z</time></trkpt><trkpt lat="44.24103347645934" lon="11.48139375899804"><ele>485.0</ele><time>2026-04-12T08:02:57Z</time></trkpt><trkpt lat="44.2409828040491" lon="11.481337290959367"><ele>485.0</ele><time>2026-04-12T08:02:58Z</time></trkpt><trkpt lat="44.240935702145606" lon="11.481258693513139"><ele>484.99999999999994</ele><time>2026-04-12T08:02:59Z</time></trkpt><trkpt lat="44.24085601880692" lon="11.48110364552906"><ele>485.0</ele><time>2026-04-12T08:03:00Z</time></trkpt><trkpt lat="44.24077846351917" lon="11.48096629612846"><ele>485.5</ele><time>2026-04-12T08:03:01Z</time></trkpt><trkpt lat="44.24067145457425" lon="11.480807513674879"><ele>486.0</ele><time>2026-04-12T08:03:02Z</time></trkpt><trkpt lat="44.24057724601985" lon="11.480647054361915"><ele>486.5</ele><time>2026-04-12T08:03:03Z</time></trkpt><trkpt lat="44.240479522899875" lon="11.480516067623755"><ele>487.0</ele><time>2026-04-12T08:03:04Z</time></trkpt><trkpt lat="44.24039839865761" lon="11.480391383471813"><ele>485.25</ele><time>2026-04-12T08:03:05Z</time></trkpt><trkpt lat="44.240304668356124" lon="11.48026030833069"><ele>483.5</ele><time>2026-04-12T08:03:06Z</time></trkpt><trkpt lat="44.24020904635791" lon="11.480128828544764"><ele>481.75</ele><time>2026-04-12T08:03:07Z</time></trkpt><trkpt lat="44.24010198475959" lon="11.479982228633565"><ele>480.0</ele><time>2026-04-12T08:03:08Z</time></trkpt><trkpt lat="44.23999531301306" lon="11.479835192647215"><ele>480.0</ele><time>2026-04-12T08:03:09Z</time></trkpt><trkpt lat="44.23990604600508" lon="11.479698665397287"><ele>480.0</ele><time>2026-04-12T08:03:10Z</time></trkpt><trkpt lat="44.23982211812134" lon="11.479561429711334"><ele>480.0</ele><time>2026-04-12T08:03:11Z</time></trkpt><trkpt lat="44.239741261936835" lon="11.479432926494106"><ele>480.0</ele><time>2026-04-12T08:03:12Z</time></trkpt><trkpt lat="44.239658947516574" lon="11.479323153204803"><ele>480.75</ele><time>2026-04-12T08:03:13Z</time></trkpt><trkpt lat="44.2395562699771" lon="11.479229674199159"><ele>481.5</ele><time>2026-04-12T08:03:14Z</time></trkpt><trkpt lat="44.23943203008439" lon="11.479161733218438"><ele>482.25</ele><time>2026-04-12T08:03:15Z</time></trkpt><trkpt lat="44.23928922817054" lon="11.479073125843154"><ele>483.0</ele><time>2026-04-12T08:03:16Z</time></trkpt><trkpt lat="44.23917445329894" lon="11.479004319268558"><ele>483.0</ele><time>2026-04-12T08:03:17Z</time></trkpt><trkpt lat="44.23904365068668" lon="11.478914671206736"><ele>483.0</ele><time>2026-04-12T08:03:18Z</time></trkpt><trkpt lat="44.23891471731851" lon="11.478856480936361"><ele>483.0</ele><time>2026-04-12T08:03:19Z</time></trkpt><trkpt lat="44.238796323009936" lon="11.478772073190797"><ele>483.0</ele><time>2026-04-12T08:03:20Z</time></trkpt><trkpt lat="44.2386962547943" lon="11.478696979007637"><ele>482.5</ele><time>2026-04-12T08:03:21Z</time></trkpt><trkpt lat="44.238602069939645" lon="11.478630799152477"><ele>482.0</ele><time>2026-04-12T08:03:22Z</time></trkpt><trkpt lat="44.238516227943585" lon="11.478562381766936"><ele>481.5</ele><time>2026-04-12T08:03:23Z</time></trkpt><trkpt lat="44.23843706594855" lon="11.478496490561342"><ele>481.0</ele><time>2026-04-12T08:03:24Z</time></trkpt><trkpt lat="44.238374118576296" lon="11.47844567410433"><ele>480.5</ele><time>2026-04-12T08:03:25Z</time></trkpt><trkpt lat="44.23831650277389" lon="11.47839323624809"><ele>480.0</ele><time>2026-04-12T08:03:26Z</time></trkpt><trkpt lat="44.2382248712451" lon="11.478294085079334"><ele>480.0</ele><time>2026-04-12T08:03:28Z</time></trkpt><trkpt lat="44.23816317186094" lon="11.4782461816963"><ele>480.0</ele><time>2026-04-12T08:03:30Z</time></trkpt><trkpt lat="44.238100147500305" lon="11.478211134439743"><ele>480.0</ele><time>2026-04-12T08:03:33Z</time></trkpt><trkpt lat="44.237921501982" lon="11.478131690881911"><ele>480.0</ele><time>2026-04-12T08:03:59Z</time></trkpt><trkpt lat="44.23781101575706" lon="11.478098248776533"><ele>480.0</ele><time>2026-04-12T08:04:00Z</time></trkpt><trkpt lat="44.23767901715233" lon="11.478074234701852"><ele>479.75</ele><time>2026-04-12T08:04:01Z</time></trkpt><trkpt lat="44.23756222067829" lon="11.478112844905649"><ele>479.5</ele><time>2026-04-12T08:04:02Z</time></trkpt><trkpt lat="44.237447637582235" lon="11.478199901631438"><ele>479.25</ele><time>2026-04-12T08:04:03Z</time></trkpt><trkpt lat="44.237339982913554" lon="11.478264194685833"><ele>479.0</ele><time>2026-04-12T08:04:04Z</time></trkpt><trkpt lat="44.237248488573364" lon="11.478299494831804"><ele>478.5</ele><time>2026-04-12T08:04:05Z</time></trkpt><trkpt lat="44.23712972754123" lon="11.478312998334436"><ele>478.0</ele><time>2026-04-12T08:04:06Z</time></trkpt><trkpt lat="44.23704464846705" lon="11.478192038056427"><ele>477.5</ele><time>2026-04-12T08:04:07Z</time></trkpt><trkpt lat="44.23693959458033" lon="11.478098339992306"><ele>477.0</ele><time>2026-04-12T08:04:08Z</time></trkpt><trkpt lat="44.236825372684756" lon="11.477999491620793"><ele>477.0</ele><time>2026-04-12T08:04:09Z</time></trkpt><trkpt lat="44.23668413241087" lon="11.47793919540929"><ele>477.0</ele><time>2026-04-12T08:04:10Z</time></trkpt><trkpt lat="44.23653299887132" lon="11.477926331100171"><ele>477.0</ele><time>2026-04-12T08:04:11Z</time></trkpt><trkpt lat="44.236403604612825" lon="11.477918590338048"><ele>477.0</ele><time>2026-04-12T08:04:12Z</time></trkpt><trkpt lat="44.236276582020714" lon="11.477910288171636"><ele>477.25</ele><time>2026-04-12T08:04:13Z</time></trkpt><trkpt lat="44.23614786994725" lon="11.477905865901189"><ele>477.5</ele><time>2026-04-12T08:04:14Z</time></trkpt><trkpt lat="44.23601893725283" lon="11.477872207666673"><ele>477.75</ele><time>2026-04-12T08:04:15Z</time></trkpt><trkpt lat="44.23589750397387" lon="11.477837295720457"><ele>478.0</ele><time>2026-04-12T08:04:16Z</time></trkpt><trkpt lat="44.235789395727664" lon="11.47777796029016"><ele>478.0</ele><time>2026-04-12T08:04:17Z</time></trkpt><trkpt lat="44.23569398847539" lon="11.477691326925395"><ele>478.0</ele><time>2026-04-12T08:04:18Z</time></trkpt><trkpt lat="44.235610560744185" lon="11.477551481457335"><ele>478.0</ele><time>2026-04-12T08:04:19Z</time></trkpt><trkpt lat="44.23553956535971" lon="11.477395171422717"><ele>478.0</ele><time>2026-04-12T08:04:20Z</time></trkpt><trkpt lat="44.23546952289274" lon="11.477231999086056"><ele>479.25</ele><time>2026-04-12T08:04:21Z</time></trkpt><trkpt lat="44.235389631860855" lon="11.477064467684826"><ele>480.5</ele><time>2026-04-12T08:04:22Z</time></trkpt><trkpt lat="44.23531364356636" lon="11.476896654766035"><ele>481.75</ele><time>2026-04-12T08:04:23Z</time></trkpt><trkpt lat="44.23523261038676" lon="11.476746997275455"><ele>483.0</ele><time>2026-04-12T08:04:24Z</time></trkpt><trkpt lat="44.23514108830033" lon="11.476606004152371"><ele>483.0</ele><time>2026-04-12T08:04:25Z</time></trkpt><trkpt lat="44.2350195488886" lon="11.476510575854084"><ele>483.0</ele><time>2026-04-12T08:04:26Z</time></trkpt><trkpt lat="44.234866466726665" lon="11.476416892025748"><ele>483.0</ele><time>2026-04-12T08:04:27Z</time></trkpt><trkpt lat="44.23469901477483" lon="11.476324385566963"><ele>483.25</ele><time>2026-04-12T08:04:28Z</time></trkpt><trkpt lat="44.23457714154277" lon="11.47622788237255"><ele>483.5</ele><time>2026-04-12T08:04:29Z</time></trkpt><trkpt lat="44.23445474335455" lon="11.476110566226453"><ele>483.75</ele><time>2026-04-12T08:04:30Z</time></trkpt><trkpt lat="44.234348678266656" lon="11.47597728427598"><ele>484.0</ele><time>2026-04-12T08:04:31Z</time></trkpt><trkpt lat="44.234254545468545" lon="11.475808271077385"><ele>484.0</ele><time>2026-04-12T08:04:32Z</time></trkpt><trkpt lat="44.234144602808556" lon="11.47566097759"><ele>484.0</ele><time>2026-04-12T08:04:33Z</time></trkpt><trkpt lat="44.2340021709834" lon="11.475561067568472"><ele>484.0</ele><time>2026-04-12T08:04:34Z</time></trkpt><trkpt lat="44.233870931507255" lon="11.475479895375399"><ele>483.0</ele><time>2026-04-12T08:04:35Z</time></trkpt><trkpt lat="44.233735282919234" lon="11.475424588083126"><ele>482.0</ele><time>2026-04-12T08:04:36Z</time></trkpt><trkpt lat="44.23361803783031" lon="11.475372900485029"><ele>481.0</ele><time>2026-04-12T08:04:37Z</time></trkpt><trkpt lat="44.23350333368248" lon="11.475304653056272"><ele>480.0</ele><time>2026-04-12T08:04:38Z</time></trkpt><trkpt lat="44.23342135710994" lon="11.47521676804608"><ele>480.0</ele><time>2026-04-12T08:04:39Z</time></trkpt><trkpt lat="44.2333648524441" lon="11.475116049466639"><ele>480.0</ele><time>2026-04-12T08:04:40Z</time></trkpt><trkpt lat="44.23333651213312" lon="11.474982375742098"><ele>480.0</ele><time>2026-04-12T08:04:41Z</time></trkpt><trkpt lat="44.2333250877036" lon="11.47480584810314"><ele>480.0</ele><time>2026-04-12T08:04:42Z</time></trkpt><trkpt lat="44.23331744329625" lon="11.474604589144013"><ele>481.33333333333337</ele><time>2026-04-12T08:04:43Z</time></trkpt><trkpt lat="44.23330535430895" lon="11.474402122798889"><ele>482.6666666666667</ele><time>2026-04-12T08:04:44Z</time></trkpt><trkpt lat="44.23329266528208" lon="11.47417740752317"><ele>484.0</ele><time>2026-04-12T08:04:45Z</time></trkpt><trkpt lat="44.23328892497433" lon="11.473977994299467"><ele>484.0</ele><time>2026-04-12T08:04:46Z</time></trkpt><trkpt lat="44.233268170706005" lon="11.473795881554244"><ele>484.0</ele><time>2026-04-12T08:04:47Z</time></trkpt><trkpt lat="44.233237823296164" lon="11.473641183478147"><ele>484.0</ele><time>2026-04-12T08:04:48Z</time></trkpt><trkpt lat="44.233170631674334" lon="11.473522157822153"><ele>484.0</ele><time>2026-04-12T08:04:49Z</time></trkpt><trkpt lat="44.23305101297446" lon="11.473419168676266"><ele>480.79999999999995</ele><time>2026-04-12T08:04:50Z</time></trkpt><trkpt lat="44.232944217090555" lon="11.473414699609876"><ele>477.59999999999997</ele><time>2026-04-12T08:04:51Z</time></trkpt><trkpt lat="44.23282870741936" lon="11.473439551046722"><ele>474.4</ele><time>2026-04-12T08:04:52Z</time></trkpt><trkpt lat="44.23271130640821" lon="11.473478147313713"><ele>471.2</ele><time>2026-04-12T08:04:53Z</time></trkpt><trkpt lat="44.232606896945526" lon="11.473481743638684"><ele>468.0</ele><time>2026-04-12T08:04:54Z</time></trkpt><trkpt lat="44.23252686113721" lon="11.473445127742544"><ele>468.0</ele><time>2026-04-12T08:04:55Z</time></trkpt><trkpt lat="44.23244352247593" lon="11.4733848971267"><ele>467.99999999999994</ele><time>2026-04-12T08:04:56Z</time></trkpt><trkpt lat="44.232397876090246" lon="11.47325375558346"><ele>467.99999999999994</ele><time>2026-04-12T08:04:57Z</time></trkpt><trkpt lat="44.232385299072" lon="11.473100372027043"><ele>468.0</ele><time>2026-04-12T08:04:58Z</time></trkpt><trkpt lat="44.232402115866" lon="11.472938978686457"><ele>468.0</ele><time>2026-04-12T08:04:59Z</time></trkpt><trkpt lat="44.23243957147763" lon="11.472769064703442"><ele>468.75</ele><time>2026-04-12T08:05:00Z</time></trkpt><trkpt lat="44.23244195830696" lon="11.472580606092455"><ele>469.5</ele><time>2026-04-12T08:05:01Z</time></trkpt><trkpt lat="44.23240147150609" lon="11.472376672926755"><ele>470.25</ele><time>2026-04-12T08:05:02Z</time></trkpt><trkpt lat="44.232328407072124" lon="11.472181889375232"><ele>471.0</ele><time>2026-04-12T08:05:03Z</time></trkpt><trkpt lat="44.23225221121696" lon="11.472025477385554"><ele>465.75</ele><time>2026-04-12T08:05:04Z</time></trkpt><trkpt lat="44.232166431704066" lon="11.471886195729441"><ele>460.5</ele><time>2026-04-12T08:05:05Z</time></trkpt><trkpt lat="44.23208516602961" lon="11.471746029127292"><ele>455.25</ele><time>2026-04-12T08:05:06Z</time></trkpt><trkpt lat="44.23200955689145" lon="11.471598582779418"><ele>450.0</ele><time>2026-04-12T08:05:07Z</time></trkpt><trkpt lat="44.23193953125695" lon="11.471467917390092"><ele>450.0</ele><time>2026-04-12T08:05:08Z</time></trkpt><trkpt lat="44.23188665991535" lon="11.471334619713012"><ele>450.0</ele><time>2026-04-12T08:05:09Z</time></trkpt><trkpt lat="44.231830637743215" lon="11.47123021136565"><ele>450.0</ele><time>2026-04-12T08:05:10Z</time></trkpt><trkpt lat="44.23178304324316" lon="11.471132725436082"><ele>450.0</ele><time>2026-04-12T08:05:11Z</time></trkpt><trkpt lat="44.23173683439987" lon="11.471044371273264"><ele>450.0</ele><time>2026-04-12T08:05:12Z</time></trkpt><trkpt lat="44.23170095874201" lon="11.470970449361317"><ele>450.0</ele><time>2026-04-12T08:05:13Z</time></trkpt><trkpt lat="44.23164136146798" lon="11.470842334723164"><ele>451.6</ele><time>2026-04-12T08:05:15Z</time></trkpt><trkpt lat="44.23157884496559" lon="11.470721176938193"><ele>453.2</ele><time>2026-04-12T08:05:17Z</time></trkpt><trkpt lat="44.23153342768002" lon="11.470651052246955"><ele>454.79999999999995</ele><time>2026-04-12T08:05:19Z</time></trkpt><trkpt lat="44.23148300173042" lon="11.470589696330018"><ele>456.4</ele><time>2026-04-12T08:05:23Z</time></trkpt><trkpt lat="44.231415907382946" lon="11.470540845582274"><ele>458.0</ele><time>2026-04-12T08:05:54Z</time></trkpt><trkpt lat="44.23127841891242" lon="11.470490449849702"><ele>458.0</ele><time>2026-04-12T08:05:56Z</time></trkpt><trkpt lat="44.231189567413615" lon="11.470527613835824"><ele>457.99999999999994</ele><time>2026-04-12T08:05:57Z</time></trkpt><trkpt lat="44.231106048379054" lon="11.47059734785704"><ele>457.99999999999994</ele><time>2026-04-12T08:05:58Z</time></trkpt><trkpt lat="44.23101996248634" lon="11.470628781000098"><ele>458.0</ele><time>2026-04-12T08:05:59Z</time></trkpt><trkpt lat="44.23093057682519" lon="11.470670058317056"><ele>458.0</ele><time>2026-04-12T08:06:00Z</time></trkpt><trkpt lat="44.23083014020494" lon="11.470704243790964"><ele>458.0</ele><time>2026-04-12T08:06:01Z</time></trkpt><trkpt lat="44.23074131539197" lon="11.470680428944268"><ele>458.0</ele><time>2026-04-12T08:06:02Z</time></trkpt><trkpt lat="44.23062315200201" lon="11.470684192439307"><ele>458.0</ele><time>2026-04-12T08:06:03Z</time></trkpt><trkpt lat="44.23051201508804" lon="11.470639198292954"><ele>458.0</ele><time>2026-04-12T08:06:04Z</time></trkpt><trkpt lat="44.23039116940839" lon="11.47058983168515"><ele>458.0</ele><time>2026-04-12T08:06:05Z</time></trkpt><trkpt lat="44.230298092587226" lon="11.470504518479151"><ele>458.0</ele><time>2026-04-12T08:06:06Z</time></trkpt><trkpt lat="44.23024806708065" lon="11.47035657211159"><ele>458.0</ele><time>2026-04-12T08:06:07Z</time></trkpt><trkpt lat="44.230170939461686" lon="11.470225370791004"><ele>458.0</ele><time>2026-04-12T08:06:08Z</time></trkpt><trkpt lat="44.230102342701464" lon="11.470085404460722"><ele>458.0</ele><time>2026-04-12T08:06:09Z</time></trkpt><trkpt lat="44.230053819148054" lon="11.469960645827411"><ele>457.99999999999994</ele><time>2026-04-12T08:06:10Z</time></trkpt><trkpt lat="44.23000476283404" lon="11.46986934147186"><ele>457.99999999999994</ele><time>2026-04-12T08:06:11Z</time></trkpt><trkpt lat="44.229931934147736" lon="11.469713327324117"><ele>458.0</ele><time>2026-04-12T08:06:13Z</time></trkpt><trkpt lat="44.229889131651646" lon="11.46964027745016"><ele>458.0</ele><time>2026-04-12T08:06:14Z</time></trkpt><trkpt lat="44.22979066932827" lon="11.469511024732872"><ele>458.0</ele><time>2026-04-12T08:06:16Z</time></trkpt><trkpt lat="44.2297331203541" lon="11.46946221231415"><ele>458.0</ele><time>2026-04-12T08:06:17Z</time></trkpt><trkpt lat="44.22965001811579" lon="11.4694098222623"><ele>458.0</ele><time>2026-04-12T08:06:18Z</time></trkpt><trkpt lat="44.229567687885606" lon="11.469375564131616"><ele>458.0</ele><time>2026-04-12T08:06:19Z</time></trkpt><trkpt lat="44.22949647380788" lon="11.469334917002469"><ele>458.0</ele><time>2026-04-12T08:06:20Z</time></trkpt><trkpt lat="44.22943583611476" lon="11.469307839391089"><ele>458.0</ele><time>2026-04-12T08:06:21Z</time></trkpt><trkpt lat="44.2293748992326" lon="11.46927904066343"><ele>458.0</ele><time>2026-04-12T08:06:23Z</time></trkpt><trkpt lat="44.22931163062439" lon="11.469247736409802"><ele>458.0</ele><time>2026-04-12T08:06:37Z</time></trkpt><trkpt lat="44.229375201894925" lon="11.469278204184468"><ele>457.99999999999994</ele><time>2026-04-12T08:06:40Z</time></trkpt><trkpt lat="44.22950186955262" lon="11.469325814478923"><ele>457.99999999999994</ele><time>2026-04-12T08:06:41Z</time></trkpt><trkpt lat="44.229602198174305" lon="11.469400481236733"><ele>458.0</ele><time>2026-04-12T08:06:42Z</time></trkpt><trkpt lat="44.22967657587989" lon="11.46946247605264"><ele>458.0</ele><time>2026-04-12T08:06:43Z</time></trkpt><trkpt lat="44.22974367336008" lon="11.469516435650284"><ele>457.99999999999994</ele><time>2026-04-12T08:06:44Z</time></trkpt><trkpt lat="44.22979382451179" lon="11.469580119697136"><ele>458.0</ele><time>2026-04-12T08:06:45Z</time></trkpt><trkpt lat="44.22985238535501" lon="11.469637514629405"><ele>458.0</ele><time>2026-04-12T08:06:46Z</time></trkpt><trkpt lat="44.22991356496961" lon="11.469663193507026"><ele>458.0</ele><time>2026-04-12T08:06:47Z</time></trkpt><trkpt lat="44.22998793378851" lon="11.469648599667504"><ele>457.99999999999994</ele><time>2026-04-12T08:06:48Z</time></trkpt><trkpt lat="44.23007221465501" lon="11.469553225122027"><ele>458.0</ele><time>2026-04-12T08:06:49Z</time></trkpt><trkpt lat="44.23016026314928" lon="11.46948391102738"><ele>456.75</ele><time>2026-04-12T08:06:50Z</time></trkpt><trkpt lat="44.23025424182668" lon="11.469423643572696"><ele>455.5</ele><time>2026-04-12T08:06:51Z</time></trkpt><trkpt lat="44.23035844386779" lon="11.469307453182852"><ele>454.25</ele><time>2026-04-12T08:06:52Z</time></trkpt><trkpt lat="44.23046207724842" lon="11.469231215522152"><ele>453.0</ele><time>2026-04-12T08:06:53Z</time></trkpt><trkpt lat="44.230566418687644" lon="11.469166886155698"><ele>452.79999999999995</ele><time>2026-04-12T08:06:54Z</time></trkpt><trkpt lat="44.23065020437962" lon="11.469093622697677"><ele>452.59999999999997</ele><time>2026-04-12T08:06:55Z</time></trkpt><trkpt lat="44.230726327267426" lon="11.46903699430475"><ele>452.40000000000003</ele><time>2026-04-12T08:06:56Z</time></trkpt><trkpt lat="44.23084165372151" lon="11.469023139149762"><ele>452.20000000000005</ele><time>2026-04-12T08:06:57Z</time></trkpt><trkpt lat="44.230917624655156" lon="11.468986485735163"><ele>452.0</ele><time>2026-04-12T08:06:58Z</time></trkpt><trkpt lat="44.23100321395218" lon="11.46895242376281"><ele>452.0</ele><time>2026-04-12T08:06:59Z</time></trkpt><trkpt lat="44.23111346735829" lon="11.468916011746739"><ele>452.00000000000006</ele><time>2026-04-12T08:07:00Z</time></trkpt><trkpt lat="44.23121481850775" lon="11.468929360596913"><ele>452.00000000000006</ele><time>2026-04-12T08:07:01Z</time></trkpt><trkpt lat="44.231310222143534" lon="11.46900170219874"><ele>452.0</ele><time>2026-04-12T08:07:02Z</time></trkpt><trkpt lat="44.23140365830063" lon="11.469085349021618"><ele>452.0</ele><time>2026-04-12T08:07:03Z</time></trkpt><trkpt lat="44.231499534475056" lon="11.469186818186861"><ele>451.8</ele><time>2026-04-12T08:07:04Z</time></trkpt><trkpt lat="44.23158134659994" lon="11.469286676275411"><ele>451.6</ele><time>2026-04-12T08:07:05Z</time></trkpt><trkpt lat="44.23167091538623" lon="11.469403848002743"><ele>451.40000000000003</ele><time>2026-04-12T08:07:06Z</time></trkpt><trkpt lat="44.23175252451702" lon="11.469497075118586"><ele>451.20000000000005</ele><time>2026-04-12T08:07:07Z</time></trkpt><trkpt lat="44.23183745304625" lon="11.469576783456993"><ele>451.0</ele><time>2026-04-12T08:07:08Z</time></trkpt><trkpt lat="44.231937929688186" lon="11.469642398673889"><ele>451.0</ele><time>2026-04-12T08:07:09Z</time></trkpt><trkpt lat="44.23205348865375" lon="11.469669262109731"><ele>451.0</ele><time>2026-04-12T08:07:10Z</time></trkpt><trkpt lat="44.232164304852844" lon="11.469654714252384"><ele>451.0</ele><time>2026-04-12T08:07:11Z</time></trkpt><trkpt lat="44.232273371057225" lon="11.46962561774983"><ele>451.0</ele><time>2026-04-12T08:07:12Z</time></trkpt><trkpt lat="44.2323841802702" lon="11.469581393531458"><ele>445.5</ele><time>2026-04-12T08:07:13Z</time></trkpt><trkpt lat="44.23249467516609" lon="11.46954351022426"><ele>440.0</ele><time>2026-04-12T08:07:14Z</time></trkpt><trkpt lat="44.23261045605832" lon="11.469509385240345"><ele>434.5</ele><time>2026-04-12T08:07:15Z</time></trkpt><trkpt lat="44.23271427128935" lon="11.469481716964777"><ele>429.0</ele><time>2026-04-12T08:07:16Z</time></trkpt><trkpt lat="44.232829434937834" lon="11.469445906407675"><ele>429.0</ele><time>2026-04-12T08:07:17Z</time></trkpt><trkpt lat="44.232953048080134" lon="11.46940159783188"><ele>429.0</ele><time>2026-04-12T08:07:18Z</time></trkpt><trkpt lat="44.23306565510092" lon="11.469330415932541"><ele>429.0</ele><time>2026-04-12T08:07:19Z</time></trkpt><trkpt lat="44.23319472409107" lon="11.469251551066224"><ele>429.0</ele><time>2026-04-12T08:07:20Z</time></trkpt><trkpt lat="44.23330724781776" lon="11.469102681722982"><ele>429.5</ele><time>2026-04-12T08:07:21Z</time></trkpt><trkpt lat="44.23340694903743" lon="11.468970295561268"><ele>430.0</ele><time>2026-04-12T08:07:22Z</time></trkpt><trkpt lat="44.23350433259291" lon="11.468831028505143"><ele>430.5</ele><time>2026-04-12T08:07:23Z</time></trkpt><trkpt lat="44.233608074750066" lon="11.468716684974705"><ele>431.0</ele><time>2026-04-12T08:07:24Z</time></trkpt><trkpt lat="44.23370165005144" lon="11.46859000209817"><ele>429.5</ele><time>2026-04-12T08:07:25Z</time></trkpt><trkpt lat="44.233793264770654" lon="11.468468535007476"><ele>428.0</ele><time>2026-04-12T08:07:26Z</time></trkpt><trkpt lat="44.23388478972298" lon="11.468349063182249"><ele>426.5</ele><time>2026-04-12T08:07:27Z</time></trkpt><trkpt lat="44.23397010091161" lon="11.468235599299478"><ele>425.0</ele><time>2026-04-12T08:07:28Z</time></trkpt><trkpt lat="44.23406434828556" lon="11.468109164437443"><ele>425.0</ele><time>2026-04-12T08:07:29Z</time></trkpt><trkpt lat="44.23414613811863" lon="11.467968560391487"><ele>425.0</ele><time>2026-04-12T08:07:30Z</time></trkpt><trkpt lat="44.23424319084513" lon="11.46788352614359"><ele>425.0</ele><time>2026-04-12T08:07:31Z</time></trkpt><trkpt lat="44.234331555356015" lon="11.467834405173665"><ele>425.0</ele><time>2026-04-12T08:07:32Z</time></trkpt><trkpt lat="44.234426085053606" lon="11.467815763852583"><ele>425.0</ele><time>2026-04-12T08:07:33Z</time></trkpt><trkpt lat="44.234531552856645" lon="11.467842865824974"><ele>425.0</ele><time>2026-04-12T08:07:34Z</time></trkpt><trkpt lat="44.23465205547185" lon="11.467908750775031"><ele>425.0</ele><time>2026-04-12T08:07:35Z</time></trkpt><trkpt lat="44.23477377535054" lon="11.467978299188282"><ele>425.0</ele><time>2026-04-12T08:07:36Z</time></trkpt><trkpt lat="44.23491716746005" lon="11.468006812586806"><ele>425.0</ele><time>2026-04-12T08:07:37Z</time></trkpt><trkpt lat="44.23505786142295" lon="11.468002911526897"><ele>423.25</ele><time>2026-04-12T08:07:38Z</time></trkpt><trkpt lat="44.2351889571889" lon="11.467987753874066"><ele>421.5</ele><time>2026-04-12T08:07:39Z</time></trkpt><trkpt lat="44.23531919914681" lon="11.467964371950918"><ele>419.75</ele><time>2026-04-12T08:07:40Z</time></trkpt><trkpt lat="44.23546276500555" lon="11.467952398473878"><ele>418.0</ele><time>2026-04-12T08:07:41Z</time></trkpt><trkpt lat="44.23559719908743" lon="11.467936079550386"><ele>416.4</ele><time>2026-04-12T08:07:42Z</time></trkpt><trkpt lat="44.23571555582025" lon="11.467934474019057"><ele>414.79999999999995</ele><time>2026-04-12T08:07:43Z</time></trkpt><trkpt lat="44.23583066065829" lon="11.467935701501789"><ele>413.2</ele><time>2026-04-12T08:07:44Z</time></trkpt><trkpt lat="44.23592565386054" lon="11.467956769008062"><ele>411.6</ele><time>2026-04-12T08:07:45Z</time></trkpt><trkpt lat="44.236007900217444" lon="11.468013087468144"><ele>410.0</ele><time>2026-04-12T08:07:46Z</time></trkpt><trkpt lat="44.236077000815705" lon="11.468091275313427"><ele>410.0</ele><time>2026-04-12T08:07:47Z</time></trkpt><trkpt lat="44.23612693348338" lon="11.468194253765036"><ele>410.0</ele><time>2026-04-12T08:07:48Z</time></trkpt><trkpt lat="44.2361664267432" lon="11.468317890282954"><ele>410.0</ele><time>2026-04-12T08:07:49Z</time></trkpt><trkpt lat="44.23620781319117" lon="11.468436591452031"><ele>410.0</ele><time>2026-04-12T08:07:50Z</time></trkpt><trkpt lat="44.23626475804191" lon="11.46851588081032"><ele>410.0</ele><time>2026-04-12T08:07:51Z</time></trkpt><trkpt lat="44.23637987613138" lon="11.468549687880854"><ele>410.0</ele><time>2026-04-12T08:07:53Z</time></trkpt><trkpt lat="44.236452856498424" lon="11.468470172598801"><ele>410.0</ele><time>2026-04-12T08:07:55Z</time></trkpt><trkpt lat="44.236484183029376" lon="11.468380270005833"><ele>410.0</ele><time>2026-04-12T08:08:01Z</time></trkpt><trkpt lat="44.23632763474384" lon="11.468517171519224"><ele>410.0</ele><time>2026-04-12T08:11:38Z</time></trkpt><trkpt lat="44.23647319905214" lon="11.468369216033885"><ele>410.0</ele><time>2026-04-12T08:11:40Z</time></trkpt><trkpt lat="44.23647794195394" lon="11.468160329814301"><ele>410.0</ele><time>2026-04-12T08:12:17Z</time></trkpt><trkpt lat="44.23644716925385" lon="11.468058425302491"><ele>410.0</ele><time>2026-04-12T08:12:18Z</time></trkpt><trkpt lat="44.23641270508563" lon="11.467943175643146"><ele>410.0</ele><time>2026-04-12T08:12:19Z</time></trkpt><trkpt lat="44.23638872025271" lon="11.467821300412075"><ele>410.0</ele><time>2026-04-12T08:12:20Z</time></trkpt><trkpt lat="44.236375922935416" lon="11.467720764939997"><ele>407.8333333333333</ele><time>2026-04-12T08:12:21Z</time></trkpt><trkpt lat="44.23634725412257" lon="11.467625137945948"><ele>405.66666666666663</ele><time>2026-04-12T08:12:22Z</time></trkpt><trkpt lat="44.23629600843627" lon="11.467491598717158"><ele>403.5</ele><time>2026-04-12T08:12:24Z</time></trkpt><trkpt lat="44.23623421852023" lon="11.467380682092328"><ele>401.33333333333337</ele><time>2026-04-12T08:12:26Z</time></trkpt><trkpt lat="44.23617818457853" lon="11.467298731648999"><ele>399.1666666666667</ele><time>2026-04-12T08:12:28Z</time></trkpt><trkpt lat="44.23612298103752" lon="11.46721262853973"><ele>397.0</ele><time>2026-04-12T08:12:32Z</time></trkpt><trkpt lat="44.23605711077825" lon="11.467127948746457"><ele>394.0</ele><time>2026-04-12T08:12:35Z</time></trkpt><trkpt lat="44.23598949655903" lon="11.467091121807783"><ele>391.0</ele><time>2026-04-12T08:12:37Z</time></trkpt><trkpt lat="44.2358859920029" lon="11.467026487373584"><ele>388.0</ele><time>2026-04-12T08:12:39Z</time></trkpt><trkpt lat="44.23580821202295" lon="11.466962244715571"><ele>385.0</ele><time>2026-04-12T08:12:40Z</time></trkpt><trkpt lat="44.23572712886666" lon="11.466909727425579"><ele>382.0</ele><time>2026-04-12T08:12:41Z</time></trkpt><trkpt lat="44.23564489123696" lon="11.466839104428118"><ele>383.0</ele><time>2026-04-12T08:12:42Z</time></trkpt><trkpt lat="44.235574260399304" lon="11.466762099917341"><ele>384.0</ele><time>2026-04-12T08:12:43Z</time></trkpt><trkpt lat="44.23551759125328" lon="11.466673475813657"><ele>385.0</ele><time>2026-04-12T08:12:44Z</time></trkpt><trkpt lat="44.235480416067176" lon="11.4665741561039"><ele>386.0</ele><time>2026-04-12T08:12:45Z</time></trkpt><trkpt lat="44.23546715181076" lon="11.466470536195635"><ele>387.00000000000006</ele><time>2026-04-12T08:12:46Z</time></trkpt><trkpt lat="44.23544550536035" lon="11.466341437939343"><ele>388.0</ele><time>2026-04-12T08:12:47Z</time></trkpt><trkpt lat="44.23544135703332" lon="11.466203015091883"><ele>388.0</ele><time>2026-04-12T08:12:48Z</time></trkpt><trkpt lat="44.235428581819136" lon="11.466041605150956"><ele>388.0</ele><time>2026-04-12T08:12:49Z</time></trkpt><trkpt lat="44.2354015955162" lon="11.46585171026694"><ele>388.0</ele><time>2026-04-12T08:12:50Z</time></trkpt><trkpt lat="44.235378269602585" lon="11.465697484846306"><ele>388.0</ele><time>2026-04-12T08:12:51Z</time></trkpt><trkpt lat="44.23535134987124" lon="11.46555249480659"><ele>385.4</ele><time>2026-04-12T08:12:52Z</time></trkpt><trkpt lat="44.23532761131154" lon="11.465389691524459"><ele>382.79999999999995</ele><time>2026-04-12T08:12:53Z</time></trkpt><trkpt lat="44.23530043127528" lon="11.465258750826631"><ele>380.2</ele><time>2026-04-12T08:12:54Z</time></trkpt><trkpt lat="44.235258770230956" lon="11.465124550454556"><ele>377.6</ele><time>2026-04-12T08:12:55Z</time></trkpt><trkpt lat="44.23520846653908" lon="11.464972485359823"><ele>375.0</ele><time>2026-04-12T08:12:56Z</time></trkpt><trkpt lat="44.23514978198859" lon="11.464834357911368"><ele>375.0</ele><time>2026-04-12T08:12:57Z</time></trkpt><trkpt lat="44.235096153636235" lon="11.464714959029068"><ele>375.0</ele><time>2026-04-12T08:12:58Z</time></trkpt><trkpt lat="44.23504641372185" lon="11.464587416742837"><ele>375.0</ele><time>2026-04-12T08:12:59Z</time></trkpt><trkpt lat="44.23500518424701" lon="11.464447334121177"><ele>375.0</ele><time>2026-04-12T08:13:00Z</time></trkpt><trkpt lat="44.23495462208871" lon="11.464307893177867"><ele>375.0</ele><time>2026-04-12T08:13:01Z</time></trkpt><trkpt lat="44.23491270287291" lon="11.46420665858079"><ele>374.8333333333333</ele><time>2026-04-12T08:13:02Z</time></trkpt><trkpt lat="44.234875941640574" lon="11.464115548044338"><ele>374.6666666666667</ele><time>2026-04-12T08:13:03Z</time></trkpt><trkpt lat="44.23484575817944" lon="11.46402953265074"><ele>374.5</ele><time>2026-04-12T08:13:04Z</time></trkpt><trkpt lat="44.23478639621028" lon="11.463886584652546"><ele>374.33333333333337</ele><time>2026-04-12T08:13:06Z</time></trkpt><trkpt lat="44.23475181815281" lon="11.463810457183063"><ele>374.1666666666667</ele><time>2026-04-12T08:13:07Z</time></trkpt><trkpt lat="44.23471834974182" lon="11.463725076492759"><ele>374.0</ele><time>2026-04-12T08:13:08Z</time></trkpt><trkpt lat="44.23467877249719" lon="11.463649364428614"><ele>372.6666666666667</ele><time>2026-04-12T08:13:09Z</time></trkpt><trkpt lat="44.234637223081116" lon="11.463567969642979"><ele>371.33333333333337</ele><time>2026-04-12T08:13:10Z</time></trkpt><trkpt lat="44.23460426105283" lon="11.463480623310122"><ele>370.0</ele><time>2026-04-12T08:13:11Z</time></trkpt><trkpt lat="44.234569574332475" lon="11.463393171453333"><ele>368.6666666666667</ele><time>2026-04-12T08:13:12Z</time></trkpt><trkpt lat="44.23455144614531" lon="11.463287357966987"><ele>367.3333333333333</ele><time>2026-04-12T08:13:13Z</time></trkpt><trkpt lat="44.23454565240833" lon="11.46314490538353"><ele>366.0</ele><time>2026-04-12T08:13:14Z</time></trkpt><trkpt lat="44.234550518428506" lon="11.463010450356224"><ele>364.8333333333333</ele><time>2026-04-12T08:13:15Z</time></trkpt><trkpt lat="44.23457788894547" lon="11.462891634373358"><ele>363.6666666666667</ele><time>2026-04-12T08:13:16Z</time></trkpt><trkpt lat="44.23461006676422" lon="11.462783481810085"><ele>362.5</ele><time>2026-04-12T08:13:17Z</time></trkpt><trkpt lat="44.23465559864173" lon="11.462681131376234"><ele>361.33333333333337</ele><time>2026-04-12T08:13:18Z</time></trkpt><trkpt lat="44.23470206353628" lon="11.462601972934738"><ele>360.1666666666667</ele><time>2026-04-12T08:13:19Z</time></trkpt><trkpt lat="44.23475308562032" lon="11.462539553577036"><ele>359.0</ele><time>2026-04-12T08:13:20Z</time></trkpt><trkpt lat="44.23480713533638" lon="11.462483378262291"><ele>357.83333333333337</ele><time>2026-04-12T08:13:21Z</time></trkpt><trkpt lat="44.234868989496846" lon="11.462430827778986"><ele>356.6666666666667</ele><time>2026-04-12T08:13:22Z</time></trkpt><trkpt lat="44.23494065740547" lon="11.462388859092737"><ele>355.5</ele><time>2026-04-12T08:13:23Z</time></trkpt><trkpt lat="44.23502115528399" lon="11.462360436438097"><ele>354.3333333333333</ele><time>2026-04-12T08:13:24Z</time></trkpt><trkpt lat="44.23511155935588" lon="11.462331981877965"><ele>353.16666666666663</ele><time>2026-04-12T08:13:25Z</time></trkpt><trkpt lat="44.23517978299077" lon="11.46233925484725"><ele>352.0</ele><time>2026-04-12T08:13:26Z</time></trkpt><trkpt lat="44.235246063691534" lon="11.462355173817105"><ele>352.0</ele><time>2026-04-12T08:13:27Z</time></trkpt><trkpt lat="44.23531272611377" lon="11.462384283646525"><ele>352.0</ele><time>2026-04-12T08:13:28Z</time></trkpt><trkpt lat="44.235385975741245" lon="11.462434429482647"><ele>352.0</ele><time>2026-04-12T08:13:29Z</time></trkpt><trkpt lat="44.23545726723513" lon="11.46250753842652"><ele>352.0</ele><time>2026-04-12T08:13:30Z</time></trkpt><trkpt lat="44.23553081569153" lon="11.462595833169534"><ele>352.0</ele><time>2026-04-12T08:13:31Z</time></trkpt><trkpt lat="44.23562436061826" lon="11.462705202556002"><ele>351.0</ele><time>2026-04-12T08:13:32Z</time></trkpt><trkpt lat="44.23574097512656" lon="11.462834974936715"><ele>350.0</ele><time>2026-04-12T08:13:33Z</time></trkpt><trkpt lat="44.235841486578096" lon="11.462945419959151"><ele>349.0</ele><time>2026-04-12T08:13:34Z</time></trkpt><trkpt lat="44.235924712716496" lon="11.463039207089716"><ele>348.0</ele><time>2026-04-12T08:13:35Z</time></trkpt><trkpt lat="44.23600431582138" lon="11.463130686813837"><ele>348.0</ele><time>2026-04-12T08:13:36Z</time></trkpt><trkpt lat="44.236085571644594" lon="11.463191131499048"><ele>348.0</ele><time>2026-04-12T08:13:37Z</time></trkpt><trkpt lat="44.236153719697555" lon="11.463265673920752"><ele>348.0</ele><time>2026-04-12T08:13:38Z</time></trkpt><trkpt lat="44.236222318843645" lon="11.463315880058326"><ele>348.0</ele><time>2026-04-12T08:13:39Z</time></trkpt><trkpt lat="44.236307826788156" lon="11.463344094398858"><ele>348.0</ele><time>2026-04-12T08:13:40Z</time></trkpt><trkpt lat="44.2363767631474" lon="11.46336931913539"><ele>348.0</ele><time>2026-04-12T08:13:41Z</time></trkpt><trkpt lat="44.236435448625095" lon="11.463330730364316"><ele>346.2</ele><time>2026-04-12T08:13:42Z</time></trkpt><trkpt lat="44.23651468170951" lon="11.463291099883987"><ele>344.4</ele><time>2026-04-12T08:13:43Z</time></trkpt><trkpt lat="44.236597460978885" lon="11.463227560267805"><ele>342.59999999999997</ele><time>2026-04-12T08:13:44Z</time></trkpt><trkpt lat="44.23669444361836" lon="11.463116187725381"><ele>340.79999999999995</ele><time>2026-04-12T08:13:45Z</time></trkpt><trkpt lat="44.23678618186348" lon="11.462985129046336"><ele>339.0</ele><time>2026-04-12T08:13:46Z</time></trkpt><trkpt lat="44.23687207288685" lon="11.462859906275336"><ele>339.0</ele><time>2026-04-12T08:13:47Z</time></trkpt><trkpt lat="44.23694582711997" lon="11.462793587562228"><ele>339.0</ele><time>2026-04-12T08:13:48Z</time></trkpt><trkpt lat="44.237010452075005" lon="11.462715235142038"><ele>339.0</ele><time>2026-04-12T08:13:50Z</time></trkpt><trkpt lat="44.237068174759116" lon="11.462752427685578"><ele>339.0</ele><time>2026-04-12T08:14:17Z</time></trkpt><trkpt lat="44.23712013026344" lon="11.462810199836987"><ele>339.0</ele><time>2026-04-12T08:14:20Z</time></trkpt><trkpt lat="44.23714046162049" lon="11.462893547441778"><ele>339.0</ele><time>2026-04-12T08:14:22Z</time></trkpt><trkpt lat="44.23714469572539" lon="11.46299427724081"><ele>339.0</ele><time>2026-04-12T08:14:24Z</time></trkpt><trkpt lat="44.23717277374334" lon="11.46311495855811"><ele>339.0</ele><time>2026-04-12T08:14:26Z</time></trkpt><trkpt lat="44.237267297910236" lon="11.463258296631505"><ele>339.0</ele><time>2026-04-12T08:14:28Z</time></trkpt><trkpt lat="44.23731457570319" lon="11.463343576640206"><ele>339.0</ele><time>2026-04-12T08:14:29Z</time></trkpt><trkpt lat="44.23738732584701" lon="11.463425784332001"><ele>339.0</ele><time>2026-04-12T08:14:30Z</time></trkpt><trkpt lat="44.23748854384234" lon="11.463536887854282"><ele>339.0</ele><time>2026-04-12T08:14:31Z</time></trkpt><trkpt lat="44.23761252459293" lon="11.463657654193751"><ele>337.5</ele><time>2026-04-12T08:14:32Z</time></trkpt><trkpt lat="44.237721661119764" lon="11.463780918748459"><ele>336.0</ele><time>2026-04-12T08:14:33Z</time></trkpt><trkpt lat="44.23781417798048" lon="11.463902974023586"><ele>334.5</ele><time>2026-04-12T08:14:34Z</time></trkpt><trkpt lat="44.23791746078649" lon="11.46401490204832"><ele>333.0</ele><time>2026-04-12T08:14:35Z</time></trkpt><trkpt lat="44.2380128986102" lon="11.464102219552377"><ele>333.0</ele><time>2026-04-12T08:14:36Z</time></trkpt><trkpt lat="44.23813233111636" lon="11.464177594320521"><ele>333.0</ele><time>2026-04-12T08:14:37Z</time></trkpt><trkpt lat="44.23825096149517" lon="11.464247855925137"><ele>333.0</ele><time>2026-04-12T08:14:38Z</time></trkpt><trkpt lat="44.23836781569619" lon="11.46435155657011"><ele>333.0</ele><time>2026-04-12T08:14:39Z</time></trkpt><trkpt lat="44.23848400947831" lon="11.46440840536557"><ele>332.59999999999997</ele><time>2026-04-12T08:14:40Z</time></trkpt><trkpt lat="44.238591456053" lon="11.464457320158523"><ele>332.2</ele><time>2026-04-12T08:14:41Z</time></trkpt><trkpt lat="44.23869378571576" lon="11.464465577491378"><ele>331.8</ele><time>2026-04-12T08:14:42Z</time></trkpt><trkpt lat="44.23879897712756" lon="11.46448333947499"><ele>331.4</ele><time>2026-04-12T08:14:43Z</time></trkpt><trkpt lat="44.238913805576885" lon="11.464444345424344"><ele>331.0</ele><time>2026-04-12T08:14:44Z</time></trkpt><trkpt lat="44.23902485828794" lon="11.464392802361218"><ele>330.75</ele><time>2026-04-12T08:14:45Z</time></trkpt><trkpt lat="44.23913439077865" lon="11.46437270943428"><ele>330.5</ele><time>2026-04-12T08:14:46Z</time></trkpt><trkpt lat="44.23923776755859" lon="11.464380799506452"><ele>330.25</ele><time>2026-04-12T08:14:47Z</time></trkpt><trkpt lat="44.23935564803937" lon="11.464384656872122"><ele>330.0</ele><time>2026-04-12T08:14:48Z</time></trkpt><trkpt lat="44.23949589280641" lon="11.464351857457679"><ele>330.0</ele><time>2026-04-12T08:14:49Z</time></trkpt><trkpt lat="44.239625784796" lon="11.464356864155373"><ele>330.0</ele><time>2026-04-12T08:14:50Z</time></trkpt><trkpt lat="44.23975639400056" lon="11.46433351501691"><ele>330.0</ele><time>2026-04-12T08:14:51Z</time></trkpt><trkpt lat="44.239887317460976" lon="11.464334471068119"><ele>330.0</ele><time>2026-04-12T08:14:52Z</time></trkpt><trkpt lat="44.23999979702219" lon="11.464335525704728"><ele>330.0</ele><time>2026-04-12T08:14:53Z</time></trkpt><trkpt lat="44.240113102226275" lon="11.464328976492466"><ele>330.0</ele><time>2026-04-12T08:14:54Z</time></trkpt><trkpt lat="44.24022674386027" lon="11.464329274933144"><ele>330.0</ele><time>2026-04-12T08:14:55Z</time></trkpt><trkpt lat="44.24030788860186" lon="11.46428960033576"><ele>330.0</ele><time>2026-04-12T08:14:56Z</time></trkpt><trkpt lat="44.24039776225087" lon="11.464266103139991"><ele>330.0</ele><time>2026-04-12T08:14:58Z</time></trkpt><trkpt lat="44.24043693010952" lon="11.464106025261978"><ele>330.0</ele><time>2026-04-12T08:15:00Z</time></trkpt><trkpt lat="44.24059847219686" lon="11.464334821914196"><ele>330.0</ele><time>2026-04-12T08:15:01Z</time></trkpt><trkpt lat="44.24065088075347" lon="11.464270463009269"><ele>330.0</ele><time>2026-04-12T08:15:02Z</time></trkpt><trkpt lat="44.240689267926825" lon="11.464191528596714"><ele>330.0</ele><time>2026-04-12T08:15:03Z</time></trkpt><trkpt lat="44.24074081127313" lon="11.464089363517717"><ele>329.8333333333333</ele><time>2026-04-12T08:15:06Z</time></trkpt><trkpt lat="44.24081696354545" lon="11.46411403642201"><ele>329.6666666666667</ele><time>2026-04-12T08:15:10Z</time></trkpt><trkpt lat="44.24088240335563" lon="11.464165468941633"><ele>329.5</ele><time>2026-04-12T08:15:12Z</time></trkpt><trkpt lat="44.24090640973745" lon="11.46425774817266"><ele>329.33333333333337</ele><time>2026-04-12T08:15:15Z</time></trkpt><trkpt lat="44.240880202269295" lon="11.46437576560456"><ele>329.1666666666667</ele><time>2026-04-12T08:15:19Z</time></trkpt><trkpt lat="44.24088234534231" lon="11.464482319954156"><ele>329.0</ele><time>2026-04-12T08:15:23Z</time></trkpt><trkpt lat="44.24080476055537" lon="11.46464349549042"><ele>329.0</ele><time>2026-04-12T08:15:26Z</time></trkpt><trkpt lat="44.24075648755274" lon="11.464793956147867"><ele>329.0</ele><time>2026-04-12T08:15:27Z</time></trkpt><trkpt lat="44.24073573271203" lon="11.464907001939137"><ele>329.0</ele><time>2026-04-12T08:15:28Z</time></trkpt><trkpt lat="44.240744821852374" lon="11.465010366755882"><ele>329.0</ele><time>2026-04-12T08:15:29Z</time></trkpt><trkpt lat="44.24075814607555" lon="11.465112979446658"><ele>329.0</ele><time>2026-04-12T08:15:30Z</time></trkpt><trkpt lat="44.24078953241774" lon="11.465235686821933"><ele>329.0</ele><time>2026-04-12T08:15:31Z</time></trkpt><trkpt lat="44.24084597784147" lon="11.465368096477336"><ele>328.25</ele><time>2026-04-12T08:15:32Z</time></trkpt><trkpt lat="44.24090456586677" lon="11.465503674408378"><ele>327.5</ele><time>2026-04-12T08:15:33Z</time></trkpt><trkpt lat="44.24097570630882" lon="11.465620487494848"><ele>326.75</ele><time>2026-04-12T08:15:34Z</time></trkpt><trkpt lat="44.24105299056759" lon="11.465745314579854"><ele>326.0</ele><time>2026-04-12T08:15:35Z</time></trkpt><trkpt lat="44.24113899089656" lon="11.465880993347012"><ele>326.0</ele><time>2026-04-12T08:15:36Z</time></trkpt><trkpt lat="44.24122564306083" lon="11.466012080267772"><ele>326.0</ele><time>2026-04-12T08:15:37Z</time></trkpt><trkpt lat="44.241293617521976" lon="11.466114199900526"><ele>326.0</ele><time>2026-04-12T08:15:38Z</time></trkpt><trkpt lat="44.241377277322485" lon="11.466164029267976"><ele>326.0</ele><time>2026-04-12T08:15:39Z</time></trkpt><trkpt lat="44.24146200679518" lon="11.46619313592398"><ele>326.0</ele><time>2026-04-12T08:15:40Z</time></trkpt><trkpt lat="44.24153323693961" lon="11.466181855352657"><ele>326.0</ele><time>2026-04-12T08:15:41Z</time></trkpt><trkpt lat="44.24159910783133" lon="11.466161591353476"><ele>326.0</ele><time>2026-04-12T08:15:42Z</time></trkpt><trkpt lat="44.24166233752446" lon="11.466193129025978"><ele>326.0</ele><time>2026-04-12T08:15:43Z</time></trkpt><trkpt lat="44.24174722041162" lon="11.466268977986685"><ele>326.0</ele><time>2026-04-12T08:15:44Z</time></trkpt><trkpt lat="44.241851632564035" lon="11.466307905762188"><ele>326.0</ele><time>2026-04-12T08:15:45Z</time></trkpt><trkpt lat="44.24196328398583" lon="11.46632337835308"><ele>325.8</ele><time>2026-04-12T08:15:46Z</time></trkpt><trkpt lat="44.24206246227877" lon="11.466325163050353"><ele>325.6</ele><time>2026-04-12T08:15:47Z</time></trkpt><trkpt lat="44.24214337964333" lon="11.466315531510249"><ele>325.4</ele><time>2026-04-12T08:15:48Z</time></trkpt><trkpt lat="44.24220932483886" lon="11.466331262741434"><ele>325.2</ele><time>2026-04-12T08:15:49Z</time></trkpt><trkpt lat="44.242304531954915" lon="11.466451635208026"><ele>325.0</ele><time>2026-04-12T08:15:51Z</time></trkpt><trkpt lat="44.24233676207969" lon="11.466545457746946"><ele>324.8333333333333</ele><time>2026-04-12T08:15:52Z</time></trkpt><trkpt lat="44.242415243151434" lon="11.466633457122446"><ele>324.66666666666663</ele><time>2026-04-12T08:15:54Z</time></trkpt><trkpt lat="44.242502764226224" lon="11.466575506625063"><ele>324.5</ele><time>2026-04-12T08:15:56Z</time></trkpt><trkpt lat="44.242549857146095" lon="11.466482721966077"><ele>324.3333333333333</ele><time>2026-04-12T08:15:58Z</time></trkpt><trkpt lat="44.24261187317731" lon="11.46644754842839"><ele>324.1666666666667</ele><time>2026-04-12T08:16:00Z</time></trkpt><trkpt lat="44.24269827942006" lon="11.466405440492073"><ele>324.0</ele><time>2026-04-12T08:16:02Z</time></trkpt><trkpt lat="44.24277951398047" lon="11.466399671037356"><ele>324.0</ele><time>2026-04-12T08:16:11Z</time></trkpt><trkpt lat="44.24289114061879" lon="11.466366031166007"><ele>324.0</ele><time>2026-04-12T08:16:13Z</time></trkpt><trkpt lat="44.24294746960753" lon="11.466412297669581"><ele>324.0</ele><time>2026-04-12T08:16:16Z</time></trkpt><trkpt lat="44.243017618613905" lon="11.466469247169623"><ele>324.0</ele><time>2026-04-12T08:16:19Z</time></trkpt><trkpt lat="44.24308438905321" lon="11.4665018227181"><ele>324.0</ele><time>2026-04-12T08:16:22Z</time></trkpt><trkpt lat="44.24315715838289" lon="11.46655176323381"><ele>324.0</ele><time>2026-04-12T08:16:26Z</time></trkpt><trkpt lat="44.24321878157548" lon="11.466625135327188"><ele>323.6666666666667</ele><time>2026-04-12T08:16:29Z</time></trkpt><trkpt lat="44.24328070391386" lon="11.466714909380652"><ele>323.3333333333333</ele><time>2026-04-12T08:16:31Z</time></trkpt><trkpt lat="44.24332559095555" lon="11.466884120564542"><ele>323.0</ele><time>2026-04-12T08:16:33Z</time></trkpt><trkpt lat="44.24336399083788" lon="11.46696787442711"><ele>322.66666666666663</ele><time>2026-04-12T08:16:36Z</time></trkpt><trkpt lat="44.24343077566129" lon="11.466973885124922"><ele>322.3333333333333</ele><time>2026-04-12T08:16:39Z</time></trkpt><trkpt lat="44.2434932759677" lon="11.466954544098089"><ele>322.0</ele><time>2026-04-12T08:16:41Z</time></trkpt><trkpt lat="44.24358442628085" lon="11.466931782660104"><ele>322.0</ele><time>2026-04-12T08:16:43Z</time></trkpt><trkpt lat="44.24364937842445" lon="11.466913525769861"><ele>322.0</ele><time>2026-04-12T08:16:44Z</time></trkpt><trkpt lat="44.243721164347185" lon="11.466903447638813"><ele>322.0</ele><time>2026-04-12T08:16:45Z</time></trkpt><trkpt lat="44.24380771205638" lon="11.466898920388072"><ele>322.0</ele><time>2026-04-12T08:16:46Z</time></trkpt><trkpt lat="44.24390192934787" lon="11.466927592642977"><ele>322.0</ele><time>2026-04-12T08:16:47Z</time></trkpt><trkpt lat="44.24400854920435" lon="11.467005398666474"><ele>322.0</ele><time>2026-04-12T08:16:48Z</time></trkpt><trkpt lat="44.244137638465745" lon="11.467095501104852"><ele>322.5</ele><time>2026-04-12T08:16:49Z</time></trkpt><trkpt lat="44.24428017331672" lon="11.467165801460752"><ele>323.0</ele><time>2026-04-12T08:16:50Z</time></trkpt><trkpt lat="44.244421634753614" lon="11.46721962012954"><ele>323.5</ele><time>2026-04-12T08:16:51Z</time></trkpt><trkpt lat="44.24450099823695" lon="11.467262448572473"><ele>324.0</ele><time>2026-04-12T08:16:52Z</time></trkpt><trkpt lat="44.24456233730128" lon="11.46732143390013"><ele>324.0</ele><time>2026-04-12T08:16:53Z</time></trkpt><trkpt lat="44.244625056075634" lon="11.467382467501164"><ele>324.0</ele><time>2026-04-12T08:16:54Z</time></trkpt><trkpt lat="44.24467579002342" lon="11.467467518019301"><ele>324.0</ele><time>2026-04-12T08:16:55Z</time></trkpt><trkpt lat="44.244754517535064" lon="11.46755343529958"><ele>324.0</ele><time>2026-04-12T08:16:56Z</time></trkpt><trkpt lat="44.24486998426028" lon="11.467638728585989"><ele>324.0</ele><time>2026-04-12T08:16:57Z</time></trkpt><trkpt lat="44.244941338143015" lon="11.467700708480153"><ele>323.1666666666667</ele><time>2026-04-12T08:16:58Z</time></trkpt><trkpt lat="44.245014561155145" lon="11.46773257758382"><ele>322.3333333333333</ele><time>2026-04-12T08:17:00Z</time></trkpt><trkpt lat="44.24508175542834" lon="11.46770133872962"><ele>321.5</ele><time>2026-04-12T08:17:03Z</time></trkpt><trkpt lat="44.245122744531294" lon="11.46762805319593"><ele>320.66666666666663</ele><time>2026-04-12T08:17:05Z</time></trkpt><trkpt lat="44.2451771444363" lon="11.467542645830015"><ele>319.8333333333333</ele><time>2026-04-12T08:17:07Z</time></trkpt><trkpt lat="44.245253109340226" lon="11.467499900352944"><ele>319.0</ele><time>2026-04-12T08:17:09Z</time></trkpt><trkpt lat="44.2453175721868" lon="11.467546434279933"><ele>319.0</ele><time>2026-04-12T08:17:11Z</time></trkpt><trkpt lat="44.24538944509375" lon="11.467651099340076"><ele>319.0</ele><time>2026-04-12T08:17:13Z</time></trkpt><trkpt lat="44.24546205938464" lon="11.467718764696416"><ele>319.0</ele><time>2026-04-12T08:17:15Z</time></trkpt><trkpt lat="44.245527729378246" lon="11.467749504338503"><ele>319.0</ele><time>2026-04-12T08:17:17Z</time></trkpt><trkpt lat="44.24559226276869" lon="11.467804304750663"><ele>319.0</ele><time>2026-04-12T08:17:20Z</time></trkpt><trkpt lat="44.24564110597902" lon="11.467862580291227"><ele>319.0</ele><time>2026-04-12T08:17:45Z</time></trkpt><trkpt lat="44.24571338748536" lon="11.467906738270663"><ele>319.0</ele><time>2026-04-12T08:17:49Z</time></trkpt><trkpt lat="44.245784735793826" lon="11.467921510797318"><ele>319.0</ele><time>2026-04-12T08:17:54Z</time></trkpt><trkpt lat="44.24592699870812" lon="11.467918954623421"><ele>319.0</ele><time>2026-04-12T08:17:59Z</time></trkpt><trkpt lat="44.246136901935074" lon="11.46800681241366"><ele>319.0</ele><time>2026-04-12T08:18:18Z</time></trkpt><trkpt lat="44.24625973483727" lon="11.46810125189984"><ele>319.0</ele><time>2026-04-12T08:18:20Z</time></trkpt><trkpt lat="44.246332154250425" lon="11.468171674096789"><ele>319.0</ele><time>2026-04-12T08:18:21Z</time></trkpt><trkpt lat="44.246393852611256" lon="11.468233202932648"><ele>319.0</ele><time>2026-04-12T08:18:22Z</time></trkpt><trkpt lat="44.24646255198456" lon="11.468301050395425"><ele>319.0</ele><time>2026-04-12T08:18:23Z</time></trkpt><trkpt lat="44.24656304323848" lon="11.4683771935969"><ele>319.0</ele><time>2026-04-12T08:18:25Z</time></trkpt><trkpt lat="44.24665369260591" lon="11.468343713628725"><ele>318.2</ele><time>2026-04-12T08:18:27Z</time></trkpt><trkpt lat="44.24669633720731" lon="11.468192489626528"><ele>317.4</ele><time>2026-04-12T08:18:29Z</time></trkpt><trkpt lat="44.24675354719162" lon="11.468068456833631"><ele>316.6</ele><time>2026-04-12T08:18:31Z</time></trkpt><trkpt lat="44.24683182036533" lon="11.468003081894564"><ele>315.8</ele><time>2026-04-12T08:18:33Z</time></trkpt><trkpt lat="44.246905443250014" lon="11.467969294608112"><ele>315.0</ele><time>2026-04-12T08:18:35Z</time></trkpt><trkpt lat="44.246976781020805" lon="11.467996712839138"><ele>315.0</ele><time>2026-04-12T08:18:38Z</time></trkpt><trkpt lat="44.24703437620727" lon="11.46808736753767"><ele>315.0</ele><time>2026-04-12T08:18:40Z</time></trkpt><trkpt lat="44.24708482235037" lon="11.468165411434137"><ele>315.0</ele><time>2026-04-12T08:18:42Z</time></trkpt><trkpt lat="44.24716448141336" lon="11.468213014358579"><ele>315.0</ele><time>2026-04-12T08:18:46Z</time></trkpt><trkpt lat="44.247228729551956" lon="11.468256628071945"><ele>315.0</ele><time>2026-04-12T08:18:48Z</time></trkpt><trkpt lat="44.247303940382" lon="11.468294730135488"><ele>315.0</ele><time>2026-04-12T08:18:50Z</time></trkpt><trkpt lat="44.24736434407114" lon="11.468381491273968"><ele>314.4</ele><time>2026-04-12T08:18:52Z</time></trkpt><trkpt lat="44.247426124562715" lon="11.468507103013266"><ele>313.8</ele><time>2026-04-12T08:18:54Z</time></trkpt><trkpt lat="44.24751707827528" lon="11.468581451814488"><ele>313.2</ele><time>2026-04-12T08:18:56Z</time></trkpt><trkpt lat="44.2476710148158" lon="11.468584629372593"><ele>312.6</ele><time>2026-04-12T08:19:05Z</time></trkpt><trkpt lat="44.24759905217657" lon="11.468550036270406"><ele>312.0</ele><time>2026-04-12T08:20:28Z</time></trkpt><trkpt lat="44.247504091007094" lon="11.468536042810392"><ele>312.0</ele><time>2026-04-12T08:20:32Z</time></trkpt><trkpt lat="44.24740605296208" lon="11.468469336620048"><ele>312.0</ele><time>2026-04-12T08:20:34Z</time></trkpt><trkpt lat="44.24732611446706" lon="11.468324917154263"><ele>312.0</ele><time>2026-04-12T08:20:36Z</time></trkpt><trkpt lat="44.24725985579438" lon="11.468232262593434"><ele>312.0</ele><time>2026-04-12T08:20:38Z</time></trkpt><trkpt lat="44.247182731596205" lon="11.468207714240142"><ele>312.0</ele><time>2026-04-12T08:20:40Z</time></trkpt><trkpt lat="44.247103648501465" lon="11.46819223858301"><ele>312.5</ele><time>2026-04-12T08:20:42Z</time></trkpt><trkpt lat="44.24705093276345" lon="11.468116984220586"><ele>313.0</ele><time>2026-04-12T08:20:44Z</time></trkpt><trkpt lat="44.246993474474294" lon="11.468035797933224"><ele>313.5</ele><time>2026-04-12T08:20:46Z</time></trkpt><trkpt lat="44.24693952884933" lon="11.467954243305924"><ele>314.0</ele><time>2026-04-12T08:20:48Z</time></trkpt><trkpt lat="44.24692078735014" lon="11.46784308229432"><ele>314.5</ele><time>2026-04-12T08:20:51Z</time></trkpt><trkpt lat="44.246967690035405" lon="11.467756676773124"><ele>315.0</ele><time>2026-04-12T08:20:55Z</time></trkpt><trkpt lat="44.24703418279405" lon="11.467703021048363"><ele>315.1666666666667</ele><time>2026-04-12T08:21:07Z</time></trkpt><trkpt lat="44.24710809771472" lon="11.46770065669977"><ele>315.3333333333333</ele><time>2026-04-12T08:21:14Z</time></trkpt><trkpt lat="44.247182544992896" lon="11.467721505681837"><ele>315.5</ele><time>2026-04-12T08:21:17Z</time></trkpt><trkpt lat="44.247260655768564" lon="11.467734802300578"><ele>315.66666666666663</ele><time>2026-04-12T08:21:20Z</time></trkpt><trkpt lat="44.24732268266827" lon="11.46776917409387"><ele>315.8333333333333</ele><time>2026-04-12T08:21:22Z</time></trkpt><trkpt lat="44.24745647811067" lon="11.467795991676406"><ele>316.0</ele><time>2026-04-12T08:21:27Z</time></trkpt><trkpt lat="44.2475060244732" lon="11.467863456668953"><ele>316.0</ele><time>2026-04-12T08:21:49Z</time></trkpt><trkpt lat="44.24760002750007" lon="11.467888426712468"><ele>316.0</ele><time>2026-04-12T08:21:51Z</time></trkpt><trkpt lat="44.24771218600373" lon="11.467917326780254"><ele>316.0</ele><time>2026-04-12T08:21:53Z</time></trkpt><trkpt lat="44.247779794565055" lon="11.467946507613355"><ele>316.0</ele><time>2026-04-12T08:21:54Z</time></trkpt><trkpt lat="44.2478410405785" lon="11.467983442671294"><ele>316.0</ele><time>2026-04-12T08:21:55Z</time></trkpt><trkpt lat="44.24790183231649" lon="11.468024571540509"><ele>316.0</ele><time>2026-04-12T08:21:56Z</time></trkpt><trkpt lat="44.24801178137195" lon="11.468101202676607"><ele>315.2</ele><time>2026-04-12T08:21:58Z</time></trkpt><trkpt lat="44.24809987814084" lon="11.46814037618793"><ele>314.40000000000003</ele><time>2026-04-12T08:22:00Z</time></trkpt><trkpt lat="44.248206570393435" lon="11.468137437043438"><ele>313.6</ele><time>2026-04-12T08:22:04Z</time></trkpt><trkpt lat="44.248288908111" lon="11.46813216438668"><ele>312.8</ele><time>2026-04-12T08:22:07Z</time></trkpt><trkpt lat="44.248392827551974" lon="11.468193144522635"><ele>312.0</ele><time>2026-04-12T08:22:11Z</time></trkpt><trkpt lat="44.2484589316674" lon="11.468219521871987"><ele>312.0</ele><time>2026-04-12T08:22:13Z</time></trkpt><trkpt lat="44.24855130242966" lon="11.468256802515949"><ele>312.0</ele><time>2026-04-12T08:22:16Z</time></trkpt><trkpt lat="44.2486336236414" lon="11.468278078645648"><ele>312.0</ele><time>2026-04-12T08:22:18Z</time></trkpt><trkpt lat="44.24869967242833" lon="11.46829508444291"><ele>312.0</ele><time>2026-04-12T08:22:21Z</time></trkpt><trkpt lat="44.24877276617653" lon="11.468321693726406"><ele>312.0</ele><time>2026-04-12T08:23:16Z</time></trkpt><trkpt lat="44.24883841528799" lon="11.468343654836723"><ele>312.0</ele><time>2026-04-12T08:23:18Z</time></trkpt><trkpt lat="44.248903285126694" lon="11.468384359643844"><ele>312.0</ele><time>2026-04-12T08:23:20Z</time></trkpt><trkpt lat="44.2489710331143" lon="11.468432692913733"><ele>312.0</ele><time>2026-04-12T08:23:23Z</time></trkpt><trkpt lat="44.24898453105638" lon="11.468528116356858"><ele>312.0</ele><time>2026-04-12T08:24:09Z</time></trkpt><trkpt lat="44.24900168046513" lon="11.468638330227613"><ele>312.0</ele><time>2026-04-12T08:24:17Z</time></trkpt><trkpt lat="44.24901525442671" lon="11.468543142705233"><ele>312.0</ele><time>2026-04-12T08:24:48Z</time></trkpt><trkpt lat="44.24899375641076" lon="11.468448019643224"><ele>312.0</ele><time>2026-04-12T08:24:55Z</time></trkpt><trkpt lat="44.24884386862992" lon="11.468407667817957"><ele>312.0</ele><time>2026-04-12T08:26:12Z</time></trkpt><trkpt lat="44.248956633851954" lon="11.46843084877797"><ele>312.0</ele><time>2026-04-12T08:26:30Z</time></trkpt><trkpt lat="44.248989598697186" lon="11.46853789480379"><ele>312.0</ele><time>2026-04-12T08:34:39Z</time></trkpt><trkpt lat="44.249036168369045" lon="11.468650917728594"><ele>312.0</ele><time>2026-04-12T08:34:45Z</time></trkpt><trkpt lat="44.24904531676807" lon="11.46856002730001"><ele>312.0</ele><time>2026-04-12T08:35:56Z</time></trkpt><trkpt lat="44.24903799721887" lon="11.468467537643628"><ele>312.0</ele><time>2026-04-12T08:36:03Z</time></trkpt><trkpt lat="44.24899304711157" lon="11.468401512516628"><ele>312.1666666666667</ele><time>2026-04-12T08:36:09Z</time></trkpt><trkpt lat="44.2490267701687" lon="11.468546618801435"><ele>312.3333333333333</ele><time>2026-04-12T08:36:54Z</time></trkpt><trkpt lat="44.24905916890333" lon="11.468666049996632"><ele>312.5</ele><time>2026-04-12T08:36:56Z</time></trkpt><trkpt lat="44.24908940626917" lon="11.46875176346342"><ele>312.66666666666663</ele><time>2026-04-12T08:36:58Z</time></trkpt><trkpt lat="44.24913408524158" lon="11.468827497195246"><ele>312.8333333333333</ele><time>2026-04-12T08:37:15Z</time></trkpt><trkpt lat="44.24920544573004" lon="11.468915979911374"><ele>313.0</ele><time>2026-04-12T08:37:17Z</time></trkpt><trkpt lat="44.249260208980466" lon="11.469004092344854"><ele>313.0</ele><time>2026-04-12T08:37:19Z</time></trkpt><trkpt lat="44.24932498589758" lon="11.469088786435455"><ele>313.0</ele><time>2026-04-12T08:37:21Z</time></trkpt><trkpt lat="44.24940680731225" lon="11.46914341900671"><ele>313.0</ele><time>2026-04-12T08:37:23Z</time></trkpt><trkpt lat="44.24950726953305" lon="11.469157187265136"><ele>313.0</ele><time>2026-04-12T08:37:25Z</time></trkpt><trkpt lat="44.249625099001356" lon="11.469144625369127"><ele>313.0</ele><time>2026-04-12T08:37:27Z</time></trkpt><trkpt lat="44.249692258960984" lon="11.469131110238733"><ele>313.0</ele><time>2026-04-12T08:37:29Z</time></trkpt><trkpt lat="44.249753976017445" lon="11.469094765915385"><ele>313.0</ele><time>2026-04-12T08:37:33Z</time></trkpt><trkpt lat="44.24983048607709" lon="11.46906956156682"><ele>313.0</ele><time>2026-04-12T08:37:37Z</time></trkpt><trkpt lat="44.250034632825354" lon="11.46910866751296"><ele>313.0</ele><time>2026-04-12T08:37:41Z</time></trkpt><trkpt lat="44.2501392708774" lon="11.469159248808525"><ele>312.8333333333333</ele><time>2026-04-12T08:37:43Z</time></trkpt><trkpt lat="44.25019066338274" lon="11.469215292180802"><ele>312.66666666666663</ele><time>2026-04-12T08:37:45Z</time></trkpt><trkpt lat="44.250223515302594" lon="11.469304168679445"><ele>312.5</ele><time>2026-04-12T08:37:47Z</time></trkpt><trkpt lat="44.25021447202401" lon="11.469397332795612"><ele>312.3333333333333</ele><time>2026-04-12T08:37:49Z</time></trkpt><trkpt lat="44.25019584912998" lon="11.469510779231644"><ele>312.1666666666667</ele><time>2026-04-12T08:37:53Z</time></trkpt><trkpt lat="44.25021384035674" lon="11.469604059126551"><ele>312.0</ele><time>2026-04-12T08:37:55Z</time></trkpt><trkpt lat="44.250397630317" lon="11.46970218363172"><ele>312.0</ele><time>2026-04-12T08:38:14Z</time></trkpt><trkpt lat="44.25047360951534" lon="11.469677443351484"><ele>312.0</ele><time>2026-04-12T08:38:15Z</time></trkpt><trkpt lat="44.250569815252305" lon="11.469631875034317"><ele>312.0</ele><time>2026-04-12T08:38:16Z</time></trkpt><trkpt lat="44.25066322489516" lon="11.469579829352416"><ele>312.0</ele><time>2026-04-12T08:38:17Z</time></trkpt><trkpt lat="44.250727487101464" lon="11.469533292530494"><ele>312.0</ele><time>2026-04-12T08:38:18Z</time></trkpt><trkpt lat="44.250786465332936" lon="11.469478808777321"><ele>312.0</ele><time>2026-04-12T08:38:19Z</time></trkpt><trkpt lat="44.25090206940947" lon="11.469495984378668"><ele>311.3333333333333</ele><time>2026-04-12T08:38:21Z</time></trkpt><trkpt lat="44.2509921702848" lon="11.469559180334896"><ele>310.6666666666667</ele><time>2026-04-12T08:38:22Z</time></trkpt><trkpt lat="44.251071128048444" lon="11.469605584183663"><ele>310.0</ele><time>2026-04-12T08:38:23Z</time></trkpt><trkpt lat="44.251139114352206" lon="11.469632292800174"><ele>309.33333333333337</ele><time>2026-04-12T08:38:24Z</time></trkpt><trkpt lat="44.2512040737516" lon="11.469652514816593"><ele>308.6666666666667</ele><time>2026-04-12T08:38:25Z</time></trkpt><trkpt lat="44.25127205104578" lon="11.469660526223585"><ele>308.0</ele><time>2026-04-12T08:38:26Z</time></trkpt><trkpt lat="44.2513536786821" lon="11.469671416774315"><ele>308.0</ele><time>2026-04-12T08:38:27Z</time></trkpt><trkpt lat="44.25146120662971" lon="11.469754556702874"><ele>308.0</ele><time>2026-04-12T08:38:29Z</time></trkpt><trkpt lat="44.25153155771806" lon="11.469837431324708"><ele>308.0</ele><time>2026-04-12T08:38:30Z</time></trkpt><trkpt lat="44.25161128615112" lon="11.469910384476211"><ele>308.0</ele><time>2026-04-12T08:38:31Z</time></trkpt><trkpt lat="44.251689511807335" lon="11.469971595503498"><ele>308.0</ele><time>2026-04-12T08:38:32Z</time></trkpt><trkpt lat="44.251767275995995" lon="11.470019977097735"><ele>308.0</ele><time>2026-04-12T08:38:33Z</time></trkpt><trkpt lat="44.25182588321026" lon="11.470075017264199"><ele>308.0</ele><time>2026-04-12T08:38:34Z</time></trkpt><trkpt lat="44.251941242639234" lon="11.470139488010242"><ele>308.0</ele><time>2026-04-12T08:38:36Z</time></trkpt><trkpt lat="44.25200793101082" lon="11.470123819920934"><ele>308.0</ele><time>2026-04-12T08:38:37Z</time></trkpt><trkpt lat="44.2520714121817" lon="11.470083702024777"><ele>308.0</ele><time>2026-04-12T08:38:38Z</time></trkpt><trkpt lat="44.25214512933979" lon="11.470043305043125"><ele>308.0</ele><time>2026-04-12T08:38:39Z</time></trkpt><trkpt lat="44.252235123400446" lon="11.470002179115312"><ele>307.5</ele><time>2026-04-12T08:38:40Z</time></trkpt><trkpt lat="44.252311416384615" lon="11.46998085249249"><ele>307.0</ele><time>2026-04-12T08:38:41Z</time></trkpt><trkpt lat="44.25238709456533" lon="11.469968749491963"><ele>306.5</ele><time>2026-04-12T08:38:42Z</time></trkpt><trkpt lat="44.252467256450814" lon="11.469949054129275"><ele>306.0</ele><time>2026-04-12T08:38:43Z</time></trkpt><trkpt lat="44.2525427282381" lon="11.469949275743271"><ele>305.5</ele><time>2026-04-12T08:38:44Z</time></trkpt><trkpt lat="44.25266461017653" lon="11.470026547925775"><ele>305.0</ele><time>2026-04-12T08:38:46Z</time></trkpt><trkpt lat="44.252719021365344" lon="11.470115789466124"><ele>305.0</ele><time>2026-04-12T08:38:47Z</time></trkpt><trkpt lat="44.25277317322785" lon="11.470166449801942"><ele>305.0</ele><time>2026-04-12T08:38:48Z</time></trkpt><trkpt lat="44.25290767769466" lon="11.470189943840257"><ele>305.0</ele><time>2026-04-12T08:38:50Z</time></trkpt><trkpt lat="44.25300207304627" lon="11.470179647144592"><ele>305.0</ele><time>2026-04-12T08:38:51Z</time></trkpt><trkpt lat="44.25307338303508" lon="11.470186657028936"><ele>305.0</ele><time>2026-04-12T08:38:52Z</time></trkpt><trkpt lat="44.25314092725214" lon="11.470188519582557"><ele>305.0</ele><time>2026-04-12T08:38:53Z</time></trkpt><trkpt lat="44.25324743238508" lon="11.470161071976536"><ele>304.83333333333337</ele><time>2026-04-12T08:38:55Z</time></trkpt><trkpt lat="44.25333447806472" lon="11.47014123905645"><ele>304.6666666666667</ele><time>2026-04-12T08:38:57Z</time></trkpt><trkpt lat="44.2534230511194" lon="11.470109604329762"><ele>304.5</ele><time>2026-04-12T08:38:59Z</time></trkpt><trkpt lat="44.25350512122471" lon="11.470105987092351"><ele>304.3333333333333</ele><time>2026-04-12T08:39:47Z</time></trkpt><trkpt lat="44.25353238546688" lon="11.470191218605546"><ele>304.16666666666663</ele><time>2026-04-12T08:39:54Z</time></trkpt><trkpt lat="44.25346320225568" lon="11.470199249550316"><ele>304.0</ele><time>2026-04-12T08:40:28Z</time></trkpt><trkpt lat="44.25343882089216" lon="11.470098301089484"><ele>304.0</ele><time>2026-04-12T08:40:59Z</time></trkpt><trkpt lat="44.25347176302632" lon="11.47001168455322"><ele>304.0</ele><time>2026-04-12T08:41:04Z</time></trkpt><trkpt lat="44.253515082847635" lon="11.469944091656759"><ele>304.0</ele><time>2026-04-12T08:41:11Z</time></trkpt><trkpt lat="44.25348610851837" lon="11.470028645278544"><ele>304.0</ele><time>2026-04-12T08:41:34Z</time></trkpt><trkpt lat="44.25345390192513" lon="11.470110985790829"><ele>304.0</ele><time>2026-04-12T08:41:42Z</time></trkpt><trkpt lat="44.25342609226862" lon="11.47002417673058"><ele>304.0</ele><time>2026-04-12T08:43:14Z</time></trkpt><trkpt lat="44.25338788496998" lon="11.469936859676086"><ele>304.0</ele><time>2026-04-12T08:43:27Z</time></trkpt><trkpt lat="44.25335711264168" lon="11.469849101119038"><ele>304.0</ele><time>2026-04-12T08:43:32Z</time></trkpt><trkpt lat="44.25335020278107" lon="11.469740108073955"><ele>304.0</ele><time>2026-04-12T08:43:35Z</time></trkpt><trkpt lat="44.25333289625353" lon="11.469648478119206"><ele>304.0</ele><time>2026-04-12T08:43:39Z</time></trkpt><trkpt lat="44.25333070499408" lon="11.469525087132057"><ele>304.0</ele><time>2026-04-12T08:43:42Z</time></trkpt><trkpt lat="44.253370614914324" lon="11.469419431664006"><ele>304.0</ele><time>2026-04-12T08:43:45Z</time></trkpt><trkpt lat="44.253440076601194" lon="11.469408914488069"><ele>304.0</ele><time>2026-04-12T08:43:48Z</time></trkpt><trkpt lat="44.253482104430454" lon="11.469483207527276"><ele>304.0</ele><time>2026-04-12T08:43:52Z</time></trkpt><trkpt lat="44.25355017381446" lon="11.469534958587058"><ele>304.0</ele><time>2026-04-12T08:44:04Z</time></trkpt><trkpt lat="44.25360364621333" lon="11.46948718298876"><ele>304.0</ele><time>2026-04-12T08:46:30Z</time></trkpt><trkpt lat="44.25365596766219" lon="11.469561098093173"><ele>304.0</ele><time>2026-04-12T08:46:34Z</time></trkpt><trkpt lat="44.25366795152312" lon="11.469652378123916"><ele>304.0</ele><time>2026-04-12T08:46:41Z</time></trkpt><trkpt lat="44.25360871361285" lon="11.469568281796853"><ele>304.0</ele><time>2026-04-12T08:47:19Z</time></trkpt><trkpt lat="44.25365354788435" lon="11.469641319996342"><ele>304.0</ele><time>2026-04-12T08:47:36Z</time></trkpt><trkpt lat="44.25366919842312" lon="11.469828074010282"><ele>304.0</ele><time>2026-04-12T08:47:56Z</time></trkpt><trkpt lat="44.25369448131477" lon="11.469915601171934"><ele>304.0</ele><time>2026-04-12T08:48:00Z</time></trkpt><trkpt lat="44.25374658699648" lon="11.469976003365465"><ele>304.0</ele><time>2026-04-12T08:48:05Z</time></trkpt><trkpt lat="44.253803999660725" lon="11.469916036253682"><ele>304.0</ele><time>2026-04-12T08:48:07Z</time></trkpt><trkpt lat="44.25388326654564" lon="11.46987031393848"><ele>304.0</ele><time>2026-04-12T08:48:10Z</time></trkpt><trkpt lat="44.25399226163048" lon="11.469825672537102"><ele>304.0</ele><time>2026-04-12T08:48:13Z</time></trkpt><trkpt lat="44.25408569858979" lon="11.469796367034672"><ele>303.59999999999997</ele><time>2026-04-12T08:48:15Z</time></trkpt><trkpt lat="44.25417109365135" lon="11.469830383577992"><ele>303.2</ele><time>2026-04-12T08:48:17Z</time></trkpt><trkpt lat="44.25433733089755" lon="11.46981402676547"><ele>302.79999999999995</ele><time>2026-04-12T08:48:18Z</time></trkpt><trkpt lat="44.25440772755346" lon="11.469860483899241"><ele>302.4</ele><time>2026-04-12T08:48:19Z</time></trkpt><trkpt lat="44.25448411205531" lon="11.469890566499235"><ele>302.0</ele><time>2026-04-12T08:48:20Z</time></trkpt><trkpt lat="44.25460725755893" lon="11.469922785886364"><ele>302.0</ele><time>2026-04-12T08:48:22Z</time></trkpt><trkpt lat="44.25468406801222" lon="11.469947840996516"><ele>302.0</ele><time>2026-04-12T08:48:23Z</time></trkpt><trkpt lat="44.254757463647266" lon="11.469942874252038"><ele>302.0</ele><time>2026-04-12T08:48:24Z</time></trkpt><trkpt lat="44.254853605697704" lon="11.469928296242319"><ele>302.0</ele><time>2026-04-12T08:48:26Z</time></trkpt><trkpt lat="44.25491423916325" lon="11.469884499584118"><ele>302.0</ele><time>2026-04-12T08:48:27Z</time></trkpt><trkpt lat="44.25500974032943" lon="11.469815832024999"><ele>302.0</ele><time>2026-04-12T08:48:28Z</time></trkpt><trkpt lat="44.25511846350752" lon="11.469733464437704"><ele>301.8</ele><time>2026-04-12T08:48:29Z</time></trkpt><trkpt lat="44.25523376540424" lon="11.469761667381526"><ele>301.6</ele><time>2026-04-12T08:48:31Z</time></trkpt><trkpt lat="44.25532175421699" lon="11.469775629042353"><ele>301.40000000000003</ele><time>2026-04-12T08:48:32Z</time></trkpt><trkpt lat="44.25543916715381" lon="11.469799301122961"><ele>301.2</ele><time>2026-04-12T08:48:33Z</time></trkpt><trkpt lat="44.25555015848359" lon="11.469839231011626"><ele>301.0</ele><time>2026-04-12T08:48:34Z</time></trkpt><trkpt lat="44.25564036273189" lon="11.46985140309166"><ele>300.8333333333333</ele><time>2026-04-12T08:48:35Z</time></trkpt><trkpt lat="44.25569517680104" lon="11.469795640007046"><ele>300.66666666666663</ele><time>2026-04-12T08:48:36Z</time></trkpt><trkpt lat="44.25576307815199" lon="11.469817959798437"><ele>300.5</ele><time>2026-04-12T08:48:37Z</time></trkpt><trkpt lat="44.25583018606268" lon="11.469794145235534"><ele>300.3333333333333</ele><time>2026-04-12T08:48:38Z</time></trkpt><trkpt lat="44.25590437769852" lon="11.469770562620031"><ele>300.1666666666667</ele><time>2026-04-12T08:48:39Z</time></trkpt><trkpt lat="44.25596920783896" lon="11.469763932547597"><ele>300.0</ele><time>2026-04-12T08:48:40Z</time></trkpt><trkpt lat="44.25610427900465" lon="11.46972018781322"><ele>300.0</ele><time>2026-04-12T08:48:42Z</time></trkpt><trkpt lat="44.256200589402845" lon="11.469671497273673"><ele>300.0</ele><time>2026-04-12T08:48:44Z</time></trkpt><trkpt lat="44.25625958575783" lon="11.469633304798915"><ele>300.0</ele><time>2026-04-12T08:48:46Z</time></trkpt><trkpt lat="44.25632192866553" lon="11.46966538331874"><ele>300.0</ele><time>2026-04-12T08:48:48Z</time></trkpt><trkpt lat="44.25639131553757" lon="11.469722045066067"><ele>300.0</ele><time>2026-04-12T08:48:50Z</time></trkpt><trkpt lat="44.256461840350376" lon="11.469795601590535"><ele>300.0</ele><time>2026-04-12T08:48:53Z</time></trkpt><trkpt lat="44.25654596003907" lon="11.469890073700705"><ele>300.0</ele><time>2026-04-12T08:49:17Z</time></trkpt><trkpt lat="44.25660720387643" lon="11.469942630684859"><ele>300.0</ele><time>2026-04-12T08:49:18Z</time></trkpt><trkpt lat="44.25667890142489" lon="11.46998065185001"><ele>300.0</ele><time>2026-04-12T08:49:19Z</time></trkpt><trkpt lat="44.25675048909402" lon="11.469981452598626"><ele>300.0</ele><time>2026-04-12T08:49:20Z</time></trkpt><trkpt lat="44.256837045446076" lon="11.469991117192157"><ele>300.0</ele><time>2026-04-12T08:49:21Z</time></trkpt><trkpt lat="44.25695613300325" lon="11.470016265020137"><ele>300.0</ele><time>2026-04-12T08:49:22Z</time></trkpt><trkpt lat="44.257077923978066" lon="11.470027631616924"><ele>300.0</ele><time>2026-04-12T08:49:23Z</time></trkpt><trkpt lat="44.25720154298427" lon="11.470054444583772"><ele>300.0</ele><time>2026-04-12T08:49:24Z</time></trkpt><trkpt lat="44.257284675420415" lon="11.470084570158006"><ele>300.0</ele><time>2026-04-12T08:49:25Z</time></trkpt><trkpt lat="44.25737834080271" lon="11.47011849351348"><ele>300.0</ele><time>2026-04-12T08:49:26Z</time></trkpt><trkpt lat="44.25745429258484" lon="11.470181719875349"><ele>300.0</ele><time>2026-04-12T08:49:27Z</time></trkpt><trkpt lat="44.25753004401167" lon="11.470249014559768"><ele>299.85714285714283</ele><time>2026-04-12T08:49:28Z</time></trkpt><trkpt lat="44.25760060460239" lon="11.470284208953979"><ele>299.7142857142857</ele><time>2026-04-12T08:49:29Z</time></trkpt><trkpt lat="44.25769507983346" lon="11.470308244860563"><ele>299.57142857142856</ele><time>2026-04-12T08:49:31Z</time></trkpt><trkpt lat="44.25775868748067" lon="11.470298342476326"><ele>299.42857142857144</ele><time>2026-04-12T08:49:36Z</time></trkpt><trkpt lat="44.25780826865789" lon="11.470223067284417"><ele>299.2857142857143</ele><time>2026-04-12T08:49:56Z</time></trkpt><trkpt lat="44.25784415048672" lon="11.470143377246885"><ele>299.1428571428571</ele><time>2026-04-12T08:50:17Z</time></trkpt><trkpt lat="44.257891571566454" lon="11.470085402658722"><ele>299.0</ele><time>2026-04-12T08:50:32Z</time></trkpt><trkpt lat="44.25795403352914" lon="11.470029021964702"><ele>299.0</ele><time>2026-04-12T08:50:38Z</time></trkpt><trkpt lat="44.25801949051794" lon="11.470052650766942"><ele>299.0</ele><time>2026-04-12T08:51:00Z</time></trkpt><trkpt lat="44.25795546037783" lon="11.470012203169905"><ele>299.0</ele><time>2026-04-12T08:51:17Z</time></trkpt><trkpt lat="44.257905262995116" lon="11.47007518345351"><ele>299.0</ele><time>2026-04-12T08:51:29Z</time></trkpt><trkpt lat="44.25785652221558" lon="11.47014986616342"><ele>299.0</ele><time>2026-04-12T08:51:34Z</time></trkpt><trkpt lat="44.25781633337836" lon="11.47022354693806"><ele>299.0</ele><time>2026-04-12T08:51:39Z</time></trkpt><trkpt lat="44.257785929244015" lon="11.470310606605201"><ele>299.0</ele><time>2026-04-12T08:52:44Z</time></trkpt><trkpt lat="44.257793600530455" lon="11.470214381791218"><ele>299.0</ele><time>2026-04-12T08:53:07Z</time></trkpt><trkpt lat="44.25783845462504" lon="11.470138774995807"><ele>299.0</ele><time>2026-04-12T08:53:14Z</time></trkpt><trkpt lat="44.25788321298875" lon="11.470070914889723"><ele>299.0</ele><time>2026-04-12T08:53:23Z</time></trkpt><trkpt lat="44.25794005154287" lon="11.470018414956735"><ele>299.0</ele><time>2026-04-12T08:53:26Z</time></trkpt><trkpt lat="44.25801266973529" lon="11.469954275801667"><ele>299.0</ele><time>2026-04-12T08:53:30Z</time></trkpt><trkpt lat="44.258084283058245" lon="11.46994844680958"><ele>299.0</ele><time>2026-04-12T08:53:32Z</time></trkpt><trkpt lat="44.25815748638538" lon="11.469913425685647"><ele>299.0</ele><time>2026-04-12T08:53:34Z</time></trkpt><trkpt lat="44.25822740016583" lon="11.469876322131574"><ele>298.7142857142857</ele><time>2026-04-12T08:53:37Z</time></trkpt><trkpt lat="44.25827751873298" lon="11.469819483290891"><ele>298.42857142857144</ele><time>2026-04-12T08:53:40Z</time></trkpt><trkpt lat="44.2583567696942" lon="11.469787100614747"><ele>298.14285714285717</ele><time>2026-04-12T08:53:43Z</time></trkpt><trkpt lat="44.25843145258869" lon="11.469782703635243"><ele>297.8571428571429</ele><time>2026-04-12T08:56:07Z</time></trkpt><trkpt lat="44.25848148056642" lon="11.469723775812044"><ele>297.5714285714286</ele><time>2026-04-12T08:56:13Z</time></trkpt><trkpt lat="44.258550736201364" lon="11.46968714428476"><ele>297.2857142857143</ele><time>2026-04-12T08:56:20Z</time></trkpt><trkpt lat="44.25861692523575" lon="11.46969504137715"><ele>297.0</ele><time>2026-04-12T08:56:28Z</time></trkpt><trkpt lat="44.25868118712444" lon="11.469672359447436"><ele>297.0</ele><time>2026-04-12T08:56:40Z</time></trkpt><trkpt lat="44.258737035629316" lon="11.469622843689688"><ele>297.0</ele><time>2026-04-12T08:56:48Z</time></trkpt><trkpt lat="44.258784730036375" lon="11.469686010849454"><ele>297.0</ele><time>2026-04-12T08:57:03Z</time></trkpt><trkpt lat="44.258845428332805" lon="11.469748064967972"><ele>297.0</ele><time>2026-04-12T08:57:14Z</time></trkpt><trkpt lat="44.25886569348523" lon="11.469833685518722"><ele>297.0</ele><time>2026-04-12T08:57:27Z</time></trkpt><trkpt lat="44.2587881993208" lon="11.469765792884484"><ele>297.0</ele><time>2026-04-12T08:57:38Z</time></trkpt><trkpt lat="44.25873394201173" lon="11.46982502978996"><ele>297.0</ele><time>2026-04-12T08:57:45Z</time></trkpt><trkpt lat="44.25869780666653" lon="11.469897175469171"><ele>297.0</ele><time>2026-04-12T08:57:54Z</time></trkpt><trkpt lat="44.25865045415465" lon="11.469823080712096"><ele>297.0</ele><time>2026-04-12T08:58:30Z</time></trkpt><trkpt lat="44.2585977175601" lon="11.469887482453402"><ele>297.0</ele><time>2026-04-12T08:58:35Z</time></trkpt><trkpt lat="44.258531320936406" lon="11.469907201112642"><ele>297.0</ele><time>2026-04-12T08:58:57Z</time></trkpt><trkpt lat="44.25847241501362" lon="11.469848247123702"><ele>297.0</ele><time>2026-04-12T08:59:54Z</time></trkpt><trkpt lat="44.25842724568965" lon="11.46978441586439"><ele>297.0</ele><time>2026-04-12T09:00:15Z</time></trkpt><trkpt lat="44.25837476221785" lon="11.469735631483866"><ele>297.0</ele><time>2026-04-12T09:00:20Z</time></trkpt><trkpt lat="44.258441525254895" lon="11.469845572091874"><ele>297.0</ele><time>2026-04-12T09:00:47Z</time></trkpt><trkpt lat="44.25849802188593" lon="11.469893758264648"><ele>297.0</ele><time>2026-04-12T09:00:50Z</time></trkpt><trkpt lat="44.258581128305806" lon="11.469926961799276"><ele>297.0</ele><time>2026-04-12T09:01:19Z</time></trkpt><trkpt lat="44.25864057114265" lon="11.46989238441938"><ele>297.0</ele><time>2026-04-12T09:01:22Z</time></trkpt><trkpt lat="44.2585641954959" lon="11.469933042058065"><ele>297.0</ele><time>2026-04-12T09:02:02Z</time></trkpt><trkpt lat="44.258491201218" lon="11.469939359530624"><ele>297.0</ele><time>2026-04-12T09:02:44Z</time></trkpt><trkpt lat="44.25855839796718" lon="11.469919761156115"><ele>297.0</ele><time>2026-04-12T09:04:12Z</time></trkpt><trkpt lat="44.25862116988399" lon="11.469870736371936"><ele>297.0</ele><time>2026-04-12T09:04:51Z</time></trkpt><trkpt lat="44.25868910491762" lon="11.469860365291835"><ele>297.0</ele><time>2026-04-12T09:05:10Z</time></trkpt><trkpt lat="44.25873946863835" lon="11.469913943875897"><ele>297.0</ele><time>2026-04-12T09:05:20Z</time></trkpt><trkpt lat="44.2588088981965" lon="11.469921272810149"><ele>297.0</ele><time>2026-04-12T09:05:27Z</time></trkpt><trkpt lat="44.2587372128685" lon="11.469904129751104"><ele>297.0</ele><time>2026-04-12T09:06:15Z</time></trkpt><trkpt lat="44.25867851358501" lon="11.469862345550505"><ele>297.0</ele><time>2026-04-12T09:06:21Z</time></trkpt><trkpt lat="44.258732696918194" lon="11.469915098251313"><ele>297.0</ele><time>2026-04-12T09:06:50Z</time></trkpt><trkpt lat="44.25879650231267" lon="11.469933982635276"><ele>297.0</ele><time>2026-04-12T09:07:20Z</time></trkpt><trkpt lat="44.25874090252181" lon="11.469881699505295"><ele>297.0</ele><time>2026-04-12T09:08:00Z</time></trkpt><trkpt lat="44.25868132474599" lon="11.469844633935692"><ele>297.0</ele><time>2026-04-12T09:08:05Z</time></trkpt><trkpt lat="44.25875385932722" lon="11.46990940212533"><ele>297.0</ele><time>2026-04-12T09:08:20Z</time></trkpt><trkpt lat="44.25882415454227" lon="11.469973663553429"><ele>297.0</ele><time>2026-04-12T09:08:22Z</time></trkpt><trkpt lat="44.25888824585498" lon="11.470003500000354"><ele>297.0</ele><time>2026-04-12T09:08:24Z</time></trkpt><trkpt lat="44.258951809843104" lon="11.469959989004844"><ele>297.0</ele><time>2026-04-12T09:09:12Z</time></trkpt><trkpt lat="44.25900477305881" lon="11.469894312411679"><ele>297.0</ele><time>2026-04-12T09:09:44Z</time></trkpt><trkpt lat="44.259083648627715" lon="11.469900117195953"><ele>297.0</ele><time>2026-04-12T09:09:46Z</time></trkpt><trkpt lat="44.259153401065085" lon="11.469888964423596"><ele>297.0</ele><time>2026-04-12T09:09:47Z</time></trkpt><trkpt lat="44.25924052704683" lon="11.46989484604429"><ele>297.0</ele><time>2026-04-12T09:09:48Z</time></trkpt><trkpt lat="44.25933128409896" lon="11.469878212565636"><ele>297.0</ele><time>2026-04-12T09:09:49Z</time></trkpt><trkpt lat="44.25943721664492" lon="11.469868078614327"><ele>297.0</ele><time>2026-04-12T09:09:50Z</time></trkpt><trkpt lat="44.259518435347196" lon="11.46986413814982"><ele>297.0</ele><time>2026-04-12T09:09:51Z</time></trkpt><trkpt lat="44.25961338918292" lon="11.46987286854262"><ele>297.0</ele><time>2026-04-12T09:09:52Z</time></trkpt><trkpt lat="44.25969578513674" lon="11.469870409109149"><ele>297.0</ele><time>2026-04-12T09:09:53Z</time></trkpt><trkpt lat="44.259797384807854" lon="11.469912550588248"><ele>297.0</ele><time>2026-04-12T09:09:54Z</time></trkpt><trkpt lat="44.25992381278796" lon="11.469933931878119"><ele>297.0</ele><time>2026-04-12T09:09:55Z</time></trkpt><trkpt lat="44.26002962725436" lon="11.469982776975684"><ele>296.8333333333333</ele><time>2026-04-12T09:09:56Z</time></trkpt><trkpt lat="44.260123756919604" lon="11.470017504774239"><ele>296.6666666666667</ele><time>2026-04-12T09:09:57Z</time></trkpt><trkpt lat="44.260192173951545" lon="11.469990209251058"><ele>296.5</ele><time>2026-04-12T09:09:58Z</time></trkpt><trkpt lat="44.26026306203865" lon="11.47000147384327"><ele>296.33333333333337</ele><time>2026-04-12T09:09:59Z</time></trkpt><trkpt lat="44.26033093021011" lon="11.46999509630305"><ele>296.1666666666667</ele><time>2026-04-12T09:10:01Z</time></trkpt><trkpt lat="44.26041596717705" lon="11.469976894694238"><ele>296.0</ele><time>2026-04-12T09:10:04Z</time></trkpt><trkpt lat="44.26050068552948" lon="11.469954746871244"><ele>296.0</ele><time>2026-04-12T09:10:08Z</time></trkpt><trkpt lat="44.26056814427476" lon="11.469929790176867"><ele>296.0</ele><time>2026-04-12T09:10:13Z</time></trkpt><trkpt lat="44.26066588439257" lon="11.469896620735222"><ele>296.0</ele><time>2026-04-12T09:10:15Z</time></trkpt><trkpt lat="44.26074787071907" lon="11.469900680379357"><ele>296.0</ele><time>2026-04-12T09:10:17Z</time></trkpt><trkpt lat="44.26083262143473" lon="11.469930061747196"><ele>296.0</ele><time>2026-04-12T09:10:18Z</time></trkpt><trkpt lat="44.26090679089342" lon="11.469975460172426"><ele>296.0</ele><time>2026-04-12T09:10:19Z</time></trkpt><trkpt lat="44.26098040610846" lon="11.470034740762726"><ele>295.33333333333337</ele><time>2026-04-12T09:10:20Z</time></trkpt><trkpt lat="44.26104742300492" lon="11.470114947161177"><ele>294.6666666666667</ele><time>2026-04-12T09:10:21Z</time></trkpt><trkpt lat="44.261109011903194" lon="11.470181352400514"><ele>294.0</ele><time>2026-04-12T09:10:22Z</time></trkpt><trkpt lat="44.26117740829679" lon="11.470223744701435"><ele>293.3333333333333</ele><time>2026-04-12T09:10:23Z</time></trkpt><trkpt lat="44.26124538821379" lon="11.470235749973057"><ele>292.66666666666663</ele><time>2026-04-12T09:10:24Z</time></trkpt><trkpt lat="44.26135607360715" lon="11.470218600935178"><ele>292.0</ele><time>2026-04-12T09:10:25Z</time></trkpt><trkpt lat="44.26147042856774" lon="11.470214771025914"><ele>291.8</ele><time>2026-04-12T09:10:26Z</time></trkpt><trkpt lat="44.26159757744574" lon="11.47021383515525"><ele>291.6</ele><time>2026-04-12T09:10:27Z</time></trkpt><trkpt lat="44.261723462880944" lon="11.470221316247423"><ele>291.40000000000003</ele><time>2026-04-12T09:10:28Z</time></trkpt><trkpt lat="44.26181465291795" lon="11.470222988374548"><ele>291.2</ele><time>2026-04-12T09:10:29Z</time></trkpt><trkpt lat="44.26189224444882" lon="11.470239346683101"><ele>291.0</ele><time>2026-04-12T09:10:30Z</time></trkpt><trkpt lat="44.2619639762477" lon="11.470266108077565"><ele>291.0</ele><time>2026-04-12T09:10:31Z</time></trkpt><trkpt lat="44.26202729780785" lon="11.470311666879432"><ele>291.0</ele><time>2026-04-12T09:10:32Z</time></trkpt><trkpt lat="44.26210646858393" lon="11.470368785502226"><ele>291.0</ele><time>2026-04-12T09:10:33Z</time></trkpt><trkpt lat="44.262197962634716" lon="11.470413346128412"><ele>291.0</ele><time>2026-04-12T09:10:34Z</time></trkpt><trkpt lat="44.262303500976195" lon="11.470461515741965"><ele>291.0</ele><time>2026-04-12T09:10:35Z</time></trkpt><trkpt lat="44.26242515915871" lon="11.470513243968725"><ele>291.0</ele><time>2026-04-12T09:10:36Z</time></trkpt><trkpt lat="44.2625213769473" lon="11.470523584065276"><ele>291.0</ele><time>2026-04-12T09:10:37Z</time></trkpt><trkpt lat="44.2626094337132" lon="11.470532375226684"><ele>291.0</ele><time>2026-04-12T09:10:38Z</time></trkpt><trkpt lat="44.26268647335765" lon="11.470544745926325"><ele>291.0</ele><time>2026-04-12T09:10:39Z</time></trkpt><trkpt lat="44.26275572551737" lon="11.470551874308375"><ele>291.0</ele><time>2026-04-12T09:10:40Z</time></trkpt><trkpt lat="44.26283361954959" lon="11.470593697883793"><ele>291.0</ele><time>2026-04-12T09:10:41Z</time></trkpt><trkpt lat="44.26293068657209" lon="11.470625423493647"><ele>291.0</ele><time>2026-04-12T09:10:42Z</time></trkpt><trkpt lat="44.26303358495526" lon="11.470652826098561"><ele>291.0</ele><time>2026-04-12T09:10:43Z</time></trkpt><trkpt lat="44.26314813679998" lon="11.470691108106795"><ele>291.0</ele><time>2026-04-12T09:10:44Z</time></trkpt><trkpt lat="44.263254515122355" lon="11.470721626327036"><ele>291.0</ele><time>2026-04-12T09:10:45Z</time></trkpt><trkpt lat="44.26336463700789" lon="11.470747306609082"><ele>291.0</ele><time>2026-04-12T09:10:46Z</time></trkpt><trkpt lat="44.26344324488287" lon="11.470774050074917"><ele>290.85714285714283</ele><time>2026-04-12T09:10:47Z</time></trkpt><trkpt lat="44.2635171394957" lon="11.470812817279773"><ele>290.71428571428567</ele><time>2026-04-12T09:10:48Z</time></trkpt><trkpt lat="44.26358564832667" lon="11.470818983003449"><ele>290.57142857142856</ele><time>2026-04-12T09:10:49Z</time></trkpt><trkpt lat="44.26365953187412" lon="11.470839253982824"><ele>290.42857142857144</ele><time>2026-04-12T09:10:50Z</time></trkpt><trkpt lat="44.26372615459176" lon="11.470846309632707"><ele>290.28571428571433</ele><time>2026-04-12T09:10:51Z</time></trkpt><trkpt lat="44.26379288606586" lon="11.470854425874702"><ele>290.14285714285717</ele><time>2026-04-12T09:10:52Z</time></trkpt><trkpt lat="44.263856820072846" lon="11.470868371927862"><ele>290.0</ele><time>2026-04-12T09:10:53Z</time></trkpt><trkpt lat="44.263920939884194" lon="11.47087441820395"><ele>289.8</ele><time>2026-04-12T09:10:54Z</time></trkpt><trkpt lat="44.26401725687751" lon="11.470906254945021"><ele>289.6</ele><time>2026-04-12T09:10:56Z</time></trkpt><trkpt lat="44.26407585054282" lon="11.471014317094522"><ele>289.4</ele><time>2026-04-12T09:10:59Z</time></trkpt><trkpt lat="44.264086671939204" lon="11.471135382914834"><ele>289.2</ele><time>2026-04-12T09:11:01Z</time></trkpt><trkpt lat="44.264078546369234" lon="11.471258262947497"><ele>289.0</ele><time>2026-04-12T09:11:03Z</time></trkpt><trkpt lat="44.26410689953961" lon="11.471370226572745"><ele>289.59999999999997</ele><time>2026-04-12T09:11:05Z</time></trkpt><trkpt lat="44.264143962852934" lon="11.471474608227497"><ele>290.2</ele><time>2026-04-12T09:11:07Z</time></trkpt><trkpt lat="44.26419704966151" lon="11.471585091092996"><ele>290.79999999999995</ele><time>2026-04-12T09:11:09Z</time></trkpt><trkpt lat="44.26426087143219" lon="11.47175670060436"><ele>291.4</ele><time>2026-04-12T09:11:11Z</time></trkpt><trkpt lat="44.26429854899413" lon="11.471841933702816"><ele>292.0</ele><time>2026-04-12T09:11:12Z</time></trkpt><trkpt lat="44.26434391387093" lon="11.471925411352021"><ele>292.0</ele><time>2026-04-12T09:11:13Z</time></trkpt><trkpt lat="44.26443465710488" lon="11.47200185646123"><ele>292.0</ele><time>2026-04-12T09:11:14Z</time></trkpt><trkpt lat="44.26453676660927" lon="11.472091257785575"><ele>292.0</ele><time>2026-04-12T09:11:15Z</time></trkpt><trkpt lat="44.264632901808895" lon="11.472176720040492"><ele>292.0</ele><time>2026-04-12T09:11:16Z</time></trkpt><trkpt lat="44.26473178462829" lon="11.472263717670462"><ele>294.2</ele><time>2026-04-12T09:11:17Z</time></trkpt><trkpt lat="44.26484575720722" lon="11.472368951185413"><ele>296.4</ele><time>2026-04-12T09:11:18Z</time></trkpt><trkpt lat="44.26496857023796" lon="11.472474000350681"><ele>298.6</ele><time>2026-04-12T09:11:19Z</time></trkpt><trkpt lat="44.26504327129843" lon="11.472540241652267"><ele>300.8</ele><time>2026-04-12T09:11:20Z</time></trkpt><trkpt lat="44.26510305005984" lon="11.472592146804372"><ele>303.0</ele><time>2026-04-12T09:11:21Z</time></trkpt><trkpt lat="44.26516864165271" lon="11.472676666660579"><ele>303.0</ele><time>2026-04-12T09:11:23Z</time></trkpt><trkpt lat="44.26522870666259" lon="11.47273803634808"><ele>303.0</ele><time>2026-04-12T09:11:26Z</time></trkpt><trkpt lat="44.26530824939082" lon="11.472710530176974"><ele>303.0</ele><time>2026-04-12T09:11:28Z</time></trkpt><trkpt lat="44.26536927996404" lon="11.472680784537062"><ele>303.0</ele><time>2026-04-12T09:11:29Z</time></trkpt><trkpt lat="44.26543175089554" lon="11.472641076919647"><ele>303.0</ele><time>2026-04-12T09:11:30Z</time></trkpt><trkpt lat="44.26549397508937" lon="11.472583801755231"><ele>303.0</ele><time>2026-04-12T09:11:31Z</time></trkpt><trkpt lat="44.265562112465965" lon="11.472506628897051"><ele>304.0</ele><time>2026-04-12T09:11:32Z</time></trkpt><trkpt lat="44.26563740451257" lon="11.472460345856426"><ele>305.0</ele><time>2026-04-12T09:11:33Z</time></trkpt><trkpt lat="44.26573171922832" lon="11.47240897585699"><ele>306.0</ele><time>2026-04-12T09:11:34Z</time></trkpt><trkpt lat="44.26581340997097" lon="11.472372933215858"><ele>307.0</ele><time>2026-04-12T09:11:35Z</time></trkpt><trkpt lat="44.265894127706304" lon="11.472332360432144"><ele>308.0</ele><time>2026-04-12T09:11:36Z</time></trkpt><trkpt lat="44.26602368385552" lon="11.472270521727557"><ele>308.0</ele><time>2026-04-12T09:11:38Z</time></trkpt><trkpt lat="44.26608735084194" lon="11.472242564359023"><ele>308.0</ele><time>2026-04-12T09:11:39Z</time></trkpt><trkpt lat="44.266151170831684" lon="11.47221476935099"><ele>308.0</ele><time>2026-04-12T09:11:40Z</time></trkpt><trkpt lat="44.26625958572744" lon="11.472152037369147"><ele>308.0</ele><time>2026-04-12T09:11:42Z</time></trkpt><trkpt lat="44.266369101965" lon="11.472093672184743"><ele>308.0</ele><time>2026-04-12T09:11:44Z</time></trkpt><trkpt lat="44.266431512831126" lon="11.472082141984876"><ele>308.0</ele><time>2026-04-12T09:11:45Z</time></trkpt><trkpt lat="44.26654662961056" lon="11.47201647987641"><ele>306.2</ele><time>2026-04-12T09:11:47Z</time></trkpt><trkpt lat="44.26666106840316" lon="11.471939288359364"><ele>304.4</ele><time>2026-04-12T09:11:49Z</time></trkpt><trkpt lat="44.266768064186344" lon="11.471828765082545"><ele>302.59999999999997</ele><time>2026-04-12T09:11:51Z</time></trkpt><trkpt lat="44.2668281610643" lon="11.471740704594088"><ele>300.8</ele><time>2026-04-12T09:11:52Z</time></trkpt><trkpt lat="44.26689944672982" lon="11.471653447982554"><ele>299.0</ele><time>2026-04-12T09:11:53Z</time></trkpt><trkpt lat="44.266971137565434" lon="11.47155553674516"><ele>299.0</ele><time>2026-04-12T09:11:54Z</time></trkpt><trkpt lat="44.26702827973454" lon="11.471440612452081"><ele>299.0</ele><time>2026-04-12T09:11:55Z</time></trkpt><trkpt lat="44.26708156098548" lon="11.471348349190652"><ele>299.0</ele><time>2026-04-12T09:11:56Z</time></trkpt><trkpt lat="44.26714422384457" lon="11.471281125311032"><ele>299.0</ele><time>2026-04-12T09:11:57Z</time></trkpt><trkpt lat="44.267194914699914" lon="11.47120834636016"><ele>299.0</ele><time>2026-04-12T09:11:58Z</time></trkpt><trkpt lat="44.26724767575882" lon="11.471121026521152"><ele>299.0</ele><time>2026-04-12T09:11:59Z</time></trkpt><trkpt lat="44.26729612863734" lon="11.47105203253628"><ele>298.6666666666667</ele><time>2026-04-12T09:12:00Z</time></trkpt><trkpt lat="44.267346435000846" lon="11.470978070764652"><ele>298.33333333333337</ele><time>2026-04-12T09:12:01Z</time></trkpt><trkpt lat="44.26740150108378" lon="11.470912737657658"><ele>298.0</ele><time>2026-04-12T09:12:02Z</time></trkpt><trkpt lat="44.26744786419276" lon="11.470840246802982"><ele>297.6666666666667</ele><time>2026-04-12T09:12:03Z</time></trkpt><trkpt lat="44.267498213751416" lon="11.470735461534387"><ele>297.3333333333333</ele><time>2026-04-12T09:12:04Z</time></trkpt><trkpt lat="44.267563487409284" lon="11.470655298703917"><ele>297.0</ele><time>2026-04-12T09:12:05Z</time></trkpt><trkpt lat="44.26762647296963" lon="11.470565460010476"><ele>297.0</ele><time>2026-04-12T09:12:06Z</time></trkpt><trkpt lat="44.26769117665954" lon="11.47046469968691"><ele>297.0</ele><time>2026-04-12T09:12:07Z</time></trkpt><trkpt lat="44.267740696349506" lon="11.470371677230926"><ele>297.0</ele><time>2026-04-12T09:12:08Z</time></trkpt><trkpt lat="44.26778424388111" lon="11.470261865046236"><ele>297.0</ele><time>2026-04-12T09:12:09Z</time></trkpt><trkpt lat="44.26782853148951" lon="11.47017000042487"><ele>297.0</ele><time>2026-04-12T09:12:10Z</time></trkpt><trkpt lat="44.26787029512361" lon="11.470081727905658"><ele>297.0</ele><time>2026-04-12T09:12:11Z</time></trkpt><trkpt lat="44.26790479274887" lon="11.469982414994627"><ele>295.2</ele><time>2026-04-12T09:12:12Z</time></trkpt><trkpt lat="44.26794080965432" lon="11.469882732496815"><ele>293.4</ele><time>2026-04-12T09:12:13Z</time></trkpt><trkpt lat="44.26797947836828" lon="11.46977692862804"><ele>291.6</ele><time>2026-04-12T09:12:14Z</time></trkpt><trkpt lat="44.26801905825178" lon="11.469661438215404"><ele>289.8</ele><time>2026-04-12T09:12:15Z</time></trkpt><trkpt lat="44.26806125678749" lon="11.46953950080325"><ele>288.0</ele><time>2026-04-12T09:12:16Z</time></trkpt><trkpt lat="44.26810476604606" lon="11.469415180969836"><ele>290.0</ele><time>2026-04-12T09:12:17Z</time></trkpt><trkpt lat="44.26814677715479" lon="11.469298439766424"><ele>292.0</ele><time>2026-04-12T09:12:18Z</time></trkpt><trkpt lat="44.26819486916185" lon="11.469182842578515"><ele>294.0</ele><time>2026-04-12T09:12:19Z</time></trkpt><trkpt lat="44.26825194208134" lon="11.469061517371346"><ele>296.0</ele><time>2026-04-12T09:12:20Z</time></trkpt><trkpt lat="44.26830707832348" lon="11.468925415840049"><ele>298.0</ele><time>2026-04-12T09:12:21Z</time></trkpt><trkpt lat="44.26836673554339" lon="11.468786673524237"><ele>296.25</ele><time>2026-04-12T09:12:22Z</time></trkpt><trkpt lat="44.26842935605115" lon="11.4686316735516"><ele>294.5</ele><time>2026-04-12T09:12:23Z</time></trkpt><trkpt lat="44.2684860887338" lon="11.468488987070582"><ele>292.75</ele><time>2026-04-12T09:12:24Z</time></trkpt><trkpt lat="44.26853404204711" lon="11.46833833050372"><ele>291.0</ele><time>2026-04-12T09:12:25Z</time></trkpt><trkpt lat="44.26858590771383" lon="11.468167739580748"><ele>291.0</ele><time>2026-04-12T09:12:26Z</time></trkpt><trkpt lat="44.26863791311897" lon="11.468008928826075"><ele>291.0</ele><time>2026-04-12T09:12:27Z</time></trkpt><trkpt lat="44.2686702943848" lon="11.467837463357121"><ele>291.0</ele><time>2026-04-12T09:12:28Z</time></trkpt><trkpt lat="44.26868928463514" lon="11.467681243695438"><ele>291.0</ele><time>2026-04-12T09:12:29Z</time></trkpt><trkpt lat="44.268715046439134" lon="11.467519632643924"><ele>290.2</ele><time>2026-04-12T09:12:30Z</time></trkpt><trkpt lat="44.26871361708532" lon="11.467360786693526"><ele>289.40000000000003</ele><time>2026-04-12T09:12:31Z</time></trkpt><trkpt lat="44.26871875390797" lon="11.46721051344224"><ele>288.6</ele><time>2026-04-12T09:12:32Z</time></trkpt><trkpt lat="44.268739424479584" lon="11.467074532746897"><ele>287.8</ele><time>2026-04-12T09:12:33Z</time></trkpt><trkpt lat="44.26880864255986" lon="11.466955153030684"><ele>287.0</ele><time>2026-04-12T09:12:34Z</time></trkpt><trkpt lat="44.26888539036227" lon="11.466844772528326"><ele>290.33333333333337</ele><time>2026-04-12T09:12:35Z</time></trkpt><trkpt lat="44.26899017797487" lon="11.466718625567681"><ele>293.6666666666667</ele><time>2026-04-12T09:12:36Z</time></trkpt><trkpt lat="44.26909908542634" lon="11.466559826041237"><ele>297.0</ele><time>2026-04-12T09:12:37Z</time></trkpt><trkpt lat="44.26918644133383" lon="11.466356365824995"><ele>294.25</ele><time>2026-04-12T09:12:38Z</time></trkpt><trkpt lat="44.26927556273509" lon="11.46619514628078"><ele>291.5</ele><time>2026-04-12T09:12:39Z</time></trkpt><trkpt lat="44.26934845774766" lon="11.466048650480683"><ele>288.75</ele><time>2026-04-12T09:12:40Z</time></trkpt><trkpt lat="44.2694171411973" lon="11.46590066854389"><ele>286.0</ele><time>2026-04-12T09:12:41Z</time></trkpt><trkpt lat="44.26949055036625" lon="11.46576182886957"><ele>286.0</ele><time>2026-04-12T09:12:42Z</time></trkpt><trkpt lat="44.26956226641426" lon="11.465619880045741"><ele>286.0</ele><time>2026-04-12T09:12:43Z</time></trkpt><trkpt lat="44.269633875143214" lon="11.465477176972813"><ele>286.0</ele><time>2026-04-12T09:12:44Z</time></trkpt><trkpt lat="44.269709087421504" lon="11.465326436758636"><ele>286.0</ele><time>2026-04-12T09:12:45Z</time></trkpt><trkpt lat="44.26976724384798" lon="11.465201363508202"><ele>286.0</ele><time>2026-04-12T09:12:46Z</time></trkpt><trkpt lat="44.26981783207292" lon="11.465062041167004"><ele>286.0</ele><time>2026-04-12T09:12:47Z</time></trkpt><trkpt lat="44.26981203843023" lon="11.464878323727133"><ele>286.0</ele><time>2026-04-12T09:12:48Z</time></trkpt><trkpt lat="44.269800778656936" lon="11.464716313169209"><ele>286.0</ele><time>2026-04-12T09:12:49Z</time></trkpt><trkpt lat="44.2697879460614" lon="11.464586942163749"><ele>286.0</ele><time>2026-04-12T09:12:50Z</time></trkpt><trkpt lat="44.26976829918271" lon="11.464462496432652"><ele>286.0</ele><time>2026-04-12T09:12:51Z</time></trkpt><trkpt lat="44.26975899905655" lon="11.464340990299211"><ele>286.0</ele><time>2026-04-12T09:12:52Z</time></trkpt><trkpt lat="44.26977212501464" lon="11.46423488199912"><ele>286.0</ele><time>2026-04-12T09:12:53Z</time></trkpt><trkpt lat="44.269806344276894" lon="11.464118489578569"><ele>286.0</ele><time>2026-04-12T09:12:54Z</time></trkpt><trkpt lat="44.269854998362774" lon="11.463997299910595"><ele>286.0</ele><time>2026-04-12T09:12:55Z</time></trkpt><trkpt lat="44.2699111700401" lon="11.463885345936282"><ele>286.5</ele><time>2026-04-12T09:12:56Z</time></trkpt><trkpt lat="44.269970402119554" lon="11.463788927189599"><ele>287.0</ele><time>2026-04-12T09:12:57Z</time></trkpt><trkpt lat="44.270020074883305" lon="11.463688815190771"><ele>287.5</ele><time>2026-04-12T09:12:58Z</time></trkpt><trkpt lat="44.27005884228859" lon="11.463585593075818"><ele>288.0</ele><time>2026-04-12T09:12:59Z</time></trkpt><trkpt lat="44.270091215684545" lon="11.463477952276135"><ele>288.5</ele><time>2026-04-12T09:13:00Z</time></trkpt><trkpt lat="44.270118548773496" lon="11.463373074544775"><ele>289.0</ele><time>2026-04-12T09:13:01Z</time></trkpt><trkpt lat="44.27014814198363" lon="11.463278593698924"><ele>289.0</ele><time>2026-04-12T09:13:02Z</time></trkpt><trkpt lat="44.27017119920331" lon="11.463176732227257"><ele>289.0</ele><time>2026-04-12T09:13:03Z</time></trkpt><trkpt lat="44.27018310170713" lon="11.463048907000433"><ele>289.0</ele><time>2026-04-12T09:13:04Z</time></trkpt><trkpt lat="44.270173463296004" lon="11.46291029010398"><ele>289.0</ele><time>2026-04-12T09:13:05Z</time></trkpt><trkpt lat="44.27014324219946" lon="11.462752958092759"><ele>289.0</ele><time>2026-04-12T09:13:06Z</time></trkpt><trkpt lat="44.27009167503894" lon="11.462611676642338"><ele>289.8</ele><time>2026-04-12T09:13:07Z</time></trkpt><trkpt lat="44.27004654693835" lon="11.46248687694211"><ele>290.59999999999997</ele><time>2026-04-12T09:13:08Z</time></trkpt><trkpt lat="44.270039441897566" lon="11.46236984073151"><ele>291.4</ele><time>2026-04-12T09:13:09Z</time></trkpt><trkpt lat="44.270060369987846" lon="11.462221577254"><ele>292.2</ele><time>2026-04-12T09:13:10Z</time></trkpt><trkpt lat="44.27011053986661" lon="11.462076758910236"><ele>293.0</ele><time>2026-04-12T09:13:11Z</time></trkpt><trkpt lat="44.27017639971308" lon="11.461921861737466"><ele>294.5</ele><time>2026-04-12T09:13:12Z</time></trkpt><trkpt lat="44.27026818526942" lon="11.461800180555906"><ele>296.0</ele><time>2026-04-12T09:13:13Z</time></trkpt><trkpt lat="44.27035105787254" lon="11.461662086443928"><ele>297.5</ele><time>2026-04-12T09:13:14Z</time></trkpt><trkpt lat="44.27044896350821" lon="11.461518576862408"><ele>299.0</ele><time>2026-04-12T09:13:15Z</time></trkpt><trkpt lat="44.27054047280066" lon="11.46139080185066"><ele>297.0</ele><time>2026-04-12T09:13:16Z</time></trkpt><trkpt lat="44.2706376686757" lon="11.461224691390038"><ele>295.0</ele><time>2026-04-12T09:13:17Z</time></trkpt><trkpt lat="44.27072342493263" lon="11.46107301011245"><ele>293.0</ele><time>2026-04-12T09:13:18Z</time></trkpt><trkpt lat="44.27081702131257" lon="11.460906781331587"><ele>291.0</ele><time>2026-04-12T09:13:19Z</time></trkpt><trkpt lat="44.27091353716114" lon="11.460738688419854"><ele>291.0</ele><time>2026-04-12T09:13:20Z</time></trkpt><trkpt lat="44.271003367199725" lon="11.460558084750366"><ele>291.0</ele><time>2026-04-12T09:13:21Z</time></trkpt><trkpt lat="44.27109800089116" lon="11.460393438968408"><ele>291.0</ele><time>2026-04-12T09:13:22Z</time></trkpt><trkpt lat="44.27120067948583" lon="11.46023480338965"><ele>289.5</ele><time>2026-04-12T09:13:23Z</time></trkpt><trkpt lat="44.271298596339435" lon="11.460082964216895"><ele>288.0</ele><time>2026-04-12T09:13:24Z</time></trkpt><trkpt lat="44.27140091209074" lon="11.459956088894453"><ele>286.5</ele><time>2026-04-12T09:13:25Z</time></trkpt><trkpt lat="44.27147011484544" lon="11.459781273436262"><ele>285.0</ele><time>2026-04-12T09:13:26Z</time></trkpt><trkpt lat="44.271531250894135" lon="11.459603382016777"><ele>285.0</ele><time>2026-04-12T09:13:27Z</time></trkpt><trkpt lat="44.2715686094331" lon="11.459409470895212"><ele>285.0</ele><time>2026-04-12T09:13:28Z</time></trkpt><trkpt lat="44.27160887571781" lon="11.459222364335979"><ele>285.0</ele><time>2026-04-12T09:13:29Z</time></trkpt><trkpt lat="44.271652645742094" lon="11.45903285247698"><ele>285.0</ele><time>2026-04-12T09:13:30Z</time></trkpt><trkpt lat="44.27170726935209" lon="11.458854926366495"><ele>286.25</ele><time>2026-04-12T09:13:31Z</time></trkpt><trkpt lat="44.27175941486373" lon="11.458710039878929"><ele>287.5</ele><time>2026-04-12T09:13:32Z</time></trkpt><trkpt lat="44.27182592108696" lon="11.458557780692944"><ele>288.75</ele><time>2026-04-12T09:13:33Z</time></trkpt><trkpt lat="44.27190192066134" lon="11.458430308369561"><ele>290.0</ele><time>2026-04-12T09:13:34Z</time></trkpt><trkpt lat="44.271991315546146" lon="11.458311419544223"><ele>290.0</ele><time>2026-04-12T09:13:35Z</time></trkpt><trkpt lat="44.272107544110014" lon="11.458219231918886"><ele>290.0</ele><time>2026-04-12T09:13:36Z</time></trkpt><trkpt lat="44.272235956410725" lon="11.45814916335539"><ele>290.0</ele><time>2026-04-12T09:13:37Z</time></trkpt><trkpt lat="44.272361656364176" lon="11.458088120663094"><ele>290.0</ele><time>2026-04-12T09:13:38Z</time></trkpt><trkpt lat="44.27248101859738" lon="11.45802622149263"><ele>290.5</ele><time>2026-04-12T09:13:39Z</time></trkpt><trkpt lat="44.27259108123157" lon="11.457930316526593"><ele>291.0</ele><time>2026-04-12T09:13:40Z</time></trkpt><trkpt lat="44.27268193935243" lon="11.457792038850258"><ele>291.5</ele><time>2026-04-12T09:13:41Z</time></trkpt><trkpt lat="44.27276443204674" lon="11.457664366122534"><ele>292.0</ele><time>2026-04-12T09:13:42Z</time></trkpt><trkpt lat="44.272831219557546" lon="11.45753250161349"><ele>292.0</ele><time>2026-04-12T09:13:43Z</time></trkpt><trkpt lat="44.27290280700063" lon="11.457426386355916"><ele>292.0</ele><time>2026-04-12T09:13:44Z</time></trkpt><trkpt lat="44.27298101731582" lon="11.457350302103603"><ele>292.0</ele><time>2026-04-12T09:13:45Z</time></trkpt><trkpt lat="44.27307761262554" lon="11.457319043757021"><ele>292.0</ele><time>2026-04-12T09:13:46Z</time></trkpt><trkpt lat="44.27318486630547" lon="11.457330341886042"><ele>292.0</ele><time>2026-04-12T09:13:47Z</time></trkpt><trkpt lat="44.27329119167027" lon="11.457378742684071"><ele>291.16666666666663</ele><time>2026-04-12T09:13:48Z</time></trkpt><trkpt lat="44.27337983226279" lon="11.45743502959242"><ele>290.3333333333333</ele><time>2026-04-12T09:13:49Z</time></trkpt><trkpt lat="44.273454053297606" lon="11.457480129552858"><ele>289.5</ele><time>2026-04-12T09:13:50Z</time></trkpt><trkpt lat="44.273523917037494" lon="11.457521207705073"><ele>288.6666666666667</ele><time>2026-04-12T09:13:51Z</time></trkpt><trkpt lat="44.273597344283566" lon="11.45755992164814"><ele>287.83333333333337</ele><time>2026-04-12T09:13:52Z</time></trkpt><trkpt lat="44.273676040786846" lon="11.457601929703037"><ele>287.0</ele><time>2026-04-12T09:13:53Z</time></trkpt><trkpt lat="44.273797405681066" lon="11.457633067023519"><ele>287.0</ele><time>2026-04-12T09:13:55Z</time></trkpt><trkpt lat="44.273854903144176" lon="11.457549585428943"><ele>287.0</ele><time>2026-04-12T09:13:57Z</time></trkpt><trkpt lat="44.27383246826993" lon="11.457424860985887"><ele>287.0</ele><time>2026-04-12T09:13:59Z</time></trkpt><trkpt lat="44.273705638101255" lon="11.457384067775322"><ele>287.0</ele><time>2026-04-12T09:14:01Z</time></trkpt><trkpt lat="44.27360499307172" lon="11.457375325015338"><ele>287.0</ele><time>2026-04-12T09:14:02Z</time></trkpt><trkpt lat="44.2735433815113" lon="11.457328657718236"><ele>287.0</ele><time>2026-04-12T09:14:03Z</time></trkpt><trkpt lat="44.27353287300314" lon="11.457187567568212"><ele>287.0</ele><time>2026-04-12T09:14:05Z</time></trkpt><trkpt lat="44.273567924914374" lon="11.45711273903653"><ele>287.0</ele><time>2026-04-12T09:14:06Z</time></trkpt><trkpt lat="44.273639561983835" lon="11.457070643887539"><ele>287.0</ele><time>2026-04-12T09:14:07Z</time></trkpt><trkpt lat="44.27373718511809" lon="11.457044827539816"><ele>287.0</ele><time>2026-04-12T09:14:08Z</time></trkpt><trkpt lat="44.273817752513864" lon="11.456982516603029"><ele>287.0</ele><time>2026-04-12T09:14:09Z</time></trkpt><trkpt lat="44.27386065408351" lon="11.456862561017784"><ele>288.8</ele><time>2026-04-12T09:14:10Z</time></trkpt><trkpt lat="44.273879019130746" lon="11.45672726130049"><ele>290.6</ele><time>2026-04-12T09:14:11Z</time></trkpt><trkpt lat="44.27390530200884" lon="11.456645157578134"><ele>292.40000000000003</ele><time>2026-04-12T09:14:12Z</time></trkpt><trkpt lat="44.27394275881781" lon="11.45650659798033"><ele>294.2</ele><time>2026-04-12T09:14:13Z</time></trkpt><trkpt lat="44.27398700525774" lon="11.456378851035625"><ele>296.0</ele><time>2026-04-12T09:14:14Z</time></trkpt><trkpt lat="44.274040804720485" lon="11.456274315306809"><ele>298.40000000000003</ele><time>2026-04-12T09:14:15Z</time></trkpt><trkpt lat="44.27410700537809" lon="11.456222668812773"><ele>300.8</ele><time>2026-04-12T09:14:16Z</time></trkpt><trkpt lat="44.27418732734071" lon="11.456194576024647"><ele>303.20000000000005</ele><time>2026-04-12T09:14:17Z</time></trkpt><trkpt lat="44.274283754786026" lon="11.456218832670535"><ele>305.6</ele><time>2026-04-12T09:14:18Z</time></trkpt><trkpt lat="44.274388393420345" lon="11.45626247560341"><ele>308.0</ele><time>2026-04-12T09:14:19Z</time></trkpt><trkpt lat="44.274499755117276" lon="11.456281811348285"><ele>308.0</ele><time>2026-04-12T09:14:20Z</time></trkpt><trkpt lat="44.27459554182919" lon="11.456285635574307"><ele>308.0</ele><time>2026-04-12T09:14:21Z</time></trkpt><trkpt lat="44.274658821460676" lon="11.456266854303845"><ele>308.0</ele><time>2026-04-12T09:14:22Z</time></trkpt><trkpt lat="44.27475341055049" lon="11.456256154112614"><ele>308.0</ele><time>2026-04-12T09:14:24Z</time></trkpt><trkpt lat="44.27485702119894" lon="11.456254100854753"><ele>308.0</ele><time>2026-04-12T09:14:26Z</time></trkpt><trkpt lat="44.27494669313859" lon="11.456235238039728"><ele>309.0</ele><time>2026-04-12T09:14:28Z</time></trkpt><trkpt lat="44.275026788641995" lon="11.45618182219539"><ele>310.0</ele><time>2026-04-12T09:14:30Z</time></trkpt><trkpt lat="44.27504034648385" lon="11.456094107157629"><ele>311.0</ele><time>2026-04-12T09:14:31Z</time></trkpt><trkpt lat="44.275018224583526" lon="11.456007015701658"><ele>312.0</ele><time>2026-04-12T09:14:32Z</time></trkpt><trkpt lat="44.27496662804393" lon="11.455940885132396"><ele>313.0</ele><time>2026-04-12T09:14:33Z</time></trkpt><trkpt lat="44.27489206724379" lon="11.455884226601766"><ele>314.0</ele><time>2026-04-12T09:14:34Z</time></trkpt><trkpt lat="44.27478799288477" lon="11.455798682958111"><ele>314.4</ele><time>2026-04-12T09:14:35Z</time></trkpt><trkpt lat="44.274706610388506" lon="11.455713608108582"><ele>314.79999999999995</ele><time>2026-04-12T09:14:36Z</time></trkpt><trkpt lat="44.2746376186264" lon="11.455614370220875"><ele>315.20000000000005</ele><time>2026-04-12T09:14:37Z</time></trkpt><trkpt lat="44.274574366282174" lon="11.455544988502751"><ele>315.6</ele><time>2026-04-12T09:14:38Z</time></trkpt><trkpt lat="44.274512090899236" lon="11.455472296047704"><ele>316.0</ele><time>2026-04-12T09:14:39Z</time></trkpt><trkpt lat="44.27444254086127" lon="11.455383976546557"><ele>316.0</ele><time>2026-04-12T09:14:40Z</time></trkpt><trkpt lat="44.274376122442234" lon="11.455274612919178"><ele>316.0</ele><time>2026-04-12T09:14:41Z</time></trkpt><trkpt lat="44.274330105883195" lon="11.455128572046139"><ele>316.0</ele><time>2026-04-12T09:14:42Z</time></trkpt><trkpt lat="44.274279825927216" lon="11.455001864159925"><ele>316.0</ele><time>2026-04-12T09:14:43Z</time></trkpt><trkpt lat="44.274228725204225" lon="11.45487308987379"><ele>316.0</ele><time>2026-04-12T09:14:44Z</time></trkpt><trkpt lat="44.27416155247296" lon="11.45474607303649"><ele>317.75</ele><time>2026-04-12T09:14:45Z</time></trkpt><trkpt lat="44.274107549859714" lon="11.454604919067005"><ele>319.5</ele><time>2026-04-12T09:14:46Z</time></trkpt><trkpt lat="44.27404935090659" lon="11.454462340886685"><ele>321.25</ele><time>2026-04-12T09:14:47Z</time></trkpt><trkpt lat="44.27399115059737" lon="11.454312030114252"><ele>323.0</ele><time>2026-04-12T09:14:48Z</time></trkpt><trkpt lat="44.273931136471745" lon="11.454158938381253"><ele>323.75</ele><time>2026-04-12T09:14:49Z</time></trkpt><trkpt lat="44.27387024294664" lon="11.45400610061618"><ele>324.5</ele><time>2026-04-12T09:14:50Z</time></trkpt><trkpt lat="44.27381290256289" lon="11.453858998631821"><ele>325.25</ele><time>2026-04-12T09:14:51Z</time></trkpt><trkpt lat="44.27375367423244" lon="11.453714841892937"><ele>326.0</ele><time>2026-04-12T09:14:52Z</time></trkpt><trkpt lat="44.27369657635092" lon="11.45358003156893"><ele>328.25</ele><time>2026-04-12T09:14:53Z</time></trkpt><trkpt lat="44.27364226213661" lon="11.453443350561857"><ele>330.5</ele><time>2026-04-12T09:14:54Z</time></trkpt><trkpt lat="44.27359294737475" lon="11.453301239072392"><ele>332.75</ele><time>2026-04-12T09:14:55Z</time></trkpt><trkpt lat="44.27354999071111" lon="11.453155009362552"><ele>335.0</ele><time>2026-04-12T09:14:56Z</time></trkpt><trkpt lat="44.27350586165967" lon="11.452998262881444"><ele>337.25</ele><time>2026-04-12T09:14:57Z</time></trkpt><trkpt lat="44.27348002721485" lon="11.452820400648688"><ele>339.5</ele><time>2026-04-12T09:14:58Z</time></trkpt><trkpt lat="44.273465018650725" lon="11.452626470976387"><ele>341.75</ele><time>2026-04-12T09:14:59Z</time></trkpt><trkpt lat="44.27346513488975" lon="11.452440958137055"><ele>344.0</ele><time>2026-04-12T09:15:00Z</time></trkpt><trkpt lat="44.27345546123852" lon="11.452248210680652"><ele>345.5</ele><time>2026-04-12T09:15:01Z</time></trkpt><trkpt lat="44.273428663531035" lon="11.452053915828628"><ele>347.0</ele><time>2026-04-12T09:15:02Z</time></trkpt><trkpt lat="44.273399860673074" lon="11.451871813143862"><ele>348.5</ele><time>2026-04-12T09:15:03Z</time></trkpt><trkpt lat="44.27336587993341" lon="11.45170172930346"><ele>350.0</ele><time>2026-04-12T09:15:04Z</time></trkpt><trkpt lat="44.273343797664126" lon="11.451540328864262"><ele>350.0</ele><time>2026-04-12T09:15:05Z</time></trkpt><trkpt lat="44.273318631210984" lon="11.451383310030664"><ele>350.0</ele><time>2026-04-12T09:15:06Z</time></trkpt><trkpt lat="44.27330342698536" lon="11.45125059044443"><ele>350.0</ele><time>2026-04-12T09:15:07Z</time></trkpt><trkpt lat="44.27330216999367" lon="11.451124832903167"><ele>350.0</ele><time>2026-04-12T09:15:08Z</time></trkpt><trkpt lat="44.27332993346747" lon="11.450996177726925"><ele>350.0</ele><time>2026-04-12T09:15:09Z</time></trkpt><trkpt lat="44.27338984831677" lon="11.450884358970196"><ele>351.5</ele><time>2026-04-12T09:15:10Z</time></trkpt><trkpt lat="44.2734914547434" lon="11.45080916065087"><ele>353.0</ele><time>2026-04-12T09:15:11Z</time></trkpt><trkpt lat="44.27357130347082" lon="11.450700815359419"><ele>354.5</ele><time>2026-04-12T09:15:12Z</time></trkpt><trkpt lat="44.273642161230335" lon="11.45056343244123"><ele>356.0</ele><time>2026-04-12T09:15:13Z</time></trkpt><trkpt lat="44.27368294248472" lon="11.450387787186965"><ele>356.4</ele><time>2026-04-12T09:15:14Z</time></trkpt><trkpt lat="44.27370945890674" lon="11.450226693146355"><ele>356.8</ele><time>2026-04-12T09:15:15Z</time></trkpt><trkpt lat="44.273753661698" lon="11.450091915482945"><ele>357.2</ele><time>2026-04-12T09:15:16Z</time></trkpt><trkpt lat="44.27383598788934" lon="11.450000970842394"><ele>357.59999999999997</ele><time>2026-04-12T09:15:17Z</time></trkpt><trkpt lat="44.273934685674426" lon="11.449933709286414"><ele>358.0</ele><time>2026-04-12T09:15:18Z</time></trkpt><trkpt lat="44.27400746268967" lon="11.449846303190633"><ele>358.0</ele><time>2026-04-12T09:15:19Z</time></trkpt><trkpt lat="44.27405938279791" lon="11.449785666709301"><ele>358.0</ele><time>2026-04-12T09:15:20Z</time></trkpt><trkpt lat="44.27403243060178" lon="11.449621016895255"><ele>358.0</ele><time>2026-04-12T09:15:22Z</time></trkpt><trkpt lat="44.27397486706781" lon="11.44957738958996"><ele>358.0</ele><time>2026-04-12T09:15:23Z</time></trkpt><trkpt lat="44.27379345368075" lon="11.449573339339873"><ele>358.0</ele><time>2026-04-12T09:15:25Z</time></trkpt><trkpt lat="44.273693755495934" lon="11.449594613154078"><ele>359.79999999999995</ele><time>2026-04-12T09:15:26Z</time></trkpt><trkpt lat="44.273588026976654" lon="11.449609802532823"><ele>361.6</ele><time>2026-04-12T09:15:27Z</time></trkpt><trkpt lat="44.273476616598124" lon="11.449618759582046"><ele>363.4</ele><time>2026-04-12T09:15:28Z</time></trkpt><trkpt lat="44.273362583290194" lon="11.449608357146257"><ele>365.20000000000005</ele><time>2026-04-12T09:15:29Z</time></trkpt><trkpt lat="44.27325727072263" lon="11.449623060504656"><ele>367.0</ele><time>2026-04-12T09:15:30Z</time></trkpt><trkpt lat="44.273162632796065" lon="11.449670694674058"><ele>369.40000000000003</ele><time>2026-04-12T09:15:31Z</time></trkpt><trkpt lat="44.27307320833931" lon="11.449694895355051"><ele>371.8</ele><time>2026-04-12T09:15:32Z</time></trkpt><trkpt lat="44.27298363329385" lon="11.44972114182569"><ele>374.2</ele><time>2026-04-12T09:15:33Z</time></trkpt><trkpt lat="44.27289931757491" lon="11.449718259007406"><ele>376.6</ele><time>2026-04-12T09:15:34Z</time></trkpt><trkpt lat="44.27280301619643" lon="11.449678482842888"><ele>379.0</ele><time>2026-04-12T09:15:35Z</time></trkpt><trkpt lat="44.27271737238564" lon="11.449634386312063"><ele>380.16666666666663</ele><time>2026-04-12T09:15:36Z</time></trkpt><trkpt lat="44.27264671275125" lon="11.449572793341083"><ele>381.3333333333333</ele><time>2026-04-12T09:15:37Z</time></trkpt><trkpt lat="44.27259604036579" lon="11.449492486813655"><ele>382.5</ele><time>2026-04-12T09:15:38Z</time></trkpt><trkpt lat="44.27255364415627" lon="11.449394995588426"><ele>383.66666666666663</ele><time>2026-04-12T09:15:39Z</time></trkpt><trkpt lat="44.27254517239213" lon="11.449259424389199"><ele>384.8333333333333</ele><time>2026-04-12T09:15:40Z</time></trkpt><trkpt lat="44.27254450896197" lon="11.449123181957212"><ele>386.0</ele><time>2026-04-12T09:15:41Z</time></trkpt><trkpt lat="44.272546768971786" lon="11.448971769969214"><ele>388.5</ele><time>2026-04-12T09:15:42Z</time></trkpt><trkpt lat="44.27256466437828" lon="11.448790503398032"><ele>391.0</ele><time>2026-04-12T09:15:43Z</time></trkpt><trkpt lat="44.272595257262445" lon="11.448609007172395"><ele>393.5</ele><time>2026-04-12T09:15:44Z</time></trkpt><trkpt lat="44.272613174322096" lon="11.448444754270877"><ele>396.0</ele><time>2026-04-12T09:15:45Z</time></trkpt><trkpt lat="44.272618383052674" lon="11.448284617950325"><ele>396.0</ele><time>2026-04-12T09:15:46Z</time></trkpt><trkpt lat="44.272616666790846" lon="11.448135557241718"><ele>396.0</ele><time>2026-04-12T09:15:47Z</time></trkpt><trkpt lat="44.27260185344303" lon="11.44799904572792"><ele>396.0</ele><time>2026-04-12T09:15:48Z</time></trkpt><trkpt lat="44.27258750023468" lon="11.447859957152989"><ele>396.0</ele><time>2026-04-12T09:15:49Z</time></trkpt><trkpt lat="44.27256605827302" lon="11.44772130910087"><ele>396.0</ele><time>2026-04-12T09:15:50Z</time></trkpt><trkpt lat="44.27254738972943" lon="11.447580488024618"><ele>396.6</ele><time>2026-04-12T09:15:51Z</time></trkpt><trkpt lat="44.27252057413198" lon="11.44743610427283"><ele>397.20000000000005</ele><time>2026-04-12T09:15:52Z</time></trkpt><trkpt lat="44.27249313594349" lon="11.447292440284036"><ele>397.79999999999995</ele><time>2026-04-12T09:15:53Z</time></trkpt><trkpt lat="44.272443785409" lon="11.447157209002215"><ele>398.4</ele><time>2026-04-12T09:15:54Z</time></trkpt><trkpt lat="44.272381317299654" lon="11.447026657113055"><ele>399.0</ele><time>2026-04-12T09:15:55Z</time></trkpt><trkpt lat="44.27230490904527" lon="11.446900020575992"><ele>403.25</ele><time>2026-04-12T09:15:56Z</time></trkpt><trkpt lat="44.27221488597617" lon="11.446760437911395"><ele>407.5</ele><time>2026-04-12T09:15:57Z</time></trkpt><trkpt lat="44.27211645499836" lon="11.446615513463147"><ele>411.75</ele><time>2026-04-12T09:15:58Z</time></trkpt><trkpt lat="44.272020996803455" lon="11.446479895105922"><ele>416.0</ele><time>2026-04-12T09:15:59Z</time></trkpt><trkpt lat="44.27192971780535" lon="11.446329303435876"><ele>415.25</ele><time>2026-04-12T09:16:00Z</time></trkpt><trkpt lat="44.27184286915027" lon="11.446193687530016"><ele>414.5</ele><time>2026-04-12T09:16:01Z</time></trkpt><trkpt lat="44.27175948335121" lon="11.446054553358229"><ele>413.75</ele><time>2026-04-12T09:16:02Z</time></trkpt><trkpt lat="44.2716743966113" lon="11.445918815299617"><ele>413.0</ele><time>2026-04-12T09:16:03Z</time></trkpt><trkpt lat="44.271601115722056" lon="11.445801160125768"><ele>413.0</ele><time>2026-04-12T09:16:04Z</time></trkpt><trkpt lat="44.27152286070867" lon="11.44568793205694"><ele>413.0</ele><time>2026-04-12T09:16:05Z</time></trkpt><trkpt lat="44.27143431994784" lon="11.445587358351396"><ele>413.0</ele><time>2026-04-12T09:16:06Z</time></trkpt><trkpt lat="44.27133203499536" lon="11.445519111508839"><ele>413.0</ele><time>2026-04-12T09:16:07Z</time></trkpt><trkpt lat="44.27121398825357" lon="11.445491948471265"><ele>416.25</ele><time>2026-04-12T09:16:08Z</time></trkpt><trkpt lat="44.271106593112286" lon="11.4454705816096"><ele>419.5</ele><time>2026-04-12T09:16:09Z</time></trkpt><trkpt lat="44.27096707451457" lon="11.445486238532567"><ele>422.75</ele><time>2026-04-12T09:16:10Z</time></trkpt><trkpt lat="44.27084644939228" lon="11.445478780792486"><ele>426.0</ele><time>2026-04-12T09:16:11Z</time></trkpt><trkpt lat="44.27073376963307" lon="11.445466423191556"><ele>426.20000000000005</ele><time>2026-04-12T09:16:12Z</time></trkpt><trkpt lat="44.27061899388019" lon="11.445461334833961"><ele>426.40000000000003</ele><time>2026-04-12T09:16:13Z</time></trkpt><trkpt lat="44.27053389052783" lon="11.44542627573228"><ele>426.6</ele><time>2026-04-12T09:16:14Z</time></trkpt><trkpt lat="44.27045253646439" lon="11.445376904669521"><ele>426.8</ele><time>2026-04-12T09:16:15Z</time></trkpt><trkpt lat="44.27037000050794" lon="11.445311437234277"><ele>427.0</ele><time>2026-04-12T09:16:16Z</time></trkpt><trkpt lat="44.27028295762643" lon="11.445238441216805"><ele>427.20000000000005</ele><time>2026-04-12T09:16:17Z</time></trkpt><trkpt lat="44.27021401906037" lon="11.445149313109033"><ele>427.40000000000003</ele><time>2026-04-12T09:16:18Z</time></trkpt><trkpt lat="44.270156823514355" lon="11.445026328340498"><ele>427.59999999999997</ele><time>2026-04-12T09:16:19Z</time></trkpt><trkpt lat="44.27010740676051" lon="11.444869710278168"><ele>427.79999999999995</ele><time>2026-04-12T09:16:20Z</time></trkpt><trkpt lat="44.27004626017645" lon="11.444721775354022"><ele>428.0</ele><time>2026-04-12T09:16:21Z</time></trkpt><trkpt lat="44.269981818668825" lon="11.444567711834077"><ele>428.0</ele><time>2026-04-12T09:16:22Z</time></trkpt><trkpt lat="44.269914236786015" lon="11.444411386352176"><ele>428.0</ele><time>2026-04-12T09:16:23Z</time></trkpt><trkpt lat="44.26984022848416" lon="11.44425097335786"><ele>428.0</ele><time>2026-04-12T09:16:24Z</time></trkpt><trkpt lat="44.26976162040471" lon="11.444097470332286"><ele>428.0</ele><time>2026-04-12T09:16:25Z</time></trkpt><trkpt lat="44.269679170164096" lon="11.443955866492235"><ele>430.0</ele><time>2026-04-12T09:16:26Z</time></trkpt><trkpt lat="44.26959848068846" lon="11.443823743941715"><ele>432.0</ele><time>2026-04-12T09:16:27Z</time></trkpt><trkpt lat="44.26952743075237" lon="11.443692594496353"><ele>434.0</ele><time>2026-04-12T09:16:28Z</time></trkpt><trkpt lat="44.269457995002405" lon="11.443569674296109"><ele>436.0</ele><time>2026-04-12T09:16:29Z</time></trkpt><trkpt lat="44.26939409706183" lon="11.44344688814701"><ele>436.0</ele><time>2026-04-12T09:16:30Z</time></trkpt><trkpt lat="44.26933259488234" lon="11.443321167100653"><ele>436.0</ele><time>2026-04-12T09:16:31Z</time></trkpt><trkpt lat="44.26927538792881" lon="11.443189102605494"><ele>436.0</ele><time>2026-04-12T09:16:32Z</time></trkpt><trkpt lat="44.26923223889383" lon="11.443038504924207"><ele>436.0</ele><time>2026-04-12T09:16:33Z</time></trkpt><trkpt lat="44.2692150963387" lon="11.44287435427636"><ele>435.5</ele><time>2026-04-12T09:16:34Z</time></trkpt><trkpt lat="44.269218620252076" lon="11.442710573681104"><ele>435.0</ele><time>2026-04-12T09:16:35Z</time></trkpt><trkpt lat="44.269239186070536" lon="11.442533171221697"><ele>434.5</ele><time>2026-04-12T09:16:36Z</time></trkpt><trkpt lat="44.26925781391098" lon="11.442353878766136"><ele>434.0</ele><time>2026-04-12T09:16:37Z</time></trkpt><trkpt lat="44.26928450177833" lon="11.442177357328815"><ele>434.0</ele><time>2026-04-12T09:16:38Z</time></trkpt><trkpt lat="44.26932143302232" lon="11.441997390548917"><ele>434.0</ele><time>2026-04-12T09:16:39Z</time></trkpt><trkpt lat="44.26933981735954" lon="11.441821800544766"><ele>434.0</ele><time>2026-04-12T09:16:40Z</time></trkpt><trkpt lat="44.26936314899694" lon="11.44165671690262"><ele>434.0</ele><time>2026-04-12T09:16:41Z</time></trkpt><trkpt lat="44.269387284132534" lon="11.441498522200835"><ele>434.0</ele><time>2026-04-12T09:16:42Z</time></trkpt><trkpt lat="44.26940627026459" lon="11.44133790311565"><ele>434.0</ele><time>2026-04-12T09:16:43Z</time></trkpt><trkpt lat="44.26943083156267" lon="11.441188267861227"><ele>434.0</ele><time>2026-04-12T09:16:44Z</time></trkpt><trkpt lat="44.26944732767696" lon="11.441054180024587"><ele>434.0</ele><time>2026-04-12T09:16:45Z</time></trkpt><trkpt lat="44.26944730734579" lon="11.440927890204366"><ele>434.0</ele><time>2026-04-12T09:16:46Z</time></trkpt><trkpt lat="44.26942030851887" lon="11.440779539387776"><ele>432.0</ele><time>2026-04-12T09:16:47Z</time></trkpt><trkpt lat="44.26936528982901" lon="11.440643533931864"><ele>430.0</ele><time>2026-04-12T09:16:48Z</time></trkpt><trkpt lat="44.269289671165104" lon="11.440494368196948"><ele>428.0</ele><time>2026-04-12T09:16:49Z</time></trkpt><trkpt lat="44.26922328345767" lon="11.440338308922067"><ele>426.0</ele><time>2026-04-12T09:16:50Z</time></trkpt><trkpt lat="44.26917060459081" lon="11.440175615420685"><ele>422.25</ele><time>2026-04-12T09:16:51Z</time></trkpt><trkpt lat="44.269115073726965" lon="11.440017574170646"><ele>418.5</ele><time>2026-04-12T09:16:52Z</time></trkpt><trkpt lat="44.26906450557665" lon="11.439874697474357"><ele>414.75</ele><time>2026-04-12T09:16:53Z</time></trkpt><trkpt lat="44.26901653022814" lon="11.439734038459891"><ele>411.0</ele><time>2026-04-12T09:16:54Z</time></trkpt><trkpt lat="44.26895058438889" lon="11.43960615107435"><ele>414.4</ele><time>2026-04-12T09:16:55Z</time></trkpt><trkpt lat="44.26886781145625" lon="11.43951176340224"><ele>417.8</ele><time>2026-04-12T09:16:56Z</time></trkpt><trkpt lat="44.26877837239396" lon="11.439457927954125"><ele>421.19999999999993</ele><time>2026-04-12T09:16:57Z</time></trkpt><trkpt lat="44.26870827399907" lon="11.439398259672268"><ele>424.59999999999997</ele><time>2026-04-12T09:16:58Z</time></trkpt><trkpt lat="44.26865104493373" lon="11.439308995234102"><ele>428.0</ele><time>2026-04-12T09:16:59Z</time></trkpt><trkpt lat="44.268623319608515" lon="11.439207222659798"><ele>427.99999999999994</ele><time>2026-04-12T09:17:00Z</time></trkpt><trkpt lat="44.26860820858427" lon="11.439101954353697"><ele>428.0</ele><time>2026-04-12T09:17:01Z</time></trkpt><trkpt lat="44.26860418382571" lon="11.43900899911414"><ele>428.0</ele><time>2026-04-12T09:17:02Z</time></trkpt><trkpt lat="44.26856704366667" lon="11.438876312490681"><ele>428.0</ele><time>2026-04-12T09:17:04Z</time></trkpt><trkpt lat="44.26848129723555" lon="11.438749956254146"><ele>427.99999999999994</ele><time>2026-04-12T09:17:06Z</time></trkpt><trkpt lat="44.26842701702531" lon="11.438694938118738"><ele>428.0</ele><time>2026-04-12T09:17:07Z</time></trkpt><trkpt lat="44.268368201337026" lon="11.438641188501459"><ele>426.0</ele><time>2026-04-12T09:17:08Z</time></trkpt><trkpt lat="44.26831008223608" lon="11.438566439894522"><ele>423.99999999999994</ele><time>2026-04-12T09:17:09Z</time></trkpt><trkpt lat="44.26826888941941" lon="11.438458875118581"><ele>422.0</ele><time>2026-04-12T09:17:10Z</time></trkpt><trkpt lat="44.26825170751063" lon="11.438316247260234"><ele>420.0</ele><time>2026-04-12T09:17:11Z</time></trkpt><trkpt lat="44.26822974918074" lon="11.43815381882426"><ele>418.0</ele><time>2026-04-12T09:17:12Z</time></trkpt><trkpt lat="44.268205353041715" lon="11.438001487487657"><ele>417.2</ele><time>2026-04-12T09:17:13Z</time></trkpt><trkpt lat="44.26816441268941" lon="11.437853340735423"><ele>416.4</ele><time>2026-04-12T09:17:14Z</time></trkpt><trkpt lat="44.2681202976303" lon="11.437707156602656"><ele>415.59999999999997</ele><time>2026-04-12T09:17:15Z</time></trkpt><trkpt lat="44.26806268181334" lon="11.437565421928541"><ele>414.79999999999995</ele><time>2026-04-12T09:17:16Z</time></trkpt><trkpt lat="44.268013324583784" lon="11.437449999356271"><ele>414.0</ele><time>2026-04-12T09:17:17Z</time></trkpt><trkpt lat="44.26796198014154" lon="11.437341751117836"><ele>416.3333333333333</ele><time>2026-04-12T09:17:18Z</time></trkpt><trkpt lat="44.267926327195376" lon="11.437236380692857"><ele>418.66666666666663</ele><time>2026-04-12T09:17:19Z</time></trkpt><trkpt lat="44.26790348200173" lon="11.437117149609794"><ele>421.0</ele><time>2026-04-12T09:17:20Z</time></trkpt><trkpt lat="44.26790130133468" lon="11.437003550069822"><ele>423.3333333333333</ele><time>2026-04-12T09:17:21Z</time></trkpt><trkpt lat="44.267938458286686" lon="11.436871629609323"><ele>425.66666666666663</ele><time>2026-04-12T09:17:22Z</time></trkpt><trkpt lat="44.26797232042822" lon="11.436761528474646"><ele>428.0</ele><time>2026-04-12T09:17:23Z</time></trkpt><trkpt lat="44.268016189903506" lon="11.436639368411672"><ele>428.0</ele><time>2026-04-12T09:17:24Z</time></trkpt><trkpt lat="44.26803385531212" lon="11.43653182188908"><ele>427.99999999999994</ele><time>2026-04-12T09:17:25Z</time></trkpt><trkpt lat="44.26798699584881" lon="11.436420333541472"><ele>427.99999999999994</ele><time>2026-04-12T09:17:26Z</time></trkpt><trkpt lat="44.26790652193557" lon="11.436324742699265"><ele>428.0</ele><time>2026-04-12T09:17:27Z</time></trkpt><trkpt lat="44.267834584416434" lon="11.436263734911181"><ele>428.0</ele><time>2026-04-12T09:17:28Z</time></trkpt><trkpt lat="44.26771482558478" lon="11.43632769705426"><ele>428.4</ele><time>2026-04-12T09:17:29Z</time></trkpt><trkpt lat="44.267597943852415" lon="11.436260136176399"><ele>428.79999999999995</ele><time>2026-04-12T09:17:31Z</time></trkpt><trkpt lat="44.26755633549575" lon="11.436187468296124"><ele>429.2</ele><time>2026-04-12T09:17:32Z</time></trkpt><trkpt lat="44.26750937757813" lon="11.436077771437569"><ele>429.6</ele><time>2026-04-12T09:17:33Z</time></trkpt><trkpt lat="44.26746845631814" lon="11.435956387505442"><ele>430.0</ele><time>2026-04-12T09:17:34Z</time></trkpt><trkpt lat="44.26742057480969" lon="11.435826940402714"><ele>430.0</ele><time>2026-04-12T09:17:35Z</time></trkpt><trkpt lat="44.26737939162914" lon="11.435692237002359"><ele>430.0</ele><time>2026-04-12T09:17:36Z</time></trkpt><trkpt lat="44.267331053940275" lon="11.43554410252016"><ele>430.0</ele><time>2026-04-12T09:17:37Z</time></trkpt><trkpt lat="44.267288001371305" lon="11.435408081241503"><ele>430.0</ele><time>2026-04-12T09:17:38Z</time></trkpt><trkpt lat="44.26726351026648" lon="11.435289492931062"><ele>430.0</ele><time>2026-04-12T09:17:39Z</time></trkpt><trkpt lat="44.2672617415149" lon="11.435182501152493"><ele>431.50000000000006</ele><time>2026-04-12T09:17:40Z</time></trkpt><trkpt lat="44.267275289163614" lon="11.435078090640916"><ele>433.0</ele><time>2026-04-12T09:17:41Z</time></trkpt><trkpt lat="44.26731371549197" lon="11.434990225367367"><ele>434.5</ele><time>2026-04-12T09:17:42Z</time></trkpt><trkpt lat="44.267380305696946" lon="11.434937159771456"><ele>436.0</ele><time>2026-04-12T09:17:43Z</time></trkpt><trkpt lat="44.267462627385456" lon="11.434938039898645"><ele>437.50000000000006</ele><time>2026-04-12T09:17:44Z</time></trkpt><trkpt lat="44.26754899737387" lon="11.434889435476764"><ele>439.0</ele><time>2026-04-12T09:17:45Z</time></trkpt><trkpt lat="44.26767399502999" lon="11.434862629010524"><ele>439.25</ele><time>2026-04-12T09:17:46Z</time></trkpt><trkpt lat="44.26779130685677" lon="11.434823597171969"><ele>439.5</ele><time>2026-04-12T09:17:47Z</time></trkpt><trkpt lat="44.267893807977295" lon="11.434772790998393"><ele>439.75</ele><time>2026-04-12T09:17:48Z</time></trkpt><trkpt lat="44.268011080483504" lon="11.434671902233577"><ele>440.0</ele><time>2026-04-12T09:17:49Z</time></trkpt><trkpt lat="44.26811028451389" lon="11.4345692230235"><ele>442.75</ele><time>2026-04-12T09:17:50Z</time></trkpt><trkpt lat="44.2681879554372" lon="11.434421592628947"><ele>445.5</ele><time>2026-04-12T09:17:51Z</time></trkpt><trkpt lat="44.26826904709927" lon="11.434299866426665"><ele>448.25</ele><time>2026-04-12T09:17:52Z</time></trkpt><trkpt lat="44.26833544311133" lon="11.434165379129164"><ele>451.0</ele><time>2026-04-12T09:17:53Z</time></trkpt><trkpt lat="44.2683741063402" lon="11.434026193683216"><ele>451.0</ele><time>2026-04-12T09:17:54Z</time></trkpt><trkpt lat="44.268440312653894" lon="11.433952518784999"><ele>451.0</ele><time>2026-04-12T09:17:55Z</time></trkpt><trkpt lat="44.26854563281284" lon="11.433927292128715"><ele>451.0</ele><time>2026-04-12T09:17:56Z</time></trkpt><trkpt lat="44.26867769323025" lon="11.433904931312982"><ele>451.0</ele><time>2026-04-12T09:17:57Z</time></trkpt><trkpt lat="44.26882508115182" lon="11.433872258790792"><ele>451.0</ele><time>2026-04-12T09:17:58Z</time></trkpt><trkpt lat="44.26893878042701" lon="11.433809200064989"><ele>451.0</ele><time>2026-04-12T09:17:59Z</time></trkpt><trkpt lat="44.26905159200585" lon="11.433742234580029"><ele>451.0</ele><time>2026-04-12T09:18:00Z</time></trkpt><trkpt lat="44.26917350742435" lon="11.433680397779929"><ele>451.0</ele><time>2026-04-12T09:18:01Z</time></trkpt><trkpt lat="44.269297619998994" lon="11.433619459375183"><ele>453.0</ele><time>2026-04-12T09:18:02Z</time></trkpt><trkpt lat="44.2694063285757" lon="11.433566276983488"><ele>455.0</ele><time>2026-04-12T09:18:03Z</time></trkpt><trkpt lat="44.269503273138476" lon="11.433520324406757"><ele>457.0</ele><time>2026-04-12T09:18:04Z</time></trkpt><trkpt lat="44.26960452457146" lon="11.433508318505252"><ele>459.0</ele><time>2026-04-12T09:18:05Z</time></trkpt><trkpt lat="44.26968565110931" lon="11.433514168076057"><ele>461.0</ele><time>2026-04-12T09:18:06Z</time></trkpt><trkpt lat="44.26976670975474" lon="11.433513881358522"><ele>461.20000000000005</ele><time>2026-04-12T09:18:07Z</time></trkpt><trkpt lat="44.269832621353856" lon="11.433460818648582"><ele>461.40000000000003</ele><time>2026-04-12T09:18:08Z</time></trkpt><trkpt lat="44.26988804899604" lon="11.433364821228094"><ele>461.6</ele><time>2026-04-12T09:18:09Z</time></trkpt><trkpt lat="44.269925383842946" lon="11.433244367763118"><ele>461.8</ele><time>2026-04-12T09:18:10Z</time></trkpt><trkpt lat="44.269963609154125" lon="11.433106282907378"><ele>462.0</ele><time>2026-04-12T09:18:11Z</time></trkpt><trkpt lat="44.27001376454479" lon="11.432967521570546"><ele>464.75</ele><time>2026-04-12T09:18:12Z</time></trkpt><trkpt lat="44.27009064854652" lon="11.432845300580793"><ele>467.5</ele><time>2026-04-12T09:18:13Z</time></trkpt><trkpt lat="44.270191726796725" lon="11.432743662203288"><ele>470.25</ele><time>2026-04-12T09:18:14Z</time></trkpt><trkpt lat="44.270291060891694" lon="11.432646036389709"><ele>473.0</ele><time>2026-04-12T09:18:15Z</time></trkpt><trkpt lat="44.27038311168037" lon="11.432553301287365"><ele>473.0</ele><time>2026-04-12T09:18:16Z</time></trkpt><trkpt lat="44.27046710425384" lon="11.432459460010767"><ele>472.99999999999994</ele><time>2026-04-12T09:18:17Z</time></trkpt><trkpt lat="44.27054201774935" lon="11.4323580828724"><ele>472.99999999999994</ele><time>2026-04-12T09:18:18Z</time></trkpt><trkpt lat="44.270613111069636" lon="11.43224548975214"><ele>473.0</ele><time>2026-04-12T09:18:19Z</time></trkpt><trkpt lat="44.270684863252235" lon="11.43211859636897"><ele>473.0</ele><time>2026-04-12T09:18:20Z</time></trkpt><trkpt lat="44.27076849445943" lon="11.431997705834545"><ele>475.0</ele><time>2026-04-12T09:18:21Z</time></trkpt><trkpt lat="44.2708466863287" lon="11.431893084682699"><ele>476.99999999999994</ele><time>2026-04-12T09:18:22Z</time></trkpt><trkpt lat="44.2709273526253" lon="11.431834543134038"><ele>478.99999999999994</ele><time>2026-04-12T09:18:23Z</time></trkpt><trkpt lat="44.27101592069018" lon="11.431795474485376"><ele>481.0</ele><time>2026-04-12T09:18:24Z</time></trkpt><trkpt lat="44.27112054498348" lon="11.431800941812002"><ele>483.0</ele><time>2026-04-12T09:18:25Z</time></trkpt><trkpt lat="44.27123363854953" lon="11.431776682586907"><ele>483.0</ele><time>2026-04-12T09:18:26Z</time></trkpt><trkpt lat="44.27135670322251" lon="11.431781233440596"><ele>483.0</ele><time>2026-04-12T09:18:27Z</time></trkpt><trkpt lat="44.27148252053074" lon="11.43176790770449"><ele>483.0</ele><time>2026-04-12T09:18:28Z</time></trkpt><trkpt lat="44.271617949577944" lon="11.431728131890294"><ele>483.0</ele><time>2026-04-12T09:18:29Z</time></trkpt><trkpt lat="44.27171849439055" lon="11.43170502592112"><ele>483.8333333333333</ele><time>2026-04-12T09:18:30Z</time></trkpt><trkpt lat="44.27178994991981" lon="11.431675484933061"><ele>484.66666666666663</ele><time>2026-04-12T09:18:31Z</time></trkpt><trkpt lat="44.271865663589246" lon="11.431547303776824"><ele>485.5</ele><time>2026-04-12T09:18:33Z</time></trkpt><trkpt lat="44.2718579238081" lon="11.431451052728363"><ele>486.3333333333333</ele><time>2026-04-12T09:18:34Z</time></trkpt><trkpt lat="44.27181621857855" lon="11.431371160974997"><ele>487.16666666666663</ele><time>2026-04-12T09:18:35Z</time></trkpt><trkpt lat="44.27174731335784" lon="11.431305716081106"><ele>488.0</ele><time>2026-04-12T09:18:36Z</time></trkpt><trkpt lat="44.271655741904425" lon="11.431234661276465"><ele>490.2</ele><time>2026-04-12T09:18:37Z</time></trkpt><trkpt lat="44.27157123920284" lon="11.431136059834449"><ele>492.4</ele><time>2026-04-12T09:18:38Z</time></trkpt><trkpt lat="44.271505096782064" lon="11.431021297052187"><ele>494.59999999999997</ele><time>2026-04-12T09:18:39Z</time></trkpt><trkpt lat="44.27144041561144" lon="11.430909972002025"><ele>496.79999999999995</ele><time>2026-04-12T09:18:40Z</time></trkpt><trkpt lat="44.2713779093282" lon="11.430807644926475"><ele>499.0</ele><time>2026-04-12T09:18:41Z</time></trkpt><trkpt lat="44.271317298534605" lon="11.43070109217083"><ele>499.2</ele><time>2026-04-12T09:18:42Z</time></trkpt><trkpt lat="44.27125538592832" lon="11.430595756047872"><ele>499.4</ele><time>2026-04-12T09:18:43Z</time></trkpt><trkpt lat="44.271192937902605" lon="11.430490578814643"><ele>499.6</ele><time>2026-04-12T09:18:44Z</time></trkpt><trkpt lat="44.27112478685432" lon="11.43037617786982"><ele>499.8</ele><time>2026-04-12T09:18:45Z</time></trkpt><trkpt lat="44.271068062921614" lon="11.430275713246852"><ele>500.0</ele><time>2026-04-12T09:18:46Z</time></trkpt><trkpt lat="44.271008272256026" lon="11.430172910411704"><ele>502.4</ele><time>2026-04-12T09:18:47Z</time></trkpt><trkpt lat="44.27094300431488" lon="11.430062204777087"><ele>504.8</ele><time>2026-04-12T09:18:48Z</time></trkpt><trkpt lat="44.27087576120573" lon="11.429951980169346"><ele>507.20000000000005</ele><time>2026-04-12T09:18:49Z</time></trkpt><trkpt lat="44.27080040211856" lon="11.429838684049136"><ele>509.6</ele><time>2026-04-12T09:18:50Z</time></trkpt><trkpt lat="44.27073296618437" lon="11.429724802719884"><ele>512.0</ele><time>2026-04-12T09:18:51Z</time></trkpt><trkpt lat="44.2707048470292" lon="11.429606825898667"><ele>513.6</ele><time>2026-04-12T09:18:52Z</time></trkpt><trkpt lat="44.27070575351879" lon="11.429498189887363"><ele>515.2</ele><time>2026-04-12T09:18:53Z</time></trkpt><trkpt lat="44.27071228808194" lon="11.42939114999894"><ele>516.8</ele><time>2026-04-12T09:18:54Z</time></trkpt><trkpt lat="44.27071193498151" lon="11.42923695041554"><ele>518.4</ele><time>2026-04-12T09:18:55Z</time></trkpt><trkpt lat="44.27066624051361" lon="11.429092437948917"><ele>520.0</ele><time>2026-04-12T09:18:56Z</time></trkpt><trkpt lat="44.27060178074579" lon="11.42896716389206"><ele>522.3333333333334</ele><time>2026-04-12T09:18:57Z</time></trkpt><trkpt lat="44.27053391818054" lon="11.428861456228878"><ele>524.6666666666667</ele><time>2026-04-12T09:18:58Z</time></trkpt><trkpt lat="44.270485097262544" lon="11.428788681304509"><ele>527.0</ele><time>2026-04-12T09:18:59Z</time></trkpt><trkpt lat="44.27048429032036" lon="11.428668789340465"><ele>529.3333333333334</ele><time>2026-04-12T09:19:00Z</time></trkpt><trkpt lat="44.270504736383856" lon="11.428562928321165"><ele>531.6666666666666</ele><time>2026-04-12T09:19:01Z</time></trkpt><trkpt lat="44.27057439594507" lon="11.428471219576313"><ele>534.0</ele><time>2026-04-12T09:19:02Z</time></trkpt><trkpt lat="44.270598858409215" lon="11.428347639188454"><ele>532.8333333333334</ele><time>2026-04-12T09:19:03Z</time></trkpt><trkpt lat="44.27062062043234" lon="11.428237736690047"><ele>531.6666666666666</ele><time>2026-04-12T09:19:04Z</time></trkpt><trkpt lat="44.27058793957608" lon="11.42814577552178"><ele>530.5</ele><time>2026-04-12T09:19:05Z</time></trkpt><trkpt lat="44.27055280043474" lon="11.428055145528745"><ele>529.3333333333333</ele><time>2026-04-12T09:19:06Z</time></trkpt><trkpt lat="44.270496299174354" lon="11.42798330507194"><ele>528.1666666666666</ele><time>2026-04-12T09:19:07Z</time></trkpt><trkpt lat="44.270440719627814" lon="11.427929829141013"><ele>527.0</ele><time>2026-04-12T09:19:08Z</time></trkpt><trkpt lat="44.27035599760777" lon="11.427903657936518"><ele>530.2</ele><time>2026-04-12T09:19:09Z</time></trkpt><trkpt lat="44.27025484604281" lon="11.427903527629688"><ele>533.4000000000001</ele><time>2026-04-12T09:19:10Z</time></trkpt><trkpt lat="44.27016428669223" lon="11.427898214620333"><ele>536.5999999999999</ele><time>2026-04-12T09:19:11Z</time></trkpt><trkpt lat="44.27007973969988" lon="11.427873519921619"><ele>539.8</ele><time>2026-04-12T09:19:12Z</time></trkpt><trkpt lat="44.27000386190273" lon="11.427812586014833"><ele>543.0</ele><time>2026-04-12T09:19:13Z</time></trkpt><trkpt lat="44.269950632299086" lon="11.427718185023394"><ele>543.0</ele><time>2026-04-12T09:19:14Z</time></trkpt><trkpt lat="44.26990756107348" lon="11.427613862292718"><ele>543.0</ele><time>2026-04-12T09:19:15Z</time></trkpt><trkpt lat="44.26985895119481" lon="11.427501925185343"><ele>543.0</ele><time>2026-04-12T09:19:16Z</time></trkpt><trkpt lat="44.26980045972074" lon="11.427341252163002"><ele>543.0</ele><time>2026-04-12T09:19:17Z</time></trkpt><trkpt lat="44.26975160438337" lon="11.427224253736034"><ele>543.0</ele><time>2026-04-12T09:19:18Z</time></trkpt><trkpt lat="44.26972543216923" lon="11.427115422570662"><ele>543.6666666666666</ele><time>2026-04-12T09:19:19Z</time></trkpt><trkpt lat="44.26974054377979" lon="11.427007083098044"><ele>544.3333333333334</ele><time>2026-04-12T09:19:20Z</time></trkpt><trkpt lat="44.269782721112215" lon="11.426909901192179"><ele>545.0</ele><time>2026-04-12T09:19:21Z</time></trkpt><trkpt lat="44.26984120993766" lon="11.426825298362203"><ele>545.6666666666667</ele><time>2026-04-12T09:19:22Z</time></trkpt><trkpt lat="44.26988282551298" lon="11.426707047913068"><ele>546.3333333333334</ele><time>2026-04-12T09:19:23Z</time></trkpt><trkpt lat="44.26988271415007" lon="11.426601749440149"><ele>547.0</ele><time>2026-04-12T09:19:24Z</time></trkpt><trkpt lat="44.269842207709736" lon="11.426519142445587"><ele>547.0</ele><time>2026-04-12T09:19:25Z</time></trkpt><trkpt lat="44.2697837718818" lon="11.426433312692312"><ele>547.0</ele><time>2026-04-12T09:19:26Z</time></trkpt><trkpt lat="44.26972118879289" lon="11.426367741998973"><ele>547.0</ele><time>2026-04-12T09:19:27Z</time></trkpt><trkpt lat="44.2696600077085" lon="11.426272556377697"><ele>547.0</ele><time>2026-04-12T09:19:28Z</time></trkpt><trkpt lat="44.26956562428919" lon="11.426156571743679"><ele>547.0</ele><time>2026-04-12T09:19:29Z</time></trkpt><trkpt lat="44.269510815291554" lon="11.426020343315423"><ele>550.8000000000001</ele><time>2026-04-12T09:19:30Z</time></trkpt><trkpt lat="44.26944396599942" lon="11.425920285173339"><ele>554.6</ele><time>2026-04-12T09:19:31Z</time></trkpt><trkpt lat="44.26937502391793" lon="11.425808637929691"><ele>558.4000000000001</ele><time>2026-04-12T09:19:32Z</time></trkpt><trkpt lat="44.26931950607979" lon="11.425695472690373"><ele>562.2</ele><time>2026-04-12T09:19:33Z</time></trkpt><trkpt lat="44.269265432758274" lon="11.42559148852671"><ele>566.0</ele><time>2026-04-12T09:19:34Z</time></trkpt><trkpt lat="44.26919811012141" lon="11.42552685013204"><ele>566.1666666666666</ele><time>2026-04-12T09:19:35Z</time></trkpt><trkpt lat="44.269108240049405" lon="11.425478601875502"><ele>566.3333333333333</ele><time>2026-04-12T09:19:36Z</time></trkpt><trkpt lat="44.26902758631013" lon="11.425459614344591"><ele>566.5</ele><time>2026-04-12T09:19:37Z</time></trkpt><trkpt lat="44.26894481997867" lon="11.42546335760274"><ele>566.6666666666666</ele><time>2026-04-12T09:19:38Z</time></trkpt><trkpt lat="44.26886054319536" lon="11.425430384974485"><ele>566.8333333333334</ele><time>2026-04-12T09:19:39Z</time></trkpt><trkpt lat="44.26879323587433" lon="11.425344956644308"><ele>567.0</ele><time>2026-04-12T09:19:40Z</time></trkpt><trkpt lat="44.268741056365094" lon="11.425236643315671"><ele>569.6</ele><time>2026-04-12T09:19:41Z</time></trkpt><trkpt lat="44.26871038750731" lon="11.425115168827096"><ele>572.2</ele><time>2026-04-12T09:19:42Z</time></trkpt><trkpt lat="44.268701246839804" lon="11.425000683897439"><ele>574.8</ele><time>2026-04-12T09:19:43Z</time></trkpt><trkpt lat="44.26871811832473" lon="11.424878412219812"><ele>577.4</ele><time>2026-04-12T09:19:44Z</time></trkpt><trkpt lat="44.26871885479471" lon="11.424738131321847"><ele>580.0</ele><time>2026-04-12T09:19:45Z</time></trkpt><trkpt lat="44.26873867258181" lon="11.424589984333364"><ele>581.0</ele><time>2026-04-12T09:19:46Z</time></trkpt><trkpt lat="44.26875430159981" lon="11.42442152813653"><ele>582.0</ele><time>2026-04-12T09:19:47Z</time></trkpt><trkpt lat="44.268770262374645" lon="11.424257794092489"><ele>583.0</ele><time>2026-04-12T09:19:48Z</time></trkpt><trkpt lat="44.26880222129738" lon="11.424102765729263"><ele>584.0</ele><time>2026-04-12T09:19:49Z</time></trkpt><trkpt lat="44.26883865618489" lon="11.423946228460997"><ele>584.4</ele><time>2026-04-12T09:19:50Z</time></trkpt><trkpt lat="44.26890873055378" lon="11.423807994530925"><ele>584.8</ele><time>2026-04-12T09:19:51Z</time></trkpt><trkpt lat="44.268957905485074" lon="11.423678364504894"><ele>585.2</ele><time>2026-04-12T09:19:52Z</time></trkpt><trkpt lat="44.26900804091307" lon="11.423546202939738"><ele>585.6</ele><time>2026-04-12T09:19:53Z</time></trkpt><trkpt lat="44.269060889221564" lon="11.423431130998628"><ele>586.0</ele><time>2026-04-12T09:19:54Z</time></trkpt><trkpt lat="44.269120666619486" lon="11.423348284111539"><ele>586.0</ele><time>2026-04-12T09:19:55Z</time></trkpt><trkpt lat="44.26917322428702" lon="11.423275686538538"><ele>586.0</ele><time>2026-04-12T09:19:56Z</time></trkpt><trkpt lat="44.26926638751786" lon="11.423295246286159"><ele>586.0</ele><time>2026-04-12T09:19:57Z</time></trkpt><trkpt lat="44.269350620611505" lon="11.4232934730695"><ele>586.0</ele><time>2026-04-12T09:19:58Z</time></trkpt><trkpt lat="44.269433582245064" lon="11.423289406333867"><ele>586.0</ele><time>2026-04-12T09:19:59Z</time></trkpt><trkpt lat="44.2694994156783" lon="11.423276894853988"><ele>586.0</ele><time>2026-04-12T09:20:00Z</time></trkpt><trkpt lat="44.26955850485693" lon="11.423219327387157"><ele>586.0</ele><time>2026-04-12T09:20:01Z</time></trkpt><trkpt lat="44.26960152308827" lon="11.42310746864542"><ele>586.0</ele><time>2026-04-12T09:20:02Z</time></trkpt><trkpt lat="44.26962255383228" lon="11.422997826381605"><ele>586.0</ele><time>2026-04-12T09:20:03Z</time></trkpt><trkpt lat="44.269667073798516" lon="11.422913334524734"><ele>586.0</ele><time>2026-04-12T09:20:04Z</time></trkpt><trkpt lat="44.26971259421006" lon="11.42279590763715"><ele>586.0</ele><time>2026-04-12T09:20:05Z</time></trkpt><trkpt lat="44.26975783990038" lon="11.42269400013003"><ele>586.0</ele><time>2026-04-12T09:20:06Z</time></trkpt><trkpt lat="44.26981434728604" lon="11.422605961368395"><ele>588.2</ele><time>2026-04-12T09:20:07Z</time></trkpt><trkpt lat="44.26988129374158" lon="11.422574398218993"><ele>590.4000000000001</ele><time>2026-04-12T09:20:08Z</time></trkpt><trkpt lat="44.269970932834454" lon="11.422540014859646"><ele>592.6</ele><time>2026-04-12T09:20:09Z</time></trkpt><trkpt lat="44.27005868303169" lon="11.422412801179364"><ele>594.8000000000001</ele><time>2026-04-12T09:20:10Z</time></trkpt><trkpt lat="44.27015291472684" lon="11.422361801449782"><ele>597.0</ele><time>2026-04-12T09:20:11Z</time></trkpt><trkpt lat="44.270247350386626" lon="11.422317779672975"><ele>597.0</ele><time>2026-04-12T09:20:12Z</time></trkpt><trkpt lat="44.27033146281888" lon="11.422270196214317"><ele>597.0</ele><time>2026-04-12T09:20:13Z</time></trkpt><trkpt lat="44.270406508727405" lon="11.422234699754398"><ele>597.0</ele><time>2026-04-12T09:20:14Z</time></trkpt><trkpt lat="44.270494401859644" lon="11.422213560410338"><ele>597.0</ele><time>2026-04-12T09:20:15Z</time></trkpt><trkpt lat="44.270591322894525" lon="11.422216663080306"><ele>597.0</ele><time>2026-04-12T09:20:16Z</time></trkpt><trkpt lat="44.270689951942344" lon="11.422215966592036"><ele>595.6</ele><time>2026-04-12T09:20:17Z</time></trkpt><trkpt lat="44.27078306292249" lon="11.422216452066714"><ele>594.2</ele><time>2026-04-12T09:20:18Z</time></trkpt><trkpt lat="44.27086997135515" lon="11.422212274437149"><ele>592.8</ele><time>2026-04-12T09:20:19Z</time></trkpt><trkpt lat="44.27096122319632" lon="11.422215229640196"><ele>591.4</ele><time>2026-04-12T09:20:20Z</time></trkpt><trkpt lat="44.27105724317472" lon="11.422224864463494"><ele>590.0</ele><time>2026-04-12T09:20:21Z</time></trkpt><trkpt lat="44.27115730398789" lon="11.42223348918348"><ele>590.0</ele><time>2026-04-12T09:20:22Z</time></trkpt><trkpt lat="44.271257356462456" lon="11.422240539423434"><ele>590.0</ele><time>2026-04-12T09:20:23Z</time></trkpt><trkpt lat="44.27134443216815" lon="11.422240543769172"><ele>590.0</ele><time>2026-04-12T09:20:24Z</time></trkpt><trkpt lat="44.27143423373892" lon="11.422239864660572"><ele>590.0</ele><time>2026-04-12T09:20:25Z</time></trkpt><trkpt lat="44.27152072708325" lon="11.422228501805552"><ele>590.0</ele><time>2026-04-12T09:20:26Z</time></trkpt><trkpt lat="44.271614842379435" lon="11.422217128857614"><ele>590.4</ele><time>2026-04-12T09:20:27Z</time></trkpt><trkpt lat="44.2717006176694" lon="11.422201403596054"><ele>590.8</ele><time>2026-04-12T09:20:28Z</time></trkpt><trkpt lat="44.27178943881902" lon="11.422176035921764"><ele>591.2</ele><time>2026-04-12T09:20:29Z</time></trkpt><trkpt lat="44.27187888281559" lon="11.422142275158864"><ele>591.6</ele><time>2026-04-12T09:20:30Z</time></trkpt><trkpt lat="44.27196526022596" lon="11.422115078775429"><ele>592.0</ele><time>2026-04-12T09:20:31Z</time></trkpt><trkpt lat="44.2720582913835" lon="11.422093623354893"><ele>590.6</ele><time>2026-04-12T09:20:32Z</time></trkpt><trkpt lat="44.272148038589556" lon="11.422080474423828"><ele>589.2</ele><time>2026-04-12T09:20:33Z</time></trkpt><trkpt lat="44.27224240883677" lon="11.422075308822297"><ele>587.8</ele><time>2026-04-12T09:20:34Z</time></trkpt><trkpt lat="44.27234102258703" lon="11.42206947985043"><ele>586.4</ele><time>2026-04-12T09:20:35Z</time></trkpt><trkpt lat="44.272440911963464" lon="11.422062410702521"><ele>585.0</ele><time>2026-04-12T09:20:36Z</time></trkpt><trkpt lat="44.272535737797995" lon="11.422054351442865"><ele>584.6</ele><time>2026-04-12T09:20:37Z</time></trkpt><trkpt lat="44.27263186747951" lon="11.42205152205217"><ele>584.2</ele><time>2026-04-12T09:20:38Z</time></trkpt><trkpt lat="44.27273011340486" lon="11.422052546198085"><ele>583.8</ele><time>2026-04-12T09:20:39Z</time></trkpt><trkpt lat="44.27282942673546" lon="11.422054633112314"><ele>583.4</ele><time>2026-04-12T09:20:40Z</time></trkpt><trkpt lat="44.27294121438707" lon="11.422050886867767"><ele>583.0</ele><time>2026-04-12T09:20:41Z</time></trkpt><trkpt lat="44.27305248185397" lon="11.422050067919837"><ele>583.0</ele><time>2026-04-12T09:20:42Z</time></trkpt><trkpt lat="44.27315364722516" lon="11.422052932207047"><ele>583.0</ele><time>2026-04-12T09:20:43Z</time></trkpt><trkpt lat="44.27323785934563" lon="11.42205237839878"><ele>583.0</ele><time>2026-04-12T09:20:44Z</time></trkpt><trkpt lat="44.27331664715876" lon="11.422053401192546"><ele>583.0</ele><time>2026-04-12T09:20:45Z</time></trkpt><trkpt lat="44.27342318209071" lon="11.422051354321766"><ele>583.0</ele><time>2026-04-12T09:20:47Z</time></trkpt><trkpt lat="44.27352334648533" lon="11.422052745600931"><ele>583.0</ele><time>2026-04-12T09:20:49Z</time></trkpt><trkpt lat="44.27360127896211" lon="11.422077293080516"><ele>583.0</ele><time>2026-04-12T09:20:51Z</time></trkpt><trkpt lat="44.27367352822008" lon="11.42211668608207"><ele>583.0</ele><time>2026-04-12T09:20:53Z</time></trkpt><trkpt lat="44.27375690320086" lon="11.42216940157647"><ele>583.0</ele><time>2026-04-12T09:20:55Z</time></trkpt><trkpt lat="44.27384317183677" lon="11.422208122304339"><ele>583.0</ele><time>2026-04-12T09:20:57Z</time></trkpt><trkpt lat="44.273924265816404" lon="11.422226015351438"><ele>583.0</ele><time>2026-04-12T09:21:00Z</time></trkpt><trkpt lat="44.27402158762322" lon="11.422223972167137"><ele>582.5</ele><time>2026-04-12T09:25:42Z</time></trkpt><trkpt lat="44.27409553375559" lon="11.422181183352755"><ele>582.0</ele><time>2026-04-12T09:25:43Z</time></trkpt><trkpt lat="44.2741716509174" lon="11.422141855844965"><ele>581.5</ele><time>2026-04-12T09:25:44Z</time></trkpt><trkpt lat="44.27424389893151" lon="11.422092515003486"><ele>581.0</ele><time>2026-04-12T09:25:45Z</time></trkpt><trkpt lat="44.27432426973478" lon="11.422073913188408"><ele>580.5</ele><time>2026-04-12T09:25:46Z</time></trkpt><trkpt lat="44.27440283258673" lon="11.422021800287517"><ele>580.0</ele><time>2026-04-12T09:25:47Z</time></trkpt><trkpt lat="44.27446678778314" lon="11.421967902843372"><ele>580.8333333333334</ele><time>2026-04-12T09:25:48Z</time></trkpt><trkpt lat="44.27452576908453" lon="11.421920294994605"><ele>581.6666666666667</ele><time>2026-04-12T09:25:49Z</time></trkpt><trkpt lat="44.27459636883869" lon="11.421895613412069"><ele>582.5</ele><time>2026-04-12T09:25:50Z</time></trkpt><trkpt lat="44.27469107626462" lon="11.421871035615215"><ele>583.3333333333334</ele><time>2026-04-12T09:25:51Z</time></trkpt><trkpt lat="44.27478325129109" lon="11.421841912186304"><ele>584.1666666666666</ele><time>2026-04-12T09:25:52Z</time></trkpt><trkpt lat="44.2748725780694" lon="11.42182696654172"><ele>585.0</ele><time>2026-04-12T09:25:53Z</time></trkpt><trkpt lat="44.27497294410172" lon="11.421800523502107"><ele>585.0</ele><time>2026-04-12T09:25:54Z</time></trkpt><trkpt lat="44.27506011560614" lon="11.421780153223006"><ele>585.0</ele><time>2026-04-12T09:25:55Z</time></trkpt><trkpt lat="44.27513736816135" lon="11.421761276719351"><ele>585.0</ele><time>2026-04-12T09:25:56Z</time></trkpt><trkpt lat="44.27520892877407" lon="11.421737807709702"><ele>585.0</ele><time>2026-04-12T09:25:57Z</time></trkpt><trkpt lat="44.27528829012135" lon="11.42171631660843"><ele>585.0</ele><time>2026-04-12T09:25:58Z</time></trkpt><trkpt lat="44.27537168740039" lon="11.421708066364822"><ele>585.0</ele><time>2026-04-12T09:25:59Z</time></trkpt><trkpt lat="44.2754492733639" lon="11.421725963116199"><ele>585.0</ele><time>2026-04-12T09:26:00Z</time></trkpt><trkpt lat="44.27552040324938" lon="11.42176176190981"><ele>585.0</ele><time>2026-04-12T09:26:01Z</time></trkpt><trkpt lat="44.27558395377057" lon="11.421823051588534"><ele>585.0</ele><time>2026-04-12T09:26:02Z</time></trkpt><trkpt lat="44.27563579643938" lon="11.421898000697599"><ele>585.0</ele><time>2026-04-12T09:26:03Z</time></trkpt><trkpt lat="44.27568605768919" lon="11.421998248684936"><ele>585.0</ele><time>2026-04-12T09:26:04Z</time></trkpt><trkpt lat="44.275735068201485" lon="11.42210033818822"><ele>585.0</ele><time>2026-04-12T09:26:05Z</time></trkpt><trkpt lat="44.27580417865984" lon="11.422188499234677"><ele>582.8</ele><time>2026-04-12T09:26:06Z</time></trkpt><trkpt lat="44.275883315322346" lon="11.42227632572082"><ele>580.6</ele><time>2026-04-12T09:26:07Z</time></trkpt><trkpt lat="44.27596551228913" lon="11.422357263489031"><ele>578.4</ele><time>2026-04-12T09:26:08Z</time></trkpt><trkpt lat="44.276047105893376" lon="11.422429331982672"><ele>576.2</ele><time>2026-04-12T09:26:09Z</time></trkpt><trkpt lat="44.27613267332363" lon="11.422496678612996"><ele>574.0</ele><time>2026-04-12T09:26:10Z</time></trkpt><trkpt lat="44.276215122962704" lon="11.422565807777797"><ele>574.0</ele><time>2026-04-12T09:26:11Z</time></trkpt><trkpt lat="44.27629234360884" lon="11.42262572854514"><ele>574.0</ele><time>2026-04-12T09:26:12Z</time></trkpt><trkpt lat="44.27637123817746" lon="11.422689828952338"><ele>574.0</ele><time>2026-04-12T09:26:13Z</time></trkpt><trkpt lat="44.27644307917948" lon="11.422755740878282"><ele>574.0</ele><time>2026-04-12T09:26:14Z</time></trkpt><trkpt lat="44.27653021285042" lon="11.422824878789324"><ele>574.0</ele><time>2026-04-12T09:26:15Z</time></trkpt><trkpt lat="44.27660531267658" lon="11.422897662076803"><ele>573.6</ele><time>2026-04-12T09:26:16Z</time></trkpt><trkpt lat="44.276687748476824" lon="11.422948572799095"><ele>573.2</ele><time>2026-04-12T09:26:17Z</time></trkpt><trkpt lat="44.27678201407876" lon="11.422988422346354"><ele>572.8000000000001</ele><time>2026-04-12T09:26:18Z</time></trkpt><trkpt lat="44.276878937596926" lon="11.423009987962628"><ele>572.4</ele><time>2026-04-12T09:26:19Z</time></trkpt><trkpt lat="44.276979328889006" lon="11.423007385858234"><ele>572.0</ele><time>2026-04-12T09:26:20Z</time></trkpt><trkpt lat="44.277078440006505" lon="11.423006177792518"><ele>572.0</ele><time>2026-04-12T09:26:21Z</time></trkpt><trkpt lat="44.27717367186587" lon="11.423007952932313"><ele>572.0</ele><time>2026-04-12T09:26:22Z</time></trkpt><trkpt lat="44.27727141346811" lon="11.42301685887023"><ele>572.0</ele><time>2026-04-12T09:26:23Z</time></trkpt><trkpt lat="44.277369091346536" lon="11.423037409511442"><ele>572.0</ele><time>2026-04-12T09:26:24Z</time></trkpt><trkpt lat="44.27746007627363" lon="11.423062734206326"><ele>572.0</ele><time>2026-04-12T09:26:25Z</time></trkpt><trkpt lat="44.27755446588944" lon="11.423067386313656"><ele>572.6</ele><time>2026-04-12T09:26:26Z</time></trkpt><trkpt lat="44.2776443825077" lon="11.423102937565574"><ele>573.2</ele><time>2026-04-12T09:26:27Z</time></trkpt><trkpt lat="44.27773392686224" lon="11.423164363535369"><ele>573.8</ele><time>2026-04-12T09:26:28Z</time></trkpt><trkpt lat="44.277835464026346" lon="11.423220420185848"><ele>574.4</ele><time>2026-04-12T09:26:29Z</time></trkpt><trkpt lat="44.277951937854695" lon="11.423264048934154"><ele>575.0</ele><time>2026-04-12T09:26:30Z</time></trkpt><trkpt lat="44.27805794802087" lon="11.423279711713073"><ele>574.0</ele><time>2026-04-12T09:26:31Z</time></trkpt><trkpt lat="44.27815294298636" lon="11.423303433035766"><ele>573.0</ele><time>2026-04-12T09:26:32Z</time></trkpt><trkpt lat="44.2782457720872" lon="11.423339923165484"><ele>572.0</ele><time>2026-04-12T09:26:33Z</time></trkpt><trkpt lat="44.27833090319404" lon="11.423385758472257"><ele>571.0</ele><time>2026-04-12T09:26:34Z</time></trkpt><trkpt lat="44.27842251174611" lon="11.423442956388099"><ele>570.0</ele><time>2026-04-12T09:26:35Z</time></trkpt><trkpt lat="44.27851208510729" lon="11.423522528253965"><ele>570.0</ele><time>2026-04-12T09:26:36Z</time></trkpt><trkpt lat="44.278575977492366" lon="11.42359846629281"><ele>570.0</ele><time>2026-04-12T09:26:37Z</time></trkpt><trkpt lat="44.278629108641056" lon="11.423686437860958"><ele>570.0</ele><time>2026-04-12T09:26:38Z</time></trkpt><trkpt lat="44.278667720689114" lon="11.423771545716628"><ele>570.0</ele><time>2026-04-12T09:26:39Z</time></trkpt><trkpt lat="44.278712179901376" lon="11.423852830757395"><ele>570.0</ele><time>2026-04-12T09:26:40Z</time></trkpt><trkpt lat="44.2787777756101" lon="11.423925098329418"><ele>570.0</ele><time>2026-04-12T09:26:41Z</time></trkpt><trkpt lat="44.27886118719941" lon="11.423990909300093"><ele>569.5</ele><time>2026-04-12T09:26:42Z</time></trkpt><trkpt lat="44.278945238844386" lon="11.424041019724632"><ele>569.0</ele><time>2026-04-12T09:26:43Z</time></trkpt><trkpt lat="44.27903083647805" lon="11.42407675592428"><ele>568.5</ele><time>2026-04-12T09:26:44Z</time></trkpt><trkpt lat="44.279111118615084" lon="11.42409173303058"><ele>568.0</ele><time>2026-04-12T09:26:45Z</time></trkpt><trkpt lat="44.27918439575165" lon="11.424094795891651"><ele>567.5</ele><time>2026-04-12T09:26:46Z</time></trkpt><trkpt lat="44.27925520015585" lon="11.424093168455933"><ele>567.0</ele><time>2026-04-12T09:26:47Z</time></trkpt><trkpt lat="44.27935427858341" lon="11.424083699886227"><ele>567.0</ele><time>2026-04-12T09:26:49Z</time></trkpt><trkpt lat="44.27945299921627" lon="11.424099959054637"><ele>567.0</ele><time>2026-04-12T09:26:51Z</time></trkpt><trkpt lat="44.27956090387035" lon="11.424139864663175"><ele>567.0</ele><time>2026-04-12T09:26:53Z</time></trkpt><trkpt lat="44.27966005355613" lon="11.424209010160407"><ele>567.0</ele><time>2026-04-12T09:26:55Z</time></trkpt><trkpt lat="44.27972493872166" lon="11.424259033121157"><ele>567.0</ele><time>2026-04-12T09:26:56Z</time></trkpt><trkpt lat="44.27978440239918" lon="11.424312358722444"><ele>566.1666666666666</ele><time>2026-04-12T09:26:57Z</time></trkpt><trkpt lat="44.279851154895475" lon="11.424351439379231"><ele>565.3333333333334</ele><time>2026-04-12T09:26:58Z</time></trkpt><trkpt lat="44.27991566160997" lon="11.42436727519054"><ele>564.5</ele><time>2026-04-12T09:26:59Z</time></trkpt><trkpt lat="44.279979687333295" lon="11.424368591472344"><ele>563.6666666666667</ele><time>2026-04-12T09:27:00Z</time></trkpt><trkpt lat="44.280088806015485" lon="11.424349181043779"><ele>562.8333333333334</ele><time>2026-04-12T09:27:02Z</time></trkpt><trkpt lat="44.28020215564759" lon="11.424313648783404"><ele>562.0</ele><time>2026-04-12T09:27:04Z</time></trkpt><trkpt lat="44.28028442302493" lon="11.424237556713862"><ele>562.0</ele><time>2026-04-12T09:27:06Z</time></trkpt><trkpt lat="44.28039935212851" lon="11.42416893041826"><ele>562.0</ele><time>2026-04-12T09:27:08Z</time></trkpt><trkpt lat="44.28047320095659" lon="11.424135604947523"><ele>562.0</ele><time>2026-04-12T09:27:09Z</time></trkpt><trkpt lat="44.28054609057793" lon="11.424117257350092"><ele>562.0</ele><time>2026-04-12T09:27:10Z</time></trkpt><trkpt lat="44.280611607887" lon="11.424106941006796"><ele>562.0</ele><time>2026-04-12T09:27:11Z</time></trkpt><trkpt lat="44.280680804138235" lon="11.424103487174397"><ele>562.0</ele><time>2026-04-12T09:27:12Z</time></trkpt><trkpt lat="44.28074986674757" lon="11.424091594222926"><ele>561.8333333333334</ele><time>2026-04-12T09:27:13Z</time></trkpt><trkpt lat="44.280822714487975" lon="11.424064511355695"><ele>561.6666666666667</ele><time>2026-04-12T09:27:14Z</time></trkpt><trkpt lat="44.28090205985158" lon="11.424024189837146"><ele>561.5</ele><time>2026-04-12T09:27:15Z</time></trkpt><trkpt lat="44.28098086413493" lon="11.423971909852096"><ele>561.3333333333334</ele><time>2026-04-12T09:27:16Z</time></trkpt><trkpt lat="44.281054413989565" lon="11.423924707484737"><ele>561.1666666666666</ele><time>2026-04-12T09:27:17Z</time></trkpt><trkpt lat="44.28112001197361" lon="11.42388232965891"><ele>561.0</ele><time>2026-04-12T09:27:18Z</time></trkpt><trkpt lat="44.28119002296723" lon="11.423853086011206"><ele>561.0</ele><time>2026-04-12T09:27:19Z</time></trkpt><trkpt lat="44.28125992297172" lon="11.42385008179741"><ele>561.0</ele><time>2026-04-12T09:27:20Z</time></trkpt><trkpt lat="44.28133276411982" lon="11.423877038621077"><ele>561.0</ele><time>2026-04-12T09:27:21Z</time></trkpt><trkpt lat="44.281396263339154" lon="11.423945512738639"><ele>561.0</ele><time>2026-04-12T09:27:22Z</time></trkpt><trkpt lat="44.28147615491034" lon="11.424007097839647"><ele>561.0</ele><time>2026-04-12T09:27:23Z</time></trkpt><trkpt lat="44.281566553013434" lon="11.424054958173015"><ele>561.0</ele><time>2026-04-12T09:27:24Z</time></trkpt><trkpt lat="44.281645956331644" lon="11.424121208076707"><ele>559.8333333333334</ele><time>2026-04-12T09:27:25Z</time></trkpt><trkpt lat="44.28171645051933" lon="11.424197687469258"><ele>558.6666666666666</ele><time>2026-04-12T09:27:26Z</time></trkpt><trkpt lat="44.28177897340481" lon="11.42427808466831"><ele>557.5</ele><time>2026-04-12T09:27:27Z</time></trkpt><trkpt lat="44.28182457199793" lon="11.424374302780373"><ele>556.3333333333333</ele><time>2026-04-12T09:27:28Z</time></trkpt><trkpt lat="44.281886608547616" lon="11.424446011953297"><ele>555.1666666666666</ele><time>2026-04-12T09:27:29Z</time></trkpt><trkpt lat="44.28196645778875" lon="11.424484139494373"><ele>554.0</ele><time>2026-04-12T09:27:30Z</time></trkpt><trkpt lat="44.282049347269954" lon="11.424526682303794"><ele>554.0</ele><time>2026-04-12T09:27:31Z</time></trkpt><trkpt lat="44.28214272281413" lon="11.424560034137086"><ele>554.0</ele><time>2026-04-12T09:27:32Z</time></trkpt><trkpt lat="44.28223361155051" lon="11.424555876566032"><ele>554.0</ele><time>2026-04-12T09:27:33Z</time></trkpt><trkpt lat="44.28232538453515" lon="11.424547657293099"><ele>554.0</ele><time>2026-04-12T09:27:34Z</time></trkpt><trkpt lat="44.282416734003135" lon="11.424542669975004"><ele>554.0</ele><time>2026-04-12T09:27:35Z</time></trkpt><trkpt lat="44.282502442649076" lon="11.42456377694191"><ele>554.6</ele><time>2026-04-12T09:27:36Z</time></trkpt><trkpt lat="44.28257263814563" lon="11.42464146365756"><ele>555.2</ele><time>2026-04-12T09:27:37Z</time></trkpt><trkpt lat="44.28263713356112" lon="11.424724292237388"><ele>555.8000000000001</ele><time>2026-04-12T09:27:38Z</time></trkpt><trkpt lat="44.28272816728479" lon="11.424781950378481"><ele>556.4</ele><time>2026-04-12T09:27:39Z</time></trkpt><trkpt lat="44.28282526388311" lon="11.424822429969383"><ele>557.0</ele><time>2026-04-12T09:27:40Z</time></trkpt><trkpt lat="44.28293064600817" lon="11.424832323910124"><ele>557.0</ele><time>2026-04-12T09:27:41Z</time></trkpt><trkpt lat="44.28302725964881" lon="11.424825054436145"><ele>557.0</ele><time>2026-04-12T09:27:42Z</time></trkpt><trkpt lat="44.28312049586512" lon="11.424798329541359"><ele>557.0</ele><time>2026-04-12T09:27:43Z</time></trkpt><trkpt lat="44.28321919752433" lon="11.424810435415246"><ele>557.0</ele><time>2026-04-12T09:27:44Z</time></trkpt><trkpt lat="44.28331419789235" lon="11.424808623000025"><ele>557.0</ele><time>2026-04-12T09:27:45Z</time></trkpt><trkpt lat="44.28339889001569" lon="11.424801897460165"><ele>554.6</ele><time>2026-04-12T09:27:46Z</time></trkpt><trkpt lat="44.28348825000354" lon="11.424797100945154"><ele>552.2</ele><time>2026-04-12T09:27:47Z</time></trkpt><trkpt lat="44.2835888856005" lon="11.424769965343115"><ele>549.8</ele><time>2026-04-12T09:27:48Z</time></trkpt><trkpt lat="44.28368109089574" lon="11.424737673381719"><ele>547.4</ele><time>2026-04-12T09:27:49Z</time></trkpt><trkpt lat="44.28377653218086" lon="11.42471678624443"><ele>545.0</ele><time>2026-04-12T09:27:50Z</time></trkpt><trkpt lat="44.28386422100488" lon="11.424705996030603"><ele>543.2857142857143</ele><time>2026-04-12T09:27:51Z</time></trkpt><trkpt lat="44.283935259277946" lon="11.424692232767331"><ele>541.5714285714287</ele><time>2026-04-12T09:27:52Z</time></trkpt><trkpt lat="44.28400322309137" lon="11.424673894782329"><ele>539.8571428571429</ele><time>2026-04-12T09:27:53Z</time></trkpt><trkpt lat="44.284071685806886" lon="11.424656026975503"><ele>538.1428571428571</ele><time>2026-04-12T09:27:54Z</time></trkpt><trkpt lat="44.28414135172031" lon="11.42463444839423"><ele>536.4285714285713</ele><time>2026-04-12T09:27:55Z</time></trkpt><trkpt lat="44.284204020741264" lon="11.424602893501982"><ele>534.7142857142857</ele><time>2026-04-12T09:27:56Z</time></trkpt><trkpt lat="44.2842716519371" lon="11.424570236605675"><ele>533.0</ele><time>2026-04-12T09:27:57Z</time></trkpt><trkpt lat="44.284344797790396" lon="11.42453597760183"><ele>531.8</ele><time>2026-04-12T09:27:58Z</time></trkpt><trkpt lat="44.284419740558306" lon="11.424514592453514"><ele>530.5999999999999</ele><time>2026-04-12T09:27:59Z</time></trkpt><trkpt lat="44.28448936199712" lon="11.424501180233884"><ele>529.4000000000001</ele><time>2026-04-12T09:28:00Z</time></trkpt><trkpt lat="44.284610040038636" lon="11.424507575911525"><ele>528.2</ele><time>2026-04-12T09:28:02Z</time></trkpt><trkpt lat="44.2847077148985" lon="11.424496175898403"><ele>527.0</ele><time>2026-04-12T09:28:04Z</time></trkpt><trkpt lat="44.284796315335335" lon="11.424464362594351"><ele>527.0</ele><time>2026-04-12T09:28:06Z</time></trkpt><trkpt lat="44.28487067683777" lon="11.424444163391696"><ele>527.0</ele><time>2026-04-12T09:28:08Z</time></trkpt><trkpt lat="44.284951722872236" lon="11.424448823233703"><ele>527.0</ele><time>2026-04-12T09:28:12Z</time></trkpt><trkpt lat="44.28501865164574" lon="11.424459446448116"><ele>527.0</ele><time>2026-04-12T09:28:15Z</time></trkpt><trkpt lat="44.28508783606079" lon="11.424489141109468"><ele>527.0</ele><time>2026-04-12T09:28:18Z</time></trkpt><trkpt lat="44.28515251026705" lon="11.424375576605051"><ele>527.0</ele><time>2026-04-12T09:32:51Z</time></trkpt><trkpt lat="44.2850830353962" lon="11.42447543739383"><ele>527.0</ele><time>2026-04-12T09:32:54Z</time></trkpt><trkpt lat="44.28514009782564" lon="11.424520597341635"><ele>527.0</ele><time>2026-04-12T09:33:58Z</time></trkpt><trkpt lat="44.28513484589485" lon="11.42443050514588"><ele>527.0</ele><time>2026-04-12T09:34:02Z</time></trkpt><trkpt lat="44.28498521417821" lon="11.4244589509741"><ele>527.0</ele><time>2026-04-12T09:34:04Z</time></trkpt><trkpt lat="44.28489094448968" lon="11.424480811611456"><ele>527.0</ele><time>2026-04-12T09:34:05Z</time></trkpt><trkpt lat="44.28478041879909" lon="11.424441088284055"><ele>527.0</ele><time>2026-04-12T09:34:06Z</time></trkpt><trkpt lat="44.28467865982834" lon="11.42445945253377"><ele>527.0</ele><time>2026-04-12T09:34:07Z</time></trkpt><trkpt lat="44.28457850310775" lon="11.424466296976691"><ele>527.0</ele><time>2026-04-12T09:34:08Z</time></trkpt><trkpt lat="44.28447963764463" lon="11.424476151832039"><ele>527.0</ele><time>2026-04-12T09:34:09Z</time></trkpt><trkpt lat="44.28437719246894" lon="11.424496277413942"><ele>527.0</ele><time>2026-04-12T09:34:10Z</time></trkpt><trkpt lat="44.2842783274177" lon="11.424531602663052"><ele>527.0</ele><time>2026-04-12T09:34:11Z</time></trkpt><trkpt lat="44.28418566937179" lon="11.424569127087734"><ele>527.0</ele><time>2026-04-12T09:34:12Z</time></trkpt><trkpt lat="44.28409336998725" lon="11.42460783664768"><ele>527.0</ele><time>2026-04-12T09:34:13Z</time></trkpt><trkpt lat="44.28399814826547" lon="11.424663998531603"><ele>527.0</ele><time>2026-04-12T09:34:14Z</time></trkpt><trkpt lat="44.28389402414104" lon="11.424681427497337"><ele>527.0</ele><time>2026-04-12T09:34:15Z</time></trkpt><trkpt lat="44.28379168589871" lon="11.424705271451979"><ele>530.6</ele><time>2026-04-12T09:34:16Z</time></trkpt><trkpt lat="44.28369523347765" lon="11.424725867552405"><ele>534.2</ele><time>2026-04-12T09:34:17Z</time></trkpt><trkpt lat="44.28360198899268" lon="11.424745631988012"><ele>537.8</ele><time>2026-04-12T09:34:18Z</time></trkpt><trkpt lat="44.283509362332644" lon="11.42476288965337"><ele>541.4</ele><time>2026-04-12T09:34:19Z</time></trkpt><trkpt lat="44.28341415545114" lon="11.424773173223661"><ele>545.0</ele><time>2026-04-12T09:34:20Z</time></trkpt><trkpt lat="44.28330809052005" lon="11.424751371510418"><ele>545.0</ele><time>2026-04-12T09:34:21Z</time></trkpt><trkpt lat="44.28319383924808" lon="11.424772199910132"><ele>545.0</ele><time>2026-04-12T09:34:22Z</time></trkpt><trkpt lat="44.28307871242603" lon="11.424747043622434"><ele>545.0</ele><time>2026-04-12T09:34:23Z</time></trkpt><trkpt lat="44.282966704074994" lon="11.424752003221371"><ele>545.0</ele><time>2026-04-12T09:34:24Z</time></trkpt><trkpt lat="44.282865029368395" lon="11.424793501955051"><ele>544.2</ele><time>2026-04-12T09:34:25Z</time></trkpt><trkpt lat="44.282775604481834" lon="11.424785127140362"><ele>543.4</ele><time>2026-04-12T09:34:26Z</time></trkpt><trkpt lat="44.28270197130826" lon="11.424751807316042"><ele>542.6</ele><time>2026-04-12T09:34:27Z</time></trkpt><trkpt lat="44.28262870363832" lon="11.424643571145817"><ele>541.8</ele><time>2026-04-12T09:34:28Z</time></trkpt><trkpt lat="44.28253301478679" lon="11.424582115842393"><ele>541.0</ele><time>2026-04-12T09:34:29Z</time></trkpt><trkpt lat="44.28245076443348" lon="11.42452465012787"><ele>541.0</ele><time>2026-04-12T09:34:30Z</time></trkpt><trkpt lat="44.28234764511911" lon="11.424504281955887"><ele>541.0</ele><time>2026-04-12T09:34:31Z</time></trkpt><trkpt lat="44.28224832911003" lon="11.424516740462275"><ele>541.0</ele><time>2026-04-12T09:34:32Z</time></trkpt><trkpt lat="44.28214904426253" lon="11.424529300585473"><ele>541.0</ele><time>2026-04-12T09:34:33Z</time></trkpt><trkpt lat="44.28204359575743" lon="11.424513287960641"><ele>541.0</ele><time>2026-04-12T09:34:34Z</time></trkpt><trkpt lat="44.28194293649224" lon="11.424462387280023"><ele>543.1666666666667</ele><time>2026-04-12T09:34:35Z</time></trkpt><trkpt lat="44.28185239784698" lon="11.424392417586343"><ele>545.3333333333334</ele><time>2026-04-12T09:34:36Z</time></trkpt><trkpt lat="44.28180397258663" lon="11.4242771152751"><ele>547.5</ele><time>2026-04-12T09:34:37Z</time></trkpt><trkpt lat="44.2817341628559" lon="11.42420466998812"><ele>549.6666666666666</ele><time>2026-04-12T09:34:38Z</time></trkpt><trkpt lat="44.28167480230468" lon="11.424128797683712"><ele>551.8333333333333</ele><time>2026-04-12T09:34:39Z</time></trkpt><trkpt lat="44.28160793669937" lon="11.424064465114027"><ele>554.0</ele><time>2026-04-12T09:34:40Z</time></trkpt><trkpt lat="44.28153690551677" lon="11.42400862133312"><ele>554.0</ele><time>2026-04-12T09:34:41Z</time></trkpt><trkpt lat="44.28145975490782" lon="11.423956051595157"><ele>554.0</ele><time>2026-04-12T09:34:42Z</time></trkpt><trkpt lat="44.281385200147916" lon="11.423903603642295"><ele>554.0</ele><time>2026-04-12T09:34:43Z</time></trkpt><trkpt lat="44.28130892167285" lon="11.423854476740882"><ele>554.0</ele><time>2026-04-12T09:34:44Z</time></trkpt><trkpt lat="44.2812261970517" lon="11.423822573483239"><ele>554.0</ele><time>2026-04-12T09:34:45Z</time></trkpt><trkpt lat="44.28113869718359" lon="11.423830412155914"><ele>554.0</ele><time>2026-04-12T09:34:46Z</time></trkpt><trkpt lat="44.28105292767654" lon="11.42387742604413"><ele>555.4</ele><time>2026-04-12T09:34:47Z</time></trkpt><trkpt lat="44.28097087310588" lon="11.423946910634555"><ele>556.8</ele><time>2026-04-12T09:34:48Z</time></trkpt><trkpt lat="44.280886490158096" lon="11.424010329528851"><ele>558.2</ele><time>2026-04-12T09:34:49Z</time></trkpt><trkpt lat="44.28079860368803" lon="11.424058320931206"><ele>559.6</ele><time>2026-04-12T09:34:50Z</time></trkpt><trkpt lat="44.28070016631123" lon="11.424058350044726"><ele>561.0</ele><time>2026-04-12T09:34:51Z</time></trkpt><trkpt lat="44.28060138081218" lon="11.424082497010762"><ele>561.2</ele><time>2026-04-12T09:34:52Z</time></trkpt><trkpt lat="44.280494827926226" lon="11.424088326513116"><ele>561.4000000000001</ele><time>2026-04-12T09:34:53Z</time></trkpt><trkpt lat="44.28039233157956" lon="11.424119320504342"><ele>561.6</ele><time>2026-04-12T09:34:54Z</time></trkpt><trkpt lat="44.280298299598755" lon="11.424180976073776"><ele>561.8000000000001</ele><time>2026-04-12T09:34:55Z</time></trkpt><trkpt lat="44.28020292809869" lon="11.424250042498896"><ele>562.0</ele><time>2026-04-12T09:34:56Z</time></trkpt><trkpt lat="44.280116434002814" lon="11.424305314165554"><ele>562.0</ele><time>2026-04-12T09:34:57Z</time></trkpt><trkpt lat="44.28003261096615" lon="11.424340127967977"><ele>562.0</ele><time>2026-04-12T09:34:58Z</time></trkpt><trkpt lat="44.27995262909945" lon="11.424343392314096"><ele>562.0</ele><time>2026-04-12T09:34:59Z</time></trkpt><trkpt lat="44.27986834045021" lon="11.424325653224862"><ele>562.0</ele><time>2026-04-12T09:35:00Z</time></trkpt><trkpt lat="44.2797810793121" lon="11.424286607420905"><ele>562.0</ele><time>2026-04-12T09:35:01Z</time></trkpt><trkpt lat="44.27969896076289" lon="11.424210860024784"><ele>562.0</ele><time>2026-04-12T09:35:02Z</time></trkpt><trkpt lat="44.2796024096185" lon="11.424128631307914"><ele>563.0</ele><time>2026-04-12T09:35:03Z</time></trkpt><trkpt lat="44.27951325409794" lon="11.424068716168113"><ele>564.0</ele><time>2026-04-12T09:35:04Z</time></trkpt><trkpt lat="44.279424835399034" lon="11.42405450852503"><ele>565.0</ele><time>2026-04-12T09:35:05Z</time></trkpt><trkpt lat="44.27934528614502" lon="11.424049625153089"><ele>566.0</ele><time>2026-04-12T09:35:06Z</time></trkpt><trkpt lat="44.27925665541513" lon="11.424058955975646"><ele>567.0</ele><time>2026-04-12T09:35:07Z</time></trkpt><trkpt lat="44.27915825623072" lon="11.424065743493685"><ele>567.0</ele><time>2026-04-12T09:35:08Z</time></trkpt><trkpt lat="44.279058728130686" lon="11.424055204003597"><ele>567.0</ele><time>2026-04-12T09:35:09Z</time></trkpt><trkpt lat="44.27895846989026" lon="11.42402531160202"><ele>567.0</ele><time>2026-04-12T09:35:10Z</time></trkpt><trkpt lat="44.27886681273863" lon="11.423956757203017"><ele>567.0</ele><time>2026-04-12T09:35:11Z</time></trkpt><trkpt lat="44.278775828758434" lon="11.423884860435406"><ele>567.0</ele><time>2026-04-12T09:35:12Z</time></trkpt><trkpt lat="44.27869538008074" lon="11.423798889650339"><ele>567.6</ele><time>2026-04-12T09:35:13Z</time></trkpt><trkpt lat="44.278640940863056" lon="11.423686258977417"><ele>568.2</ele><time>2026-04-12T09:35:14Z</time></trkpt><trkpt lat="44.27858037957287" lon="11.423560182746094"><ele>568.8</ele><time>2026-04-12T09:35:15Z</time></trkpt><trkpt lat="44.278501912434635" lon="11.423462360420569"><ele>569.4</ele><time>2026-04-12T09:35:16Z</time></trkpt><trkpt lat="44.27841013503927" lon="11.423390189230341"><ele>570.0</ele><time>2026-04-12T09:35:17Z</time></trkpt><trkpt lat="44.278309686289774" lon="11.423332273930129"><ele>570.0</ele><time>2026-04-12T09:35:18Z</time></trkpt><trkpt lat="44.27819798457607" lon="11.423291232186713"><ele>570.0</ele><time>2026-04-12T09:35:19Z</time></trkpt><trkpt lat="44.27808387858502" lon="11.42326021424183"><ele>570.0</ele><time>2026-04-12T09:35:20Z</time></trkpt><trkpt lat="44.27796741762507" lon="11.423236013069255"><ele>570.0</ele><time>2026-04-12T09:35:21Z</time></trkpt><trkpt lat="44.277854183872" lon="11.42321004662649"><ele>571.25</ele><time>2026-04-12T09:35:22Z</time></trkpt><trkpt lat="44.27774177834135" lon="11.423168654614956"><ele>572.5</ele><time>2026-04-12T09:35:23Z</time></trkpt><trkpt lat="44.27764152075291" lon="11.423088540926829"><ele>573.75</ele><time>2026-04-12T09:35:24Z</time></trkpt><trkpt lat="44.2775322999255" lon="11.423014311797136"><ele>575.0</ele><time>2026-04-12T09:35:25Z</time></trkpt><trkpt lat="44.27741355508674" lon="11.423013176312361"><ele>575.0</ele><time>2026-04-12T09:35:26Z</time></trkpt><trkpt lat="44.277301391679615" lon="11.422997760538504"><ele>575.0</ele><time>2026-04-12T09:35:27Z</time></trkpt><trkpt lat="44.27718927952663" lon="11.42299211252332"><ele>575.0</ele><time>2026-04-12T09:35:28Z</time></trkpt><trkpt lat="44.277076469904614" lon="11.422983127689937"><ele>575.0</ele><time>2026-04-12T09:35:29Z</time></trkpt><trkpt lat="44.27696953083505" lon="11.42295834758382"><ele>575.0</ele><time>2026-04-12T09:35:30Z</time></trkpt><trkpt lat="44.276889292340286" lon="11.422952559706289"><ele>574.2</ele><time>2026-04-12T09:35:31Z</time></trkpt><trkpt lat="44.27681219933676" lon="11.422965573688243"><ele>573.4</ele><time>2026-04-12T09:35:32Z</time></trkpt><trkpt lat="44.27673760042341" lon="11.422950929453267"><ele>572.6</ele><time>2026-04-12T09:35:33Z</time></trkpt><trkpt lat="44.27665814686013" lon="11.422890746691857"><ele>571.8</ele><time>2026-04-12T09:35:34Z</time></trkpt><trkpt lat="44.276566972939165" lon="11.422828850819942"><ele>571.0</ele><time>2026-04-12T09:35:35Z</time></trkpt><trkpt lat="44.276473179673545" lon="11.422741897109267"><ele>571.75</ele><time>2026-04-12T09:35:36Z</time></trkpt><trkpt lat="44.276370827167675" lon="11.422652653250694"><ele>572.5</ele><time>2026-04-12T09:35:37Z</time></trkpt><trkpt lat="44.27627470852497" lon="11.422576614750717"><ele>573.25</ele><time>2026-04-12T09:35:38Z</time></trkpt><trkpt lat="44.27616791445529" lon="11.422497659267043"><ele>574.0</ele><time>2026-04-12T09:35:39Z</time></trkpt><trkpt lat="44.27606033993069" lon="11.422442886951746"><ele>574.0</ele><time>2026-04-12T09:35:40Z</time></trkpt><trkpt lat="44.27595755492525" lon="11.422360038385476"><ele>574.0</ele><time>2026-04-12T09:35:41Z</time></trkpt><trkpt lat="44.27587054235767" lon="11.422277004592969"><ele>574.0</ele><time>2026-04-12T09:35:42Z</time></trkpt><trkpt lat="44.27579542626442" lon="11.422189027685938"><ele>574.0</ele><time>2026-04-12T09:35:43Z</time></trkpt><trkpt lat="44.27573920241624" lon="11.422060882120057"><ele>574.0</ele><time>2026-04-12T09:35:44Z</time></trkpt><trkpt lat="44.27568121022449" lon="11.421928521247134"><ele>574.8333333333334</ele><time>2026-04-12T09:35:45Z</time></trkpt><trkpt lat="44.27561032219026" lon="11.421829938713545"><ele>575.6666666666667</ele><time>2026-04-12T09:35:46Z</time></trkpt><trkpt lat="44.27555354463537" lon="11.421745168670638"><ele>576.5</ele><time>2026-04-12T09:35:47Z</time></trkpt><trkpt lat="44.27544223229659" lon="11.421701706743635"><ele>577.3333333333334</ele><time>2026-04-12T09:35:49Z</time></trkpt><trkpt lat="44.275378653426145" lon="11.421699457064229"><ele>578.1666666666666</ele><time>2026-04-12T09:35:50Z</time></trkpt><trkpt lat="44.27529737474995" lon="11.421700017193398"><ele>579.0</ele><time>2026-04-12T09:35:51Z</time></trkpt><trkpt lat="44.275206190759015" lon="11.421705834219024"><ele>580.2</ele><time>2026-04-12T09:35:52Z</time></trkpt><trkpt lat="44.27510971848737" lon="11.421725128518881"><ele>581.4</ele><time>2026-04-12T09:35:53Z</time></trkpt><trkpt lat="44.27500932343858" lon="11.421760111060108"><ele>582.6</ele><time>2026-04-12T09:35:54Z</time></trkpt><trkpt lat="44.27490755734633" lon="11.42178611265097"><ele>583.8</ele><time>2026-04-12T09:35:55Z</time></trkpt><trkpt lat="44.274801306509026" lon="11.421798092145528"><ele>585.0</ele><time>2026-04-12T09:35:56Z</time></trkpt><trkpt lat="44.274701041470315" lon="11.421814091735415"><ele>585.2</ele><time>2026-04-12T09:35:57Z</time></trkpt><trkpt lat="44.274603420224985" lon="11.421832738346035"><ele>585.4</ele><time>2026-04-12T09:35:58Z</time></trkpt><trkpt lat="44.27450495602099" lon="11.421877428361288"><ele>585.6</ele><time>2026-04-12T09:35:59Z</time></trkpt><trkpt lat="44.274419863692835" lon="11.421954688353205"><ele>585.8</ele><time>2026-04-12T09:36:00Z</time></trkpt><trkpt lat="44.27433710162432" lon="11.422042504327102"><ele>586.0</ele><time>2026-04-12T09:36:01Z</time></trkpt><trkpt lat="44.27424563715337" lon="11.422099127438221"><ele>586.0</ele><time>2026-04-12T09:36:02Z</time></trkpt><trkpt lat="44.27413870800562" lon="11.422131402077099"><ele>586.0</ele><time>2026-04-12T09:36:03Z</time></trkpt><trkpt lat="44.27403457212334" lon="11.42217679692804"><ele>586.0</ele><time>2026-04-12T09:36:04Z</time></trkpt><trkpt lat="44.27393586355056" lon="11.42220972943547"><ele>586.0</ele><time>2026-04-12T09:36:05Z</time></trkpt><trkpt lat="44.27383128859175" lon="11.422204202722055"><ele>586.0</ele><time>2026-04-12T09:36:06Z</time></trkpt><trkpt lat="44.273737152952094" lon="11.422165095160492"><ele>585.4</ele><time>2026-04-12T09:36:07Z</time></trkpt><trkpt lat="44.27364347654078" lon="11.422099058801864"><ele>584.8</ele><time>2026-04-12T09:36:08Z</time></trkpt><trkpt lat="44.27355036574314" lon="11.422040524558176"><ele>584.1999999999999</ele><time>2026-04-12T09:36:09Z</time></trkpt><trkpt lat="44.273442895115636" lon="11.422018837682177"><ele>583.6</ele><time>2026-04-12T09:36:10Z</time></trkpt><trkpt lat="44.27333050916745" lon="11.422021508205969"><ele>583.0</ele><time>2026-04-12T09:36:11Z</time></trkpt><trkpt lat="44.27322218020562" lon="11.422005574318419"><ele>583.0</ele><time>2026-04-12T09:36:12Z</time></trkpt><trkpt lat="44.273100810461784" lon="11.422009337296954"><ele>583.0</ele><time>2026-04-12T09:36:13Z</time></trkpt><trkpt lat="44.272991355225216" lon="11.422009228650229"><ele>583.0</ele><time>2026-04-12T09:36:14Z</time></trkpt><trkpt lat="44.27287726735229" lon="11.422009228651206"><ele>583.0</ele><time>2026-04-12T09:36:15Z</time></trkpt><trkpt lat="44.27276189549289" lon="11.422009228654067"><ele>583.0</ele><time>2026-04-12T09:36:16Z</time></trkpt><trkpt lat="44.2726511036468" lon="11.422011367543877"><ele>583.0</ele><time>2026-04-12T09:36:17Z</time></trkpt><trkpt lat="44.27254505066166" lon="11.42201537416353"><ele>583.0</ele><time>2026-04-12T09:36:18Z</time></trkpt><trkpt lat="44.272430485632086" lon="11.4220214045316"><ele>583.0</ele><time>2026-04-12T09:36:19Z</time></trkpt><trkpt lat="44.27231313031941" lon="11.422030007050692"><ele>583.0</ele><time>2026-04-12T09:36:20Z</time></trkpt><trkpt lat="44.27219338575608" lon="11.422041615002488"><ele>583.5</ele><time>2026-04-12T09:36:21Z</time></trkpt><trkpt lat="44.272073021931575" lon="11.422060495502585"><ele>584.0</ele><time>2026-04-12T09:36:22Z</time></trkpt><trkpt lat="44.271957872482766" lon="11.42208660525492"><ele>584.5</ele><time>2026-04-12T09:36:23Z</time></trkpt><trkpt lat="44.27184117005544" lon="11.422144526555982"><ele>585.0</ele><time>2026-04-12T09:36:24Z</time></trkpt><trkpt lat="44.27172030513459" lon="11.422179353465031"><ele>586.25</ele><time>2026-04-12T09:36:25Z</time></trkpt><trkpt lat="44.27160832872558" lon="11.42220366940033"><ele>587.5</ele><time>2026-04-12T09:36:26Z</time></trkpt><trkpt lat="44.27148987083731" lon="11.42222134867488"><ele>588.75</ele><time>2026-04-12T09:36:27Z</time></trkpt><trkpt lat="44.27136526036566" lon="11.422198072014893"><ele>590.0</ele><time>2026-04-12T09:36:28Z</time></trkpt><trkpt lat="44.271239206856336" lon="11.422195517849579"><ele>590.0</ele><time>2026-04-12T09:36:29Z</time></trkpt><trkpt lat="44.27111073112865" lon="11.42219007771441"><ele>590.0</ele><time>2026-04-12T09:36:30Z</time></trkpt><trkpt lat="44.270981747084626" lon="11.422188930522447"><ele>590.0</ele><time>2026-04-12T09:36:31Z</time></trkpt><trkpt lat="44.27085738951284" lon="11.422218128752192"><ele>590.0</ele><time>2026-04-12T09:36:32Z</time></trkpt><trkpt lat="44.27074138384437" lon="11.422218642389529"><ele>590.0</ele><time>2026-04-12T09:36:33Z</time></trkpt><trkpt lat="44.270630855592884" lon="11.422225466695249"><ele>590.0</ele><time>2026-04-12T09:36:34Z</time></trkpt><trkpt lat="44.270519660196896" lon="11.422211918059922"><ele>590.0</ele><time>2026-04-12T09:36:35Z</time></trkpt><trkpt lat="44.27041309180382" lon="11.42223588468496"><ele>590.0</ele><time>2026-04-12T09:36:36Z</time></trkpt><trkpt lat="44.270302644206076" lon="11.422270181611278"><ele>590.0</ele><time>2026-04-12T09:36:37Z</time></trkpt><trkpt lat="44.27021065508443" lon="11.422322322343314"><ele>591.4</ele><time>2026-04-12T09:36:38Z</time></trkpt><trkpt lat="44.270125847725424" lon="11.422385697706487"><ele>592.8</ele><time>2026-04-12T09:36:39Z</time></trkpt><trkpt lat="44.2700423106416" lon="11.4224469337754"><ele>594.2</ele><time>2026-04-12T09:36:40Z</time></trkpt><trkpt lat="44.26995709538978" lon="11.422493438930921"><ele>595.6</ele><time>2026-04-12T09:36:41Z</time></trkpt><trkpt lat="44.269877926458676" lon="11.422532369824793"><ele>597.0</ele><time>2026-04-12T09:36:42Z</time></trkpt><trkpt lat="44.26979595202414" lon="11.422580246318946"><ele>597.8000000000001</ele><time>2026-04-12T09:36:43Z</time></trkpt><trkpt lat="44.26972030926455" lon="11.422661881993276"><ele>598.6</ele><time>2026-04-12T09:36:44Z</time></trkpt><trkpt lat="44.26967996780272" lon="11.422754199219073"><ele>599.4000000000001</ele><time>2026-04-12T09:36:45Z</time></trkpt><trkpt lat="44.26965851642901" lon="11.42284245029393"><ele>600.2</ele><time>2026-04-12T09:36:46Z</time></trkpt><trkpt lat="44.26959059460811" lon="11.422974827356922"><ele>601.0</ele><time>2026-04-12T09:36:48Z</time></trkpt><trkpt lat="44.2695010005087" lon="11.423042483921904"><ele>601.0</ele><time>2026-04-12T09:36:50Z</time></trkpt><trkpt lat="44.26944917482133" lon="11.423096569276082"><ele>601.0</ele><time>2026-04-12T09:36:51Z</time></trkpt><trkpt lat="44.26932983984916" lon="11.422970430790803"><ele>601.0</ele><time>2026-04-12T09:36:52Z</time></trkpt><trkpt lat="44.269258791620665" lon="11.422960302937057"><ele>601.0</ele><time>2026-04-12T09:36:53Z</time></trkpt><trkpt lat="44.269183948948914" lon="11.4229716503622"><ele>601.0</ele><time>2026-04-12T09:36:54Z</time></trkpt><trkpt lat="44.26911113745503" lon="11.422959290829564"><ele>601.0</ele><time>2026-04-12T09:36:55Z</time></trkpt><trkpt lat="44.269037518145836" lon="11.422942794033041"><ele>601.0</ele><time>2026-04-12T09:36:56Z</time></trkpt><trkpt lat="44.26894849954301" lon="11.422926058436186"><ele>601.0</ele><time>2026-04-12T09:36:57Z</time></trkpt><trkpt lat="44.26884380101913" lon="11.422920616394558"><ele>601.0</ele><time>2026-04-12T09:36:58Z</time></trkpt><trkpt lat="44.26872972520895" lon="11.422912011518426"><ele>601.0</ele><time>2026-04-12T09:36:59Z</time></trkpt><trkpt lat="44.26861396747036" lon="11.422903274190668"><ele>601.0</ele><time>2026-04-12T09:37:00Z</time></trkpt><trkpt lat="44.268492749171486" lon="11.422900550007022"><ele>600.75</ele><time>2026-04-12T09:37:01Z</time></trkpt><trkpt lat="44.268355964376944" lon="11.422916912521151"><ele>600.5</ele><time>2026-04-12T09:37:02Z</time></trkpt><trkpt lat="44.26820860893699" lon="11.422936683110523"><ele>600.25</ele><time>2026-04-12T09:37:03Z</time></trkpt><trkpt lat="44.26806436934174" lon="11.42295477143042"><ele>600.0</ele><time>2026-04-12T09:37:04Z</time></trkpt><trkpt lat="44.26792581862354" lon="11.422975932488324"><ele>599.75</ele><time>2026-04-12T09:37:05Z</time></trkpt><trkpt lat="44.26779226802375" lon="11.422993447544837"><ele>599.5</ele><time>2026-04-12T09:37:06Z</time></trkpt><trkpt lat="44.26766913651597" lon="11.423009919195072"><ele>599.25</ele><time>2026-04-12T09:37:07Z</time></trkpt><trkpt lat="44.26756387222234" lon="11.423035382772298"><ele>599.0</ele><time>2026-04-12T09:37:08Z</time></trkpt><trkpt lat="44.267460526512316" lon="11.423074043525354"><ele>599.0</ele><time>2026-04-12T09:37:09Z</time></trkpt><trkpt lat="44.26734182723096" lon="11.42315430867602"><ele>599.0</ele><time>2026-04-12T09:37:10Z</time></trkpt><trkpt lat="44.267216413859856" lon="11.423267900413734"><ele>599.0</ele><time>2026-04-12T09:37:11Z</time></trkpt><trkpt lat="44.267105967175084" lon="11.423383250920399"><ele>599.0</ele><time>2026-04-12T09:37:12Z</time></trkpt><trkpt lat="44.26700099325554" lon="11.423488848221092"><ele>599.75</ele><time>2026-04-12T09:37:13Z</time></trkpt><trkpt lat="44.26688627657983" lon="11.423573324690262"><ele>600.5</ele><time>2026-04-12T09:37:14Z</time></trkpt><trkpt lat="44.26675504909194" lon="11.42363883124036"><ele>601.25</ele><time>2026-04-12T09:37:15Z</time></trkpt><trkpt lat="44.26662068764937" lon="11.42369490921918"><ele>602.0</ele><time>2026-04-12T09:37:16Z</time></trkpt><trkpt lat="44.266501326573746" lon="11.423742655041002"><ele>603.25</ele><time>2026-04-12T09:37:17Z</time></trkpt><trkpt lat="44.266385092009294" lon="11.423770381625026"><ele>604.5</ele><time>2026-04-12T09:37:18Z</time></trkpt><trkpt lat="44.2662548108367" lon="11.423784491849078"><ele>605.75</ele><time>2026-04-12T09:37:19Z</time></trkpt><trkpt lat="44.26611473915058" lon="11.423804480053146"><ele>607.0</ele><time>2026-04-12T09:37:20Z</time></trkpt><trkpt lat="44.26598524015428" lon="11.423801591397629"><ele>607.0</ele><time>2026-04-12T09:37:21Z</time></trkpt><trkpt lat="44.265851850529785" lon="11.423798279243332"><ele>607.0</ele><time>2026-04-12T09:37:22Z</time></trkpt><trkpt lat="44.26571033843754" lon="11.423794881235796"><ele>607.0</ele><time>2026-04-12T09:37:23Z</time></trkpt><trkpt lat="44.26558479860253" lon="11.423805118086344"><ele>607.0</ele><time>2026-04-12T09:37:24Z</time></trkpt><trkpt lat="44.2654695163551" lon="11.423820391007977"><ele>610.25</ele><time>2026-04-12T09:37:25Z</time></trkpt><trkpt lat="44.265337585116754" lon="11.42383049368588"><ele>613.5</ele><time>2026-04-12T09:37:26Z</time></trkpt><trkpt lat="44.26521050906974" lon="11.42383641062095"><ele>616.75</ele><time>2026-04-12T09:37:27Z</time></trkpt><trkpt lat="44.265084241391044" lon="11.42384333199808"><ele>620.0</ele><time>2026-04-12T09:37:28Z</time></trkpt><trkpt lat="44.26496219023563" lon="11.423850779423116"><ele>620.0</ele><time>2026-04-12T09:37:29Z</time></trkpt><trkpt lat="44.26483382226864" lon="11.423863596554565"><ele>620.0</ele><time>2026-04-12T09:37:30Z</time></trkpt><trkpt lat="44.26470953713668" lon="11.423868169831065"><ele>620.0</ele><time>2026-04-12T09:37:31Z</time></trkpt><trkpt lat="44.264605956963955" lon="11.423848661971922"><ele>620.0</ele><time>2026-04-12T09:37:32Z</time></trkpt><trkpt lat="44.2645235396067" lon="11.423841688563853"><ele>620.0</ele><time>2026-04-12T09:37:33Z</time></trkpt><trkpt lat="44.264428829846445" lon="11.423819639004673"><ele>619.8</ele><time>2026-04-12T09:37:35Z</time></trkpt><trkpt lat="44.26434742033621" lon="11.423771796841388"><ele>619.6</ele><time>2026-04-12T09:37:37Z</time></trkpt><trkpt lat="44.26426790037868" lon="11.423860594780122"><ele>619.4</ele><time>2026-04-12T09:37:38Z</time></trkpt><trkpt lat="44.26413175223366" lon="11.423899490836714"><ele>619.2</ele><time>2026-04-12T09:37:40Z</time></trkpt><trkpt lat="44.26404462721454" lon="11.423923169767978"><ele>619.0</ele><time>2026-04-12T09:37:41Z</time></trkpt><trkpt lat="44.26396027675486" lon="11.423893085674885"><ele>621.0</ele><time>2026-04-12T09:37:42Z</time></trkpt><trkpt lat="44.26387282029718" lon="11.423896616711865"><ele>623.0</ele><time>2026-04-12T09:37:43Z</time></trkpt><trkpt lat="44.26378488830526" lon="11.423930163989523"><ele>625.0</ele><time>2026-04-12T09:37:44Z</time></trkpt><trkpt lat="44.26368878128788" lon="11.423938082288641"><ele>627.0</ele><time>2026-04-12T09:37:45Z</time></trkpt><trkpt lat="44.26359106826278" lon="11.423953982711856"><ele>629.0</ele><time>2026-04-12T09:37:46Z</time></trkpt><trkpt lat="44.26347206073472" lon="11.424006447945917"><ele>629.0</ele><time>2026-04-12T09:37:47Z</time></trkpt><trkpt lat="44.26334065813755" lon="11.424046082980217"><ele>629.0</ele><time>2026-04-12T09:37:48Z</time></trkpt><trkpt lat="44.26322450912901" lon="11.424072391273198"><ele>629.0</ele><time>2026-04-12T09:37:49Z</time></trkpt><trkpt lat="44.263102541024104" lon="11.424114420135027"><ele>629.0</ele><time>2026-04-12T09:37:50Z</time></trkpt><trkpt lat="44.26297226529286" lon="11.42416146365794"><ele>630.5</ele><time>2026-04-12T09:37:51Z</time></trkpt><trkpt lat="44.262854925858036" lon="11.424195104278972"><ele>632.0</ele><time>2026-04-12T09:37:52Z</time></trkpt><trkpt lat="44.262740800492715" lon="11.42422706881137"><ele>633.5</ele><time>2026-04-12T09:37:53Z</time></trkpt><trkpt lat="44.26262487036148" lon="11.42424920323842"><ele>635.0</ele><time>2026-04-12T09:37:54Z</time></trkpt><trkpt lat="44.26252856701976" lon="11.424268001437241"><ele>635.0</ele><time>2026-04-12T09:37:55Z</time></trkpt><trkpt lat="44.26244770073572" lon="11.424263246629028"><ele>635.0</ele><time>2026-04-12T09:37:56Z</time></trkpt><trkpt lat="44.262360484102366" lon="11.424233936357336"><ele>635.0</ele><time>2026-04-12T09:37:57Z</time></trkpt><trkpt lat="44.26228508106212" lon="11.42417740689731"><ele>635.0</ele><time>2026-04-12T09:37:58Z</time></trkpt><trkpt lat="44.262203831610826" lon="11.424110043042145"><ele>635.0</ele><time>2026-04-12T09:37:59Z</time></trkpt><trkpt lat="44.26212619664039" lon="11.424042611022001"><ele>635.0</ele><time>2026-04-12T09:38:00Z</time></trkpt><trkpt lat="44.26206323506232" lon="11.42397215898234"><ele>636.4</ele><time>2026-04-12T09:38:01Z</time></trkpt><trkpt lat="44.2619753961275" lon="11.423879656593064"><ele>637.8</ele><time>2026-04-12T09:38:02Z</time></trkpt><trkpt lat="44.26188545872756" lon="11.423806522742833"><ele>639.2</ele><time>2026-04-12T09:38:03Z</time></trkpt><trkpt lat="44.26179890012372" lon="11.423720002350175"><ele>640.6</ele><time>2026-04-12T09:38:04Z</time></trkpt><trkpt lat="44.261706582772206" lon="11.423626842193247"><ele>642.0</ele><time>2026-04-12T09:38:05Z</time></trkpt><trkpt lat="44.26161791289156" lon="11.423539155117442"><ele>642.2</ele><time>2026-04-12T09:38:06Z</time></trkpt><trkpt lat="44.26151852601115" lon="11.42345824808913"><ele>642.4000000000001</ele><time>2026-04-12T09:38:07Z</time></trkpt><trkpt lat="44.261421310119026" lon="11.423390451279744"><ele>642.5999999999999</ele><time>2026-04-12T09:38:08Z</time></trkpt><trkpt lat="44.26132627081867" lon="11.423308948009671"><ele>642.8</ele><time>2026-04-12T09:38:09Z</time></trkpt><trkpt lat="44.26123079687236" lon="11.423232397030894"><ele>643.0</ele><time>2026-04-12T09:38:10Z</time></trkpt><trkpt lat="44.261153100083824" lon="11.423151522798582"><ele>645.0</ele><time>2026-04-12T09:38:11Z</time></trkpt><trkpt lat="44.26106998859994" lon="11.423075897200306"><ele>647.0</ele><time>2026-04-12T09:38:12Z</time></trkpt><trkpt lat="44.26097712980136" lon="11.422994192446135"><ele>649.0</ele><time>2026-04-12T09:38:13Z</time></trkpt><trkpt lat="44.26088905664443" lon="11.42291346245877"><ele>651.0</ele><time>2026-04-12T09:38:14Z</time></trkpt><trkpt lat="44.260814663059875" lon="11.422858155007457"><ele>653.0</ele><time>2026-04-12T09:38:15Z</time></trkpt><trkpt lat="44.260750681033926" lon="11.422846293683774"><ele>653.0</ele><time>2026-04-12T09:38:16Z</time></trkpt><trkpt lat="44.26067578856465" lon="11.422822184738362"><ele>653.0</ele><time>2026-04-12T09:38:17Z</time></trkpt><trkpt lat="44.26058476467515" lon="11.422825504439622"><ele>653.0</ele><time>2026-04-12T09:38:18Z</time></trkpt><trkpt lat="44.260463012544804" lon="11.422825835935475"><ele>653.0</ele><time>2026-04-12T09:38:19Z</time></trkpt><trkpt lat="44.26030953094702" lon="11.422830221064789"><ele>653.0</ele><time>2026-04-12T09:38:20Z</time></trkpt><trkpt lat="44.2601585021373" lon="11.422834721057217"><ele>654.75</ele><time>2026-04-12T09:38:21Z</time></trkpt><trkpt lat="44.26002555461893" lon="11.422831122093918"><ele>656.5</ele><time>2026-04-12T09:38:22Z</time></trkpt><trkpt lat="44.259907801345236" lon="11.42283996724766"><ele>658.25</ele><time>2026-04-12T09:38:23Z</time></trkpt><trkpt lat="44.25976774938977" lon="11.422838186097922"><ele>660.0</ele><time>2026-04-12T09:38:24Z</time></trkpt><trkpt lat="44.25961081787182" lon="11.422842026285462"><ele>662.0</ele><time>2026-04-12T09:38:25Z</time></trkpt><trkpt lat="44.259456085917094" lon="11.422828325278008"><ele>664.0</ele><time>2026-04-12T09:38:26Z</time></trkpt><trkpt lat="44.25931925411319" lon="11.422829751820503"><ele>666.0</ele><time>2026-04-12T09:38:27Z</time></trkpt><trkpt lat="44.25918553652734" lon="11.422827642726338"><ele>668.0</ele><time>2026-04-12T09:38:28Z</time></trkpt><trkpt lat="44.2590491094514" lon="11.422824848133068"><ele>669.75</ele><time>2026-04-12T09:38:29Z</time></trkpt><trkpt lat="44.25889940535191" lon="11.42283483077736"><ele>671.5</ele><time>2026-04-12T09:38:30Z</time></trkpt><trkpt lat="44.2587494734542" lon="11.422834503803958"><ele>673.25</ele><time>2026-04-12T09:38:31Z</time></trkpt><trkpt lat="44.25860524827194" lon="11.422844765992314"><ele>675.0</ele><time>2026-04-12T09:38:32Z</time></trkpt><trkpt lat="44.25845858037072" lon="11.422842157200648"><ele>675.0</ele><time>2026-04-12T09:38:33Z</time></trkpt><trkpt lat="44.25832401453813" lon="11.422844748034455"><ele>675.0</ele><time>2026-04-12T09:38:34Z</time></trkpt><trkpt lat="44.25819577091067" lon="11.422841107869525"><ele>675.0</ele><time>2026-04-12T09:38:35Z</time></trkpt><trkpt lat="44.25807568290231" lon="11.422839104610567"><ele>675.0</ele><time>2026-04-12T09:38:36Z</time></trkpt><trkpt lat="44.25795978185691" lon="11.422839567879713"><ele>676.5</ele><time>2026-04-12T09:38:37Z</time></trkpt><trkpt lat="44.257850489477015" lon="11.422836848016606"><ele>678.0</ele><time>2026-04-12T09:38:38Z</time></trkpt><trkpt lat="44.25773871555295" lon="11.422846726103336"><ele>679.5</ele><time>2026-04-12T09:38:39Z</time></trkpt><trkpt lat="44.25761020006607" lon="11.4228452961993"><ele>681.0</ele><time>2026-04-12T09:38:40Z</time></trkpt><trkpt lat="44.25747809866696" lon="11.422839962495297"><ele>681.0</ele><time>2026-04-12T09:38:41Z</time></trkpt><trkpt lat="44.25735201338713" lon="11.422813630491449"><ele>681.0</ele><time>2026-04-12T09:38:42Z</time></trkpt><trkpt lat="44.25723052234674" lon="11.422752587538204"><ele>681.0</ele><time>2026-04-12T09:38:43Z</time></trkpt><trkpt lat="44.2571012079238" lon="11.42269167138773"><ele>681.0</ele><time>2026-04-12T09:38:44Z</time></trkpt><trkpt lat="44.25697751301202" lon="11.422649415513684"><ele>681.25</ele><time>2026-04-12T09:38:45Z</time></trkpt><trkpt lat="44.25685045694345" lon="11.422620789537627"><ele>681.5</ele><time>2026-04-12T09:38:46Z</time></trkpt><trkpt lat="44.25672917399482" lon="11.422587061264123"><ele>681.75</ele><time>2026-04-12T09:38:47Z</time></trkpt><trkpt lat="44.256611205601075" lon="11.422566630350346"><ele>682.0</ele><time>2026-04-12T09:38:48Z</time></trkpt><trkpt lat="44.256510440518504" lon="11.422600143982018"><ele>681.5</ele><time>2026-04-12T09:38:49Z</time></trkpt><trkpt lat="44.25639977826745" lon="11.42264525444251"><ele>681.0</ele><time>2026-04-12T09:38:50Z</time></trkpt><trkpt lat="44.25628678425783" lon="11.42276210273862"><ele>680.5</ele><time>2026-04-12T09:38:51Z</time></trkpt><trkpt lat="44.25619390835196" lon="11.422893907295409"><ele>680.0</ele><time>2026-04-12T09:38:52Z</time></trkpt><trkpt lat="44.25610289151383" lon="11.423017218318346"><ele>681.5</ele><time>2026-04-12T09:38:53Z</time></trkpt><trkpt lat="44.255999035314524" lon="11.423162740392979"><ele>683.0</ele><time>2026-04-12T09:38:54Z</time></trkpt><trkpt lat="44.25589098356692" lon="11.423291369160731"><ele>684.5</ele><time>2026-04-12T09:38:55Z</time></trkpt><trkpt lat="44.255792220728786" lon="11.423356671312991"><ele>686.0</ele><time>2026-04-12T09:38:56Z</time></trkpt><trkpt lat="44.255693916045445" lon="11.423378004421364"><ele>686.5999999999999</ele><time>2026-04-12T09:38:57Z</time></trkpt><trkpt lat="44.25558365759225" lon="11.423356519554204"><ele>687.2</ele><time>2026-04-12T09:38:58Z</time></trkpt><trkpt lat="44.255476368347225" lon="11.423342647220482"><ele>687.8</ele><time>2026-04-12T09:38:59Z</time></trkpt><trkpt lat="44.255353255248984" lon="11.423320887915846"><ele>688.4000000000001</ele><time>2026-04-12T09:39:00Z</time></trkpt><trkpt lat="44.255251967427924" lon="11.423333402197493"><ele>689.0</ele><time>2026-04-12T09:39:01Z</time></trkpt><trkpt lat="44.25516128628413" lon="11.423350287139453"><ele>689.0</ele><time>2026-04-12T09:39:02Z</time></trkpt><trkpt lat="44.25505115455496" lon="11.42342323105753"><ele>689.0</ele><time>2026-04-12T09:39:03Z</time></trkpt><trkpt lat="44.25495749703103" lon="11.423520603984654"><ele>689.0</ele><time>2026-04-12T09:39:04Z</time></trkpt><trkpt lat="44.25486000110769" lon="11.423653270070197"><ele>689.0</ele><time>2026-04-12T09:39:05Z</time></trkpt><trkpt lat="44.254766397880275" lon="11.423811524627645"><ele>691.5</ele><time>2026-04-12T09:39:06Z</time></trkpt><trkpt lat="44.25466751762742" lon="11.42395802053293"><ele>694.0</ele><time>2026-04-12T09:39:07Z</time></trkpt><trkpt lat="44.25454991125093" lon="11.424078235682723"><ele>696.5</ele><time>2026-04-12T09:39:08Z</time></trkpt><trkpt lat="44.254434641405005" lon="11.424222015061346"><ele>699.0</ele><time>2026-04-12T09:39:09Z</time></trkpt><trkpt lat="44.254305167699926" lon="11.424391430025175"><ele>699.0</ele><time>2026-04-12T09:39:10Z</time></trkpt><trkpt lat="44.254169184056195" lon="11.424546389276506"><ele>699.0</ele><time>2026-04-12T09:39:11Z</time></trkpt><trkpt lat="44.254051889718085" lon="11.42468985328506"><ele>699.0</ele><time>2026-04-12T09:39:12Z</time></trkpt><trkpt lat="44.25392646787536" lon="11.424827636876266"><ele>702.0</ele><time>2026-04-12T09:39:13Z</time></trkpt><trkpt lat="44.253808696533255" lon="11.424982570831643"><ele>705.0</ele><time>2026-04-12T09:39:14Z</time></trkpt><trkpt lat="44.25367606125714" lon="11.425108969338032"><ele>708.0</ele><time>2026-04-12T09:39:15Z</time></trkpt><trkpt lat="44.253545193311076" lon="11.425212076943456"><ele>708.0</ele><time>2026-04-12T09:39:16Z</time></trkpt><trkpt lat="44.25342140833548" lon="11.425287512150925"><ele>708.0</ele><time>2026-04-12T09:39:17Z</time></trkpt><trkpt lat="44.253304633600365" lon="11.42535753826066"><ele>708.0</ele><time>2026-04-12T09:39:18Z</time></trkpt><trkpt lat="44.253185339502195" lon="11.425398121032433"><ele>708.0</ele><time>2026-04-12T09:39:19Z</time></trkpt><trkpt lat="44.25306200984317" lon="11.425431378459045"><ele>708.75</ele><time>2026-04-12T09:39:20Z</time></trkpt><trkpt lat="44.25292564155589" lon="11.42547056845224"><ele>709.5</ele><time>2026-04-12T09:39:21Z</time></trkpt><trkpt lat="44.25278798648786" lon="11.425531348124355"><ele>710.25</ele><time>2026-04-12T09:39:22Z</time></trkpt><trkpt lat="44.25263967628163" lon="11.425601147415916"><ele>711.0</ele><time>2026-04-12T09:39:23Z</time></trkpt><trkpt lat="44.25250920089611" lon="11.425660084891387"><ele>713.75</ele><time>2026-04-12T09:39:24Z</time></trkpt><trkpt lat="44.25239073057121" lon="11.425693667365667"><ele>716.5</ele><time>2026-04-12T09:39:25Z</time></trkpt><trkpt lat="44.252269756544145" lon="11.425732052299255"><ele>719.25</ele><time>2026-04-12T09:39:26Z</time></trkpt><trkpt lat="44.25214031270698" lon="11.425773095531579"><ele>722.0</ele><time>2026-04-12T09:39:27Z</time></trkpt><trkpt lat="44.25201725226265" lon="11.425841124523593"><ele>722.0</ele><time>2026-04-12T09:39:28Z</time></trkpt><trkpt lat="44.25190024036943" lon="11.425933528924489"><ele>722.0</ele><time>2026-04-12T09:39:29Z</time></trkpt><trkpt lat="44.251788076848484" lon="11.42604083058089"><ele>722.0</ele><time>2026-04-12T09:39:30Z</time></trkpt><trkpt lat="44.25166009002" lon="11.426164303038211"><ele>722.0</ele><time>2026-04-12T09:39:31Z</time></trkpt><trkpt lat="44.251525037317045" lon="11.426313242550089"><ele>724.6666666666666</ele><time>2026-04-12T09:39:32Z</time></trkpt><trkpt lat="44.2514007686224" lon="11.42645330845464"><ele>727.3333333333334</ele><time>2026-04-12T09:39:33Z</time></trkpt><trkpt lat="44.251280429752995" lon="11.426596134416462"><ele>730.0</ele><time>2026-04-12T09:39:34Z</time></trkpt><trkpt lat="44.25116799201416" lon="11.42672052070566"><ele>730.0</ele><time>2026-04-12T09:39:35Z</time></trkpt><trkpt lat="44.251055428661935" lon="11.426842735252322"><ele>730.0</ele><time>2026-04-12T09:39:36Z</time></trkpt><trkpt lat="44.250949230347175" lon="11.426968485665537"><ele>730.0</ele><time>2026-04-12T09:39:37Z</time></trkpt><trkpt lat="44.250855870037306" lon="11.427098144076385"><ele>730.0</ele><time>2026-04-12T09:39:38Z</time></trkpt><trkpt lat="44.25076868136362" lon="11.427242508756146"><ele>730.2</ele><time>2026-04-12T09:39:39Z</time></trkpt><trkpt lat="44.25070323252527" lon="11.427386614906775"><ele>730.4</ele><time>2026-04-12T09:39:40Z</time></trkpt><trkpt lat="44.25065917994228" lon="11.427541111307711"><ele>730.5999999999999</ele><time>2026-04-12T09:39:41Z</time></trkpt><trkpt lat="44.250627453921496" lon="11.427692918465413"><ele>730.8</ele><time>2026-04-12T09:39:42Z</time></trkpt><trkpt lat="44.250603553902934" lon="11.42780341970873"><ele>731.0</ele><time>2026-04-12T09:39:43Z</time></trkpt><trkpt lat="44.250586792231395" lon="11.427891017272326"><ele>732.8</ele><time>2026-04-12T09:39:45Z</time></trkpt><trkpt lat="44.25050970735032" lon="11.427898288788226"><ele>734.5999999999999</ele><time>2026-04-12T09:40:41Z</time></trkpt><trkpt lat="44.25039971115487" lon="11.42798788720365"><ele>736.4</ele><time>2026-04-12T09:40:43Z</time></trkpt><trkpt lat="44.25028899993301" lon="11.428056774259183"><ele>738.2</ele><time>2026-04-12T09:40:45Z</time></trkpt><trkpt lat="44.250210734329755" lon="11.428073264894467"><ele>740.0</ele><time>2026-04-12T09:40:46Z</time></trkpt><trkpt lat="44.250129330101664" lon="11.428105006637171"><ele>740.3333333333333</ele><time>2026-04-12T09:40:47Z</time></trkpt><trkpt lat="44.25003722849516" lon="11.428137664468304"><ele>740.6666666666666</ele><time>2026-04-12T09:40:48Z</time></trkpt><trkpt lat="44.24996827869667" lon="11.428151936566792"><ele>741.0</ele><time>2026-04-12T09:40:49Z</time></trkpt><trkpt lat="44.249905948882024" lon="11.428133793337578"><ele>741.3333333333334</ele><time>2026-04-12T09:40:50Z</time></trkpt><trkpt lat="44.24980588684806" lon="11.428094902061629"><ele>741.6666666666667</ele><time>2026-04-12T09:40:52Z</time></trkpt><trkpt lat="44.24972567042243" lon="11.428033689926579"><ele>742.0</ele><time>2026-04-12T09:40:54Z</time></trkpt><trkpt lat="44.24961729158785" lon="11.428011808875546"><ele>741.75</ele><time>2026-04-12T09:40:56Z</time></trkpt><trkpt lat="44.249531048506825" lon="11.427754061567704"><ele>741.5</ele><time>2026-04-12T09:40:57Z</time></trkpt><trkpt lat="44.24946615332205" lon="11.427762961495214"><ele>741.25</ele><time>2026-04-12T09:40:58Z</time></trkpt><trkpt lat="44.24943564711799" lon="11.427964451998184"><ele>741.0</ele><time>2026-04-12T09:40:59Z</time></trkpt><trkpt lat="44.24936660415286" lon="11.427927601222596"><ele>741.0</ele><time>2026-04-12T09:41:00Z</time></trkpt><trkpt lat="44.24926195652492" lon="11.427848631582567"><ele>741.0</ele><time>2026-04-12T09:41:02Z</time></trkpt><trkpt lat="44.24917855291721" lon="11.427808555145909"><ele>741.0</ele><time>2026-04-12T09:41:04Z</time></trkpt><trkpt lat="44.24907629527288" lon="11.42779947663579"><ele>741.0</ele><time>2026-04-12T09:41:07Z</time></trkpt><trkpt lat="44.249003773267994" lon="11.427770392356443"><ele>741.0</ele><time>2026-04-12T09:41:10Z</time></trkpt><trkpt lat="44.248999222310104" lon="11.427860053073092"><ele>741.0</ele><time>2026-04-12T09:41:12Z</time></trkpt><trkpt lat="44.24908899044702" lon="11.427844655310501"><ele>741.0</ele><time>2026-04-12T09:41:15Z</time></trkpt><trkpt lat="44.24917371128354" lon="11.427825036683727"><ele>741.0</ele><time>2026-04-12T09:41:17Z</time></trkpt><trkpt lat="44.24923525800432" lon="11.427802093843106"><ele>741.0</ele><time>2026-04-12T09:41:19Z</time></trkpt><trkpt lat="44.24931648559307" lon="11.42779159409981"><ele>741.0</ele><time>2026-04-12T09:41:21Z</time></trkpt><trkpt lat="44.24938777567372" lon="11.427790392325152"><ele>741.0</ele><time>2026-04-12T09:41:22Z</time></trkpt><trkpt lat="44.24948489538677" lon="11.427782173431915"><ele>741.0</ele><time>2026-04-12T09:41:23Z</time></trkpt><trkpt lat="44.2495796601842" lon="11.427782023572954"><ele>741.0</ele><time>2026-04-12T09:41:24Z</time></trkpt><trkpt lat="44.24967893169099" lon="11.42776646846809"><ele>741.0</ele><time>2026-04-12T09:41:25Z</time></trkpt><trkpt lat="44.24979199574641" lon="11.427745894272855"><ele>741.0</ele><time>2026-04-12T09:41:26Z</time></trkpt><trkpt lat="44.24990443453789" lon="11.427763696575248"><ele>741.0</ele><time>2026-04-12T09:41:27Z</time></trkpt><trkpt lat="44.25001825250336" lon="11.427759439329302"><ele>741.0</ele><time>2026-04-12T09:41:28Z</time></trkpt><trkpt lat="44.250128519644186" lon="11.427710625711244"><ele>740.8333333333334</ele><time>2026-04-12T09:41:29Z</time></trkpt><trkpt lat="44.250209367765606" lon="11.427711920813408"><ele>740.6666666666666</ele><time>2026-04-12T09:41:30Z</time></trkpt><trkpt lat="44.250309648987894" lon="11.427705350108779"><ele>740.5</ele><time>2026-04-12T09:41:32Z</time></trkpt><trkpt lat="44.250383289890834" lon="11.42771011482888"><ele>740.3333333333333</ele><time>2026-04-12T09:41:35Z</time></trkpt><trkpt lat="44.25038314075794" lon="11.42779980025331"><ele>740.1666666666666</ele><time>2026-04-12T09:42:19Z</time></trkpt><trkpt lat="44.25032252893534" lon="11.427746251038347"><ele>740.0</ele><time>2026-04-12T09:42:22Z</time></trkpt><trkpt lat="44.25025125941324" lon="11.42774694247512"><ele>740.0</ele><time>2026-04-12T09:42:23Z</time></trkpt><trkpt lat="44.25011965580614" lon="11.427763205316896"><ele>740.0</ele><time>2026-04-12T09:42:24Z</time></trkpt><trkpt lat="44.24996803280979" lon="11.427784008202185"><ele>740.0</ele><time>2026-04-12T09:42:25Z</time></trkpt><trkpt lat="44.24977826116877" lon="11.427725121353445"><ele>740.2</ele><time>2026-04-12T09:42:26Z</time></trkpt><trkpt lat="44.24963732037921" lon="11.427739681900958"><ele>740.4</ele><time>2026-04-12T09:42:27Z</time></trkpt><trkpt lat="44.24954396313226" lon="11.427752290447932"><ele>740.5999999999999</ele><time>2026-04-12T09:42:28Z</time></trkpt><trkpt lat="44.24947612566322" lon="11.427761593867299"><ele>740.8</ele><time>2026-04-12T09:42:29Z</time></trkpt><trkpt lat="44.2493784023978" lon="11.427774995965553"><ele>741.0</ele><time>2026-04-12T09:42:31Z</time></trkpt><trkpt lat="44.24930337431977" lon="11.427799734650934"><ele>741.0</ele><time>2026-04-12T09:42:33Z</time></trkpt><trkpt lat="44.2492373367109" lon="11.427782950722563"><ele>741.0</ele><time>2026-04-12T09:42:35Z</time></trkpt><trkpt lat="44.249239708771235" lon="11.427875393994288"><ele>741.0</ele><time>2026-04-12T09:42:39Z</time></trkpt><trkpt lat="44.24931446105326" lon="11.427885159896192"><ele>741.0</ele><time>2026-04-12T09:42:41Z</time></trkpt><trkpt lat="44.24937507554729" lon="11.427925272847066"><ele>741.0</ele><time>2026-04-12T09:42:42Z</time></trkpt><trkpt lat="44.24944101363551" lon="11.427968692232593"><ele>741.0</ele><time>2026-04-12T09:42:43Z</time></trkpt><trkpt lat="44.24949644004055" lon="11.428015706489308"><ele>741.0</ele><time>2026-04-12T09:42:44Z</time></trkpt><trkpt lat="44.249596285102754" lon="11.428032997152664"><ele>741.1666666666666</ele><time>2026-04-12T09:42:46Z</time></trkpt><trkpt lat="44.24966247951414" lon="11.428039432804711"><ele>741.3333333333334</ele><time>2026-04-12T09:42:49Z</time></trkpt><trkpt lat="44.2497404210139" lon="11.428058411186809"><ele>741.5</ele><time>2026-04-12T09:42:52Z</time></trkpt><trkpt lat="44.249803932587064" lon="11.428103420610338"><ele>741.6666666666667</ele><time>2026-04-12T09:42:54Z</time></trkpt><trkpt lat="44.24987734880593" lon="11.428133528311653"><ele>741.8333333333334</ele><time>2026-04-12T09:42:57Z</time></trkpt><trkpt lat="44.24999252346052" lon="11.428141226474827"><ele>742.0</ele><time>2026-04-12T09:42:59Z</time></trkpt><trkpt lat="44.250093496844926" lon="11.42810645919572"><ele>742.0</ele><time>2026-04-12T09:43:01Z</time></trkpt><trkpt lat="44.25015765496062" lon="11.428072827635477"><ele>742.0</ele><time>2026-04-12T09:43:04Z</time></trkpt><trkpt lat="44.250238739486974" lon="11.428039391649268"><ele>742.0</ele><time>2026-04-12T09:43:07Z</time></trkpt><trkpt lat="44.250313002315465" lon="11.428018034992368"><ele>742.0</ele><time>2026-04-12T09:43:09Z</time></trkpt><trkpt lat="44.2503890899606" lon="11.427948655903736"><ele>742.0</ele><time>2026-04-12T09:43:13Z</time></trkpt><trkpt lat="44.25048283235462" lon="11.427884623985188"><ele>742.0</ele><time>2026-04-12T09:43:40Z</time></trkpt><trkpt lat="44.250570402666405" lon="11.427855269584645"><ele>741.6666666666667</ele><time>2026-04-12T09:45:21Z</time></trkpt><trkpt lat="44.25063437016374" lon="11.427833333974037"><ele>741.3333333333334</ele><time>2026-04-12T09:45:24Z</time></trkpt><trkpt lat="44.250546778129475" lon="11.427871472215225"><ele>741.0</ele><time>2026-04-12T09:46:15Z</time></trkpt><trkpt lat="44.25048573151593" lon="11.427904849248957"><ele>740.6666666666666</ele><time>2026-04-12T09:46:18Z</time></trkpt><trkpt lat="44.25046379500662" lon="11.427817379316858"><ele>740.3333333333333</ele><time>2026-04-12T09:47:11Z</time></trkpt><trkpt lat="44.25042753874285" lon="11.42771968114602"><ele>740.0</ele><time>2026-04-12T09:47:16Z</time></trkpt><trkpt lat="44.25028322630853" lon="11.427702883936366"><ele>740.0</ele><time>2026-04-12T09:47:18Z</time></trkpt><trkpt lat="44.25016776823831" lon="11.427719458293295"><ele>740.0</ele><time>2026-04-12T09:47:19Z</time></trkpt><trkpt lat="44.2500334172755" lon="11.427712582099447"><ele>740.0</ele><time>2026-04-12T09:47:20Z</time></trkpt><trkpt lat="44.24990655738149" lon="11.427717232775708"><ele>740.0</ele><time>2026-04-12T09:47:21Z</time></trkpt><trkpt lat="44.249764963458084" lon="11.427726225385628"><ele>740.3333333333333</ele><time>2026-04-12T09:47:22Z</time></trkpt><trkpt lat="44.24962200965514" lon="11.42774138948084"><ele>740.6666666666666</ele><time>2026-04-12T09:47:23Z</time></trkpt><trkpt lat="44.24946643135457" lon="11.427762923367816"><ele>741.0</ele><time>2026-04-12T09:47:24Z</time></trkpt><trkpt lat="44.24929913348202" lon="11.427781436265612"><ele>741.0</ele><time>2026-04-12T09:47:25Z</time></trkpt><trkpt lat="44.24913092705346" lon="11.42780110609471"><ele>741.0</ele><time>2026-04-12T09:47:26Z</time></trkpt><trkpt lat="44.24898049562915" lon="11.427870703462462"><ele>741.0</ele><time>2026-04-12T09:47:27Z</time></trkpt><trkpt lat="44.248853368054064" lon="11.42789476660718"><ele>739.0</ele><time>2026-04-12T09:47:28Z</time></trkpt><trkpt lat="44.248725005233766" lon="11.42791669515452"><ele>737.0</ele><time>2026-04-12T09:47:29Z</time></trkpt><trkpt lat="44.2485915813816" lon="11.427942660124284"><ele>735.0</ele><time>2026-04-12T09:47:30Z</time></trkpt><trkpt lat="44.24848640142644" lon="11.427932191404395"><ele>733.0</ele><time>2026-04-12T09:47:31Z</time></trkpt><trkpt lat="44.248390701953355" lon="11.427905985249556"><ele>733.0</ele><time>2026-04-12T09:47:32Z</time></trkpt><trkpt lat="44.24830278583718" lon="11.427831225243457"><ele>733.0</ele><time>2026-04-12T09:47:33Z</time></trkpt><trkpt lat="44.24821996742468" lon="11.427759637839424"><ele>733.0</ele><time>2026-04-12T09:47:34Z</time></trkpt><trkpt lat="44.248159986497306" lon="11.427619027880034"><ele>733.0</ele><time>2026-04-12T09:47:35Z</time></trkpt><trkpt lat="44.248125411343615" lon="11.42749408969804"><ele>733.0</ele><time>2026-04-12T09:47:36Z</time></trkpt><trkpt lat="44.24806757089899" lon="11.427308923393479"><ele>733.5</ele><time>2026-04-12T09:47:37Z</time></trkpt><trkpt lat="44.24801280233758" lon="11.427113474982184"><ele>734.0</ele><time>2026-04-12T09:47:38Z</time></trkpt><trkpt lat="44.24793792749808" lon="11.426974510664534"><ele>734.5</ele><time>2026-04-12T09:47:39Z</time></trkpt><trkpt lat="44.24789529578328" lon="11.42684912913991"><ele>735.0</ele><time>2026-04-12T09:47:40Z</time></trkpt><trkpt lat="44.24782494339136" lon="11.426745976229439"><ele>735.0</ele><time>2026-04-12T09:47:41Z</time></trkpt><trkpt lat="44.2477360890869" lon="11.426663796412242"><ele>735.0</ele><time>2026-04-12T09:47:42Z</time></trkpt><trkpt lat="44.24762533380338" lon="11.426613454669402"><ele>735.0</ele><time>2026-04-12T09:47:43Z</time></trkpt><trkpt lat="44.247516326668396" lon="11.426579665199208"><ele>735.0</ele><time>2026-04-12T09:47:44Z</time></trkpt><trkpt lat="44.24738552906608" lon="11.42655922901918"><ele>735.3333333333334</ele><time>2026-04-12T09:47:45Z</time></trkpt><trkpt lat="44.247235766232734" lon="11.426508060088281"><ele>735.6666666666667</ele><time>2026-04-12T09:47:46Z</time></trkpt><trkpt lat="44.247085025053096" lon="11.426435891546447"><ele>736.0</ele><time>2026-04-12T09:47:47Z</time></trkpt><trkpt lat="44.2469381585994" lon="11.42636106402765"><ele>736.0</ele><time>2026-04-12T09:47:48Z</time></trkpt><trkpt lat="44.24675638679126" lon="11.4262580749608"><ele>736.0</ele><time>2026-04-12T09:47:49Z</time></trkpt><trkpt lat="44.24656144467017" lon="11.426161318307855"><ele>736.0</ele><time>2026-04-12T09:47:50Z</time></trkpt><trkpt lat="44.24637384895972" lon="11.426103627193305"><ele>737.0</ele><time>2026-04-12T09:47:51Z</time></trkpt><trkpt lat="44.24622632313249" lon="11.426077963362431"><ele>738.0</ele><time>2026-04-12T09:47:52Z</time></trkpt><trkpt lat="44.24607074697706" lon="11.426077055827237"><ele>739.0</ele><time>2026-04-12T09:47:53Z</time></trkpt><trkpt lat="44.2458811878753" lon="11.426061370329455"><ele>739.0</ele><time>2026-04-12T09:47:54Z</time></trkpt><trkpt lat="44.245687781630956" lon="11.426044729351199"><ele>739.0</ele><time>2026-04-12T09:47:55Z</time></trkpt><trkpt lat="44.245515451800124" lon="11.426048145239944"><ele>739.0</ele><time>2026-04-12T09:47:56Z</time></trkpt><trkpt lat="44.24535213382993" lon="11.426056597102832"><ele>739.25</ele><time>2026-04-12T09:47:57Z</time></trkpt><trkpt lat="44.24518858807745" lon="11.426064593521492"><ele>739.5</ele><time>2026-04-12T09:47:58Z</time></trkpt><trkpt lat="44.24504147424454" lon="11.426053660787865"><ele>739.75</ele><time>2026-04-12T09:47:59Z</time></trkpt><trkpt lat="44.24490391217504" lon="11.426040935936502"><ele>740.0</ele><time>2026-04-12T09:48:00Z</time></trkpt><trkpt lat="44.24476844157469" lon="11.426030972154475"><ele>739.25</ele><time>2026-04-12T09:48:01Z</time></trkpt><trkpt lat="44.24462921744885" lon="11.42601959678837"><ele>738.5</ele><time>2026-04-12T09:48:02Z</time></trkpt><trkpt lat="44.24447901213309" lon="11.425980513138503"><ele>737.75</ele><time>2026-04-12T09:48:03Z</time></trkpt><trkpt lat="44.24434059611409" lon="11.425923707810036"><ele>737.0</ele><time>2026-04-12T09:48:04Z</time></trkpt><trkpt lat="44.24420517765112" lon="11.425873246683574"><ele>737.0</ele><time>2026-04-12T09:48:05Z</time></trkpt><trkpt lat="44.24406912430258" lon="11.425812524505"><ele>737.0</ele><time>2026-04-12T09:48:06Z</time></trkpt><trkpt lat="44.24394188520747" lon="11.425750487308273"><ele>737.0</ele><time>2026-04-12T09:48:07Z</time></trkpt><trkpt lat="44.243817760796894" lon="11.425703103788802"><ele>737.0</ele><time>2026-04-12T09:48:08Z</time></trkpt><trkpt lat="44.24368483535504" lon="11.425667326381708"><ele>736.25</ele><time>2026-04-12T09:48:09Z</time></trkpt><trkpt lat="44.243556439540406" lon="11.425638534128051"><ele>735.5</ele><time>2026-04-12T09:48:10Z</time></trkpt><trkpt lat="44.243430341207194" lon="11.425616998648369"><ele>734.75</ele><time>2026-04-12T09:48:11Z</time></trkpt><trkpt lat="44.24330823240761" lon="11.425589348501834"><ele>734.0</ele><time>2026-04-12T09:48:12Z</time></trkpt><trkpt lat="44.24320003938785" lon="11.425546756239113"><ele>733.75</ele><time>2026-04-12T09:48:13Z</time></trkpt><trkpt lat="44.243099848513594" lon="11.425512813513794"><ele>733.5</ele><time>2026-04-12T09:48:14Z</time></trkpt><trkpt lat="44.242987099611376" lon="11.425478156116622"><ele>733.25</ele><time>2026-04-12T09:48:15Z</time></trkpt><trkpt lat="44.24286087703844" lon="11.425439992169059"><ele>733.0</ele><time>2026-04-12T09:48:16Z</time></trkpt><trkpt lat="44.24275058098714" lon="11.425389387330439"><ele>733.0</ele><time>2026-04-12T09:48:17Z</time></trkpt><trkpt lat="44.24263923446116" lon="11.42531523559388"><ele>733.0</ele><time>2026-04-12T09:48:18Z</time></trkpt><trkpt lat="44.24253110086834" lon="11.42522417482176"><ele>733.0</ele><time>2026-04-12T09:48:19Z</time></trkpt><trkpt lat="44.24243880873749" lon="11.425106644058099"><ele>733.0</ele><time>2026-04-12T09:48:20Z</time></trkpt><trkpt lat="44.242356104927055" lon="11.424965278380753"><ele>733.0</ele><time>2026-04-12T09:48:21Z</time></trkpt><trkpt lat="44.242269981228766" lon="11.42479112534769"><ele>733.0</ele><time>2026-04-12T09:48:22Z</time></trkpt><trkpt lat="44.24217545423576" lon="11.424631358323605"><ele>733.0</ele><time>2026-04-12T09:48:23Z</time></trkpt><trkpt lat="44.24209116161739" lon="11.424518284840751"><ele>733.0</ele><time>2026-04-12T09:48:24Z</time></trkpt><trkpt lat="44.24202456470241" lon="11.424455112411563"><ele>732.9999999999999</ele><time>2026-04-12T09:48:25Z</time></trkpt><trkpt lat="44.24196354055432" lon="11.424421957175214"><ele>733.0</ele><time>2026-04-12T09:48:26Z</time></trkpt><trkpt lat="44.24189959439626" lon="11.424376887304831"><ele>733.0</ele><time>2026-04-12T09:48:27Z</time></trkpt><trkpt lat="44.241842035837415" lon="11.424326285997068"><ele>733.0</ele><time>2026-04-12T09:48:28Z</time></trkpt><trkpt lat="44.24178509368398" lon="11.424282982835125"><ele>733.0</ele><time>2026-04-12T09:48:29Z</time></trkpt><trkpt lat="44.24171690497214" lon="11.424238526032784"><ele>732.9999999999999</ele><time>2026-04-12T09:48:30Z</time></trkpt><trkpt lat="44.241634945828665" lon="11.424185069175774"><ele>733.0</ele><time>2026-04-12T09:48:31Z</time></trkpt><trkpt lat="44.24154594671371" lon="11.424110105238197"><ele>732.5</ele><time>2026-04-12T09:48:32Z</time></trkpt><trkpt lat="44.241429857396575" lon="11.424018240814293"><ele>732.0</ele><time>2026-04-12T09:48:33Z</time></trkpt><trkpt lat="44.24131037301325" lon="11.423921916367838"><ele>731.5</ele><time>2026-04-12T09:48:34Z</time></trkpt><trkpt lat="44.24120426026107" lon="11.423835985507093"><ele>731.0</ele><time>2026-04-12T09:48:35Z</time></trkpt><trkpt lat="44.24110641368675" lon="11.42375719699316"><ele>731.0</ele><time>2026-04-12T09:48:36Z</time></trkpt><trkpt lat="44.241013797113595" lon="11.42369081566842"><ele>731.0</ele><time>2026-04-12T09:48:37Z</time></trkpt><trkpt lat="44.24090972022606" lon="11.42361791725778"><ele>731.0</ele><time>2026-04-12T09:48:38Z</time></trkpt><trkpt lat="44.24081015811376" lon="11.42354315073039"><ele>731.0</ele><time>2026-04-12T09:48:39Z</time></trkpt><trkpt lat="44.24070569912886" lon="11.42345397043206"><ele>729.5</ele><time>2026-04-12T09:48:40Z</time></trkpt><trkpt lat="44.24060502038559" lon="11.423363372388527"><ele>728.0</ele><time>2026-04-12T09:48:41Z</time></trkpt><trkpt lat="44.240512800418564" lon="11.423260419547287"><ele>726.5</ele><time>2026-04-12T09:48:42Z</time></trkpt><trkpt lat="44.240423443846296" lon="11.423134368694116"><ele>725.0</ele><time>2026-04-12T09:48:43Z</time></trkpt><trkpt lat="44.24033730347862" lon="11.423008579898752"><ele>727.0</ele><time>2026-04-12T09:48:44Z</time></trkpt><trkpt lat="44.240274020814425" lon="11.422874881142391"><ele>729.0</ele><time>2026-04-12T09:48:45Z</time></trkpt><trkpt lat="44.24020703374351" lon="11.422714461997815"><ele>731.0</ele><time>2026-04-12T09:48:46Z</time></trkpt><trkpt lat="44.240148770580525" lon="11.42254709199202"><ele>733.0</ele><time>2026-04-12T09:48:47Z</time></trkpt><trkpt lat="44.24008738296789" lon="11.422385706488933"><ele>733.0</ele><time>2026-04-12T09:48:48Z</time></trkpt><trkpt lat="44.2400150543113" lon="11.42225136446818"><ele>733.0</ele><time>2026-04-12T09:48:49Z</time></trkpt><trkpt lat="44.23993319918342" lon="11.422110194909495"><ele>733.0</ele><time>2026-04-12T09:48:50Z</time></trkpt><trkpt lat="44.23985862281855" lon="11.421954597733524"><ele>733.0</ele><time>2026-04-12T09:48:51Z</time></trkpt><trkpt lat="44.239782232141216" lon="11.421805896895625"><ele>732.25</ele><time>2026-04-12T09:48:52Z</time></trkpt><trkpt lat="44.239694885985735" lon="11.421698255589932"><ele>731.5</ele><time>2026-04-12T09:48:53Z</time></trkpt><trkpt lat="44.23959257570717" lon="11.421623184132768"><ele>730.75</ele><time>2026-04-12T09:48:54Z</time></trkpt><trkpt lat="44.23947732087843" lon="11.42151974136598"><ele>730.0</ele><time>2026-04-12T09:48:55Z</time></trkpt><trkpt lat="44.23934650339071" lon="11.421419260013083"><ele>730.0</ele><time>2026-04-12T09:48:56Z</time></trkpt><trkpt lat="44.23920511183272" lon="11.4213584914215"><ele>730.0</ele><time>2026-04-12T09:48:57Z</time></trkpt><trkpt lat="44.23908583946611" lon="11.421327827809222"><ele>730.0</ele><time>2026-04-12T09:48:58Z</time></trkpt><trkpt lat="44.23900343524308" lon="11.421338496510339"><ele>730.0</ele><time>2026-04-12T09:48:59Z</time></trkpt><trkpt lat="44.238935889563855" lon="11.421336436671249"><ele>730.0</ele><time>2026-04-12T09:49:00Z</time></trkpt><trkpt lat="44.238856369742734" lon="11.421339024464906"><ele>730.25</ele><time>2026-04-12T09:49:01Z</time></trkpt><trkpt lat="44.238736145926396" lon="11.421353645507285"><ele>730.5</ele><time>2026-04-12T09:49:02Z</time></trkpt><trkpt lat="44.23860357823848" lon="11.421386229261843"><ele>730.75</ele><time>2026-04-12T09:49:03Z</time></trkpt><trkpt lat="44.23848526498188" lon="11.42140739436234"><ele>731.0</ele><time>2026-04-12T09:49:04Z</time></trkpt><trkpt lat="44.238371365185714" lon="11.421406270355494"><ele>731.0</ele><time>2026-04-12T09:49:05Z</time></trkpt><trkpt lat="44.238259948928935" lon="11.421385835886293"><ele>731.0</ele><time>2026-04-12T09:49:06Z</time></trkpt><trkpt lat="44.23815395497474" lon="11.421359638421787"><ele>731.0</ele><time>2026-04-12T09:49:07Z</time></trkpt><trkpt lat="44.238059990571216" lon="11.421371686032995"><ele>731.0</ele><time>2026-04-12T09:49:08Z</time></trkpt><trkpt lat="44.23797309985844" lon="11.421414439391112"><ele>731.0</ele><time>2026-04-12T09:49:09Z</time></trkpt><trkpt lat="44.23790074336529" lon="11.421446221613053"><ele>731.1666666666666</ele><time>2026-04-12T09:49:10Z</time></trkpt><trkpt lat="44.23782360770545" lon="11.42145108283309"><ele>731.3333333333333</ele><time>2026-04-12T09:49:11Z</time></trkpt><trkpt lat="44.23774245169605" lon="11.4214203914521"><ele>731.5</ele><time>2026-04-12T09:49:12Z</time></trkpt><trkpt lat="44.23766687015102" lon="11.421384597937891"><ele>731.6666666666666</ele><time>2026-04-12T09:49:13Z</time></trkpt><trkpt lat="44.23758869238723" lon="11.421340899309671"><ele>731.8333333333334</ele><time>2026-04-12T09:49:14Z</time></trkpt><trkpt lat="44.2375262665968" lon="11.421281014015772"><ele>732.0</ele><time>2026-04-12T09:49:15Z</time></trkpt><trkpt lat="44.23746227230327" lon="11.421188194842784"><ele>732.8</ele><time>2026-04-12T09:49:16Z</time></trkpt><trkpt lat="44.237395505941" lon="11.4210903496575"><ele>733.6</ele><time>2026-04-12T09:49:17Z</time></trkpt><trkpt lat="44.23731371679001" lon="11.420992151139737"><ele>734.4</ele><time>2026-04-12T09:49:18Z</time></trkpt><trkpt lat="44.23722868446487" lon="11.42092122796864"><ele>735.1999999999999</ele><time>2026-04-12T09:49:19Z</time></trkpt><trkpt lat="44.23716704052554" lon="11.420879670066688"><ele>736.0</ele><time>2026-04-12T09:49:20Z</time></trkpt><trkpt lat="44.23708285519024" lon="11.420819228099571"><ele>737.5</ele><time>2026-04-12T09:49:22Z</time></trkpt><trkpt lat="44.23694957922924" lon="11.420736291032416"><ele>739.0</ele><time>2026-04-12T09:51:30Z</time></trkpt><trkpt lat="44.23687525144473" lon="11.4207087842306"><ele>740.5</ele><time>2026-04-12T09:51:31Z</time></trkpt><trkpt lat="44.236804592304516" lon="11.420700907815473"><ele>742.0</ele><time>2026-04-12T09:51:32Z</time></trkpt><trkpt lat="44.23673537866071" lon="11.420707301934089"><ele>743.5</ele><time>2026-04-12T09:51:33Z</time></trkpt><trkpt lat="44.23666606386347" lon="11.420717880546762"><ele>745.0</ele><time>2026-04-12T09:51:34Z</time></trkpt><trkpt lat="44.23659371913205" lon="11.420728207699227"><ele>745.0</ele><time>2026-04-12T09:51:35Z</time></trkpt><trkpt lat="44.23651299198728" lon="11.420731829398658"><ele>745.0</ele><time>2026-04-12T09:51:36Z</time></trkpt><trkpt lat="44.236437556124656" lon="11.420732232015295"><ele>745.0</ele><time>2026-04-12T09:51:37Z</time></trkpt><trkpt lat="44.23635586155881" lon="11.420728557467934"><ele>745.0</ele><time>2026-04-12T09:51:38Z</time></trkpt><trkpt lat="44.23627526778994" lon="11.420727976136485"><ele>745.0</ele><time>2026-04-12T09:51:39Z</time></trkpt><trkpt lat="44.23618764522252" lon="11.420721504048027"><ele>745.0</ele><time>2026-04-12T09:51:40Z</time></trkpt><trkpt lat="44.23609831132015" lon="11.420694445483617"><ele>745.8</ele><time>2026-04-12T09:51:41Z</time></trkpt><trkpt lat="44.236011904723625" lon="11.420660524789778"><ele>746.6</ele><time>2026-04-12T09:51:42Z</time></trkpt><trkpt lat="44.23592277964195" lon="11.420599999478512"><ele>747.4000000000001</ele><time>2026-04-12T09:51:43Z</time></trkpt><trkpt lat="44.23582794024703" lon="11.420521261540879"><ele>748.2</ele><time>2026-04-12T09:51:44Z</time></trkpt><trkpt lat="44.235719654091874" lon="11.420421794232777"><ele>749.0</ele><time>2026-04-12T09:51:45Z</time></trkpt><trkpt lat="44.23562888296914" lon="11.42035752650083"><ele>751.8000000000001</ele><time>2026-04-12T09:51:46Z</time></trkpt><trkpt lat="44.23554540238447" lon="11.420338095603721"><ele>754.6</ele><time>2026-04-12T09:51:47Z</time></trkpt><trkpt lat="44.23543570045005" lon="11.420333256602344"><ele>757.4</ele><time>2026-04-12T09:51:48Z</time></trkpt><trkpt lat="44.23532854295228" lon="11.420339067255735"><ele>760.2</ele><time>2026-04-12T09:51:49Z</time></trkpt><trkpt lat="44.23525648306132" lon="11.420322015695504"><ele>763.0</ele><time>2026-04-12T09:51:50Z</time></trkpt><trkpt lat="44.23518757374235" lon="11.420265279431222"><ele>763.0</ele><time>2026-04-12T09:51:51Z</time></trkpt><trkpt lat="44.23511794340984" lon="11.420166695034231"><ele>763.0</ele><time>2026-04-12T09:51:52Z</time></trkpt><trkpt lat="44.235042761893325" lon="11.42003611724433"><ele>763.0</ele><time>2026-04-12T09:51:53Z</time></trkpt><trkpt lat="44.23497820653687" lon="11.419910646859902"><ele>763.0</ele><time>2026-04-12T09:51:54Z</time></trkpt><trkpt lat="44.23493542115574" lon="11.41980578519976"><ele>763.0</ele><time>2026-04-12T09:51:55Z</time></trkpt><trkpt lat="44.23492494327141" lon="11.419708403689775"><ele>762.75</ele><time>2026-04-12T09:51:56Z</time></trkpt><trkpt lat="44.234926489213585" lon="11.41957458814221"><ele>762.5</ele><time>2026-04-12T09:51:57Z</time></trkpt><trkpt lat="44.2349345814883" lon="11.41940814728639"><ele>762.25</ele><time>2026-04-12T09:51:58Z</time></trkpt><trkpt lat="44.23492701852118" lon="11.419216316700213"><ele>762.0</ele><time>2026-04-12T09:51:59Z</time></trkpt><trkpt lat="44.23488560241646" lon="11.419050376249363"><ele>762.0</ele><time>2026-04-12T09:52:00Z</time></trkpt><trkpt lat="44.23484286373359" lon="11.418870798584734"><ele>762.0</ele><time>2026-04-12T09:52:01Z</time></trkpt><trkpt lat="44.23480709492427" lon="11.418712318046097"><ele>762.0</ele><time>2026-04-12T09:52:02Z</time></trkpt><trkpt lat="44.234778476576636" lon="11.418543203445969"><ele>762.0</ele><time>2026-04-12T09:52:03Z</time></trkpt><trkpt lat="44.234720576534635" lon="11.41843165160897"><ele>762.0</ele><time>2026-04-12T09:52:04Z</time></trkpt><trkpt lat="44.23466789038708" lon="11.418316047099292"><ele>762.0</ele><time>2026-04-12T09:52:05Z</time></trkpt><trkpt lat="44.23461857616933" lon="11.418179115510934"><ele>762.0</ele><time>2026-04-12T09:52:06Z</time></trkpt><trkpt lat="44.23456312357554" lon="11.418043073063208"><ele>762.0</ele><time>2026-04-12T09:52:07Z</time></trkpt><trkpt lat="44.23451087038586" lon="11.41791860495314"><ele>762.0</ele><time>2026-04-12T09:52:08Z</time></trkpt><trkpt lat="44.23443803055856" lon="11.417793594454553"><ele>762.0</ele><time>2026-04-12T09:52:09Z</time></trkpt><trkpt lat="44.23437540678213" lon="11.417668290765345"><ele>762.0</ele><time>2026-04-12T09:52:10Z</time></trkpt><trkpt lat="44.234326962750735" lon="11.417549103026778"><ele>762.0</ele><time>2026-04-12T09:52:11Z</time></trkpt><trkpt lat="44.234285875968794" lon="11.41742642866992"><ele>762.0</ele><time>2026-04-12T09:52:12Z</time></trkpt><trkpt lat="44.23422882268529" lon="11.417313068344493"><ele>762.0</ele><time>2026-04-12T09:52:13Z</time></trkpt><trkpt lat="44.23414389146174" lon="11.41720428837014"><ele>762.2</ele><time>2026-04-12T09:52:14Z</time></trkpt><trkpt lat="44.23404751277279" lon="11.417134401060606"><ele>762.4000000000001</ele><time>2026-04-12T09:52:15Z</time></trkpt><trkpt lat="44.23397435321353" lon="11.417070858344424"><ele>762.5999999999999</ele><time>2026-04-12T09:52:16Z</time></trkpt><trkpt lat="44.23390796432243" lon="11.416986778694667"><ele>762.8</ele><time>2026-04-12T09:52:17Z</time></trkpt><trkpt lat="44.2338523548094" lon="11.416863708399134"><ele>763.0</ele><time>2026-04-12T09:52:18Z</time></trkpt><trkpt lat="44.23380142566432" lon="11.416709423079292"><ele>762.0</ele><time>2026-04-12T09:52:19Z</time></trkpt><trkpt lat="44.23373581888145" lon="11.416546200271299"><ele>761.0</ele><time>2026-04-12T09:52:20Z</time></trkpt><trkpt lat="44.2336771316439" lon="11.416390736144216"><ele>760.0</ele><time>2026-04-12T09:52:21Z</time></trkpt><trkpt lat="44.23363888948225" lon="11.416257436354272"><ele>759.0</ele><time>2026-04-12T09:52:22Z</time></trkpt><trkpt lat="44.2335973416849" lon="11.41612692039592"><ele>759.0</ele><time>2026-04-12T09:52:23Z</time></trkpt><trkpt lat="44.233563516172715" lon="11.416009593432143"><ele>759.0</ele><time>2026-04-12T09:52:24Z</time></trkpt><trkpt lat="44.23354187168153" lon="11.41587376321879"><ele>759.0</ele><time>2026-04-12T09:52:25Z</time></trkpt><trkpt lat="44.23352996157567" lon="11.415733906202144"><ele>759.0</ele><time>2026-04-12T09:52:26Z</time></trkpt><trkpt lat="44.23352533273204" lon="11.41559172868062"><ele>759.0</ele><time>2026-04-12T09:52:27Z</time></trkpt><trkpt lat="44.23351619713214" lon="11.415439745805203"><ele>760.75</ele><time>2026-04-12T09:52:28Z</time></trkpt><trkpt lat="44.233495992166404" lon="11.415276467304935"><ele>762.5</ele><time>2026-04-12T09:52:29Z</time></trkpt><trkpt lat="44.23347213885383" lon="11.415124291284473"><ele>764.25</ele><time>2026-04-12T09:52:30Z</time></trkpt><trkpt lat="44.23344621577975" lon="11.414964673719464"><ele>766.0</ele><time>2026-04-12T09:52:31Z</time></trkpt><trkpt lat="44.23342589969129" lon="11.414811455307069"><ele>766.0</ele><time>2026-04-12T09:52:32Z</time></trkpt><trkpt lat="44.233393302804934" lon="11.414689332455252"><ele>766.0</ele><time>2026-04-12T09:52:33Z</time></trkpt><trkpt lat="44.233350222086756" lon="11.414570741615186"><ele>766.0</ele><time>2026-04-12T09:52:34Z</time></trkpt><trkpt lat="44.233287108768025" lon="11.414463525217478"><ele>766.0</ele><time>2026-04-12T09:52:35Z</time></trkpt><trkpt lat="44.23323505243609" lon="11.414397475786556"><ele>766.0</ele><time>2026-04-12T09:52:36Z</time></trkpt><trkpt lat="44.23312498167914" lon="11.414334552651637"><ele>766.5999999999999</ele><time>2026-04-12T09:52:38Z</time></trkpt><trkpt lat="44.2330568265171" lon="11.414256938637303"><ele>767.2</ele><time>2026-04-12T09:52:39Z</time></trkpt><trkpt lat="44.23297715328475" lon="11.414156495438172"><ele>767.8</ele><time>2026-04-12T09:52:40Z</time></trkpt><trkpt lat="44.23290282842517" lon="11.41404868320938"><ele>768.4000000000001</ele><time>2026-04-12T09:52:41Z</time></trkpt><trkpt lat="44.23281737086137" lon="11.413935144990605"><ele>769.0</ele><time>2026-04-12T09:52:42Z</time></trkpt><trkpt lat="44.23272996775627" lon="11.413822522232882"><ele>770.0</ele><time>2026-04-12T09:52:43Z</time></trkpt><trkpt lat="44.2326063164255" lon="11.41372144933023"><ele>771.0</ele><time>2026-04-12T09:52:44Z</time></trkpt><trkpt lat="44.23252132445551" lon="11.413656818797493"><ele>772.0</ele><time>2026-04-12T09:52:45Z</time></trkpt><trkpt lat="44.23244478607317" lon="11.413593525029942"><ele>773.0</ele><time>2026-04-12T09:52:46Z</time></trkpt><trkpt lat="44.23236682495395" lon="11.413546641735387"><ele>774.0</ele><time>2026-04-12T09:52:47Z</time></trkpt><trkpt lat="44.232269530940364" lon="11.413511716905525"><ele>774.0</ele><time>2026-04-12T09:52:48Z</time></trkpt><trkpt lat="44.23215201193232" lon="11.41347726245862"><ele>774.0</ele><time>2026-04-12T09:52:49Z</time></trkpt><trkpt lat="44.232052291094014" lon="11.413471865199556"><ele>774.0</ele><time>2026-04-12T09:52:50Z</time></trkpt><trkpt lat="44.2319714670269" lon="11.413438854635116"><ele>774.0</ele><time>2026-04-12T09:52:51Z</time></trkpt><trkpt lat="44.23188930291067" lon="11.413434698458138"><ele>774.0</ele><time>2026-04-12T09:52:52Z</time></trkpt><trkpt lat="44.231807579535854" lon="11.413438803207345"><ele>774.0</ele><time>2026-04-12T09:52:53Z</time></trkpt><trkpt lat="44.23172864016565" lon="11.413410020010492"><ele>774.0</ele><time>2026-04-12T09:52:54Z</time></trkpt><trkpt lat="44.231627723603545" lon="11.413332505797639"><ele>774.0</ele><time>2026-04-12T09:52:55Z</time></trkpt><trkpt lat="44.23150795064882" lon="11.413225088615366"><ele>774.0</ele><time>2026-04-12T09:52:56Z</time></trkpt><trkpt lat="44.231390392258405" lon="11.413126314844261"><ele>772.0</ele><time>2026-04-12T09:52:57Z</time></trkpt><trkpt lat="44.231283185890575" lon="11.412993132396142"><ele>770.0</ele><time>2026-04-12T09:52:58Z</time></trkpt><trkpt lat="44.231172507795364" lon="11.412880368853012"><ele>768.0</ele><time>2026-04-12T09:52:59Z</time></trkpt><trkpt lat="44.23105781014392" lon="11.41278198541488"><ele>766.0</ele><time>2026-04-12T09:53:00Z</time></trkpt><trkpt lat="44.230920324130814" lon="11.41267993173875"><ele>766.0</ele><time>2026-04-12T09:53:01Z</time></trkpt><trkpt lat="44.23079884468173" lon="11.41261280714546"><ele>766.0</ele><time>2026-04-12T09:53:02Z</time></trkpt><trkpt lat="44.230682735023535" lon="11.412530066190365"><ele>766.0</ele><time>2026-04-12T09:53:03Z</time></trkpt><trkpt lat="44.23057941080747" lon="11.412442578202725"><ele>766.0</ele><time>2026-04-12T09:53:04Z</time></trkpt><trkpt lat="44.2304773783066" lon="11.412353475932273"><ele>766.25</ele><time>2026-04-12T09:53:05Z</time></trkpt><trkpt lat="44.23037341240372" lon="11.412250337296996"><ele>766.5</ele><time>2026-04-12T09:53:06Z</time></trkpt><trkpt lat="44.23026392769509" lon="11.412126447513288"><ele>766.75</ele><time>2026-04-12T09:53:07Z</time></trkpt><trkpt lat="44.23016212845643" lon="11.412008680323968"><ele>767.0</ele><time>2026-04-12T09:53:08Z</time></trkpt><trkpt lat="44.23008043560372" lon="11.411929908802101"><ele>767.0</ele><time>2026-04-12T09:53:09Z</time></trkpt><trkpt lat="44.23000840333059" lon="11.411860811463796"><ele>767.0</ele><time>2026-04-12T09:53:10Z</time></trkpt><trkpt lat="44.229904455845634" lon="11.411813504013136"><ele>767.0</ele><time>2026-04-12T09:53:11Z</time></trkpt><trkpt lat="44.22979181062809" lon="11.411768724416811"><ele>767.0</ele><time>2026-04-12T09:53:12Z</time></trkpt><trkpt lat="44.22967438192236" lon="11.41174193852822"><ele>767.0</ele><time>2026-04-12T09:53:13Z</time></trkpt><trkpt lat="44.22956404368885" lon="11.411721913833881"><ele>767.8</ele><time>2026-04-12T09:53:14Z</time></trkpt><trkpt lat="44.22946288465363" lon="11.411680076312267"><ele>768.6</ele><time>2026-04-12T09:53:15Z</time></trkpt><trkpt lat="44.22938996811447" lon="11.411586504682218"><ele>769.4</ele><time>2026-04-12T09:53:16Z</time></trkpt><trkpt lat="44.229310545039375" lon="11.411502820965861"><ele>770.1999999999999</ele><time>2026-04-12T09:53:17Z</time></trkpt><trkpt lat="44.22922807798972" lon="11.411433049047787"><ele>771.0</ele><time>2026-04-12T09:53:18Z</time></trkpt><trkpt lat="44.229131084305976" lon="11.411380126698326"><ele>771.4</ele><time>2026-04-12T09:53:19Z</time></trkpt><trkpt lat="44.229049320774465" lon="11.411279204905503"><ele>771.8</ele><time>2026-04-12T09:53:20Z</time></trkpt><trkpt lat="44.2289566461277" lon="11.411189701934795"><ele>772.1999999999999</ele><time>2026-04-12T09:53:21Z</time></trkpt><trkpt lat="44.22887080381463" lon="11.411101334838618"><ele>772.5999999999999</ele><time>2026-04-12T09:53:22Z</time></trkpt><trkpt lat="44.228805619467266" lon="11.410992753306287"><ele>773.0</ele><time>2026-04-12T09:53:23Z</time></trkpt><trkpt lat="44.228746555514064" lon="11.410894277649236"><ele>773.0</ele><time>2026-04-12T09:53:24Z</time></trkpt><trkpt lat="44.228675526154426" lon="11.4107871946988"><ele>773.0</ele><time>2026-04-12T09:53:25Z</time></trkpt><trkpt lat="44.22864907505495" lon="11.410674963887907"><ele>773.0</ele><time>2026-04-12T09:53:26Z</time></trkpt><trkpt lat="44.2286510338526" lon="11.410569361448399"><ele>773.0</ele><time>2026-04-12T09:53:27Z</time></trkpt><trkpt lat="44.22866166453441" lon="11.410438159825494"><ele>773.0</ele><time>2026-04-12T09:53:28Z</time></trkpt><trkpt lat="44.22867404533146" lon="11.41029948293481"><ele>774.2</ele><time>2026-04-12T09:53:29Z</time></trkpt><trkpt lat="44.228671948728234" lon="11.410144608435962"><ele>775.4</ele><time>2026-04-12T09:53:30Z</time></trkpt><trkpt lat="44.22866125466066" lon="11.409981732827603"><ele>776.6</ele><time>2026-04-12T09:53:31Z</time></trkpt><trkpt lat="44.228644762626" lon="11.409852028698054"><ele>777.8000000000001</ele><time>2026-04-12T09:53:32Z</time></trkpt><trkpt lat="44.22863414682867" lon="11.409753357342396"><ele>779.0</ele><time>2026-04-12T09:53:33Z</time></trkpt><trkpt lat="44.228624684030464" lon="11.409649586284221"><ele>780.0</ele><time>2026-04-12T09:53:35Z</time></trkpt><trkpt lat="44.22856576012607" lon="11.409568558277453"><ele>781.0</ele><time>2026-04-12T09:53:55Z</time></trkpt><trkpt lat="44.22848258470523" lon="11.409459594900222"><ele>782.0</ele><time>2026-04-12T09:53:57Z</time></trkpt><trkpt lat="44.22836184724682" lon="11.409359059085649"><ele>783.0</ele><time>2026-04-12T09:53:59Z</time></trkpt><trkpt lat="44.22830109059254" lon="11.40931063322111"><ele>784.0</ele><time>2026-04-12T09:54:00Z</time></trkpt><trkpt lat="44.22823198778458" lon="11.409246683205776"><ele>784.0</ele><time>2026-04-12T09:54:01Z</time></trkpt><trkpt lat="44.22817268680855" lon="11.409191655103482"><ele>784.0</ele><time>2026-04-12T09:54:02Z</time></trkpt><trkpt lat="44.228128001812806" lon="11.409125519245206"><ele>784.0</ele><time>2026-04-12T09:54:03Z</time></trkpt><trkpt lat="44.22805728003666" lon="11.408971616666134"><ele>784.0</ele><time>2026-04-12T09:54:05Z</time></trkpt><trkpt lat="44.22804789139959" lon="11.408880209081344"><ele>784.0</ele><time>2026-04-12T09:54:06Z</time></trkpt><trkpt lat="44.227988618026686" lon="11.408734983915318"><ele>782.8333333333333</ele><time>2026-04-12T09:54:08Z</time></trkpt><trkpt lat="44.22792224121619" lon="11.408606887008112"><ele>781.6666666666666</ele><time>2026-04-12T09:54:10Z</time></trkpt><trkpt lat="44.227883254789425" lon="11.408487402403944"><ele>780.5</ele><time>2026-04-12T09:54:12Z</time></trkpt><trkpt lat="44.22783771479286" lon="11.408397404210097"><ele>779.3333333333333</ele><time>2026-04-12T09:54:14Z</time></trkpt><trkpt lat="44.227815186543395" lon="11.408304167269431"><ele>778.1666666666666</ele><time>2026-04-12T09:54:16Z</time></trkpt><trkpt lat="44.22776711044858" lon="11.408225173152656"><ele>777.0</ele><time>2026-04-12T09:54:18Z</time></trkpt><trkpt lat="44.22775464109233" lon="11.408135393631621"><ele>777.0</ele><time>2026-04-12T09:54:21Z</time></trkpt><trkpt lat="44.22769713270169" lon="11.408067078999093"><ele>777.0</ele><time>2026-04-12T09:54:24Z</time></trkpt><trkpt lat="44.22758491775038" lon="11.407928831713924"><ele>777.0</ele><time>2026-04-12T09:55:22Z</time></trkpt><trkpt lat="44.22753094704871" lon="11.407870187406292"><ele>777.0</ele><time>2026-04-12T09:56:23Z</time></trkpt><trkpt lat="44.22747935610918" lon="11.40778362299716"><ele>777.0</ele><time>2026-04-12T09:56:26Z</time></trkpt><trkpt lat="44.22742746437006" lon="11.407726782026979"><ele>777.0</ele><time>2026-04-12T09:56:29Z</time></trkpt><trkpt lat="44.227356008546536" lon="11.407708885339318"><ele>777.0</ele><time>2026-04-12T09:56:31Z</time></trkpt><trkpt lat="44.22728659063479" lon="11.40769279276562"><ele>777.0</ele><time>2026-04-12T09:56:33Z</time></trkpt><trkpt lat="44.227218419912056" lon="11.407646259041554"><ele>777.0</ele><time>2026-04-12T09:56:35Z</time></trkpt><trkpt lat="44.22716649955554" lon="11.407571566678998"><ele>777.0</ele><time>2026-04-12T09:56:37Z</time></trkpt><trkpt lat="44.22707523907932" lon="11.407512613208821"><ele>777.0</ele><time>2026-04-12T09:56:39Z</time></trkpt><trkpt lat="44.22699972313444" lon="11.407485184624777"><ele>777.0</ele><time>2026-04-12T09:56:40Z</time></trkpt><trkpt lat="44.22689197276122" lon="11.407413059321922"><ele>777.0</ele><time>2026-04-12T09:56:42Z</time></trkpt><trkpt lat="44.226791921187555" lon="11.407352312634224"><ele>777.0</ele><time>2026-04-12T09:56:44Z</time></trkpt><trkpt lat="44.22670847379587" lon="11.40728462198207"><ele>777.0</ele><time>2026-04-12T09:56:46.001Z</time></trkpt><trkpt lat="44.22662945197675" lon="11.407198758946537"><ele>777.0</ele><time>2026-04-12T09:56:48.001Z</time></trkpt><trkpt lat="44.2266113275026" lon="11.407063808350001"><ele>777.0</ele><time>2026-04-12T09:56:50.001Z</time></trkpt><trkpt lat="44.22661426205633" lon="11.406937851843251"><ele>778.4000000000001</ele><time>2026-04-12T09:56:52.001Z</time></trkpt><trkpt lat="44.2265756981943" lon="11.40674757092728"><ele>779.8000000000001</ele><time>2026-04-12T09:56:54.001Z</time></trkpt><trkpt lat="44.22655557574713" lon="11.406637076839672"><ele>781.2</ele><time>2026-04-12T09:56:55.001Z</time></trkpt><trkpt lat="44.22652944837743" lon="11.406549534458508"><ele>782.6</ele><time>2026-04-12T09:56:56.001Z</time></trkpt><trkpt lat="44.22648875426953" lon="11.406402179200171"><ele>784.0</ele><time>2026-04-12T09:56:58.001Z</time></trkpt><trkpt lat="44.2264457560833" lon="11.406237539974802"><ele>784.3333333333333</ele><time>2026-04-12T09:57:00.001Z</time></trkpt><trkpt lat="44.2264239752416" lon="11.406153547340299"><ele>784.6666666666666</ele><time>2026-04-12T09:57:01.001Z</time></trkpt><trkpt lat="44.22641094035436" lon="11.40605754799025"><ele>785.0</ele><time>2026-04-12T09:57:02.001Z</time></trkpt><trkpt lat="44.22639413415066" lon="11.405951619415722"><ele>785.3333333333333</ele><time>2026-04-12T09:57:03.001Z</time></trkpt><trkpt lat="44.22637197895817" lon="11.405824837318569"><ele>785.6666666666666</ele><time>2026-04-12T09:57:04.001Z</time></trkpt><trkpt lat="44.226344393584014" lon="11.405694204610366"><ele>786.0</ele><time>2026-04-12T09:57:05.001Z</time></trkpt><trkpt lat="44.22634892581127" lon="11.405580457197413"><ele>786.8333333333334</ele><time>2026-04-12T09:57:07.001Z</time></trkpt><trkpt lat="44.226342848179925" lon="11.405491816805936"><ele>787.6666666666667</ele><time>2026-04-12T09:57:09.001Z</time></trkpt><trkpt lat="44.226320849435844" lon="11.405377261977877"><ele>788.5</ele><time>2026-04-12T09:57:12.001Z</time></trkpt><trkpt lat="44.226293391916414" lon="11.405252975653566"><ele>789.3333333333334</ele><time>2026-04-12T09:57:14.001Z</time></trkpt><trkpt lat="44.226293060877154" lon="11.40510529888422"><ele>790.1666666666667</ele><time>2026-04-12T09:57:16.001Z</time></trkpt><trkpt lat="44.2263031733319" lon="11.404983656423106"><ele>791.0</ele><time>2026-04-12T09:57:18.001Z</time></trkpt><trkpt lat="44.22628844194252" lon="11.40489416351198"><ele>791.0</ele><time>2026-04-12T09:57:19.001Z</time></trkpt><trkpt lat="44.226250113797654" lon="11.404749642812176"><ele>791.0</ele><time>2026-04-12T09:57:21.001Z</time></trkpt><trkpt lat="44.22621226170193" lon="11.404609769662725"><ele>791.0</ele><time>2026-04-12T09:57:23.001Z</time></trkpt><trkpt lat="44.22617453254703" lon="11.404438100953932"><ele>791.0</ele><time>2026-04-12T09:57:25.001Z</time></trkpt><trkpt lat="44.226157594629115" lon="11.404347700963998"><ele>791.0</ele><time>2026-04-12T09:57:26.001Z</time></trkpt><trkpt lat="44.226146202264495" lon="11.404258026324449"><ele>791.1666666666667</ele><time>2026-04-12T09:57:27.001Z</time></trkpt><trkpt lat="44.22614063175661" lon="11.404157892462434"><ele>791.3333333333334</ele><time>2026-04-12T09:57:28.001Z</time></trkpt><trkpt lat="44.22612585647034" lon="11.404069581125933"><ele>791.5</ele><time>2026-04-12T09:57:29.001Z</time></trkpt><trkpt lat="44.226100306028314" lon="11.403906737007778"><ele>791.6666666666667</ele><time>2026-04-12T09:57:31.001Z</time></trkpt><trkpt lat="44.2260932254628" lon="11.40380763146318"><ele>791.8333333333334</ele><time>2026-04-12T09:57:32.001Z</time></trkpt><trkpt lat="44.22607960887928" lon="11.403699109760558"><ele>792.0</ele><time>2026-04-12T09:57:33.001Z</time></trkpt><trkpt lat="44.2260693020952" lon="11.403579567789464"><ele>792.0</ele><time>2026-04-12T09:57:35.001Z</time></trkpt><trkpt lat="44.22604940682967" lon="11.403470166710465"><ele>792.0</ele><time>2026-04-12T09:57:38Z</time></trkpt><trkpt lat="44.225994800575705" lon="11.403404388920922"><ele>792.0</ele><time>2026-04-12T09:58:16Z</time></trkpt><trkpt lat="44.225942590905056" lon="11.403328221883946"><ele>792.0</ele><time>2026-04-12T09:58:19Z</time></trkpt><trkpt lat="44.2258760017149" lon="11.403255678210215"><ele>792.0</ele><time>2026-04-12T09:58:29Z</time></trkpt><trkpt lat="44.22577320007514" lon="11.403158530644813"><ele>792.0</ele><time>2026-04-12T10:00:38Z</time></trkpt><trkpt lat="44.22575344056466" lon="11.403067369907681"><ele>791.2857142857143</ele><time>2026-04-12T10:01:01Z</time></trkpt><trkpt lat="44.225709225715846" lon="11.402955434412675"><ele>790.5714285714286</ele><time>2026-04-12T10:01:15Z</time></trkpt><trkpt lat="44.22565105754146" lon="11.402912453918448"><ele>789.8571428571429</ele><time>2026-04-12T10:01:21Z</time></trkpt><trkpt lat="44.22559789883372" lon="11.40284523719807"><ele>789.1428571428571</ele><time>2026-04-12T10:01:24Z</time></trkpt><trkpt lat="44.22555555365603" lon="11.402767764862181"><ele>788.4285714285713</ele><time>2026-04-12T10:01:36Z</time></trkpt><trkpt lat="44.22553153622073" lon="11.402684617448033"><ele>787.7142857142857</ele><time>2026-04-12T10:01:39Z</time></trkpt><trkpt lat="44.22549730109561" lon="11.402584002369046"><ele>787.0</ele><time>2026-04-12T10:01:43Z</time></trkpt><trkpt lat="44.225454870552156" lon="11.402503553806245"><ele>789.1666666666666</ele><time>2026-04-12T10:01:45Z</time></trkpt><trkpt lat="44.225413118503454" lon="11.402380130377308"><ele>791.3333333333333</ele><time>2026-04-12T10:01:48Z</time></trkpt><trkpt lat="44.22538068065636" lon="11.40230138804464"><ele>793.5</ele><time>2026-04-12T10:01:50Z</time></trkpt><trkpt lat="44.22532948100222" lon="11.402229052171336"><ele>795.6666666666667</ele><time>2026-04-12T10:02:04Z</time></trkpt><trkpt lat="44.22526597948722" lon="11.40214593651959"><ele>797.8333333333334</ele><time>2026-04-12T10:02:10Z</time></trkpt><trkpt lat="44.22521283867624" lon="11.402097495710336"><ele>800.0</ele><time>2026-04-12T10:02:12Z</time></trkpt><trkpt lat="44.22516502625635" lon="11.401991952307286"><ele>800.0000000000001</ele><time>2026-04-12T10:02:17Z</time></trkpt><trkpt lat="44.225121589233055" lon="11.401907410727162"><ele>800.0</ele><time>2026-04-12T10:02:20Z</time></trkpt><trkpt lat="44.22508997955652" lon="11.401830495320436"><ele>800.0</ele><time>2026-04-12T10:02:24Z</time></trkpt><trkpt lat="44.22505497020822" lon="11.401727776927663"><ele>800.0</ele><time>2026-04-12T10:02:27Z</time></trkpt><trkpt lat="44.22501846341286" lon="11.401652995902266"><ele>800.0000000000001</ele><time>2026-04-12T10:02:29Z</time></trkpt><trkpt lat="44.224990577830475" lon="11.401532456214893"><ele>800.0</ele><time>2026-04-12T10:02:32Z</time></trkpt><trkpt lat="44.224983527226634" lon="11.401402612196298"><ele>800.1666666666667</ele><time>2026-04-12T10:02:36Z</time></trkpt><trkpt lat="44.22497571689773" lon="11.401301806319296"><ele>800.3333333333334</ele><time>2026-04-12T10:02:38Z</time></trkpt><trkpt lat="44.2249435931567" lon="11.401209423348789"><ele>800.5</ele><time>2026-04-12T10:02:43Z</time></trkpt><trkpt lat="44.22492497726237" lon="11.401118192754632"><ele>800.6666666666667</ele><time>2026-04-12T10:02:52Z</time></trkpt><trkpt lat="44.22487194476091" lon="11.401017881654882"><ele>800.8333333333334</ele><time>2026-04-12T10:03:01Z</time></trkpt><trkpt lat="44.22485448925741" lon="11.40091883068715"><ele>801.0</ele><time>2026-04-12T10:03:04Z</time></trkpt><trkpt lat="44.224839398829495" lon="11.400810016404266"><ele>801.0</ele><time>2026-04-12T10:03:07Z</time></trkpt><trkpt lat="44.224874324437295" lon="11.40072055510982"><ele>801.0</ele><time>2026-04-12T10:03:10Z</time></trkpt><trkpt lat="44.224947870011135" lon="11.400559356690653"><ele>801.0</ele><time>2026-04-12T10:03:14Z</time></trkpt><trkpt lat="44.22499788362537" lon="11.400391641002868"><ele>801.0</ele><time>2026-04-12T10:03:16Z</time></trkpt><trkpt lat="44.22502114624667" lon="11.400301919964292"><ele>801.0</ele><time>2026-04-12T10:03:17Z</time></trkpt><trkpt lat="44.22503564071773" lon="11.400203233849837"><ele>801.8</ele><time>2026-04-12T10:03:18Z</time></trkpt><trkpt lat="44.22503320592203" lon="11.40010912485617"><ele>802.5999999999999</ele><time>2026-04-12T10:03:19Z</time></trkpt><trkpt lat="44.22506870605402" lon="11.399959263374944"><ele>803.4</ele><time>2026-04-12T10:03:21Z</time></trkpt><trkpt lat="44.22512912349884" lon="11.399845935445056"><ele>804.2</ele><time>2026-04-12T10:03:23Z</time></trkpt><trkpt lat="44.225213859504194" lon="11.399785562983375"><ele>805.0</ele><time>2026-04-12T10:03:24Z</time></trkpt><trkpt lat="44.225274964725934" lon="11.399714228844083"><ele>805.6</ele><time>2026-04-12T10:03:25Z</time></trkpt><trkpt lat="44.22535000517136" lon="11.39965562403309"><ele>806.2</ele><time>2026-04-12T10:03:26Z</time></trkpt><trkpt lat="44.22540485822645" lon="11.399552587106319"><ele>806.8</ele><time>2026-04-12T10:03:27Z</time></trkpt><trkpt lat="44.225408834648576" lon="11.39942251308866"><ele>807.4</ele><time>2026-04-12T10:03:29Z</time></trkpt><trkpt lat="44.2253323671275" lon="11.399298227130094"><ele>808.0</ele><time>2026-04-12T10:03:31Z</time></trkpt><trkpt lat="44.22527491798042" lon="11.399242725535224"><ele>807.9999999999999</ele><time>2026-04-12T10:03:35Z</time></trkpt><trkpt lat="44.22524874422122" lon="11.399162158535589"><ele>808.0</ele><time>2026-04-12T10:04:25Z</time></trkpt><trkpt lat="44.225239592500614" lon="11.399051446014312"><ele>808.0</ele><time>2026-04-12T10:04:32Z</time></trkpt><trkpt lat="44.2252170713088" lon="11.398965586693217"><ele>808.0</ele><time>2026-04-12T10:04:34Z</time></trkpt><trkpt lat="44.225191881198555" lon="11.398867817970817"><ele>807.9999999999999</ele><time>2026-04-12T10:04:38Z</time></trkpt><trkpt lat="44.2251923886728" lon="11.398726465069084"><ele>808.0</ele><time>2026-04-12T10:04:40Z</time></trkpt><trkpt lat="44.225175592630436" lon="11.398632404284804"><ele>808.0</ele><time>2026-04-12T10:04:42Z</time></trkpt><trkpt lat="44.225119878156555" lon="11.398562677259816"><ele>808.0</ele><time>2026-04-12T10:05:02Z</time></trkpt><trkpt lat="44.225037429227626" lon="11.398565608337584"><ele>808.0</ele><time>2026-04-12T10:05:05Z</time></trkpt><trkpt lat="44.224944478794306" lon="11.39858265474582"><ele>808.0</ele><time>2026-04-12T10:05:07Z</time></trkpt><trkpt lat="44.22482616436481" lon="11.398532979134933"><ele>808.0</ele><time>2026-04-12T10:05:09Z</time></trkpt><trkpt lat="44.22474676908785" lon="11.39845516769869"><ele>808.0</ele><time>2026-04-12T10:05:11Z</time></trkpt><trkpt lat="44.22468137375544" lon="11.398396215302865"><ele>808.0</ele><time>2026-04-12T10:05:13Z</time></trkpt><trkpt lat="44.22456452362362" lon="11.398336129780324"><ele>808.0</ele><time>2026-04-12T10:05:15Z</time></trkpt><trkpt lat="44.22449743618757" lon="11.398343145096428"><ele>808.0</ele><time>2026-04-12T10:05:16Z</time></trkpt><trkpt lat="44.22439890862158" lon="11.39834239024344"><ele>808.0</ele><time>2026-04-12T10:05:18Z</time></trkpt><trkpt lat="44.224281666154724" lon="11.398361535549139"><ele>807.9999999999999</ele><time>2026-04-12T10:05:20Z</time></trkpt><trkpt lat="44.22417045329276" lon="11.398416469769009"><ele>808.0</ele><time>2026-04-12T10:05:22Z</time></trkpt><trkpt lat="44.22409331153784" lon="11.39846341506663"><ele>808.0</ele><time>2026-04-12T10:05:23Z</time></trkpt><trkpt lat="44.224025529397494" lon="11.398500480401426"><ele>808.0</ele><time>2026-04-12T10:05:24Z</time></trkpt><trkpt lat="44.223936995984246" lon="11.398492757636387"><ele>807.9999999999999</ele><time>2026-04-12T10:05:26Z</time></trkpt><trkpt lat="44.223872202260985" lon="11.39846960805643"><ele>808.0</ele><time>2026-04-12T10:05:28Z</time></trkpt><trkpt lat="44.22380823414173" lon="11.39851592851826"><ele>808.2</ele><time>2026-04-12T10:05:30Z</time></trkpt><trkpt lat="44.223728904840875" lon="11.398540365566705"><ele>808.4</ele><time>2026-04-12T10:05:32Z</time></trkpt><trkpt lat="44.22366040006757" lon="11.398519898903603"><ele>808.6</ele><time>2026-04-12T10:05:36Z</time></trkpt><trkpt lat="44.2235827507702" lon="11.398520846922672"><ele>808.8000000000001</ele><time>2026-04-12T10:05:46Z</time></trkpt><trkpt lat="44.22347021990719" lon="11.398539593115865"><ele>809.0</ele><time>2026-04-12T10:05:49Z</time></trkpt><trkpt lat="44.22335070953596" lon="11.398507944885688"><ele>809.0</ele><time>2026-04-12T10:05:51Z</time></trkpt><trkpt lat="44.22328181456653" lon="11.398486637146618"><ele>809.0</ele><time>2026-04-12T10:05:52Z</time></trkpt><trkpt lat="44.223191910510096" lon="11.398459907447897"><ele>809.0</ele><time>2026-04-12T10:05:53Z</time></trkpt><trkpt lat="44.223073019108" lon="11.398508106494688"><ele>809.0</ele><time>2026-04-12T10:05:55Z</time></trkpt><trkpt lat="44.22298773586217" lon="11.398631903271664"><ele>809.0</ele><time>2026-04-12T10:05:57Z</time></trkpt><trkpt lat="44.22293325362426" lon="11.39868746693585"><ele>809.4000000000001</ele><time>2026-04-12T10:05:58Z</time></trkpt><trkpt lat="44.22284538857722" lon="11.398745183270558"><ele>809.8</ele><time>2026-04-12T10:05:59Z</time></trkpt><trkpt lat="44.22273856659614" lon="11.398828340003144"><ele>810.2</ele><time>2026-04-12T10:06:00Z</time></trkpt><trkpt lat="44.22265281290086" lon="11.398910676217044"><ele>810.5999999999999</ele><time>2026-04-12T10:06:01Z</time></trkpt><trkpt lat="44.222561778791146" lon="11.398943498784174"><ele>811.0</ele><time>2026-04-12T10:06:03Z</time></trkpt><trkpt lat="44.2224797641931" lon="11.398935734459428"><ele>811.0</ele><time>2026-04-12T10:06:04Z</time></trkpt><trkpt lat="44.22237536483492" lon="11.398950808774797"><ele>811.0</ele><time>2026-04-12T10:06:05Z</time></trkpt><trkpt lat="44.22228880167402" lon="11.398896490495002"><ele>811.0</ele><time>2026-04-12T10:06:06Z</time></trkpt><trkpt lat="44.22221478285122" lon="11.398836363489412"><ele>811.0</ele><time>2026-04-12T10:06:07Z</time></trkpt><trkpt lat="44.22214813322014" lon="11.398754701942545"><ele>811.0</ele><time>2026-04-12T10:06:08Z</time></trkpt><trkpt lat="44.22207255724501" lon="11.398707914145133"><ele>811.0</ele><time>2026-04-12T10:06:09Z</time></trkpt><trkpt lat="44.22202359625031" lon="11.398641337243982"><ele>811.0</ele><time>2026-04-12T10:06:10Z</time></trkpt><trkpt lat="44.22196505599947" lon="11.398596933368726"><ele>811.0</ele><time>2026-04-12T10:06:12Z</time></trkpt><trkpt lat="44.22191862054397" lon="11.398525485530799"><ele>811.0</ele><time>2026-04-12T10:06:13Z</time></trkpt><trkpt lat="44.22185270900312" lon="11.39845780335428"><ele>811.0</ele><time>2026-04-12T10:06:14Z</time></trkpt><trkpt lat="44.22178670700503" lon="11.398411476994912"><ele>811.0</ele><time>2026-04-12T10:06:15Z</time></trkpt><trkpt lat="44.221723713755665" lon="11.398375310571275"><ele>811.0</ele><time>2026-04-12T10:06:16Z</time></trkpt><trkpt lat="44.221632599134615" lon="11.398315214851687"><ele>811.0</ele><time>2026-04-12T10:06:17Z</time></trkpt><trkpt lat="44.22152634423568" lon="11.398232113268138"><ele>811.0</ele><time>2026-04-12T10:06:18Z</time></trkpt><trkpt lat="44.221431367143396" lon="11.398120364503564"><ele>811.0</ele><time>2026-04-12T10:06:19Z</time></trkpt><trkpt lat="44.22135124588578" lon="11.398012605314223"><ele>811.0</ele><time>2026-04-12T10:06:20Z</time></trkpt><trkpt lat="44.22128983332629" lon="11.397927920196686"><ele>811.0</ele><time>2026-04-12T10:06:21Z</time></trkpt><trkpt lat="44.22123813803171" lon="11.397875187574833"><ele>810.4</ele><time>2026-04-12T10:06:22Z</time></trkpt><trkpt lat="44.22118515781807" lon="11.39782356933339"><ele>809.8</ele><time>2026-04-12T10:06:23Z</time></trkpt><trkpt lat="44.22112176228874" lon="11.397771728166386"><ele>809.1999999999999</ele><time>2026-04-12T10:06:24Z</time></trkpt><trkpt lat="44.22103144404731" lon="11.397682343032981"><ele>808.5999999999999</ele><time>2026-04-12T10:06:25Z</time></trkpt><trkpt lat="44.22092690172464" lon="11.397551705675493"><ele>808.0</ele><time>2026-04-12T10:06:26Z</time></trkpt><trkpt lat="44.22083386826245" lon="11.397439520671359"><ele>808.0</ele><time>2026-04-12T10:06:27Z</time></trkpt><trkpt lat="44.22077214442195" lon="11.39732710617589"><ele>808.0</ele><time>2026-04-12T10:06:28Z</time></trkpt><trkpt lat="44.22074139295091" lon="11.397206033332115"><ele>808.0</ele><time>2026-04-12T10:06:29Z</time></trkpt><trkpt lat="44.220703189877185" lon="11.397076697820031"><ele>808.0</ele><time>2026-04-12T10:06:30Z</time></trkpt><trkpt lat="44.22063333295928" lon="11.396944306979785"><ele>808.0</ele><time>2026-04-12T10:06:31Z</time></trkpt><trkpt lat="44.220584383020174" lon="11.396822488965153"><ele>808.3333333333333</ele><time>2026-04-12T10:06:32Z</time></trkpt><trkpt lat="44.2205464828149" lon="11.396742248621798"><ele>808.6666666666666</ele><time>2026-04-12T10:06:33Z</time></trkpt><trkpt lat="44.22049820130098" lon="11.396659039691254"><ele>809.0</ele><time>2026-04-12T10:06:34Z</time></trkpt><trkpt lat="44.22045804184965" lon="11.396588778908185"><ele>809.3333333333333</ele><time>2026-04-12T10:06:35Z</time></trkpt><trkpt lat="44.22041552567163" lon="11.39647593242445"><ele>809.6666666666666</ele><time>2026-04-12T10:06:36Z</time></trkpt><trkpt lat="44.22036440778271" lon="11.396370338663997"><ele>810.0</ele><time>2026-04-12T10:06:37Z</time></trkpt><trkpt lat="44.22031592007981" lon="11.396282664565978"><ele>810.0</ele><time>2026-04-12T10:06:38Z</time></trkpt><trkpt lat="44.220286802103146" lon="11.3961942393066"><ele>810.0</ele><time>2026-04-12T10:06:39Z</time></trkpt><trkpt lat="44.22024729261948" lon="11.396024705296153"><ele>810.0</ele><time>2026-04-12T10:06:41Z</time></trkpt><trkpt lat="44.22019788345234" lon="11.395878760285173"><ele>810.0</ele><time>2026-04-12T10:06:43Z</time></trkpt><trkpt lat="44.220202682804505" lon="11.395763845200733"><ele>810.0</ele><time>2026-04-12T10:06:46Z</time></trkpt><trkpt lat="44.22015264941577" lon="11.395659735162395"><ele>810.0</ele><time>2026-04-12T10:06:49Z</time></trkpt><trkpt lat="44.22014591591426" lon="11.3955350576073"><ele>810.0</ele><time>2026-04-12T10:06:54Z</time></trkpt><trkpt lat="44.220081758341124" lon="11.395493363978792"><ele>810.0</ele><time>2026-04-12T10:06:58Z</time></trkpt><trkpt lat="44.220010329992" lon="11.395456393944718"><ele>810.0</ele><time>2026-04-12T10:07:01Z</time></trkpt><trkpt lat="44.21994710394204" lon="11.395424427972218"><ele>810.0</ele><time>2026-04-12T10:07:04Z</time></trkpt><trkpt lat="44.21987232907189" lon="11.395439695675737"><ele>810.0</ele><time>2026-04-12T10:07:12Z</time></trkpt><trkpt lat="44.219755171535944" lon="11.395442096214342"><ele>810.6666666666666</ele><time>2026-04-12T10:07:14Z</time></trkpt><trkpt lat="44.219660194901955" lon="11.395401948714753"><ele>811.3333333333333</ele><time>2026-04-12T10:07:16Z</time></trkpt><trkpt lat="44.21956971482344" lon="11.395369369926673"><ele>812.0</ele><time>2026-04-12T10:07:18Z</time></trkpt><trkpt lat="44.21948599035806" lon="11.395338661554788"><ele>812.6666666666666</ele><time>2026-04-12T10:07:20Z</time></trkpt><trkpt lat="44.21940062626317" lon="11.39532251322398"><ele>813.3333333333333</ele><time>2026-04-12T10:07:23Z</time></trkpt><trkpt lat="44.21932478489536" lon="11.39530775170749"><ele>814.0</ele><time>2026-04-12T10:07:32Z</time></trkpt><trkpt lat="44.219257427314915" lon="11.395276570535525"><ele>813.9999999999999</ele><time>2026-04-12T10:07:34Z</time></trkpt><trkpt lat="44.21918926107892" lon="11.395248669110204"><ele>814.0</ele><time>2026-04-12T10:07:35Z</time></trkpt><trkpt lat="44.21908690434275" lon="11.395235169592405"><ele>814.0</ele><time>2026-04-12T10:07:37Z</time></trkpt><trkpt lat="44.218969663697884" lon="11.395222120850963"><ele>814.0</ele><time>2026-04-12T10:07:39Z</time></trkpt><trkpt lat="44.21889997380575" lon="11.395229664325434"><ele>813.9999999999999</ele><time>2026-04-12T10:07:40Z</time></trkpt><trkpt lat="44.218831922447755" lon="11.395246418824543"><ele>814.0</ele><time>2026-04-12T10:07:41Z</time></trkpt><trkpt lat="44.218720962880234" lon="11.39530429244822"><ele>815.0</ele><time>2026-04-12T10:07:43Z</time></trkpt><trkpt lat="44.21862367877773" lon="11.395289316409022"><ele>816.0</ele><time>2026-04-12T10:07:45Z</time></trkpt><trkpt lat="44.21857203831578" lon="11.395198341795027"><ele>817.0</ele><time>2026-04-12T10:07:47Z</time></trkpt><trkpt lat="44.218513513935285" lon="11.395153793009127"><ele>818.0</ele><time>2026-04-12T10:07:48Z</time></trkpt><trkpt lat="44.21840065410944" lon="11.395146657884036"><ele>819.0</ele><time>2026-04-12T10:07:50Z</time></trkpt><trkpt lat="44.21830629476694" lon="11.395127758025282"><ele>819.0</ele><time>2026-04-12T10:07:52Z</time></trkpt><trkpt lat="44.21819313332343" lon="11.39506666586567"><ele>819.0</ele><time>2026-04-12T10:07:54Z</time></trkpt><trkpt lat="44.21806779531279" lon="11.394886105315445"><ele>819.0</ele><time>2026-04-12T10:08:27Z</time></trkpt><trkpt lat="44.218024310837" lon="11.394798864836837"><ele>819.0</ele><time>2026-04-12T10:08:29Z</time></trkpt><trkpt lat="44.21797704326146" lon="11.394700846898825"><ele>821.0</ele><time>2026-04-12T10:08:31Z</time></trkpt><trkpt lat="44.21795399381959" lon="11.394570593349943"><ele>823.0</ele><time>2026-04-12T10:08:33Z</time></trkpt><trkpt lat="44.217915430898586" lon="11.39445652857637"><ele>825.0</ele><time>2026-04-12T10:08:35Z</time></trkpt><trkpt lat="44.217801003792005" lon="11.394377472004164"><ele>827.0</ele><time>2026-04-12T10:08:37Z</time></trkpt><trkpt lat="44.217703778441866" lon="11.3943329817152"><ele>829.0</ele><time>2026-04-12T10:08:38Z</time></trkpt><trkpt lat="44.217623264857686" lon="11.394325848797552"><ele>828.9999999999999</ele><time>2026-04-12T10:08:39Z</time></trkpt><trkpt lat="44.217538217294624" lon="11.394365891316694"><ele>829.0</ele><time>2026-04-12T10:08:41Z</time></trkpt><trkpt lat="44.21745441862751" lon="11.394446293585098"><ele>829.0</ele><time>2026-04-12T10:08:43Z</time></trkpt><trkpt lat="44.217393195816705" lon="11.394483028445343"><ele>829.0</ele><time>2026-04-12T10:08:44Z</time></trkpt><trkpt lat="44.2173124126005" lon="11.394498070140266"><ele>828.9999999999999</ele><time>2026-04-12T10:08:45Z</time></trkpt><trkpt lat="44.21723311209419" lon="11.39449419743931"><ele>829.0</ele><time>2026-04-12T10:08:46Z</time></trkpt><trkpt lat="44.21710879158105" lon="11.394543369535931"><ele>829.4000000000001</ele><time>2026-04-12T10:08:48Z</time></trkpt><trkpt lat="44.21700569707725" lon="11.394532106660145"><ele>829.8</ele><time>2026-04-12T10:08:49Z</time></trkpt><trkpt lat="44.216898776301974" lon="11.39450904227084"><ele>830.2</ele><time>2026-04-12T10:08:50Z</time></trkpt><trkpt lat="44.2168249771503" lon="11.394488137394823"><ele>830.5999999999999</ele><time>2026-04-12T10:08:51Z</time></trkpt><trkpt lat="44.21671631639385" lon="11.394418208438456"><ele>831.0</ele><time>2026-04-12T10:08:53Z</time></trkpt><trkpt lat="44.216644395344844" lon="11.394377503417758"><ele>831.0</ele><time>2026-04-12T10:08:54Z</time></trkpt><trkpt lat="44.21658516652498" lon="11.394335928283258"><ele>831.0</ele><time>2026-04-12T10:08:55Z</time></trkpt><trkpt lat="44.21652902851942" lon="11.39428789760775"><ele>831.0</ele><time>2026-04-12T10:08:56Z</time></trkpt><trkpt lat="44.21646414414378" lon="11.394237564361294"><ele>831.0</ele><time>2026-04-12T10:08:57Z</time></trkpt><trkpt lat="44.216412120488975" lon="11.394120773025112"><ele>831.0</ele><time>2026-04-12T10:08:59Z</time></trkpt><trkpt lat="44.21639016168746" lon="11.394036789258799"><ele>831.0</ele><time>2026-04-12T10:09:00Z</time></trkpt><trkpt lat="44.21635145152054" lon="11.39389896486434"><ele>834.0</ele><time>2026-04-12T10:09:02Z</time></trkpt><trkpt lat="44.2163176139974" lon="11.39380076817595"><ele>837.0</ele><time>2026-04-12T10:09:03Z</time></trkpt><trkpt lat="44.21625291628093" lon="11.393647375807173"><ele>840.0</ele><time>2026-04-12T10:09:05Z</time></trkpt><trkpt lat="44.216200028104666" lon="11.393579822669961"><ele>843.0</ele><time>2026-04-12T10:09:07Z</time></trkpt><trkpt lat="44.216111179640194" lon="11.393497185721275"><ele>846.0</ele><time>2026-04-12T10:09:09Z</time></trkpt><trkpt lat="44.216034416901195" lon="11.393388974781821"><ele>846.0</ele><time>2026-04-12T10:09:11Z</time></trkpt><trkpt lat="44.21599310374569" lon="11.393306312518574"><ele>846.0</ele><time>2026-04-12T10:09:12Z</time></trkpt><trkpt lat="44.21595350613526" lon="11.393189494327384"><ele>846.0</ele><time>2026-04-12T10:09:13Z</time></trkpt><trkpt lat="44.215900669953754" lon="11.393071621099597"><ele>846.0</ele><time>2026-04-12T10:09:14Z</time></trkpt><trkpt lat="44.2158098242225" lon="11.392942698643393"><ele>846.0</ele><time>2026-04-12T10:09:15Z</time></trkpt><trkpt lat="44.2157534753673" lon="11.392775187538286"><ele>845.8</ele><time>2026-04-12T10:09:16Z</time></trkpt><trkpt lat="44.21567930184155" lon="11.392651628582108"><ele>845.5999999999999</ele><time>2026-04-12T10:09:17Z</time></trkpt><trkpt lat="44.21561815127681" lon="11.392540415468932"><ele>845.4</ele><time>2026-04-12T10:09:18Z</time></trkpt><trkpt lat="44.21556210598217" lon="11.392417230866728"><ele>845.2</ele><time>2026-04-12T10:09:20Z</time></trkpt><trkpt lat="44.21551127159828" lon="11.392341454197187"><ele>845.0</ele><time>2026-04-12T10:09:21Z</time></trkpt><trkpt lat="44.21540752683858" lon="11.392215673033183"><ele>844.8</ele><time>2026-04-12T10:09:23Z</time></trkpt><trkpt lat="44.215312685186596" lon="11.392140816952423"><ele>844.6</ele><time>2026-04-12T10:09:24Z</time></trkpt><trkpt lat="44.215200909751395" lon="11.392070127413264"><ele>844.4000000000001</ele><time>2026-04-12T10:09:25Z</time></trkpt><trkpt lat="44.2151122161745" lon="11.39201279968578"><ele>844.2</ele><time>2026-04-12T10:09:26Z</time></trkpt><trkpt lat="44.215047606812796" lon="11.391963244231825"><ele>844.0</ele><time>2026-04-12T10:09:27Z</time></trkpt><trkpt lat="44.21498138690367" lon="11.391904561924141"><ele>844.0</ele><time>2026-04-12T10:09:28Z</time></trkpt><trkpt lat="44.21489296314717" lon="11.3918537243663"><ele>844.0</ele><time>2026-04-12T10:09:29Z</time></trkpt><trkpt lat="44.214809941202994" lon="11.391800593160694"><ele>844.0</ele><time>2026-04-12T10:09:30Z</time></trkpt><trkpt lat="44.21473229890135" lon="11.391712002717309"><ele>844.0</ele><time>2026-04-12T10:09:31Z</time></trkpt><trkpt lat="44.21466289146037" lon="11.3915942726999"><ele>844.0</ele><time>2026-04-12T10:09:32Z</time></trkpt><trkpt lat="44.21457773643068" lon="11.391502183376165"><ele>845.6</ele><time>2026-04-12T10:09:33Z</time></trkpt><trkpt lat="44.214487950393554" lon="11.391441454504138"><ele>847.2</ele><time>2026-04-12T10:09:34Z</time></trkpt><trkpt lat="44.21438946956569" lon="11.3914033836069"><ele>848.8000000000001</ele><time>2026-04-12T10:09:35Z</time></trkpt><trkpt lat="44.21428688667602" lon="11.391375991874446"><ele>850.4000000000001</ele><time>2026-04-12T10:09:36Z</time></trkpt><trkpt lat="44.214173136241904" lon="11.391383210928579"><ele>852.0</ele><time>2026-04-12T10:09:37Z</time></trkpt><trkpt lat="44.214058785328845" lon="11.391411094012897"><ele>852.3333333333334</ele><time>2026-04-12T10:09:38Z</time></trkpt><trkpt lat="44.2139790198196" lon="11.39139630805865"><ele>852.6666666666667</ele><time>2026-04-12T10:09:39Z</time></trkpt><trkpt lat="44.21390899472171" lon="11.391381973030086"><ele>853.0</ele><time>2026-04-12T10:09:40Z</time></trkpt><trkpt lat="44.21382449660588" lon="11.391340887476604"><ele>853.3333333333334</ele><time>2026-04-12T10:09:41Z</time></trkpt><trkpt lat="44.21374398240098" lon="11.39132089610285"><ele>853.6666666666667</ele><time>2026-04-12T10:09:42Z</time></trkpt><trkpt lat="44.213657202256705" lon="11.391321951793918"><ele>854.0</ele><time>2026-04-12T10:09:43Z</time></trkpt><trkpt lat="44.213594908210695" lon="11.391339330092007"><ele>854.0</ele><time>2026-04-12T10:09:44Z</time></trkpt><trkpt lat="44.21351668980983" lon="11.391323143828458"><ele>854.0000000000001</ele><time>2026-04-12T10:09:46Z</time></trkpt><trkpt lat="44.213452447609505" lon="11.391215720539504"><ele>854.0000000000001</ele><time>2026-04-12T10:09:48Z</time></trkpt><trkpt lat="44.213409031289075" lon="11.39113539411953"><ele>854.0</ele><time>2026-04-12T10:09:49Z</time></trkpt><trkpt lat="44.21334126159404" lon="11.391052735520205"><ele>854.0</ele><time>2026-04-12T10:09:50Z</time></trkpt><trkpt lat="44.213250148159844" lon="11.390966837314968"><ele>854.0</ele><time>2026-04-12T10:09:51Z</time></trkpt><trkpt lat="44.21315708490703" lon="11.390861681655162"><ele>854.0000000000001</ele><time>2026-04-12T10:09:52Z</time></trkpt><trkpt lat="44.21308044665524" lon="11.390785405059653"><ele>854.0000000000001</ele><time>2026-04-12T10:09:53Z</time></trkpt><trkpt lat="44.2129916299356" lon="11.390711205800459"><ele>854.0</ele><time>2026-04-12T10:09:54Z</time></trkpt><trkpt lat="44.21291561730646" lon="11.390605943860969"><ele>854.0</ele><time>2026-04-12T10:09:55Z</time></trkpt><trkpt lat="44.21285585953723" lon="11.390524434492125"><ele>855.0</ele><time>2026-04-12T10:09:56Z</time></trkpt><trkpt lat="44.21279635206488" lon="11.39046566959816"><ele>856.0000000000001</ele><time>2026-04-12T10:09:58Z</time></trkpt><trkpt lat="44.212718690426115" lon="11.390404563463397"><ele>857.0000000000001</ele><time>2026-04-12T10:10:09Z</time></trkpt><trkpt lat="44.2126301405025" lon="11.390292846028181"><ele>858.0</ele><time>2026-04-12T10:10:11Z</time></trkpt><trkpt lat="44.21253706825604" lon="11.390190817221487"><ele>859.0</ele><time>2026-04-12T10:10:12Z</time></trkpt><trkpt lat="44.212464424076856" lon="11.390096236951939"><ele>859.0</ele><time>2026-04-12T10:10:13Z</time></trkpt><trkpt lat="44.21240608066311" lon="11.389977107711395"><ele>859.0000000000001</ele><time>2026-04-12T10:10:14Z</time></trkpt><trkpt lat="44.2123587914161" lon="11.38985270580428"><ele>859.0000000000001</ele><time>2026-04-12T10:10:15Z</time></trkpt><trkpt lat="44.21230280263565" lon="11.389724919142786"><ele>859.0</ele><time>2026-04-12T10:10:16Z</time></trkpt><trkpt lat="44.21223316600999" lon="11.389637243914779"><ele>859.0</ele><time>2026-04-12T10:10:17Z</time></trkpt><trkpt lat="44.212145367327466" lon="11.38954526814515"><ele>860.0</ele><time>2026-04-12T10:10:18Z</time></trkpt><trkpt lat="44.212035450466566" lon="11.389429120528714"><ele>861.0</ele><time>2026-04-12T10:10:19Z</time></trkpt><trkpt lat="44.211933227207126" lon="11.389341190279685"><ele>862.0</ele><time>2026-04-12T10:10:20Z</time></trkpt><trkpt lat="44.21183106990112" lon="11.389261081996196"><ele>863.0</ele><time>2026-04-12T10:10:21Z</time></trkpt><trkpt lat="44.21171986536182" lon="11.38919042874434"><ele>863.0</ele><time>2026-04-12T10:10:22Z</time></trkpt><trkpt lat="44.211609285291644" lon="11.389137402735956"><ele>863.0</ele><time>2026-04-12T10:10:23Z</time></trkpt><trkpt lat="44.21148812759207" lon="11.38909583619019"><ele>863.0</ele><time>2026-04-12T10:10:24Z</time></trkpt><trkpt lat="44.21136866169844" lon="11.389046311933349"><ele>863.0</ele><time>2026-04-12T10:10:25Z</time></trkpt><trkpt lat="44.211263805057136" lon="11.388988707822739"><ele>862.0</ele><time>2026-04-12T10:10:26Z</time></trkpt><trkpt lat="44.21116495209626" lon="11.388903996753301"><ele>861.0</ele><time>2026-04-12T10:10:27Z</time></trkpt><trkpt lat="44.2110378668486" lon="11.388876554508125"><ele>860.0</ele><time>2026-04-12T10:10:28Z</time></trkpt><trkpt lat="44.210938111141594" lon="11.388810640641564"><ele>859.0</ele><time>2026-04-12T10:10:29Z</time></trkpt><trkpt lat="44.21083895898164" lon="11.38876224889918"><ele>858.9999999999999</ele><time>2026-04-12T10:10:30Z</time></trkpt><trkpt lat="44.210734813614856" lon="11.388701739729827"><ele>859.0</ele><time>2026-04-12T10:10:31Z</time></trkpt><trkpt lat="44.210660961822484" lon="11.388648562176265"><ele>859.0</ele><time>2026-04-12T10:10:32Z</time></trkpt><trkpt lat="44.21059287757883" lon="11.388594297033462"><ele>859.0</ele><time>2026-04-12T10:10:33Z</time></trkpt><trkpt lat="44.21051671385847" lon="11.388534769078019"><ele>858.9999999999999</ele><time>2026-04-12T10:10:34Z</time></trkpt><trkpt lat="44.2104431761589" lon="11.38850343731699"><ele>859.0</ele><time>2026-04-12T10:10:35Z</time></trkpt><trkpt lat="44.21038332117296" lon="11.388438568817584"><ele>859.2857142857142</ele><time>2026-04-12T10:10:36Z</time></trkpt><trkpt lat="44.210325888465256" lon="11.388383984994487"><ele>859.5714285714286</ele><time>2026-04-12T10:10:37Z</time></trkpt><trkpt lat="44.21026817795723" lon="11.38833302181829"><ele>859.8571428571429</ele><time>2026-04-12T10:10:38Z</time></trkpt><trkpt lat="44.210197380881006" lon="11.388302643743103"><ele>860.1428571428571</ele><time>2026-04-12T10:10:39Z</time></trkpt><trkpt lat="44.210119346716944" lon="11.388268160027367"><ele>860.4285714285714</ele><time>2026-04-12T10:10:40Z</time></trkpt><trkpt lat="44.21004612675164" lon="11.38823841109677"><ele>860.7142857142857</ele><time>2026-04-12T10:10:41Z</time></trkpt><trkpt lat="44.209973182593096" lon="11.388220961831243"><ele>861.0</ele><time>2026-04-12T10:10:42Z</time></trkpt><trkpt lat="44.20990569311327" lon="11.388194178812716"><ele>861.0</ele><time>2026-04-12T10:10:43Z</time></trkpt><trkpt lat="44.20982612401859" lon="11.388162240801659"><ele>861.0</ele><time>2026-04-12T10:10:44Z</time></trkpt><trkpt lat="44.209742658237644" lon="11.38813493041989"><ele>861.0</ele><time>2026-04-12T10:10:45Z</time></trkpt><trkpt lat="44.209639293067596" lon="11.388114922296303"><ele>861.0</ele><time>2026-04-12T10:10:46Z</time></trkpt><trkpt lat="44.209557733262386" lon="11.388089661218306"><ele>861.0</ele><time>2026-04-12T10:10:47Z</time></trkpt><trkpt lat="44.209476182739294" lon="11.388065078838656"><ele>861.0</ele><time>2026-04-12T10:10:48Z</time></trkpt><trkpt lat="44.20939749301634" lon="11.388054823549647"><ele>861.1666666666666</ele><time>2026-04-12T10:10:49Z</time></trkpt><trkpt lat="44.209313474284" lon="11.388041870836217"><ele>861.3333333333333</ele><time>2026-04-12T10:10:50Z</time></trkpt><trkpt lat="44.20924141332854" lon="11.388018680376662"><ele>861.5</ele><time>2026-04-12T10:10:51Z</time></trkpt><trkpt lat="44.2091689112975" lon="11.387988195050662"><ele>861.6666666666666</ele><time>2026-04-12T10:10:52Z</time></trkpt><trkpt lat="44.20909427916519" lon="11.38796289581411"><ele>861.8333333333333</ele><time>2026-04-12T10:10:53Z</time></trkpt><trkpt lat="44.20900609257786" lon="11.387963102232243"><ele>862.0</ele><time>2026-04-12T10:10:54Z</time></trkpt><trkpt lat="44.20891078650604" lon="11.387942206660291"><ele>862.9999999999999</ele><time>2026-04-12T10:10:55Z</time></trkpt><trkpt lat="44.20882219393618" lon="11.387919857979803"><ele>864.0</ele><time>2026-04-12T10:10:56Z</time></trkpt><trkpt lat="44.208758138988465" lon="11.387925850287997"><ele>865.0</ele><time>2026-04-12T10:10:57Z</time></trkpt><trkpt lat="44.20866196775972" lon="11.387893297200787"><ele>866.0</ele><time>2026-04-12T10:10:59Z</time></trkpt><trkpt lat="44.20859132296823" lon="11.387889682518916"><ele>866.9999999999999</ele><time>2026-04-12T10:11:03Z</time></trkpt><trkpt lat="44.20849844394764" lon="11.38788722745483"><ele>868.0</ele><time>2026-04-12T10:11:20Z</time></trkpt><trkpt lat="44.20840166044629" lon="11.387898120529687"><ele>867.9999999999999</ele><time>2026-04-12T10:11:21Z</time></trkpt><trkpt lat="44.20831662397487" lon="11.387923907887172"><ele>868.0</ele><time>2026-04-12T10:11:22Z</time></trkpt><trkpt lat="44.20822598401122" lon="11.387936101848187"><ele>868.0</ele><time>2026-04-12T10:11:23Z</time></trkpt><trkpt lat="44.20813300430649" lon="11.387942786610825"><ele>868.0</ele><time>2026-04-12T10:11:24Z</time></trkpt><trkpt lat="44.20804675868238" lon="11.387951970724831"><ele>867.9999999999999</ele><time>2026-04-12T10:11:25Z</time></trkpt><trkpt lat="44.20796749180286" lon="11.387969186596797"><ele>868.0</ele><time>2026-04-12T10:11:26Z</time></trkpt><trkpt lat="44.207861274823436" lon="11.387999497526872"><ele>870.1666666666666</ele><time>2026-04-12T10:11:27Z</time></trkpt><trkpt lat="44.20776113945375" lon="11.388026775226894"><ele>872.3333333333333</ele><time>2026-04-12T10:11:28Z</time></trkpt><trkpt lat="44.207671327002174" lon="11.388054431490382"><ele>874.5</ele><time>2026-04-12T10:11:29Z</time></trkpt><trkpt lat="44.207583103935896" lon="11.388094544201516"><ele>876.6666666666667</ele><time>2026-04-12T10:11:30Z</time></trkpt><trkpt lat="44.20753556301055" lon="11.388157506034963"><ele>878.8333333333334</ele><time>2026-04-12T10:11:31Z</time></trkpt><trkpt lat="44.20747517742021" lon="11.388218281921153"><ele>881.0</ele><time>2026-04-12T10:11:33Z</time></trkpt><trkpt lat="44.207389079962475" lon="11.388284244500593"><ele>882.75</ele><time>2026-04-12T10:11:36Z</time></trkpt><trkpt lat="44.207322815552956" lon="11.38838424968895"><ele>884.5</ele><time>2026-04-12T10:11:37Z</time></trkpt><trkpt lat="44.20724417197538" lon="11.388222193763594"><ele>886.25</ele><time>2026-04-12T10:11:39Z</time></trkpt><trkpt lat="44.207101163068984" lon="11.388344977519214"><ele>888.0</ele><time>2026-04-12T10:11:41Z</time></trkpt><trkpt lat="44.20701459811045" lon="11.38832838433703"><ele>888.0</ele><time>2026-04-12T10:11:43Z</time></trkpt><trkpt lat="44.20690497729446" lon="11.388315076454482"><ele>888.0</ele><time>2026-04-12T10:11:45Z</time></trkpt><trkpt lat="44.20682265062108" lon="11.388318912521937"><ele>888.0</ele><time>2026-04-12T10:11:47Z</time></trkpt><trkpt lat="44.20673243653337" lon="11.388353447313733"><ele>888.0</ele><time>2026-04-12T10:11:49Z</time></trkpt><trkpt lat="44.206614913244074" lon="11.388353539077846"><ele>888.0</ele><time>2026-04-12T10:11:50Z</time></trkpt><trkpt lat="44.20651112854649" lon="11.388307799290168"><ele>889.75</ele><time>2026-04-12T10:11:51Z</time></trkpt><trkpt lat="44.20642794060834" lon="11.388259603740524"><ele>891.5</ele><time>2026-04-12T10:11:53Z</time></trkpt><trkpt lat="44.206293630185485" lon="11.388234528019561"><ele>893.25</ele><time>2026-04-12T10:11:55Z</time></trkpt><trkpt lat="44.206127952269185" lon="11.388220113128142"><ele>895.0</ele><time>2026-04-12T10:11:57Z</time></trkpt><trkpt lat="44.20599712813693" lon="11.388191731919688"><ele>895.0</ele><time>2026-04-12T10:11:59Z</time></trkpt><trkpt lat="44.20590868012895" lon="11.388176022446773"><ele>895.0</ele><time>2026-04-12T10:12:00Z</time></trkpt><trkpt lat="44.2058158280573" lon="11.38815953083598"><ele>895.0</ele><time>2026-04-12T10:12:01Z</time></trkpt><trkpt lat="44.20570140142669" lon="11.388151130824168"><ele>895.0</ele><time>2026-04-12T10:12:03Z</time></trkpt><trkpt lat="44.20560983348376" lon="11.388148357147898"><ele>895.0</ele><time>2026-04-12T10:12:05Z</time></trkpt><trkpt lat="44.20553394059438" lon="11.387754241756744"><ele>899.0</ele><time>2026-04-12T10:12:07Z</time></trkpt><trkpt lat="44.205423726807794" lon="11.387674401567354"><ele>903.0</ele><time>2026-04-12T10:12:09Z</time></trkpt><trkpt lat="44.20540521052338" lon="11.388161394441275"><ele>903.0</ele><time>2026-04-12T10:12:10Z</time></trkpt><trkpt lat="44.20533832726803" lon="11.388154244460882"><ele>903.0</ele><time>2026-04-12T10:12:11Z</time></trkpt><trkpt lat="44.205273640447956" lon="11.388143573632"><ele>903.0</ele><time>2026-04-12T10:12:12Z</time></trkpt><trkpt lat="44.205207706073224" lon="11.388129799548354"><ele>903.0</ele><time>2026-04-12T10:12:13Z</time></trkpt><trkpt lat="44.20509326097297" lon="11.38741064274948"><ele>904.2</ele><time>2026-04-12T10:12:14Z</time></trkpt><trkpt lat="44.20503693900436" lon="11.387359176277045"><ele>905.4</ele><time>2026-04-12T10:12:15Z</time></trkpt><trkpt lat="44.204923599241134" lon="11.387291321986538"><ele>906.6000000000001</ele><time>2026-04-12T10:12:17Z</time></trkpt><trkpt lat="44.20483447052277" lon="11.387245771709335"><ele>907.8000000000001</ele><time>2026-04-12T10:12:19Z</time></trkpt><trkpt lat="44.20469178982012" lon="11.387231910732643"><ele>909.0</ele><time>2026-04-12T10:12:21Z</time></trkpt><trkpt lat="44.20461756799656" lon="11.387260343950052"><ele>911.2</ele><time>2026-04-12T10:12:22Z</time></trkpt><trkpt lat="44.20452133002044" lon="11.387161709967701"><ele>913.4000000000001</ele><time>2026-04-12T10:12:24Z</time></trkpt><trkpt lat="44.204497699321955" lon="11.38707560795426"><ele>915.6</ele><time>2026-04-12T10:12:25Z</time></trkpt><trkpt lat="44.2044920433713" lon="11.386905760303332"><ele>917.8</ele><time>2026-04-12T10:12:27Z</time></trkpt><trkpt lat="44.20442944231906" lon="11.386809894556169"><ele>920.0</ele><time>2026-04-12T10:12:28Z</time></trkpt><trkpt lat="44.2043731783853" lon="11.386716780368841"><ele>920.0000000000001</ele><time>2026-04-12T10:12:29Z</time></trkpt><trkpt lat="44.20433715703315" lon="11.386644056610763"><ele>920.0</ele><time>2026-04-12T10:12:30Z</time></trkpt><trkpt lat="44.20428044464129" lon="11.386527961843669"><ele>920.0</ele><time>2026-04-12T10:12:32Z</time></trkpt><trkpt lat="44.204229084151436" lon="11.386421514261192"><ele>920.0</ele><time>2026-04-12T10:12:34Z</time></trkpt><trkpt lat="44.20418293894122" lon="11.386319386834733"><ele>920.0000000000001</ele><time>2026-04-12T10:12:37Z</time></trkpt><trkpt lat="44.20415645895631" lon="11.386227577278"><ele>920.0</ele><time>2026-04-12T10:12:40Z</time></trkpt><trkpt lat="44.204101972341235" lon="11.386167859166694"><ele>920.0</ele><time>2026-04-12T10:12:44Z</time></trkpt><trkpt lat="44.204021444228985" lon="11.386076640087136"><ele>920.0</ele><time>2026-04-12T10:12:46Z</time></trkpt><trkpt lat="44.20393214913212" lon="11.385978634866524"><ele>920.0</ele><time>2026-04-12T10:12:48Z</time></trkpt><trkpt lat="44.20388967731244" lon="11.385906854434372"><ele>920.0</ele><time>2026-04-12T10:12:49Z</time></trkpt><trkpt lat="44.2038268883599" lon="11.385857574261932"><ele>920.0</ele><time>2026-04-12T10:12:50Z</time></trkpt><trkpt lat="44.20375061434207" lon="11.385774814669954"><ele>920.8</ele><time>2026-04-12T10:12:52Z</time></trkpt><trkpt lat="44.203690191272464" lon="11.38568248591481"><ele>921.6</ele><time>2026-04-12T10:12:54Z</time></trkpt><trkpt lat="44.20364938677686" lon="11.385578440127205"><ele>922.4000000000001</ele><time>2026-04-12T10:12:57Z</time></trkpt><trkpt lat="44.20359199037585" lon="11.3854949069998"><ele>923.2</ele><time>2026-04-12T10:13:00Z</time></trkpt><trkpt lat="44.20346584330144" lon="11.385342968902021"><ele>924.0</ele><time>2026-04-12T10:13:01Z</time></trkpt><trkpt lat="44.20335756413196" lon="11.38529721150819"><ele>924.1666666666666</ele><time>2026-04-12T10:13:03Z</time></trkpt><trkpt lat="44.20329154889625" lon="11.385281874315671"><ele>924.3333333333333</ele><time>2026-04-12T10:13:04Z</time></trkpt><trkpt lat="44.203192910882706" lon="11.385214112903284"><ele>924.5</ele><time>2026-04-12T10:13:06Z</time></trkpt><trkpt lat="44.20312865383636" lon="11.38507956701243"><ele>924.6666666666666</ele><time>2026-04-12T10:13:08Z</time></trkpt><trkpt lat="44.20307899039351" lon="11.385008687299383"><ele>924.8333333333333</ele><time>2026-04-12T10:13:10Z</time></trkpt><trkpt lat="44.20301838512609" lon="11.384954553365734"><ele>925.0</ele><time>2026-04-12T10:13:12Z</time></trkpt><trkpt lat="44.20295154282784" lon="11.38490353718162"><ele>925.4</ele><time>2026-04-12T10:13:14Z</time></trkpt><trkpt lat="44.20283929205987" lon="11.384822093052469"><ele>925.8</ele><time>2026-04-12T10:13:16Z</time></trkpt><trkpt lat="44.20274385927675" lon="11.384721443447276"><ele>926.2</ele><time>2026-04-12T10:13:18Z</time></trkpt><trkpt lat="44.202681943879156" lon="11.384647917805877"><ele>926.6</ele><time>2026-04-12T10:13:20Z</time></trkpt><trkpt lat="44.202624914817335" lon="11.384557829431113"><ele>927.0</ele><time>2026-04-12T10:13:22Z</time></trkpt><trkpt lat="44.202591118518" lon="11.384420703815275"><ele>927.6666666666666</ele><time>2026-04-12T10:13:25Z</time></trkpt><trkpt lat="44.20255848969637" lon="11.384313508890244"><ele>928.3333333333333</ele><time>2026-04-12T10:13:28Z</time></trkpt><trkpt lat="44.2025118276876" lon="11.384195792618907"><ele>929.0</ele><time>2026-04-12T10:13:30Z</time></trkpt><trkpt lat="44.202471807908715" lon="11.384107562569552"><ele>929.6666666666666</ele><time>2026-04-12T10:13:32Z</time></trkpt><trkpt lat="44.20244217696812" lon="11.384021494257748"><ele>930.3333333333333</ele><time>2026-04-12T10:13:34Z</time></trkpt><trkpt lat="44.20239413492521" lon="11.383954891621793"><ele>931.0</ele><time>2026-04-12T10:13:37Z</time></trkpt><trkpt lat="44.20234592650059" lon="11.383881833821627"><ele>931.75</ele><time>2026-04-12T10:13:39Z</time></trkpt><trkpt lat="44.202304346551266" lon="11.383781770144347"><ele>932.5</ele><time>2026-04-12T10:13:42Z</time></trkpt><trkpt lat="44.202185377326074" lon="11.383535257500107"><ele>933.25</ele><time>2026-04-12T10:13:43Z</time></trkpt><trkpt lat="44.202137410254245" lon="11.383427285315948"><ele>934.0</ele><time>2026-04-12T10:13:45Z</time></trkpt><trkpt lat="44.202083680837866" lon="11.38330495027094"><ele>933.9999999999999</ele><time>2026-04-12T10:13:47Z</time></trkpt><trkpt lat="44.20205330301686" lon="11.38317771209432"><ele>934.0</ele><time>2026-04-12T10:13:49Z</time></trkpt><trkpt lat="44.20200777231578" lon="11.383069756846734"><ele>934.0</ele><time>2026-04-12T10:13:51Z</time></trkpt><trkpt lat="44.20193552355332" lon="11.382980119008607"><ele>934.0</ele><time>2026-04-12T10:13:53Z</time></trkpt><trkpt lat="44.20187772317756" lon="11.382918257767548"><ele>933.9999999999999</ele><time>2026-04-12T10:13:55Z</time></trkpt><trkpt lat="44.201809565817236" lon="11.38288842847843"><ele>934.0</ele><time>2026-04-12T10:13:57Z</time></trkpt><trkpt lat="44.20175218594787" lon="11.382828160096256"><ele>933.9999999999999</ele><time>2026-04-12T10:13:59Z</time></trkpt><trkpt lat="44.20170626773921" lon="11.382725755093505"><ele>934.0</ele><time>2026-04-12T10:14:02Z</time></trkpt><trkpt lat="44.20165083318049" lon="11.382678068575839"><ele>934.0</ele><time>2026-04-12T10:14:05Z</time></trkpt><trkpt lat="44.20158633231008" lon="11.382627469437764"><ele>934.0</ele><time>2026-04-12T10:14:22Z</time></trkpt><trkpt lat="44.201532583401104" lon="11.382564015640865"><ele>933.9999999999999</ele><time>2026-04-12T10:14:29Z</time></trkpt><trkpt lat="44.20146930812609" lon="11.382488874281638"><ele>934.0</ele><time>2026-04-12T10:14:31Z</time></trkpt><trkpt lat="44.20138817862191" lon="11.382359470728762"><ele>934.4000000000001</ele><time>2026-04-12T10:14:33Z</time></trkpt><trkpt lat="44.20132657847248" lon="11.382275237168965"><ele>934.8000000000001</ele><time>2026-04-12T10:14:35Z</time></trkpt><trkpt lat="44.20125873555529" lon="11.382148730951299"><ele>935.1999999999999</ele><time>2026-04-12T10:14:38Z</time></trkpt><trkpt lat="44.201196960393624" lon="11.3820494604266"><ele>935.5999999999999</ele><time>2026-04-12T10:14:40Z</time></trkpt><trkpt lat="44.20112409212451" lon="11.38198697969879"><ele>936.0</ele><time>2026-04-12T10:14:42Z</time></trkpt><trkpt lat="44.20104832316436" lon="11.381905215012711"><ele>936.0</ele><time>2026-04-12T10:14:44Z</time></trkpt><trkpt lat="44.201001262137595" lon="11.381822425231565"><ele>935.9999999999999</ele><time>2026-04-12T10:14:47Z</time></trkpt><trkpt lat="44.200923903987764" lon="11.381764760982577"><ele>935.9999999999999</ele><time>2026-04-12T10:14:50Z</time></trkpt><trkpt lat="44.20084380414127" lon="11.381690386529325"><ele>936.0</ele><time>2026-04-12T10:14:52Z</time></trkpt><trkpt lat="44.20075532008204" lon="11.381594310798969"><ele>936.0</ele><time>2026-04-12T10:14:54Z</time></trkpt><trkpt lat="44.2006723841042" lon="11.381492371062595"><ele>936.6666666666666</ele><time>2026-04-12T10:14:56Z</time></trkpt><trkpt lat="44.20061116959542" lon="11.381438463556265"><ele>937.3333333333333</ele><time>2026-04-12T10:14:57Z</time></trkpt><trkpt lat="44.200556236620756" lon="11.381370695287421"><ele>938.0</ele><time>2026-04-12T10:14:59Z</time></trkpt><trkpt lat="44.20050197126309" lon="11.381299981016166"><ele>938.6666666666666</ele><time>2026-04-12T10:15:01Z</time></trkpt><trkpt lat="44.20042386642821" lon="11.381236375047072"><ele>939.3333333333333</ele><time>2026-04-12T10:15:03Z</time></trkpt><trkpt lat="44.20037344692164" lon="11.381149313605045"><ele>940.0</ele><time>2026-04-12T10:15:05Z</time></trkpt><trkpt lat="44.20026972198041" lon="11.381051962162198"><ele>939.9999999999999</ele><time>2026-04-12T10:15:07Z</time></trkpt><trkpt lat="44.20021415135044" lon="11.38099178397977"><ele>940.0</ele><time>2026-04-12T10:15:08Z</time></trkpt><trkpt lat="44.20016154984989" lon="11.380923119367841"><ele>940.0</ele><time>2026-04-12T10:15:09Z</time></trkpt><trkpt lat="44.200088895033296" lon="11.380838915379647"><ele>940.0</ele><time>2026-04-12T10:15:11Z</time></trkpt><trkpt lat="44.200002394016295" lon="11.380748319422"><ele>939.9999999999999</ele><time>2026-04-12T10:15:13Z</time></trkpt><trkpt lat="44.199957690131455" lon="11.380685148597788"><ele>940.0</ele><time>2026-04-12T10:15:14Z</time></trkpt><trkpt lat="44.199900053073385" lon="11.380593270996384"><ele>939.8</ele><time>2026-04-12T10:15:16Z</time></trkpt><trkpt lat="44.199859332527794" lon="11.380504023907111"><ele>939.6</ele><time>2026-04-12T10:15:19Z</time></trkpt><trkpt lat="44.19979400756088" lon="11.38039794842291"><ele>939.4000000000001</ele><time>2026-04-12T10:15:22Z</time></trkpt><trkpt lat="44.199764355015496" lon="11.380307952526682"><ele>939.2</ele><time>2026-04-12T10:15:24Z</time></trkpt><trkpt lat="44.19968202993035" lon="11.380184602919202"><ele>939.0</ele><time>2026-04-12T10:15:27Z</time></trkpt><trkpt lat="44.1996454934509" lon="11.380007952886995"><ele>940.6</ele><time>2026-04-12T10:15:29Z</time></trkpt><trkpt lat="44.199611134446144" lon="11.379882830173036"><ele>942.2</ele><time>2026-04-12T10:15:30Z</time></trkpt><trkpt lat="44.199576212889525" lon="11.379755520037344"><ele>943.8000000000001</ele><time>2026-04-12T10:15:31Z</time></trkpt><trkpt lat="44.19949951642004" lon="11.379647423829105"><ele>945.4000000000001</ele><time>2026-04-12T10:15:33Z</time></trkpt><trkpt lat="44.19947442557816" lon="11.379541711821703"><ele>947.0</ele><time>2026-04-12T10:15:34Z</time></trkpt><trkpt lat="44.19943492148515" lon="11.379445453487328"><ele>948.0</ele><time>2026-04-12T10:15:35Z</time></trkpt><trkpt lat="44.199371708282506" lon="11.37935082352573"><ele>949.0</ele><time>2026-04-12T10:15:37Z</time></trkpt><trkpt lat="44.19934626118897" lon="11.379217124646775"><ele>950.0</ele><time>2026-04-12T10:15:40Z</time></trkpt><trkpt lat="44.19932176977623" lon="11.379120691790584"><ele>951.0</ele><time>2026-04-12T10:15:42Z</time></trkpt><trkpt lat="44.19925653017408" lon="11.37893995926247"><ele>952.0</ele><time>2026-04-12T10:15:44Z</time></trkpt><trkpt lat="44.19921562173861" lon="11.378843459196279"><ele>952.4285714285714</ele><time>2026-04-12T10:15:46Z</time></trkpt><trkpt lat="44.19921030644457" lon="11.378734022140181"><ele>952.8571428571429</ele><time>2026-04-12T10:15:50Z</time></trkpt><trkpt lat="44.19918774361783" lon="11.378631784993376"><ele>953.2857142857142</ele><time>2026-04-12T10:15:52Z</time></trkpt><trkpt lat="44.19916183539622" lon="11.378536353039541"><ele>953.7142857142857</ele><time>2026-04-12T10:15:53Z</time></trkpt><trkpt lat="44.199161985580766" lon="11.378427120798152"><ele>954.1428571428571</ele><time>2026-04-12T10:15:55Z</time></trkpt><trkpt lat="44.19913333974742" lon="11.37834816397366"><ele>954.5714285714284</ele><time>2026-04-12T10:16:37Z</time></trkpt><trkpt lat="44.1991238707047" lon="11.37826127148904"><ele>954.9999999999999</ele><time>2026-04-12T10:19:07Z</time></trkpt><trkpt lat="44.1991004819545" lon="11.378166531248027"><ele>954.9999999999999</ele><time>2026-04-12T10:19:12Z</time></trkpt><trkpt lat="44.19906685610698" lon="11.378081976388458"><ele>955.0</ele><time>2026-04-12T10:19:17Z</time></trkpt><trkpt lat="44.198996442165914" lon="11.378037949551672"><ele>955.0</ele><time>2026-04-12T10:19:23Z</time></trkpt><trkpt lat="44.198955343611914" lon="11.377923830166159"><ele>955.0</ele><time>2026-04-12T10:19:26Z</time></trkpt><trkpt lat="44.1989994853546" lon="11.378049859735624"><ele>954.9999999999999</ele><time>2026-04-12T10:19:55Z</time></trkpt><trkpt lat="44.198971005082214" lon="11.37795810785411"><ele>955.0</ele><time>2026-04-12T10:20:54Z</time></trkpt><trkpt lat="44.198902985346706" lon="11.377887988842057"><ele>953.9999999999999</ele><time>2026-04-12T10:21:37Z</time></trkpt><trkpt lat="44.19886382491107" lon="11.377817010354512"><ele>953.0</ele><time>2026-04-12T10:24:33Z</time></trkpt><trkpt lat="44.198803296286236" lon="11.377766844053756"><ele>951.9999999999999</ele><time>2026-04-12T10:24:36Z</time></trkpt><trkpt lat="44.198749609276454" lon="11.377703146824073"><ele>950.9999999999999</ele><time>2026-04-12T10:24:38Z</time></trkpt><trkpt lat="44.19870511791" lon="11.37760518209446"><ele>950.0</ele><time>2026-04-12T10:24:40Z</time></trkpt><trkpt lat="44.19865639839815" lon="11.377523174078704"><ele>948.9999999999999</ele><time>2026-04-12T10:24:43Z</time></trkpt><trkpt lat="44.19861518911387" lon="11.377452285517295"><ele>947.9999999999999</ele><time>2026-04-12T10:24:49Z</time></trkpt><trkpt lat="44.198561921102886" lon="11.377358324958667"><ele>948.0</ele><time>2026-04-12T10:24:53Z</time></trkpt><trkpt lat="44.1984931917299" lon="11.377294101249895"><ele>948.0</ele><time>2026-04-12T10:24:56Z</time></trkpt><trkpt lat="44.19844168615267" lon="11.37722902359089"><ele>948.0</ele><time>2026-04-12T10:24:59Z</time></trkpt><trkpt lat="44.1983946850565" lon="11.377149707085294"><ele>948.0</ele><time>2026-04-12T10:25:02Z</time></trkpt><trkpt lat="44.19834496977357" lon="11.377070094644363"><ele>948.0</ele><time>2026-04-12T10:25:05Z</time></trkpt><trkpt lat="44.198296010357666" lon="11.376986669626257"><ele>948.0</ele><time>2026-04-12T10:25:08Z</time></trkpt><trkpt lat="44.19825175605544" lon="11.376907576640706"><ele>947.8333333333334</ele><time>2026-04-12T10:25:11Z</time></trkpt><trkpt lat="44.19819747747356" lon="11.376817313535042"><ele>947.6666666666667</ele><time>2026-04-12T10:25:15Z</time></trkpt><trkpt lat="44.19813380999972" lon="11.37671660569749"><ele>947.5</ele><time>2026-04-12T10:25:20Z</time></trkpt><trkpt lat="44.19807215916213" lon="11.376652585692124"><ele>947.3333333333334</ele><time>2026-04-12T10:25:22Z</time></trkpt><trkpt lat="44.19801498910411" lon="11.376596767941999"><ele>947.1666666666667</ele><time>2026-04-12T10:25:24Z</time></trkpt><trkpt lat="44.197944032608454" lon="11.376520678444887"><ele>947.0</ele><time>2026-04-12T10:25:27Z</time></trkpt><trkpt lat="44.197867477600816" lon="11.376504769939455"><ele>945.6</ele><time>2026-04-12T10:25:30Z</time></trkpt><trkpt lat="44.19778250739564" lon="11.376507954020841"><ele>944.2</ele><time>2026-04-12T10:25:33Z</time></trkpt><trkpt lat="44.197693097182366" lon="11.376490528909185"><ele>942.8</ele><time>2026-04-12T10:25:36Z</time></trkpt><trkpt lat="44.197614174952065" lon="11.376456775692922"><ele>941.4</ele><time>2026-04-12T10:25:38Z</time></trkpt><trkpt lat="44.19750355472212" lon="11.376419612830322"><ele>940.0</ele><time>2026-04-12T10:25:40Z</time></trkpt><trkpt lat="44.19741282607768" lon="11.376383268948432"><ele>939.9999999999999</ele><time>2026-04-12T10:25:42Z</time></trkpt><trkpt lat="44.197348024986425" lon="11.376357311080346"><ele>940.0</ele><time>2026-04-12T10:25:44Z</time></trkpt><trkpt lat="44.19728172809032" lon="11.376331266800314"><ele>940.0</ele><time>2026-04-12T10:25:46Z</time></trkpt><trkpt lat="44.197190832858546" lon="11.376295931572182"><ele>940.0</ele><time>2026-04-12T10:25:49Z</time></trkpt><trkpt lat="44.19712102330094" lon="11.376268793332331"><ele>939.9999999999999</ele><time>2026-04-12T10:25:51Z</time></trkpt><trkpt lat="44.197050706482464" lon="11.376239456861514"><ele>940.0</ele><time>2026-04-12T10:25:53Z</time></trkpt><trkpt lat="44.196974845259064" lon="11.37620551236092"><ele>940.2</ele><time>2026-04-12T10:25:56Z</time></trkpt><trkpt lat="44.196901221110714" lon="11.376167081821972"><ele>940.4</ele><time>2026-04-12T10:25:58Z</time></trkpt><trkpt lat="44.19682530486772" lon="11.37611836618486"><ele>940.5999999999999</ele><time>2026-04-12T10:25:59Z</time></trkpt><trkpt lat="44.19675422215878" lon="11.376053468165404"><ele>940.8</ele><time>2026-04-12T10:26:03Z</time></trkpt><trkpt lat="44.19666562752394" lon="11.375987110995254"><ele>941.0</ele><time>2026-04-12T10:26:07Z</time></trkpt><trkpt lat="44.19646312046766" lon="11.375863431777079"><ele>941.0</ele><time>2026-04-12T10:26:08Z</time></trkpt><trkpt lat="44.196380891893774" lon="11.3758508074101"><ele>940.9999999999999</ele><time>2026-04-12T10:26:09Z</time></trkpt><trkpt lat="44.19630690920598" lon="11.375840030518892"><ele>940.9999999999999</ele><time>2026-04-12T10:26:10Z</time></trkpt><trkpt lat="44.19618842991268" lon="11.375806651521922"><ele>941.0</ele><time>2026-04-12T10:26:12Z</time></trkpt><trkpt lat="44.196088768804046" lon="11.375767269852497"><ele>941.0</ele><time>2026-04-12T10:26:14Z</time></trkpt><trkpt lat="44.195992893406505" lon="11.375727062125122"><ele>941.0000000000001</ele><time>2026-04-12T10:26:16Z</time></trkpt><trkpt lat="44.19592388399631" lon="11.375698121310005"><ele>941.0</ele><time>2026-04-12T10:26:18Z</time></trkpt><trkpt lat="44.19586064694219" lon="11.375671601284136"><ele>941.0</ele><time>2026-04-12T10:26:29Z</time></trkpt><trkpt lat="44.19574925641862" lon="11.375626737029373"><ele>941.0</ele><time>2026-04-12T10:26:31Z</time></trkpt><trkpt lat="44.19563907976539" lon="11.37559721242299"><ele>941.0000000000001</ele><time>2026-04-12T10:26:33Z</time></trkpt><trkpt lat="44.195573129307114" lon="11.37557189755777"><ele>941.0</ele><time>2026-04-12T10:26:34Z</time></trkpt><trkpt lat="44.195465545463954" lon="11.375531424852147"><ele>941.1999999999999</ele><time>2026-04-12T10:26:36Z</time></trkpt><trkpt lat="44.19536166610903" lon="11.375489017373845"><ele>941.3999999999999</ele><time>2026-04-12T10:26:38Z</time></trkpt><trkpt lat="44.195259388553794" lon="11.375444516377808"><ele>941.6</ele><time>2026-04-12T10:26:40Z</time></trkpt><trkpt lat="44.195148416398915" lon="11.37539464024263"><ele>941.8</ele><time>2026-04-12T10:26:42Z</time></trkpt><trkpt lat="44.1950642587039" lon="11.37535514901504"><ele>942.0</ele><time>2026-04-12T10:26:44Z</time></trkpt><trkpt lat="44.194989229136674" lon="11.37531596778984"><ele>942.0</ele><time>2026-04-12T10:26:46Z</time></trkpt><trkpt lat="44.19489796285511" lon="11.375262441939205"><ele>942.0</ele><time>2026-04-12T10:26:48Z</time></trkpt><trkpt lat="44.194835320241076" lon="11.37520045288299"><ele>942.0</ele><time>2026-04-12T10:26:50Z</time></trkpt><trkpt lat="44.194786132856855" lon="11.375133976251108"><ele>942.0</ele><time>2026-04-12T10:27:28Z</time></trkpt><trkpt lat="44.194740945890864" lon="11.375039596776315"><ele>942.0</ele><time>2026-04-12T10:27:31Z</time></trkpt><trkpt lat="44.19471198017322" lon="11.37495140306571"><ele>942.0</ele><time>2026-04-12T10:27:33Z</time></trkpt><trkpt lat="44.19468140468643" lon="11.374840812907003"><ele>941.5</ele><time>2026-04-12T10:27:35Z</time></trkpt><trkpt lat="44.19463990909517" lon="11.374667735863966"><ele>941.0</ele><time>2026-04-12T10:27:37Z</time></trkpt><trkpt lat="44.19462255906672" lon="11.37455783591076"><ele>940.5</ele><time>2026-04-12T10:27:38Z</time></trkpt><trkpt lat="44.19458269649038" lon="11.374467005819326"><ele>940.0</ele><time>2026-04-12T10:27:39Z</time></trkpt><trkpt lat="44.19453927184276" lon="11.374391648018378"><ele>939.5</ele><time>2026-04-12T10:27:40Z</time></trkpt><trkpt lat="44.19449602746399" lon="11.374304705344768"><ele>939.0</ele><time>2026-04-12T10:27:41Z</time></trkpt><trkpt lat="44.19444065484274" lon="11.374239763374396"><ele>939.0</ele><time>2026-04-12T10:27:42Z</time></trkpt><trkpt lat="44.194341396105635" lon="11.374178268241474"><ele>939.0</ele><time>2026-04-12T10:27:44Z</time></trkpt><trkpt lat="44.194241323223224" lon="11.374103893362642"><ele>939.0</ele><time>2026-04-12T10:27:46Z</time></trkpt><trkpt lat="44.19418295757197" lon="11.373974174819326"><ele>939.0</ele><time>2026-04-12T10:27:48Z</time></trkpt><trkpt lat="44.194128939646276" lon="11.37381848739304"><ele>937.6666666666666</ele><time>2026-04-12T10:27:50Z</time></trkpt><trkpt lat="44.194090634236794" lon="11.373724495284327"><ele>936.3333333333333</ele><time>2026-04-12T10:27:51Z</time></trkpt><trkpt lat="44.194047575540985" lon="11.373613303347437"><ele>935.0</ele><time>2026-04-12T10:27:52Z</time></trkpt><trkpt lat="44.19399496339746" lon="11.373509474838915"><ele>933.6666666666666</ele><time>2026-04-12T10:27:53Z</time></trkpt><trkpt lat="44.19393282512939" lon="11.373438147302316"><ele>932.3333333333333</ele><time>2026-04-12T10:27:54Z</time></trkpt><trkpt lat="44.193854946878325" lon="11.373354612165148"><ele>931.0</ele><time>2026-04-12T10:27:55Z</time></trkpt><trkpt lat="44.19379558012008" lon="11.373287352121492"><ele>930.1666666666666</ele><time>2026-04-12T10:27:56Z</time></trkpt><trkpt lat="44.19375434476886" lon="11.373215940408475"><ele>929.3333333333333</ele><time>2026-04-12T10:27:57Z</time></trkpt><trkpt lat="44.193694116419984" lon="11.373096745371848"><ele>928.5</ele><time>2026-04-12T10:27:59Z</time></trkpt><trkpt lat="44.193603319852414" lon="11.373007896530932"><ele>927.6666666666667</ele><time>2026-04-12T10:28:01Z</time></trkpt><trkpt lat="44.19354160830569" lon="11.372962629037419"><ele>926.8333333333334</ele><time>2026-04-12T10:28:02Z</time></trkpt><trkpt lat="44.19347529631699" lon="11.372926238438868"><ele>926.0</ele><time>2026-04-12T10:28:03Z</time></trkpt><trkpt lat="44.19336084580356" lon="11.37285165597236"><ele>926.0</ele><time>2026-04-12T10:28:05Z</time></trkpt><trkpt lat="44.19329267648925" lon="11.37280318870256"><ele>925.9999999999999</ele><time>2026-04-12T10:28:06Z</time></trkpt><trkpt lat="44.193208292977026" lon="11.37272371465736"><ele>925.9999999999999</ele><time>2026-04-12T10:28:07Z</time></trkpt><trkpt lat="44.19311791741667" lon="11.372635055929537"><ele>926.0</ele><time>2026-04-12T10:28:08Z</time></trkpt><trkpt lat="44.19305724280094" lon="11.37255449826077"><ele>926.0</ele><time>2026-04-12T10:28:09Z</time></trkpt><trkpt lat="44.193007291681106" lon="11.372470326890381"><ele>926.0000000000001</ele><time>2026-04-12T10:28:10Z</time></trkpt><trkpt lat="44.19295234135887" lon="11.372395811769351"><ele>926.0</ele><time>2026-04-12T10:28:11Z</time></trkpt><trkpt lat="44.19287921741649" lon="11.372321238438904"><ele>926.0</ele><time>2026-04-12T10:28:12Z</time></trkpt><trkpt lat="44.19280930876124" lon="11.372255993927299"><ele>926.0</ele><time>2026-04-12T10:28:13Z</time></trkpt><trkpt lat="44.192751262842236" lon="11.372199790986361"><ele>926.0000000000001</ele><time>2026-04-12T10:28:14Z</time></trkpt><trkpt lat="44.19268768126662" lon="11.3721336790282"><ele>926.0</ele><time>2026-04-12T10:28:15Z</time></trkpt><trkpt lat="44.19262300411224" lon="11.372064651541882"><ele>926.0000000000001</ele><time>2026-04-12T10:28:16Z</time></trkpt><trkpt lat="44.1925692319931" lon="11.371986686863147"><ele>926.0</ele><time>2026-04-12T10:28:17Z</time></trkpt><trkpt lat="44.192510637895865" lon="11.371889028183558"><ele>926.0</ele><time>2026-04-12T10:28:18Z</time></trkpt><trkpt lat="44.192448794589225" lon="11.371789253365035"><ele>926.0</ele><time>2026-04-12T10:28:19Z</time></trkpt><trkpt lat="44.1923835149149" lon="11.371681082541873"><ele>926.0000000000001</ele><time>2026-04-12T10:28:20Z</time></trkpt><trkpt lat="44.19234115411181" lon="11.37159122093814"><ele>926.0</ele><time>2026-04-12T10:28:21Z</time></trkpt><trkpt lat="44.19227054130592" lon="11.371468998568929"><ele>923.5000000000001</ele><time>2026-04-12T10:28:23Z</time></trkpt><trkpt lat="44.192230339973094" lon="11.371388458837227"><ele>921.0</ele><time>2026-04-12T10:28:24Z</time></trkpt><trkpt lat="44.19219957698612" lon="11.371308346699236"><ele>918.5</ele><time>2026-04-12T10:28:25Z</time></trkpt><trkpt lat="44.1921263300506" lon="11.371130544612344"><ele>916.0</ele><time>2026-04-12T10:28:27Z</time></trkpt><trkpt lat="44.19207269068239" lon="11.371032767204706"><ele>913.5000000000001</ele><time>2026-04-12T10:28:28Z</time></trkpt><trkpt lat="44.19202634878327" lon="11.370948291921394"><ele>911.0</ele><time>2026-04-12T10:28:29Z</time></trkpt><trkpt lat="44.191988886346685" lon="11.370870699979422"><ele>911.0</ele><time>2026-04-12T10:28:30Z</time></trkpt><trkpt lat="44.19194665603497" lon="11.370769326276685"><ele>910.9999999999999</ele><time>2026-04-12T10:28:31Z</time></trkpt><trkpt lat="44.19190106940052" lon="11.37064699777032"><ele>910.9999999999999</ele><time>2026-04-12T10:28:32Z</time></trkpt><trkpt lat="44.19186091624428" lon="11.370535961237103"><ele>911.0</ele><time>2026-04-12T10:28:33Z</time></trkpt><trkpt lat="44.19182828756146" lon="11.370450524181498"><ele>911.0</ele><time>2026-04-12T10:28:34Z</time></trkpt><trkpt lat="44.19177189350224" lon="11.37031420794026"><ele>911.5000000000001</ele><time>2026-04-12T10:28:36Z</time></trkpt><trkpt lat="44.191687491704485" lon="11.370176906201603"><ele>912.0</ele><time>2026-04-12T10:28:38Z</time></trkpt><trkpt lat="44.19162198225259" lon="11.370139350585138"><ele>912.5</ele><time>2026-04-12T10:28:39Z</time></trkpt><trkpt lat="44.1915616201184" lon="11.370098297380514"><ele>913.0</ele><time>2026-04-12T10:28:40Z</time></trkpt><trkpt lat="44.19150805082082" lon="11.370047808015803"><ele>913.5000000000001</ele><time>2026-04-12T10:28:41Z</time></trkpt><trkpt lat="44.19146407494809" lon="11.369973416337064"><ele>914.0</ele><time>2026-04-12T10:28:42Z</time></trkpt><trkpt lat="44.19141202292054" lon="11.369878404825279"><ele>912.3333333333334</ele><time>2026-04-12T10:28:43Z</time></trkpt><trkpt lat="44.19135850482415" lon="11.36979192672812"><ele>910.6666666666667</ele><time>2026-04-12T10:28:44Z</time></trkpt><trkpt lat="44.19131003459732" lon="11.369721907734759"><ele>909.0</ele><time>2026-04-12T10:28:45Z</time></trkpt><trkpt lat="44.19124354676596" lon="11.369615880767336"><ele>907.3333333333333</ele><time>2026-04-12T10:28:47Z</time></trkpt><trkpt lat="44.191196454057334" lon="11.369540577457053"><ele>905.6666666666666</ele><time>2026-04-12T10:28:48Z</time></trkpt><trkpt lat="44.191150916438815" lon="11.369475653487784"><ele>904.0</ele><time>2026-04-12T10:28:49Z</time></trkpt><trkpt lat="44.19106852638656" lon="11.369354947511821"><ele>904.0</ele><time>2026-04-12T10:28:51Z</time></trkpt><trkpt lat="44.19101782825014" lon="11.369281381810374"><ele>904.0</ele><time>2026-04-12T10:28:52Z</time></trkpt><trkpt lat="44.19096986206679" lon="11.36921358824283"><ele>904.0</ele><time>2026-04-12T10:28:53Z</time></trkpt><trkpt lat="44.19091339182913" lon="11.36914287491985"><ele>904.0</ele><time>2026-04-12T10:28:54Z</time></trkpt><trkpt lat="44.19086705121545" lon="11.36906967112316"><ele>904.0</ele><time>2026-04-12T10:28:55Z</time></trkpt><trkpt lat="44.19083049327052" lon="11.368976084402167"><ele>904.0</ele><time>2026-04-12T10:28:56Z</time></trkpt><trkpt lat="44.190801512307864" lon="11.368886386492733"><ele>904.0</ele><time>2026-04-12T10:28:57Z</time></trkpt><trkpt lat="44.190761138831135" lon="11.36881684168921"><ele>902.4999999999999</ele><time>2026-04-12T10:28:58Z</time></trkpt><trkpt lat="44.19069680575497" lon="11.368761740786361"><ele>901.0</ele><time>2026-04-12T10:29:00Z</time></trkpt><trkpt lat="44.190636743222015" lon="11.368717902374728"><ele>899.5</ele><time>2026-04-12T10:29:02Z</time></trkpt><trkpt lat="44.1905874548681" lon="11.368642036565454"><ele>898.0</ele><time>2026-04-12T10:29:05Z</time></trkpt><trkpt lat="44.19050550290164" lon="11.368528511779822"><ele>896.4999999999999</ele><time>2026-04-12T10:29:07Z</time></trkpt><trkpt lat="44.19042446734729" lon="11.368425645656682"><ele>895.0</ele><time>2026-04-12T10:29:09Z</time></trkpt><trkpt lat="44.19036055655344" lon="11.36834084808891"><ele>894.1666666666666</ele><time>2026-04-12T10:29:11Z</time></trkpt><trkpt lat="44.190296886982715" lon="11.36827887940984"><ele>893.3333333333333</ele><time>2026-04-12T10:29:13Z</time></trkpt><trkpt lat="44.19023482626486" lon="11.368224794572404"><ele>892.5</ele><time>2026-04-12T10:29:15Z</time></trkpt><trkpt lat="44.190154177437385" lon="11.368178669202784"><ele>891.6666666666667</ele><time>2026-04-12T10:29:17Z</time></trkpt><trkpt lat="44.190107607356914" lon="11.368284001795663"><ele>890.8333333333334</ele><time>2026-04-12T10:29:33Z</time></trkpt><trkpt lat="44.190045819315046" lon="11.368230737816962"><ele>890.0</ele><time>2026-04-12T10:29:37Z</time></trkpt><trkpt lat="44.189980360845716" lon="11.368180533648502"><ele>890.0</ele><time>2026-04-12T10:29:41Z</time></trkpt><trkpt lat="44.189902079686256" lon="11.368132346368583"><ele>890.0</ele><time>2026-04-12T10:29:43Z</time></trkpt><trkpt lat="44.18979382040898" lon="11.368064607670599"><ele>890.0</ele><time>2026-04-12T10:29:45Z</time></trkpt><trkpt lat="44.189688681927954" lon="11.368005317914877"><ele>890.0</ele><time>2026-04-12T10:29:47Z</time></trkpt><trkpt lat="44.1896164837708" lon="11.367977723874079"><ele>890.0</ele><time>2026-04-12T10:29:49Z</time></trkpt><trkpt lat="44.18954948051532" lon="11.367946011015775"><ele>889.0000000000001</ele><time>2026-04-12T10:29:51Z</time></trkpt><trkpt lat="44.189488568309855" lon="11.367912846300444"><ele>888.0</ele><time>2026-04-12T10:29:54Z</time></trkpt><trkpt lat="44.18943479493588" lon="11.367855224237678"><ele>887.0</ele><time>2026-04-12T10:29:56Z</time></trkpt><trkpt lat="44.189356431052516" lon="11.367795204141691"><ele>886.0</ele><time>2026-04-12T10:29:58Z</time></trkpt><trkpt lat="44.189274789198315" lon="11.3677687975031"><ele>885.0000000000001</ele><time>2026-04-12T10:30:00Z</time></trkpt><trkpt lat="44.18918758378488" lon="11.367751104241426"><ele>884.0</ele><time>2026-04-12T10:30:02Z</time></trkpt><trkpt lat="44.18908925402413" lon="11.367719757181455"><ele>883.2</ele><time>2026-04-12T10:30:04Z</time></trkpt><trkpt lat="44.189000829206265" lon="11.367659425786764"><ele>882.4000000000001</ele><time>2026-04-12T10:30:06Z</time></trkpt><trkpt lat="44.18891117859289" lon="11.367556537999903"><ele>881.6</ele><time>2026-04-12T10:30:08Z</time></trkpt><trkpt lat="44.18883519766775" lon="11.367462699268343"><ele>880.8</ele><time>2026-04-12T10:30:10Z</time></trkpt><trkpt lat="44.18878347570491" lon="11.367391015690902"><ele>880.0</ele><time>2026-04-12T10:30:12Z</time></trkpt><trkpt lat="44.18874201837547" lon="11.367318486443411"><ele>880.0</ele><time>2026-04-12T10:30:15Z</time></trkpt><trkpt lat="44.18867271890915" lon="11.36725195702764"><ele>880.0</ele><time>2026-04-12T10:30:18Z</time></trkpt><trkpt lat="44.18859030160581" lon="11.367190111469581"><ele>880.0</ele><time>2026-04-12T10:30:20Z</time></trkpt><trkpt lat="44.18860085078093" lon="11.367100924696587"><ele>880.0</ele><time>2026-04-12T10:30:21Z</time></trkpt><trkpt lat="44.188194684670016" lon="11.36685860446311"><ele>880.8333333333333</ele><time>2026-04-12T10:30:23Z</time></trkpt><trkpt lat="44.188111135567084" lon="11.36687365298588"><ele>881.6666666666666</ele><time>2026-04-12T10:30:24Z</time></trkpt><trkpt lat="44.18804571609267" lon="11.366871619981621"><ele>882.5</ele><time>2026-04-12T10:30:25Z</time></trkpt><trkpt lat="44.187961912878166" lon="11.36680474016915"><ele>883.3333333333333</ele><time>2026-04-12T10:30:27Z</time></trkpt><trkpt lat="44.187880233935985" lon="11.366709201786332"><ele>884.1666666666666</ele><time>2026-04-12T10:30:29Z</time></trkpt><trkpt lat="44.18783270295698" lon="11.36663267740882"><ele>885.0</ele><time>2026-04-12T10:30:31Z</time></trkpt><trkpt lat="44.18775773896535" lon="11.366534097680894"><ele>885.0</ele><time>2026-04-12T10:30:33Z</time></trkpt><trkpt lat="44.18764832733036" lon="11.366384417004355"><ele>885.0</ele><time>2026-04-12T10:30:35Z</time></trkpt><trkpt lat="44.18759609298129" lon="11.366295697561844"><ele>885.0</ele><time>2026-04-12T10:30:36Z</time></trkpt><trkpt lat="44.1875424054996" lon="11.366184761685039"><ele>885.0</ele><time>2026-04-12T10:30:37Z</time></trkpt><trkpt lat="44.18748879429821" lon="11.366106283947364"><ele>885.0</ele><time>2026-04-12T10:30:38Z</time></trkpt><trkpt lat="44.18743557020579" lon="11.366054822110504"><ele>886.6</ele><time>2026-04-12T10:30:39Z</time></trkpt><trkpt lat="44.18733969949196" lon="11.36602552082475"><ele>888.2</ele><time>2026-04-12T10:30:41Z</time></trkpt><trkpt lat="44.18726580289241" lon="11.365994831294788"><ele>889.8</ele><time>2026-04-12T10:30:42Z</time></trkpt><trkpt lat="44.18715298923941" lon="11.3659305013731"><ele>891.4</ele><time>2026-04-12T10:30:44Z</time></trkpt><trkpt lat="44.187090275141436" lon="11.365884460687205"><ele>893.0</ele><time>2026-04-12T10:30:45Z</time></trkpt><trkpt lat="44.18701438890705" lon="11.365841433964029"><ele>893.0000000000001</ele><time>2026-04-12T10:30:46Z</time></trkpt><trkpt lat="44.18694409475543" lon="11.365812414354748"><ele>893.0</ele><time>2026-04-12T10:30:47Z</time></trkpt><trkpt lat="44.18687241295896" lon="11.36579035352993"><ele>893.0</ele><time>2026-04-12T10:30:48Z</time></trkpt><trkpt lat="44.18680690042412" lon="11.365764509177989"><ele>893.0</ele><time>2026-04-12T10:30:49Z</time></trkpt><trkpt lat="44.18669384025433" lon="11.365702450471547"><ele>893.0000000000001</ele><time>2026-04-12T10:30:51Z</time></trkpt><trkpt lat="44.18662530318589" lon="11.365660460908568"><ele>893.0</ele><time>2026-04-12T10:30:52Z</time></trkpt><trkpt lat="44.186563645881" lon="11.365600275802239"><ele>893.0000000000001</ele><time>2026-04-12T10:30:53Z</time></trkpt><trkpt lat="44.18652129465584" lon="11.365530898078292"><ele>893.0</ele><time>2026-04-12T10:30:54Z</time></trkpt><trkpt lat="44.186476790325784" lon="11.3654599086734"><ele>893.0</ele><time>2026-04-12T10:30:55Z</time></trkpt><trkpt lat="44.18641881817536" lon="11.36534889017761"><ele>893.0</ele><time>2026-04-12T10:30:57Z</time></trkpt><trkpt lat="44.18638270917275" lon="11.365249630792878"><ele>893.0000000000001</ele><time>2026-04-12T10:30:58Z</time></trkpt><trkpt lat="44.18634694123073" lon="11.365142389432426"><ele>893.0</ele><time>2026-04-12T10:30:59Z</time></trkpt><trkpt lat="44.18631728778244" lon="11.36504740027398"><ele>892.5000000000001</ele><time>2026-04-12T10:31:00Z</time></trkpt><trkpt lat="44.18628468748866" lon="11.364961281706519"><ele>892.0</ele><time>2026-04-12T10:31:01Z</time></trkpt><trkpt lat="44.18624253359759" lon="11.364854560197367"><ele>891.5</ele><time>2026-04-12T10:31:02Z</time></trkpt><trkpt lat="44.18620451796738" lon="11.364734192090408"><ele>891.0</ele><time>2026-04-12T10:31:03Z</time></trkpt><trkpt lat="44.18617577935918" lon="11.364634933263504"><ele>890.5000000000001</ele><time>2026-04-12T10:31:04Z</time></trkpt><trkpt lat="44.18613946749107" lon="11.364539937943407"><ele>890.0</ele><time>2026-04-12T10:31:05Z</time></trkpt><trkpt lat="44.18608566109241" lon="11.364454328882458"><ele>889.8333333333334</ele><time>2026-04-12T10:31:06Z</time></trkpt><trkpt lat="44.18602811521632" lon="11.364393954982123"><ele>889.6666666666667</ele><time>2026-04-12T10:31:07Z</time></trkpt><trkpt lat="44.1859720162198" lon="11.364342297968328"><ele>889.5</ele><time>2026-04-12T10:31:08Z</time></trkpt><trkpt lat="44.185894560580095" lon="11.364275664707753"><ele>889.3333333333333</ele><time>2026-04-12T10:31:09Z</time></trkpt><trkpt lat="44.18580451873447" lon="11.36419412952056"><ele>889.1666666666666</ele><time>2026-04-12T10:31:10Z</time></trkpt><trkpt lat="44.185722253303815" lon="11.364116515740962"><ele>889.0</ele><time>2026-04-12T10:31:11Z</time></trkpt><trkpt lat="44.18564633258185" lon="11.3640383158994"><ele>889.0</ele><time>2026-04-12T10:31:12Z</time></trkpt><trkpt lat="44.18560484138666" lon="11.363958499599867"><ele>889.0000000000001</ele><time>2026-04-12T10:31:13Z</time></trkpt><trkpt lat="44.18548723856155" lon="11.363905088022165"><ele>889.0000000000001</ele><time>2026-04-12T10:31:14Z</time></trkpt><trkpt lat="44.18543266970972" lon="11.363847644891184"><ele>889.0</ele><time>2026-04-12T10:31:15Z</time></trkpt><trkpt lat="44.18534797775368" lon="11.363726255452946"><ele>889.0</ele><time>2026-04-12T10:31:17Z</time></trkpt><trkpt lat="44.1852594534673" lon="11.36361414869027"><ele>890.6666666666666</ele><time>2026-04-12T10:31:19Z</time></trkpt><trkpt lat="44.185196469204115" lon="11.36356802665168"><ele>892.3333333333333</ele><time>2026-04-12T10:31:20Z</time></trkpt><trkpt lat="44.18510722123104" lon="11.363498549135574"><ele>894.0</ele><time>2026-04-12T10:31:21Z</time></trkpt><trkpt lat="44.185049362873734" lon="11.36343739661957"><ele>895.6666666666667</ele><time>2026-04-12T10:31:22Z</time></trkpt><trkpt lat="44.18496845057559" lon="11.363306663930958"><ele>897.3333333333334</ele><time>2026-04-12T10:31:24Z</time></trkpt><trkpt lat="44.184923987887665" lon="11.363216556455205"><ele>899.0</ele><time>2026-04-12T10:31:25Z</time></trkpt><trkpt lat="44.184914655897515" lon="11.363120437064934"><ele>899.3333333333334</ele><time>2026-04-12T10:31:27Z</time></trkpt><trkpt lat="44.18493240123549" lon="11.362978593986995"><ele>899.6666666666667</ele><time>2026-04-12T10:31:28Z</time></trkpt><trkpt lat="44.18491565623458" lon="11.362882854610064"><ele>900.0</ele><time>2026-04-12T10:31:29Z</time></trkpt><trkpt lat="44.18483728848735" lon="11.3628090375709"><ele>900.3333333333333</ele><time>2026-04-12T10:31:32Z</time></trkpt><trkpt lat="44.184871997370074" lon="11.36288810747729"><ele>900.6666666666666</ele><time>2026-04-12T10:33:54Z</time></trkpt><trkpt lat="44.184821491138386" lon="11.362831551585595"><ele>901.0</ele><time>2026-04-12T10:34:18Z</time></trkpt><trkpt lat="44.18481562141683" lon="11.362739634294426"><ele>901.1666666666666</ele><time>2026-04-12T10:34:52Z</time></trkpt><trkpt lat="44.184823786304705" lon="11.362619624833519"><ele>901.3333333333333</ele><time>2026-04-12T10:34:54Z</time></trkpt><trkpt lat="44.18482204343682" lon="11.36246892509638"><ele>901.5</ele><time>2026-04-12T10:34:56Z</time></trkpt><trkpt lat="44.18480194112986" lon="11.362367275054904"><ele>901.6666666666667</ele><time>2026-04-12T10:34:57Z</time></trkpt><trkpt lat="44.18478143838889" lon="11.362261114507884"><ele>901.8333333333334</ele><time>2026-04-12T10:34:58Z</time></trkpt><trkpt lat="44.18475709725447" lon="11.3621433939183"><ele>902.0</ele><time>2026-04-12T10:34:59Z</time></trkpt><trkpt lat="44.18472793195453" lon="11.362017636332826"><ele>907.0</ele><time>2026-04-12T10:35:00Z</time></trkpt><trkpt lat="44.18470732926818" lon="11.361899762605136"><ele>912.0</ele><time>2026-04-12T10:35:01Z</time></trkpt><trkpt lat="44.1846953484128" lon="11.361786604979196"><ele>917.0</ele><time>2026-04-12T10:35:02Z</time></trkpt><trkpt lat="44.18468250221501" lon="11.361663642291337"><ele>922.0</ele><time>2026-04-12T10:35:03Z</time></trkpt><trkpt lat="44.18467546023802" lon="11.36152553432775"><ele>927.0</ele><time>2026-04-12T10:35:04Z</time></trkpt><trkpt lat="44.18467338540901" lon="11.3613888863779"><ele>929.75</ele><time>2026-04-12T10:35:05Z</time></trkpt><trkpt lat="44.18467969316217" lon="11.361245379700602"><ele>932.5</ele><time>2026-04-12T10:35:06Z</time></trkpt><trkpt lat="44.184688631674554" lon="11.361101763344413"><ele>935.25</ele><time>2026-04-12T10:35:07Z</time></trkpt><trkpt lat="44.18471128377716" lon="11.360924797911478"><ele>938.0</ele><time>2026-04-12T10:35:08Z</time></trkpt><trkpt lat="44.18475068171116" lon="11.36073371427951"><ele>941.0</ele><time>2026-04-12T10:35:09Z</time></trkpt><trkpt lat="44.184790566794035" lon="11.360532674339986"><ele>944.0</ele><time>2026-04-12T10:35:10Z</time></trkpt><trkpt lat="44.18483599598674" lon="11.360333304437301"><ele>947.0</ele><time>2026-04-12T10:35:11Z</time></trkpt><trkpt lat="44.18487874508342" lon="11.360135610263617"><ele>950.0</ele><time>2026-04-12T10:35:12Z</time></trkpt><trkpt lat="44.184920198094794" lon="11.359933285362393"><ele>940.5</ele><time>2026-04-12T10:35:13Z</time></trkpt><trkpt lat="44.18496009888604" lon="11.359734578331803"><ele>931.0</ele><time>2026-04-12T10:35:14Z</time></trkpt><trkpt lat="44.185002954538064" lon="11.35953656896713"><ele>921.5</ele><time>2026-04-12T10:35:15Z</time></trkpt><trkpt lat="44.185043773645354" lon="11.359343279979548"><ele>912.0</ele><time>2026-04-12T10:35:16Z</time></trkpt><trkpt lat="44.18507798258263" lon="11.35916088825408"><ele>912.0</ele><time>2026-04-12T10:35:17Z</time></trkpt><trkpt lat="44.185109315583574" lon="11.358967180721706"><ele>912.0</ele><time>2026-04-12T10:35:18Z</time></trkpt><trkpt lat="44.18513474278812" lon="11.358772046217707"><ele>912.0</ele><time>2026-04-12T10:35:19Z</time></trkpt><trkpt lat="44.185157113460015" lon="11.358580705381858"><ele>912.0</ele><time>2026-04-12T10:35:20Z</time></trkpt><trkpt lat="44.185174724625796" lon="11.358396196437786"><ele>913.75</ele><time>2026-04-12T10:35:21Z</time></trkpt><trkpt lat="44.18518001898967" lon="11.358211954131361"><ele>915.5</ele><time>2026-04-12T10:35:22Z</time></trkpt><trkpt lat="44.18518147284743" lon="11.358031534568386"><ele>917.25</ele><time>2026-04-12T10:35:23Z</time></trkpt><trkpt lat="44.18521290138815" lon="11.357876183312124"><ele>919.0</ele><time>2026-04-12T10:35:24Z</time></trkpt><trkpt lat="44.185273592487555" lon="11.3577298564906"><ele>920.25</ele><time>2026-04-12T10:35:25Z</time></trkpt><trkpt lat="44.18535946846259" lon="11.357623790344132"><ele>921.5</ele><time>2026-04-12T10:35:26Z</time></trkpt><trkpt lat="44.185472884473235" lon="11.35754305411573"><ele>922.75</ele><time>2026-04-12T10:35:27Z</time></trkpt><trkpt lat="44.18557505514371" lon="11.357474197851186"><ele>924.0</ele><time>2026-04-12T10:35:28Z</time></trkpt><trkpt lat="44.18564414463089" lon="11.357352874758222"><ele>923.0</ele><time>2026-04-12T10:35:29Z</time></trkpt><trkpt lat="44.18568520064881" lon="11.35718247835395"><ele>922.0</ele><time>2026-04-12T10:35:30Z</time></trkpt><trkpt lat="44.18569079715455" lon="11.357012454124138"><ele>921.0</ele><time>2026-04-12T10:35:31Z</time></trkpt><trkpt lat="44.18567764748501" lon="11.356843206738889"><ele>920.0</ele><time>2026-04-12T10:35:32Z</time></trkpt><trkpt lat="44.18564814924489" lon="11.356666188481652"><ele>920.0</ele><time>2026-04-12T10:35:33Z</time></trkpt><trkpt lat="44.18559389853057" lon="11.356492068260712"><ele>920.0</ele><time>2026-04-12T10:35:34Z</time></trkpt><trkpt lat="44.185516569181104" lon="11.356334210298703"><ele>920.0</ele><time>2026-04-12T10:35:35Z</time></trkpt><trkpt lat="44.185424686283916" lon="11.356205976329893"><ele>920.0</ele><time>2026-04-12T10:35:36Z</time></trkpt><trkpt lat="44.18531789677617" lon="11.35608063229471"><ele>918.5</ele><time>2026-04-12T10:35:37Z</time></trkpt><trkpt lat="44.18519583379333" lon="11.355969429453314"><ele>917.0</ele><time>2026-04-12T10:35:38Z</time></trkpt><trkpt lat="44.185070086993434" lon="11.355858107992345"><ele>915.5</ele><time>2026-04-12T10:35:39Z</time></trkpt><trkpt lat="44.184939904626326" lon="11.355745290195532"><ele>914.0</ele><time>2026-04-12T10:35:40Z</time></trkpt><trkpt lat="44.18481525101377" lon="11.355639920692827"><ele>911.6666666666667</ele><time>2026-04-12T10:35:41Z</time></trkpt><trkpt lat="44.18469258843233" lon="11.355528978262726"><ele>909.3333333333333</ele><time>2026-04-12T10:35:42Z</time></trkpt><trkpt lat="44.18456729467457" lon="11.355412931880354"><ele>907.0</ele><time>2026-04-12T10:35:43Z</time></trkpt><trkpt lat="44.184445996698216" lon="11.355271475401505"><ele>907.0</ele><time>2026-04-12T10:35:44Z</time></trkpt><trkpt lat="44.184335526520506" lon="11.355103129742531"><ele>907.0</ele><time>2026-04-12T10:35:45Z</time></trkpt><trkpt lat="44.18423599251216" lon="11.354887766576516"><ele>907.0</ele><time>2026-04-12T10:35:46Z</time></trkpt><trkpt lat="44.184151793695776" lon="11.35465757663072"><ele>906.0</ele><time>2026-04-12T10:35:47Z</time></trkpt><trkpt lat="44.18406968672025" lon="11.354456063797086"><ele>905.0</ele><time>2026-04-12T10:35:48Z</time></trkpt><trkpt lat="44.183980052839296" lon="11.354254636547587"><ele>904.0</ele><time>2026-04-12T10:35:49Z</time></trkpt><trkpt lat="44.183889651065655" lon="11.354050093846734"><ele>906.0</ele><time>2026-04-12T10:35:50Z</time></trkpt><trkpt lat="44.18380354772714" lon="11.353858575997902"><ele>908.0</ele><time>2026-04-12T10:35:51Z</time></trkpt><trkpt lat="44.18372568746238" lon="11.353679679802708"><ele>910.0</ele><time>2026-04-12T10:35:52Z</time></trkpt><trkpt lat="44.183645853386615" lon="11.353494589831369"><ele>910.0</ele><time>2026-04-12T10:35:53Z</time></trkpt><trkpt lat="44.183572900050564" lon="11.35331281574819"><ele>910.0</ele><time>2026-04-12T10:35:54Z</time></trkpt><trkpt lat="44.1835000209635" lon="11.35313883662965"><ele>910.0</ele><time>2026-04-12T10:35:55Z</time></trkpt><trkpt lat="44.18342541149525" lon="11.352969799601853"><ele>910.0</ele><time>2026-04-12T10:35:56Z</time></trkpt><trkpt lat="44.183347451242156" lon="11.352810558067855"><ele>910.25</ele><time>2026-04-12T10:35:57Z</time></trkpt><trkpt lat="44.18325965281483" lon="11.35267310063726"><ele>910.5</ele><time>2026-04-12T10:35:58Z</time></trkpt><trkpt lat="44.1831600030861" lon="11.352562515516276"><ele>910.75</ele><time>2026-04-12T10:35:59Z</time></trkpt><trkpt lat="44.183045232626405" lon="11.35247450594998"><ele>911.0</ele><time>2026-04-12T10:36:00Z</time></trkpt><trkpt lat="44.182932391537214" lon="11.352405829571106"><ele>911.0</ele><time>2026-04-12T10:36:01Z</time></trkpt><trkpt lat="44.18282264046933" lon="11.352356368062255"><ele>911.0</ele><time>2026-04-12T10:36:02Z</time></trkpt><trkpt lat="44.1826990136174" lon="11.352291807729205"><ele>911.0</ele><time>2026-04-12T10:36:03Z</time></trkpt><trkpt lat="44.18257085327569" lon="11.352187240522236"><ele>911.0</ele><time>2026-04-12T10:36:04Z</time></trkpt><trkpt lat="44.182508804693676" lon="11.352020192767183"><ele>908.0</ele><time>2026-04-12T10:36:05Z</time></trkpt><trkpt lat="44.182470443358184" lon="11.351855419295102"><ele>905.0</ele><time>2026-04-12T10:36:06Z</time></trkpt><trkpt lat="44.18247556579539" lon="11.351661615673821"><ele>902.0</ele><time>2026-04-12T10:36:07Z</time></trkpt><trkpt lat="44.18250384483565" lon="11.351460170970068"><ele>899.0</ele><time>2026-04-12T10:36:08Z</time></trkpt><trkpt lat="44.18252337144166" lon="11.351278807218865"><ele>897.75</ele><time>2026-04-12T10:36:09Z</time></trkpt><trkpt lat="44.182543819580026" lon="11.351094362921565"><ele>896.5</ele><time>2026-04-12T10:36:10Z</time></trkpt><trkpt lat="44.182513745467226" lon="11.350896795600534"><ele>895.25</ele><time>2026-04-12T10:36:11Z</time></trkpt><trkpt lat="44.18244106005162" lon="11.35070736896323"><ele>894.0</ele><time>2026-04-12T10:36:12Z</time></trkpt><trkpt lat="44.18234575470301" lon="11.350532158761792"><ele>902.3333333333333</ele><time>2026-04-12T10:36:13Z</time></trkpt><trkpt lat="44.182256873802416" lon="11.350347830106399"><ele>910.6666666666666</ele><time>2026-04-12T10:36:14Z</time></trkpt><trkpt lat="44.18222226840617" lon="11.350140873502765"><ele>919.0</ele><time>2026-04-12T10:36:15Z</time></trkpt><trkpt lat="44.18219172006104" lon="11.349941355774282"><ele>919.0</ele><time>2026-04-12T10:36:16Z</time></trkpt><trkpt lat="44.18218034337726" lon="11.34973496796326"><ele>919.0</ele><time>2026-04-12T10:36:17Z</time></trkpt><trkpt lat="44.182178426314806" lon="11.34953174916865"><ele>919.0</ele><time>2026-04-12T10:36:18Z</time></trkpt><trkpt lat="44.182169825997484" lon="11.349321336018203"><ele>919.0</ele><time>2026-04-12T10:36:19Z</time></trkpt><trkpt lat="44.18214586558084" lon="11.349111534246903"><ele>916.0</ele><time>2026-04-12T10:36:20Z</time></trkpt><trkpt lat="44.18209682316801" lon="11.348915417382985"><ele>913.0</ele><time>2026-04-12T10:36:21Z</time></trkpt><trkpt lat="44.182026538886" lon="11.348748361790012"><ele>910.0</ele><time>2026-04-12T10:36:22Z</time></trkpt><trkpt lat="44.18192557658782" lon="11.348606633662138"><ele>907.0</ele><time>2026-04-12T10:36:23Z</time></trkpt><trkpt lat="44.181813417479795" lon="11.34848108514672"><ele>907.25</ele><time>2026-04-12T10:36:24Z</time></trkpt><trkpt lat="44.18168152775887" lon="11.348378987536137"><ele>907.5</ele><time>2026-04-12T10:36:25Z</time></trkpt><trkpt lat="44.18155312769213" lon="11.34828477082091"><ele>907.75</ele><time>2026-04-12T10:36:26Z</time></trkpt><trkpt lat="44.18143238029853" lon="11.348180624949602"><ele>908.0</ele><time>2026-04-12T10:36:27Z</time></trkpt><trkpt lat="44.181312658190684" lon="11.348079620834651"><ele>902.5</ele><time>2026-04-12T10:36:28Z</time></trkpt><trkpt lat="44.18119634338733" lon="11.34797660263846"><ele>897.0</ele><time>2026-04-12T10:36:29Z</time></trkpt><trkpt lat="44.18107757401911" lon="11.347877194268902"><ele>891.5</ele><time>2026-04-12T10:36:30Z</time></trkpt><trkpt lat="44.18095104511796" lon="11.347794857275241"><ele>886.0</ele><time>2026-04-12T10:36:31Z</time></trkpt><trkpt lat="44.18082018160675" lon="11.34773585402599"><ele>886.0</ele><time>2026-04-12T10:36:32Z</time></trkpt><trkpt lat="44.18069047711982" lon="11.347698585192937"><ele>886.0</ele><time>2026-04-12T10:36:33Z</time></trkpt><trkpt lat="44.18054920205531" lon="11.347681696444916"><ele>886.0</ele><time>2026-04-12T10:36:34Z</time></trkpt><trkpt lat="44.1804037962297" lon="11.347674609884601"><ele>886.0</ele><time>2026-04-12T10:36:35Z</time></trkpt><trkpt lat="44.18025974013712" lon="11.347677067786192"><ele>889.0</ele><time>2026-04-12T10:36:36Z</time></trkpt><trkpt lat="44.18011253949947" lon="11.347677131541142"><ele>892.0</ele><time>2026-04-12T10:36:37Z</time></trkpt><trkpt lat="44.17996595567607" lon="11.347653895880867"><ele>895.0</ele><time>2026-04-12T10:36:38Z</time></trkpt><trkpt lat="44.179840295473035" lon="11.347598967810336"><ele>898.0</ele><time>2026-04-12T10:36:39Z</time></trkpt><trkpt lat="44.179747880690236" lon="11.347510121379859"><ele>898.8</ele><time>2026-04-12T10:36:40Z</time></trkpt><trkpt lat="44.17969282420704" lon="11.347390889117886"><ele>899.5999999999999</ele><time>2026-04-12T10:36:41Z</time></trkpt><trkpt lat="44.17965857354733" lon="11.347246793074632"><ele>900.4000000000001</ele><time>2026-04-12T10:36:42Z</time></trkpt><trkpt lat="44.179614348138315" lon="11.347100288370507"><ele>901.2</ele><time>2026-04-12T10:36:43Z</time></trkpt><trkpt lat="44.17952497375006" lon="11.34698308300608"><ele>902.0</ele><time>2026-04-12T10:36:44Z</time></trkpt><trkpt lat="44.17941108844559" lon="11.346913021807222"><ele>902.0</ele><time>2026-04-12T10:36:45Z</time></trkpt><trkpt lat="44.17927956062226" lon="11.34688616338339"><ele>902.0</ele><time>2026-04-12T10:36:46Z</time></trkpt><trkpt lat="44.17914492788767" lon="11.34687222680338"><ele>902.0</ele><time>2026-04-12T10:36:47Z</time></trkpt><trkpt lat="44.179012701939854" lon="11.346860135485947"><ele>902.0</ele><time>2026-04-12T10:36:48Z</time></trkpt><trkpt lat="44.17887940447767" lon="11.346844575302436"><ele>906.0</ele><time>2026-04-12T10:36:49Z</time></trkpt><trkpt lat="44.17874684650367" lon="11.3468119290647"><ele>910.0</ele><time>2026-04-12T10:36:50Z</time></trkpt><trkpt lat="44.17863312050739" lon="11.346750984194223"><ele>914.0</ele><time>2026-04-12T10:36:51Z</time></trkpt><trkpt lat="44.17854535086375" lon="11.346656821595124"><ele>918.0</ele><time>2026-04-12T10:36:52Z</time></trkpt><trkpt lat="44.178490462972206" lon="11.346539427721233"><ele>918.0</ele><time>2026-04-12T10:36:53Z</time></trkpt><trkpt lat="44.178457391331726" lon="11.346395366889535"><ele>918.0</ele><time>2026-04-12T10:36:54Z</time></trkpt><trkpt lat="44.17843082656518" lon="11.346248418665914"><ele>918.0</ele><time>2026-04-12T10:36:55Z</time></trkpt><trkpt lat="44.178377057861304" lon="11.346096650378577"><ele>918.0</ele><time>2026-04-12T10:36:56Z</time></trkpt><trkpt lat="44.178285908636994" lon="11.3459856659763"><ele>918.5</ele><time>2026-04-12T10:36:57Z</time></trkpt><trkpt lat="44.17816709072971" lon="11.34590720806287"><ele>919.0</ele><time>2026-04-12T10:36:58Z</time></trkpt><trkpt lat="44.17802902815771" lon="11.345857727786068"><ele>919.5</ele><time>2026-04-12T10:36:59Z</time></trkpt><trkpt lat="44.17787925568498" lon="11.345838647664218"><ele>920.0</ele><time>2026-04-12T10:37:00Z</time></trkpt><trkpt lat="44.17772488973061" lon="11.345831764112763"><ele>920.0</ele><time>2026-04-12T10:37:01Z</time></trkpt><trkpt lat="44.177577899923" lon="11.345818551976445"><ele>920.0</ele><time>2026-04-12T10:37:02Z</time></trkpt><trkpt lat="44.177440390330126" lon="11.345784019825688"><ele>920.0</ele><time>2026-04-12T10:37:03Z</time></trkpt><trkpt lat="44.17731437053342" lon="11.345716760144239"><ele>920.0</ele><time>2026-04-12T10:37:04Z</time></trkpt><trkpt lat="44.17720310983068" lon="11.345615424947486"><ele>921.75</ele><time>2026-04-12T10:37:05Z</time></trkpt><trkpt lat="44.177105926802895" lon="11.345474209763887"><ele>923.5</ele><time>2026-04-12T10:37:06Z</time></trkpt><trkpt lat="44.17700151603932" lon="11.34533158491801"><ele>925.25</ele><time>2026-04-12T10:37:07Z</time></trkpt><trkpt lat="44.176891523796606" lon="11.345187675532552"><ele>927.0</ele><time>2026-04-12T10:37:08Z</time></trkpt><trkpt lat="44.17676879640366" lon="11.345077867878482"><ele>927.0</ele><time>2026-04-12T10:37:09Z</time></trkpt><trkpt lat="44.17663768437383" lon="11.344974572948322"><ele>927.0</ele><time>2026-04-12T10:37:10Z</time></trkpt><trkpt lat="44.176503842987735" lon="11.344873728344425"><ele>927.0</ele><time>2026-04-12T10:37:11Z</time></trkpt><trkpt lat="44.176366742533894" lon="11.344772595232104"><ele>926.3333333333333</ele><time>2026-04-12T10:37:12Z</time></trkpt><trkpt lat="44.17623409521342" lon="11.344675763971662"><ele>925.6666666666666</ele><time>2026-04-12T10:37:13Z</time></trkpt><trkpt lat="44.17609459020104" lon="11.344583936429622"><ele>925.0</ele><time>2026-04-12T10:37:14Z</time></trkpt><trkpt lat="44.17594453417453" lon="11.344497973915269"><ele>925.0</ele><time>2026-04-12T10:37:15Z</time></trkpt><trkpt lat="44.175786984152566" lon="11.344423963086603"><ele>925.0</ele><time>2026-04-12T10:37:16Z</time></trkpt><trkpt lat="44.17562798464056" lon="11.344365857849388"><ele>925.0</ele><time>2026-04-12T10:37:17Z</time></trkpt><trkpt lat="44.17547097333491" lon="11.344316296610087"><ele>928.6666666666666</ele><time>2026-04-12T10:37:18Z</time></trkpt><trkpt lat="44.17530848074313" lon="11.34428331950924"><ele>932.3333333333333</ele><time>2026-04-12T10:37:19Z</time></trkpt><trkpt lat="44.17514765423801" lon="11.344242641133809"><ele>936.0</ele><time>2026-04-12T10:37:20Z</time></trkpt><trkpt lat="44.17498927720014" lon="11.34419506185896"><ele>939.3333333333333</ele><time>2026-04-12T10:37:21Z</time></trkpt><trkpt lat="44.174831881506826" lon="11.344147451765119"><ele>942.6666666666666</ele><time>2026-04-12T10:37:22Z</time></trkpt><trkpt lat="44.17468625974851" lon="11.3440975067809"><ele>946.0</ele><time>2026-04-12T10:37:23Z</time></trkpt><trkpt lat="44.17454190036729" lon="11.34402910541791"><ele>946.0</ele><time>2026-04-12T10:37:24Z</time></trkpt><trkpt lat="44.174395364415616" lon="11.343956427700668"><ele>946.0</ele><time>2026-04-12T10:37:25Z</time></trkpt><trkpt lat="44.17425092594509" lon="11.343865274687571"><ele>946.0</ele><time>2026-04-12T10:37:26Z</time></trkpt><trkpt lat="44.1741187063509" lon="11.34375351314706"><ele>949.6666666666666</ele><time>2026-04-12T10:37:27Z</time></trkpt><trkpt lat="44.17399667675811" lon="11.343622354430925"><ele>953.3333333333333</ele><time>2026-04-12T10:37:28Z</time></trkpt><trkpt lat="44.17387849612936" lon="11.34345655427967"><ele>957.0</ele><time>2026-04-12T10:37:29Z</time></trkpt><trkpt lat="44.1737687236837" lon="11.343267138059137"><ele>957.0</ele><time>2026-04-12T10:37:30Z</time></trkpt><trkpt lat="44.17367849142952" lon="11.343072200913058"><ele>957.0</ele><time>2026-04-12T10:37:31Z</time></trkpt><trkpt lat="44.173594288244324" lon="11.34287845522904"><ele>957.0</ele><time>2026-04-12T10:37:32Z</time></trkpt><trkpt lat="44.17351610558505" lon="11.342696422714072"><ele>956.25</ele><time>2026-04-12T10:37:33Z</time></trkpt><trkpt lat="44.173442668561755" lon="11.342519403395277"><ele>955.5</ele><time>2026-04-12T10:37:34Z</time></trkpt><trkpt lat="44.17337981700861" lon="11.342360876831261"><ele>954.75</ele><time>2026-04-12T10:37:35Z</time></trkpt><trkpt lat="44.17333477287729" lon="11.342206204964718"><ele>954.0</ele><time>2026-04-12T10:37:36Z</time></trkpt><trkpt lat="44.17331680381799" lon="11.342061114305448"><ele>954.0</ele><time>2026-04-12T10:37:37Z</time></trkpt><trkpt lat="44.173326977693726" lon="11.341922527705806"><ele>954.0000000000001</ele><time>2026-04-12T10:37:38Z</time></trkpt><trkpt lat="44.17336323228123" lon="11.341787986253888"><ele>954.0000000000001</ele><time>2026-04-12T10:37:39Z</time></trkpt><trkpt lat="44.17342156955347" lon="11.341668627270895"><ele>954.0</ele><time>2026-04-12T10:37:40Z</time></trkpt><trkpt lat="44.17350153383274" lon="11.341565490350687"><ele>954.0</ele><time>2026-04-12T10:37:41Z</time></trkpt><trkpt lat="44.1736079694276" lon="11.341461952055274"><ele>958.3333333333333</ele><time>2026-04-12T10:37:42Z</time></trkpt><trkpt lat="44.1737325673838" lon="11.341343606967875"><ele>962.6666666666666</ele><time>2026-04-12T10:37:43Z</time></trkpt><trkpt lat="44.173853180063865" lon="11.341187048922935"><ele>967.0</ele><time>2026-04-12T10:37:44Z</time></trkpt><trkpt lat="44.17392985354297" lon="11.341007735496976"><ele>967.0</ele><time>2026-04-12T10:37:45Z</time></trkpt><trkpt lat="44.17396004984777" lon="11.340824619165403"><ele>967.0</ele><time>2026-04-12T10:37:46Z</time></trkpt><trkpt lat="44.17394389286613" lon="11.340645650084591"><ele>967.0</ele><time>2026-04-12T10:37:47Z</time></trkpt><trkpt lat="44.17388158841496" lon="11.340476077601123"><ele>967.0</ele><time>2026-04-12T10:37:48Z</time></trkpt><trkpt lat="44.173775488741214" lon="11.340312738220511"><ele>967.3333333333333</ele><time>2026-04-12T10:37:49Z</time></trkpt><trkpt lat="44.173640306900005" lon="11.340152420017704"><ele>967.6666666666667</ele><time>2026-04-12T10:37:50Z</time></trkpt><trkpt lat="44.17352245719238" lon="11.339990788425341"><ele>968.0</ele><time>2026-04-12T10:37:51Z</time></trkpt><trkpt lat="44.17341806567775" lon="11.339814969830298"><ele>967.25</ele><time>2026-04-12T10:37:52Z</time></trkpt><trkpt lat="44.173333165367715" lon="11.339642172297358"><ele>966.5</ele><time>2026-04-12T10:37:53Z</time></trkpt><trkpt lat="44.17325956713707" lon="11.339479637876913"><ele>965.75</ele><time>2026-04-12T10:37:54Z</time></trkpt><trkpt lat="44.1732001562815" lon="11.33933715339741"><ele>965.0</ele><time>2026-04-12T10:37:55Z</time></trkpt><trkpt lat="44.1731453475738" lon="11.339218769912087"><ele>965.0000000000001</ele><time>2026-04-12T10:37:56Z</time></trkpt><trkpt lat="44.173101443082864" lon="11.339115285569646"><ele>965.0</ele><time>2026-04-12T10:37:57Z</time></trkpt><trkpt lat="44.1730654579071" lon="11.33903502675041"><ele>965.0</ele><time>2026-04-12T10:37:58Z</time></trkpt><trkpt lat="44.17301446604055" lon="11.338931750972083"><ele>965.0</ele><time>2026-04-12T10:38:00Z</time></trkpt><trkpt lat="44.17299233553937" lon="11.338845384560544"><ele>965.0000000000001</ele><time>2026-04-12T10:38:04Z</time></trkpt><trkpt lat="44.17298923027273" lon="11.338738190492723"><ele>965.0</ele><time>2026-04-12T10:38:08Z</time></trkpt><trkpt lat="44.17303436337678" lon="11.338596101353758"><ele>961.0</ele><time>2026-04-12T10:38:12Z</time></trkpt><trkpt lat="44.17299278336506" lon="11.338667337986221"><ele>961.0</ele><time>2026-04-12T10:40:38Z</time></trkpt><trkpt lat="44.172954421117346" lon="11.338737180469922"><ele>961.0</ele><time>2026-04-12T10:40:47Z</time></trkpt><trkpt lat="44.1729043902399" lon="11.338791087277317"><ele>961.0</ele><time>2026-04-12T10:40:53Z</time></trkpt><trkpt lat="44.17285179942921" lon="11.338839837988049"><ele>961.0</ele><time>2026-04-12T10:41:06Z</time></trkpt><trkpt lat="44.17279235185943" lon="11.33887379707947"><ele>961.0</ele><time>2026-04-12T10:41:38Z</time></trkpt><trkpt lat="44.17278038824652" lon="11.338774402743683"><ele>961.0</ele><time>2026-04-12T10:42:06Z</time></trkpt></trkseg><trkseg><trkpt lat="44.17300564558866" lon="11.338591197335454"><ele>960.9999999999999</ele><time>2026-04-12T11:10:07Z</time></trkpt><trkpt lat="44.17307803816049" lon="11.33856723842765"><ele>961.0</ele><time>2026-04-12T11:10:49Z</time></trkpt><trkpt lat="44.17300025722978" lon="11.338574717219448"><ele>961.0</ele><time>2026-04-12T11:10:54Z</time></trkpt><trkpt lat="44.172971345661566" lon="11.338660630105664"><ele>961.0</ele><time>2026-04-12T11:10:56Z</time></trkpt><trkpt lat="44.172955185602355" lon="11.338784913788578"><ele>960.9999999999999</ele><time>2026-04-12T11:11:04.001Z</time></trkpt><trkpt lat="44.1729799953415" lon="11.338918135689418"><ele>961.0</ele><time>2026-04-12T11:11:06.001Z</time></trkpt><trkpt lat="44.173028391277015" lon="11.339010232187302"><ele>961.4</ele><time>2026-04-12T11:11:07.001Z</time></trkpt><trkpt lat="44.173065504713634" lon="11.339090594804796"><ele>961.8</ele><time>2026-04-12T11:11:08.001Z</time></trkpt><trkpt lat="44.17310693497412" lon="11.33918971545744"><ele>962.1999999999999</ele><time>2026-04-12T11:11:09.001Z</time></trkpt><trkpt lat="44.17317058937289" lon="11.339327207263146"><ele>962.5999999999999</ele><time>2026-04-12T11:11:10.001Z</time></trkpt><trkpt lat="44.17325065246816" lon="11.339542187721372"><ele>963.0</ele><time>2026-04-12T11:11:11.001Z</time></trkpt><trkpt lat="44.17333029042987" lon="11.339715165240651"><ele>964.25</ele><time>2026-04-12T11:11:12.001Z</time></trkpt><trkpt lat="44.1734131091806" lon="11.339872285482006"><ele>965.5</ele><time>2026-04-12T11:11:13.001Z</time></trkpt><trkpt lat="44.17349662201022" lon="11.340012467366051"><ele>966.75</ele><time>2026-04-12T11:11:14.001Z</time></trkpt><trkpt lat="44.173577582903135" lon="11.34014069475075"><ele>968.0</ele><time>2026-04-12T11:11:15.001Z</time></trkpt><trkpt lat="44.173671833778876" lon="11.340246527015882"><ele>968.0</ele><time>2026-04-12T11:11:16.001Z</time></trkpt><trkpt lat="44.17375682497652" lon="11.340349666915353"><ele>968.0</ele><time>2026-04-12T11:11:17.001Z</time></trkpt><trkpt lat="44.173838539544555" lon="11.340453362122052"><ele>968.0</ele><time>2026-04-12T11:11:18Z</time></trkpt><trkpt lat="44.173899270166075" lon="11.340569624261816"><ele>968.0</ele><time>2026-04-12T11:11:19Z</time></trkpt><trkpt lat="44.173912857192846" lon="11.340724190874205"><ele>968.0</ele><time>2026-04-12T11:11:20Z</time></trkpt><trkpt lat="44.17391682259154" lon="11.340879731934418"><ele>967.75</ele><time>2026-04-12T11:11:21Z</time></trkpt><trkpt lat="44.1738924040878" lon="11.341059238032651"><ele>967.5</ele><time>2026-04-12T11:11:22Z</time></trkpt><trkpt lat="44.17381604244454" lon="11.341202775995992"><ele>967.25</ele><time>2026-04-12T11:11:23Z</time></trkpt><trkpt lat="44.17373067018366" lon="11.341301907018375"><ele>967.0</ele><time>2026-04-12T11:11:24Z</time></trkpt><trkpt lat="44.17363636005121" lon="11.341393683988592"><ele>964.4000000000001</ele><time>2026-04-12T11:11:25Z</time></trkpt><trkpt lat="44.173547892345695" lon="11.341479225345417"><ele>961.8000000000001</ele><time>2026-04-12T11:11:26Z</time></trkpt><trkpt lat="44.173452184507816" lon="11.341589730310101"><ele>959.2</ele><time>2026-04-12T11:11:27Z</time></trkpt><trkpt lat="44.17337383137059" lon="11.3416683018462"><ele>956.6</ele><time>2026-04-12T11:11:28Z</time></trkpt><trkpt lat="44.17331091020608" lon="11.34178506693997"><ele>954.0</ele><time>2026-04-12T11:11:29Z</time></trkpt><trkpt lat="44.17327162380441" lon="11.341921231467383"><ele>954.0</ele><time>2026-04-12T11:11:30Z</time></trkpt><trkpt lat="44.17326352410739" lon="11.342068239249373"><ele>954.0</ele><time>2026-04-12T11:11:31Z</time></trkpt><trkpt lat="44.173287106795" lon="11.34223818246387"><ele>954.0</ele><time>2026-04-12T11:11:32Z</time></trkpt><trkpt lat="44.173340879828935" lon="11.342420653278582"><ele>954.0</ele><time>2026-04-12T11:11:33Z</time></trkpt><trkpt lat="44.17342012486438" lon="11.342608929398235"><ele>954.0</ele><time>2026-04-12T11:11:34Z</time></trkpt><trkpt lat="44.1735124507552" lon="11.342800769968203"><ele>954.0</ele><time>2026-04-12T11:11:35Z</time></trkpt><trkpt lat="44.17359711429322" lon="11.342976999787949"><ele>954.0</ele><time>2026-04-12T11:11:36Z</time></trkpt><trkpt lat="44.17366829273057" lon="11.343137432398828"><ele>954.75</ele><time>2026-04-12T11:11:37Z</time></trkpt><trkpt lat="44.17374275961675" lon="11.343294658399866"><ele>955.5</ele><time>2026-04-12T11:11:38Z</time></trkpt><trkpt lat="44.173818732762435" lon="11.343447365522605"><ele>956.25</ele><time>2026-04-12T11:11:39Z</time></trkpt><trkpt lat="44.17390436613196" lon="11.343590438635475"><ele>957.0</ele><time>2026-04-12T11:11:40Z</time></trkpt><trkpt lat="44.17400301096959" lon="11.34371520375693"><ele>954.25</ele><time>2026-04-12T11:11:41Z</time></trkpt><trkpt lat="44.17411035157266" lon="11.343825620652945"><ele>951.5</ele><time>2026-04-12T11:11:42Z</time></trkpt><trkpt lat="44.174227746966224" lon="11.343919567445507"><ele>948.75</ele><time>2026-04-12T11:11:43Z</time></trkpt><trkpt lat="44.17434103536951" lon="11.344001203463382"><ele>946.0</ele><time>2026-04-12T11:11:44Z</time></trkpt><trkpt lat="44.174460575715464" lon="11.344067139265956"><ele>946.0</ele><time>2026-04-12T11:11:45Z</time></trkpt><trkpt lat="44.17458619381752" lon="11.344117810636753"><ele>946.0</ele><time>2026-04-12T11:11:46Z</time></trkpt><trkpt lat="44.17471585648021" lon="11.344160359911736"><ele>946.0</ele><time>2026-04-12T11:11:47Z</time></trkpt><trkpt lat="44.174842320287155" lon="11.3441918356484"><ele>946.0</ele><time>2026-04-12T11:11:48Z</time></trkpt><trkpt lat="44.17496754379831" lon="11.344222509742544"><ele>943.5</ele><time>2026-04-12T11:11:49Z</time></trkpt><trkpt lat="44.17509171239852" lon="11.344253915206624"><ele>941.0</ele><time>2026-04-12T11:11:50Z</time></trkpt><trkpt lat="44.1752144947563" lon="11.344282492924489"><ele>938.5</ele><time>2026-04-12T11:11:51Z</time></trkpt><trkpt lat="44.175335870036335" lon="11.344316572824662"><ele>936.0</ele><time>2026-04-12T11:11:52Z</time></trkpt><trkpt lat="44.17545006230695" lon="11.344348690944381"><ele>936.0</ele><time>2026-04-12T11:11:53Z</time></trkpt><trkpt lat="44.1755570938958" lon="11.344374416642076"><ele>935.9999999999999</ele><time>2026-04-12T11:11:54Z</time></trkpt><trkpt lat="44.17565880636997" lon="11.34440315228131"><ele>935.9999999999999</ele><time>2026-04-12T11:11:55Z</time></trkpt><trkpt lat="44.175759116628136" lon="11.34443492047184"><ele>936.0</ele><time>2026-04-12T11:11:56Z</time></trkpt><trkpt lat="44.175875990058344" lon="11.344486665819772"><ele>936.0</ele><time>2026-04-12T11:11:57Z</time></trkpt><trkpt lat="44.175988126702535" lon="11.344546722465367"><ele>937.0</ele><time>2026-04-12T11:11:58Z</time></trkpt><trkpt lat="44.17609865618072" lon="11.34461401550683"><ele>938.0</ele><time>2026-04-12T11:11:59Z</time></trkpt><trkpt lat="44.176216474501366" lon="11.344691597139034"><ele>939.0</ele><time>2026-04-12T11:12:00Z</time></trkpt><trkpt lat="44.17633797542938" lon="11.344765424783205"><ele>940.0</ele><time>2026-04-12T11:12:01Z</time></trkpt><trkpt lat="44.176446964088306" lon="11.344843091222796"><ele>936.75</ele><time>2026-04-12T11:12:02Z</time></trkpt><trkpt lat="44.17655815387855" lon="11.344925895295958"><ele>933.5</ele><time>2026-04-12T11:12:03Z</time></trkpt><trkpt lat="44.17667684398699" lon="11.345026800429899"><ele>930.25</ele><time>2026-04-12T11:12:04Z</time></trkpt><trkpt lat="44.17679793877192" lon="11.3451370626303"><ele>927.0</ele><time>2026-04-12T11:12:05Z</time></trkpt><trkpt lat="44.1769170232715" lon="11.345258945488801"><ele>927.0</ele><time>2026-04-12T11:12:06Z</time></trkpt><trkpt lat="44.177023219159096" lon="11.345388853855907"><ele>927.0</ele><time>2026-04-12T11:12:07Z</time></trkpt><trkpt lat="44.1771155933361" lon="11.345534652618577"><ele>927.0</ele><time>2026-04-12T11:12:08Z</time></trkpt><trkpt lat="44.17720826578118" lon="11.345661719391337"><ele>927.0</ele><time>2026-04-12T11:12:09Z</time></trkpt><trkpt lat="44.17731010103229" lon="11.345763393706077"><ele>925.25</ele><time>2026-04-12T11:12:10Z</time></trkpt><trkpt lat="44.17741881916313" lon="11.345831577731909"><ele>923.5</ele><time>2026-04-12T11:12:11Z</time></trkpt><trkpt lat="44.17754751061301" lon="11.345869336627493"><ele>921.75</ele><time>2026-04-12T11:12:12Z</time></trkpt><trkpt lat="44.177687442872916" lon="11.3458797614462"><ele>920.0</ele><time>2026-04-12T11:12:13Z</time></trkpt><trkpt lat="44.17782707934216" lon="11.345873935037613"><ele>920.0</ele><time>2026-04-12T11:12:14Z</time></trkpt><trkpt lat="44.17795773877238" lon="11.345888921628275"><ele>920.0</ele><time>2026-04-12T11:12:15Z</time></trkpt><trkpt lat="44.17808122482205" lon="11.345910201017507"><ele>920.0</ele><time>2026-04-12T11:12:16Z</time></trkpt><trkpt lat="44.1781920959629" lon="11.34593880762752"><ele>920.0</ele><time>2026-04-12T11:12:17Z</time></trkpt><trkpt lat="44.178281176408326" lon="11.346005207553267"><ele>919.6</ele><time>2026-04-12T11:12:18Z</time></trkpt><trkpt lat="44.178347486110795" lon="11.346127246835477"><ele>919.2</ele><time>2026-04-12T11:12:19Z</time></trkpt><trkpt lat="44.178398270166205" lon="11.34625097223456"><ele>918.8</ele><time>2026-04-12T11:12:20Z</time></trkpt><trkpt lat="44.17841852178324" lon="11.3463984928783"><ele>918.4</ele><time>2026-04-12T11:12:21Z</time></trkpt><trkpt lat="44.17845606844338" lon="11.346564340961464"><ele>918.0</ele><time>2026-04-12T11:12:22Z</time></trkpt><trkpt lat="44.17852395682214" lon="11.346694311525502"><ele>918.0</ele><time>2026-04-12T11:12:23Z</time></trkpt><trkpt lat="44.17861489180376" lon="11.346799964949058"><ele>918.0</ele><time>2026-04-12T11:12:24Z</time></trkpt><trkpt lat="44.178720863426214" lon="11.34687969601227"><ele>918.0</ele><time>2026-04-12T11:12:25Z</time></trkpt><trkpt lat="44.17885767101448" lon="11.34692048770927"><ele>918.0</ele><time>2026-04-12T11:12:26Z</time></trkpt><trkpt lat="44.17900429521223" lon="11.346917512851968"><ele>914.0</ele><time>2026-04-12T11:12:27Z</time></trkpt><trkpt lat="44.17913703904197" lon="11.346916843565593"><ele>910.0</ele><time>2026-04-12T11:12:28Z</time></trkpt><trkpt lat="44.17926961708738" lon="11.346930667280988"><ele>906.0</ele><time>2026-04-12T11:12:29Z</time></trkpt><trkpt lat="44.17938150280951" lon="11.346947621520695"><ele>902.0</ele><time>2026-04-12T11:12:30Z</time></trkpt><trkpt lat="44.17948918979805" lon="11.346988728066426"><ele>902.0</ele><time>2026-04-12T11:12:31Z</time></trkpt><trkpt lat="44.17956516125478" lon="11.347097792938001"><ele>902.0</ele><time>2026-04-12T11:12:32Z</time></trkpt><trkpt lat="44.17962734115076" lon="11.347238813114544"><ele>902.0</ele><time>2026-04-12T11:12:33Z</time></trkpt><trkpt lat="44.179666884407986" lon="11.347388367752842"><ele>902.0</ele><time>2026-04-12T11:12:34Z</time></trkpt><trkpt lat="44.17973006954602" lon="11.347516692366602"><ele>901.0</ele><time>2026-04-12T11:12:35Z</time></trkpt><trkpt lat="44.179800621222" lon="11.347627221563037"><ele>900.0</ele><time>2026-04-12T11:12:36Z</time></trkpt><trkpt lat="44.17991223180712" lon="11.347704297735078"><ele>899.0</ele><time>2026-04-12T11:12:37Z</time></trkpt><trkpt lat="44.18004584858206" lon="11.34773224679072"><ele>898.0</ele><time>2026-04-12T11:12:38Z</time></trkpt><trkpt lat="44.18017368767951" lon="11.347727117003378"><ele>898.0</ele><time>2026-04-12T11:12:39Z</time></trkpt><trkpt lat="44.18030962779397" lon="11.347711713589224"><ele>898.0</ele><time>2026-04-12T11:12:40Z</time></trkpt><trkpt lat="44.18045453320491" lon="11.34770604834281"><ele>898.0</ele><time>2026-04-12T11:12:41Z</time></trkpt><trkpt lat="44.1806028175937" lon="11.347712809333636"><ele>898.0</ele><time>2026-04-12T11:12:42Z</time></trkpt><trkpt lat="44.18073635513157" lon="11.347737665376298"><ele>900.5</ele><time>2026-04-12T11:12:43Z</time></trkpt><trkpt lat="44.1808653932792" lon="11.347787170579297"><ele>903.0</ele><time>2026-04-12T11:12:44Z</time></trkpt><trkpt lat="44.18100293652437" lon="11.347861734244372"><ele>905.5</ele><time>2026-04-12T11:12:45Z</time></trkpt><trkpt lat="44.18112918343843" lon="11.347962069606425"><ele>908.0</ele><time>2026-04-12T11:12:46Z</time></trkpt><trkpt lat="44.181249595275546" lon="11.348068202156218"><ele>908.0</ele><time>2026-04-12T11:12:47Z</time></trkpt><trkpt lat="44.18137159260885" lon="11.348172785894796"><ele>908.0</ele><time>2026-04-12T11:12:48Z</time></trkpt><trkpt lat="44.18149023680281" lon="11.34827001103791"><ele>908.0</ele><time>2026-04-12T11:12:49Z</time></trkpt><trkpt lat="44.18160890673812" lon="11.348369242348513"><ele>908.0</ele><time>2026-04-12T11:12:50Z</time></trkpt><trkpt lat="44.181726834192034" lon="11.348469280996838"><ele>907.75</ele><time>2026-04-12T11:12:51Z</time></trkpt><trkpt lat="44.18183452430125" lon="11.348569226136323"><ele>907.5</ele><time>2026-04-12T11:12:52Z</time></trkpt><trkpt lat="44.18193269880849" lon="11.348678504370378"><ele>907.25</ele><time>2026-04-12T11:12:53Z</time></trkpt><trkpt lat="44.182003141554866" lon="11.348849470405709"><ele>907.0</ele><time>2026-04-12T11:12:54Z</time></trkpt><trkpt lat="44.18208062964395" lon="11.348986442465486"><ele>907.0</ele><time>2026-04-12T11:12:55Z</time></trkpt><trkpt lat="44.18209816665806" lon="11.349175652702678"><ele>907.0</ele><time>2026-04-12T11:12:56Z</time></trkpt><trkpt lat="44.182113490757395" lon="11.349358670949506"><ele>907.0</ele><time>2026-04-12T11:12:57Z</time></trkpt><trkpt lat="44.18212890435593" lon="11.349532045585677"><ele>907.0</ele><time>2026-04-12T11:12:58Z</time></trkpt><trkpt lat="44.18214552606583" lon="11.34971030293108"><ele>910.0</ele><time>2026-04-12T11:12:59Z</time></trkpt><trkpt lat="44.182163760933356" lon="11.34988835778291"><ele>913.0</ele><time>2026-04-12T11:13:00Z</time></trkpt><trkpt lat="44.182198263553445" lon="11.350071216053294"><ele>916.0</ele><time>2026-04-12T11:13:01.001Z</time></trkpt><trkpt lat="44.18222624239549" lon="11.350258567558466"><ele>919.0</ele><time>2026-04-12T11:13:02.001Z</time></trkpt><trkpt lat="44.182271780653224" lon="11.350444804233668"><ele>921.0</ele><time>2026-04-12T11:13:03.001Z</time></trkpt><trkpt lat="44.182328820254725" lon="11.35061569316817"><ele>923.0</ele><time>2026-04-12T11:13:04.001Z</time></trkpt><trkpt lat="44.18242219475865" lon="11.35077524555932"><ele>925.0</ele><time>2026-04-12T11:13:05.001Z</time></trkpt><trkpt lat="44.18248056701815" lon="11.350946500541912"><ele>927.0</ele><time>2026-04-12T11:13:06.001Z</time></trkpt><trkpt lat="44.18250905825263" lon="11.351132432210372"><ele>920.0</ele><time>2026-04-12T11:13:07.001Z</time></trkpt><trkpt lat="44.18249037383018" lon="11.351317089561482"><ele>913.0</ele><time>2026-04-12T11:13:08.001Z</time></trkpt><trkpt lat="44.182460668102195" lon="11.351519879495331"><ele>906.0</ele><time>2026-04-12T11:13:09.001Z</time></trkpt><trkpt lat="44.182445925307185" lon="11.351726956303569"><ele>899.0</ele><time>2026-04-12T11:13:10.001Z</time></trkpt><trkpt lat="44.18245284268979" lon="11.351941192111978"><ele>899.0</ele><time>2026-04-12T11:13:11.001Z</time></trkpt><trkpt lat="44.18250777183807" lon="11.352125125618754"><ele>899.0</ele><time>2026-04-12T11:13:12.001Z</time></trkpt><trkpt lat="44.18259571674104" lon="11.352269683159166"><ele>899.0</ele><time>2026-04-12T11:13:13.001Z</time></trkpt><trkpt lat="44.182708470961245" lon="11.352373750606619"><ele>899.0</ele><time>2026-04-12T11:13:14.001Z</time></trkpt><trkpt lat="44.18284467617879" lon="11.352437480155903"><ele>898.0</ele><time>2026-04-12T11:13:15.001Z</time></trkpt><trkpt lat="44.18299812070191" lon="11.352491355722428"><ele>897.0</ele><time>2026-04-12T11:13:16.001Z</time></trkpt><trkpt lat="44.18313161132337" lon="11.352589777367601"><ele>896.0</ele><time>2026-04-12T11:13:17.001Z</time></trkpt><trkpt lat="44.183243969935134" lon="11.352707882794192"><ele>896.0</ele><time>2026-04-12T11:13:18.001Z</time></trkpt><trkpt lat="44.18333752612159" lon="11.352856902618221"><ele>896.0</ele><time>2026-04-12T11:13:19.001Z</time></trkpt><trkpt lat="44.183413907679665" lon="11.353027817459655"><ele>896.0</ele><time>2026-04-12T11:13:20.001Z</time></trkpt><trkpt lat="44.18350380504835" lon="11.35319733585129"><ele>896.0</ele><time>2026-04-12T11:13:21.001Z</time></trkpt><trkpt lat="44.18357430380278" lon="11.353382435632177"><ele>899.5</ele><time>2026-04-12T11:13:22.001Z</time></trkpt><trkpt lat="44.183646935766035" lon="11.35356472702161"><ele>903.0</ele><time>2026-04-12T11:13:23.001Z</time></trkpt><trkpt lat="44.1837194328252" lon="11.353737742698156"><ele>906.5</ele><time>2026-04-12T11:13:24Z</time></trkpt><trkpt lat="44.18380116156779" lon="11.353917027407903"><ele>910.0</ele><time>2026-04-12T11:13:25Z</time></trkpt><trkpt lat="44.18387821160884" lon="11.354095699340327"><ele>908.0</ele><time>2026-04-12T11:13:26Z</time></trkpt><trkpt lat="44.183956960229075" lon="11.354279029559457"><ele>906.0</ele><time>2026-04-12T11:13:27Z</time></trkpt><trkpt lat="44.18403236967551" lon="11.354460390585418"><ele>904.0</ele><time>2026-04-12T11:13:28Z</time></trkpt><trkpt lat="44.18410715723652" lon="11.354641567147882"><ele>905.0</ele><time>2026-04-12T11:13:29Z</time></trkpt><trkpt lat="44.184187296320864" lon="11.354822372007776"><ele>906.0</ele><time>2026-04-12T11:13:30Z</time></trkpt><trkpt lat="44.184271095949434" lon="11.355003860796248"><ele>907.0</ele><time>2026-04-12T11:13:31Z</time></trkpt><trkpt lat="44.18435968874484" lon="11.355181302031232"><ele>907.0</ele><time>2026-04-12T11:13:32Z</time></trkpt><trkpt lat="44.18446299460552" lon="11.355348689708068"><ele>907.0</ele><time>2026-04-12T11:13:33Z</time></trkpt><trkpt lat="44.18459476682833" lon="11.355492385488402"><ele>907.0</ele><time>2026-04-12T11:13:34Z</time></trkpt><trkpt lat="44.1847485661107" lon="11.355634939869296"><ele>907.6666666666666</ele><time>2026-04-12T11:13:35Z</time></trkpt><trkpt lat="44.18488812257199" lon="11.35573894871312"><ele>908.3333333333333</ele><time>2026-04-12T11:13:36Z</time></trkpt><trkpt lat="44.18502951331167" lon="11.355869269523927"><ele>909.0</ele><time>2026-04-12T11:13:37Z</time></trkpt><trkpt lat="44.18516249765573" lon="11.3559926971594"><ele>909.0</ele><time>2026-04-12T11:13:38Z</time></trkpt><trkpt lat="44.18529255278581" lon="11.356115917199187"><ele>909.0</ele><time>2026-04-12T11:13:39Z</time></trkpt><trkpt lat="44.18541749009783" lon="11.356252832195795"><ele>909.0</ele><time>2026-04-12T11:13:40Z</time></trkpt><trkpt lat="44.185511681707546" lon="11.356412664946369"><ele>911.75</ele><time>2026-04-12T11:13:41Z</time></trkpt><trkpt lat="44.18556999351243" lon="11.356585278693894"><ele>914.5</ele><time>2026-04-12T11:13:42Z</time></trkpt><trkpt lat="44.185625732916115" lon="11.356776230631684"><ele>917.25</ele><time>2026-04-12T11:13:43Z</time></trkpt><trkpt lat="44.18565117629882" lon="11.356964686266384"><ele>920.0</ele><time>2026-04-12T11:13:44Z</time></trkpt><trkpt lat="44.18565116899317" lon="11.3571391279978"><ele>920.8</ele><time>2026-04-12T11:13:45Z</time></trkpt><trkpt lat="44.18562215319563" lon="11.357283998365265"><ele>921.6</ele><time>2026-04-12T11:13:46Z</time></trkpt><trkpt lat="44.18555448477975" lon="11.357395028764264"><ele>922.4000000000001</ele><time>2026-04-12T11:13:47Z</time></trkpt><trkpt lat="44.18547869914989" lon="11.35749874064433"><ele>923.2</ele><time>2026-04-12T11:13:48Z</time></trkpt><trkpt lat="44.18537243941252" lon="11.357563603445804"><ele>924.0</ele><time>2026-04-12T11:13:49Z</time></trkpt><trkpt lat="44.18526684680748" lon="11.357650312368396"><ele>924.0</ele><time>2026-04-12T11:13:50Z</time></trkpt><trkpt lat="44.185188093477706" lon="11.357793848918103"><ele>924.0</ele><time>2026-04-12T11:13:51Z</time></trkpt><trkpt lat="44.185143009024486" lon="11.357974827630256"><ele>924.0</ele><time>2026-04-12T11:13:52Z</time></trkpt><trkpt lat="44.18513549533763" lon="11.358167215150567"><ele>924.0</ele><time>2026-04-12T11:13:53Z</time></trkpt><trkpt lat="44.18511684130929" lon="11.358369385736959"><ele>922.3333333333333</ele><time>2026-04-12T11:13:54Z</time></trkpt><trkpt lat="44.185103544247525" lon="11.358574623593968"><ele>920.6666666666666</ele><time>2026-04-12T11:13:55Z</time></trkpt><trkpt lat="44.185082750531805" lon="11.358790769571943"><ele>919.0</ele><time>2026-04-12T11:13:56Z</time></trkpt><trkpt lat="44.1850510057178" lon="11.359014908764381"><ele>916.6666666666666</ele><time>2026-04-12T11:13:57Z</time></trkpt><trkpt lat="44.185012665623525" lon="11.359241585464924"><ele>914.3333333333333</ele><time>2026-04-12T11:13:58Z</time></trkpt><trkpt lat="44.18496678541649" lon="11.359469260641326"><ele>912.0</ele><time>2026-04-12T11:13:59Z</time></trkpt><trkpt lat="44.18491907210602" lon="11.359697131835823"><ele>910.0</ele><time>2026-04-12T11:14:00Z</time></trkpt><trkpt lat="44.184885221116815" lon="11.359932279334277"><ele>908.0</ele><time>2026-04-12T11:14:01Z</time></trkpt><trkpt lat="44.18481938015268" lon="11.360156749081964"><ele>906.0</ele><time>2026-04-12T11:14:02Z</time></trkpt><trkpt lat="44.18478404984174" lon="11.360391664002057"><ele>916.6666666666667</ele><time>2026-04-12T11:14:03Z</time></trkpt><trkpt lat="44.18473296499085" lon="11.360620961625028"><ele>927.3333333333334</ele><time>2026-04-12T11:14:04Z</time></trkpt><trkpt lat="44.18468773701878" lon="11.360844142625668"><ele>938.0</ele><time>2026-04-12T11:14:05Z</time></trkpt><trkpt lat="44.18465709768193" lon="11.361072676697773"><ele>938.0</ele><time>2026-04-12T11:14:06Z</time></trkpt><trkpt lat="44.18464536019627" lon="11.361305998131666"><ele>938.0</ele><time>2026-04-12T11:14:07Z</time></trkpt><trkpt lat="44.1846493971363" lon="11.361543109733956"><ele>938.0</ele><time>2026-04-12T11:14:08Z</time></trkpt><trkpt lat="44.18466838444518" lon="11.361777621035332"><ele>934.3333333333334</ele><time>2026-04-12T11:14:09Z</time></trkpt><trkpt lat="44.18469796144766" lon="11.361996410923739"><ele>930.6666666666667</ele><time>2026-04-12T11:14:10Z</time></trkpt><trkpt lat="44.18474078065798" lon="11.362210725024875"><ele>927.0</ele><time>2026-04-12T11:14:11Z</time></trkpt><trkpt lat="44.18479006299995" lon="11.362392223082669"><ele>922.0</ele><time>2026-04-12T11:14:12Z</time></trkpt><trkpt lat="44.184830516177975" lon="11.362553933074416"><ele>917.0</ele><time>2026-04-12T11:14:13Z</time></trkpt><trkpt lat="44.18486529401534" lon="11.362699321301918"><ele>912.0</ele><time>2026-04-12T11:14:14Z</time></trkpt><trkpt lat="44.18489227333198" lon="11.362825012848573"><ele>907.0</ele><time>2026-04-12T11:14:15Z</time></trkpt><trkpt lat="44.184906615066694" lon="11.362932683393375"><ele>902.0</ele><time>2026-04-12T11:14:16Z</time></trkpt><trkpt lat="44.18490907759698" lon="11.363033111437575"><ele>901.4000000000001</ele><time>2026-04-12T11:14:17Z</time></trkpt><trkpt lat="44.18496604280494" lon="11.363178216587448"><ele>900.8000000000001</ele><time>2026-04-12T11:14:19Z</time></trkpt><trkpt lat="44.1850044797989" lon="11.363259797598676"><ele>900.2</ele><time>2026-04-12T11:14:21Z</time></trkpt><trkpt lat="44.18509579860312" lon="11.363418433596513"><ele>899.6</ele><time>2026-04-12T11:14:23Z</time></trkpt><trkpt lat="44.18514882874055" lon="11.363493804317839"><ele>899.0</ele><time>2026-04-12T11:14:24Z</time></trkpt><trkpt lat="44.185240284857564" lon="11.36360049178847"><ele>898.9999999999999</ele><time>2026-04-12T11:14:26Z</time></trkpt><trkpt lat="44.18529725501066" lon="11.363642913508427"><ele>899.0</ele><time>2026-04-12T11:14:27Z</time></trkpt><trkpt lat="44.1853639271359" lon="11.363677037604983"><ele>898.9999999999999</ele><time>2026-04-12T11:14:28Z</time></trkpt><trkpt lat="44.185441312391006" lon="11.363739354191841"><ele>898.9999999999999</ele><time>2026-04-12T11:14:29Z</time></trkpt><trkpt lat="44.18549420228383" lon="11.363802784439454"><ele>899.0</ele><time>2026-04-12T11:14:30Z</time></trkpt><trkpt lat="44.18553577231485" lon="11.36388913629779"><ele>898.9999999999999</ele><time>2026-04-12T11:14:31Z</time></trkpt><trkpt lat="44.18557829054992" lon="11.363973449229947"><ele>898.9999999999999</ele><time>2026-04-12T11:14:32Z</time></trkpt><trkpt lat="44.1856215481925" lon="11.364056863738263"><ele>898.4000000000001</ele><time>2026-04-12T11:14:33Z</time></trkpt><trkpt lat="44.185696489211736" lon="11.364138232546361"><ele>897.8000000000001</ele><time>2026-04-12T11:14:34Z</time></trkpt><trkpt lat="44.18579186570715" lon="11.364223314184537"><ele>897.1999999999999</ele><time>2026-04-12T11:14:35Z</time></trkpt><trkpt lat="44.18588326365896" lon="11.364309257788637"><ele>896.5999999999999</ele><time>2026-04-12T11:14:36Z</time></trkpt><trkpt lat="44.18597835717148" lon="11.364387909299781"><ele>896.0</ele><time>2026-04-12T11:14:37Z</time></trkpt><trkpt lat="44.1860571473301" lon="11.364450871295196"><ele>896.0000000000001</ele><time>2026-04-12T11:14:38Z</time></trkpt><trkpt lat="44.18610929043043" lon="11.364514896038898"><ele>896.0</ele><time>2026-04-12T11:14:39Z</time></trkpt><trkpt lat="44.18614948692637" lon="11.364593151546098"><ele>896.0</ele><time>2026-04-12T11:14:40Z</time></trkpt><trkpt lat="44.18618409393163" lon="11.364695186009762"><ele>896.0</ele><time>2026-04-12T11:14:41Z</time></trkpt><trkpt lat="44.18620999950742" lon="11.364803369609096"><ele>896.0000000000001</ele><time>2026-04-12T11:14:42Z</time></trkpt><trkpt lat="44.18624535486363" lon="11.36491699525656"><ele>896.0</ele><time>2026-04-12T11:14:43Z</time></trkpt><trkpt lat="44.18628705762665" lon="11.365022799106859"><ele>895.5000000000001</ele><time>2026-04-12T11:14:44Z</time></trkpt><trkpt lat="44.18632156891183" lon="11.365129310711907"><ele>895.0</ele><time>2026-04-12T11:14:45Z</time></trkpt><trkpt lat="44.186339069032535" lon="11.365220707797917"><ele>894.5</ele><time>2026-04-12T11:14:46Z</time></trkpt><trkpt lat="44.18636789864294" lon="11.365307023083501"><ele>894.0</ele><time>2026-04-12T11:14:47Z</time></trkpt><trkpt lat="44.186418934315746" lon="11.365405156512116"><ele>893.5000000000001</ele><time>2026-04-12T11:14:48Z</time></trkpt><trkpt lat="44.18647077995643" lon="11.365493182109969"><ele>893.0</ele><time>2026-04-12T11:14:49Z</time></trkpt><trkpt lat="44.186527517329736" lon="11.365581167908445"><ele>893.0</ele><time>2026-04-12T11:14:50Z</time></trkpt><trkpt lat="44.18660262318249" lon="11.365685490596967"><ele>893.0</ele><time>2026-04-12T11:14:52Z</time></trkpt><trkpt lat="44.18671058370816" lon="11.365761420990122"><ele>893.0</ele><time>2026-04-12T11:14:54Z</time></trkpt><trkpt lat="44.18680450807715" lon="11.365792627184652"><ele>893.0</ele><time>2026-04-12T11:14:56Z</time></trkpt><trkpt lat="44.18688889015107" lon="11.365838628612165"><ele>893.0</ele><time>2026-04-12T11:14:58Z</time></trkpt><trkpt lat="44.18697903647674" lon="11.3658316361723"><ele>893.0</ele><time>2026-04-12T11:14:59Z</time></trkpt><trkpt lat="44.18706986613985" lon="11.365868709331977"><ele>893.0</ele><time>2026-04-12T11:15:00Z</time></trkpt><trkpt lat="44.18715840236001" lon="11.365933726586007"><ele>893.0</ele><time>2026-04-12T11:15:01Z</time></trkpt><trkpt lat="44.18723153665426" lon="11.36599209399189"><ele>893.0</ele><time>2026-04-12T11:15:02Z</time></trkpt><trkpt lat="44.187346272301276" lon="11.366032287827235"><ele>893.0</ele><time>2026-04-12T11:15:04Z</time></trkpt><trkpt lat="44.18742164595174" lon="11.36607717252278"><ele>893.4</ele><time>2026-04-12T11:15:06Z</time></trkpt><trkpt lat="44.187491416782116" lon="11.366143586820646"><ele>893.8</ele><time>2026-04-12T11:15:08Z</time></trkpt><trkpt lat="44.1875811875215" lon="11.366275643947036"><ele>894.2</ele><time>2026-04-12T11:15:10Z</time></trkpt><trkpt lat="44.187629062402706" lon="11.366366641048579"><ele>894.6</ele><time>2026-04-12T11:15:11Z</time></trkpt><trkpt lat="44.18767659409733" lon="11.366450127110111"><ele>895.0</ele><time>2026-04-12T11:15:12Z</time></trkpt><trkpt lat="44.18773235432376" lon="11.36653791156246"><ele>893.0</ele><time>2026-04-12T11:15:13Z</time></trkpt><trkpt lat="44.18778344810073" lon="11.366620055439428"><ele>891.0</ele><time>2026-04-12T11:15:14.001Z</time></trkpt><trkpt lat="44.18784906785589" lon="11.366723301625072"><ele>889.0</ele><time>2026-04-12T11:15:16.001Z</time></trkpt><trkpt lat="44.187917614290484" lon="11.366757113335998"><ele>887.0</ele><time>2026-04-12T11:15:19.001Z</time></trkpt><trkpt lat="44.1880285807616" lon="11.366873143257338"><ele>885.0</ele><time>2026-04-12T11:15:20.001Z</time></trkpt><trkpt lat="44.18813863597372" lon="11.366879093914804"><ele>885.2</ele><time>2026-04-12T11:15:22.001Z</time></trkpt><trkpt lat="44.188235583482665" lon="11.366892416643472"><ele>885.4</ele><time>2026-04-12T11:15:24.001Z</time></trkpt><trkpt lat="44.18829647117858" lon="11.366915760258355"><ele>885.5999999999999</ele><time>2026-04-12T11:15:25.001Z</time></trkpt><trkpt lat="44.188394985115096" lon="11.36693983172118"><ele>885.8</ele><time>2026-04-12T11:15:26.001Z</time></trkpt><trkpt lat="44.18849049391082" lon="11.367052515861298"><ele>886.0</ele><time>2026-04-12T11:15:27.001Z</time></trkpt><trkpt lat="44.18855246354645" lon="11.367155570194447"><ele>884.5</ele><time>2026-04-12T11:15:28.001Z</time></trkpt><trkpt lat="44.18868735326188" lon="11.36721477496551"><ele>883.0</ele><time>2026-04-12T11:15:29.001Z</time></trkpt><trkpt lat="44.18875402211946" lon="11.367349806839515"><ele>881.5</ele><time>2026-04-12T11:15:30Z</time></trkpt><trkpt lat="44.18872836214752" lon="11.367555018058614"><ele>880.0</ele><time>2026-04-12T11:15:31Z</time></trkpt><trkpt lat="44.18881627166932" lon="11.367663787670358"><ele>880.0</ele><time>2026-04-12T11:15:32Z</time></trkpt><trkpt lat="44.18889172147788" lon="11.36778054208949"><ele>880.0</ele><time>2026-04-12T11:15:33Z</time></trkpt><trkpt lat="44.188970079991" lon="11.367870715434188"><ele>880.0</ele><time>2026-04-12T11:15:34Z</time></trkpt><trkpt lat="44.18906204169974" lon="11.36796679431941"><ele>880.0</ele><time>2026-04-12T11:15:35Z</time></trkpt><trkpt lat="44.18915531781321" lon="11.368062875433822"><ele>880.0</ele><time>2026-04-12T11:15:36Z</time></trkpt><trkpt lat="44.18924426742535" lon="11.368167830331727"><ele>880.8333333333333</ele><time>2026-04-12T11:15:37Z</time></trkpt><trkpt lat="44.18932994751783" lon="11.368263983701166"><ele>881.6666666666666</ele><time>2026-04-12T11:15:38Z</time></trkpt><trkpt lat="44.18940148404085" lon="11.368338535963474"><ele>882.5</ele><time>2026-04-12T11:15:39Z</time></trkpt><trkpt lat="44.18946713174314" lon="11.368411261384862"><ele>883.3333333333333</ele><time>2026-04-12T11:15:40Z</time></trkpt><trkpt lat="44.18953271309835" lon="11.36848665298281"><ele>884.1666666666666</ele><time>2026-04-12T11:15:41Z</time></trkpt><trkpt lat="44.189592857015384" lon="11.368554443709732"><ele>885.0</ele><time>2026-04-12T11:15:42Z</time></trkpt><trkpt lat="44.18965673926346" lon="11.368620644555964"><ele>885.0</ele><time>2026-04-12T11:15:43Z</time></trkpt><trkpt lat="44.18971551759473" lon="11.36868745306579"><ele>885.0</ele><time>2026-04-12T11:15:44Z</time></trkpt><trkpt lat="44.18976608439953" lon="11.368750367877546"><ele>885.0</ele><time>2026-04-12T11:15:45Z</time></trkpt><trkpt lat="44.189859251127196" lon="11.368867674061324"><ele>885.0</ele><time>2026-04-12T11:15:47Z</time></trkpt><trkpt lat="44.189911208578465" lon="11.368925693748835"><ele>885.0</ele><time>2026-04-12T11:15:48Z</time></trkpt><trkpt lat="44.18998771684654" lon="11.369073917856168"><ele>884.8</ele><time>2026-04-12T11:15:50Z</time></trkpt><trkpt lat="44.190033373970294" lon="11.3692215061596"><ele>884.6</ele><time>2026-04-12T11:15:52Z</time></trkpt><trkpt lat="44.19007548218886" lon="11.369385938042342"><ele>884.4000000000001</ele><time>2026-04-12T11:15:54Z</time></trkpt><trkpt lat="44.19011572539288" lon="11.3695322448262"><ele>884.2</ele><time>2026-04-12T11:15:56Z</time></trkpt><trkpt lat="44.190139137600546" lon="11.369622615175494"><ele>884.0</ele><time>2026-04-12T11:15:57Z</time></trkpt><trkpt lat="44.19015970389872" lon="11.369728846462843"><ele>884.0000000000001</ele><time>2026-04-12T11:15:58Z</time></trkpt><trkpt lat="44.19018249767747" lon="11.369836105963582"><ele>884.0</ele><time>2026-04-12T11:15:59Z</time></trkpt><trkpt lat="44.1902136675301" lon="11.369945872585456"><ele>884.0</ele><time>2026-04-12T11:16:00Z</time></trkpt><trkpt lat="44.19024361306245" lon="11.37005656862794"><ele>884.0</ele><time>2026-04-12T11:16:01Z</time></trkpt><trkpt lat="44.19028424445963" lon="11.370162279625564"><ele>884.0000000000001</ele><time>2026-04-12T11:16:02Z</time></trkpt><trkpt lat="44.190334587843644" lon="11.37026018702201"><ele>884.0</ele><time>2026-04-12T11:16:03Z</time></trkpt><trkpt lat="44.19039611260095" lon="11.37034865747879"><ele>884.0000000000001</ele><time>2026-04-12T11:16:04Z</time></trkpt><trkpt lat="44.190461408411615" lon="11.370425719369639"><ele>884.0</ele><time>2026-04-12T11:16:05Z</time></trkpt><trkpt lat="44.19053010048148" lon="11.37051088591949"><ele>884.0</ele><time>2026-04-12T11:16:06Z</time></trkpt><trkpt lat="44.19060099462368" lon="11.370602132583075"><ele>884.0</ele><time>2026-04-12T11:16:07Z</time></trkpt><trkpt lat="44.190662062849974" lon="11.370697777087221"><ele>884.0000000000001</ele><time>2026-04-12T11:16:08Z</time></trkpt><trkpt lat="44.19071423418633" lon="11.3707882259106"><ele>884.0</ele><time>2026-04-12T11:16:09Z</time></trkpt><trkpt lat="44.19075142408236" lon="11.370887351214156"><ele>883.8333333333334</ele><time>2026-04-12T11:16:10Z</time></trkpt><trkpt lat="44.190779398725255" lon="11.370980293419251"><ele>883.6666666666667</ele><time>2026-04-12T11:16:11Z</time></trkpt><trkpt lat="44.19079873874943" lon="11.371077801943656"><ele>883.5</ele><time>2026-04-12T11:16:12Z</time></trkpt><trkpt lat="44.190818704466565" lon="11.371194399681617"><ele>883.3333333333333</ele><time>2026-04-12T11:16:13Z</time></trkpt><trkpt lat="44.190845590223375" lon="11.371332336751902"><ele>883.1666666666666</ele><time>2026-04-12T11:16:14Z</time></trkpt><trkpt lat="44.19087237545114" lon="11.371479156296209"><ele>883.0</ele><time>2026-04-12T11:16:15Z</time></trkpt><trkpt lat="44.19090143756803" lon="11.371623181071753"><ele>883.0</ele><time>2026-04-12T11:16:16Z</time></trkpt><trkpt lat="44.19092976438328" lon="11.371775800386754"><ele>883.0</ele><time>2026-04-12T11:16:17Z</time></trkpt><trkpt lat="44.19096546806839" lon="11.371935949118358"><ele>883.0</ele><time>2026-04-12T11:16:18Z</time></trkpt><trkpt lat="44.191014531215544" lon="11.372108815347827"><ele>883.0</ele><time>2026-04-12T11:16:19Z</time></trkpt><trkpt lat="44.191076557974164" lon="11.372289259873266"><ele>882.0</ele><time>2026-04-12T11:16:20Z</time></trkpt><trkpt lat="44.19115324546811" lon="11.372472739559813"><ele>881.0</ele><time>2026-04-12T11:16:21Z</time></trkpt><trkpt lat="44.19122421190852" lon="11.372636012261154"><ele>880.0</ele><time>2026-04-12T11:16:22Z</time></trkpt><trkpt lat="44.191293350898896" lon="11.37280171104207"><ele>879.0</ele><time>2026-04-12T11:16:23Z</time></trkpt><trkpt lat="44.191361898473566" lon="11.372976449677036"><ele>878.3333333333333</ele><time>2026-04-12T11:16:24Z</time></trkpt><trkpt lat="44.191434785560006" lon="11.3731631375998"><ele>877.6666666666666</ele><time>2026-04-12T11:16:25Z</time></trkpt><trkpt lat="44.191523245874826" lon="11.373345906049497"><ele>877.0</ele><time>2026-04-12T11:16:26Z</time></trkpt><trkpt lat="44.19162603567369" lon="11.373518834397732"><ele>880.3333333333333</ele><time>2026-04-12T11:16:27Z</time></trkpt><trkpt lat="44.19173737839168" lon="11.373697831448455"><ele>883.6666666666667</ele><time>2026-04-12T11:16:28Z</time></trkpt><trkpt lat="44.191838670833896" lon="11.37385284398504"><ele>887.0</ele><time>2026-04-12T11:16:29Z</time></trkpt><trkpt lat="44.19192094662262" lon="11.374027008924598"><ele>887.0</ele><time>2026-04-12T11:16:30Z</time></trkpt><trkpt lat="44.191986319773335" lon="11.374233236023525"><ele>887.0</ele><time>2026-04-12T11:16:31Z</time></trkpt><trkpt lat="44.19201325106283" lon="11.374467728839788"><ele>887.0</ele><time>2026-04-12T11:16:32Z</time></trkpt><trkpt lat="44.19206763817804" lon="11.37470051533466"><ele>884.0</ele><time>2026-04-12T11:16:33Z</time></trkpt><trkpt lat="44.19210072359574" lon="11.374936942140833"><ele>881.0</ele><time>2026-04-12T11:16:34Z</time></trkpt><trkpt lat="44.192162736477236" lon="11.375155863014328"><ele>878.0</ele><time>2026-04-12T11:16:35Z</time></trkpt><trkpt lat="44.192263341975746" lon="11.375359412130956"><ele>881.0</ele><time>2026-04-12T11:16:36Z</time></trkpt><trkpt lat="44.19237536368378" lon="11.37554613037278"><ele>884.0</ele><time>2026-04-12T11:16:37Z</time></trkpt><trkpt lat="44.1924584608412" lon="11.375752835601396"><ele>887.0</ele><time>2026-04-12T11:16:38Z</time></trkpt><trkpt lat="44.192552510358674" lon="11.375955081478418"><ele>887.0</ele><time>2026-04-12T11:16:39Z</time></trkpt><trkpt lat="44.19264628503176" lon="11.376153610120607"><ele>887.0</ele><time>2026-04-12T11:16:40Z</time></trkpt><trkpt lat="44.19272801437729" lon="11.376333730216828"><ele>887.0</ele><time>2026-04-12T11:16:41Z</time></trkpt><trkpt lat="44.19275833134833" lon="11.376526715782152"><ele>886.75</ele><time>2026-04-12T11:16:42Z</time></trkpt><trkpt lat="44.19272688447848" lon="11.376716439531089"><ele>886.5</ele><time>2026-04-12T11:16:43Z</time></trkpt><trkpt lat="44.192658528921754" lon="11.376880492599415"><ele>886.25</ele><time>2026-04-12T11:16:44Z</time></trkpt><trkpt lat="44.19258758049335" lon="11.377063856117642"><ele>886.0</ele><time>2026-04-12T11:16:45Z</time></trkpt><trkpt lat="44.192521130789565" lon="11.37723629040852"><ele>886.0</ele><time>2026-04-12T11:16:46Z</time></trkpt><trkpt lat="44.192488613699545" lon="11.377395640311775"><ele>886.0</ele><time>2026-04-12T11:16:47Z</time></trkpt><trkpt lat="44.192504903080504" lon="11.37755944800657"><ele>886.0</ele><time>2026-04-12T11:16:48Z</time></trkpt><trkpt lat="44.19255933592814" lon="11.377737826250383"><ele>886.0</ele><time>2026-04-12T11:16:49Z</time></trkpt><trkpt lat="44.19266197884782" lon="11.377906304125586"><ele>883.0</ele><time>2026-04-12T11:16:50Z</time></trkpt><trkpt lat="44.192785147256735" lon="11.37807026800269"><ele>880.0</ele><time>2026-04-12T11:16:51Z</time></trkpt><trkpt lat="44.192907363373955" lon="11.378236611405715"><ele>877.0</ele><time>2026-04-12T11:16:52Z</time></trkpt><trkpt lat="44.19301793506752" lon="11.378414977866875"><ele>877.0</ele><time>2026-04-12T11:16:53Z</time></trkpt><trkpt lat="44.19306612982858" lon="11.378633269260199"><ele>877.0</ele><time>2026-04-12T11:16:54Z</time></trkpt><trkpt lat="44.19311975988648" lon="11.378844283840609"><ele>877.0</ele><time>2026-04-12T11:16:55Z</time></trkpt><trkpt lat="44.19314501695723" lon="11.379046111972702"><ele>879.0</ele><time>2026-04-12T11:16:56Z</time></trkpt><trkpt lat="44.1932113681286" lon="11.379208337715236"><ele>881.0</ele><time>2026-04-12T11:16:57Z</time></trkpt><trkpt lat="44.19332964720596" lon="11.379331021538096"><ele>883.0</ele><time>2026-04-12T11:16:58Z</time></trkpt><trkpt lat="44.19347860295148" lon="11.379412066278595"><ele>885.0</ele><time>2026-04-12T11:16:59Z</time></trkpt><trkpt lat="44.19364799219416" lon="11.379472068193891"><ele>885.0</ele><time>2026-04-12T11:17:00Z</time></trkpt><trkpt lat="44.19381578823903" lon="11.379538753585006"><ele>885.0</ele><time>2026-04-12T11:17:01Z</time></trkpt><trkpt lat="44.19398250398713" lon="11.379618626640903"><ele>885.0</ele><time>2026-04-12T11:17:02Z</time></trkpt><trkpt lat="44.194147464325795" lon="11.379701496466696"><ele>883.0</ele><time>2026-04-12T11:17:03Z</time></trkpt><trkpt lat="44.194314308868094" lon="11.37978585561444"><ele>881.0</ele><time>2026-04-12T11:17:04Z</time></trkpt><trkpt lat="44.19448086266432" lon="11.379871955645658"><ele>879.0</ele><time>2026-04-12T11:17:05Z</time></trkpt><trkpt lat="44.19464925255841" lon="11.379952656518968"><ele>879.0</ele><time>2026-04-12T11:17:06Z</time></trkpt><trkpt lat="44.19481596774685" lon="11.380031183123778"><ele>879.0</ele><time>2026-04-12T11:17:07Z</time></trkpt><trkpt lat="44.19498520778761" lon="11.380120751985539"><ele>879.0</ele><time>2026-04-12T11:17:08Z</time></trkpt><trkpt lat="44.19515457455737" lon="11.380233449661882"><ele>880.6666666666667</ele><time>2026-04-12T11:17:09Z</time></trkpt><trkpt lat="44.195315670086785" lon="11.38037733348009"><ele>882.3333333333334</ele><time>2026-04-12T11:17:10Z</time></trkpt><trkpt lat="44.195470977382975" lon="11.380545701816734"><ele>884.0</ele><time>2026-04-12T11:17:11Z</time></trkpt><trkpt lat="44.19562509333525" lon="11.380719547550894"><ele>882.3333333333334</ele><time>2026-04-12T11:17:12Z</time></trkpt><trkpt lat="44.19577640665589" lon="11.380877451115598"><ele>880.6666666666667</ele><time>2026-04-12T11:17:13Z</time></trkpt><trkpt lat="44.19591791027859" lon="11.381022705785172"><ele>879.0</ele><time>2026-04-12T11:17:14Z</time></trkpt><trkpt lat="44.19604930965476" lon="11.381170155229483"><ele>876.6666666666667</ele><time>2026-04-12T11:17:15Z</time></trkpt><trkpt lat="44.196131072417366" lon="11.381358745916971"><ele>874.3333333333334</ele><time>2026-04-12T11:17:16Z</time></trkpt><trkpt lat="44.1961944648456" lon="11.381569237049588"><ele>872.0</ele><time>2026-04-12T11:17:17Z</time></trkpt><trkpt lat="44.196228417732726" lon="11.381808291766902"><ele>872.0</ele><time>2026-04-12T11:17:18Z</time></trkpt><trkpt lat="44.19627484776247" lon="11.38205248271426"><ele>872.0</ele><time>2026-04-12T11:17:19Z</time></trkpt><trkpt lat="44.19629403330286" lon="11.382294315893605"><ele>872.0</ele><time>2026-04-12T11:17:20Z</time></trkpt><trkpt lat="44.19633410312296" lon="11.382511390097616"><ele>872.0</ele><time>2026-04-12T11:17:21Z</time></trkpt><trkpt lat="44.196394953502626" lon="11.382706008392491"><ele>872.0</ele><time>2026-04-12T11:17:22Z</time></trkpt><trkpt lat="44.19647601968581" lon="11.38289236881634"><ele>872.0</ele><time>2026-04-12T11:17:23Z</time></trkpt><trkpt lat="44.19658069092528" lon="11.383033747476741"><ele>872.0</ele><time>2026-04-12T11:17:24Z</time></trkpt><trkpt lat="44.196715027759986" lon="11.383120205968552"><ele>872.0</ele><time>2026-04-12T11:17:25Z</time></trkpt><trkpt lat="44.196873155851634" lon="11.3832040823006"><ele>872.0</ele><time>2026-04-12T11:17:26Z</time></trkpt><trkpt lat="44.1970220806677" lon="11.383347111338532"><ele>872.0</ele><time>2026-04-12T11:17:27Z</time></trkpt><trkpt lat="44.197141933358395" lon="11.383502466748114"><ele>872.0</ele><time>2026-04-12T11:17:28Z</time></trkpt><trkpt lat="44.19725516739505" lon="11.383677906855024"><ele>872.0</ele><time>2026-04-12T11:17:29Z</time></trkpt><trkpt lat="44.1973521076514" lon="11.383875275189107"><ele>871.5</ele><time>2026-04-12T11:17:30.001Z</time></trkpt><trkpt lat="44.1974527217963" lon="11.384030375407011"><ele>871.0</ele><time>2026-04-12T11:17:31.001Z</time></trkpt><trkpt lat="44.19756513265015" lon="11.384141951274612"><ele>870.5</ele><time>2026-04-12T11:17:32.001Z</time></trkpt><trkpt lat="44.19770884309258" lon="11.38419443687476"><ele>870.0</ele><time>2026-04-12T11:17:33.001Z</time></trkpt><trkpt lat="44.19790638991074" lon="11.384176510847006"><ele>870.0</ele><time>2026-04-12T11:17:34.001Z</time></trkpt><trkpt lat="44.19809587554481" lon="11.3841306227962"><ele>870.0</ele><time>2026-04-12T11:17:35.001Z</time></trkpt><trkpt lat="44.19830006025856" lon="11.384035663390357"><ele>870.0</ele><time>2026-04-12T11:17:36Z</time></trkpt><trkpt lat="44.19850646249378" lon="11.384016727568362"><ele>869.6666666666667</ele><time>2026-04-12T11:17:37Z</time></trkpt><trkpt lat="44.19870108301491" lon="11.384049176484094"><ele>869.3333333333334</ele><time>2026-04-12T11:17:38Z</time></trkpt><trkpt lat="44.19885435883121" lon="11.384149011740215"><ele>869.0</ele><time>2026-04-12T11:17:39Z</time></trkpt><trkpt lat="44.199005458738654" lon="11.384293427876374"><ele>868.3333333333334</ele><time>2026-04-12T11:17:40Z</time></trkpt><trkpt lat="44.19916476278748" lon="11.38445434964352"><ele>867.6666666666667</ele><time>2026-04-12T11:17:41Z</time></trkpt><trkpt lat="44.199303859563095" lon="11.384683431095826"><ele>867.0</ele><time>2026-04-12T11:17:42Z</time></trkpt><trkpt lat="44.199428922591515" lon="11.3849187471485"><ele>867.0</ele><time>2026-04-12T11:17:43Z</time></trkpt><trkpt lat="44.19952415248654" lon="11.385163594228265"><ele>867.0</ele><time>2026-04-12T11:17:44Z</time></trkpt><trkpt lat="44.19959530197139" lon="11.385409350299952"><ele>867.0</ele><time>2026-04-12T11:17:45Z</time></trkpt><trkpt lat="44.19964067140438" lon="11.385649490754881"><ele>865.3333333333333</ele><time>2026-04-12T11:17:46Z</time></trkpt><trkpt lat="44.19968378316046" lon="11.385884824132743"><ele>863.6666666666666</ele><time>2026-04-12T11:17:47Z</time></trkpt><trkpt lat="44.19973219904643" lon="11.386116446942063"><ele>862.0</ele><time>2026-04-12T11:17:48Z</time></trkpt><trkpt lat="44.19979632429416" lon="11.386352148451765"><ele>864.3333333333333</ele><time>2026-04-12T11:17:49Z</time></trkpt><trkpt lat="44.199898465409596" lon="11.38655636574653"><ele>866.6666666666667</ele><time>2026-04-12T11:17:50Z</time></trkpt><trkpt lat="44.200005927464105" lon="11.3867139687413"><ele>869.0</ele><time>2026-04-12T11:17:51Z</time></trkpt><trkpt lat="44.20011863533765" lon="11.386793911972353"><ele>869.0</ele><time>2026-04-12T11:17:52Z</time></trkpt><trkpt lat="44.20024887469392" lon="11.38682523224793"><ele>869.0</ele><time>2026-04-12T11:17:53Z</time></trkpt><trkpt lat="44.20039674284862" lon="11.386825414776593"><ele>869.0</ele><time>2026-04-12T11:17:54Z</time></trkpt><trkpt lat="44.20055257562301" lon="11.386789577529017"><ele>869.0</ele><time>2026-04-12T11:17:55Z</time></trkpt><trkpt lat="44.200710242109444" lon="11.386793621348486"><ele>872.3333333333334</ele><time>2026-04-12T11:17:56Z</time></trkpt><trkpt lat="44.20086312756387" lon="11.386849362231878"><ele>875.6666666666667</ele><time>2026-04-12T11:17:57Z</time></trkpt><trkpt lat="44.20100506048817" lon="11.38697917582642"><ele>879.0</ele><time>2026-04-12T11:17:58Z</time></trkpt><trkpt lat="44.20115816061838" lon="11.387108043297882"><ele>877.6666666666667</ele><time>2026-04-12T11:17:59Z</time></trkpt><trkpt lat="44.20129629562379" lon="11.38725864767375"><ele>876.3333333333334</ele><time>2026-04-12T11:18:00Z</time></trkpt><trkpt lat="44.20142734769553" lon="11.387407647852234"><ele>875.0</ele><time>2026-04-12T11:18:01Z</time></trkpt><trkpt lat="44.201557200245816" lon="11.387551110254694"><ele>875.0</ele><time>2026-04-12T11:18:02Z</time></trkpt><trkpt lat="44.20166977546402" lon="11.387692926797119"><ele>875.0</ele><time>2026-04-12T11:18:03Z</time></trkpt><trkpt lat="44.201764334628805" lon="11.387852230793753"><ele>875.0</ele><time>2026-04-12T11:18:04Z</time></trkpt><trkpt lat="44.20181334216148" lon="11.388045690350157"><ele>875.0</ele><time>2026-04-12T11:18:05Z</time></trkpt><trkpt lat="44.20185913760932" lon="11.38826141707975"><ele>871.6666666666667</ele><time>2026-04-12T11:18:06Z</time></trkpt><trkpt lat="44.20190594780146" lon="11.38849518176178"><ele>868.3333333333333</ele><time>2026-04-12T11:18:07Z</time></trkpt><trkpt lat="44.2019545486626" lon="11.388737888834717"><ele>865.0</ele><time>2026-04-12T11:18:08Z</time></trkpt><trkpt lat="44.20201999862458" lon="11.388963541208872"><ele>862.0</ele><time>2026-04-12T11:18:09Z</time></trkpt><trkpt lat="44.20208862883992" lon="11.389177556576426"><ele>859.0</ele><time>2026-04-12T11:18:10Z</time></trkpt><trkpt lat="44.20217462866098" lon="11.389359673590835"><ele>856.0</ele><time>2026-04-12T11:18:11Z</time></trkpt><trkpt lat="44.20225067240219" lon="11.389542066607772"><ele>854.25</ele><time>2026-04-12T11:18:12Z</time></trkpt><trkpt lat="44.20228940630382" lon="11.389734111668693"><ele>852.5</ele><time>2026-04-12T11:18:13Z</time></trkpt><trkpt lat="44.202284649077654" lon="11.389914603595392"><ele>850.75</ele><time>2026-04-12T11:18:14Z</time></trkpt><trkpt lat="44.20225110266306" lon="11.390100305546815"><ele>849.0</ele><time>2026-04-12T11:18:15Z</time></trkpt><trkpt lat="44.20219692020639" lon="11.390296758619442"><ele>849.0</ele><time>2026-04-12T11:18:16Z</time></trkpt><trkpt lat="44.20213954271459" lon="11.390497609099103"><ele>849.0</ele><time>2026-04-12T11:18:17Z</time></trkpt><trkpt lat="44.20208624382011" lon="11.390706575088888"><ele>849.0</ele><time>2026-04-12T11:18:18Z</time></trkpt><trkpt lat="44.20203037940239" lon="11.390912733818665"><ele>849.0</ele><time>2026-04-12T11:18:19Z</time></trkpt><trkpt lat="44.20198041042175" lon="11.391118581622186"><ele>849.0</ele><time>2026-04-12T11:18:20Z</time></trkpt><trkpt lat="44.20194828141418" lon="11.39133897923367"><ele>849.0</ele><time>2026-04-12T11:18:21Z</time></trkpt><trkpt lat="44.20195349288369" lon="11.39156346401726"><ele>847.3333333333333</ele><time>2026-04-12T11:18:22Z</time></trkpt><trkpt lat="44.20198709774333" lon="11.391790663160457"><ele>845.6666666666666</ele><time>2026-04-12T11:18:23Z</time></trkpt><trkpt lat="44.202031531224954" lon="11.392019555184472"><ele>844.0</ele><time>2026-04-12T11:18:24Z</time></trkpt><trkpt lat="44.20207028508733" lon="11.392238797768554"><ele>843.0</ele><time>2026-04-12T11:18:25Z</time></trkpt><trkpt lat="44.2021058185546" lon="11.39245172700743"><ele>842.0</ele><time>2026-04-12T11:18:26Z</time></trkpt><trkpt lat="44.20215036512191" lon="11.39264221800578"><ele>841.0</ele><time>2026-04-12T11:18:27Z</time></trkpt><trkpt lat="44.20222108117128" lon="11.392805270593405"><ele>840.0</ele><time>2026-04-12T11:18:28Z</time></trkpt><trkpt lat="44.20231066877363" lon="11.392941926649215"><ele>841.5</ele><time>2026-04-12T11:18:29Z</time></trkpt><trkpt lat="44.20239450914886" lon="11.393089866801974"><ele>843.0</ele><time>2026-04-12T11:18:30Z</time></trkpt><trkpt lat="44.202441705246876" lon="11.393240607551402"><ele>844.5</ele><time>2026-04-12T11:18:31Z</time></trkpt><trkpt lat="44.202456657731226" lon="11.393396671465402"><ele>846.0</ele><time>2026-04-12T11:18:32Z</time></trkpt><trkpt lat="44.20243924441584" lon="11.393564420781873"><ele>846.0</ele><time>2026-04-12T11:18:33Z</time></trkpt><trkpt lat="44.20240062651387" lon="11.393740693800154"><ele>846.0</ele><time>2026-04-12T11:18:34Z</time></trkpt><trkpt lat="44.20235394979811" lon="11.393928902135931"><ele>846.0</ele><time>2026-04-12T11:18:35Z</time></trkpt><trkpt lat="44.20230096040972" lon="11.394130648827613"><ele>846.0</ele><time>2026-04-12T11:18:36Z</time></trkpt><trkpt lat="44.20222955011347" lon="11.39433613436649"><ele>841.6666666666667</ele><time>2026-04-12T11:18:37Z</time></trkpt><trkpt lat="44.20213544940505" lon="11.394538233868076"><ele>837.3333333333334</ele><time>2026-04-12T11:18:38Z</time></trkpt><trkpt lat="44.202020865083064" lon="11.394718449884486"><ele>833.0</ele><time>2026-04-12T11:18:39Z</time></trkpt><trkpt lat="44.20190340885271" lon="11.3948681420602"><ele>833.0</ele><time>2026-04-12T11:18:40Z</time></trkpt><trkpt lat="44.20177690811389" lon="11.395033176194962"><ele>833.0</ele><time>2026-04-12T11:18:41Z</time></trkpt><trkpt lat="44.20166351947992" lon="11.39522420286238"><ele>833.0</ele><time>2026-04-12T11:18:42Z</time></trkpt><trkpt lat="44.20158247279252" lon="11.395431484873555"><ele>829.6666666666667</ele><time>2026-04-12T11:18:43Z</time></trkpt><trkpt lat="44.201509326138336" lon="11.39562945173781"><ele>826.3333333333333</ele><time>2026-04-12T11:18:44Z</time></trkpt><trkpt lat="44.20143017645252" lon="11.395808730315213"><ele>823.0</ele><time>2026-04-12T11:18:45Z</time></trkpt><trkpt lat="44.201341747328435" lon="11.395959810165923"><ele>823.0</ele><time>2026-04-12T11:18:46Z</time></trkpt><trkpt lat="44.20122968229552" lon="11.396096370124326"><ele>823.0</ele><time>2026-04-12T11:18:47Z</time></trkpt><trkpt lat="44.20109453575616" lon="11.396202913918621"><ele>823.0</ele><time>2026-04-12T11:18:48Z</time></trkpt><trkpt lat="44.20095375378637" lon="11.396276991707971"><ele>820.0</ele><time>2026-04-12T11:18:49Z</time></trkpt><trkpt lat="44.20081001818295" lon="11.396348156858073"><ele>817.0</ele><time>2026-04-12T11:18:50Z</time></trkpt><trkpt lat="44.20066996780744" lon="11.396449003506742"><ele>814.0</ele><time>2026-04-12T11:18:51Z</time></trkpt><trkpt lat="44.20052931742008" lon="11.396574832314505"><ele>814.0</ele><time>2026-04-12T11:18:52Z</time></trkpt><trkpt lat="44.20040334333537" lon="11.396721011681086"><ele>814.0</ele><time>2026-04-12T11:18:53Z</time></trkpt><trkpt lat="44.20029243699322" lon="11.39684903963869"><ele>814.0</ele><time>2026-04-12T11:18:54Z</time></trkpt><trkpt lat="44.200192582504606" lon="11.396970640504376"><ele>814.0</ele><time>2026-04-12T11:18:55Z</time></trkpt><trkpt lat="44.20011164227787" lon="11.39710193933308"><ele>814.25</ele><time>2026-04-12T11:18:56Z</time></trkpt><trkpt lat="44.20006463258179" lon="11.397248231523184"><ele>814.5</ele><time>2026-04-12T11:18:57Z</time></trkpt><trkpt lat="44.200063180289916" lon="11.397400406069554"><ele>814.75</ele><time>2026-04-12T11:18:58Z</time></trkpt><trkpt lat="44.20009642109697" lon="11.39755756301396"><ele>815.0</ele><time>2026-04-12T11:18:59Z</time></trkpt><trkpt lat="44.20015417398282" lon="11.397733435135152"><ele>815.0</ele><time>2026-04-12T11:19:00Z</time></trkpt><trkpt lat="44.20023217940641" lon="11.397923049914619"><ele>815.0</ele><time>2026-04-12T11:19:01Z</time></trkpt><trkpt lat="44.200324947711785" lon="11.39811674752938"><ele>815.0</ele><time>2026-04-12T11:19:02Z</time></trkpt><trkpt lat="44.20041137696431" lon="11.3983025604182"><ele>812.3333333333334</ele><time>2026-04-12T11:19:03Z</time></trkpt><trkpt lat="44.200497569754255" lon="11.398497614967113"><ele>809.6666666666667</ele><time>2026-04-12T11:19:04Z</time></trkpt><trkpt lat="44.20058026186399" lon="11.398672203212186"><ele>807.0</ele><time>2026-04-12T11:19:05Z</time></trkpt><trkpt lat="44.200684922951666" lon="11.398841959919404"><ele>807.0</ele><time>2026-04-12T11:19:06Z</time></trkpt><trkpt lat="44.20080912706296" lon="11.398986312119165"><ele>807.0</ele><time>2026-04-12T11:19:07Z</time></trkpt><trkpt lat="44.20094547983464" lon="11.399108949660313"><ele>807.0</ele><time>2026-04-12T11:19:08Z</time></trkpt><trkpt lat="44.20107799086356" lon="11.399226092485417"><ele>807.0</ele><time>2026-04-12T11:19:09Z</time></trkpt><trkpt lat="44.20120031652557" lon="11.399347290488546"><ele>807.0</ele><time>2026-04-12T11:19:10Z</time></trkpt><trkpt lat="44.20130390952441" lon="11.399460986935999"><ele>807.0</ele><time>2026-04-12T11:19:11Z</time></trkpt><trkpt lat="44.20138478049334" lon="11.399574855047092"><ele>807.0</ele><time>2026-04-12T11:19:12Z</time></trkpt><trkpt lat="44.20144299018442" lon="11.39970137290541"><ele>805.25</ele><time>2026-04-12T11:19:13Z</time></trkpt><trkpt lat="44.20146127926434" lon="11.399858291138925"><ele>803.5</ele><time>2026-04-12T11:19:14Z</time></trkpt><trkpt lat="44.20145574296638" lon="11.400039117270314"><ele>801.75</ele><time>2026-04-12T11:19:15Z</time></trkpt><trkpt lat="44.201435929669024" lon="11.400228870959799"><ele>800.0</ele><time>2026-04-12T11:19:16Z</time></trkpt><trkpt lat="44.20141829720491" lon="11.400435309504262"><ele>799.0</ele><time>2026-04-12T11:19:17Z</time></trkpt><trkpt lat="44.20139992411368" lon="11.400632836335017"><ele>798.0</ele><time>2026-04-12T11:19:18Z</time></trkpt><trkpt lat="44.201385621085095" lon="11.400845487958012"><ele>797.0</ele><time>2026-04-12T11:19:19Z</time></trkpt><trkpt lat="44.201368725315305" lon="11.40106813307693"><ele>797.0</ele><time>2026-04-12T11:19:20Z</time></trkpt><trkpt lat="44.20133653544382" lon="11.40128809171884"><ele>797.0</ele><time>2026-04-12T11:19:21Z</time></trkpt><trkpt lat="44.20128992137563" lon="11.401508070638348"><ele>797.0</ele><time>2026-04-12T11:19:22Z</time></trkpt><trkpt lat="44.20123775923145" lon="11.40172947999302"><ele>796.3333333333334</ele><time>2026-04-12T11:19:23Z</time></trkpt><trkpt lat="44.20118697700621" lon="11.401948695973442"><ele>795.6666666666667</ele><time>2026-04-12T11:19:24Z</time></trkpt><trkpt lat="44.2011414507494" lon="11.402169047745073"><ele>795.0</ele><time>2026-04-12T11:19:25Z</time></trkpt><trkpt lat="44.201096136658414" lon="11.402387249491996"><ele>792.3333333333333</ele><time>2026-04-12T11:19:26Z</time></trkpt><trkpt lat="44.201056386821676" lon="11.402590660633058"><ele>789.6666666666666</ele><time>2026-04-12T11:19:27Z</time></trkpt><trkpt lat="44.20100152194235" lon="11.402815629254473"><ele>787.0</ele><time>2026-04-12T11:19:28Z</time></trkpt><trkpt lat="44.20092554483455" lon="11.403012495903676"><ele>784.6666666666666</ele><time>2026-04-12T11:19:29Z</time></trkpt><trkpt lat="44.20082040359378" lon="11.403203943136871"><ele>782.3333333333333</ele><time>2026-04-12T11:19:30Z</time></trkpt><trkpt lat="44.20072149301041" lon="11.403384832642377"><ele>780.0</ele><time>2026-04-12T11:19:31Z</time></trkpt><trkpt lat="44.20061730015545" lon="11.403562094681444"><ele>780.0</ele><time>2026-04-12T11:19:32Z</time></trkpt><trkpt lat="44.20051158666185" lon="11.403713881498524"><ele>780.0</ele><time>2026-04-12T11:19:33Z</time></trkpt><trkpt lat="44.20039661039643" lon="11.403850668541121"><ele>780.0</ele><time>2026-04-12T11:19:34Z</time></trkpt><trkpt lat="44.20027158375545" lon="11.403948915836695"><ele>780.0</ele><time>2026-04-12T11:19:35Z</time></trkpt><trkpt lat="44.20013359518574" lon="11.404004242180358"><ele>775.6666666666666</ele><time>2026-04-12T11:19:36Z</time></trkpt><trkpt lat="44.1999878691675" lon="11.404025838277486"><ele>771.3333333333333</ele><time>2026-04-12T11:19:37Z</time></trkpt><trkpt lat="44.19983797740961" lon="11.404036319545892"><ele>767.0</ele><time>2026-04-12T11:19:38Z</time></trkpt><trkpt lat="44.19968500029379" lon="11.40404607036853"><ele>766.0</ele><time>2026-04-12T11:19:39Z</time></trkpt><trkpt lat="44.199541869554565" lon="11.404070838956045"><ele>765.0</ele><time>2026-04-12T11:19:40Z</time></trkpt><trkpt lat="44.19941050758429" lon="11.404129149982625"><ele>764.0</ele><time>2026-04-12T11:19:41Z</time></trkpt><trkpt lat="44.19929343736847" lon="11.404212821957174"><ele>763.0</ele><time>2026-04-12T11:19:42Z</time></trkpt><trkpt lat="44.19918858270546" lon="11.404326422069115"><ele>763.0</ele><time>2026-04-12T11:19:43Z</time></trkpt><trkpt lat="44.19910307644891" lon="11.40446069844354"><ele>763.0</ele><time>2026-04-12T11:19:44Z</time></trkpt><trkpt lat="44.199029493893676" lon="11.404606623772542"><ele>763.0</ele><time>2026-04-12T11:19:45Z</time></trkpt><trkpt lat="44.19896935496639" lon="11.404756535854707"><ele>763.0</ele><time>2026-04-12T11:19:46Z</time></trkpt><trkpt lat="44.1989118543878" lon="11.40490941190788"><ele>761.25</ele><time>2026-04-12T11:19:47Z</time></trkpt><trkpt lat="44.198859797273435" lon="11.405070269224769"><ele>759.5</ele><time>2026-04-12T11:19:48Z</time></trkpt><trkpt lat="44.19880973704788" lon="11.405231196947684"><ele>757.75</ele><time>2026-04-12T11:19:49Z</time></trkpt><trkpt lat="44.19874999476625" lon="11.405408500551733"><ele>756.0</ele><time>2026-04-12T11:19:50Z</time></trkpt><trkpt lat="44.19869264295621" lon="11.405585571366391"><ele>755.0</ele><time>2026-04-12T11:19:51Z</time></trkpt><trkpt lat="44.198641344454266" lon="11.405743084018889"><ele>754.0</ele><time>2026-04-12T11:19:52Z</time></trkpt><trkpt lat="44.198596069190174" lon="11.405891961553646"><ele>753.0</ele><time>2026-04-12T11:19:53Z</time></trkpt><trkpt lat="44.198552559693894" lon="11.406035762026256"><ele>752.0</ele><time>2026-04-12T11:19:54Z</time></trkpt><trkpt lat="44.198509044147514" lon="11.406190325147177"><ele>750.5</ele><time>2026-04-12T11:19:55Z</time></trkpt><trkpt lat="44.19852064537935" lon="11.406384191475452"><ele>749.0</ele><time>2026-04-12T11:19:56Z</time></trkpt><trkpt lat="44.198528995102" lon="11.406587647821345"><ele>747.5</ele><time>2026-04-12T11:19:57Z</time></trkpt><trkpt lat="44.19855384747518" lon="11.406799065846679"><ele>746.0</ele><time>2026-04-12T11:19:58Z</time></trkpt><trkpt lat="44.198574584745685" lon="11.407007359046714"><ele>744.25</ele><time>2026-04-12T11:19:59Z</time></trkpt><trkpt lat="44.198584710638535" lon="11.40721107692511"><ele>742.5</ele><time>2026-04-12T11:20:00Z</time></trkpt><trkpt lat="44.19858317446332" lon="11.407418504337292"><ele>740.75</ele><time>2026-04-12T11:20:01Z</time></trkpt><trkpt lat="44.19857184077139" lon="11.407619038969683"><ele>739.0</ele><time>2026-04-12T11:20:02Z</time></trkpt><trkpt lat="44.19855460565358" lon="11.40781309403442"><ele>737.0</ele><time>2026-04-12T11:20:03Z</time></trkpt><trkpt lat="44.198536069820804" lon="11.408006939614696"><ele>735.0</ele><time>2026-04-12T11:20:04Z</time></trkpt><trkpt lat="44.198520245575196" lon="11.408198090555343"><ele>733.0</ele><time>2026-04-12T11:20:05Z</time></trkpt><trkpt lat="44.19850344357687" lon="11.40839330573877"><ele>731.0</ele><time>2026-04-12T11:20:06Z</time></trkpt><trkpt lat="44.198485013072414" lon="11.408588107671914"><ele>731.0</ele><time>2026-04-12T11:20:07Z</time></trkpt><trkpt lat="44.198463967417574" lon="11.408791329482106"><ele>731.0</ele><time>2026-04-12T11:20:08Z</time></trkpt><trkpt lat="44.198441295263756" lon="11.409007060161404"><ele>731.0</ele><time>2026-04-12T11:20:09Z</time></trkpt><trkpt lat="44.19840719760286" lon="11.409218232929131"><ele>728.6666666666666</ele><time>2026-04-12T11:20:10Z</time></trkpt><trkpt lat="44.19836199148142" lon="11.409434215366282"><ele>726.3333333333334</ele><time>2026-04-12T11:20:11Z</time></trkpt><trkpt lat="44.19830915932642" lon="11.409653059420329"><ele>724.0</ele><time>2026-04-12T11:20:12Z</time></trkpt><trkpt lat="44.19825917257832" lon="11.40984878545572"><ele>722.3333333333334</ele><time>2026-04-12T11:20:13Z</time></trkpt><trkpt lat="44.19822115048491" lon="11.41005685869034"><ele>720.6666666666666</ele><time>2026-04-12T11:20:14Z</time></trkpt><trkpt lat="44.19821918111033" lon="11.410259765991366"><ele>719.0</ele><time>2026-04-12T11:20:15Z</time></trkpt><trkpt lat="44.19826127524977" lon="11.41046192411662"><ele>715.6666666666666</ele><time>2026-04-12T11:20:16Z</time></trkpt><trkpt lat="44.19833168279872" lon="11.410656554164168"><ele>712.3333333333334</ele><time>2026-04-12T11:20:17Z</time></trkpt><trkpt lat="44.19840046719484" lon="11.410869380975766"><ele>709.0</ele><time>2026-04-12T11:20:18Z</time></trkpt><trkpt lat="44.19846357094874" lon="11.411083532821266"><ele>709.0</ele><time>2026-04-12T11:20:19Z</time></trkpt><trkpt lat="44.19852487493881" lon="11.411294871134498"><ele>709.0</ele><time>2026-04-12T11:20:20Z</time></trkpt><trkpt lat="44.19858674868957" lon="11.411505176467303"><ele>709.0</ele><time>2026-04-12T11:20:21Z</time></trkpt><trkpt lat="44.19865931065484" lon="11.411711188680755"><ele>709.3333333333334</ele><time>2026-04-12T11:20:22Z</time></trkpt><trkpt lat="44.19874427837709" lon="11.411911558640845"><ele>709.6666666666666</ele><time>2026-04-12T11:20:23Z</time></trkpt><trkpt lat="44.19881946023355" lon="11.41210678959735"><ele>710.0</ele><time>2026-04-12T11:20:24Z</time></trkpt><trkpt lat="44.19887920740641" lon="11.412306037649172"><ele>712.6666666666666</ele><time>2026-04-12T11:20:25Z</time></trkpt><trkpt lat="44.198918208366685" lon="11.412522746776785"><ele>715.3333333333334</ele><time>2026-04-12T11:20:26Z</time></trkpt><trkpt lat="44.1989356895295" lon="11.412744600478428"><ele>718.0</ele><time>2026-04-12T11:20:27Z</time></trkpt><trkpt lat="44.198951586148446" lon="11.412943834687127"><ele>719.0</ele><time>2026-04-12T11:20:28Z</time></trkpt><trkpt lat="44.19898819341153" lon="11.413123718839232"><ele>720.0</ele><time>2026-04-12T11:20:29Z</time></trkpt><trkpt lat="44.19905101538804" lon="11.413298853399624"><ele>721.0</ele><time>2026-04-12T11:20:30Z</time></trkpt><trkpt lat="44.199135724875944" lon="11.413471182750852"><ele>722.0</ele><time>2026-04-12T11:20:31Z</time></trkpt><trkpt lat="44.19923772331484" lon="11.413648550633814"><ele>713.6666666666666</ele><time>2026-04-12T11:20:32Z</time></trkpt><trkpt lat="44.19934355310369" lon="11.413826099174738"><ele>705.3333333333334</ele><time>2026-04-12T11:20:33Z</time></trkpt><trkpt lat="44.199461234974535" lon="11.41398692417524"><ele>697.0</ele><time>2026-04-12T11:20:34Z</time></trkpt><trkpt lat="44.19959091127651" lon="11.414124411354974"><ele>697.0</ele><time>2026-04-12T11:20:35Z</time></trkpt><trkpt lat="44.199742054367704" lon="11.41424585159428"><ele>697.0</ele><time>2026-04-12T11:20:36Z</time></trkpt><trkpt lat="44.19987988145632" lon="11.41435482623658"><ele>697.0</ele><time>2026-04-12T11:20:37Z</time></trkpt><trkpt lat="44.200012196815244" lon="11.414453989972621"><ele>692.0</ele><time>2026-04-12T11:20:38Z</time></trkpt><trkpt lat="44.200153862506184" lon="11.414554757771867"><ele>687.0</ele><time>2026-04-12T11:20:39Z</time></trkpt><trkpt lat="44.200286401013734" lon="11.414654852220194"><ele>682.0</ele><time>2026-04-12T11:20:40Z</time></trkpt><trkpt lat="44.20041215531269" lon="11.414752446677658"><ele>682.0</ele><time>2026-04-12T11:20:41Z</time></trkpt><trkpt lat="44.20052874298458" lon="11.414841889885789"><ele>682.0</ele><time>2026-04-12T11:20:42Z</time></trkpt><trkpt lat="44.20064378602767" lon="11.414909593291721"><ele>682.0</ele><time>2026-04-12T11:20:43Z</time></trkpt><trkpt lat="44.20077636876902" lon="11.414929083624646"><ele>682.0</ele><time>2026-04-12T11:20:44Z</time></trkpt><trkpt lat="44.20092180717553" lon="11.414899703598527"><ele>679.0</ele><time>2026-04-12T11:20:45Z</time></trkpt><trkpt lat="44.201070987315596" lon="11.414821087987503"><ele>676.0</ele><time>2026-04-12T11:20:46Z</time></trkpt><trkpt lat="44.20121667211978" lon="11.414743359438212"><ele>673.0</ele><time>2026-04-12T11:20:47Z</time></trkpt><trkpt lat="44.20137961180292" lon="11.414698165664195"><ele>671.0</ele><time>2026-04-12T11:20:48Z</time></trkpt><trkpt lat="44.201547736339045" lon="11.41470109008759"><ele>669.0</ele><time>2026-04-12T11:20:49Z</time></trkpt><trkpt lat="44.2017274128703" lon="11.414740754398263"><ele>667.0</ele><time>2026-04-12T11:20:50Z</time></trkpt><trkpt lat="44.20191993315241" lon="11.414803509630644"><ele>667.0</ele><time>2026-04-12T11:20:51Z</time></trkpt><trkpt lat="44.2021100971058" lon="11.414880562845777"><ele>667.0</ele><time>2026-04-12T11:20:52Z</time></trkpt><trkpt lat="44.20228819033961" lon="11.414949008550973"><ele>667.0</ele><time>2026-04-12T11:20:53Z</time></trkpt><trkpt lat="44.202457214338175" lon="11.415014941348971"><ele>663.3333333333334</ele><time>2026-04-12T11:20:54Z</time></trkpt><trkpt lat="44.20262092856884" lon="11.415071128766382"><ele>659.6666666666666</ele><time>2026-04-12T11:20:55Z</time></trkpt><trkpt lat="44.20276780055135" lon="11.415123680799383"><ele>656.0</ele><time>2026-04-12T11:20:56Z</time></trkpt><trkpt lat="44.20289783944481" lon="11.415177823662773"><ele>656.0</ele><time>2026-04-12T11:20:57Z</time></trkpt><trkpt lat="44.20300635267068" lon="11.415251232096795"><ele>656.0</ele><time>2026-04-12T11:20:58Z</time></trkpt><trkpt lat="44.20311422127495" lon="11.415372453586402"><ele>656.0</ele><time>2026-04-12T11:20:59Z</time></trkpt><trkpt lat="44.203233190295705" lon="11.415500637765472"><ele>656.0</ele><time>2026-04-12T11:21:00Z</time></trkpt><trkpt lat="44.203362373261896" lon="11.415640534847542"><ele>655.3333333333333</ele><time>2026-04-12T11:21:01Z</time></trkpt><trkpt lat="44.203523369425675" lon="11.415743194292507"><ele>654.6666666666666</ele><time>2026-04-12T11:21:02Z</time></trkpt><trkpt lat="44.20368392148049" lon="11.415859281453134"><ele>654.0</ele><time>2026-04-12T11:21:03Z</time></trkpt><trkpt lat="44.20383283453743" lon="11.415978816786845"><ele>654.0</ele><time>2026-04-12T11:21:04Z</time></trkpt><trkpt lat="44.20397596824828" lon="11.416112867265532"><ele>654.0</ele><time>2026-04-12T11:21:05Z</time></trkpt><trkpt lat="44.20410988908206" lon="11.41624573842237"><ele>654.0</ele><time>2026-04-12T11:21:06Z</time></trkpt><trkpt lat="44.20424904337573" lon="11.41637364101478"><ele>652.0</ele><time>2026-04-12T11:21:07Z</time></trkpt><trkpt lat="44.204381359698104" lon="11.416503669866508"><ele>650.0</ele><time>2026-04-12T11:21:08Z</time></trkpt><trkpt lat="44.20451984965234" lon="11.416633728489776"><ele>648.0</ele><time>2026-04-12T11:21:09Z</time></trkpt><trkpt lat="44.20465404184389" lon="11.416777135180734"><ele>648.0</ele><time>2026-04-12T11:21:10Z</time></trkpt><trkpt lat="44.20478436668582" lon="11.416926457675222"><ele>648.0</ele><time>2026-04-12T11:21:11Z</time></trkpt><trkpt lat="44.204913661580854" lon="11.417083664638696"><ele>648.0</ele><time>2026-04-12T11:21:12Z</time></trkpt><trkpt lat="44.20503331774788" lon="11.417238652801238"><ele>642.6666666666666</ele><time>2026-04-12T11:21:13Z</time></trkpt><trkpt lat="44.20514610616397" lon="11.417394373324171"><ele>637.3333333333333</ele><time>2026-04-12T11:21:14Z</time></trkpt><trkpt lat="44.20527376398436" lon="11.417540709183113"><ele>632.0</ele><time>2026-04-12T11:21:15Z</time></trkpt><trkpt lat="44.20539907290401" lon="11.417677155947485"><ele>632.0</ele><time>2026-04-12T11:21:16Z</time></trkpt><trkpt lat="44.20552375704206" lon="11.417807881246558"><ele>632.0</ele><time>2026-04-12T11:21:17Z</time></trkpt><trkpt lat="44.20565496061012" lon="11.417939205015601"><ele>632.0</ele><time>2026-04-12T11:21:18Z</time></trkpt><trkpt lat="44.205798390518325" lon="11.418088951714783"><ele>628.3333333333333</ele><time>2026-04-12T11:21:19Z</time></trkpt><trkpt lat="44.2059478066111" lon="11.418250203090874"><ele>624.6666666666666</ele><time>2026-04-12T11:21:20Z</time></trkpt><trkpt lat="44.206086988757185" lon="11.41842853526012"><ele>621.0</ele><time>2026-04-12T11:21:21Z</time></trkpt><trkpt lat="44.20622512737894" lon="11.418618495906115"><ele>624.3333333333334</ele><time>2026-04-12T11:21:22Z</time></trkpt><trkpt lat="44.20636191862985" lon="11.418823668194495"><ele>627.6666666666667</ele><time>2026-04-12T11:21:23Z</time></trkpt><trkpt lat="44.206493132735275" lon="11.419028169903346"><ele>631.0</ele><time>2026-04-12T11:21:24Z</time></trkpt><trkpt lat="44.20662260545801" lon="11.419225261308052"><ele>628.3333333333334</ele><time>2026-04-12T11:21:25Z</time></trkpt><trkpt lat="44.20675052185779" lon="11.419414051295872"><ele>625.6666666666666</ele><time>2026-04-12T11:21:26Z</time></trkpt><trkpt lat="44.206874379960105" lon="11.419594050670723"><ele>623.0</ele><time>2026-04-12T11:21:27Z</time></trkpt><trkpt lat="44.20699245836771" lon="11.419761897261186"><ele>623.0</ele><time>2026-04-12T11:21:28Z</time></trkpt><trkpt lat="44.207104311417694" lon="11.419926996113242"><ele>623.0</ele><time>2026-04-12T11:21:29Z</time></trkpt><trkpt lat="44.20721043936483" lon="11.420091919187431"><ele>623.0</ele><time>2026-04-12T11:21:30Z</time></trkpt><trkpt lat="44.207309433116286" lon="11.420259273472107"><ele>613.5</ele><time>2026-04-12T11:21:31Z</time></trkpt><trkpt lat="44.207398010739645" lon="11.420418572096327"><ele>604.0</ele><time>2026-04-12T11:21:32Z</time></trkpt><trkpt lat="44.207461028899786" lon="11.420561512772286"><ele>594.5</ele><time>2026-04-12T11:21:33Z</time></trkpt><trkpt lat="44.20752379241571" lon="11.420706585050636"><ele>585.0</ele><time>2026-04-12T11:21:34Z</time></trkpt><trkpt lat="44.20757584303696" lon="11.420851041006463"><ele>585.0</ele><time>2026-04-12T11:21:35Z</time></trkpt><trkpt lat="44.207610377386416" lon="11.421006590634079"><ele>585.0</ele><time>2026-04-12T11:21:36Z</time></trkpt><trkpt lat="44.20761423620515" lon="11.421180839390415"><ele>585.0</ele><time>2026-04-12T11:21:37Z</time></trkpt><trkpt lat="44.20759748881285" lon="11.421344925766816"><ele>585.0</ele><time>2026-04-12T11:21:38Z</time></trkpt><trkpt lat="44.20762898501167" lon="11.421501237016427"><ele>586.0</ele><time>2026-04-12T11:21:39Z</time></trkpt><trkpt lat="44.20769936864338" lon="11.421648056881745"><ele>587.0</ele><time>2026-04-12T11:21:40Z</time></trkpt><trkpt lat="44.207798304020734" lon="11.421765690420571"><ele>588.0</ele><time>2026-04-12T11:21:41Z</time></trkpt><trkpt lat="44.20789796970607" lon="11.421871308603354"><ele>589.0</ele><time>2026-04-12T11:21:42Z</time></trkpt><trkpt lat="44.20799401752779" lon="11.421994571826186"><ele>592.5</ele><time>2026-04-12T11:21:43Z</time></trkpt><trkpt lat="44.208077718185784" lon="11.42215114053801"><ele>596.0</ele><time>2026-04-12T11:21:44Z</time></trkpt><trkpt lat="44.208145169104824" lon="11.422343738188442"><ele>599.5</ele><time>2026-04-12T11:21:45Z</time></trkpt><trkpt lat="44.208201759822444" lon="11.422543087525426"><ele>603.0</ele><time>2026-04-12T11:21:46Z</time></trkpt><trkpt lat="44.208256624978105" lon="11.42272569735856"><ele>596.25</ele><time>2026-04-12T11:21:47Z</time></trkpt><trkpt lat="44.20831477882969" lon="11.422907215179773"><ele>589.5</ele><time>2026-04-12T11:21:48Z</time></trkpt><trkpt lat="44.20837183166428" lon="11.423082462087153"><ele>582.75</ele><time>2026-04-12T11:21:49Z</time></trkpt><trkpt lat="44.20842804794937" lon="11.42325435391826"><ele>576.0</ele><time>2026-04-12T11:21:50Z</time></trkpt><trkpt lat="44.208469520093814" lon="11.423419150315114"><ele>576.0</ele><time>2026-04-12T11:21:51Z</time></trkpt><trkpt lat="44.20850605707377" lon="11.423584959027227"><ele>576.0</ele><time>2026-04-12T11:21:52Z</time></trkpt><trkpt lat="44.20851869550635" lon="11.423754078066596"><ele>576.0</ele><time>2026-04-12T11:21:53Z</time></trkpt><trkpt lat="44.20849651529338" lon="11.423907656572815"><ele>576.0</ele><time>2026-04-12T11:21:54Z</time></trkpt><trkpt lat="44.20846699881643" lon="11.42402195953909"><ele>576.0</ele><time>2026-04-12T11:21:55Z</time></trkpt><trkpt lat="44.20846021581766" lon="11.424124627861731"><ele>576.0</ele><time>2026-04-12T11:21:56Z</time></trkpt><trkpt lat="44.208384691198724" lon="11.424292532497528"><ele>576.0</ele><time>2026-04-12T11:21:57Z</time></trkpt><trkpt lat="44.20859301204202" lon="11.424274627290128"><ele>576.0</ele><time>2026-04-12T11:21:58Z</time></trkpt><trkpt lat="44.208702427631295" lon="11.424296225172347"><ele>576.0</ele><time>2026-04-12T11:21:59Z</time></trkpt><trkpt lat="44.20880475469219" lon="11.424324231134392"><ele>576.0</ele><time>2026-04-12T11:22:00Z</time></trkpt><trkpt lat="44.208880095585684" lon="11.424393014622158"><ele>576.0</ele><time>2026-04-12T11:22:01Z</time></trkpt><trkpt lat="44.20894248313774" lon="11.424491148045869"><ele>576.0</ele><time>2026-04-12T11:22:02Z</time></trkpt><trkpt lat="44.20900757998738" lon="11.42463262704412"><ele>576.0</ele><time>2026-04-12T11:22:03Z</time></trkpt><trkpt lat="44.20906778572031" lon="11.424777134329519"><ele>572.5</ele><time>2026-04-12T11:22:04Z</time></trkpt><trkpt lat="44.20914844153044" lon="11.424923257873393"><ele>569.0</ele><time>2026-04-12T11:22:05Z</time></trkpt><trkpt lat="44.209247627749434" lon="11.425060199524554"><ele>565.5</ele><time>2026-04-12T11:22:06Z</time></trkpt><trkpt lat="44.20937957404913" lon="11.425183201210753"><ele>562.0</ele><time>2026-04-12T11:22:07Z</time></trkpt><trkpt lat="44.2095078036913" lon="11.425316892695955"><ele>562.0</ele><time>2026-04-12T11:22:08Z</time></trkpt><trkpt lat="44.20961094199157" lon="11.425469415732355"><ele>562.0</ele><time>2026-04-12T11:22:09Z</time></trkpt><trkpt lat="44.209719103617005" lon="11.42561406187776"><ele>562.0</ele><time>2026-04-12T11:22:10Z</time></trkpt><trkpt lat="44.209856089451165" lon="11.425701427447532"><ele>563.75</ele><time>2026-04-12T11:22:11Z</time></trkpt><trkpt lat="44.21000953171227" lon="11.42574459889846"><ele>565.5</ele><time>2026-04-12T11:22:12Z</time></trkpt><trkpt lat="44.210142841759875" lon="11.42581014369447"><ele>567.25</ele><time>2026-04-12T11:22:13Z</time></trkpt><trkpt lat="44.21026070820919" lon="11.4259408503418"><ele>569.0</ele><time>2026-04-12T11:22:14Z</time></trkpt><trkpt lat="44.21037293140913" lon="11.426116690514853"><ele>578.6666666666666</ele><time>2026-04-12T11:22:15Z</time></trkpt><trkpt lat="44.210455632066775" lon="11.426325144837877"><ele>588.3333333333334</ele><time>2026-04-12T11:22:16Z</time></trkpt><trkpt lat="44.21054614218951" lon="11.426496645279965"><ele>598.0</ele><time>2026-04-12T11:22:17Z</time></trkpt><trkpt lat="44.210649970867806" lon="11.426663632426417"><ele>594.6666666666667</ele><time>2026-04-12T11:22:18Z</time></trkpt><trkpt lat="44.210751768687814" lon="11.426842434489537"><ele>591.3333333333334</ele><time>2026-04-12T11:22:19Z</time></trkpt><trkpt lat="44.21085580807519" lon="11.427028437749117"><ele>588.0</ele><time>2026-04-12T11:22:20Z</time></trkpt><trkpt lat="44.21095478484157" lon="11.427226380994357"><ele>588.0</ele><time>2026-04-12T11:22:21Z</time></trkpt><trkpt lat="44.211055955200095" lon="11.427431679667306"><ele>588.0</ele><time>2026-04-12T11:22:22Z</time></trkpt><trkpt lat="44.21115966983892" lon="11.427639470366993"><ele>588.0</ele><time>2026-04-12T11:22:23Z</time></trkpt><trkpt lat="44.211263393516774" lon="11.427821011448136"><ele>591.75</ele><time>2026-04-12T11:22:24Z</time></trkpt><trkpt lat="44.211356572762256" lon="11.427993160571699"><ele>595.5</ele><time>2026-04-12T11:22:25Z</time></trkpt><trkpt lat="44.21145608131298" lon="11.42814714552355"><ele>599.25</ele><time>2026-04-12T11:22:26Z</time></trkpt><trkpt lat="44.211529494121145" lon="11.428256773045955"><ele>603.0</ele><time>2026-04-12T11:22:27Z</time></trkpt><trkpt lat="44.21160982831009" lon="11.428362696812188"><ele>599.0</ele><time>2026-04-12T11:22:28Z</time></trkpt><trkpt lat="44.21167981854847" lon="11.428472978718167"><ele>595.0</ele><time>2026-04-12T11:22:29Z</time></trkpt><trkpt lat="44.211749590884985" lon="11.428585801961754"><ele>591.0</ele><time>2026-04-12T11:22:30Z</time></trkpt><trkpt lat="44.21180698913291" lon="11.428691153025998"><ele>587.0</ele><time>2026-04-12T11:22:31Z</time></trkpt><trkpt lat="44.2118706029385" lon="11.42878789355101"><ele>583.0</ele><time>2026-04-12T11:22:32Z</time></trkpt><trkpt lat="44.211942226526084" lon="11.428877328339423"><ele>583.0</ele><time>2026-04-12T11:22:33Z</time></trkpt><trkpt lat="44.212021704013566" lon="11.428946905302254"><ele>583.0</ele><time>2026-04-12T11:22:34Z</time></trkpt><trkpt lat="44.21209943409927" lon="11.429027316834382"><ele>583.0</ele><time>2026-04-12T11:22:35Z</time></trkpt><trkpt lat="44.212181026016644" lon="11.429116137621582"><ele>583.0</ele><time>2026-04-12T11:22:36Z</time></trkpt><trkpt lat="44.212250421994696" lon="11.429211381365342"><ele>583.0</ele><time>2026-04-12T11:22:37Z</time></trkpt><trkpt lat="44.212310704040824" lon="11.429330966382963"><ele>579.8</ele><time>2026-04-12T11:22:38Z</time></trkpt><trkpt lat="44.21237554831557" lon="11.429435371815755"><ele>576.5999999999999</ele><time>2026-04-12T11:22:39Z</time></trkpt><trkpt lat="44.21244435824566" lon="11.429539088468463"><ele>573.4000000000001</ele><time>2026-04-12T11:22:40Z</time></trkpt><trkpt lat="44.212528732425405" lon="11.429636300785678"><ele>570.2</ele><time>2026-04-12T11:22:41Z</time></trkpt><trkpt lat="44.2126119228625" lon="11.429728031259138"><ele>567.0</ele><time>2026-04-12T11:22:42Z</time></trkpt><trkpt lat="44.212701695522895" lon="11.429810222667474"><ele>567.0</ele><time>2026-04-12T11:22:43Z</time></trkpt><trkpt lat="44.21278981445207" lon="11.429896077457188"><ele>567.0</ele><time>2026-04-12T11:22:44Z</time></trkpt><trkpt lat="44.21288549129374" lon="11.429969839933431"><ele>567.0</ele><time>2026-04-12T11:22:45Z</time></trkpt><trkpt lat="44.212965622668285" lon="11.430045437190824"><ele>567.0</ele><time>2026-04-12T11:22:46Z</time></trkpt><trkpt lat="44.21304186145205" lon="11.430125132582324"><ele>567.0</ele><time>2026-04-12T11:22:47Z</time></trkpt><trkpt lat="44.21311269124906" lon="11.430213076129773"><ele>563.3333333333334</ele><time>2026-04-12T11:22:48Z</time></trkpt><trkpt lat="44.2131704595181" lon="11.430318354485573"><ele>559.6666666666666</ele><time>2026-04-12T11:22:49Z</time></trkpt><trkpt lat="44.21322169802771" lon="11.430423994940718"><ele>556.0</ele><time>2026-04-12T11:22:50Z</time></trkpt><trkpt lat="44.21328732336392" lon="11.430506045344517"><ele>552.3333333333333</ele><time>2026-04-12T11:22:51Z</time></trkpt><trkpt lat="44.213346524181034" lon="11.430583073934764"><ele>548.6666666666666</ele><time>2026-04-12T11:22:52Z</time></trkpt><trkpt lat="44.21343057021033" lon="11.43063719838095"><ele>545.0</ele><time>2026-04-12T11:22:53Z</time></trkpt><trkpt lat="44.21350030048451" lon="11.430699319322828"><ele>545.0</ele><time>2026-04-12T11:22:54Z</time></trkpt><trkpt lat="44.21356049502801" lon="11.430761876440922"><ele>545.0</ele><time>2026-04-12T11:22:55Z</time></trkpt><trkpt lat="44.213639961496305" lon="11.430898032139769"><ele>545.0</ele><time>2026-04-12T11:22:57Z</time></trkpt><trkpt lat="44.21366227789196" lon="11.430988786832165"><ele>545.0</ele><time>2026-04-12T11:22:58Z</time></trkpt><trkpt lat="44.213675135951426" lon="11.431075445260753"><ele>545.0</ele><time>2026-04-12T11:22:59Z</time></trkpt><trkpt lat="44.2136862694872" lon="11.431178037491641"><ele>545.0</ele><time>2026-04-12T11:23:00Z</time></trkpt><trkpt lat="44.21370331603102" lon="11.431277084456411"><ele>545.6666666666666</ele><time>2026-04-12T11:23:01Z</time></trkpt><trkpt lat="44.21372397225816" lon="11.431379158743802"><ele>546.3333333333333</ele><time>2026-04-12T11:23:02Z</time></trkpt><trkpt lat="44.21377910427462" lon="11.431469015466915"><ele>547.0</ele><time>2026-04-12T11:23:03Z</time></trkpt><trkpt lat="44.213841705255824" lon="11.431550430669532"><ele>547.6666666666666</ele><time>2026-04-12T11:23:04Z</time></trkpt><trkpt lat="44.21388907495892" lon="11.431643245535618"><ele>548.3333333333334</ele><time>2026-04-12T11:23:05Z</time></trkpt><trkpt lat="44.213921445780585" lon="11.431758033710715"><ele>549.0</ele><time>2026-04-12T11:23:06Z</time></trkpt><trkpt lat="44.21393249232871" lon="11.431872341953722"><ele>549.0</ele><time>2026-04-12T11:23:07Z</time></trkpt><trkpt lat="44.21393681998673" lon="11.431987620258779"><ele>549.0</ele><time>2026-04-12T11:23:08Z</time></trkpt><trkpt lat="44.213943908505804" lon="11.432105631568529"><ele>549.0</ele><time>2026-04-12T11:23:09Z</time></trkpt><trkpt lat="44.21395427791008" lon="11.432200234512099"><ele>549.0</ele><time>2026-04-12T11:23:10Z</time></trkpt><trkpt lat="44.21396837369036" lon="11.432292603756618"><ele>549.0</ele><time>2026-04-12T11:23:11Z</time></trkpt><trkpt lat="44.21397960835618" lon="11.432388234425291"><ele>549.0</ele><time>2026-04-12T11:23:12Z</time></trkpt><trkpt lat="44.213967653545744" lon="11.432478914628138"><ele>549.0</ele><time>2026-04-12T11:23:13Z</time></trkpt><trkpt lat="44.2139078746075" lon="11.43255964984037"><ele>547.3333333333334</ele><time>2026-04-12T11:23:14Z</time></trkpt><trkpt lat="44.2138341194464" lon="11.43262584905845"><ele>545.6666666666666</ele><time>2026-04-12T11:23:15Z</time></trkpt><trkpt lat="44.21375785040406" lon="11.432637651019517"><ele>544.0</ele><time>2026-04-12T11:23:16Z</time></trkpt><trkpt lat="44.21368010667838" lon="11.432608533918442"><ele>542.3333333333333</ele><time>2026-04-12T11:23:17Z</time></trkpt><trkpt lat="44.213611388961574" lon="11.432575699370934"><ele>540.6666666666666</ele><time>2026-04-12T11:23:18Z</time></trkpt><trkpt lat="44.21353321181401" lon="11.43255454647982"><ele>539.0</ele><time>2026-04-12T11:23:19Z</time></trkpt><trkpt lat="44.213456994512875" lon="11.432538258195784"><ele>539.0</ele><time>2026-04-12T11:23:20Z</time></trkpt><trkpt lat="44.21338382117673" lon="11.432561882368585"><ele>539.0</ele><time>2026-04-12T11:23:21Z</time></trkpt><trkpt lat="44.21334485613538" lon="11.432733004995097"><ele>539.0</ele><time>2026-04-12T11:23:23Z</time></trkpt><trkpt lat="44.21339341030762" lon="11.43283765183798"><ele>539.0</ele><time>2026-04-12T11:23:24Z</time></trkpt><trkpt lat="44.21347621277869" lon="11.432908115499787"><ele>539.0</ele><time>2026-04-12T11:23:25Z</time></trkpt><trkpt lat="44.21359378462829" lon="11.432956789776355"><ele>538.75</ele><time>2026-04-12T11:23:26Z</time></trkpt><trkpt lat="44.213706879953655" lon="11.433005065143496"><ele>538.5</ele><time>2026-04-12T11:23:27Z</time></trkpt><trkpt lat="44.21381294679306" lon="11.433058101109651"><ele>538.25</ele><time>2026-04-12T11:23:28Z</time></trkpt><trkpt lat="44.21392478510818" lon="11.433131387018179"><ele>538.0</ele><time>2026-04-12T11:23:29Z</time></trkpt><trkpt lat="44.21402097614563" lon="11.433203799301214"><ele>531.6</ele><time>2026-04-12T11:23:30Z</time></trkpt><trkpt lat="44.214105578178" lon="11.433296280178519"><ele>525.1999999999999</ele><time>2026-04-12T11:23:31Z</time></trkpt><trkpt lat="44.21417463649729" lon="11.433397613672732"><ele>518.8</ele><time>2026-04-12T11:23:32Z</time></trkpt><trkpt lat="44.2142497123559" lon="11.433507858957919"><ele>512.4</ele><time>2026-04-12T11:23:33Z</time></trkpt><trkpt lat="44.214333588320244" lon="11.433621589114605"><ele>506.0</ele><time>2026-04-12T11:23:34Z</time></trkpt><trkpt lat="44.214416537605764" lon="11.433736420517043"><ele>507.4</ele><time>2026-04-12T11:23:35Z</time></trkpt><trkpt lat="44.2144871022507" lon="11.433844464331804"><ele>508.8</ele><time>2026-04-12T11:23:36Z</time></trkpt><trkpt lat="44.21453108522393" lon="11.433944914353718"><ele>510.19999999999993</ele><time>2026-04-12T11:23:37Z</time></trkpt><trkpt lat="44.21454982119101" lon="11.434068614213896"><ele>511.59999999999997</ele><time>2026-04-12T11:23:38Z</time></trkpt><trkpt lat="44.21455316215953" lon="11.434200542214871"><ele>513.0</ele><time>2026-04-12T11:23:39Z</time></trkpt><trkpt lat="44.21454093718695" lon="11.434351677808507"><ele>513.0</ele><time>2026-04-12T11:23:40Z</time></trkpt><trkpt lat="44.21455651429082" lon="11.43450594397095"><ele>513.0</ele><time>2026-04-12T11:23:41Z</time></trkpt><trkpt lat="44.21456739295936" lon="11.434643581809988"><ele>513.0</ele><time>2026-04-12T11:23:42Z</time></trkpt><trkpt lat="44.21456734884263" lon="11.434757969731185"><ele>513.0</ele><time>2026-04-12T11:23:43Z</time></trkpt><trkpt lat="44.214544049315414" lon="11.43485977386226"><ele>513.0</ele><time>2026-04-12T11:23:44Z</time></trkpt><trkpt lat="44.21448151716621" lon="11.434943424307354"><ele>513.0</ele><time>2026-04-12T11:23:45Z</time></trkpt><trkpt lat="44.21440559650671" lon="11.435030137515747"><ele>513.0</ele><time>2026-04-12T11:23:46Z</time></trkpt><trkpt lat="44.2143509443458" lon="11.435164622428056"><ele>513.0</ele><time>2026-04-12T11:23:47Z</time></trkpt><trkpt lat="44.21434542617171" lon="11.43533874192185"><ele>513.0</ele><time>2026-04-12T11:23:48Z</time></trkpt><trkpt lat="44.21438542613002" lon="11.435513703977156"><ele>512.75</ele><time>2026-04-12T11:23:49Z</time></trkpt><trkpt lat="44.21444088337362" lon="11.435688300345022"><ele>512.5</ele><time>2026-04-12T11:23:50Z</time></trkpt><trkpt lat="44.214466784841655" lon="11.43587947617973"><ele>512.25</ele><time>2026-04-12T11:23:51Z</time></trkpt><trkpt lat="44.21445989248317" lon="11.436096149265758"><ele>512.0</ele><time>2026-04-12T11:23:52Z</time></trkpt><trkpt lat="44.21446794286812" lon="11.436320433156919"><ele>512.0</ele><time>2026-04-12T11:23:53Z</time></trkpt><trkpt lat="44.21446936701008" lon="11.436533177591825"><ele>512.0</ele><time>2026-04-12T11:23:54Z</time></trkpt><trkpt lat="44.214466481170085" lon="11.436753879119378"><ele>512.0</ele><time>2026-04-12T11:23:55Z</time></trkpt><trkpt lat="44.21447124155427" lon="11.43697812732375"><ele>515.0</ele><time>2026-04-12T11:23:56Z</time></trkpt><trkpt lat="44.21450858583438" lon="11.437193972073832"><ele>518.0</ele><time>2026-04-12T11:23:57Z</time></trkpt><trkpt lat="44.214581998653365" lon="11.437402830132601"><ele>521.0</ele><time>2026-04-12T11:23:58Z</time></trkpt><trkpt lat="44.214671808977585" lon="11.437582857728394"><ele>521.0</ele><time>2026-04-12T11:23:59Z</time></trkpt><trkpt lat="44.21474151042994" lon="11.437760205102165"><ele>521.0</ele><time>2026-04-12T11:24:00Z</time></trkpt><trkpt lat="44.21477977158173" lon="11.437971849921416"><ele>521.0</ele><time>2026-04-12T11:24:01Z</time></trkpt><trkpt lat="44.21477845972482" lon="11.438191403316782"><ele>522.3333333333333</ele><time>2026-04-12T11:24:02Z</time></trkpt><trkpt lat="44.2147461439184" lon="11.438415889515507"><ele>523.6666666666666</ele><time>2026-04-12T11:24:03Z</time></trkpt><trkpt lat="44.2147289799304" lon="11.438644472402915"><ele>525.0</ele><time>2026-04-12T11:24:04Z</time></trkpt><trkpt lat="44.21476328440976" lon="11.438852528953797"><ele>518.0</ele><time>2026-04-12T11:24:05Z</time></trkpt><trkpt lat="44.21483331454429" lon="11.439035416985133"><ele>511.0</ele><time>2026-04-12T11:24:06Z</time></trkpt><trkpt lat="44.21491101258203" lon="11.439203004646117"><ele>504.0</ele><time>2026-04-12T11:24:07Z</time></trkpt><trkpt lat="44.21495201920385" lon="11.439377992310837"><ele>497.0</ele><time>2026-04-12T11:24:08Z</time></trkpt><trkpt lat="44.214953146528075" lon="11.439582602599055"><ele>497.0</ele><time>2026-04-12T11:24:09Z</time></trkpt><trkpt lat="44.21494629473037" lon="11.43979407819354"><ele>497.0</ele><time>2026-04-12T11:24:10Z</time></trkpt><trkpt lat="44.214941680915686" lon="11.44000035351384"><ele>497.0</ele><time>2026-04-12T11:24:11Z</time></trkpt><trkpt lat="44.21493615529158" lon="11.44020454988169"><ele>497.0</ele><time>2026-04-12T11:24:12Z</time></trkpt><trkpt lat="44.214931316048016" lon="11.440409225146254"><ele>496.0</ele><time>2026-04-12T11:24:13Z</time></trkpt><trkpt lat="44.214893015497104" lon="11.440602560853975"><ele>495.0</ele><time>2026-04-12T11:24:14Z</time></trkpt><trkpt lat="44.21482133484372" lon="11.440786225597734"><ele>494.0</ele><time>2026-04-12T11:24:15Z</time></trkpt><trkpt lat="44.214736375859914" lon="11.440971809395736"><ele>499.5</ele><time>2026-04-12T11:24:16Z</time></trkpt><trkpt lat="44.21467972021153" lon="11.441158567605576"><ele>505.0</ele><time>2026-04-12T11:24:17Z</time></trkpt><trkpt lat="44.2146632720393" lon="11.44134581356516"><ele>510.5</ele><time>2026-04-12T11:24:18Z</time></trkpt><trkpt lat="44.21468327425755" lon="11.441546891688755"><ele>516.0</ele><time>2026-04-12T11:24:19Z</time></trkpt><trkpt lat="44.214722758635304" lon="11.4417542252927"><ele>516.6666666666666</ele><time>2026-04-12T11:24:20Z</time></trkpt><trkpt lat="44.214769818286335" lon="11.441951789760425"><ele>517.3333333333333</ele><time>2026-04-12T11:24:21Z</time></trkpt><trkpt lat="44.21481148133061" lon="11.442152608134503"><ele>518.0</ele><time>2026-04-12T11:24:22Z</time></trkpt><trkpt lat="44.21484806224345" lon="11.44235851488693"><ele>514.6666666666666</ele><time>2026-04-12T11:24:23Z</time></trkpt><trkpt lat="44.21488902108056" lon="11.442565014081318"><ele>511.33333333333337</ele><time>2026-04-12T11:24:24Z</time></trkpt><trkpt lat="44.2149322636763" lon="11.442777135214476"><ele>508.0</ele><time>2026-04-12T11:24:25Z</time></trkpt><trkpt lat="44.21498280626908" lon="11.442994705622647"><ele>508.0</ele><time>2026-04-12T11:24:26Z</time></trkpt><trkpt lat="44.21506175622794" lon="11.443195957677204"><ele>508.0</ele><time>2026-04-12T11:24:27Z</time></trkpt><trkpt lat="44.21515553475473" lon="11.443360651649733"><ele>508.0</ele><time>2026-04-12T11:24:28Z</time></trkpt><trkpt lat="44.21525198374482" lon="11.443489206478686"><ele>508.0</ele><time>2026-04-12T11:24:29Z</time></trkpt><trkpt lat="44.21535258362676" lon="11.443619013844215"><ele>508.0</ele><time>2026-04-12T11:24:30Z</time></trkpt><trkpt lat="44.21544814037187" lon="11.443757021364785"><ele>508.0</ele><time>2026-04-12T11:24:31Z</time></trkpt><trkpt lat="44.2155389554992" lon="11.443902177361968"><ele>508.0</ele><time>2026-04-12T11:24:32Z</time></trkpt><trkpt lat="44.2156149010486" lon="11.444044423216798"><ele>508.0</ele><time>2026-04-12T11:24:33Z</time></trkpt><trkpt lat="44.21566039851167" lon="11.444187016181337"><ele>510.5</ele><time>2026-04-12T11:24:34Z</time></trkpt><trkpt lat="44.21567508430557" lon="11.444341081027833"><ele>513.0</ele><time>2026-04-12T11:24:35Z</time></trkpt><trkpt lat="44.21565021474878" lon="11.444504887555228"><ele>515.5</ele><time>2026-04-12T11:24:36Z</time></trkpt><trkpt lat="44.215589583277705" lon="11.444663197752108"><ele>518.0</ele><time>2026-04-12T11:24:37Z</time></trkpt><trkpt lat="44.2155002106459" lon="11.444802408802481"><ele>518.25</ele><time>2026-04-12T11:24:38Z</time></trkpt><trkpt lat="44.21541988369263" lon="11.444918222388718"><ele>518.5</ele><time>2026-04-12T11:24:39Z</time></trkpt><trkpt lat="44.21537504526859" lon="11.445082185334888"><ele>518.75</ele><time>2026-04-12T11:24:40Z</time></trkpt><trkpt lat="44.21538253382969" lon="11.445266285217063"><ele>519.0</ele><time>2026-04-12T11:24:41Z</time></trkpt><trkpt lat="44.215426190529996" lon="11.445454823179345"><ele>519.25</ele><time>2026-04-12T11:24:42Z</time></trkpt><trkpt lat="44.21547659657293" lon="11.445640204894628"><ele>519.5</ele><time>2026-04-12T11:24:43Z</time></trkpt><trkpt lat="44.215522537420696" lon="11.44582398416657"><ele>519.75</ele><time>2026-04-12T11:24:44Z</time></trkpt><trkpt lat="44.21554944009945" lon="11.446018475488847"><ele>520.0</ele><time>2026-04-12T11:24:45Z</time></trkpt><trkpt lat="44.21559085245156" lon="11.44620803770723"><ele>520.75</ele><time>2026-04-12T11:24:46Z</time></trkpt><trkpt lat="44.215627326132555" lon="11.44640577730548"><ele>521.5</ele><time>2026-04-12T11:24:47Z</time></trkpt><trkpt lat="44.2156677498866" lon="11.446605404762902"><ele>522.25</ele><time>2026-04-12T11:24:48Z</time></trkpt><trkpt lat="44.21573798452723" lon="11.446788409330926"><ele>523.0</ele><time>2026-04-12T11:24:49Z</time></trkpt><trkpt lat="44.21585047013371" lon="11.446945060265303"><ele>520.6666666666667</ele><time>2026-04-12T11:24:50Z</time></trkpt><trkpt lat="44.215960050808505" lon="11.447099594832636"><ele>518.3333333333334</ele><time>2026-04-12T11:24:51Z</time></trkpt><trkpt lat="44.21607615882428" lon="11.447243498304708"><ele>516.0</ele><time>2026-04-12T11:24:52Z</time></trkpt><trkpt lat="44.216191468026345" lon="11.447399077050354"><ele>516.0</ele><time>2026-04-12T11:24:53Z</time></trkpt><trkpt lat="44.21630434927505" lon="11.447550915555208"><ele>516.0</ele><time>2026-04-12T11:24:54Z</time></trkpt><trkpt lat="44.21642319853667" lon="11.447689422235973"><ele>516.0</ele><time>2026-04-12T11:24:55Z</time></trkpt><trkpt lat="44.21656268755602" lon="11.447797443052272"><ele>511.33333333333337</ele><time>2026-04-12T11:24:56Z</time></trkpt><trkpt lat="44.21672356286527" lon="11.447867865010075"><ele>506.6666666666667</ele><time>2026-04-12T11:24:57Z</time></trkpt><trkpt lat="44.2169015287018" lon="11.447910175251724"><ele>502.0</ele><time>2026-04-12T11:24:58Z</time></trkpt><trkpt lat="44.21707767314436" lon="11.447942597718905"><ele>504.0</ele><time>2026-04-12T11:24:59Z</time></trkpt><trkpt lat="44.217242380880684" lon="11.447979288741289"><ele>506.0</ele><time>2026-04-12T11:25:00Z</time></trkpt><trkpt lat="44.21739831196534" lon="11.448031663675858"><ele>508.0</ele><time>2026-04-12T11:25:01Z</time></trkpt><trkpt lat="44.21756334606309" lon="11.44810262914952"><ele>508.0</ele><time>2026-04-12T11:25:02Z</time></trkpt><trkpt lat="44.21773137487037" lon="11.44818236281609"><ele>508.0</ele><time>2026-04-12T11:25:03Z</time></trkpt><trkpt lat="44.21789340546069" lon="11.448264933341086"><ele>508.0</ele><time>2026-04-12T11:25:04Z</time></trkpt><trkpt lat="44.218061990963584" lon="11.448344644710653"><ele>504.0</ele><time>2026-04-12T11:25:05Z</time></trkpt><trkpt lat="44.21823202146712" lon="11.448425238023267"><ele>500.0</ele><time>2026-04-12T11:25:06Z</time></trkpt><trkpt lat="44.21839359926089" lon="11.448501105316904"><ele>496.0</ele><time>2026-04-12T11:25:07Z</time></trkpt><trkpt lat="44.21854364225001" lon="11.448571993214633"><ele>496.0</ele><time>2026-04-12T11:25:08Z</time></trkpt><trkpt lat="44.21868210593328" lon="11.448645636240313"><ele>496.0</ele><time>2026-04-12T11:25:09Z</time></trkpt><trkpt lat="44.21881258827783" lon="11.44872445465945"><ele>496.0</ele><time>2026-04-12T11:25:10Z</time></trkpt><trkpt lat="44.21892635969515" lon="11.44881811656778"><ele>496.0</ele><time>2026-04-12T11:25:11Z</time></trkpt><trkpt lat="44.219025474314286" lon="11.448932709447364"><ele>496.0</ele><time>2026-04-12T11:25:12Z</time></trkpt><trkpt lat="44.21911961911232" lon="11.449066603146361"><ele>496.0</ele><time>2026-04-12T11:25:13Z</time></trkpt><trkpt lat="44.219210287157566" lon="11.449207574586248"><ele>496.0</ele><time>2026-04-12T11:25:14Z</time></trkpt><trkpt lat="44.219300352213224" lon="11.449345361872227"><ele>496.0</ele><time>2026-04-12T11:25:15Z</time></trkpt><trkpt lat="44.21938572996353" lon="11.449489858269727"><ele>498.75</ele><time>2026-04-12T11:25:16Z</time></trkpt><trkpt lat="44.21946437710394" lon="11.449640780646936"><ele>501.5</ele><time>2026-04-12T11:25:17Z</time></trkpt><trkpt lat="44.21952796084525" lon="11.44980138205149"><ele>504.25</ele><time>2026-04-12T11:25:18Z</time></trkpt><trkpt lat="44.21956962692568" lon="11.449960504421982"><ele>507.0</ele><time>2026-04-12T11:25:19Z</time></trkpt><trkpt lat="44.219606813159416" lon="11.450120868366742"><ele>507.0</ele><time>2026-04-12T11:25:20Z</time></trkpt><trkpt lat="44.21963143702565" lon="11.450285182453369"><ele>507.00000000000006</ele><time>2026-04-12T11:25:21Z</time></trkpt><trkpt lat="44.21964689616262" lon="11.450434947673921"><ele>507.00000000000006</ele><time>2026-04-12T11:25:22Z</time></trkpt><trkpt lat="44.21967352370384" lon="11.450566191912015"><ele>507.0</ele><time>2026-04-12T11:25:23Z</time></trkpt><trkpt lat="44.219708860592746" lon="11.450680349027857"><ele>507.0</ele><time>2026-04-12T11:25:24Z</time></trkpt><trkpt lat="44.21975859844148" lon="11.45077115603219"><ele>506.3333333333333</ele><time>2026-04-12T11:25:25Z</time></trkpt><trkpt lat="44.21982594194639" lon="11.450844852874264"><ele>505.66666666666663</ele><time>2026-04-12T11:25:26Z</time></trkpt><trkpt lat="44.219894000531085" lon="11.450897747787169"><ele>505.0</ele><time>2026-04-12T11:25:27Z</time></trkpt><trkpt lat="44.21996754667611" lon="11.450933153298662"><ele>504.3333333333333</ele><time>2026-04-12T11:25:28Z</time></trkpt><trkpt lat="44.220039697438466" lon="11.450959251441882"><ele>503.66666666666663</ele><time>2026-04-12T11:25:29Z</time></trkpt><trkpt lat="44.22011118378576" lon="11.450952290914339"><ele>503.0</ele><time>2026-04-12T11:25:30Z</time></trkpt><trkpt lat="44.22021399161204" lon="11.450984010756043"><ele>502.99999999999994</ele><time>2026-04-12T11:25:32Z</time></trkpt><trkpt lat="44.22027803359499" lon="11.451033336878675"><ele>503.0</ele><time>2026-04-12T11:25:33Z</time></trkpt><trkpt lat="44.22034840011746" lon="11.451093477897208"><ele>503.0</ele><time>2026-04-12T11:25:34Z</time></trkpt><trkpt lat="44.2204146787075" lon="11.451159936753822"><ele>503.0</ele><time>2026-04-12T11:25:35Z</time></trkpt><trkpt lat="44.22046985063036" lon="11.451229804057757"><ele>502.99999999999994</ele><time>2026-04-12T11:25:36Z</time></trkpt><trkpt lat="44.22051577157395" lon="11.451300331239377"><ele>503.0</ele><time>2026-04-12T11:25:37Z</time></trkpt><trkpt lat="44.22055997864037" lon="11.451395816717055"><ele>503.0</ele><time>2026-04-12T11:25:38Z</time></trkpt><trkpt lat="44.22060797569254" lon="11.451485463965513"><ele>502.99999999999994</ele><time>2026-04-12T11:25:39Z</time></trkpt><trkpt lat="44.22068032894204" lon="11.451569565440757"><ele>502.99999999999994</ele><time>2026-04-12T11:25:40Z</time></trkpt><trkpt lat="44.22075982177081" lon="11.451615644516261"><ele>503.0</ele><time>2026-04-12T11:25:41Z</time></trkpt><trkpt lat="44.22087237274653" lon="11.45168269014413"><ele>503.0</ele><time>2026-04-12T11:25:42Z</time></trkpt><trkpt lat="44.220988900225464" lon="11.451726910018253"><ele>503.0</ele><time>2026-04-12T11:25:43Z</time></trkpt><trkpt lat="44.221099002435594" lon="11.451778568094726"><ele>503.0</ele><time>2026-04-12T11:25:44Z</time></trkpt><trkpt lat="44.22121107027532" lon="11.451864497052219"><ele>503.0</ele><time>2026-04-12T11:25:45Z</time></trkpt><trkpt lat="44.221324719577986" lon="11.451965460513232"><ele>503.0</ele><time>2026-04-12T11:25:46Z</time></trkpt><trkpt lat="44.221428612045685" lon="11.45207909888147"><ele>502.25</ele><time>2026-04-12T11:25:47Z</time></trkpt><trkpt lat="44.22152103196804" lon="11.452196030289043"><ele>501.5</ele><time>2026-04-12T11:25:48Z</time></trkpt><trkpt lat="44.22162533223115" lon="11.45230881308083"><ele>500.75</ele><time>2026-04-12T11:25:49Z</time></trkpt><trkpt lat="44.2217318182987" lon="11.452432187165533"><ele>500.0</ele><time>2026-04-12T11:25:50Z</time></trkpt><trkpt lat="44.22181164066709" lon="11.452568403955006"><ele>500.0</ele><time>2026-04-12T11:25:51Z</time></trkpt><trkpt lat="44.221911185372335" lon="11.452694640150476"><ele>500.0</ele><time>2026-04-12T11:25:52Z</time></trkpt><trkpt lat="44.221986128412006" lon="11.452860204794009"><ele>500.0</ele><time>2026-04-12T11:25:53Z</time></trkpt><trkpt lat="44.22207764016283" lon="11.453015286732029"><ele>500.0</ele><time>2026-04-12T11:25:54Z</time></trkpt><trkpt lat="44.22217274479193" lon="11.45315069044508"><ele>499.0</ele><time>2026-04-12T11:25:55Z</time></trkpt><trkpt lat="44.22227290952603" lon="11.453277647630077"><ele>498.0</ele><time>2026-04-12T11:25:56Z</time></trkpt><trkpt lat="44.22236707273409" lon="11.453422647467011"><ele>497.0</ele><time>2026-04-12T11:25:57Z</time></trkpt><trkpt lat="44.22247910683131" lon="11.453523804191294"><ele>496.0</ele><time>2026-04-12T11:25:58Z</time></trkpt><trkpt lat="44.222603761359615" lon="11.453602010467488"><ele>496.0</ele><time>2026-04-12T11:25:59Z</time></trkpt><trkpt lat="44.22273275284357" lon="11.45364400331211"><ele>496.0</ele><time>2026-04-12T11:26:00Z</time></trkpt><trkpt lat="44.222848118933605" lon="11.453724969019273"><ele>496.0</ele><time>2026-04-12T11:26:01Z</time></trkpt><trkpt lat="44.222949834353656" lon="11.453809358120548"><ele>496.0</ele><time>2026-04-12T11:26:02Z</time></trkpt><trkpt lat="44.22303209425816" lon="11.453898463008377"><ele>495.50000000000006</ele><time>2026-04-12T11:26:03Z</time></trkpt><trkpt lat="44.22309646137527" lon="11.453995723559979"><ele>495.0</ele><time>2026-04-12T11:26:04Z</time></trkpt><trkpt lat="44.223133259019875" lon="11.454111364506185"><ele>494.5</ele><time>2026-04-12T11:26:05Z</time></trkpt><trkpt lat="44.223168620970945" lon="11.4542311214762"><ele>494.0</ele><time>2026-04-12T11:26:06Z</time></trkpt><trkpt lat="44.22319486941731" lon="11.454340654736889"><ele>493.50000000000006</ele><time>2026-04-12T11:26:07Z</time></trkpt><trkpt lat="44.22321247191332" lon="11.454439941199091"><ele>493.0</ele><time>2026-04-12T11:26:08Z</time></trkpt><trkpt lat="44.22322282357609" lon="11.454538134151065"><ele>493.79999999999995</ele><time>2026-04-12T11:26:09Z</time></trkpt><trkpt lat="44.22318363859807" lon="11.45464109537563"><ele>494.59999999999997</ele><time>2026-04-12T11:26:10Z</time></trkpt><trkpt lat="44.22318113208744" lon="11.454732850371178"><ele>495.40000000000003</ele><time>2026-04-12T11:26:11Z</time></trkpt><trkpt lat="44.22322942073266" lon="11.454877773549281"><ele>496.20000000000005</ele><time>2026-04-12T11:26:13Z</time></trkpt><trkpt lat="44.22324534386222" lon="11.454976758086293"><ele>497.0</ele><time>2026-04-12T11:26:15Z</time></trkpt><trkpt lat="44.22294596169303" lon="11.455151716101017"><ele>499.49999999999994</ele><time>2026-04-12T11:26:17Z</time></trkpt><trkpt lat="44.22290617007327" lon="11.455225900912499"><ele>502.0</ele><time>2026-04-12T11:26:18Z</time></trkpt><trkpt lat="44.22291479200269" lon="11.455325308479152"><ele>504.5</ele><time>2026-04-12T11:26:19Z</time></trkpt><trkpt lat="44.22295846445551" lon="11.455431554744177"><ele>507.0</ele><time>2026-04-12T11:26:20Z</time></trkpt><trkpt lat="44.22299697602595" lon="11.455552525784059"><ele>509.49999999999994</ele><time>2026-04-12T11:26:21Z</time></trkpt><trkpt lat="44.223021934964976" lon="11.455681212598405"><ele>512.0</ele><time>2026-04-12T11:26:22Z</time></trkpt><trkpt lat="44.223043444716374" lon="11.455817297232127"><ele>513.4</ele><time>2026-04-12T11:26:23Z</time></trkpt><trkpt lat="44.223062903884035" lon="11.455960340995281"><ele>514.8000000000001</ele><time>2026-04-12T11:26:24Z</time></trkpt><trkpt lat="44.223086957019625" lon="11.456092434993584"><ele>516.2</ele><time>2026-04-12T11:26:25Z</time></trkpt><trkpt lat="44.2231078339729" lon="11.456215387816481"><ele>517.6</ele><time>2026-04-12T11:26:26Z</time></trkpt><trkpt lat="44.22312190974564" lon="11.45630224655239"><ele>519.0</ele><time>2026-04-12T11:26:27Z</time></trkpt><trkpt lat="44.22315799672408" lon="11.456430724001462"><ele>519.0</ele><time>2026-04-12T11:26:29Z</time></trkpt><trkpt lat="44.22342105327189" lon="11.456577079337006"><ele>519.0</ele><time>2026-04-12T11:26:44Z</time></trkpt><trkpt lat="44.22350713159661" lon="11.456572142735116"><ele>519.0</ele><time>2026-04-12T11:26:45Z</time></trkpt><trkpt lat="44.22359776179672" lon="11.45654334679963"><ele>519.0</ele><time>2026-04-12T11:26:46Z</time></trkpt><trkpt lat="44.223698540288666" lon="11.456500416697011"><ele>519.0</ele><time>2026-04-12T11:26:47Z</time></trkpt><trkpt lat="44.22381586637011" lon="11.456453984687043"><ele>519.0</ele><time>2026-04-12T11:26:48Z</time></trkpt><trkpt lat="44.22391632716642" lon="11.45643262704017"><ele>519.0</ele><time>2026-04-12T11:26:49Z</time></trkpt><trkpt lat="44.224005666795634" lon="11.456441215821645"><ele>519.0</ele><time>2026-04-12T11:26:50Z</time></trkpt><trkpt lat="44.22408831167775" lon="11.456505132889747"><ele>516.8</ele><time>2026-04-12T11:26:51Z</time></trkpt><trkpt lat="44.22416499725725" lon="11.456550548368421"><ele>514.5999999999999</ele><time>2026-04-12T11:26:52Z</time></trkpt><trkpt lat="44.22424661122349" lon="11.456603400013007"><ele>512.4</ele><time>2026-04-12T11:26:53Z</time></trkpt><trkpt lat="44.224340908466274" lon="11.456643144437432"><ele>510.2</ele><time>2026-04-12T11:26:54Z</time></trkpt><trkpt lat="44.224431942537976" lon="11.456711455220008"><ele>508.0</ele><time>2026-04-12T11:26:55Z</time></trkpt><trkpt lat="44.22453093179303" lon="11.456772894647974"><ele>508.0</ele><time>2026-04-12T11:26:56Z</time></trkpt><trkpt lat="44.22462794721367" lon="11.456840716287331"><ele>507.99999999999994</ele><time>2026-04-12T11:26:57Z</time></trkpt><trkpt lat="44.224726189742" lon="11.456906076281046"><ele>507.99999999999994</ele><time>2026-04-12T11:26:58Z</time></trkpt><trkpt lat="44.22482369142616" lon="11.456968351581303"><ele>508.0</ele><time>2026-04-12T11:26:59Z</time></trkpt><trkpt lat="44.22491560071624" lon="11.457026405644953"><ele>508.0</ele><time>2026-04-12T11:27:00Z</time></trkpt><trkpt lat="44.22500750223324" lon="11.4570870361405"><ele>507.00000000000006</ele><time>2026-04-12T11:27:01Z</time></trkpt><trkpt lat="44.225090038690674" lon="11.457146622648963"><ele>506.0</ele><time>2026-04-12T11:27:02Z</time></trkpt><trkpt lat="44.225164558550716" lon="11.457214162692857"><ele>505.0</ele><time>2026-04-12T11:27:03Z</time></trkpt><trkpt lat="44.225221168852855" lon="11.457298941196678"><ele>504.0</ele><time>2026-04-12T11:27:04Z</time></trkpt><trkpt lat="44.2252595578024" lon="11.457397341710838"><ele>503.00000000000006</ele><time>2026-04-12T11:27:05Z</time></trkpt><trkpt lat="44.22530318378937" lon="11.457484959910172"><ele>502.0</ele><time>2026-04-12T11:27:06Z</time></trkpt><trkpt lat="44.225374388571026" lon="11.457533182938862"><ele>502.0</ele><time>2026-04-12T11:27:07Z</time></trkpt><trkpt lat="44.225458974434424" lon="11.4575527930218"><ele>502.00000000000006</ele><time>2026-04-12T11:27:08Z</time></trkpt><trkpt lat="44.22552718114121" lon="11.457562003052512"><ele>502.00000000000006</ele><time>2026-04-12T11:27:09Z</time></trkpt><trkpt lat="44.225584648390345" lon="11.45768014735482"><ele>502.0</ele><time>2026-04-12T11:27:10Z</time></trkpt><trkpt lat="44.22563817300635" lon="11.457783965539788"><ele>502.0</ele><time>2026-04-12T11:27:11Z</time></trkpt><trkpt lat="44.22569442165285" lon="11.457901778217328"><ele>500.0</ele><time>2026-04-12T11:27:12Z</time></trkpt><trkpt lat="44.22575231629096" lon="11.458024084592667"><ele>498.00000000000006</ele><time>2026-04-12T11:27:13Z</time></trkpt><trkpt lat="44.22579408274946" lon="11.458149473828014"><ele>496.00000000000006</ele><time>2026-04-12T11:27:14Z</time></trkpt><trkpt lat="44.22581630464329" lon="11.458284122120041"><ele>494.0</ele><time>2026-04-12T11:27:15Z</time></trkpt><trkpt lat="44.22580006192607" lon="11.458413613900621"><ele>492.0</ele><time>2026-04-12T11:27:16Z</time></trkpt><trkpt lat="44.225752895189835" lon="11.458524108862665"><ele>492.0</ele><time>2026-04-12T11:27:17Z</time></trkpt><trkpt lat="44.22567536294111" lon="11.458615542549481"><ele>492.00000000000006</ele><time>2026-04-12T11:27:18Z</time></trkpt><trkpt lat="44.22558223837622" lon="11.458675105489235"><ele>492.00000000000006</ele><time>2026-04-12T11:27:19Z</time></trkpt><trkpt lat="44.22550222605955" lon="11.458706603904865"><ele>492.0</ele><time>2026-04-12T11:27:20Z</time></trkpt><trkpt lat="44.22540496568087" lon="11.458743312054125"><ele>492.0</ele><time>2026-04-12T11:27:21Z</time></trkpt><trkpt lat="44.22529562189277" lon="11.45877396156528"><ele>491.0</ele><time>2026-04-12T11:27:22Z</time></trkpt><trkpt lat="44.22518257096367" lon="11.458800153394574"><ele>490.00000000000006</ele><time>2026-04-12T11:27:23Z</time></trkpt><trkpt lat="44.22507320431027" lon="11.4588124820587"><ele>489.00000000000006</ele><time>2026-04-12T11:27:24Z</time></trkpt><trkpt lat="44.224967505744935" lon="11.458825570968624"><ele>488.0</ele><time>2026-04-12T11:27:25Z</time></trkpt><trkpt lat="44.224851097861965" lon="11.458845881257952"><ele>487.0</ele><time>2026-04-12T11:27:26Z</time></trkpt><trkpt lat="44.2247363998318" lon="11.45888212546737"><ele>492.75</ele><time>2026-04-12T11:27:27Z</time></trkpt><trkpt lat="44.22462027198449" lon="11.458899498460386"><ele>498.5</ele><time>2026-04-12T11:27:28Z</time></trkpt><trkpt lat="44.224512749044834" lon="11.458973271883105"><ele>504.25</ele><time>2026-04-12T11:27:29Z</time></trkpt><trkpt lat="44.224406774709884" lon="11.459037889916582"><ele>510.0</ele><time>2026-04-12T11:27:30Z</time></trkpt><trkpt lat="44.224303937577616" lon="11.45911537413328"><ele>510.0</ele><time>2026-04-12T11:27:31Z</time></trkpt><trkpt lat="44.22420063200057" lon="11.459192184557086"><ele>510.0</ele><time>2026-04-12T11:27:32Z</time></trkpt><trkpt lat="44.22409622472068" lon="11.459269934913292"><ele>510.0</ele><time>2026-04-12T11:27:33Z</time></trkpt><trkpt lat="44.22399876980839" lon="11.4593413052624"><ele>510.0</ele><time>2026-04-12T11:27:34Z</time></trkpt><trkpt lat="44.22389278787331" lon="11.459408976202658"><ele>509.2</ele><time>2026-04-12T11:27:35Z</time></trkpt><trkpt lat="44.22378196898797" lon="11.459473287139314"><ele>508.4</ele><time>2026-04-12T11:27:36Z</time></trkpt><trkpt lat="44.22366907086564" lon="11.459526203240921"><ele>507.6</ele><time>2026-04-12T11:27:37Z</time></trkpt><trkpt lat="44.22356857559338" lon="11.459575635323603"><ele>506.8</ele><time>2026-04-12T11:27:38Z</time></trkpt><trkpt lat="44.223473296393905" lon="11.459622419426243"><ele>506.0</ele><time>2026-04-12T11:27:39Z</time></trkpt><trkpt lat="44.22338395651109" lon="11.45967779583227"><ele>506.0</ele><time>2026-04-12T11:27:40Z</time></trkpt><trkpt lat="44.223295484008005" lon="11.45974716659257"><ele>506.0</ele><time>2026-04-12T11:27:41Z</time></trkpt><trkpt lat="44.223206922433185" lon="11.459848195810183"><ele>506.0</ele><time>2026-04-12T11:27:42Z</time></trkpt><trkpt lat="44.22313052002447" lon="11.459962549981299"><ele>506.0</ele><time>2026-04-12T11:27:43Z</time></trkpt><trkpt lat="44.22306555706625" lon="11.460092841817833"><ele>506.0</ele><time>2026-04-12T11:27:44Z</time></trkpt><trkpt lat="44.22301346916822" lon="11.460248441554443"><ele>513.5</ele><time>2026-04-12T11:27:45Z</time></trkpt><trkpt lat="44.22298831540702" lon="11.46042897618362"><ele>521.0</ele><time>2026-04-12T11:27:46Z</time></trkpt><trkpt lat="44.22299135151051" lon="11.460609987224627"><ele>528.5</ele><time>2026-04-12T11:27:47Z</time></trkpt><trkpt lat="44.22301184780646" lon="11.460793833505663"><ele>536.0</ele><time>2026-04-12T11:27:48Z</time></trkpt><trkpt lat="44.223016812891686" lon="11.460981333003048"><ele>536.0</ele><time>2026-04-12T11:27:49Z</time></trkpt><trkpt lat="44.22301786696299" lon="11.461169815481616"><ele>536.0</ele><time>2026-04-12T11:27:50Z</time></trkpt><trkpt lat="44.22301457677419" lon="11.461358799842237"><ele>536.0</ele><time>2026-04-12T11:27:51Z</time></trkpt><trkpt lat="44.22303074043103" lon="11.461546773021242"><ele>536.0</ele><time>2026-04-12T11:27:52Z</time></trkpt><trkpt lat="44.22305329628109" lon="11.461719515118698"><ele>536.25</ele><time>2026-04-12T11:27:53Z</time></trkpt><trkpt lat="44.22305359079437" lon="11.461887065099374"><ele>536.5</ele><time>2026-04-12T11:27:54Z</time></trkpt><trkpt lat="44.22302665584927" lon="11.462040444308673"><ele>536.75</ele><time>2026-04-12T11:27:55Z</time></trkpt><trkpt lat="44.22296937627592" lon="11.462196818612755"><ele>537.0</ele><time>2026-04-12T11:27:56Z</time></trkpt><trkpt lat="44.22289510739365" lon="11.462337527566696"><ele>532.25</ele><time>2026-04-12T11:27:57Z</time></trkpt><trkpt lat="44.22280462414257" lon="11.462458143146758"><ele>527.5</ele><time>2026-04-12T11:27:58Z</time></trkpt><trkpt lat="44.22270604034392" lon="11.462556913439327"><ele>522.75</ele><time>2026-04-12T11:27:59Z</time></trkpt><trkpt lat="44.22258755999408" lon="11.46264006360394"><ele>518.0</ele><time>2026-04-12T11:28:00Z</time></trkpt><trkpt lat="44.2224774345152" lon="11.46271566562414"><ele>518.0</ele><time>2026-04-12T11:28:01Z</time></trkpt><trkpt lat="44.222375131243034" lon="11.462783693785578"><ele>518.0</ele><time>2026-04-12T11:28:02Z</time></trkpt><trkpt lat="44.222269104770234" lon="11.462829569917128"><ele>518.0</ele><time>2026-04-12T11:28:03Z</time></trkpt><trkpt lat="44.22217901762964" lon="11.462880217545335"><ele>518.0</ele><time>2026-04-12T11:28:04Z</time></trkpt><trkpt lat="44.222120530391855" lon="11.462985371106265"><ele>518.0</ele><time>2026-04-12T11:28:05Z</time></trkpt><trkpt lat="44.2220831943731" lon="11.463134129778963"><ele>519.6</ele><time>2026-04-12T11:28:06Z</time></trkpt><trkpt lat="44.22207354426734" lon="11.463287014216537"><ele>521.1999999999999</ele><time>2026-04-12T11:28:07Z</time></trkpt><trkpt lat="44.222077896589575" lon="11.463442020613565"><ele>522.8</ele><time>2026-04-12T11:28:08Z</time></trkpt><trkpt lat="44.22209685139883" lon="11.463587919954971"><ele>524.4</ele><time>2026-04-12T11:28:09Z</time></trkpt><trkpt lat="44.2221368587744" lon="11.46373818939223"><ele>526.0</ele><time>2026-04-12T11:28:10Z</time></trkpt><trkpt lat="44.222189755338015" lon="11.463892513001671"><ele>526.5</ele><time>2026-04-12T11:28:11Z</time></trkpt><trkpt lat="44.22225718385683" lon="11.464038411145161"><ele>527.0</ele><time>2026-04-12T11:28:12Z</time></trkpt><trkpt lat="44.222333362734354" lon="11.464178799152629"><ele>527.5</ele><time>2026-04-12T11:28:13Z</time></trkpt><trkpt lat="44.22241805285697" lon="11.464323133449563"><ele>528.0</ele><time>2026-04-12T11:28:14Z</time></trkpt><trkpt lat="44.22250750764119" lon="11.464460723221926"><ele>523.5</ele><time>2026-04-12T11:28:15Z</time></trkpt><trkpt lat="44.22259429669361" lon="11.464587025997703"><ele>519.0</ele><time>2026-04-12T11:28:16Z</time></trkpt><trkpt lat="44.22268325177663" lon="11.464704927262623"><ele>514.5</ele><time>2026-04-12T11:28:17Z</time></trkpt><trkpt lat="44.222777629831434" lon="11.46481667786343"><ele>510.0</ele><time>2026-04-12T11:28:18Z</time></trkpt><trkpt lat="44.22287330901995" lon="11.464924417623903"><ele>510.0</ele><time>2026-04-12T11:28:19Z</time></trkpt><trkpt lat="44.22296242722787" lon="11.46502364220475"><ele>510.0</ele><time>2026-04-12T11:28:20Z</time></trkpt><trkpt lat="44.22305202512369" lon="11.465113022045479"><ele>510.0</ele><time>2026-04-12T11:28:21Z</time></trkpt><trkpt lat="44.22314162823666" lon="11.465190282837119"><ele>510.0</ele><time>2026-04-12T11:28:22Z</time></trkpt><trkpt lat="44.223234607936334" lon="11.465268107323045"><ele>510.0</ele><time>2026-04-12T11:28:23Z</time></trkpt><trkpt lat="44.223334679848314" lon="11.465346443870928"><ele>509.0</ele><time>2026-04-12T11:28:24Z</time></trkpt><trkpt lat="44.2234329263016" lon="11.465420725528837"><ele>508.0</ele><time>2026-04-12T11:28:25Z</time></trkpt><trkpt lat="44.22352367703885" lon="11.465496917702545"><ele>507.0</ele><time>2026-04-12T11:28:26Z</time></trkpt><trkpt lat="44.223612958772634" lon="11.465560790120799"><ele>506.0</ele><time>2026-04-12T11:28:27Z</time></trkpt><trkpt lat="44.22370071316682" lon="11.465622429955138"><ele>505.0</ele><time>2026-04-12T11:28:28Z</time></trkpt><trkpt lat="44.223761410266896" lon="11.465681774886532"><ele>505.0</ele><time>2026-04-12T11:28:29Z</time></trkpt><trkpt lat="44.223824370032034" lon="11.465767149329936"><ele>505.0</ele><time>2026-04-12T11:28:31Z</time></trkpt><trkpt lat="44.22377735361796" lon="11.465903894638995"><ele>505.0</ele><time>2026-04-12T11:28:33Z</time></trkpt><trkpt lat="44.22371384284414" lon="11.466035371988141"><ele>505.0</ele><time>2026-04-12T11:28:35Z</time></trkpt><trkpt lat="44.22359826826782" lon="11.466066764770497"><ele>505.0</ele><time>2026-04-12T11:28:37Z</time></trkpt><trkpt lat="44.22352334400573" lon="11.466088239227116"><ele>505.00000000000006</ele><time>2026-04-12T11:28:38Z</time></trkpt><trkpt lat="44.2234391259063" lon="11.466089907402244"><ele>505.0</ele><time>2026-04-12T11:28:39Z</time></trkpt><trkpt lat="44.22335800412543" lon="11.466081164338"><ele>505.0</ele><time>2026-04-12T11:28:40Z</time></trkpt><trkpt lat="44.223275955404766" lon="11.466075162036669"><ele>505.0</ele><time>2026-04-12T11:28:41Z</time></trkpt><trkpt lat="44.22319577388159" lon="11.466067316111499"><ele>505.00000000000006</ele><time>2026-04-12T11:28:42Z</time></trkpt><trkpt lat="44.22311724997523" lon="11.466058202102593"><ele>505.0</ele><time>2026-04-12T11:28:43Z</time></trkpt><trkpt lat="44.22304157602165" lon="11.466042998413572"><ele>506.00000000000006</ele><time>2026-04-12T11:28:44Z</time></trkpt><trkpt lat="44.22296475481359" lon="11.466032857982704"><ele>507.0</ele><time>2026-04-12T11:28:45Z</time></trkpt><trkpt lat="44.22288250160944" lon="11.466031459080027"><ele>508.0</ele><time>2026-04-12T11:28:46Z</time></trkpt><trkpt lat="44.22279656111279" lon="11.466029006577187"><ele>509.0</ele><time>2026-04-12T11:28:47Z</time></trkpt><trkpt lat="44.222704586137404" lon="11.466027580994893"><ele>510.00000000000006</ele><time>2026-04-12T11:28:48Z</time></trkpt><trkpt lat="44.222599241402165" lon="11.466043621094212"><ele>511.0</ele><time>2026-04-12T11:28:49Z</time></trkpt><trkpt lat="44.22249156580723" lon="11.46606993615323"><ele>511.00000000000006</ele><time>2026-04-12T11:28:50Z</time></trkpt><trkpt lat="44.22240432172562" lon="11.466101546449138"><ele>511.0</ele><time>2026-04-12T11:28:51Z</time></trkpt><trkpt lat="44.22231732297536" lon="11.466139303504127"><ele>511.0</ele><time>2026-04-12T11:28:52Z</time></trkpt><trkpt lat="44.222235061550144" lon="11.466170442648218"><ele>511.0</ele><time>2026-04-12T11:28:53Z</time></trkpt><trkpt lat="44.22216261515966" lon="11.466197137022618"><ele>511.00000000000006</ele><time>2026-04-12T11:28:54Z</time></trkpt><trkpt lat="44.222082122923425" lon="11.46623190903467"><ele>511.0</ele><time>2026-04-12T11:28:55Z</time></trkpt><trkpt lat="44.222007213587915" lon="11.466256837964435"><ele>512.1666666666667</ele><time>2026-04-12T11:28:56Z</time></trkpt><trkpt lat="44.22194668400267" lon="11.466281173656018"><ele>513.3333333333334</ele><time>2026-04-12T11:28:57Z</time></trkpt><trkpt lat="44.22183816855712" lon="11.466316400647191"><ele>514.5</ele><time>2026-04-12T11:28:59Z</time></trkpt><trkpt lat="44.221783955061305" lon="11.466387582295413"><ele>515.6666666666666</ele><time>2026-04-12T11:29:01Z</time></trkpt><trkpt lat="44.221718278327145" lon="11.466472126885007"><ele>516.8333333333333</ele><time>2026-04-12T11:29:03Z</time></trkpt><trkpt lat="44.22175302462142" lon="11.466610393937097"><ele>518.0</ele><time>2026-04-12T11:29:04Z</time></trkpt><trkpt lat="44.22171913789105" lon="11.466762010029353"><ele>518.0</ele><time>2026-04-12T11:29:06Z</time></trkpt><trkpt lat="44.22169444648591" lon="11.46691189068851"><ele>518.0</ele><time>2026-04-12T11:29:08Z</time></trkpt><trkpt lat="44.22167915332335" lon="11.467044407937545"><ele>518.0</ele><time>2026-04-12T11:29:10Z</time></trkpt><trkpt lat="44.221623774326424" lon="11.467127711592395"><ele>518.0</ele><time>2026-04-12T11:29:13Z</time></trkpt><trkpt lat="44.22155989249657" lon="11.467110876545442"><ele>518.0</ele><time>2026-04-12T11:29:15Z</time></trkpt><trkpt lat="44.221475652807406" lon="11.467056660495835"><ele>518.0</ele><time>2026-04-12T11:29:18Z</time></trkpt><trkpt lat="44.22132359856618" lon="11.466933920879665"><ele>516.8333333333333</ele><time>2026-04-12T11:29:19Z</time></trkpt><trkpt lat="44.22126475537953" lon="11.46686645509862"><ele>515.6666666666666</ele><time>2026-04-12T11:29:20Z</time></trkpt><trkpt lat="44.22117905379744" lon="11.466819468002305"><ele>514.5</ele><time>2026-04-12T11:29:21Z</time></trkpt><trkpt lat="44.22109873535779" lon="11.466788839705565"><ele>513.3333333333334</ele><time>2026-04-12T11:29:22Z</time></trkpt><trkpt lat="44.22101704258629" lon="11.466771158385415"><ele>512.1666666666667</ele><time>2026-04-12T11:29:23Z</time></trkpt><trkpt lat="44.22092273622775" lon="11.466767348531205"><ele>511.0</ele><time>2026-04-12T11:29:24Z</time></trkpt><trkpt lat="44.22081669844499" lon="11.466780353409785"><ele>511.0</ele><time>2026-04-12T11:29:25Z</time></trkpt><trkpt lat="44.2207039865178" lon="11.466804515805878"><ele>511.0</ele><time>2026-04-12T11:29:26Z</time></trkpt><trkpt lat="44.22059529104602" lon="11.466804454422743"><ele>511.0</ele><time>2026-04-12T11:29:27Z</time></trkpt><trkpt lat="44.2205063834137" lon="11.466799899253209"><ele>511.0</ele><time>2026-04-12T11:29:28Z</time></trkpt><trkpt lat="44.22043200268891" lon="11.46676368408182"><ele>511.0</ele><time>2026-04-12T11:29:29Z</time></trkpt><trkpt lat="44.22032124773044" lon="11.466695633487056"><ele>514.3333333333334</ele><time>2026-04-12T11:29:30Z</time></trkpt><trkpt lat="44.2202303630877" lon="11.466677296939501"><ele>517.6666666666667</ele><time>2026-04-12T11:29:31Z</time></trkpt><trkpt lat="44.220163949295106" lon="11.466684457901229"><ele>521.0</ele><time>2026-04-12T11:29:32Z</time></trkpt><trkpt lat="44.220118045475765" lon="11.466765866833647"><ele>524.3333333333334</ele><time>2026-04-12T11:29:33Z</time></trkpt><trkpt lat="44.220077688842665" lon="11.46686324146529"><ele>527.6666666666666</ele><time>2026-04-12T11:29:34Z</time></trkpt><trkpt lat="44.21998664103422" lon="11.466968972638616"><ele>531.0</ele><time>2026-04-12T11:29:35Z</time></trkpt><trkpt lat="44.21993323373032" lon="11.467057253242947"><ele>525.6</ele><time>2026-04-12T11:29:36Z</time></trkpt><trkpt lat="44.21985993053138" lon="11.4671835156395"><ele>520.2</ele><time>2026-04-12T11:29:37Z</time></trkpt><trkpt lat="44.21978167346014" lon="11.46732512068051"><ele>514.8</ele><time>2026-04-12T11:29:38Z</time></trkpt><trkpt lat="44.21972083758283" lon="11.467420378439638"><ele>509.4</ele><time>2026-04-12T11:29:39Z</time></trkpt><trkpt lat="44.219670211871055" lon="11.467502026432905"><ele>504.0</ele><time>2026-04-12T11:29:40Z</time></trkpt><trkpt lat="44.219601135980476" lon="11.46757844590969"><ele>502.6</ele><time>2026-04-12T11:29:42Z</time></trkpt><trkpt lat="44.21947393940992" lon="11.46747441325161"><ele>501.2</ele><time>2026-04-12T11:29:44Z</time></trkpt><trkpt lat="44.21944660220242" lon="11.467386945312985"><ele>499.80000000000007</ele><time>2026-04-12T11:29:45Z</time></trkpt><trkpt lat="44.21943261776571" lon="11.467277774781401"><ele>498.40000000000003</ele><time>2026-04-12T11:29:46Z</time></trkpt><trkpt lat="44.21938324171185" lon="11.467135255118384"><ele>497.0</ele><time>2026-04-12T11:29:47Z</time></trkpt><trkpt lat="44.219334816885265" lon="11.46698894384712"><ele>501.66666666666663</ele><time>2026-04-12T11:29:48Z</time></trkpt><trkpt lat="44.219273883104265" lon="11.466874789596416"><ele>506.3333333333333</ele><time>2026-04-12T11:29:49Z</time></trkpt><trkpt lat="44.219209036351074" lon="11.466782818104656"><ele>511.0</ele><time>2026-04-12T11:29:50Z</time></trkpt><trkpt lat="44.21913761048338" lon="11.466712425174151"><ele>515.6666666666666</ele><time>2026-04-12T11:29:51Z</time></trkpt><trkpt lat="44.21908649156882" lon="11.466637152618583"><ele>520.3333333333334</ele><time>2026-04-12T11:29:52Z</time></trkpt><trkpt lat="44.21905258209254" lon="11.466531188289522"><ele>525.0</ele><time>2026-04-12T11:29:53Z</time></trkpt><trkpt lat="44.21899805394891" lon="11.466455977712085"><ele>526.0</ele><time>2026-04-12T11:29:54Z</time></trkpt><trkpt lat="44.218931339919045" lon="11.466401816135633"><ele>527.0</ele><time>2026-04-12T11:29:55Z</time></trkpt><trkpt lat="44.218860825650275" lon="11.466334067272975"><ele>528.0</ele><time>2026-04-12T11:29:56Z</time></trkpt><trkpt lat="44.218823892813035" lon="11.46616346393858"><ele>529.0</ele><time>2026-04-12T11:29:58Z</time></trkpt><trkpt lat="44.21880995965706" lon="11.466057254764282"><ele>530.0</ele><time>2026-04-12T11:29:59Z</time></trkpt><trkpt lat="44.21876892188108" lon="11.465955315768609"><ele>530.0</ele><time>2026-04-12T11:30:00Z</time></trkpt><trkpt lat="44.21870051487282" lon="11.465897243339292"><ele>530.0</ele><time>2026-04-12T11:30:01Z</time></trkpt><trkpt lat="44.21862366391502" lon="11.465828273031544"><ele>530.0</ele><time>2026-04-12T11:30:02Z</time></trkpt><trkpt lat="44.21857219905089" lon="11.46577292215087"><ele>530.0</ele><time>2026-04-12T11:30:03Z</time></trkpt><trkpt lat="44.2184689737702" lon="11.465737340388882"><ele>530.0</ele><time>2026-04-12T11:30:05Z</time></trkpt><trkpt lat="44.21835214864799" lon="11.465704594945327"><ele>530.0</ele><time>2026-04-12T11:30:07Z</time></trkpt><trkpt lat="44.218204639627515" lon="11.465693219340189"><ele>530.0</ele><time>2026-04-12T11:30:09Z</time></trkpt><trkpt lat="44.218117339740935" lon="11.465724596035397"><ele>530.0</ele><time>2026-04-12T11:30:10Z</time></trkpt><trkpt lat="44.21801789273038" lon="11.465862272062601"><ele>530.0</ele><time>2026-04-12T11:30:12Z</time></trkpt><trkpt lat="44.21796649892099" lon="11.465937145583556"><ele>536.6</ele><time>2026-04-12T11:30:13Z</time></trkpt><trkpt lat="44.21790316456144" lon="11.466030249015658"><ele>543.2</ele><time>2026-04-12T11:30:14Z</time></trkpt><trkpt lat="44.21782602758157" lon="11.466076021261507"><ele>549.8</ele><time>2026-04-12T11:30:15Z</time></trkpt><trkpt lat="44.21769985934605" lon="11.466133530426529"><ele>556.4</ele><time>2026-04-12T11:30:17Z</time></trkpt><trkpt lat="44.21759187039687" lon="11.466186163025375"><ele>563.0</ele><time>2026-04-12T11:30:18Z</time></trkpt><trkpt lat="44.21751498056488" lon="11.466235175817276"><ele>557.5</ele><time>2026-04-12T11:30:19Z</time></trkpt><trkpt lat="44.21745653133147" lon="11.466288808509379"><ele>552.0</ele><time>2026-04-12T11:30:20Z</time></trkpt><trkpt lat="44.21742934436069" lon="11.466473537950648"><ele>546.5</ele><time>2026-04-12T11:30:22Z</time></trkpt><trkpt lat="44.217434282035754" lon="11.466566683530766"><ele>541.0</ele><time>2026-04-12T11:30:23Z</time></trkpt><trkpt lat="44.21745143437516" lon="11.466677210014485"><ele>535.5</ele><time>2026-04-12T11:30:24Z</time></trkpt><trkpt lat="44.217448774085206" lon="11.466785252933676"><ele>530.0</ele><time>2026-04-12T11:30:25Z</time></trkpt><trkpt lat="44.21738113074041" lon="11.466898144743325"><ele>537.1666666666666</ele><time>2026-04-12T11:30:27Z</time></trkpt><trkpt lat="44.21729725633911" lon="11.466890789641976"><ele>544.3333333333333</ele><time>2026-04-12T11:30:29Z</time></trkpt><trkpt lat="44.21725484415669" lon="11.466822496348982"><ele>551.5</ele><time>2026-04-12T11:30:30Z</time></trkpt><trkpt lat="44.21717884932924" lon="11.466787006070074"><ele>558.6666666666666</ele><time>2026-04-12T11:30:31Z</time></trkpt><trkpt lat="44.21711115952682" lon="11.466793502275335"><ele>565.8333333333334</ele><time>2026-04-12T11:30:32Z</time></trkpt><trkpt lat="44.21706969480614" lon="11.466938425144614"><ele>573.0</ele><time>2026-04-12T11:30:33Z</time></trkpt><trkpt lat="44.217040442224665" lon="11.467050296252213"><ele>568.5</ele><time>2026-04-12T11:30:34Z</time></trkpt><trkpt lat="44.2170285855994" lon="11.467176532106317"><ele>564.0</ele><time>2026-04-12T11:30:35Z</time></trkpt><trkpt lat="44.217002775585655" lon="11.467278517278674"><ele>559.5</ele><time>2026-04-12T11:30:36Z</time></trkpt><trkpt lat="44.21698454348544" lon="11.467371473129925"><ele>555.0</ele><time>2026-04-12T11:30:37Z</time></trkpt><trkpt lat="44.216937524478816" lon="11.467432246807459"><ele>550.5</ele><time>2026-04-12T11:30:38Z</time></trkpt><trkpt lat="44.216871628307324" lon="11.46747240776478"><ele>546.0</ele><time>2026-04-12T11:30:39Z</time></trkpt><trkpt lat="44.2167941515983" lon="11.467514080384253"><ele>546.0</ele><time>2026-04-12T11:30:40Z</time></trkpt><trkpt lat="44.21672032055369" lon="11.467571513916063"><ele>546.0</ele><time>2026-04-12T11:30:41Z</time></trkpt><trkpt lat="44.21664009587632" lon="11.46761006792686"><ele>546.0</ele><time>2026-04-12T11:30:42Z</time></trkpt><trkpt lat="44.2165572927889" lon="11.467655092939482"><ele>546.0</ele><time>2026-04-12T11:30:43Z</time></trkpt><trkpt lat="44.216480672251045" lon="11.467699380731148"><ele>546.0</ele><time>2026-04-12T11:30:44Z</time></trkpt><trkpt lat="44.216414191171495" lon="11.467720879868784"><ele>546.0</ele><time>2026-04-12T11:30:45Z</time></trkpt><trkpt lat="44.21633204930908" lon="11.467688196179163"><ele>547.3333333333334</ele><time>2026-04-12T11:30:47Z</time></trkpt><trkpt lat="44.21629241846938" lon="11.46761556209906"><ele>548.6666666666666</ele><time>2026-04-12T11:30:48Z</time></trkpt><trkpt lat="44.21628037134095" lon="11.467448121070854"><ele>550.0</ele><time>2026-04-12T11:30:50Z</time></trkpt><trkpt lat="44.21628968869242" lon="11.467356312378094"><ele>551.3333333333333</ele><time>2026-04-12T11:30:51Z</time></trkpt><trkpt lat="44.21629215890255" lon="11.467250569294036"><ele>552.6666666666666</ele><time>2026-04-12T11:30:52Z</time></trkpt><trkpt lat="44.216283298815206" lon="11.467137857365032"><ele>554.0</ele><time>2026-04-12T11:30:53Z</time></trkpt><trkpt lat="44.216279333647755" lon="11.467040732429322"><ele>554.0</ele><time>2026-04-12T11:30:54Z</time></trkpt><trkpt lat="44.2162722980158" lon="11.466941907109112"><ele>554.0</ele><time>2026-04-12T11:30:55Z</time></trkpt><trkpt lat="44.216256906957526" lon="11.466839311741015"><ele>554.0</ele><time>2026-04-12T11:30:56Z</time></trkpt><trkpt lat="44.21623140666514" lon="11.466746523178362"><ele>554.0</ele><time>2026-04-12T11:30:57Z</time></trkpt><trkpt lat="44.21619624068858" lon="11.466672407943994"><ele>554.0</ele><time>2026-04-12T11:30:58Z</time></trkpt><trkpt lat="44.2161485731974" lon="11.466605129380522"><ele>554.0</ele><time>2026-04-12T11:30:59Z</time></trkpt><trkpt lat="44.216091976384824" lon="11.466557778166713"><ele>554.0</ele><time>2026-04-12T11:31:00Z</time></trkpt><trkpt lat="44.2160594436426" lon="11.466415861087066"><ele>554.0</ele><time>2026-04-12T11:31:02Z</time></trkpt><trkpt lat="44.21608927239344" lon="11.466329387198133"><ele>554.0</ele><time>2026-04-12T11:31:03Z</time></trkpt><trkpt lat="44.21612617573384" lon="11.466248984392015"><ele>554.0</ele><time>2026-04-12T11:31:04Z</time></trkpt><trkpt lat="44.21616228133229" lon="11.46617298153337"><ele>554.0</ele><time>2026-04-12T11:31:05Z</time></trkpt><trkpt lat="44.21618429653993" lon="11.466067697213495"><ele>554.0</ele><time>2026-04-12T11:31:06Z</time></trkpt><trkpt lat="44.21618509334336" lon="11.465946129625955"><ele>554.0</ele><time>2026-04-12T11:31:07Z</time></trkpt><trkpt lat="44.216173904615296" lon="11.46584654264203"><ele>554.0</ele><time>2026-04-12T11:31:08Z</time></trkpt><trkpt lat="44.216134659895786" lon="11.465738157891597"><ele>558.6</ele><time>2026-04-12T11:31:09Z</time></trkpt><trkpt lat="44.216075307649575" lon="11.465653978391297"><ele>563.2</ele><time>2026-04-12T11:31:10Z</time></trkpt><trkpt lat="44.216000898306994" lon="11.465585912226409"><ele>567.8000000000001</ele><time>2026-04-12T11:31:11Z</time></trkpt><trkpt lat="44.21592632610318" lon="11.465533917148301"><ele>572.4</ele><time>2026-04-12T11:31:12Z</time></trkpt><trkpt lat="44.215819741170726" lon="11.465486235748175"><ele>577.0</ele><time>2026-04-12T11:31:13Z</time></trkpt><trkpt lat="44.21571794043873" lon="11.4654217425652"><ele>573.4</ele><time>2026-04-12T11:31:14Z</time></trkpt><trkpt lat="44.21564014320131" lon="11.465351410076844"><ele>569.8000000000001</ele><time>2026-04-12T11:31:15Z</time></trkpt><trkpt lat="44.215563894126554" lon="11.465302328497561"><ele>566.2</ele><time>2026-04-12T11:31:16Z</time></trkpt><trkpt lat="44.215490409829556" lon="11.465260526251793"><ele>562.6</ele><time>2026-04-12T11:31:17Z</time></trkpt><trkpt lat="44.215409400316204" lon="11.465199784173073"><ele>559.0</ele><time>2026-04-12T11:31:19Z</time></trkpt><trkpt lat="44.215398043751506" lon="11.465047286395926"><ele>559.0</ele><time>2026-04-12T11:31:21Z</time></trkpt><trkpt lat="44.2154122298653" lon="11.464959735097102"><ele>559.0</ele><time>2026-04-12T11:31:22Z</time></trkpt><trkpt lat="44.21543528226872" lon="11.464840876297476"><ele>559.0</ele><time>2026-04-12T11:31:24Z</time></trkpt><trkpt lat="44.215481186549496" lon="11.464772897709063"><ele>559.0</ele><time>2026-04-12T11:31:25Z</time></trkpt><trkpt lat="44.215506571034226" lon="11.464598452877254"><ele>559.0</ele><time>2026-04-12T11:31:27Z</time></trkpt><trkpt lat="44.21548285396431" lon="11.46450128875179"><ele>559.0</ele><time>2026-04-12T11:31:28Z</time></trkpt><trkpt lat="44.21540261402284" lon="11.464412097299482"><ele>566.0</ele><time>2026-04-12T11:31:29Z</time></trkpt><trkpt lat="44.21536033913103" lon="11.46431623346109"><ele>573.0</ele><time>2026-04-12T11:31:30Z</time></trkpt><trkpt lat="44.21529876757597" lon="11.46423244536761"><ele>580.0</ele><time>2026-04-12T11:31:31Z</time></trkpt><trkpt lat="44.215229229807456" lon="11.464184716857343"><ele>587.0</ele><time>2026-04-12T11:31:32Z</time></trkpt><trkpt lat="44.21517387411035" lon="11.464126370338555"><ele>594.0</ele><time>2026-04-12T11:31:33Z</time></trkpt><trkpt lat="44.215080015868175" lon="11.464068114311193"><ele>601.0</ele><time>2026-04-12T11:31:35Z</time></trkpt><trkpt lat="44.21500553023746" lon="11.464041382648563"><ele>601.0</ele><time>2026-04-12T11:31:36Z</time></trkpt><trkpt lat="44.214910468258914" lon="11.4639866735449"><ele>601.0</ele><time>2026-04-12T11:31:37Z</time></trkpt><trkpt lat="44.214815964963485" lon="11.46395440412516"><ele>601.0</ele><time>2026-04-12T11:31:38Z</time></trkpt><trkpt lat="44.214730663156374" lon="11.463925276846549"><ele>601.0</ele><time>2026-04-12T11:31:39Z</time></trkpt><trkpt lat="44.2146627875238" lon="11.463891009267021"><ele>601.0</ele><time>2026-04-12T11:31:40Z</time></trkpt><trkpt lat="44.214588804747976" lon="11.463880489318075"><ele>601.0</ele><time>2026-04-12T11:31:41Z</time></trkpt><trkpt lat="44.214526267553374" lon="11.46391591755954"><ele>595.6</ele><time>2026-04-12T11:31:42Z</time></trkpt><trkpt lat="44.21447901151754" lon="11.464028422430463"><ele>590.2</ele><time>2026-04-12T11:31:43Z</time></trkpt><trkpt lat="44.21442237214354" lon="11.46410938333652"><ele>584.8</ele><time>2026-04-12T11:31:44Z</time></trkpt><trkpt lat="44.214312500014834" lon="11.464111095158733"><ele>579.4</ele><time>2026-04-12T11:31:46Z</time></trkpt><trkpt lat="44.214267232881426" lon="11.464002081877414"><ele>574.0</ele><time>2026-04-12T11:31:47Z</time></trkpt><trkpt lat="44.214237286329244" lon="11.463906340772839"><ele>573.8</ele><time>2026-04-12T11:31:48Z</time></trkpt><trkpt lat="44.21421487051982" lon="11.463778768674493"><ele>573.5999999999999</ele><time>2026-04-12T11:31:49Z</time></trkpt><trkpt lat="44.214193765224906" lon="11.463613640530784"><ele>573.4</ele><time>2026-04-12T11:31:50Z</time></trkpt><trkpt lat="44.21413337948661" lon="11.46349860536987"><ele>573.1999999999999</ele><time>2026-04-12T11:31:51Z</time></trkpt><trkpt lat="44.21406947118952" lon="11.463384326906521"><ele>573.0</ele><time>2026-04-12T11:31:52Z</time></trkpt><trkpt lat="44.21396291830855" lon="11.463306309959936"><ele>573.0</ele><time>2026-04-12T11:31:53Z</time></trkpt><trkpt lat="44.21388922724741" lon="11.4632418644436"><ele>573.0</ele><time>2026-04-12T11:31:54Z</time></trkpt><trkpt lat="44.21383422393818" lon="11.463178946089327"><ele>573.0</ele><time>2026-04-12T11:31:55Z</time></trkpt><trkpt lat="44.213841826678006" lon="11.463039951428538"><ele>573.0</ele><time>2026-04-12T11:31:56Z</time></trkpt><trkpt lat="44.21379923048416" lon="11.462917749254562"><ele>573.0</ele><time>2026-04-12T11:31:57Z</time></trkpt><trkpt lat="44.213739521995166" lon="11.462808261292798"><ele>579.6666666666666</ele><time>2026-04-12T11:31:58Z</time></trkpt><trkpt lat="44.21368239621667" lon="11.462743350413005"><ele>586.3333333333334</ele><time>2026-04-12T11:31:59Z</time></trkpt><trkpt lat="44.213617389597545" lon="11.462719441671169"><ele>593.0</ele><time>2026-04-12T11:32:00Z</time></trkpt><trkpt lat="44.2135397967769" lon="11.46268055051225"><ele>599.6666666666667</ele><time>2026-04-12T11:32:01Z</time></trkpt><trkpt lat="44.21345637964374" lon="11.46263397240701"><ele>606.3333333333334</ele><time>2026-04-12T11:32:02Z</time></trkpt><trkpt lat="44.213345462806274" lon="11.462556685692315"><ele>613.0</ele><time>2026-04-12T11:32:03Z</time></trkpt><trkpt lat="44.213262130395634" lon="11.462516792351867"><ele>613.0</ele><time>2026-04-12T11:32:04Z</time></trkpt><trkpt lat="44.213176182239785" lon="11.462449031306006"><ele>613.0</ele><time>2026-04-12T11:32:06Z</time></trkpt><trkpt lat="44.213098214574735" lon="11.46242603626808"><ele>613.0</ele><time>2026-04-12T11:32:09Z</time></trkpt><trkpt lat="44.21293098240474" lon="11.462476598792776"><ele>613.0</ele><time>2026-04-12T11:32:40Z</time></trkpt><trkpt lat="44.212828191042234" lon="11.462443152691002"><ele>609.0</ele><time>2026-04-12T11:32:42Z</time></trkpt><trkpt lat="44.21271489343064" lon="11.462355541836233"><ele>605.0</ele><time>2026-04-12T11:32:44Z</time></trkpt><trkpt lat="44.21264127245989" lon="11.462302674146649"><ele>601.0</ele><time>2026-04-12T11:32:45Z</time></trkpt><trkpt lat="44.2125643404533" lon="11.462244018826475"><ele>597.0</ele><time>2026-04-12T11:32:46Z</time></trkpt><trkpt lat="44.212491796158" lon="11.462189424019007"><ele>593.0</ele><time>2026-04-12T11:32:47Z</time></trkpt><trkpt lat="44.212396602689374" lon="11.462147169197278"><ele>592.4</ele><time>2026-04-12T11:32:48Z</time></trkpt><trkpt lat="44.21230191820713" lon="11.462154189721952"><ele>591.8</ele><time>2026-04-12T11:32:49Z</time></trkpt><trkpt lat="44.21223229946338" lon="11.462275270984806"><ele>591.2</ele><time>2026-04-12T11:32:50Z</time></trkpt><trkpt lat="44.212114853710695" lon="11.46227647164671"><ele>590.6</ele><time>2026-04-12T11:32:52Z</time></trkpt><trkpt lat="44.21204530783453" lon="11.462228950382869"><ele>590.0</ele><time>2026-04-12T11:32:53Z</time></trkpt><trkpt lat="44.21195384055157" lon="11.462154506069597"><ele>590.0</ele><time>2026-04-12T11:32:54Z</time></trkpt><trkpt lat="44.21186734153423" lon="11.46207308304384"><ele>590.0</ele><time>2026-04-12T11:32:55Z</time></trkpt><trkpt lat="44.21179857219381" lon="11.462027520254134"><ele>590.0</ele><time>2026-04-12T11:32:56Z</time></trkpt><trkpt lat="44.211698403497614" lon="11.461990194126972"><ele>590.0</ele><time>2026-04-12T11:32:58Z</time></trkpt><trkpt lat="44.211606107779616" lon="11.461997814023169"><ele>590.0</ele><time>2026-04-12T11:33:01Z</time></trkpt><trkpt lat="44.211556013646906" lon="11.462066051550263"><ele>590.0</ele><time>2026-04-12T11:33:03Z</time></trkpt><trkpt lat="44.211521251044516" lon="11.462140996440622"><ele>600.8</ele><time>2026-04-12T11:33:05Z</time></trkpt><trkpt lat="44.2114750307937" lon="11.462261285691294"><ele>611.6</ele><time>2026-04-12T11:33:07Z</time></trkpt><trkpt lat="44.21147140550271" lon="11.462395123737414"><ele>622.4000000000001</ele><time>2026-04-12T11:33:11Z</time></trkpt><trkpt lat="44.21140430579857" lon="11.462469045797242"><ele>633.2</ele><time>2026-04-12T11:33:14Z</time></trkpt><trkpt lat="44.211320455646174" lon="11.462525845696481"><ele>644.0</ele><time>2026-04-12T11:33:17Z</time></trkpt><trkpt lat="44.21128933001906" lon="11.462658855294524"><ele>644.0</ele><time>2026-04-12T11:33:20Z</time></trkpt><trkpt lat="44.21125385567563" lon="11.462773931766458"><ele>644.0</ele><time>2026-04-12T11:33:22Z</time></trkpt><trkpt lat="44.21124057281574" lon="11.462871610722384"><ele>644.0</ele><time>2026-04-12T11:33:24Z</time></trkpt><trkpt lat="44.21083704905166" lon="11.463377970292296"><ele>636.0</ele><time>2026-04-12T11:33:26Z</time></trkpt><trkpt lat="44.210734642295314" lon="11.463252717657687"><ele>628.0</ele><time>2026-04-12T11:33:28Z</time></trkpt><trkpt lat="44.21062698143288" lon="11.46316141353668"><ele>620.0</ele><time>2026-04-12T11:33:30Z</time></trkpt><trkpt lat="44.210518593472266" lon="11.463106631725369"><ele>612.0</ele><time>2026-04-12T11:33:32Z</time></trkpt><trkpt lat="44.2104252364944" lon="11.463113067865436"><ele>610.8333333333334</ele><time>2026-04-12T11:33:34Z</time></trkpt><trkpt lat="44.21033459577879" lon="11.46319723558099"><ele>609.6666666666666</ele><time>2026-04-12T11:33:36Z</time></trkpt><trkpt lat="44.21026154942077" lon="11.463244593211183"><ele>608.5</ele><time>2026-04-12T11:33:38Z</time></trkpt><trkpt lat="44.210181157511194" lon="11.463198635323248"><ele>607.3333333333333</ele><time>2026-04-12T11:33:40Z</time></trkpt><trkpt lat="44.210105383960524" lon="11.46310721483162"><ele>606.1666666666666</ele><time>2026-04-12T11:33:42Z</time></trkpt><trkpt lat="44.2100724183524" lon="11.463029189576806"><ele>605.0</ele><time>2026-04-12T11:33:43Z</time></trkpt><trkpt lat="44.210103221717766" lon="11.462937111438697"><ele>614.8</ele><time>2026-04-12T11:33:44Z</time></trkpt><trkpt lat="44.21008072119606" lon="11.462851906969043"><ele>624.6</ele><time>2026-04-12T11:33:45Z</time></trkpt><trkpt lat="44.21004856699864" lon="11.462712960101586"><ele>634.4000000000001</ele><time>2026-04-12T11:33:47Z</time></trkpt><trkpt lat="44.210105846901946" lon="11.462594458215563"><ele>644.2</ele><time>2026-04-12T11:33:48Z</time></trkpt><trkpt lat="44.21002171954411" lon="11.46260971301091"><ele>654.0</ele><time>2026-04-12T11:33:51Z</time></trkpt><trkpt lat="44.20992827800239" lon="11.462647990423525"><ele>651.5</ele><time>2026-04-12T11:33:53Z</time></trkpt><trkpt lat="44.209742272006665" lon="11.462673424388662"><ele>649.0</ele><time>2026-04-12T11:33:55Z</time></trkpt><trkpt lat="44.20963706973988" lon="11.46267254951394"><ele>646.5</ele><time>2026-04-12T11:33:56Z</time></trkpt><trkpt lat="44.20956541028331" lon="11.462635144651362"><ele>644.0</ele><time>2026-04-12T11:33:57Z</time></trkpt><trkpt lat="44.209469641343745" lon="11.462666337545064"><ele>644.0</ele><time>2026-04-12T11:33:58Z</time></trkpt><trkpt lat="44.209388715677264" lon="11.462671836699887"><ele>644.0</ele><time>2026-04-12T11:33:59Z</time></trkpt><trkpt lat="44.20930668070215" lon="11.462645689232037"><ele>644.0</ele><time>2026-04-12T11:34:00Z</time></trkpt><trkpt lat="44.209213521689875" lon="11.462606059525832"><ele>644.0</ele><time>2026-04-12T11:34:01Z</time></trkpt><trkpt lat="44.20914685863295" lon="11.462538511323803"><ele>644.0</ele><time>2026-04-12T11:34:02Z</time></trkpt><trkpt lat="44.209094543740726" lon="11.462462101605295"><ele>644.0</ele><time>2026-04-12T11:34:03Z</time></trkpt><trkpt lat="44.20904423126702" lon="11.462362239604332"><ele>644.0</ele><time>2026-04-12T11:34:04Z</time></trkpt><trkpt lat="44.20902118299106" lon="11.462278409768448"><ele>644.0</ele><time>2026-04-12T11:34:05Z</time></trkpt><trkpt lat="44.20900954783935" lon="11.46217508151092"><ele>644.0</ele><time>2026-04-12T11:34:06Z</time></trkpt><trkpt lat="44.20901956842666" lon="11.462044281278203"><ele>644.0</ele><time>2026-04-12T11:34:07Z</time></trkpt><trkpt lat="44.20903799885786" lon="11.461941232457782"><ele>644.0</ele><time>2026-04-12T11:34:08Z</time></trkpt><trkpt lat="44.209034067770425" lon="11.461794869189157"><ele>644.0</ele><time>2026-04-12T11:34:10Z</time></trkpt><trkpt lat="44.20897834240609" lon="11.461699222921803"><ele>651.6</ele><time>2026-04-12T11:34:12Z</time></trkpt><trkpt lat="44.2088833891547" lon="11.46173532471494"><ele>659.2</ele><time>2026-04-12T11:34:13Z</time></trkpt><trkpt lat="44.20879011907659" lon="11.461741356691102"><ele>666.8000000000001</ele><time>2026-04-12T11:34:14Z</time></trkpt><trkpt lat="44.20870823594551" lon="11.461728618954773"><ele>674.4000000000001</ele><time>2026-04-12T11:34:15Z</time></trkpt><trkpt lat="44.20861288162227" lon="11.461814206657612"><ele>682.0</ele><time>2026-04-12T11:34:16Z</time></trkpt><trkpt lat="44.20850784782722" lon="11.461823430639946"><ele>682.0</ele><time>2026-04-12T11:34:17Z</time></trkpt><trkpt lat="44.20842087065922" lon="11.461841068679137"><ele>682.0</ele><time>2026-04-12T11:34:18Z</time></trkpt><trkpt lat="44.20832688269634" lon="11.461864436586398"><ele>682.0</ele><time>2026-04-12T11:34:19Z</time></trkpt><trkpt lat="44.20822946847942" lon="11.46190261822806"><ele>682.0</ele><time>2026-04-12T11:34:20Z</time></trkpt><trkpt lat="44.208167699648236" lon="11.461951752906117"><ele>682.0</ele><time>2026-04-12T11:34:21Z</time></trkpt><trkpt lat="44.20810408734996" lon="11.462006249456397"><ele>682.0</ele><time>2026-04-12T11:34:22Z</time></trkpt><trkpt lat="44.208046889153394" lon="11.46208278754555"><ele>680.0</ele><time>2026-04-12T11:34:23Z</time></trkpt><trkpt lat="44.20800646832502" lon="11.462176094886622"><ele>678.0</ele><time>2026-04-12T11:34:24Z</time></trkpt><trkpt lat="44.207957238536565" lon="11.462291883214107"><ele>676.0</ele><time>2026-04-12T11:34:25Z</time></trkpt><trkpt lat="44.2079156600965" lon="11.462423854341148"><ele>674.0</ele><time>2026-04-12T11:34:26Z</time></trkpt><trkpt lat="44.20785494857736" lon="11.46254503026055"><ele>672.0</ele><time>2026-04-12T11:34:27Z</time></trkpt><trkpt lat="44.207789436721164" lon="11.462712784104529"><ele>672.0</ele><time>2026-04-12T11:34:28Z</time></trkpt><trkpt lat="44.20775738298283" lon="11.462868107684649"><ele>672.0</ele><time>2026-04-12T11:34:29Z</time></trkpt><trkpt lat="44.20772305587578" lon="11.462991893568217"><ele>672.0</ele><time>2026-04-12T11:34:30Z</time></trkpt><trkpt lat="44.20768873728283" lon="11.463105763807217"><ele>672.0</ele><time>2026-04-12T11:34:31Z</time></trkpt><trkpt lat="44.207686375570965" lon="11.463218859881806"><ele>672.0</ele><time>2026-04-12T11:34:32Z</time></trkpt><trkpt lat="44.20765268962211" lon="11.463331353655605"><ele>672.0</ele><time>2026-04-12T11:34:34Z</time></trkpt><trkpt lat="44.20754998466075" lon="11.463404769867871"><ele>672.0</ele><time>2026-04-12T11:34:36Z</time></trkpt><trkpt lat="44.207503088086426" lon="11.463294434832253"><ele>672.0</ele><time>2026-04-12T11:34:37Z</time></trkpt><trkpt lat="44.20751089013676" lon="11.463175606119641"><ele>672.0</ele><time>2026-04-12T11:34:40Z</time></trkpt><trkpt lat="44.20747860760598" lon="11.463095530575815"><ele>672.0</ele><time>2026-04-12T11:34:42Z</time></trkpt><trkpt lat="44.20740632450955" lon="11.462780111275842"><ele>672.0</ele><time>2026-04-12T11:34:45Z</time></trkpt><trkpt lat="44.20735280387409" lon="11.46263712598061"><ele>672.0</ele><time>2026-04-12T11:34:46Z</time></trkpt><trkpt lat="44.20730779483878" lon="11.46252825060903"><ele>672.0</ele><time>2026-04-12T11:34:47Z</time></trkpt><trkpt lat="44.20725859454841" lon="11.462439021344933"><ele>672.0</ele><time>2026-04-12T11:34:48Z</time></trkpt><trkpt lat="44.20716777574282" lon="11.46233792647212"><ele>672.0</ele><time>2026-04-12T11:34:50Z</time></trkpt><trkpt lat="44.207095581190075" lon="11.46221189346496"><ele>666.5</ele><time>2026-04-12T11:34:52Z</time></trkpt><trkpt lat="44.20708794097546" lon="11.462035372124198"><ele>661.0</ele><time>2026-04-12T11:34:54Z</time></trkpt><trkpt lat="44.20708514199811" lon="11.46194042689613"><ele>655.5</ele><time>2026-04-12T11:34:55Z</time></trkpt><trkpt lat="44.20708863683427" lon="11.461848888857775"><ele>650.0</ele><time>2026-04-12T11:34:56Z</time></trkpt><trkpt lat="44.20710742181748" lon="11.461758725756859"><ele>644.5</ele><time>2026-04-12T11:34:57Z</time></trkpt><trkpt lat="44.20710394994963" lon="11.461666269869356"><ele>639.0</ele><time>2026-04-12T11:34:58Z</time></trkpt><trkpt lat="44.20708215374039" lon="11.461553237235513"><ele>639.0</ele><time>2026-04-12T11:34:59Z</time></trkpt><trkpt lat="44.20707552407043" lon="11.461449045585727"><ele>639.0</ele><time>2026-04-12T11:35:00Z</time></trkpt><trkpt lat="44.207056079607504" lon="11.46135492064819"><ele>639.0</ele><time>2026-04-12T11:35:01Z</time></trkpt><trkpt lat="44.207033507122084" lon="11.461220917934657"><ele>639.0</ele><time>2026-04-12T11:35:03Z</time></trkpt><trkpt lat="44.207042147530025" lon="11.461067146412255"><ele>639.0</ele><time>2026-04-12T11:35:05Z</time></trkpt><trkpt lat="44.207068692909054" lon="11.460968624164181"><ele>639.0</ele><time>2026-04-12T11:35:06Z</time></trkpt><trkpt lat="44.207079465541874" lon="11.460877365579663"><ele>642.5</ele><time>2026-04-12T11:35:07Z</time></trkpt><trkpt lat="44.20705864210007" lon="11.46078716519976"><ele>646.0</ele><time>2026-04-12T11:35:08Z</time></trkpt><trkpt lat="44.20701592132918" lon="11.460694390473284"><ele>649.5</ele><time>2026-04-12T11:35:09Z</time></trkpt><trkpt lat="44.20695897206194" lon="11.460596327767858"><ele>653.0</ele><time>2026-04-12T11:35:10Z</time></trkpt><trkpt lat="44.20690012824392" lon="11.460511960695646"><ele>656.5</ele><time>2026-04-12T11:35:11Z</time></trkpt><trkpt lat="44.2068331135437" lon="11.460437683531689"><ele>660.0</ele><time>2026-04-12T11:35:12Z</time></trkpt><trkpt lat="44.20678969895428" lon="11.460358989640948"><ele>659.8333333333334</ele><time>2026-04-12T11:35:13Z</time></trkpt><trkpt lat="44.206699855766146" lon="11.460307147298868"><ele>659.6666666666666</ele><time>2026-04-12T11:35:14Z</time></trkpt><trkpt lat="44.206632431522515" lon="11.460312590230643"><ele>659.5</ele><time>2026-04-12T11:35:15Z</time></trkpt><trkpt lat="44.206551885361435" lon="11.460330581779258"><ele>659.3333333333333</ele><time>2026-04-12T11:35:16Z</time></trkpt><trkpt lat="44.20648544004201" lon="11.46038197935075"><ele>659.1666666666666</ele><time>2026-04-12T11:35:17Z</time></trkpt><trkpt lat="44.2064135136325" lon="11.460462786559653"><ele>659.0</ele><time>2026-04-12T11:35:18Z</time></trkpt><trkpt lat="44.20633671570739" lon="11.460574753529379"><ele>659.0</ele><time>2026-04-12T11:35:19Z</time></trkpt><trkpt lat="44.20627635917602" lon="11.460686332365022"><ele>659.0</ele><time>2026-04-12T11:35:20Z</time></trkpt><trkpt lat="44.206206373330744" lon="11.460788786373012"><ele>659.0</ele><time>2026-04-12T11:35:21Z</time></trkpt><trkpt lat="44.20614452438918" lon="11.46083176706206"><ele>659.0</ele><time>2026-04-12T11:35:22Z</time></trkpt><trkpt lat="44.20607244438971" lon="11.460847229821722"><ele>659.0</ele><time>2026-04-12T11:35:23Z</time></trkpt><trkpt lat="44.20597006960873" lon="11.460819599685967"><ele>659.0</ele><time>2026-04-12T11:35:24Z</time></trkpt><trkpt lat="44.20585595901928" lon="11.46074614387729"><ele>659.0</ele><time>2026-04-12T11:35:26Z</time></trkpt><trkpt lat="44.205812867277274" lon="11.460676915833842"><ele>659.0</ele><time>2026-04-12T11:35:27Z</time></trkpt><trkpt lat="44.20577285491612" lon="11.460556663137105"><ele>659.0</ele><time>2026-04-12T11:35:28Z</time></trkpt><trkpt lat="44.205720983931016" lon="11.460417555184366"><ele>659.0</ele><time>2026-04-12T11:35:29Z</time></trkpt><trkpt lat="44.20567051361115" lon="11.460287815673416"><ele>659.0</ele><time>2026-04-12T11:35:30Z</time></trkpt><trkpt lat="44.20562077612468" lon="11.460178476614754"><ele>657.6666666666666</ele><time>2026-04-12T11:35:31Z</time></trkpt><trkpt lat="44.20555868848219" lon="11.460109867235332"><ele>656.3333333333333</ele><time>2026-04-12T11:35:32Z</time></trkpt><trkpt lat="44.20548823310549" lon="11.46005038797997"><ele>655.0</ele><time>2026-04-12T11:35:33Z</time></trkpt><trkpt lat="44.20537394890855" lon="11.4600011710848"><ele>653.6666666666666</ele><time>2026-04-12T11:35:34Z</time></trkpt><trkpt lat="44.205286198359275" lon="11.459955304128085"><ele>652.3333333333334</ele><time>2026-04-12T11:35:35Z</time></trkpt><trkpt lat="44.205221478178935" lon="11.459929713254358"><ele>651.0</ele><time>2026-04-12T11:35:36Z</time></trkpt><trkpt lat="44.20514689604565" lon="11.459854475809218"><ele>651.0</ele><time>2026-04-12T11:35:38Z</time></trkpt><trkpt lat="44.20511977910922" lon="11.4597319564781"><ele>651.0</ele><time>2026-04-12T11:35:40Z</time></trkpt><trkpt lat="44.205166875856854" lon="11.45959863838968"><ele>651.0</ele><time>2026-04-12T11:35:42Z</time></trkpt><trkpt lat="44.20521576766634" lon="11.45947638289671"><ele>651.0</ele><time>2026-04-12T11:35:44Z</time></trkpt><trkpt lat="44.205266089388026" lon="11.459418962800257"><ele>651.0</ele><time>2026-04-12T11:35:45Z</time></trkpt><trkpt lat="44.20530945018263" lon="11.459274528752626"><ele>652.8333333333334</ele><time>2026-04-12T11:35:47Z</time></trkpt><trkpt lat="44.205279986265" lon="11.459158786611388"><ele>654.6666666666666</ele><time>2026-04-12T11:35:49Z</time></trkpt><trkpt lat="44.205222804948484" lon="11.459118045550873"><ele>656.5</ele><time>2026-04-12T11:35:52Z</time></trkpt><trkpt lat="44.20516556781898" lon="11.459058797749815"><ele>658.3333333333333</ele><time>2026-04-12T11:37:32Z</time></trkpt><trkpt lat="44.205101176821294" lon="11.459007960308467"><ele>660.1666666666666</ele><time>2026-04-12T11:37:34Z</time></trkpt><trkpt lat="44.20504604887633" lon="11.458877443029015"><ele>662.0</ele><time>2026-04-12T11:37:36Z</time></trkpt><trkpt lat="44.205005531840115" lon="11.458750302443047"><ele>666.0</ele><time>2026-04-12T11:37:38Z</time></trkpt><trkpt lat="44.2049509609008" lon="11.458637087844007"><ele>670.0</ele><time>2026-04-12T11:37:40Z</time></trkpt><trkpt lat="44.20488295383404" lon="11.458589030908781"><ele>674.0</ele><time>2026-04-12T11:37:41Z</time></trkpt><trkpt lat="44.20481661187394" lon="11.45856561482206"><ele>678.0</ele><time>2026-04-12T11:37:42Z</time></trkpt><trkpt lat="44.20473711411115" lon="11.458572479144237"><ele>682.0</ele><time>2026-04-12T11:37:43Z</time></trkpt><trkpt lat="44.204660852924285" lon="11.458676305922483"><ele>686.0</ele><time>2026-04-12T11:37:44Z</time></trkpt><trkpt lat="44.2046110838743" lon="11.458744486759398"><ele>680.8</ele><time>2026-04-12T11:37:45Z</time></trkpt><trkpt lat="44.20454847156249" lon="11.458865509827431"><ele>675.5999999999999</ele><time>2026-04-12T11:37:47Z</time></trkpt><trkpt lat="44.20443659418453" lon="11.458886598878738"><ele>670.4</ele><time>2026-04-12T11:37:49Z</time></trkpt><trkpt lat="44.20430165769149" lon="11.458864594091734"><ele>665.2</ele><time>2026-04-12T11:37:51Z</time></trkpt><trkpt lat="44.2042285543157" lon="11.458856811861237"><ele>660.0</ele><time>2026-04-12T11:37:52Z</time></trkpt><trkpt lat="44.204123041185596" lon="11.45882313735187"><ele>665.8</ele><time>2026-04-12T11:37:54Z</time></trkpt><trkpt lat="44.204061878100454" lon="11.458709727066102"><ele>671.6</ele><time>2026-04-12T11:37:56Z</time></trkpt><trkpt lat="44.20402751922311" lon="11.45859284902557"><ele>677.4000000000001</ele><time>2026-04-12T11:37:58Z</time></trkpt><trkpt lat="44.203943861787984" lon="11.45850539449302"><ele>683.2</ele><time>2026-04-12T11:38:00Z</time></trkpt><trkpt lat="44.203820802337795" lon="11.45853011685269"><ele>689.0</ele><time>2026-04-12T11:38:02Z</time></trkpt><trkpt lat="44.20376404174963" lon="11.458597770441102"><ele>690.4000000000001</ele><time>2026-04-12T11:38:03Z</time></trkpt><trkpt lat="44.20375019668061" lon="11.45869568642537"><ele>691.8</ele><time>2026-04-12T11:38:04Z</time></trkpt><trkpt lat="44.20369280290617" lon="11.45883546414674"><ele>693.2</ele><time>2026-04-12T11:38:06Z</time></trkpt><trkpt lat="44.20366648006186" lon="11.458930904554398"><ele>694.5999999999999</ele><time>2026-04-12T11:38:07Z</time></trkpt><trkpt lat="44.203639338304534" lon="11.459090640578289"><ele>696.0</ele><time>2026-04-12T11:38:09Z</time></trkpt><trkpt lat="44.20362293556333" lon="11.459188642082854"><ele>696.0</ele><time>2026-04-12T11:38:10Z</time></trkpt><trkpt lat="44.203604621303285" lon="11.459289730584855"><ele>696.0</ele><time>2026-04-12T11:38:11Z</time></trkpt><trkpt lat="44.20359964619423" lon="11.45944804844806"><ele>696.0</ele><time>2026-04-12T11:38:12Z</time></trkpt><trkpt lat="44.20361599611954" lon="11.45956674283862"><ele>696.0</ele><time>2026-04-12T11:38:13Z</time></trkpt><trkpt lat="44.20361567384455" lon="11.459684724399978"><ele>696.0</ele><time>2026-04-12T11:38:14Z</time></trkpt><trkpt lat="44.20360181174093" lon="11.45980268776824"><ele>696.0</ele><time>2026-04-12T11:38:15Z</time></trkpt><trkpt lat="44.2035892501827" lon="11.459930138496864"><ele>694.8333333333334</ele><time>2026-04-12T11:38:16Z</time></trkpt><trkpt lat="44.20357693381338" lon="11.4600470026573"><ele>693.6666666666666</ele><time>2026-04-12T11:38:17Z</time></trkpt><trkpt lat="44.20356589037358" lon="11.460186066681487"><ele>692.5</ele><time>2026-04-12T11:38:18Z</time></trkpt><trkpt lat="44.20356830118303" lon="11.460281696059148"><ele>691.3333333333333</ele><time>2026-04-12T11:38:19Z</time></trkpt><trkpt lat="44.20354186551285" lon="11.460372109253191"><ele>690.1666666666666</ele><time>2026-04-12T11:38:21Z</time></trkpt><trkpt lat="44.203477039482266" lon="11.460402228514653"><ele>689.0</ele><time>2026-04-12T11:38:22Z</time></trkpt><trkpt lat="44.203395740872956" lon="11.460402482701765"><ele>691.25</ele><time>2026-04-12T11:38:23Z</time></trkpt><trkpt lat="44.2032978301717" lon="11.460473112880173"><ele>693.5</ele><time>2026-04-12T11:38:24Z</time></trkpt><trkpt lat="44.20320603745533" lon="11.460547243665658"><ele>695.75</ele><time>2026-04-12T11:38:25Z</time></trkpt><trkpt lat="44.203091824138504" lon="11.460634280189996"><ele>698.0</ele><time>2026-04-12T11:38:26Z</time></trkpt><trkpt lat="44.202997615775914" lon="11.460706071885177"><ele>698.0</ele><time>2026-04-12T11:38:27Z</time></trkpt><trkpt lat="44.20289907422873" lon="11.460781522751637"><ele>698.0</ele><time>2026-04-12T11:38:28Z</time></trkpt><trkpt lat="44.20280224597798" lon="11.460856741657292"><ele>698.0</ele><time>2026-04-12T11:38:29Z</time></trkpt><trkpt lat="44.2027169626904" lon="11.460922992121366"><ele>698.0</ele><time>2026-04-12T11:38:30Z</time></trkpt><trkpt lat="44.20264464374466" lon="11.460986755552575"><ele>698.0</ele><time>2026-04-12T11:38:31Z</time></trkpt><trkpt lat="44.2025906622399" lon="11.461061273577227"><ele>698.0</ele><time>2026-04-12T11:38:32Z</time></trkpt><trkpt lat="44.20254712268459" lon="11.461174108466283"><ele>698.0</ele><time>2026-04-12T11:38:34Z</time></trkpt><trkpt lat="44.20257368459123" lon="11.46129596652854"><ele>698.0</ele><time>2026-04-12T11:38:35Z</time></trkpt><trkpt lat="44.20256815599183" lon="11.461400157763713"><ele>698.0</ele><time>2026-04-12T11:38:36Z</time></trkpt><trkpt lat="44.20253915131569" lon="11.461531124807005"><ele>698.0</ele><time>2026-04-12T11:38:38Z</time></trkpt><trkpt lat="44.20247605375999" lon="11.461593897472902"><ele>698.0</ele><time>2026-04-12T11:38:39Z</time></trkpt><trkpt lat="44.202375249336704" lon="11.461661914659866"><ele>700.25</ele><time>2026-04-12T11:38:40Z</time></trkpt><trkpt lat="44.202263871439655" lon="11.461804746269419"><ele>702.5</ele><time>2026-04-12T11:38:41Z</time></trkpt><trkpt lat="44.20216436631276" lon="11.461943409663418"><ele>704.75</ele><time>2026-04-12T11:38:42Z</time></trkpt><trkpt lat="44.202072222518325" lon="11.462024961556233"><ele>707.0</ele><time>2026-04-12T11:38:43Z</time></trkpt><trkpt lat="44.20198744046657" lon="11.462106133020635"><ele>702.6</ele><time>2026-04-12T11:38:44Z</time></trkpt><trkpt lat="44.20192133256589" lon="11.462200095053452"><ele>698.2</ele><time>2026-04-12T11:38:45Z</time></trkpt><trkpt lat="44.20187263199658" lon="11.462332576780891"><ele>693.8</ele><time>2026-04-12T11:38:46Z</time></trkpt><trkpt lat="44.201797813089925" lon="11.462429154859766"><ele>689.4</ele><time>2026-04-12T11:38:47Z</time></trkpt><trkpt lat="44.20172227554706" lon="11.462534374562354"><ele>685.0</ele><time>2026-04-12T11:38:48Z</time></trkpt><trkpt lat="44.20167630703711" lon="11.462680158503677"><ele>685.0</ele><time>2026-04-12T11:38:49Z</time></trkpt><trkpt lat="44.20163174433629" lon="11.462774191132123"><ele>685.0</ele><time>2026-04-12T11:38:50Z</time></trkpt><trkpt lat="44.201602507966925" lon="11.462886730238115"><ele>685.0</ele><time>2026-04-12T11:38:51Z</time></trkpt><trkpt lat="44.20158014744383" lon="11.462990806696073"><ele>685.0</ele><time>2026-04-12T11:38:52Z</time></trkpt><trkpt lat="44.20153098380745" lon="11.463177810520113"><ele>685.0</ele><time>2026-04-12T11:38:54Z</time></trkpt><trkpt lat="44.20150070872382" lon="11.46326504580623"><ele>685.4285714285714</ele><time>2026-04-12T11:38:55Z</time></trkpt><trkpt lat="44.20145801335691" lon="11.463367915452793"><ele>685.8571428571429</ele><time>2026-04-12T11:38:56Z</time></trkpt><trkpt lat="44.201429235282966" lon="11.46346360022818"><ele>686.2857142857143</ele><time>2026-04-12T11:38:57Z</time></trkpt><trkpt lat="44.20138644243889" lon="11.463537897478314"><ele>686.7142857142858</ele><time>2026-04-12T11:38:58Z</time></trkpt><trkpt lat="44.201334611525105" lon="11.463603170648486"><ele>687.1428571428571</ele><time>2026-04-12T11:38:59Z</time></trkpt><trkpt lat="44.20127520992463" lon="11.46365623486453"><ele>687.5714285714287</ele><time>2026-04-12T11:39:00Z</time></trkpt><trkpt lat="44.201204079181835" lon="11.463664906645372"><ele>688.0</ele><time>2026-04-12T11:39:01Z</time></trkpt><trkpt lat="44.20115186981502" lon="11.463725458415759"><ele>680.8</ele><time>2026-04-12T11:39:02Z</time></trkpt><trkpt lat="44.20109457130533" lon="11.463855850280876"><ele>673.5999999999999</ele><time>2026-04-12T11:39:04Z</time></trkpt><trkpt lat="44.20105817315284" lon="11.463972118669577"><ele>666.4000000000001</ele><time>2026-04-12T11:39:06Z</time></trkpt><trkpt lat="44.20098103114351" lon="11.464050565004234"><ele>659.2</ele><time>2026-04-12T11:39:08Z</time></trkpt><trkpt lat="44.20091017828049" lon="11.464011819928787"><ele>652.0</ele><time>2026-04-12T11:39:11Z</time></trkpt><trkpt lat="44.20081801603609" lon="11.464053832105582"><ele>652.0</ele><time>2026-04-12T11:39:13Z</time></trkpt><trkpt lat="44.2007558597949" lon="11.463994926420717"><ele>652.0</ele><time>2026-04-12T11:39:15Z</time></trkpt><trkpt lat="44.20068262174443" lon="11.463960339611186"><ele>652.0</ele><time>2026-04-12T11:39:17Z</time></trkpt><trkpt lat="44.200614706076664" lon="11.463955465404137"><ele>652.0</ele><time>2026-04-12T11:39:19Z</time></trkpt><trkpt lat="44.20053267033266" lon="11.463968517063162"><ele>652.0</ele><time>2026-04-12T11:39:22Z</time></trkpt><trkpt lat="44.200472344540664" lon="11.464003428561158"><ele>652.0</ele><time>2026-04-12T11:39:23Z</time></trkpt><trkpt lat="44.20038379599202" lon="11.464027032705747"><ele>653.0</ele><time>2026-04-12T11:39:24Z</time></trkpt><trkpt lat="44.200276898027894" lon="11.464065547086145"><ele>654.0</ele><time>2026-04-12T11:39:25Z</time></trkpt><trkpt lat="44.200159846811935" lon="11.46410138661979"><ele>655.0</ele><time>2026-04-12T11:39:26Z</time></trkpt><trkpt lat="44.20005231917636" lon="11.46414267389726"><ele>656.0</ele><time>2026-04-12T11:39:27Z</time></trkpt><trkpt lat="44.19995658279539" lon="11.464188524177416"><ele>657.0</ele><time>2026-04-12T11:39:28Z</time></trkpt><trkpt lat="44.199863347049934" lon="11.464236946010518"><ele>659.4000000000001</ele><time>2026-04-12T11:39:29Z</time></trkpt><trkpt lat="44.19979775049526" lon="11.46427781397891"><ele>661.8000000000001</ele><time>2026-04-12T11:39:30Z</time></trkpt><trkpt lat="44.19970847053022" lon="11.464351479866792"><ele>664.2</ele><time>2026-04-12T11:39:32Z</time></trkpt><trkpt lat="44.19974517781571" lon="11.464554153696042"><ele>666.6</ele><time>2026-04-12T11:39:36Z</time></trkpt><trkpt lat="44.19976781236428" lon="11.464678485120595"><ele>669.0</ele><time>2026-04-12T11:39:37Z</time></trkpt><trkpt lat="44.19980258510246" lon="11.464829954563267"><ele>669.0</ele><time>2026-04-12T11:39:38Z</time></trkpt><trkpt lat="44.199818523267524" lon="11.464975602361156"><ele>669.0</ele><time>2026-04-12T11:39:39Z</time></trkpt><trkpt lat="44.19981601665335" lon="11.465110242320437"><ele>669.0</ele><time>2026-04-12T11:39:40Z</time></trkpt><trkpt lat="44.19981104625659" lon="11.465247060197731"><ele>669.0</ele><time>2026-04-12T11:39:41Z</time></trkpt><trkpt lat="44.1997863735463" lon="11.465393284363598"><ele>669.0</ele><time>2026-04-12T11:39:42Z</time></trkpt><trkpt lat="44.19975804616854" lon="11.465516549056062"><ele>670.4000000000001</ele><time>2026-04-12T11:39:43Z</time></trkpt><trkpt lat="44.19971258077755" lon="11.465615606624324"><ele>671.8</ele><time>2026-04-12T11:39:44Z</time></trkpt><trkpt lat="44.19967837914094" lon="11.465731218059924"><ele>673.2</ele><time>2026-04-12T11:39:45Z</time></trkpt><trkpt lat="44.19962304217338" lon="11.465847369358203"><ele>674.5999999999999</ele><time>2026-04-12T11:39:46Z</time></trkpt><trkpt lat="44.199593065198336" lon="11.465978734328775"><ele>676.0</ele><time>2026-04-12T11:39:47Z</time></trkpt><trkpt lat="44.199563642534365" lon="11.466103283289648"><ele>676.0</ele><time>2026-04-12T11:39:48Z</time></trkpt><trkpt lat="44.19953938176827" lon="11.466211586835053"><ele>676.0</ele><time>2026-04-12T11:39:49Z</time></trkpt><trkpt lat="44.19950162052833" lon="11.46632401521617"><ele>676.0</ele><time>2026-04-12T11:39:50Z</time></trkpt><trkpt lat="44.199495606022225" lon="11.466422610594728"><ele>676.0</ele><time>2026-04-12T11:39:51Z</time></trkpt><trkpt lat="44.19947071197618" lon="11.466520095842993"><ele>676.0</ele><time>2026-04-12T11:39:52Z</time></trkpt><trkpt lat="44.19946256329882" lon="11.46664881493849"><ele>676.0</ele><time>2026-04-12T11:39:53Z</time></trkpt><trkpt lat="44.19947308078036" lon="11.466777592220579"><ele>675.8333333333334</ele><time>2026-04-12T11:39:54Z</time></trkpt><trkpt lat="44.19948401431927" lon="11.46688521238571"><ele>675.6666666666667</ele><time>2026-04-12T11:39:55Z</time></trkpt><trkpt lat="44.19945082300169" lon="11.467014565999332"><ele>675.5</ele><time>2026-04-12T11:39:57Z</time></trkpt><trkpt lat="44.199350213534814" lon="11.467117545662097"><ele>675.3333333333334</ele><time>2026-04-12T11:39:59Z</time></trkpt><trkpt lat="44.19929554935218" lon="11.46716466918331"><ele>675.1666666666666</ele><time>2026-04-12T11:40:00Z</time></trkpt><trkpt lat="44.19922166321841" lon="11.467213343751354"><ele>675.0</ele><time>2026-04-12T11:40:01Z</time></trkpt><trkpt lat="44.19912915768151" lon="11.467296942063808"><ele>675.0</ele><time>2026-04-12T11:40:02Z</time></trkpt><trkpt lat="44.19903627335959" lon="11.46739866714338"><ele>675.0</ele><time>2026-04-12T11:40:03Z</time></trkpt><trkpt lat="44.19897870729256" lon="11.467493995230514"><ele>675.0</ele><time>2026-04-12T11:40:04Z</time></trkpt><trkpt lat="44.19891762217671" lon="11.467571750552697"><ele>675.0</ele><time>2026-04-12T11:40:05Z</time></trkpt><trkpt lat="44.19885857199098" lon="11.467607397223695"><ele>675.0</ele><time>2026-04-12T11:40:06Z</time></trkpt><trkpt lat="44.19880982021644" lon="11.467663046711309"><ele>675.0</ele><time>2026-04-12T11:40:07Z</time></trkpt><trkpt lat="44.19876201226651" lon="11.467731664726204"><ele>677.3333333333334</ele><time>2026-04-12T11:40:08Z</time></trkpt><trkpt lat="44.19867108049911" lon="11.46784354754598"><ele>679.6666666666666</ele><time>2026-04-12T11:40:10Z</time></trkpt><trkpt lat="44.1986151470437" lon="11.467896138900873"><ele>682.0</ele><time>2026-04-12T11:40:11Z</time></trkpt><trkpt lat="44.19853394516676" lon="11.467938331573418"><ele>684.3333333333333</ele><time>2026-04-12T11:40:12Z</time></trkpt><trkpt lat="44.1984861893845" lon="11.468015170139173"><ele>686.6666666666666</ele><time>2026-04-12T11:40:13Z</time></trkpt><trkpt lat="44.198436564434814" lon="11.468098033741597"><ele>689.0</ele><time>2026-04-12T11:40:14Z</time></trkpt><trkpt lat="44.19841824698481" lon="11.468218239628907"><ele>689.0</ele><time>2026-04-12T11:40:15Z</time></trkpt><trkpt lat="44.19837892359827" lon="11.468308747806555"><ele>689.0</ele><time>2026-04-12T11:40:16Z</time></trkpt><trkpt lat="44.19828355542136" lon="11.46840714588625"><ele>689.0</ele><time>2026-04-12T11:40:17Z</time></trkpt><trkpt lat="44.19821879477536" lon="11.468493352841351"><ele>689.0</ele><time>2026-04-12T11:40:18Z</time></trkpt><trkpt lat="44.19817801061417" lon="11.468587248501342"><ele>689.0</ele><time>2026-04-12T11:40:19Z</time></trkpt><trkpt lat="44.198170816567945" lon="11.468718736773292"><ele>688.8000000000001</ele><time>2026-04-12T11:40:21Z</time></trkpt><trkpt lat="44.198197813058044" lon="11.468899644439498"><ele>688.6</ele><time>2026-04-12T11:40:23Z</time></trkpt><trkpt lat="44.19825362529019" lon="11.46901804245151"><ele>688.4</ele><time>2026-04-12T11:40:24Z</time></trkpt><trkpt lat="44.19830895507658" lon="11.469128245898604"><ele>688.2</ele><time>2026-04-12T11:40:25Z</time></trkpt><trkpt lat="44.19836498273827" lon="11.469197715053829"><ele>688.0</ele><time>2026-04-12T11:40:26Z</time></trkpt><trkpt lat="44.19841168084095" lon="11.469308064006322"><ele>688.0</ele><time>2026-04-12T11:40:27Z</time></trkpt><trkpt lat="44.198484147625386" lon="11.46940956533912"><ele>688.0</ele><time>2026-04-12T11:40:28Z</time></trkpt><trkpt lat="44.198544732811655" lon="11.469469266241438"><ele>688.0</ele><time>2026-04-12T11:40:29Z</time></trkpt><trkpt lat="44.19862308375026" lon="11.469517405330482"><ele>688.0</ele><time>2026-04-12T11:40:30Z</time></trkpt><trkpt lat="44.19868820403021" lon="11.469593049005043"><ele>688.0</ele><time>2026-04-12T11:40:31Z</time></trkpt><trkpt lat="44.19874877537691" lon="11.469764245498299"><ele>688.0</ele><time>2026-04-12T11:40:33Z</time></trkpt><trkpt lat="44.1987968343669" lon="11.469842151563638"><ele>688.0</ele><time>2026-04-12T11:40:34Z</time></trkpt><trkpt lat="44.198882147543046" lon="11.469900807422963"><ele>688.0</ele><time>2026-04-12T11:40:35Z</time></trkpt><trkpt lat="44.19893932902489" lon="11.469957703321652"><ele>688.0</ele><time>2026-04-12T11:40:36Z</time></trkpt><trkpt lat="44.198998902797534" lon="11.470023531021083"><ele>688.0</ele><time>2026-04-12T11:40:37Z</time></trkpt><trkpt lat="44.19904086527608" lon="11.470116154759475"><ele>688.0</ele><time>2026-04-12T11:40:38Z</time></trkpt><trkpt lat="44.19909707166185" lon="11.470188967082276"><ele>688.0</ele><time>2026-04-12T11:40:39Z</time></trkpt><trkpt lat="44.19914819594382" lon="11.47030516828127"><ele>688.0</ele><time>2026-04-12T11:40:40Z</time></trkpt><trkpt lat="44.19919822527234" lon="11.470421130841437"><ele>688.0</ele><time>2026-04-12T11:40:41Z</time></trkpt><trkpt lat="44.19925541961055" lon="11.47053089620993"><ele>688.0</ele><time>2026-04-12T11:40:42Z</time></trkpt><trkpt lat="44.1992992785734" lon="11.47064748152704"><ele>688.0</ele><time>2026-04-12T11:40:43Z</time></trkpt><trkpt lat="44.19935281609281" lon="11.470774818770249"><ele>690.0</ele><time>2026-04-12T11:40:44Z</time></trkpt><trkpt lat="44.19939183655406" lon="11.470860498913272"><ele>692.0</ele><time>2026-04-12T11:40:45Z</time></trkpt><trkpt lat="44.199453062159655" lon="11.470967372030719"><ele>694.0</ele><time>2026-04-12T11:40:46Z</time></trkpt><trkpt lat="44.199527960153596" lon="11.47107612956347"><ele>696.0</ele><time>2026-04-12T11:40:47Z</time></trkpt><trkpt lat="44.19960423580054" lon="11.471195758972389"><ele>698.0</ele><time>2026-04-12T11:40:48Z</time></trkpt><trkpt lat="44.199689035996926" lon="11.471314009978803"><ele>697.8</ele><time>2026-04-12T11:40:49Z</time></trkpt><trkpt lat="44.199768078040286" lon="11.471420372990268"><ele>697.5999999999999</ele><time>2026-04-12T11:40:50Z</time></trkpt><trkpt lat="44.19984121109229" lon="11.471501931831677"><ele>697.4000000000001</ele><time>2026-04-12T11:40:51Z</time></trkpt><trkpt lat="44.19989755869052" lon="11.471594743935025"><ele>697.2</ele><time>2026-04-12T11:40:52Z</time></trkpt><trkpt lat="44.1999624931312" lon="11.471715875610338"><ele>697.0</ele><time>2026-04-12T11:40:53Z</time></trkpt><trkpt lat="44.20005636640542" lon="11.471833110174302"><ele>697.0</ele><time>2026-04-12T11:40:54Z</time></trkpt><trkpt lat="44.20011190384654" lon="11.471961033053175"><ele>697.0</ele><time>2026-04-12T11:40:55Z</time></trkpt><trkpt lat="44.20014901504085" lon="11.472050726382824"><ele>697.0</ele><time>2026-04-12T11:40:56Z</time></trkpt><trkpt lat="44.20020136613482" lon="11.47221859607063"><ele>697.0</ele><time>2026-04-12T11:40:57Z</time></trkpt><trkpt lat="44.20026039669536" lon="11.472364968152817"><ele>697.0</ele><time>2026-04-12T11:40:58Z</time></trkpt><trkpt lat="44.20032439295925" lon="11.47249549165072"><ele>696.4000000000001</ele><time>2026-04-12T11:40:59Z</time></trkpt><trkpt lat="44.2003942802301" lon="11.472629641075832"><ele>695.8000000000001</ele><time>2026-04-12T11:41:00Z</time></trkpt><trkpt lat="44.20043647803538" lon="11.472699612990045"><ele>695.2</ele><time>2026-04-12T11:41:01Z</time></trkpt><trkpt lat="44.20051677956902" lon="11.472788109532656"><ele>694.6</ele><time>2026-04-12T11:41:03Z</time></trkpt><trkpt lat="44.200630175103605" lon="11.47283197151223"><ele>694.0</ele><time>2026-04-12T11:41:05Z</time></trkpt><trkpt lat="44.200695821106734" lon="11.472841649139689"><ele>694.0</ele><time>2026-04-12T11:41:06Z</time></trkpt><trkpt lat="44.20076278938317" lon="11.472879486680254"><ele>694.0</ele><time>2026-04-12T11:41:07Z</time></trkpt><trkpt lat="44.20082972241371" lon="11.472926355094096"><ele>694.0</ele><time>2026-04-12T11:41:08Z</time></trkpt><trkpt lat="44.20089619556031" lon="11.472969515835086"><ele>694.0</ele><time>2026-04-12T11:41:09Z</time></trkpt><trkpt lat="44.20096712746981" lon="11.473011151890054"><ele>694.0</ele><time>2026-04-12T11:41:10Z</time></trkpt><trkpt lat="44.201041534348725" lon="11.473043617215883"><ele>694.0</ele><time>2026-04-12T11:41:11Z</time></trkpt><trkpt lat="44.201120026555714" lon="11.47306739419495"><ele>693.8333333333334</ele><time>2026-04-12T11:41:12Z</time></trkpt><trkpt lat="44.20120526015086" lon="11.473091067507234"><ele>693.6666666666667</ele><time>2026-04-12T11:41:13Z</time></trkpt><trkpt lat="44.201293478943775" lon="11.473110178307666"><ele>693.5</ele><time>2026-04-12T11:41:14Z</time></trkpt><trkpt lat="44.20138406990589" lon="11.473131016854811"><ele>693.3333333333334</ele><time>2026-04-12T11:41:15Z</time></trkpt><trkpt lat="44.201465819846256" lon="11.473157085307557"><ele>693.1666666666666</ele><time>2026-04-12T11:41:16Z</time></trkpt><trkpt lat="44.20153647878965" lon="11.473183347254878"><ele>693.0</ele><time>2026-04-12T11:41:17Z</time></trkpt><trkpt lat="44.20159833172128" lon="11.473207622288939"><ele>693.0</ele><time>2026-04-12T11:41:18Z</time></trkpt><trkpt lat="44.201674603027286" lon="11.473231239450465"><ele>693.0</ele><time>2026-04-12T11:41:19Z</time></trkpt><trkpt lat="44.201746706173026" lon="11.473254673523243"><ele>693.0</ele><time>2026-04-12T11:41:20Z</time></trkpt><trkpt lat="44.20181116922106" lon="11.473281146306007"><ele>693.0</ele><time>2026-04-12T11:41:21Z</time></trkpt><trkpt lat="44.20187755755609" lon="11.47330703201156"><ele>693.0</ele><time>2026-04-12T11:41:22Z</time></trkpt><trkpt lat="44.20193858817598" lon="11.473336792949159"><ele>693.0</ele><time>2026-04-12T11:41:23Z</time></trkpt><trkpt lat="44.202000134385415" lon="11.473366717464655"><ele>693.0</ele><time>2026-04-12T11:41:24Z</time></trkpt><trkpt lat="44.20210258516458" lon="11.473426978862548"><ele>693.0</ele><time>2026-04-12T11:41:26Z</time></trkpt><trkpt lat="44.20216191228923" lon="11.473469724338944"><ele>693.0</ele><time>2026-04-12T11:41:28Z</time></trkpt><trkpt lat="44.202224700747216" lon="11.473506092798914"><ele>693.0</ele><time>2026-04-12T11:41:30Z</time></trkpt><trkpt lat="44.20231405881799" lon="11.473560754049204"><ele>693.0</ele><time>2026-04-12T11:41:32Z</time></trkpt><trkpt lat="44.20240758252111" lon="11.473633612013524"><ele>693.0</ele><time>2026-04-12T11:41:34Z</time></trkpt><trkpt lat="44.20250429082733" lon="11.47372664658671"><ele>692.1666666666666</ele><time>2026-04-12T11:41:36Z</time></trkpt><trkpt lat="44.20261820675484" lon="11.473810402045297"><ele>691.3333333333334</ele><time>2026-04-12T11:41:38Z</time></trkpt><trkpt lat="44.202673541293485" lon="11.473855431234586"><ele>690.5</ele><time>2026-04-12T11:41:39Z</time></trkpt><trkpt lat="44.202729441731925" lon="11.473904357023276"><ele>689.6666666666667</ele><time>2026-04-12T11:41:40Z</time></trkpt><trkpt lat="44.202795566812355" lon="11.473957929328122"><ele>688.8333333333334</ele><time>2026-04-12T11:41:41Z</time></trkpt><trkpt lat="44.2028733077681" lon="11.474015822308031"><ele>688.0</ele><time>2026-04-12T11:41:42Z</time></trkpt><trkpt lat="44.202959188438534" lon="11.474081221436878"><ele>688.0</ele><time>2026-04-12T11:41:43Z</time></trkpt><trkpt lat="44.20304616666789" lon="11.474148439757123"><ele>688.0</ele><time>2026-04-12T11:41:44Z</time></trkpt><trkpt lat="44.203128928174515" lon="11.474226125792024"><ele>688.0</ele><time>2026-04-12T11:41:45Z</time></trkpt><trkpt lat="44.203213245936276" lon="11.474302595853457"><ele>688.0</ele><time>2026-04-12T11:41:46Z</time></trkpt><trkpt lat="44.20330529848378" lon="11.474386543357838"><ele>688.0</ele><time>2026-04-12T11:41:47Z</time></trkpt><trkpt lat="44.20340233686231" lon="11.474467084754544"><ele>687.5</ele><time>2026-04-12T11:41:48Z</time></trkpt><trkpt lat="44.20352020245191" lon="11.474523244026699"><ele>687.0</ele><time>2026-04-12T11:41:49Z</time></trkpt><trkpt lat="44.203635477621255" lon="11.474581800262461"><ele>686.5</ele><time>2026-04-12T11:41:50Z</time></trkpt><trkpt lat="44.203752206737995" lon="11.474646508067565"><ele>686.0</ele><time>2026-04-12T11:41:51Z</time></trkpt><trkpt lat="44.203870419489746" lon="11.474710269903506"><ele>686.0</ele><time>2026-04-12T11:41:52Z</time></trkpt><trkpt lat="44.203973492850814" lon="11.474780762842414"><ele>686.0</ele><time>2026-04-12T11:41:53Z</time></trkpt><trkpt lat="44.20408061307484" lon="11.474850178688524"><ele>686.0</ele><time>2026-04-12T11:41:54Z</time></trkpt><trkpt lat="44.204204869445725" lon="11.474898540742096"><ele>686.0</ele><time>2026-04-12T11:41:55Z</time></trkpt><trkpt lat="44.20432595163592" lon="11.474969992614382"><ele>681.75</ele><time>2026-04-12T11:41:56Z</time></trkpt><trkpt lat="44.20444463359149" lon="11.475027788713193"><ele>677.5</ele><time>2026-04-12T11:41:57Z</time></trkpt><trkpt lat="44.204552779231406" lon="11.47507980631553"><ele>673.25</ele><time>2026-04-12T11:41:58Z</time></trkpt><trkpt lat="44.20466927959974" lon="11.475122068767346"><ele>669.0</ele><time>2026-04-12T11:41:59Z</time></trkpt><trkpt lat="44.20479164764951" lon="11.475157566203592"><ele>666.25</ele><time>2026-04-12T11:42:00Z</time></trkpt><trkpt lat="44.204908344557985" lon="11.475196597387777"><ele>663.5</ele><time>2026-04-12T11:42:01Z</time></trkpt><trkpt lat="44.20503664819281" lon="11.475214642283303"><ele>660.75</ele><time>2026-04-12T11:42:02Z</time></trkpt><trkpt lat="44.20516109360711" lon="11.4752434635642"><ele>658.0</ele><time>2026-04-12T11:42:03Z</time></trkpt><trkpt lat="44.20527422655843" lon="11.475249595652087"><ele>658.0</ele><time>2026-04-12T11:42:04Z</time></trkpt><trkpt lat="44.20539122402516" lon="11.475284147521926"><ele>658.0</ele><time>2026-04-12T11:42:05Z</time></trkpt><trkpt lat="44.20548978365247" lon="11.475297276786897"><ele>658.0</ele><time>2026-04-12T11:42:06Z</time></trkpt><trkpt lat="44.20560291439492" lon="11.475312167673339"><ele>658.0</ele><time>2026-04-12T11:42:07Z</time></trkpt><trkpt lat="44.20571914572773" lon="11.475337153621503"><ele>656.25</ele><time>2026-04-12T11:42:08Z</time></trkpt><trkpt lat="44.20583542694017" lon="11.475388082225336"><ele>654.5</ele><time>2026-04-12T11:42:09Z</time></trkpt><trkpt lat="44.20595540862229" lon="11.475471649928002"><ele>652.75</ele><time>2026-04-12T11:42:10Z</time></trkpt><trkpt lat="44.20606021669777" lon="11.475556285289038"><ele>651.0</ele><time>2026-04-12T11:42:11Z</time></trkpt><trkpt lat="44.20617315903735" lon="11.475619304936219"><ele>651.0</ele><time>2026-04-12T11:42:12Z</time></trkpt><trkpt lat="44.20628452874427" lon="11.475697837385331"><ele>651.0</ele><time>2026-04-12T11:42:13Z</time></trkpt><trkpt lat="44.20639652283806" lon="11.47580805008513"><ele>651.0</ele><time>2026-04-12T11:42:14Z</time></trkpt><trkpt lat="44.20651426434401" lon="11.475927745193227"><ele>651.0</ele><time>2026-04-12T11:42:15Z</time></trkpt><trkpt lat="44.20661571586" lon="11.476040551870087"><ele>651.0</ele><time>2026-04-12T11:42:16Z</time></trkpt><trkpt lat="44.206709207714404" lon="11.476150508567564"><ele>651.0</ele><time>2026-04-12T11:42:17Z</time></trkpt><trkpt lat="44.20678282666197" lon="11.4762430275086"><ele>651.0</ele><time>2026-04-12T11:42:18Z</time></trkpt><trkpt lat="44.20686367641038" lon="11.476335075244327"><ele>651.0</ele><time>2026-04-12T11:42:19Z</time></trkpt><trkpt lat="44.206933600668" lon="11.47643787897538"><ele>651.0</ele><time>2026-04-12T11:42:20Z</time></trkpt><trkpt lat="44.20701130361636" lon="11.476526750562396"><ele>654.5</ele><time>2026-04-12T11:42:21Z</time></trkpt><trkpt lat="44.20708677507822" lon="11.4766473022845"><ele>658.0</ele><time>2026-04-12T11:42:22Z</time></trkpt><trkpt lat="44.20714996554267" lon="11.476790483055254"><ele>661.5</ele><time>2026-04-12T11:42:23Z</time></trkpt><trkpt lat="44.20719646464541" lon="11.476935523621137"><ele>665.0</ele><time>2026-04-12T11:42:24Z</time></trkpt><trkpt lat="44.20724546239182" lon="11.477072692096426"><ele>664.2</ele><time>2026-04-12T11:42:25Z</time></trkpt><trkpt lat="44.20732382103979" lon="11.477185940233337"><ele>663.4</ele><time>2026-04-12T11:42:26Z</time></trkpt><trkpt lat="44.207398977159436" lon="11.477295013213023"><ele>662.5999999999999</ele><time>2026-04-12T11:42:27Z</time></trkpt><trkpt lat="44.207478435248056" lon="11.477386670244607"><ele>661.8</ele><time>2026-04-12T11:42:28Z</time></trkpt><trkpt lat="44.207552383978346" lon="11.477471264940824"><ele>661.0</ele><time>2026-04-12T11:42:29Z</time></trkpt><trkpt lat="44.20762924242431" lon="11.47754334568421"><ele>659.5</ele><time>2026-04-12T11:42:30Z</time></trkpt><trkpt lat="44.20770339388037" lon="11.47759502859298"><ele>658.0</ele><time>2026-04-12T11:42:31Z</time></trkpt><trkpt lat="44.20778012255887" lon="11.477640170653524"><ele>656.5</ele><time>2026-04-12T11:42:32Z</time></trkpt><trkpt lat="44.207857149757345" lon="11.477680891789586"><ele>655.0</ele><time>2026-04-12T11:42:33Z</time></trkpt><trkpt lat="44.20794208384233" lon="11.477735415000998"><ele>653.5</ele><time>2026-04-12T11:42:34Z</time></trkpt><trkpt lat="44.20802969800616" lon="11.477788111026474"><ele>652.0</ele><time>2026-04-12T11:42:35Z</time></trkpt><trkpt lat="44.20810592029825" lon="11.477834622846643"><ele>650.5</ele><time>2026-04-12T11:42:36Z</time></trkpt><trkpt lat="44.208189336418265" lon="11.477890371584506"><ele>649.0</ele><time>2026-04-12T11:42:37Z</time></trkpt><trkpt lat="44.2082747542473" lon="11.477944253275103"><ele>647.5</ele><time>2026-04-12T11:42:38Z</time></trkpt><trkpt lat="44.20835501294367" lon="11.47799706205422"><ele>646.0</ele><time>2026-04-12T11:42:39Z</time></trkpt><trkpt lat="44.208426637942566" lon="11.478053286114674"><ele>644.5</ele><time>2026-04-12T11:42:40Z</time></trkpt><trkpt lat="44.20849580365317" lon="11.478101942691103"><ele>643.0</ele><time>2026-04-12T11:42:41Z</time></trkpt><trkpt lat="44.20856352257692" lon="11.478145726924884"><ele>643.0</ele><time>2026-04-12T11:42:42Z</time></trkpt><trkpt lat="44.20862286654741" lon="11.478183266189316"><ele>643.0</ele><time>2026-04-12T11:42:43Z</time></trkpt><trkpt lat="44.20869608049822" lon="11.478226678474055"><ele>643.0</ele><time>2026-04-12T11:42:46Z</time></trkpt><trkpt lat="44.208772074680944" lon="11.478304062948407"><ele>643.0</ele><time>2026-04-12T11:42:54Z</time></trkpt><trkpt lat="44.208877250260926" lon="11.478404695452198"><ele>643.0</ele><time>2026-04-12T11:42:56Z</time></trkpt><trkpt lat="44.20894623921019" lon="11.478497152603069"><ele>640.5</ele><time>2026-04-12T11:42:57Z</time></trkpt><trkpt lat="44.209017095468006" lon="11.478584512380785"><ele>638.0</ele><time>2026-04-12T11:42:58Z</time></trkpt><trkpt lat="44.2090867267157" lon="11.478664405033149"><ele>635.5</ele><time>2026-04-12T11:42:59Z</time></trkpt><trkpt lat="44.209150110889446" lon="11.478730322504726"><ele>633.0</ele><time>2026-04-12T11:43:00Z</time></trkpt><trkpt lat="44.2092133203959" lon="11.4787678064941"><ele>630.5</ele><time>2026-04-12T11:43:01Z</time></trkpt><trkpt lat="44.20928099368389" lon="11.478748640765247"><ele>628.0</ele><time>2026-04-12T11:43:02Z</time></trkpt><trkpt lat="44.209332589340455" lon="11.478677686609933"><ele>628.0</ele><time>2026-04-12T11:43:03Z</time></trkpt><trkpt lat="44.20939009480735" lon="11.478595683418384"><ele>628.0</ele><time>2026-04-12T11:43:04Z</time></trkpt><trkpt lat="44.209385216808535" lon="11.478435359244433"><ele>628.0</ele><time>2026-04-12T11:43:05Z</time></trkpt><trkpt lat="44.209334830526224" lon="11.47829172829858"><ele>628.0</ele><time>2026-04-12T11:43:06Z</time></trkpt><trkpt lat="44.20929739288723" lon="11.478164033653483"><ele>628.0</ele><time>2026-04-12T11:43:07Z</time></trkpt><trkpt lat="44.20927198725626" lon="11.478044787753907"><ele>626.0</ele><time>2026-04-12T11:43:08Z</time></trkpt><trkpt lat="44.20924805194882" lon="11.47791836515969"><ele>624.0</ele><time>2026-04-12T11:43:09Z</time></trkpt><trkpt lat="44.209220165119866" lon="11.4777945168266"><ele>622.0</ele><time>2026-04-12T11:43:10Z</time></trkpt><trkpt lat="44.20918770610036" lon="11.4776708722773"><ele>620.0</ele><time>2026-04-12T11:43:11Z</time></trkpt><trkpt lat="44.20915529098897" lon="11.47755089436729"><ele>618.0</ele><time>2026-04-12T11:43:12Z</time></trkpt><trkpt lat="44.209117090862314" lon="11.477433715046013"><ele>618.0</ele><time>2026-04-12T11:43:13Z</time></trkpt><trkpt lat="44.20907748728349" lon="11.477317136485532"><ele>618.0</ele><time>2026-04-12T11:43:14Z</time></trkpt><trkpt lat="44.209035970918045" lon="11.477194927770947"><ele>618.0</ele><time>2026-04-12T11:43:15Z</time></trkpt><trkpt lat="44.20898851283695" lon="11.477061498945693"><ele>618.0</ele><time>2026-04-12T11:43:16Z</time></trkpt><trkpt lat="44.20894300567611" lon="11.476933901615682"><ele>618.0</ele><time>2026-04-12T11:43:17Z</time></trkpt><trkpt lat="44.208907166695354" lon="11.476819439391619"><ele>619.4</ele><time>2026-04-12T11:43:18Z</time></trkpt><trkpt lat="44.20890423857599" lon="11.476698087565381"><ele>620.8</ele><time>2026-04-12T11:43:20Z</time></trkpt><trkpt lat="44.208967728313645" lon="11.476617855289087"><ele>622.2</ele><time>2026-04-12T11:43:22Z</time></trkpt><trkpt lat="44.20907009437337" lon="11.476665324666037"><ele>623.6</ele><time>2026-04-12T11:43:24Z</time></trkpt><trkpt lat="44.20914977993773" lon="11.476719379347523"><ele>625.0</ele><time>2026-04-12T11:43:25Z</time></trkpt><trkpt lat="44.209230753563894" lon="11.476754248702603"><ele>621.4</ele><time>2026-04-12T11:43:26Z</time></trkpt><trkpt lat="44.20933274704487" lon="11.476806045553129"><ele>617.8</ele><time>2026-04-12T11:43:27Z</time></trkpt><trkpt lat="44.20943394442587" lon="11.476822125446626"><ele>614.2</ele><time>2026-04-12T11:43:28Z</time></trkpt><trkpt lat="44.209521464091814" lon="11.476809460547198"><ele>610.6</ele><time>2026-04-12T11:43:29Z</time></trkpt><trkpt lat="44.2096005349162" lon="11.476831388271693"><ele>607.0</ele><time>2026-04-12T11:43:30Z</time></trkpt><trkpt lat="44.209669589190554" lon="11.476863506183538"><ele>607.0</ele><time>2026-04-12T11:43:31Z</time></trkpt><trkpt lat="44.2097473113039" lon="11.476899637159182"><ele>607.0</ele><time>2026-04-12T11:43:32Z</time></trkpt><trkpt lat="44.209815444036195" lon="11.476954969914273"><ele>607.0</ele><time>2026-04-12T11:43:33Z</time></trkpt><trkpt lat="44.209893562900895" lon="11.477023596281446"><ele>607.0</ele><time>2026-04-12T11:43:34Z</time></trkpt><trkpt lat="44.20996899885536" lon="11.477100504283223"><ele>607.0</ele><time>2026-04-12T11:43:35Z</time></trkpt><trkpt lat="44.210060143178715" lon="11.477189221222504"><ele>604.8000000000001</ele><time>2026-04-12T11:43:36Z</time></trkpt><trkpt lat="44.21014091875516" lon="11.477290416935194"><ele>602.6</ele><time>2026-04-12T11:43:37Z</time></trkpt><trkpt lat="44.21020823477715" lon="11.47739793293756"><ele>600.4000000000001</ele><time>2026-04-12T11:43:38Z</time></trkpt><trkpt lat="44.210272484677716" lon="11.47749017120549"><ele>598.2</ele><time>2026-04-12T11:43:39Z</time></trkpt><trkpt lat="44.21033696992977" lon="11.47758328074159"><ele>596.0</ele><time>2026-04-12T11:43:40Z</time></trkpt><trkpt lat="44.21039035506607" lon="11.477639452819705"><ele>596.0</ele><time>2026-04-12T11:43:41Z</time></trkpt><trkpt lat="44.21049616650951" lon="11.477625916070064"><ele>596.0</ele><time>2026-04-12T11:43:43Z</time></trkpt><trkpt lat="44.21053040584873" lon="11.477531730212396"><ele>596.0</ele><time>2026-04-12T11:43:44Z</time></trkpt><trkpt lat="44.21050534278564" lon="11.477408376122744"><ele>596.0</ele><time>2026-04-12T11:43:45Z</time></trkpt><trkpt lat="44.210459053427634" lon="11.477326989832568"><ele>596.0</ele><time>2026-04-12T11:43:46Z</time></trkpt><trkpt lat="44.2104030525115" lon="11.477246195988519"><ele>596.0</ele><time>2026-04-12T11:43:47Z</time></trkpt><trkpt lat="44.21035660489713" lon="11.477153603312708"><ele>593.8</ele><time>2026-04-12T11:43:48Z</time></trkpt><trkpt lat="44.21037636768111" lon="11.477066902275338"><ele>591.6</ele><time>2026-04-12T11:43:49Z</time></trkpt><trkpt lat="44.210425726100716" lon="11.477012073475565"><ele>589.4</ele><time>2026-04-12T11:43:50Z</time></trkpt><trkpt lat="44.21058341545494" lon="11.477097168090905"><ele>587.2</ele><time>2026-04-12T11:43:52Z</time></trkpt><trkpt lat="44.21065896051977" lon="11.477209222217963"><ele>585.0</ele><time>2026-04-12T11:43:53Z</time></trkpt><trkpt lat="44.21073712648619" lon="11.477314238595536"><ele>583.0</ele><time>2026-04-12T11:43:54Z</time></trkpt><trkpt lat="44.21082166830259" lon="11.477400839180369"><ele>581.0</ele><time>2026-04-12T11:43:55Z</time></trkpt><trkpt lat="44.210904456008606" lon="11.477470888765781"><ele>579.0</ele><time>2026-04-12T11:43:56Z</time></trkpt><trkpt lat="44.210999287417884" lon="11.477576399310852"><ele>577.0</ele><time>2026-04-12T11:43:57Z</time></trkpt><trkpt lat="44.21109438433533" lon="11.477685946275445"><ele>575.0</ele><time>2026-04-12T11:43:58Z</time></trkpt><trkpt lat="44.21117312242252" lon="11.477811438561377"><ele>577.4</ele><time>2026-04-12T11:43:59Z</time></trkpt><trkpt lat="44.21123436830247" lon="11.477937575828806"><ele>579.8</ele><time>2026-04-12T11:44:00Z</time></trkpt><trkpt lat="44.21132499660155" lon="11.47805327267631"><ele>582.2</ele><time>2026-04-12T11:44:01Z</time></trkpt><trkpt lat="44.2114025400586" lon="11.478149855279085"><ele>584.6</ele><time>2026-04-12T11:44:02Z</time></trkpt><trkpt lat="44.211500498726664" lon="11.478227712595155"><ele>587.0</ele><time>2026-04-12T11:44:03Z</time></trkpt><trkpt lat="44.21158980784138" lon="11.47827407497632"><ele>581.8000000000001</ele><time>2026-04-12T11:44:04Z</time></trkpt><trkpt lat="44.21165421299494" lon="11.478388384524568"><ele>576.6</ele><time>2026-04-12T11:44:05Z</time></trkpt><trkpt lat="44.211713569020716" lon="11.478498536676781"><ele>571.4000000000001</ele><time>2026-04-12T11:44:06Z</time></trkpt><trkpt lat="44.21177049830073" lon="11.478597387928692"><ele>566.2</ele><time>2026-04-12T11:44:07Z</time></trkpt><trkpt lat="44.21188999743028" lon="11.478617167115802"><ele>561.0</ele><time>2026-04-12T11:44:08Z</time></trkpt><trkpt lat="44.21198891800998" lon="11.478632025693306"><ele>561.0</ele><time>2026-04-12T11:44:09Z</time></trkpt><trkpt lat="44.21207043248476" lon="11.478659999104561"><ele>561.0</ele><time>2026-04-12T11:44:10Z</time></trkpt><trkpt lat="44.21214445594036" lon="11.478725407567119"><ele>561.0</ele><time>2026-04-12T11:44:11Z</time></trkpt><trkpt lat="44.21221715005466" lon="11.47883552074167"><ele>561.0</ele><time>2026-04-12T11:44:12Z</time></trkpt><trkpt lat="44.212288191996116" lon="11.478950082884984"><ele>561.0</ele><time>2026-04-12T11:44:13Z</time></trkpt><trkpt lat="44.21234702698045" lon="11.479070168027397"><ele>558.0</ele><time>2026-04-12T11:44:14Z</time></trkpt><trkpt lat="44.21242715474479" lon="11.47918319476639"><ele>555.0</ele><time>2026-04-12T11:44:15Z</time></trkpt><trkpt lat="44.212509151575006" lon="11.479290921828161"><ele>552.0</ele><time>2026-04-12T11:44:16Z</time></trkpt><trkpt lat="44.21260113298429" lon="11.479403971483674"><ele>549.0</ele><time>2026-04-12T11:44:17Z</time></trkpt><trkpt lat="44.21272012396255" lon="11.479494452457075"><ele>551.25</ele><time>2026-04-12T11:44:18Z</time></trkpt><trkpt lat="44.21280777665967" lon="11.479605620900045"><ele>553.5</ele><time>2026-04-12T11:44:19Z</time></trkpt><trkpt lat="44.21290349592978" lon="11.479723828226968"><ele>555.75</ele><time>2026-04-12T11:44:20Z</time></trkpt><trkpt lat="44.21299738633947" lon="11.479815658446718"><ele>558.0</ele><time>2026-04-12T11:44:21Z</time></trkpt><trkpt lat="44.21309730976804" lon="11.479911116888534"><ele>552.0</ele><time>2026-04-12T11:44:22Z</time></trkpt><trkpt lat="44.21318812758408" lon="11.480014581941127"><ele>546.0</ele><time>2026-04-12T11:44:23Z</time></trkpt><trkpt lat="44.21328928660614" lon="11.480134419680068"><ele>540.0</ele><time>2026-04-12T11:44:24Z</time></trkpt><trkpt lat="44.213381181643946" lon="11.480236593437928"><ele>534.0</ele><time>2026-04-12T11:44:25Z</time></trkpt><trkpt lat="44.21348514274157" lon="11.480323333390402"><ele>534.0</ele><time>2026-04-12T11:44:26Z</time></trkpt><trkpt lat="44.21358040799309" lon="11.480409268478684"><ele>534.0</ele><time>2026-04-12T11:44:27Z</time></trkpt><trkpt lat="44.21367132465525" lon="11.480506016217168"><ele>534.0</ele><time>2026-04-12T11:44:28Z</time></trkpt><trkpt lat="44.21376908891246" lon="11.48058656994154"><ele>534.0</ele><time>2026-04-12T11:44:29Z</time></trkpt><trkpt lat="44.21386011469781" lon="11.4806334164984"><ele>534.0</ele><time>2026-04-12T11:44:30Z</time></trkpt><trkpt lat="44.21394585768604" lon="11.480651169657095"><ele>531.8</ele><time>2026-04-12T11:44:31Z</time></trkpt><trkpt lat="44.21400085665495" lon="11.480730582957095"><ele>529.5999999999999</ele><time>2026-04-12T11:44:32Z</time></trkpt><trkpt lat="44.214039137038654" lon="11.480834730467748"><ele>527.4</ele><time>2026-04-12T11:44:33Z</time></trkpt><trkpt lat="44.214048356626925" lon="11.480991523014675"><ele>525.1999999999999</ele><time>2026-04-12T11:44:34Z</time></trkpt><trkpt lat="44.21407914640302" lon="11.481122203516001"><ele>523.0</ele><time>2026-04-12T11:44:35Z</time></trkpt><trkpt lat="44.214163125087374" lon="11.48126128640914"><ele>523.6</ele><time>2026-04-12T11:44:36Z</time></trkpt><trkpt lat="44.21426815339874" lon="11.481335265583278"><ele>524.1999999999999</ele><time>2026-04-12T11:44:37Z</time></trkpt><trkpt lat="44.21436945612697" lon="11.48137471304185"><ele>524.8</ele><time>2026-04-12T11:44:38Z</time></trkpt><trkpt lat="44.214485858003926" lon="11.481423282583933"><ele>525.4</ele><time>2026-04-12T11:44:39Z</time></trkpt><trkpt lat="44.21455090914725" lon="11.481524451048587"><ele>526.0</ele><time>2026-04-12T11:44:40Z</time></trkpt><trkpt lat="44.21460041569482" lon="11.481629290243093"><ele>526.0</ele><time>2026-04-12T11:44:41Z</time></trkpt><trkpt lat="44.214638907685384" lon="11.481749883692459"><ele>526.0</ele><time>2026-04-12T11:44:42Z</time></trkpt><trkpt lat="44.21466822527112" lon="11.481881578446906"><ele>526.0</ele><time>2026-04-12T11:44:43Z</time></trkpt><trkpt lat="44.214702853996506" lon="11.482019638689938"><ele>526.0</ele><time>2026-04-12T11:44:44Z</time></trkpt><trkpt lat="44.214748841642184" lon="11.482140482644645"><ele>526.0</ele><time>2026-04-12T11:44:45Z</time></trkpt><trkpt lat="44.214781826063096" lon="11.482255834912257"><ele>520.2</ele><time>2026-04-12T11:44:46Z</time></trkpt><trkpt lat="44.21482866200494" lon="11.482402757978779"><ele>514.4000000000001</ele><time>2026-04-12T11:44:47Z</time></trkpt><trkpt lat="44.21487031468055" lon="11.482518936272866"><ele>508.6</ele><time>2026-04-12T11:44:48Z</time></trkpt><trkpt lat="44.214910609620524" lon="11.482623316739277"><ele>502.8</ele><time>2026-04-12T11:44:49Z</time></trkpt><trkpt lat="44.21495824725701" lon="11.482731462143983"><ele>497.0</ele><time>2026-04-12T11:44:50Z</time></trkpt><trkpt lat="44.21499942100924" lon="11.482830700063456"><ele>496.99999999999994</ele><time>2026-04-12T11:44:51Z</time></trkpt><trkpt lat="44.21503762358452" lon="11.482926486874273"><ele>497.0</ele><time>2026-04-12T11:44:52Z</time></trkpt><trkpt lat="44.215082329000566" lon="11.483027701678758"><ele>497.0</ele><time>2026-04-12T11:44:53Z</time></trkpt><trkpt lat="44.21512146341265" lon="11.48314357348436"><ele>497.0</ele><time>2026-04-12T11:44:54Z</time></trkpt><trkpt lat="44.21515010353613" lon="11.48326454539939"><ele>496.99999999999994</ele><time>2026-04-12T11:44:55Z</time></trkpt><trkpt lat="44.215170489758336" lon="11.483403176238003"><ele>497.0</ele><time>2026-04-12T11:44:56Z</time></trkpt><trkpt lat="44.215190884170056" lon="11.483561808164543"><ele>497.0</ele><time>2026-04-12T11:44:57Z</time></trkpt><trkpt lat="44.21521658651516" lon="11.483715262921347"><ele>497.0</ele><time>2026-04-12T11:44:58Z</time></trkpt><trkpt lat="44.21524509763569" lon="11.483863149100495"><ele>497.0</ele><time>2026-04-12T11:44:59Z</time></trkpt><trkpt lat="44.21528583217986" lon="11.48401317575637"><ele>497.0</ele><time>2026-04-12T11:45:00Z</time></trkpt><trkpt lat="44.215341823988844" lon="11.484155021256448"><ele>497.0</ele><time>2026-04-12T11:45:01Z</time></trkpt><trkpt lat="44.21541469289829" lon="11.484297338101257"><ele>497.0</ele><time>2026-04-12T11:45:02Z</time></trkpt><trkpt lat="44.215488409848234" lon="11.484447524871314"><ele>497.0</ele><time>2026-04-12T11:45:03Z</time></trkpt><trkpt lat="44.2156066525876" lon="11.484550617493342"><ele>497.0</ele><time>2026-04-12T11:45:04Z</time></trkpt><trkpt lat="44.21573338481888" lon="11.4846420033776"><ele>498.75</ele><time>2026-04-12T11:45:05Z</time></trkpt><trkpt lat="44.21586996847545" lon="11.48470054116769"><ele>500.5</ele><time>2026-04-12T11:45:06Z</time></trkpt><trkpt lat="44.21600777189751" lon="11.484745943422386"><ele>502.25</ele><time>2026-04-12T11:45:07Z</time></trkpt><trkpt lat="44.21613326985123" lon="11.484817399779418"><ele>504.0</ele><time>2026-04-12T11:45:08Z</time></trkpt><trkpt lat="44.21625095623554" lon="11.484849800346666"><ele>504.0</ele><time>2026-04-12T11:45:09Z</time></trkpt><trkpt lat="44.21636267637354" lon="11.484909248593802"><ele>504.0</ele><time>2026-04-12T11:45:10Z</time></trkpt><trkpt lat="44.216481391656885" lon="11.485030307598748"><ele>504.0</ele><time>2026-04-12T11:45:11Z</time></trkpt><trkpt lat="44.216598373708344" lon="11.48514522713399"><ele>504.0</ele><time>2026-04-12T11:45:12Z</time></trkpt><trkpt lat="44.216729019292686" lon="11.485275721165237"><ele>504.33333333333337</ele><time>2026-04-12T11:45:13Z</time></trkpt><trkpt lat="44.21687229450857" lon="11.485406342362415"><ele>504.6666666666667</ele><time>2026-04-12T11:45:14Z</time></trkpt><trkpt lat="44.21704846212363" lon="11.485500506300655"><ele>505.0</ele><time>2026-04-12T11:45:15Z</time></trkpt><trkpt lat="44.217194634101915" lon="11.485524046511777"><ele>505.0</ele><time>2026-04-12T11:45:16Z</time></trkpt><trkpt lat="44.21731180607662" lon="11.485568632068412"><ele>505.0</ele><time>2026-04-12T11:45:17Z</time></trkpt><trkpt lat="44.21741195095729" lon="11.485628726877449"><ele>505.0</ele><time>2026-04-12T11:45:18Z</time></trkpt><trkpt lat="44.217504228617884" lon="11.485704769385217"><ele>505.0</ele><time>2026-04-12T11:45:19Z</time></trkpt><trkpt lat="44.21758699547202" lon="11.485781321337827"><ele>505.0</ele><time>2026-04-12T11:45:20Z</time></trkpt><trkpt lat="44.21765606400699" lon="11.485867251999277"><ele>504.0</ele><time>2026-04-12T11:45:21Z</time></trkpt><trkpt lat="44.21772673244707" lon="11.485992344852438"><ele>503.0</ele><time>2026-04-12T11:45:22Z</time></trkpt><trkpt lat="44.217752400455794" lon="11.48614160471991"><ele>502.0</ele><time>2026-04-12T11:45:23Z</time></trkpt><trkpt lat="44.217804884922344" lon="11.486260193651578"><ele>501.0</ele><time>2026-04-12T11:45:24Z</time></trkpt><trkpt lat="44.217826710420034" lon="11.486349412755859"><ele>500.0</ele><time>2026-04-12T11:45:25Z</time></trkpt><trkpt lat="44.21786819151003" lon="11.486425854836758"><ele>500.0</ele><time>2026-04-12T11:45:27Z</time></trkpt><trkpt lat="44.21802346447104" lon="11.486341433395397"><ele>500.0</ele><time>2026-04-12T11:48:23Z</time></trkpt><trkpt lat="44.218026470340924" lon="11.486240721862309"><ele>500.0</ele><time>2026-04-12T11:48:24Z</time></trkpt><trkpt lat="44.218028896500684" lon="11.486116270320629"><ele>500.0</ele><time>2026-04-12T11:48:25Z</time></trkpt><trkpt lat="44.21793321078834" lon="11.486016203398961"><ele>500.0</ele><time>2026-04-12T11:48:26Z</time></trkpt><trkpt lat="44.21786329780455" lon="11.485915612332418"><ele>497.8</ele><time>2026-04-12T11:48:27Z</time></trkpt><trkpt lat="44.21781157601049" lon="11.485801298635588"><ele>495.6</ele><time>2026-04-12T11:48:28Z</time></trkpt><trkpt lat="44.21777088282231" lon="11.485680441495642"><ele>493.4</ele><time>2026-04-12T11:48:29Z</time></trkpt><trkpt lat="44.21771832148084" lon="11.485561795275437"><ele>491.2</ele><time>2026-04-12T11:48:30Z</time></trkpt><trkpt lat="44.217692741227694" lon="11.485433165952703"><ele>489.0</ele><time>2026-04-12T11:48:31Z</time></trkpt><trkpt lat="44.21766221919387" lon="11.485325728005147"><ele>487.3333333333333</ele><time>2026-04-12T11:48:32Z</time></trkpt><trkpt lat="44.217633669435614" lon="11.48521700755322"><ele>485.66666666666663</ele><time>2026-04-12T11:48:33Z</time></trkpt><trkpt lat="44.21760313066353" lon="11.485115330982106"><ele>484.0</ele><time>2026-04-12T11:48:34Z</time></trkpt><trkpt lat="44.217572957950246" lon="11.485018047217219"><ele>482.3333333333333</ele><time>2026-04-12T11:48:35Z</time></trkpt><trkpt lat="44.21754117602952" lon="11.484923592127949"><ele>480.66666666666663</ele><time>2026-04-12T11:48:36Z</time></trkpt><trkpt lat="44.21750529661537" lon="11.484835750753764"><ele>479.0</ele><time>2026-04-12T11:48:37Z</time></trkpt><trkpt lat="44.217465452967794" lon="11.48474768601302"><ele>478.99999999999994</ele><time>2026-04-12T11:48:38Z</time></trkpt><trkpt lat="44.217426286961576" lon="11.48465448737281"><ele>479.0</ele><time>2026-04-12T11:48:39Z</time></trkpt><trkpt lat="44.21738022311936" lon="11.48455069583857"><ele>479.0</ele><time>2026-04-12T11:48:40Z</time></trkpt><trkpt lat="44.217338011710964" lon="11.484447950169855"><ele>479.0</ele><time>2026-04-12T11:48:41Z</time></trkpt><trkpt lat="44.21729933758161" lon="11.484349597837548"><ele>478.99999999999994</ele><time>2026-04-12T11:48:42Z</time></trkpt><trkpt lat="44.21726215781414" lon="11.484244089148234"><ele>479.0</ele><time>2026-04-12T11:48:43Z</time></trkpt><trkpt lat="44.21722362137987" lon="11.484151364015675"><ele>478.99999999999994</ele><time>2026-04-12T11:48:44Z</time></trkpt><trkpt lat="44.2171829341374" lon="11.48405188640845"><ele>479.0</ele><time>2026-04-12T11:48:45Z</time></trkpt><trkpt lat="44.217141906538544" lon="11.483955195086674"><ele>479.0</ele><time>2026-04-12T11:48:46Z</time></trkpt><trkpt lat="44.2171051858697" lon="11.48385310786252"><ele>479.0</ele><time>2026-04-12T11:48:47Z</time></trkpt><trkpt lat="44.21706890539746" lon="11.483742603922689"><ele>478.99999999999994</ele><time>2026-04-12T11:48:48Z</time></trkpt><trkpt lat="44.21703890707802" lon="11.483633448552535"><ele>479.0</ele><time>2026-04-12T11:48:49Z</time></trkpt><trkpt lat="44.21699625424864" lon="11.483505819999802"><ele>476.0</ele><time>2026-04-12T11:48:50Z</time></trkpt><trkpt lat="44.21694997208652" lon="11.483373300661118"><ele>473.0</ele><time>2026-04-12T11:48:51Z</time></trkpt><trkpt lat="44.21689843833035" lon="11.483242004297965"><ele>470.0</ele><time>2026-04-12T11:48:52Z</time></trkpt><trkpt lat="44.21684523844159" lon="11.483118506829001"><ele>467.0</ele><time>2026-04-12T11:48:53Z</time></trkpt><trkpt lat="44.21679312755271" lon="11.482992948792425"><ele>464.0</ele><time>2026-04-12T11:48:54Z</time></trkpt><trkpt lat="44.21676459277002" lon="11.482870727545016"><ele>463.66666666666663</ele><time>2026-04-12T11:48:55Z</time></trkpt><trkpt lat="44.21674651543298" lon="11.48277244208596"><ele>463.3333333333333</ele><time>2026-04-12T11:48:56Z</time></trkpt><trkpt lat="44.21675954799741" lon="11.482680826374708"><ele>463.0</ele><time>2026-04-12T11:48:57Z</time></trkpt><trkpt lat="44.21687586203507" lon="11.482603636319359"><ele>462.66666666666663</ele><time>2026-04-12T11:48:59Z</time></trkpt><trkpt lat="44.21695250045333" lon="11.482613777760422"><ele>462.3333333333333</ele><time>2026-04-12T11:49:00Z</time></trkpt><trkpt lat="44.217050767576204" lon="11.482642676124618"><ele>462.0</ele><time>2026-04-12T11:49:01Z</time></trkpt><trkpt lat="44.21717023223285" lon="11.482677635448782"><ele>462.0</ele><time>2026-04-12T11:49:02Z</time></trkpt><trkpt lat="44.217303103428726" lon="11.482701745376302"><ele>462.0</ele><time>2026-04-12T11:49:03Z</time></trkpt><trkpt lat="44.21743163820348" lon="11.482743809730898"><ele>462.0</ele><time>2026-04-12T11:49:04Z</time></trkpt><trkpt lat="44.217542963121694" lon="11.482804576215978"><ele>462.0</ele><time>2026-04-12T11:49:05Z</time></trkpt><trkpt lat="44.217647143195876" lon="11.482838722820379"><ele>460.40000000000003</ele><time>2026-04-12T11:49:06Z</time></trkpt><trkpt lat="44.21775069792787" lon="11.482871043718589"><ele>458.80000000000007</ele><time>2026-04-12T11:49:07Z</time></trkpt><trkpt lat="44.217846977956306" lon="11.482905831557776"><ele>457.2</ele><time>2026-04-12T11:49:08Z</time></trkpt><trkpt lat="44.21792534225033" lon="11.482952676287978"><ele>455.6</ele><time>2026-04-12T11:49:09Z</time></trkpt><trkpt lat="44.21800428294617" lon="11.483032069412124"><ele>454.0</ele><time>2026-04-12T11:49:10Z</time></trkpt><trkpt lat="44.218090064971825" lon="11.48318584651662"><ele>453.75</ele><time>2026-04-12T11:49:11Z</time></trkpt><trkpt lat="44.21815324443986" lon="11.483344244102321"><ele>453.5</ele><time>2026-04-12T11:49:12Z</time></trkpt><trkpt lat="44.21822705587808" lon="11.483500173657532"><ele>453.25</ele><time>2026-04-12T11:49:13Z</time></trkpt><trkpt lat="44.21831469750715" lon="11.483656424141188"><ele>453.0</ele><time>2026-04-12T11:49:14Z</time></trkpt><trkpt lat="44.2184163134992" lon="11.483805835635422"><ele>453.0</ele><time>2026-04-12T11:49:15Z</time></trkpt><trkpt lat="44.218548067455046" lon="11.48395097261766"><ele>453.0</ele><time>2026-04-12T11:49:16Z</time></trkpt><trkpt lat="44.21868955624985" lon="11.484080543650675"><ele>453.0</ele><time>2026-04-12T11:49:17Z</time></trkpt><trkpt lat="44.21882795787065" lon="11.484192671528918"><ele>453.0</ele><time>2026-04-12T11:49:18Z</time></trkpt><trkpt lat="44.21896414754162" lon="11.484274713294894"><ele>453.0</ele><time>2026-04-12T11:49:19Z</time></trkpt><trkpt lat="44.21907993624504" lon="11.484367717118483"><ele>453.0</ele><time>2026-04-12T11:49:20Z</time></trkpt><trkpt lat="44.2191782109764" lon="11.484476859187293"><ele>453.0</ele><time>2026-04-12T11:49:21Z</time></trkpt><trkpt lat="44.21928481619517" lon="11.484570740398414"><ele>449.5</ele><time>2026-04-12T11:49:22Z</time></trkpt><trkpt lat="44.219378585848645" lon="11.484696884024386"><ele>446.0</ele><time>2026-04-12T11:49:23Z</time></trkpt><trkpt lat="44.2194669460625" lon="11.484830153195666"><ele>442.5</ele><time>2026-04-12T11:49:24Z</time></trkpt><trkpt lat="44.219527461306036" lon="11.484978445087876"><ele>439.0</ele><time>2026-04-12T11:49:25Z</time></trkpt><trkpt lat="44.21957227271064" lon="11.485124353608837"><ele>439.0</ele><time>2026-04-12T11:49:26Z</time></trkpt><trkpt lat="44.219620385602795" lon="11.48528578712839"><ele>439.0</ele><time>2026-04-12T11:49:27Z</time></trkpt><trkpt lat="44.2196532196734" lon="11.485453216791427"><ele>439.0</ele><time>2026-04-12T11:49:28Z</time></trkpt><trkpt lat="44.219718212267125" lon="11.485609205969672"><ele>439.0</ele><time>2026-04-12T11:49:29Z</time></trkpt><trkpt lat="44.21982688076156" lon="11.485761893968926"><ele>434.5</ele><time>2026-04-12T11:49:30Z</time></trkpt><trkpt lat="44.21994004385381" lon="11.485891864295105"><ele>430.0</ele><time>2026-04-12T11:49:31Z</time></trkpt><trkpt lat="44.22003910504984" lon="11.486026897745932"><ele>425.5</ele><time>2026-04-12T11:49:32Z</time></trkpt><trkpt lat="44.22012768831287" lon="11.486161472223193"><ele>421.0</ele><time>2026-04-12T11:49:33Z</time></trkpt><trkpt lat="44.220209965041825" lon="11.486282824279508"><ele>421.0</ele><time>2026-04-12T11:49:34Z</time></trkpt><trkpt lat="44.22027870135386" lon="11.486384067889938"><ele>421.0</ele><time>2026-04-12T11:49:35Z</time></trkpt><trkpt lat="44.220396929129514" lon="11.486421439272005"><ele>421.0</ele><time>2026-04-12T11:49:36Z</time></trkpt><trkpt lat="44.220523869844435" lon="11.48641907331907"><ele>421.0</ele><time>2026-04-12T11:49:37Z</time></trkpt><trkpt lat="44.220654520913946" lon="11.486361832492255"><ele>419.25</ele><time>2026-04-12T11:49:38Z</time></trkpt><trkpt lat="44.22077820395175" lon="11.48627978852901"><ele>417.5</ele><time>2026-04-12T11:49:39Z</time></trkpt><trkpt lat="44.22089071171742" lon="11.486177461812987"><ele>415.75</ele><time>2026-04-12T11:49:40Z</time></trkpt><trkpt lat="44.221001780886105" lon="11.48609267861686"><ele>414.0</ele><time>2026-04-12T11:49:41Z</time></trkpt><trkpt lat="44.22109261615728" lon="11.48610012761439"><ele>414.0</ele><time>2026-04-12T11:49:42Z</time></trkpt><trkpt lat="44.221174489002316" lon="11.486130850922773"><ele>414.0</ele><time>2026-04-12T11:49:43Z</time></trkpt><trkpt lat="44.22126801036503" lon="11.486217291484662"><ele>414.0</ele><time>2026-04-12T11:49:44Z</time></trkpt><trkpt lat="44.22135043930374" lon="11.486337628560067"><ele>414.0</ele><time>2026-04-12T11:49:45Z</time></trkpt><trkpt lat="44.221438168940715" lon="11.48646311138192"><ele>414.0</ele><time>2026-04-12T11:49:46Z</time></trkpt><trkpt lat="44.221498309979204" lon="11.48657097294549"><ele>414.0</ele><time>2026-04-12T11:49:47Z</time></trkpt><trkpt lat="44.2215569481556" lon="11.486656283647728"><ele>414.0</ele><time>2026-04-12T11:49:48Z</time></trkpt><trkpt lat="44.22149770287028" lon="11.486834136758539"><ele>414.0</ele><time>2026-04-12T11:49:50Z</time></trkpt><trkpt lat="44.22143372805741" lon="11.486963646119353"><ele>414.0</ele><time>2026-04-12T11:49:51Z</time></trkpt><trkpt lat="44.221369700825804" lon="11.487101899886776"><ele>412.75</ele><time>2026-04-12T11:49:52Z</time></trkpt><trkpt lat="44.22133091121551" lon="11.487265036017329"><ele>411.5</ele><time>2026-04-12T11:49:53Z</time></trkpt><trkpt lat="44.22132472520461" lon="11.487465834298428"><ele>410.25</ele><time>2026-04-12T11:49:54Z</time></trkpt><trkpt lat="44.22136501526946" lon="11.487688075261458"><ele>409.0</ele><time>2026-04-12T11:49:55Z</time></trkpt><trkpt lat="44.221372541908416" lon="11.487877586635113"><ele>406.75</ele><time>2026-04-12T11:49:56Z</time></trkpt><trkpt lat="44.22138449911706" lon="11.48806597851752"><ele>404.5</ele><time>2026-04-12T11:49:57Z</time></trkpt><trkpt lat="44.22140881695397" lon="11.488242366354761"><ele>402.25</ele><time>2026-04-12T11:49:58Z</time></trkpt><trkpt lat="44.22142705606819" lon="11.488408526528666"><ele>400.0</ele><time>2026-04-12T11:49:59Z</time></trkpt><trkpt lat="44.22145148986198" lon="11.488579990736685"><ele>395.75</ele><time>2026-04-12T11:50:00Z</time></trkpt><trkpt lat="44.22153957749759" lon="11.488741413895792"><ele>391.5</ele><time>2026-04-12T11:50:01Z</time></trkpt><trkpt lat="44.22161987440509" lon="11.488890131383844"><ele>387.25</ele><time>2026-04-12T11:50:02Z</time></trkpt><trkpt lat="44.2216763782517" lon="11.489014161892337"><ele>383.0</ele><time>2026-04-12T11:50:03Z</time></trkpt><trkpt lat="44.2217158237019" lon="11.489112253886812"><ele>382.0</ele><time>2026-04-12T11:50:04Z</time></trkpt><trkpt lat="44.221704651523034" lon="11.489228013303519"><ele>381.0</ele><time>2026-04-12T11:50:05Z</time></trkpt><trkpt lat="44.221621054228955" lon="11.489303185468568"><ele>380.0</ele><time>2026-04-12T11:50:06Z</time></trkpt><trkpt lat="44.22153634656938" lon="11.489319185140733"><ele>379.0</ele><time>2026-04-12T11:50:07Z</time></trkpt><trkpt lat="44.22142200227507" lon="11.489341042397328"><ele>378.0</ele><time>2026-04-12T11:50:08Z</time></trkpt><trkpt lat="44.221297858460424" lon="11.48943080378121"><ele>378.0</ele><time>2026-04-12T11:50:09Z</time></trkpt><trkpt lat="44.22117547204994" lon="11.489505065259385"><ele>378.0</ele><time>2026-04-12T11:50:10Z</time></trkpt><trkpt lat="44.221066012011896" lon="11.489511164770466"><ele>378.0</ele><time>2026-04-12T11:50:11Z</time></trkpt><trkpt lat="44.22095690912986" lon="11.489498143130838"><ele>378.0</ele><time>2026-04-12T11:50:12Z</time></trkpt><trkpt lat="44.22085360012083" lon="11.489470225704789"><ele>378.0</ele><time>2026-04-12T11:50:13Z</time></trkpt><trkpt lat="44.22075866503489" lon="11.489428641494804"><ele>378.0</ele><time>2026-04-12T11:50:14Z</time></trkpt><trkpt lat="44.22068814440744" lon="11.489350892496986"><ele>378.0</ele><time>2026-04-12T11:50:15Z</time></trkpt><trkpt lat="44.22061107348989" lon="11.489250016919264"><ele>378.0</ele><time>2026-04-12T11:50:16Z</time></trkpt><trkpt lat="44.220526109252226" lon="11.489125155922508"><ele>378.0</ele><time>2026-04-12T11:50:17Z</time></trkpt><trkpt lat="44.220422864266176" lon="11.489004666677982"><ele>376.25</ele><time>2026-04-12T11:50:18Z</time></trkpt><trkpt lat="44.220295464282465" lon="11.488915016293275"><ele>374.5</ele><time>2026-04-12T11:50:19Z</time></trkpt><trkpt lat="44.220194942041736" lon="11.488852874346682"><ele>372.75</ele><time>2026-04-12T11:50:20Z</time></trkpt><trkpt lat="44.2201022561759" lon="11.48883911015912"><ele>371.0</ele><time>2026-04-12T11:50:21Z</time></trkpt><trkpt lat="44.21999128256241" lon="11.48889796051054"><ele>371.0</ele><time>2026-04-12T11:50:22Z</time></trkpt><trkpt lat="44.21988362163385" lon="11.489009569623871"><ele>371.0</ele><time>2026-04-12T11:50:23Z</time></trkpt><trkpt lat="44.219784204382194" lon="11.489120420790737"><ele>371.0</ele><time>2026-04-12T11:50:24Z</time></trkpt><trkpt lat="44.219680444229475" lon="11.489197758359714"><ele>371.0</ele><time>2026-04-12T11:50:25Z</time></trkpt><trkpt lat="44.21959015879103" lon="11.489285763738552"><ele>369.0</ele><time>2026-04-12T11:50:26Z</time></trkpt><trkpt lat="44.21953475311406" lon="11.489427102465475"><ele>367.0</ele><time>2026-04-12T11:50:27Z</time></trkpt><trkpt lat="44.21948756421608" lon="11.489575631731014"><ele>365.0</ele><time>2026-04-12T11:50:28Z</time></trkpt><trkpt lat="44.21942942281286" lon="11.489722999765673"><ele>363.0</ele><time>2026-04-12T11:50:29Z</time></trkpt><trkpt lat="44.21934913004249" lon="11.489865652455322"><ele>363.0</ele><time>2026-04-12T11:50:30Z</time></trkpt><trkpt lat="44.21924270442433" lon="11.489984077261036"><ele>363.0</ele><time>2026-04-12T11:50:31Z</time></trkpt><trkpt lat="44.21912887367407" lon="11.490077244774753"><ele>363.0</ele><time>2026-04-12T11:50:32Z</time></trkpt><trkpt lat="44.21903018169857" lon="11.490167966136598"><ele>363.0</ele><time>2026-04-12T11:50:33Z</time></trkpt><trkpt lat="44.21894894133309" lon="11.490234375206029"><ele>366.8333333333333</ele><time>2026-04-12T11:50:34Z</time></trkpt><trkpt lat="44.21887906174092" lon="11.490274775561916"><ele>370.66666666666663</ele><time>2026-04-12T11:50:35Z</time></trkpt><trkpt lat="44.21880824837732" lon="11.49030432049198"><ele>374.5</ele><time>2026-04-12T11:50:36Z</time></trkpt><trkpt lat="44.218756892541954" lon="11.490357560473385"><ele>378.3333333333333</ele><time>2026-04-12T11:50:37Z</time></trkpt><trkpt lat="44.21874748163642" lon="11.490527697752677"><ele>382.16666666666663</ele><time>2026-04-12T11:50:39Z</time></trkpt><trkpt lat="44.218797322013124" lon="11.490625092559862"><ele>386.0</ele><time>2026-04-12T11:50:40Z</time></trkpt><trkpt lat="44.21889016906015" lon="11.490702200359578"><ele>377.75</ele><time>2026-04-12T11:50:41Z</time></trkpt><trkpt lat="44.2189895018492" lon="11.490768140472639"><ele>369.5</ele><time>2026-04-12T11:50:42Z</time></trkpt><trkpt lat="44.219094824819905" lon="11.490867222488284"><ele>361.25</ele><time>2026-04-12T11:50:43Z</time></trkpt><trkpt lat="44.21917115113351" lon="11.490990389931024"><ele>353.0</ele><time>2026-04-12T11:50:44Z</time></trkpt><trkpt lat="44.21924256363264" lon="11.491115858694993"><ele>353.0</ele><time>2026-04-12T11:50:45Z</time></trkpt><trkpt lat="44.2193323608095" lon="11.491241849760378"><ele>353.0</ele><time>2026-04-12T11:50:46Z</time></trkpt><trkpt lat="44.21945073334171" lon="11.491358424584266"><ele>353.0</ele><time>2026-04-12T11:50:47Z</time></trkpt><trkpt lat="44.219552532503535" lon="11.491462546935715"><ele>353.0</ele><time>2026-04-12T11:50:48Z</time></trkpt><trkpt lat="44.2196563969447" lon="11.491574265885998"><ele>351.5</ele><time>2026-04-12T11:50:49Z</time></trkpt><trkpt lat="44.21975021351221" lon="11.49169343097173"><ele>350.0</ele><time>2026-04-12T11:50:50Z</time></trkpt><trkpt lat="44.21983796738346" lon="11.491832499140335"><ele>348.5</ele><time>2026-04-12T11:50:51Z</time></trkpt><trkpt lat="44.21992047422736" lon="11.491973423869737"><ele>347.0</ele><time>2026-04-12T11:50:52Z</time></trkpt><trkpt lat="44.22001139787373" lon="11.492117657649064"><ele>347.0</ele><time>2026-04-12T11:50:53Z</time></trkpt><trkpt lat="44.22008991743778" lon="11.492277285392253"><ele>347.0</ele><time>2026-04-12T11:50:54Z</time></trkpt><trkpt lat="44.220168059122614" lon="11.492421946372476"><ele>347.0</ele><time>2026-04-12T11:50:55Z</time></trkpt><trkpt lat="44.22025041057616" lon="11.492574355346525"><ele>347.0</ele><time>2026-04-12T11:50:56Z</time></trkpt><trkpt lat="44.22028853245186" lon="11.492738065652533"><ele>347.0</ele><time>2026-04-12T11:50:57Z</time></trkpt><trkpt lat="44.22033365920199" lon="11.492920222521322"><ele>347.0</ele><time>2026-04-12T11:50:58Z</time></trkpt><trkpt lat="44.22037314748681" lon="11.493108136583023"><ele>347.0</ele><time>2026-04-12T11:50:59Z</time></trkpt><trkpt lat="44.2204021967717" lon="11.493275414220674"><ele>347.0</ele><time>2026-04-12T11:51:00Z</time></trkpt><trkpt lat="44.220417386234985" lon="11.49341710911921"><ele>347.8</ele><time>2026-04-12T11:51:01Z</time></trkpt><trkpt lat="44.22041554520302" lon="11.493533135754259"><ele>348.6</ele><time>2026-04-12T11:51:02Z</time></trkpt><trkpt lat="44.2203938323624" lon="11.493617499564808"><ele>349.40000000000003</ele><time>2026-04-12T11:51:03Z</time></trkpt><trkpt lat="44.22033671965526" lon="11.493674831934309"><ele>350.20000000000005</ele><time>2026-04-12T11:51:04Z</time></trkpt><trkpt lat="44.22024016254897" lon="11.493756558957482"><ele>351.0</ele><time>2026-04-12T11:51:05Z</time></trkpt><trkpt lat="44.22014787360918" lon="11.493891794937252"><ele>347.0</ele><time>2026-04-12T11:51:06Z</time></trkpt><trkpt lat="44.220101975509685" lon="11.494088325853303"><ele>343.0</ele><time>2026-04-12T11:51:07Z</time></trkpt><trkpt lat="44.22007543629952" lon="11.49426097453916"><ele>339.0</ele><time>2026-04-12T11:51:08Z</time></trkpt><trkpt lat="44.22004650012284" lon="11.494395591227612"><ele>335.0</ele><time>2026-04-12T11:51:09Z</time></trkpt><trkpt lat="44.21998364265772" lon="11.494519467676996"><ele>333.0</ele><time>2026-04-12T11:51:10Z</time></trkpt><trkpt lat="44.219898348009934" lon="11.494615557652384"><ele>331.0</ele><time>2026-04-12T11:51:11Z</time></trkpt><trkpt lat="44.21980643703316" lon="11.494689569637035"><ele>329.0</ele><time>2026-04-12T11:51:12Z</time></trkpt><trkpt lat="44.219717704159436" lon="11.494730883843356"><ele>327.0</ele><time>2026-04-12T11:51:13Z</time></trkpt><trkpt lat="44.219626606442176" lon="11.494746022510046"><ele>325.0</ele><time>2026-04-12T11:51:14Z</time></trkpt><trkpt lat="44.219517054336194" lon="11.494730144997336"><ele>325.0</ele><time>2026-04-12T11:51:15Z</time></trkpt><trkpt lat="44.21940695506962" lon="11.494745103493106"><ele>325.0</ele><time>2026-04-12T11:51:16Z</time></trkpt><trkpt lat="44.21929741658037" lon="11.49477975928481"><ele>325.0</ele><time>2026-04-12T11:51:17Z</time></trkpt><trkpt lat="44.21918490886749" lon="11.49485032547558"><ele>325.0</ele><time>2026-04-12T11:51:18Z</time></trkpt><trkpt lat="44.21909702060373" lon="11.494956987417513"><ele>325.0</ele><time>2026-04-12T11:51:19Z</time></trkpt><trkpt lat="44.21905380426206" lon="11.495120267660498"><ele>325.0</ele><time>2026-04-12T11:51:20Z</time></trkpt><trkpt lat="44.21900542735422" lon="11.495255368462818"><ele>325.0</ele><time>2026-04-12T11:51:21Z</time></trkpt><trkpt lat="44.21895468710926" lon="11.49538809365352"><ele>325.0</ele><time>2026-04-12T11:51:22Z</time></trkpt><trkpt lat="44.218889408987195" lon="11.495539615524454"><ele>324.66666666666663</ele><time>2026-04-12T11:51:23Z</time></trkpt><trkpt lat="44.21882274595819" lon="11.495685516466756"><ele>324.3333333333333</ele><time>2026-04-12T11:51:24Z</time></trkpt><trkpt lat="44.21875693584478" lon="11.495822892902252"><ele>324.0</ele><time>2026-04-12T11:51:25Z</time></trkpt><trkpt lat="44.2186067237717" lon="11.496079302357575"><ele>324.0</ele><time>2026-04-12T11:51:27Z</time></trkpt><trkpt lat="44.21851358135245" lon="11.49615623915107"><ele>324.0</ele><time>2026-04-12T11:51:28Z</time></trkpt><trkpt lat="44.21844199678343" lon="11.496217408975802"><ele>324.0</ele><time>2026-04-12T11:51:29Z</time></trkpt><trkpt lat="44.21834779857519" lon="11.496355289705887"><ele>324.0</ele><time>2026-04-12T11:51:30Z</time></trkpt><trkpt lat="44.218316439424406" lon="11.49648749584987"><ele>324.0</ele><time>2026-04-12T11:51:31Z</time></trkpt><trkpt lat="44.21834053233075" lon="11.496612637990983"><ele>321.2</ele><time>2026-04-12T11:51:32Z</time></trkpt><trkpt lat="44.21838188888648" lon="11.496748744594955"><ele>318.4</ele><time>2026-04-12T11:51:33Z</time></trkpt><trkpt lat="44.21844288191751" lon="11.496909884797756"><ele>315.6</ele><time>2026-04-12T11:51:34Z</time></trkpt><trkpt lat="44.218492199770054" lon="11.497051254499087"><ele>312.8</ele><time>2026-04-12T11:51:35Z</time></trkpt><trkpt lat="44.21851111172022" lon="11.497171177864418"><ele>310.0</ele><time>2026-04-12T11:51:36Z</time></trkpt><trkpt lat="44.21851661444427" lon="11.497289471763189"><ele>307.6</ele><time>2026-04-12T11:51:37Z</time></trkpt><trkpt lat="44.21848502474713" lon="11.497384253737211"><ele>305.2</ele><time>2026-04-12T11:51:38Z</time></trkpt><trkpt lat="44.218397251161406" lon="11.497419151414167"><ele>302.8</ele><time>2026-04-12T11:51:39Z</time></trkpt><trkpt lat="44.21829063209871" lon="11.497498656217957"><ele>300.4</ele><time>2026-04-12T11:51:40Z</time></trkpt><trkpt lat="44.21820924883069" lon="11.497657731313328"><ele>298.0</ele><time>2026-04-12T11:51:41Z</time></trkpt><trkpt lat="44.21812705330729" lon="11.497782211175071"><ele>299.25</ele><time>2026-04-12T11:51:42Z</time></trkpt><trkpt lat="44.21804774741928" lon="11.49792629393427"><ele>300.5</ele><time>2026-04-12T11:51:43Z</time></trkpt><trkpt lat="44.217958110845885" lon="11.498028367293141"><ele>301.75</ele><time>2026-04-12T11:51:44Z</time></trkpt><trkpt lat="44.21785131643302" lon="11.498068062149585"><ele>303.0</ele><time>2026-04-12T11:51:45Z</time></trkpt><trkpt lat="44.21775959969946" lon="11.49813710831063"><ele>303.0</ele><time>2026-04-12T11:51:46Z</time></trkpt><trkpt lat="44.21767549719459" lon="11.498231912630407"><ele>303.0</ele><time>2026-04-12T11:51:47Z</time></trkpt><trkpt lat="44.217604715700325" lon="11.498358060577944"><ele>303.0</ele><time>2026-04-12T11:51:48Z</time></trkpt><trkpt lat="44.217542503642385" lon="11.498466211567825"><ele>303.0</ele><time>2026-04-12T11:51:49Z</time></trkpt><trkpt lat="44.21745957317297" lon="11.498550717125894"><ele>303.0</ele><time>2026-04-12T11:51:50Z</time></trkpt><trkpt lat="44.217383063770185" lon="11.498687757866966"><ele>304.2</ele><time>2026-04-12T11:51:51Z</time></trkpt><trkpt lat="44.21727545520935" lon="11.498713907198436"><ele>305.4</ele><time>2026-04-12T11:51:52Z</time></trkpt><trkpt lat="44.21717119020224" lon="11.498749404752589"><ele>306.59999999999997</ele><time>2026-04-12T11:51:53Z</time></trkpt><trkpt lat="44.217085888653706" lon="11.498792746196855"><ele>307.8</ele><time>2026-04-12T11:51:54Z</time></trkpt><trkpt lat="44.21699489385056" lon="11.498920917987117"><ele>309.0</ele><time>2026-04-12T11:51:55Z</time></trkpt><trkpt lat="44.216928487969824" lon="11.499070219865533"><ele>309.0</ele><time>2026-04-12T11:51:56Z</time></trkpt><trkpt lat="44.21687271216847" lon="11.499196278606837"><ele>309.0</ele><time>2026-04-12T11:51:57Z</time></trkpt><trkpt lat="44.216843913428384" lon="11.499365784461995"><ele>309.0</ele><time>2026-04-12T11:51:58Z</time></trkpt><trkpt lat="44.21682255684946" lon="11.499544628667586"><ele>309.0</ele><time>2026-04-12T11:51:59Z</time></trkpt><trkpt lat="44.21680930065637" lon="11.499720017262723"><ele>304.0</ele><time>2026-04-12T11:52:00Z</time></trkpt><trkpt lat="44.216798733494706" lon="11.499850958736248"><ele>299.0</ele><time>2026-04-12T11:52:01Z</time></trkpt><trkpt lat="44.216789823750396" lon="11.499975871693225"><ele>294.0</ele><time>2026-04-12T11:52:02Z</time></trkpt><trkpt lat="44.21676167284133" lon="11.500091369038637"><ele>289.0</ele><time>2026-04-12T11:52:03Z</time></trkpt><trkpt lat="44.216683835215065" lon="11.500199926204257"><ele>284.0</ele><time>2026-04-12T11:52:04Z</time></trkpt><trkpt lat="44.21658959206731" lon="11.500274698352092"><ele>284.0</ele><time>2026-04-12T11:52:05Z</time></trkpt><trkpt lat="44.216480406138224" lon="11.500355672208265"><ele>284.0</ele><time>2026-04-12T11:52:06Z</time></trkpt><trkpt lat="44.216436672479595" lon="11.500513925762968"><ele>284.0</ele><time>2026-04-12T11:52:07Z</time></trkpt><trkpt lat="44.21642632042093" lon="11.500698428654616"><ele>284.0</ele><time>2026-04-12T11:52:08Z</time></trkpt><trkpt lat="44.216415480171904" lon="11.50084986595668"><ele>284.0</ele><time>2026-04-12T11:52:09Z</time></trkpt><trkpt lat="44.216391976766936" lon="11.500987992162544"><ele>284.0</ele><time>2026-04-12T11:52:10Z</time></trkpt><trkpt lat="44.21635710655012" lon="11.501107468896588"><ele>284.0</ele><time>2026-04-12T11:52:11Z</time></trkpt><trkpt lat="44.21631654911083" lon="11.501215246261424"><ele>284.0</ele><time>2026-04-12T11:52:12Z</time></trkpt><trkpt lat="44.21623657945181" lon="11.50127301611781"><ele>284.0</ele><time>2026-04-12T11:52:13Z</time></trkpt><trkpt lat="44.21612847975169" lon="11.501294010754835"><ele>284.0</ele><time>2026-04-12T11:52:14Z</time></trkpt><trkpt lat="44.215989708291694" lon="11.50121693043692"><ele>284.0</ele><time>2026-04-12T11:52:15Z</time></trkpt><trkpt lat="44.215859327769955" lon="11.50114182789806"><ele>284.0</ele><time>2026-04-12T11:52:16Z</time></trkpt><trkpt lat="44.21570946965746" lon="11.501068840007123"><ele>284.0</ele><time>2026-04-12T11:52:17Z</time></trkpt><trkpt lat="44.21557126619116" lon="11.501017912234625"><ele>281.25</ele><time>2026-04-12T11:52:18Z</time></trkpt><trkpt lat="44.215425262169205" lon="11.500967236943719"><ele>278.5</ele><time>2026-04-12T11:52:19Z</time></trkpt><trkpt lat="44.215284669874684" lon="11.500924486390806"><ele>275.75</ele><time>2026-04-12T11:52:20Z</time></trkpt><trkpt lat="44.21515633876253" lon="11.500884517242234"><ele>273.0</ele><time>2026-04-12T11:52:21Z</time></trkpt><trkpt lat="44.21502629480321" lon="11.500852156436075"><ele>273.0</ele><time>2026-04-12T11:52:22Z</time></trkpt><trkpt lat="44.21490096219638" lon="11.500843493227544"><ele>273.0</ele><time>2026-04-12T11:52:23Z</time></trkpt><trkpt lat="44.21477119686467" lon="11.500850037549641"><ele>273.0</ele><time>2026-04-12T11:52:24Z</time></trkpt><trkpt lat="44.21464876485187" lon="11.500883992667312"><ele>273.0</ele><time>2026-04-12T11:52:25Z</time></trkpt><trkpt lat="44.21453271038032" lon="11.500902447372086"><ele>269.0</ele><time>2026-04-12T11:52:26Z</time></trkpt><trkpt lat="44.214433181606054" lon="11.500885805918397"><ele>265.0</ele><time>2026-04-12T11:52:27Z</time></trkpt><trkpt lat="44.21434355475963" lon="11.500845418331426"><ele>261.0</ele><time>2026-04-12T11:52:28Z</time></trkpt><trkpt lat="44.21426417756423" lon="11.50077486031431"><ele>257.0</ele><time>2026-04-12T11:52:29Z</time></trkpt><trkpt lat="44.214235071869965" lon="11.500625663022428"><ele>253.0</ele><time>2026-04-12T11:52:30Z</time></trkpt><trkpt lat="44.21418442495234" lon="11.500462090315198"><ele>255.5</ele><time>2026-04-12T11:52:31Z</time></trkpt><trkpt lat="44.214106516294585" lon="11.500333397708165"><ele>258.0</ele><time>2026-04-12T11:52:32Z</time></trkpt><trkpt lat="44.214012150943695" lon="11.500276400084198"><ele>260.5</ele><time>2026-04-12T11:52:33Z</time></trkpt><trkpt lat="44.213885829646415" lon="11.50027130523449"><ele>263.0</ele><time>2026-04-12T11:52:34Z</time></trkpt><trkpt lat="44.213765394281126" lon="11.50034434219143"><ele>263.0</ele><time>2026-04-12T11:52:35Z</time></trkpt><trkpt lat="44.21368588842407" lon="11.500524027562454"><ele>263.0</ele><time>2026-04-12T11:52:36Z</time></trkpt><trkpt lat="44.21364775544946" lon="11.500694207547099"><ele>263.0</ele><time>2026-04-12T11:52:37Z</time></trkpt><trkpt lat="44.213605506604424" lon="11.500865326667189"><ele>263.0</ele><time>2026-04-12T11:52:38Z</time></trkpt><trkpt lat="44.21355504400713" lon="11.501003176236418"><ele>263.0</ele><time>2026-04-12T11:52:39Z</time></trkpt><trkpt lat="44.21349512274881" lon="11.501117823713349"><ele>263.0</ele><time>2026-04-12T11:52:40Z</time></trkpt><trkpt lat="44.21342241141588" lon="11.501229247674555"><ele>263.0</ele><time>2026-04-12T11:52:41Z</time></trkpt><trkpt lat="44.213337701201525" lon="11.501328332981059"><ele>263.0</ele><time>2026-04-12T11:52:42Z</time></trkpt><trkpt lat="44.21324162168878" lon="11.50141129494289"><ele>263.0</ele><time>2026-04-12T11:52:43Z</time></trkpt><trkpt lat="44.21315191831504" lon="11.501480324542877"><ele>259.8</ele><time>2026-04-12T11:52:44Z</time></trkpt><trkpt lat="44.213059550949396" lon="11.501548639728261"><ele>256.6</ele><time>2026-04-12T11:52:45Z</time></trkpt><trkpt lat="44.21296682046162" lon="11.501615731026789"><ele>253.39999999999998</ele><time>2026-04-12T11:52:46Z</time></trkpt><trkpt lat="44.21288543277093" lon="11.501669609919544"><ele>250.2</ele><time>2026-04-12T11:52:47Z</time></trkpt><trkpt lat="44.21280999574448" lon="11.501720094034331"><ele>247.0</ele><time>2026-04-12T11:52:48Z</time></trkpt><trkpt lat="44.212738977749744" lon="11.501767621243758"><ele>247.0</ele><time>2026-04-12T11:52:49Z</time></trkpt><trkpt lat="44.212671424640384" lon="11.50182772106238"><ele>247.0</ele><time>2026-04-12T11:52:50Z</time></trkpt><trkpt lat="44.21261604079042" lon="11.501890725098376"><ele>247.0</ele><time>2026-04-12T11:52:51Z</time></trkpt><trkpt lat="44.212541459058414" lon="11.501920246409789"><ele>247.0</ele><time>2026-04-12T11:52:53Z</time></trkpt><trkpt lat="44.21261991619676" lon="11.502097068355782"><ele>247.0</ele><time>2026-04-12T11:52:54Z</time></trkpt><trkpt lat="44.21268788251467" lon="11.502183766739224"><ele>243.8</ele><time>2026-04-12T11:52:55Z</time></trkpt><trkpt lat="44.21277321143482" lon="11.502204314625423"><ele>240.6</ele><time>2026-04-12T11:52:56Z</time></trkpt><trkpt lat="44.212883733321725" lon="11.50218214199116"><ele>237.40000000000003</ele><time>2026-04-12T11:52:57Z</time></trkpt><trkpt lat="44.21297897551093" lon="11.502164827159017"><ele>234.20000000000002</ele><time>2026-04-12T11:52:58Z</time></trkpt><trkpt lat="44.213067209292255" lon="11.502162616384336"><ele>231.0</ele><time>2026-04-12T11:52:59Z</time></trkpt><trkpt lat="44.21314618938545" lon="11.50217602671149"><ele>230.66666666666666</ele><time>2026-04-12T11:53:00Z</time></trkpt><trkpt lat="44.213223503271834" lon="11.502203487669636"><ele>230.33333333333331</ele><time>2026-04-12T11:53:01Z</time></trkpt><trkpt lat="44.213297472870856" lon="11.502247864235375"><ele>230.0</ele><time>2026-04-12T11:53:02Z</time></trkpt><trkpt lat="44.2133671320398" lon="11.502323354068205"><ele>229.66666666666666</ele><time>2026-04-12T11:53:03Z</time></trkpt><trkpt lat="44.21341340048797" lon="11.502415387732603"><ele>229.33333333333331</ele><time>2026-04-12T11:53:04Z</time></trkpt><trkpt lat="44.213446907263894" lon="11.502518868318912"><ele>229.0</ele><time>2026-04-12T11:53:05Z</time></trkpt><trkpt lat="44.21346419715367" lon="11.502627789045256"><ele>228.99999999999997</ele><time>2026-04-12T11:53:06Z</time></trkpt><trkpt lat="44.21348258761716" lon="11.502744449878103"><ele>229.0</ele><time>2026-04-12T11:53:07Z</time></trkpt><trkpt lat="44.21349926292561" lon="11.502873732263177"><ele>229.0</ele><time>2026-04-12T11:53:08Z</time></trkpt><trkpt lat="44.213514610717326" lon="11.502983589523014"><ele>229.0</ele><time>2026-04-12T11:53:09Z</time></trkpt><trkpt lat="44.21352806213713" lon="11.503084820001678"><ele>228.99999999999997</ele><time>2026-04-12T11:53:10Z</time></trkpt><trkpt lat="44.21353743897112" lon="11.503181741144184"><ele>229.0</ele><time>2026-04-12T11:53:11Z</time></trkpt><trkpt lat="44.213542882973236" lon="11.503271587188092"><ele>228.16666666666666</ele><time>2026-04-12T11:53:12Z</time></trkpt><trkpt lat="44.21355143472408" lon="11.503402569963777"><ele>227.33333333333331</ele><time>2026-04-12T11:53:14Z</time></trkpt><trkpt lat="44.21355508640604" lon="11.503509415411457"><ele>226.5</ele><time>2026-04-12T11:53:17Z</time></trkpt><trkpt lat="44.2135563635863" lon="11.503611519286771"><ele>225.66666666666669</ele><time>2026-04-12T11:53:19Z</time></trkpt><trkpt lat="44.2136793113538" lon="11.50363498770965"><ele>224.83333333333334</ele><time>2026-04-12T11:53:20Z</time></trkpt><trkpt lat="44.21375275878841" lon="11.503660179531554"><ele>224.0</ele><time>2026-04-12T11:53:21Z</time></trkpt><trkpt lat="44.21381388896747" lon="11.5036897380033"><ele>224.0</ele><time>2026-04-12T11:53:22Z</time></trkpt><trkpt lat="44.21388933240512" lon="11.50371133707989"><ele>223.99999999999997</ele><time>2026-04-12T11:53:23Z</time></trkpt><trkpt lat="44.21397349659026" lon="11.503736257457764"><ele>223.99999999999997</ele><time>2026-04-12T11:53:24Z</time></trkpt><trkpt lat="44.21408835132233" lon="11.503788522981335"><ele>224.0</ele><time>2026-04-12T11:53:25Z</time></trkpt><trkpt lat="44.21422125991896" lon="11.503842953744183"><ele>224.0</ele><time>2026-04-12T11:53:26Z</time></trkpt><trkpt lat="44.21434479364182" lon="11.503883040284345"><ele>222.0</ele><time>2026-04-12T11:53:27Z</time></trkpt><trkpt lat="44.214454698340504" lon="11.503927121371563"><ele>220.0</ele><time>2026-04-12T11:53:28Z</time></trkpt><trkpt lat="44.214565143500465" lon="11.503965450140926"><ele>218.0</ele><time>2026-04-12T11:53:29Z</time></trkpt><trkpt lat="44.21467734169172" lon="11.503998392781778"><ele>216.0</ele><time>2026-04-12T11:53:30Z</time></trkpt><trkpt lat="44.21478917015977" lon="11.504050599756244"><ele>216.0</ele><time>2026-04-12T11:53:31Z</time></trkpt><trkpt lat="44.21487759765499" lon="11.50406103075086"><ele>216.0</ele><time>2026-04-12T11:53:32Z</time></trkpt><trkpt lat="44.21495822282413" lon="11.504115626024587"><ele>216.0</ele><time>2026-04-12T11:53:33Z</time></trkpt><trkpt lat="44.21503316394277" lon="11.504146136554667"><ele>216.0</ele><time>2026-04-12T11:53:34Z</time></trkpt><trkpt lat="44.21510019041276" lon="11.50417361529412"><ele>216.0</ele><time>2026-04-12T11:53:35Z</time></trkpt><trkpt lat="44.215198807041894" lon="11.504224438853509"><ele>216.0</ele><time>2026-04-12T11:53:37Z</time></trkpt><trkpt lat="44.21525747019316" lon="11.504270835208676"><ele>216.0</ele><time>2026-04-12T11:53:40Z</time></trkpt><trkpt lat="44.21534027449041" lon="11.504288473464932"><ele>216.00000000000003</ele><time>2026-04-12T11:54:20Z</time></trkpt><trkpt lat="44.215472563818906" lon="11.50435205076539"><ele>216.00000000000003</ele><time>2026-04-12T11:54:22Z</time></trkpt><trkpt lat="44.21555586396595" lon="11.504371430367883"><ele>216.0</ele><time>2026-04-12T11:54:23Z</time></trkpt><trkpt lat="44.21564286288026" lon="11.504376680854042"><ele>216.0</ele><time>2026-04-12T11:54:24Z</time></trkpt><trkpt lat="44.21574797884638" lon="11.504402400957243"><ele>215.20000000000002</ele><time>2026-04-12T11:54:25Z</time></trkpt><trkpt lat="44.215841520043" lon="11.504456991526007"><ele>214.40000000000003</ele><time>2026-04-12T11:54:26Z</time></trkpt><trkpt lat="44.21593935102269" lon="11.504499539626442"><ele>213.6</ele><time>2026-04-12T11:54:27Z</time></trkpt><trkpt lat="44.21603588976489" lon="11.504543715905328"><ele>212.8</ele><time>2026-04-12T11:54:28Z</time></trkpt><trkpt lat="44.21612766486753" lon="11.504577382326652"><ele>212.0</ele><time>2026-04-12T11:54:29Z</time></trkpt><trkpt lat="44.21621561599388" lon="11.504624070960753"><ele>210.00000000000003</ele><time>2026-04-12T11:54:30Z</time></trkpt><trkpt lat="44.21629208278143" lon="11.504663964450211"><ele>208.0</ele><time>2026-04-12T11:54:31Z</time></trkpt><trkpt lat="44.21637729750995" lon="11.504698850885758"><ele>206.0</ele><time>2026-04-12T11:54:32Z</time></trkpt><trkpt lat="44.21645179675392" lon="11.504726818478865"><ele>204.0</ele><time>2026-04-12T11:54:33Z</time></trkpt><trkpt lat="44.21651512169396" lon="11.504750065478783"><ele>202.00000000000003</ele><time>2026-04-12T11:54:34Z</time></trkpt><trkpt lat="44.21658625630075" lon="11.504748336551344"><ele>200.0</ele><time>2026-04-12T11:54:35Z</time></trkpt><trkpt lat="44.216644712980376" lon="11.504674105042596"><ele>200.6</ele><time>2026-04-12T11:54:36Z</time></trkpt><trkpt lat="44.21667811247665" lon="11.504555850310204"><ele>201.2</ele><time>2026-04-12T11:54:37Z</time></trkpt><trkpt lat="44.21668170296145" lon="11.504429857514655"><ele>201.8</ele><time>2026-04-12T11:54:38Z</time></trkpt><trkpt lat="44.21666416974411" lon="11.504295389820937"><ele>202.4</ele><time>2026-04-12T11:54:39Z</time></trkpt><trkpt lat="44.2166438266129" lon="11.50414480244895"><ele>203.0</ele><time>2026-04-12T11:54:40Z</time></trkpt><trkpt lat="44.2166478913557" lon="11.503981381792332"><ele>203.0</ele><time>2026-04-12T11:54:41Z</time></trkpt><trkpt lat="44.216638263867246" lon="11.503844190086532"><ele>203.0</ele><time>2026-04-12T11:54:42Z</time></trkpt><trkpt lat="44.21663095443748" lon="11.503710618871295"><ele>203.0</ele><time>2026-04-12T11:54:43Z</time></trkpt><trkpt lat="44.21661868266512" lon="11.503583645132094"><ele>203.0</ele><time>2026-04-12T11:54:44Z</time></trkpt><trkpt lat="44.216638794625055" lon="11.503457274417647"><ele>203.0</ele><time>2026-04-12T11:54:45Z</time></trkpt><trkpt lat="44.216693464296156" lon="11.503340903033534"><ele>202.66666666666669</ele><time>2026-04-12T11:54:46Z</time></trkpt><trkpt lat="44.216742187422426" lon="11.503228118096654"><ele>202.33333333333334</ele><time>2026-04-12T11:54:47Z</time></trkpt><trkpt lat="44.21679381451871" lon="11.503122515072118"><ele>202.0</ele><time>2026-04-12T11:54:48Z</time></trkpt><trkpt lat="44.216838698028425" lon="11.503039587171726"><ele>201.66666666666669</ele><time>2026-04-12T11:54:49Z</time></trkpt><trkpt lat="44.21691041895936" lon="11.503040959874047"><ele>201.33333333333334</ele><time>2026-04-12T11:54:50Z</time></trkpt><trkpt lat="44.21700353503239" lon="11.503092004828249"><ele>201.0</ele><time>2026-04-12T11:54:51Z</time></trkpt><trkpt lat="44.21710894203489" lon="11.50311762502716"><ele>201.0</ele><time>2026-04-12T11:54:52Z</time></trkpt><trkpt lat="44.21719964082443" lon="11.503179577736715"><ele>201.0</ele><time>2026-04-12T11:54:53Z</time></trkpt><trkpt lat="44.21726556954131" lon="11.503263588956903"><ele>201.0</ele><time>2026-04-12T11:54:54Z</time></trkpt><trkpt lat="44.21729954299759" lon="11.503408170067992"><ele>201.0</ele><time>2026-04-12T11:54:55Z</time></trkpt><trkpt lat="44.21731944462998" lon="11.503582458540805"><ele>201.0</ele><time>2026-04-12T11:54:56Z</time></trkpt><trkpt lat="44.217341308829226" lon="11.503776145645674"><ele>201.0</ele><time>2026-04-12T11:54:57Z</time></trkpt><trkpt lat="44.21737812113721" lon="11.503992057423387"><ele>201.0</ele><time>2026-04-12T11:54:58Z</time></trkpt><trkpt lat="44.217411880017025" lon="11.504218335990085"><ele>201.0</ele><time>2026-04-12T11:54:59Z</time></trkpt><trkpt lat="44.21743366747605" lon="11.504424134409666"><ele>199.0</ele><time>2026-04-12T11:55:00Z</time></trkpt><trkpt lat="44.2174604895909" lon="11.504609556893808"><ele>197.0</ele><time>2026-04-12T11:55:01Z</time></trkpt><trkpt lat="44.21749758407882" lon="11.50477884047058"><ele>195.0</ele><time>2026-04-12T11:55:02Z</time></trkpt><trkpt lat="44.21755468397364" lon="11.504920811070775"><ele>193.0</ele><time>2026-04-12T11:55:03Z</time></trkpt><trkpt lat="44.21764796938454" lon="11.505017528978936"><ele>193.0</ele><time>2026-04-12T11:55:04Z</time></trkpt><trkpt lat="44.21778333452228" lon="11.505103445246403"><ele>193.0</ele><time>2026-04-12T11:55:05Z</time></trkpt><trkpt lat="44.21796892218113" lon="11.50514701580962"><ele>193.0</ele><time>2026-04-12T11:55:06Z</time></trkpt><trkpt lat="44.21817487910726" lon="11.505181443622426"><ele>193.33333333333331</ele><time>2026-04-12T11:55:07Z</time></trkpt><trkpt lat="44.21836202643645" lon="11.505233156487051"><ele>193.66666666666669</ele><time>2026-04-12T11:55:08Z</time></trkpt><trkpt lat="44.21852972269874" lon="11.505296535488263"><ele>194.0</ele><time>2026-04-12T11:55:09Z</time></trkpt><trkpt lat="44.21868809136608" lon="11.505330478130183"><ele>194.0</ele><time>2026-04-12T11:55:10Z</time></trkpt><trkpt lat="44.21883945838126" lon="11.505333678998882"><ele>194.0</ele><time>2026-04-12T11:55:11Z</time></trkpt><trkpt lat="44.21898436097642" lon="11.505307726818112"><ele>194.0</ele><time>2026-04-12T11:55:12Z</time></trkpt><trkpt lat="44.21913596538711" lon="11.505228110076953"><ele>192.66666666666669</ele><time>2026-04-12T11:55:13Z</time></trkpt><trkpt lat="44.21933029327968" lon="11.50510246811548"><ele>191.33333333333334</ele><time>2026-04-12T11:55:14Z</time></trkpt><trkpt lat="44.219527402296656" lon="11.50497496019441"><ele>190.0</ele><time>2026-04-12T11:55:15Z</time></trkpt><trkpt lat="44.21971848016761" lon="11.5048589789932"><ele>188.0</ele><time>2026-04-12T11:55:16Z</time></trkpt><trkpt lat="44.219912403742896" lon="11.504744894335344"><ele>186.0</ele><time>2026-04-12T11:55:17Z</time></trkpt><trkpt lat="44.220105116058384" lon="11.504634194261792"><ele>184.0</ele><time>2026-04-12T11:55:18Z</time></trkpt><trkpt lat="44.22029708054204" lon="11.504519951749298"><ele>184.0</ele><time>2026-04-12T11:55:19Z</time></trkpt><trkpt lat="44.22048359125883" lon="11.504406295705465"><ele>184.0</ele><time>2026-04-12T11:55:20Z</time></trkpt><trkpt lat="44.22066036153841" lon="11.50429639148754"><ele>184.0</ele><time>2026-04-12T11:55:21Z</time></trkpt><trkpt lat="44.220825403409705" lon="11.504199318713301"><ele>182.33333333333334</ele><time>2026-04-12T11:55:22Z</time></trkpt><trkpt lat="44.220974125105364" lon="11.504106389425848"><ele>180.66666666666666</ele><time>2026-04-12T11:55:23Z</time></trkpt><trkpt lat="44.221118735286865" lon="11.504027481753555"><ele>179.0</ele><time>2026-04-12T11:55:24Z</time></trkpt><trkpt lat="44.2212511758068" lon="11.503938343890947"><ele>179.0</ele><time>2026-04-12T11:55:25Z</time></trkpt><trkpt lat="44.22137524592649" lon="11.503863045387003"><ele>179.0</ele><time>2026-04-12T11:55:26Z</time></trkpt><trkpt lat="44.22150198389013" lon="11.503827660856505"><ele>179.0</ele><time>2026-04-12T11:55:27Z</time></trkpt><trkpt lat="44.22162169306078" lon="11.503837623688817"><ele>179.0</ele><time>2026-04-12T11:55:28Z</time></trkpt><trkpt lat="44.2217171944629" lon="11.503959202011426"><ele>176.66666666666666</ele><time>2026-04-12T11:55:29Z</time></trkpt><trkpt lat="44.22186559803381" lon="11.504068647757833"><ele>174.33333333333334</ele><time>2026-04-12T11:55:30Z</time></trkpt><trkpt lat="44.222004959532754" lon="11.504224998581902"><ele>172.0</ele><time>2026-04-12T11:55:31Z</time></trkpt><trkpt lat="44.22212156035322" lon="11.504350153041456"><ele>172.0</ele><time>2026-04-12T11:55:32Z</time></trkpt><trkpt lat="44.222233278563806" lon="11.50445114650732"><ele>172.0</ele><time>2026-04-12T11:55:33Z</time></trkpt><trkpt lat="44.222348041166896" lon="11.504532879167682"><ele>172.0</ele><time>2026-04-12T11:55:34Z</time></trkpt><trkpt lat="44.222486744813004" lon="11.50455855035701"><ele>172.0</ele><time>2026-04-12T11:55:35Z</time></trkpt><trkpt lat="44.22263989457935" lon="11.504550855124963"><ele>171.66666666666669</ele><time>2026-04-12T11:55:36Z</time></trkpt><trkpt lat="44.22279244214075" lon="11.504515977921175"><ele>171.33333333333334</ele><time>2026-04-12T11:55:37Z</time></trkpt><trkpt lat="44.22294629244987" lon="11.504425314797642"><ele>171.0</ele><time>2026-04-12T11:55:38Z</time></trkpt><trkpt lat="44.223114513775556" lon="11.504409301200631"><ele>172.66666666666666</ele><time>2026-04-12T11:55:39Z</time></trkpt><trkpt lat="44.22327257576354" lon="11.50439295791348"><ele>174.33333333333331</ele><time>2026-04-12T11:55:40Z</time></trkpt><trkpt lat="44.22345698529636" lon="11.504410183093572"><ele>176.0</ele><time>2026-04-12T11:55:41Z</time></trkpt><trkpt lat="44.22363417687912" lon="11.504441158501182"><ele>176.0</ele><time>2026-04-12T11:55:42Z</time></trkpt><trkpt lat="44.223797214064184" lon="11.5044870936808"><ele>176.0</ele><time>2026-04-12T11:55:43Z</time></trkpt><trkpt lat="44.2239753024341" lon="11.504543175280935"><ele>176.0</ele><time>2026-04-12T11:55:44Z</time></trkpt><trkpt lat="44.224154547846304" lon="11.504587193057592"><ele>181.66666666666666</ele><time>2026-04-12T11:55:45Z</time></trkpt><trkpt lat="44.224333566361395" lon="11.504663598626108"><ele>187.33333333333331</ele><time>2026-04-12T11:55:46Z</time></trkpt><trkpt lat="44.2245193093269" lon="11.504703973264439"><ele>193.0</ele><time>2026-04-12T11:55:47Z</time></trkpt><trkpt lat="44.22470420413319" lon="11.504764639384621"><ele>190.33333333333331</ele><time>2026-04-12T11:55:48Z</time></trkpt><trkpt lat="44.224906415374825" lon="11.504816505806248"><ele>187.66666666666666</ele><time>2026-04-12T11:55:49Z</time></trkpt><trkpt lat="44.225077251451594" lon="11.504883400685916"><ele>185.0</ele><time>2026-04-12T11:55:50Z</time></trkpt><trkpt lat="44.22524958852368" lon="11.504935188030927"><ele>185.0</ele><time>2026-04-12T11:55:51Z</time></trkpt><trkpt lat="44.22542601241625" lon="11.504992633749035"><ele>185.0</ele><time>2026-04-12T11:55:52Z</time></trkpt><trkpt lat="44.225638620869304" lon="11.505046966778584"><ele>185.0</ele><time>2026-04-12T11:55:53Z</time></trkpt><trkpt lat="44.22585549385478" lon="11.50511573087229"><ele>181.33333333333331</ele><time>2026-04-12T11:55:54Z</time></trkpt><trkpt lat="44.226052548190104" lon="11.505177103410764"><ele>177.66666666666666</ele><time>2026-04-12T11:55:55Z</time></trkpt><trkpt lat="44.22625974025745" lon="11.50523982286068"><ele>174.0</ele><time>2026-04-12T11:55:56Z</time></trkpt><trkpt lat="44.226460907833726" lon="11.505299221077028"><ele>171.66666666666666</ele><time>2026-04-12T11:55:57Z</time></trkpt><trkpt lat="44.22667121138961" lon="11.505370080176318"><ele>169.33333333333331</ele><time>2026-04-12T11:55:58Z</time></trkpt><trkpt lat="44.22684705190547" lon="11.505439247867802"><ele>167.0</ele><time>2026-04-12T11:55:59Z</time></trkpt><trkpt lat="44.22702444639711" lon="11.505529871353108"><ele>168.33333333333331</ele><time>2026-04-12T11:56:00Z</time></trkpt><trkpt lat="44.227202925365695" lon="11.50563195178371"><ele>169.66666666666666</ele><time>2026-04-12T11:56:01Z</time></trkpt><trkpt lat="44.22734600876443" lon="11.505745878028264"><ele>171.0</ele><time>2026-04-12T11:56:02Z</time></trkpt><trkpt lat="44.22749224670052" lon="11.50586841168585"><ele>171.0</ele><time>2026-04-12T11:56:03Z</time></trkpt><trkpt lat="44.22759398479977" lon="11.506027541585405"><ele>171.0</ele><time>2026-04-12T11:56:04Z</time></trkpt><trkpt lat="44.22767584261965" lon="11.506222216487199"><ele>171.0</ele><time>2026-04-12T11:56:05Z</time></trkpt><trkpt lat="44.22774953040232" lon="11.506450724068987"><ele>174.33333333333334</ele><time>2026-04-12T11:56:06Z</time></trkpt><trkpt lat="44.22779217607935" lon="11.506698988510609"><ele>177.66666666666669</ele><time>2026-04-12T11:56:07Z</time></trkpt><trkpt lat="44.22782813844116" lon="11.506928462029496"><ele>181.0</ele><time>2026-04-12T11:56:08Z</time></trkpt><trkpt lat="44.22786281346121" lon="11.507172512922908"><ele>182.0</ele><time>2026-04-12T11:56:09Z</time></trkpt><trkpt lat="44.22789843947671" lon="11.507383867436179"><ele>183.0</ele><time>2026-04-12T11:56:10Z</time></trkpt><trkpt lat="44.22796964801192" lon="11.5075971949823"><ele>184.0</ele><time>2026-04-12T11:56:11Z</time></trkpt><trkpt lat="44.22807446852333" lon="11.507786729706687"><ele>180.66666666666669</ele><time>2026-04-12T11:56:12Z</time></trkpt><trkpt lat="44.22821888025275" lon="11.50795845299376"><ele>177.33333333333334</ele><time>2026-04-12T11:56:13Z</time></trkpt><trkpt lat="44.22839060398573" lon="11.508126437758044"><ele>174.0</ele><time>2026-04-12T11:56:14Z</time></trkpt><trkpt lat="44.22855360276755" lon="11.508293767384655"><ele>174.0</ele><time>2026-04-12T11:56:15Z</time></trkpt><trkpt lat="44.22870424225158" lon="11.508459849312574"><ele>174.0</ele><time>2026-04-12T11:56:16Z</time></trkpt><trkpt lat="44.228852937241285" lon="11.508627387331275"><ele>174.0</ele><time>2026-04-12T11:56:17Z</time></trkpt><trkpt lat="44.22900155270418" lon="11.508794441666732"><ele>173.33333333333334</ele><time>2026-04-12T11:56:18Z</time></trkpt><trkpt lat="44.229158707821774" lon="11.508961024675683"><ele>172.66666666666669</ele><time>2026-04-12T11:56:19Z</time></trkpt><trkpt lat="44.22932526956165" lon="11.509129845658682"><ele>172.0</ele><time>2026-04-12T11:56:20Z</time></trkpt><trkpt lat="44.22949978921466" lon="11.50927789951386"><ele>172.0</ele><time>2026-04-12T11:56:21Z</time></trkpt><trkpt lat="44.229663854243014" lon="11.509430254366796"><ele>172.0</ele><time>2026-04-12T11:56:22Z</time></trkpt><trkpt lat="44.229822029516185" lon="11.509595000272292"><ele>172.0</ele><time>2026-04-12T11:56:23Z</time></trkpt><trkpt lat="44.22997703460744" lon="11.509742053667987"><ele>171.0</ele><time>2026-04-12T11:56:24Z</time></trkpt><trkpt lat="44.23013747134549" lon="11.509890276612913"><ele>170.0</ele><time>2026-04-12T11:56:25Z</time></trkpt><trkpt lat="44.230302727378785" lon="11.510029996149132"><ele>169.0</ele><time>2026-04-12T11:56:26Z</time></trkpt><trkpt lat="44.23046543243222" lon="11.510191432630625"><ele>169.0</ele><time>2026-04-12T11:56:27Z</time></trkpt><trkpt lat="44.230632273883046" lon="11.510363554182193"><ele>169.0</ele><time>2026-04-12T11:56:28Z</time></trkpt><trkpt lat="44.230808424140704" lon="11.510542354694635"><ele>169.0</ele><time>2026-04-12T11:56:29Z</time></trkpt><trkpt lat="44.23099563919772" lon="11.510711424262198"><ele>169.66666666666669</ele><time>2026-04-12T11:56:30Z</time></trkpt><trkpt lat="44.23118187727001" lon="11.51088200566349"><ele>170.33333333333334</ele><time>2026-04-12T11:56:31Z</time></trkpt><trkpt lat="44.23137063749795" lon="11.511052018680147"><ele>171.0</ele><time>2026-04-12T11:56:32Z</time></trkpt><trkpt lat="44.231549418367415" lon="11.511219110242797"><ele>169.66666666666666</ele><time>2026-04-12T11:56:33Z</time></trkpt><trkpt lat="44.23172966880207" lon="11.51138634589263"><ele>168.33333333333331</ele><time>2026-04-12T11:56:34Z</time></trkpt><trkpt lat="44.231904104711276" lon="11.511550462208938"><ele>167.0</ele><time>2026-04-12T11:56:35Z</time></trkpt><trkpt lat="44.23208357191072" lon="11.511714682570855"><ele>167.0</ele><time>2026-04-12T11:56:36Z</time></trkpt><trkpt lat="44.23225315199137" lon="11.511879450480361"><ele>167.0</ele><time>2026-04-12T11:56:37Z</time></trkpt><trkpt lat="44.23242579472507" lon="11.512042840184732"><ele>167.0</ele><time>2026-04-12T11:56:38Z</time></trkpt><trkpt lat="44.232599605295874" lon="11.512200034012574"><ele>168.0</ele><time>2026-04-12T11:56:39Z</time></trkpt><trkpt lat="44.23277036610546" lon="11.512356508107457"><ele>169.0</ele><time>2026-04-12T11:56:40Z</time></trkpt><trkpt lat="44.232933362506984" lon="11.512510352978621"><ele>170.0</ele><time>2026-04-12T11:56:41Z</time></trkpt><trkpt lat="44.23310574605427" lon="11.51266292218683"><ele>169.33333333333331</ele><time>2026-04-12T11:56:42Z</time></trkpt><trkpt lat="44.23327776094066" lon="11.51281585231779"><ele>168.66666666666666</ele><time>2026-04-12T11:56:43Z</time></trkpt><trkpt lat="44.23344459162837" lon="11.512967750430233"><ele>168.0</ele><time>2026-04-12T11:56:44Z</time></trkpt><trkpt lat="44.23359743023521" lon="11.51310702785988"><ele>166.0</ele><time>2026-04-12T11:56:45Z</time></trkpt><trkpt lat="44.23373911725572" lon="11.513248108474247"><ele>164.0</ele><time>2026-04-12T11:56:46Z</time></trkpt><trkpt lat="44.23386099674338" lon="11.51339278333431"><ele>162.0</ele><time>2026-04-12T11:56:47Z</time></trkpt><trkpt lat="44.23398252025156" lon="11.513548347835547"><ele>162.0</ele><time>2026-04-12T11:56:48Z</time></trkpt><trkpt lat="44.23406113329843" lon="11.513735272998725"><ele>162.0</ele><time>2026-04-12T11:56:49Z</time></trkpt><trkpt lat="44.23410269185697" lon="11.513951835824523"><ele>162.0</ele><time>2026-04-12T11:56:50Z</time></trkpt><trkpt lat="44.23409854288924" lon="11.51419047545808"><ele>164.66666666666666</ele><time>2026-04-12T11:56:51Z</time></trkpt><trkpt lat="44.234103327031136" lon="11.514445852641074"><ele>167.33333333333331</ele><time>2026-04-12T11:56:52Z</time></trkpt><trkpt lat="44.234116659221925" lon="11.514719659298708"><ele>170.0</ele><time>2026-04-12T11:56:53Z</time></trkpt><trkpt lat="44.23418353346101" lon="11.514985281970588"><ele>172.33333333333331</ele><time>2026-04-12T11:56:54Z</time></trkpt><trkpt lat="44.23425559204164" lon="11.515243985181208"><ele>174.66666666666666</ele><time>2026-04-12T11:56:55Z</time></trkpt><trkpt lat="44.234324296314995" lon="11.515482107238373"><ele>177.0</ele><time>2026-04-12T11:56:56Z</time></trkpt><trkpt lat="44.234375927761576" lon="11.515709979192021"><ele>178.0</ele><time>2026-04-12T11:56:57Z</time></trkpt><trkpt lat="44.2344200797968" lon="11.515952111278718"><ele>179.0</ele><time>2026-04-12T11:56:58Z</time></trkpt><trkpt lat="44.23444539267065" lon="11.516196455494285"><ele>180.0</ele><time>2026-04-12T11:56:59Z</time></trkpt><trkpt lat="44.23446024164603" lon="11.5164382051499"><ele>181.33333333333334</ele><time>2026-04-12T11:57:00Z</time></trkpt><trkpt lat="44.2344916361012" lon="11.516681307601552"><ele>182.66666666666669</ele><time>2026-04-12T11:57:01Z</time></trkpt><trkpt lat="44.23454260322892" lon="11.516910122575617"><ele>184.0</ele><time>2026-04-12T11:57:02Z</time></trkpt><trkpt lat="44.23462900575549" lon="11.517149637087801"><ele>186.33333333333334</ele><time>2026-04-12T11:57:03Z</time></trkpt><trkpt lat="44.23470629071361" lon="11.51733889187227"><ele>188.66666666666666</ele><time>2026-04-12T11:57:04Z</time></trkpt><trkpt lat="44.234815608184924" lon="11.517500302317355"><ele>191.0</ele><time>2026-04-12T11:57:05Z</time></trkpt><trkpt lat="44.234969135866216" lon="11.517644811769149"><ele>186.33333333333331</ele><time>2026-04-12T11:57:06Z</time></trkpt><trkpt lat="44.23512869101068" lon="11.517790279522123"><ele>181.66666666666666</ele><time>2026-04-12T11:57:07Z</time></trkpt><trkpt lat="44.23527941300205" lon="11.517952170891975"><ele>177.0</ele><time>2026-04-12T11:57:08Z</time></trkpt><trkpt lat="44.23543274140048" lon="11.518118341081811"><ele>177.0</ele><time>2026-04-12T11:57:09Z</time></trkpt><trkpt lat="44.235576940002446" lon="11.518280847717321"><ele>177.0</ele><time>2026-04-12T11:57:10Z</time></trkpt><trkpt lat="44.23572527342557" lon="11.518450839402837"><ele>177.0</ele><time>2026-04-12T11:57:11Z</time></trkpt><trkpt lat="44.23588343236269" lon="11.518619596284712"><ele>174.33333333333334</ele><time>2026-04-12T11:57:12Z</time></trkpt><trkpt lat="44.23603455536526" lon="11.518799941488906"><ele>171.66666666666669</ele><time>2026-04-12T11:57:13Z</time></trkpt><trkpt lat="44.23618885209041" lon="11.518975108789038"><ele>169.0</ele><time>2026-04-12T11:57:14Z</time></trkpt><trkpt lat="44.236331109004915" lon="11.519135133593307"><ele>168.33333333333334</ele><time>2026-04-12T11:57:15Z</time></trkpt><trkpt lat="44.236473385381736" lon="11.519300294176183"><ele>167.66666666666666</ele><time>2026-04-12T11:57:16Z</time></trkpt><trkpt lat="44.23661497592266" lon="11.519459233189943"><ele>167.0</ele><time>2026-04-12T11:57:17Z</time></trkpt><trkpt lat="44.23673652089259" lon="11.519599576576509"><ele>169.0</ele><time>2026-04-12T11:57:18Z</time></trkpt><trkpt lat="44.236859942564266" lon="11.519711200780696"><ele>171.0</ele><time>2026-04-12T11:57:19Z</time></trkpt><trkpt lat="44.23699805895882" lon="11.519764169519451"><ele>173.0</ele><time>2026-04-12T11:57:20Z</time></trkpt><trkpt lat="44.23713993328609" lon="11.519787861564385"><ele>175.0</ele><time>2026-04-12T11:57:21Z</time></trkpt><trkpt lat="44.237268600173145" lon="11.519809238234332"><ele>174.0</ele><time>2026-04-12T11:57:22Z</time></trkpt><trkpt lat="44.2373679979106" lon="11.519856746143883"><ele>173.0</ele><time>2026-04-12T11:57:23Z</time></trkpt><trkpt lat="44.23745867582614" lon="11.51997888710454"><ele>172.0</ele><time>2026-04-12T11:57:24Z</time></trkpt><trkpt lat="44.23754139163253" lon="11.52014360131349"><ele>171.0</ele><time>2026-04-12T11:57:25Z</time></trkpt><trkpt lat="44.23761167813686" lon="11.520324180889064"><ele>178.0</ele><time>2026-04-12T11:57:26Z</time></trkpt><trkpt lat="44.237708673327745" lon="11.520492517448153"><ele>185.0</ele><time>2026-04-12T11:57:27Z</time></trkpt><trkpt lat="44.237840407121766" lon="11.520615545200274"><ele>192.0</ele><time>2026-04-12T11:57:28Z</time></trkpt><trkpt lat="44.23798067221855" lon="11.520710588660316"><ele>192.0</ele><time>2026-04-12T11:57:29Z</time></trkpt><trkpt lat="44.23812674734537" lon="11.520806967436062"><ele>192.0</ele><time>2026-04-12T11:57:30Z</time></trkpt><trkpt lat="44.238267425521535" lon="11.52092115276916"><ele>192.0</ele><time>2026-04-12T11:57:31Z</time></trkpt><trkpt lat="44.2383952086822" lon="11.52105614524625"><ele>192.66666666666669</ele><time>2026-04-12T11:57:32Z</time></trkpt><trkpt lat="44.23849766266189" lon="11.52123744413426"><ele>193.33333333333334</ele><time>2026-04-12T11:57:33Z</time></trkpt><trkpt lat="44.23858761791013" lon="11.521437446416554"><ele>194.0</ele><time>2026-04-12T11:57:34Z</time></trkpt><trkpt lat="44.238694240183264" lon="11.52162439526563"><ele>194.0</ele><time>2026-04-12T11:57:35Z</time></trkpt><trkpt lat="44.23882023372339" lon="11.521781979997611"><ele>194.0</ele><time>2026-04-12T11:57:36Z</time></trkpt><trkpt lat="44.238942728522446" lon="11.521935244928837"><ele>194.0</ele><time>2026-04-12T11:57:37Z</time></trkpt><trkpt lat="44.2390453304365" lon="11.522096985291675"><ele>191.33333333333334</ele><time>2026-04-12T11:57:38Z</time></trkpt><trkpt lat="44.239130595703074" lon="11.522284616016789"><ele>188.66666666666669</ele><time>2026-04-12T11:57:39Z</time></trkpt><trkpt lat="44.239200502654455" lon="11.522497497803828"><ele>186.0</ele><time>2026-04-12T11:57:40Z</time></trkpt><trkpt lat="44.239293136774215" lon="11.522692544523098"><ele>186.0</ele><time>2026-04-12T11:57:41Z</time></trkpt><trkpt lat="44.239403144205994" lon="11.522869227755509"><ele>186.0</ele><time>2026-04-12T11:57:42Z</time></trkpt><trkpt lat="44.239516163151094" lon="11.52302281706065"><ele>186.0</ele><time>2026-04-12T11:57:43Z</time></trkpt><trkpt lat="44.2396187028386" lon="11.523168037385094"><ele>187.25</ele><time>2026-04-12T11:57:44Z</time></trkpt><trkpt lat="44.239732148032196" lon="11.52330531990679"><ele>188.5</ele><time>2026-04-12T11:57:45Z</time></trkpt><trkpt lat="44.23985946356089" lon="11.523387024584737"><ele>189.75</ele><time>2026-04-12T11:57:46Z</time></trkpt><trkpt lat="44.23999993287425" lon="11.523398256711369"><ele>191.0</ele><time>2026-04-12T11:57:47Z</time></trkpt><trkpt lat="44.24015105443225" lon="11.523347226224688"><ele>191.0</ele><time>2026-04-12T11:57:48Z</time></trkpt><trkpt lat="44.24031139323733" lon="11.523241495336515"><ele>191.0</ele><time>2026-04-12T11:57:49Z</time></trkpt><trkpt lat="44.24046462824263" lon="11.52313231760026"><ele>191.0</ele><time>2026-04-12T11:57:50Z</time></trkpt><trkpt lat="44.24061308256245" lon="11.523081224118593"><ele>191.0</ele><time>2026-04-12T11:57:51Z</time></trkpt><trkpt lat="44.24074912054333" lon="11.523047043997089"><ele>191.0</ele><time>2026-04-12T11:57:52Z</time></trkpt><trkpt lat="44.24087999760854" lon="11.523072926347906"><ele>191.0</ele><time>2026-04-12T11:57:53Z</time></trkpt><trkpt lat="44.24102573660702" lon="11.523163302511668"><ele>191.0</ele><time>2026-04-12T11:57:54Z</time></trkpt><trkpt lat="44.24114490314991" lon="11.523293319825932"><ele>191.0</ele><time>2026-04-12T11:57:55Z</time></trkpt><trkpt lat="44.24125336817859" lon="11.523463934266307"><ele>191.0</ele><time>2026-04-12T11:57:56Z</time></trkpt><trkpt lat="44.24136323777569" lon="11.523651562356575"><ele>191.0</ele><time>2026-04-12T11:57:57Z</time></trkpt><trkpt lat="44.241477357330844" lon="11.52380849072718"><ele>192.0</ele><time>2026-04-12T11:57:58Z</time></trkpt><trkpt lat="44.2415934762147" lon="11.523951540904138"><ele>193.0</ele><time>2026-04-12T11:57:59Z</time></trkpt><trkpt lat="44.24169717749054" lon="11.524089637909501"><ele>194.0</ele><time>2026-04-12T11:58:00Z</time></trkpt><trkpt lat="44.24180377616553" lon="11.524227942498484"><ele>195.0</ele><time>2026-04-12T11:58:01Z</time></trkpt><trkpt lat="44.2419150503367" lon="11.524363024791944"><ele>195.0</ele><time>2026-04-12T11:58:02Z</time></trkpt><trkpt lat="44.24203532899849" lon="11.52449078773925"><ele>195.0</ele><time>2026-04-12T11:58:03Z</time></trkpt><trkpt lat="44.24218070948018" lon="11.524608812886951"><ele>195.0</ele><time>2026-04-12T11:58:04Z</time></trkpt><trkpt lat="44.242331156091886" lon="11.524704453543402"><ele>195.33333333333331</ele><time>2026-04-12T11:58:05Z</time></trkpt><trkpt lat="44.24248615130031" lon="11.524793565670132"><ele>195.66666666666666</ele><time>2026-04-12T11:58:06Z</time></trkpt><trkpt lat="44.24263483972649" lon="11.52489616407844"><ele>196.0</ele><time>2026-04-12T11:58:07Z</time></trkpt><trkpt lat="44.24276730832691" lon="11.525023999498192"><ele>196.0</ele><time>2026-04-12T11:58:08Z</time></trkpt><trkpt lat="44.24288791394364" lon="11.525193262356117"><ele>196.0</ele><time>2026-04-12T11:58:09Z</time></trkpt><trkpt lat="44.242989545060865" lon="11.525399625335334"><ele>196.0</ele><time>2026-04-12T11:58:10Z</time></trkpt><trkpt lat="44.24305847031885" lon="11.525640125845747"><ele>196.66666666666666</ele><time>2026-04-12T11:58:11Z</time></trkpt><trkpt lat="44.243076028459036" lon="11.525905683574836"><ele>197.33333333333331</ele><time>2026-04-12T11:58:12Z</time></trkpt><trkpt lat="44.243080084875764" lon="11.52616659940436"><ele>198.0</ele><time>2026-04-12T11:58:13Z</time></trkpt><trkpt lat="44.24306383014124" lon="11.52643566502714"><ele>196.33333333333331</ele><time>2026-04-12T11:58:14Z</time></trkpt><trkpt lat="44.24301637908772" lon="11.526690722309432"><ele>194.66666666666666</ele><time>2026-04-12T11:58:15Z</time></trkpt><trkpt lat="44.24296078757231" lon="11.526951926064394"><ele>193.0</ele><time>2026-04-12T11:58:16Z</time></trkpt><trkpt lat="44.24291484082129" lon="11.527205818029872"><ele>191.33333333333331</ele><time>2026-04-12T11:58:17Z</time></trkpt><trkpt lat="44.24287707748083" lon="11.527453481778466"><ele>189.66666666666666</ele><time>2026-04-12T11:58:18Z</time></trkpt><trkpt lat="44.24283703848232" lon="11.527680768959303"><ele>188.0</ele><time>2026-04-12T11:58:19Z</time></trkpt><trkpt lat="44.24279349270506" lon="11.527895627759184"><ele>188.0</ele><time>2026-04-12T11:58:20Z</time></trkpt><trkpt lat="44.24275201939153" lon="11.528102944021347"><ele>188.0</ele><time>2026-04-12T11:58:21Z</time></trkpt><trkpt lat="44.24271766927837" lon="11.52830771798123"><ele>188.0</ele><time>2026-04-12T11:58:22Z</time></trkpt><trkpt lat="44.24269341784871" lon="11.52849745350195"><ele>188.0</ele><time>2026-04-12T11:58:23Z</time></trkpt><trkpt lat="44.24271865168082" lon="11.528704514177688"><ele>192.66666666666666</ele><time>2026-04-12T11:58:24Z</time></trkpt><trkpt lat="44.242799117874945" lon="11.528896275527634"><ele>197.33333333333331</ele><time>2026-04-12T11:58:25Z</time></trkpt><trkpt lat="44.24294716878509" lon="11.529097821920436"><ele>202.0</ele><time>2026-04-12T11:58:26Z</time></trkpt><trkpt lat="44.2431007913381" lon="11.529309892959722"><ele>201.0</ele><time>2026-04-12T11:58:27Z</time></trkpt><trkpt lat="44.24323248038761" lon="11.529530322016548"><ele>200.0</ele><time>2026-04-12T11:58:28Z</time></trkpt><trkpt lat="44.24335279418552" lon="11.52975185861129"><ele>199.0</ele><time>2026-04-12T11:58:29Z</time></trkpt><trkpt lat="44.24346756012459" lon="11.529960862158019"><ele>201.0</ele><time>2026-04-12T11:58:30Z</time></trkpt><trkpt lat="44.24359009324682" lon="11.53016813765158"><ele>203.0</ele><time>2026-04-12T11:58:31Z</time></trkpt><trkpt lat="44.24371767282964" lon="11.53038522949888"><ele>205.0</ele><time>2026-04-12T11:58:32Z</time></trkpt><trkpt lat="44.24384545699415" lon="11.530600807448508"><ele>205.33333333333331</ele><time>2026-04-12T11:58:33Z</time></trkpt><trkpt lat="44.24397588327776" lon="11.530820323839576"><ele>205.66666666666669</ele><time>2026-04-12T11:58:34Z</time></trkpt><trkpt lat="44.24410902946976" lon="11.5310390094823"><ele>206.0</ele><time>2026-04-12T11:58:35Z</time></trkpt><trkpt lat="44.24424216546797" lon="11.531270553113506"><ele>206.0</ele><time>2026-04-12T11:58:36Z</time></trkpt><trkpt lat="44.24437614191286" lon="11.531498402234238"><ele>206.0</ele><time>2026-04-12T11:58:37Z</time></trkpt><trkpt lat="44.24449922177645" lon="11.531714971117935"><ele>206.0</ele><time>2026-04-12T11:58:38Z</time></trkpt><trkpt lat="44.24462544556883" lon="11.531926194007093"><ele>204.66666666666669</ele><time>2026-04-12T11:58:39Z</time></trkpt><trkpt lat="44.24475450979207" lon="11.532149424306654"><ele>203.33333333333331</ele><time>2026-04-12T11:58:40Z</time></trkpt><trkpt lat="44.24487956679735" lon="11.532376959456808"><ele>202.0</ele><time>2026-04-12T11:58:41Z</time></trkpt><trkpt lat="44.24499959424497" lon="11.5326200067351"><ele>202.0</ele><time>2026-04-12T11:58:42Z</time></trkpt><trkpt lat="44.245109028859865" lon="11.532857411139673"><ele>202.0</ele><time>2026-04-12T11:58:43Z</time></trkpt><trkpt lat="44.24522365938598" lon="11.53310565105264"><ele>202.0</ele><time>2026-04-12T11:58:44Z</time></trkpt><trkpt lat="44.2453415055097" lon="11.53334615506366"><ele>204.0</ele><time>2026-04-12T11:58:45Z</time></trkpt><trkpt lat="44.24545330076825" lon="11.533588300727883"><ele>206.0</ele><time>2026-04-12T11:58:46Z</time></trkpt><trkpt lat="44.24557608720467" lon="11.533835428913568"><ele>208.0</ele><time>2026-04-12T11:58:47Z</time></trkpt><trkpt lat="44.245695542473435" lon="11.53409198805368"><ele>206.0</ele><time>2026-04-12T11:58:48Z</time></trkpt><trkpt lat="44.24580447842627" lon="11.534355688108663"><ele>204.0</ele><time>2026-04-12T11:58:49Z</time></trkpt><trkpt lat="44.24592162946879" lon="11.534621300137166"><ele>202.0</ele><time>2026-04-12T11:58:50Z</time></trkpt><trkpt lat="44.246042846552974" lon="11.534882247059365"><ele>202.0</ele><time>2026-04-12T11:58:51Z</time></trkpt><trkpt lat="44.24617619697363" lon="11.535128112562116"><ele>202.0</ele><time>2026-04-12T11:58:52Z</time></trkpt><trkpt lat="44.246317042639255" lon="11.535372949597155"><ele>202.0</ele><time>2026-04-12T11:58:53Z</time></trkpt><trkpt lat="44.24644188097125" lon="11.535628334326002"><ele>200.0</ele><time>2026-04-12T11:58:54Z</time></trkpt><trkpt lat="44.246552417629744" lon="11.535890284264019"><ele>198.0</ele><time>2026-04-12T11:58:55Z</time></trkpt><trkpt lat="44.24666836391385" lon="11.536147513132658"><ele>196.0</ele><time>2026-04-12T11:58:56Z</time></trkpt><trkpt lat="44.24677105591197" lon="11.536388286437765"><ele>196.0</ele><time>2026-04-12T11:58:57Z</time></trkpt><trkpt lat="44.24688050207851" lon="11.536623033839597"><ele>196.0</ele><time>2026-04-12T11:58:58Z</time></trkpt><trkpt lat="44.246985821217216" lon="11.536849607318745"><ele>196.0</ele><time>2026-04-12T11:58:59Z</time></trkpt><trkpt lat="44.247090719939436" lon="11.537071542555557"><ele>199.66666666666666</ele><time>2026-04-12T11:59:00Z</time></trkpt><trkpt lat="44.247189443657575" lon="11.537293040986004"><ele>203.33333333333331</ele><time>2026-04-12T11:59:01Z</time></trkpt><trkpt lat="44.24728323935686" lon="11.537515893982306"><ele>207.0</ele><time>2026-04-12T11:59:02Z</time></trkpt><trkpt lat="44.24737354582421" lon="11.53775190907028"><ele>200.33333333333334</ele><time>2026-04-12T11:59:03Z</time></trkpt><trkpt lat="44.24744832579747" lon="11.538004556098484"><ele>193.66666666666669</ele><time>2026-04-12T11:59:04Z</time></trkpt><trkpt lat="44.247511880192086" lon="11.538270161522822"><ele>187.0</ele><time>2026-04-12T11:59:05Z</time></trkpt><trkpt lat="44.247583312281655" lon="11.538545314289953"><ele>189.0</ele><time>2026-04-12T11:59:06Z</time></trkpt><trkpt lat="44.24766269585131" lon="11.538821122708939"><ele>191.0</ele><time>2026-04-12T11:59:07Z</time></trkpt><trkpt lat="44.24774336363577" lon="11.539098996859556"><ele>193.0</ele><time>2026-04-12T11:59:08Z</time></trkpt><trkpt lat="44.24782359188563" lon="11.539366573422523"><ele>197.0</ele><time>2026-04-12T11:59:09Z</time></trkpt><trkpt lat="44.24790112331583" lon="11.53962560433009"><ele>201.0</ele><time>2026-04-12T11:59:10Z</time></trkpt><trkpt lat="44.24797533517205" lon="11.539880872422014"><ele>205.0</ele><time>2026-04-12T11:59:11Z</time></trkpt><trkpt lat="44.24804928003042" lon="11.54013923957563"><ele>207.66666666666666</ele><time>2026-04-12T11:59:12Z</time></trkpt><trkpt lat="44.24812510927746" lon="11.540395919419298"><ele>210.33333333333331</ele><time>2026-04-12T11:59:13Z</time></trkpt><trkpt lat="44.248199846723395" lon="11.540651185550278"><ele>213.0</ele><time>2026-04-12T11:59:14Z</time></trkpt><trkpt lat="44.24827641173857" lon="11.540907722919947"><ele>206.0</ele><time>2026-04-12T11:59:15Z</time></trkpt><trkpt lat="44.24835124204952" lon="11.541161608418466"><ele>199.0</ele><time>2026-04-12T11:59:16Z</time></trkpt><trkpt lat="44.24842733764022" lon="11.541414952084668"><ele>192.0</ele><time>2026-04-12T11:59:17Z</time></trkpt><trkpt lat="44.24851359269388" lon="11.541670344710973"><ele>192.0</ele><time>2026-04-12T11:59:18Z</time></trkpt><trkpt lat="44.24861361761601" lon="11.541913876337949"><ele>192.0</ele><time>2026-04-12T11:59:19Z</time></trkpt><trkpt lat="44.24872896937935" lon="11.542127745501164"><ele>192.0</ele><time>2026-04-12T11:59:20Z</time></trkpt><trkpt lat="44.24887088546502" lon="11.542300276368746"><ele>189.33333333333334</ele><time>2026-04-12T11:59:21Z</time></trkpt><trkpt lat="44.249039313857025" lon="11.542453228722188"><ele>186.66666666666669</ele><time>2026-04-12T11:59:22Z</time></trkpt><trkpt lat="44.24920473114328" lon="11.542631420646597"><ele>184.0</ele><time>2026-04-12T11:59:23Z</time></trkpt><trkpt lat="44.24934508123648" lon="11.542864627397176"><ele>188.0</ele><time>2026-04-12T11:59:24Z</time></trkpt><trkpt lat="44.24947677529222" lon="11.543106975061745"><ele>192.0</ele><time>2026-04-12T11:59:25Z</time></trkpt><trkpt lat="44.2496118875656" lon="11.543317913975493"><ele>196.0</ele><time>2026-04-12T11:59:26Z</time></trkpt><trkpt lat="44.24974925747531" lon="11.543521613236384"><ele>190.66666666666666</ele><time>2026-04-12T11:59:27Z</time></trkpt><trkpt lat="44.24989553969521" lon="11.543715142320224"><ele>185.33333333333331</ele><time>2026-04-12T11:59:28Z</time></trkpt><trkpt lat="44.250052106193415" lon="11.543882652204742"><ele>180.0</ele><time>2026-04-12T11:59:29Z</time></trkpt><trkpt lat="44.25021313354539" lon="11.544048714233945"><ele>180.0</ele><time>2026-04-12T11:59:30Z</time></trkpt><trkpt lat="44.25037345226034" lon="11.544223366737466"><ele>180.0</ele><time>2026-04-12T11:59:31Z</time></trkpt><trkpt lat="44.25053320265432" lon="11.544397804650165"><ele>180.0</ele><time>2026-04-12T11:59:32Z</time></trkpt><trkpt lat="44.250691074346065" lon="11.544571125217297"><ele>178.66666666666666</ele><time>2026-04-12T11:59:33Z</time></trkpt><trkpt lat="44.2508440603291" lon="11.544740643857944"><ele>177.33333333333331</ele><time>2026-04-12T11:59:34Z</time></trkpt><trkpt lat="44.25099486877053" lon="11.54491432665751"><ele>176.0</ele><time>2026-04-12T11:59:35Z</time></trkpt><trkpt lat="44.25113866211833" lon="11.545088491782124"><ele>176.0</ele><time>2026-04-12T11:59:36Z</time></trkpt><trkpt lat="44.25127961189214" lon="11.545249868775914"><ele>176.0</ele><time>2026-04-12T11:59:37Z</time></trkpt><trkpt lat="44.25141638386543" lon="11.545403264402479"><ele>176.0</ele><time>2026-04-12T11:59:38Z</time></trkpt><trkpt lat="44.25155478034512" lon="11.545563552005643"><ele>176.0</ele><time>2026-04-12T11:59:39Z</time></trkpt><trkpt lat="44.251694804975955" lon="11.545721436704715"><ele>176.0</ele><time>2026-04-12T11:59:40Z</time></trkpt><trkpt lat="44.25182876899449" lon="11.54588923762721"><ele>176.0</ele><time>2026-04-12T11:59:41Z</time></trkpt><trkpt lat="44.25194912748943" lon="11.54607804571191"><ele>175.66666666666666</ele><time>2026-04-12T11:59:42Z</time></trkpt><trkpt lat="44.25205757720117" lon="11.546283782806098"><ele>175.33333333333334</ele><time>2026-04-12T11:59:43Z</time></trkpt><trkpt lat="44.25214726807334" lon="11.546510193450171"><ele>175.0</ele><time>2026-04-12T11:59:44Z</time></trkpt><trkpt lat="44.25221716209475" lon="11.546755069937293"><ele>175.0</ele><time>2026-04-12T11:59:45Z</time></trkpt><trkpt lat="44.25226873314171" lon="11.547017988368843"><ele>175.0</ele><time>2026-04-12T11:59:46Z</time></trkpt><trkpt lat="44.25231343365541" lon="11.547283545513654"><ele>175.0</ele><time>2026-04-12T11:59:47Z</time></trkpt><trkpt lat="44.25235536498726" lon="11.547547552013441"><ele>175.33333333333334</ele><time>2026-04-12T11:59:48Z</time></trkpt><trkpt lat="44.25239576609306" lon="11.547803900916744"><ele>175.66666666666666</ele><time>2026-04-12T11:59:49Z</time></trkpt><trkpt lat="44.2524391176058" lon="11.548059071630334"><ele>176.0</ele><time>2026-04-12T11:59:50Z</time></trkpt><trkpt lat="44.252483300163455" lon="11.548317604835175"><ele>176.0</ele><time>2026-04-12T11:59:51Z</time></trkpt><trkpt lat="44.25252202936625" lon="11.548578173550554"><ele>176.0</ele><time>2026-04-12T11:59:52Z</time></trkpt><trkpt lat="44.25256570249063" lon="11.548844753673642"><ele>176.0</ele><time>2026-04-12T11:59:53Z</time></trkpt><trkpt lat="44.25261157529303" lon="11.54910941435103"><ele>175.66666666666666</ele><time>2026-04-12T11:59:54Z</time></trkpt><trkpt lat="44.25265667238161" lon="11.549353422102268"><ele>175.33333333333334</ele><time>2026-04-12T11:59:55Z</time></trkpt><trkpt lat="44.252701635323824" lon="11.549585615639653"><ele>175.0</ele><time>2026-04-12T11:59:56Z</time></trkpt><trkpt lat="44.25276366156487" lon="11.549819106609526"><ele>174.66666666666669</ele><time>2026-04-12T11:59:57Z</time></trkpt><trkpt lat="44.25286277132326" lon="11.55003814669125"><ele>174.33333333333334</ele><time>2026-04-12T11:59:58Z</time></trkpt><trkpt lat="44.252994654176376" lon="11.550235458656374"><ele>174.0</ele><time>2026-04-12T11:59:59Z</time></trkpt><trkpt lat="44.25314925677693" lon="11.55041473578313"><ele>174.0</ele><time>2026-04-12T12:00:00Z</time></trkpt><trkpt lat="44.253322752803385" lon="11.550580158921068"><ele>174.0</ele><time>2026-04-12T12:00:01Z</time></trkpt><trkpt lat="44.25350641608715" lon="11.550731412462701"><ele>174.0</ele><time>2026-04-12T12:00:02Z</time></trkpt><trkpt lat="44.25369149269565" lon="11.550887695614517"><ele>174.0</ele><time>2026-04-12T12:00:03Z</time></trkpt><trkpt lat="44.25387591866046" lon="11.551051607451935"><ele>174.0</ele><time>2026-04-12T12:00:04Z</time></trkpt><trkpt lat="44.254061683103" lon="11.551213432566685"><ele>174.0</ele><time>2026-04-12T12:00:05Z</time></trkpt><trkpt lat="44.254242521134906" lon="11.551379132987227"><ele>172.0</ele><time>2026-04-12T12:00:06Z</time></trkpt><trkpt lat="44.2543961477829" lon="11.551557343666214"><ele>170.0</ele><time>2026-04-12T12:00:07Z</time></trkpt><trkpt lat="44.25452700579726" lon="11.55176213035187"><ele>168.0</ele><time>2026-04-12T12:00:08Z</time></trkpt><trkpt lat="44.25463455332688" lon="11.551963333198922"><ele>168.0</ele><time>2026-04-12T12:00:09Z</time></trkpt><trkpt lat="44.25471773492877" lon="11.552152046041346"><ele>168.0</ele><time>2026-04-12T12:00:10Z</time></trkpt><trkpt lat="44.254788515030356" lon="11.55233373556822"><ele>168.0</ele><time>2026-04-12T12:00:11Z</time></trkpt><trkpt lat="44.25485814744929" lon="11.552506560631775"><ele>168.0</ele><time>2026-04-12T12:00:12Z</time></trkpt><trkpt lat="44.25493079859022" lon="11.552675185388841"><ele>168.0</ele><time>2026-04-12T12:00:13Z</time></trkpt><trkpt lat="44.25500296154869" lon="11.552849832178167"><ele>168.0</ele><time>2026-04-12T12:00:14Z</time></trkpt><trkpt lat="44.25507110332955" lon="11.553025202458903"><ele>168.0</ele><time>2026-04-12T12:00:15Z</time></trkpt><trkpt lat="44.2551385814498" lon="11.553194448818761"><ele>168.0</ele><time>2026-04-12T12:00:16Z</time></trkpt><trkpt lat="44.25520794358847" lon="11.553368370432084"><ele>168.66666666666666</ele><time>2026-04-12T12:00:17Z</time></trkpt><trkpt lat="44.255282185563985" lon="11.553552395388133"><ele>169.33333333333331</ele><time>2026-04-12T12:00:18Z</time></trkpt><trkpt lat="44.2553580944449" lon="11.553738343532828"><ele>170.0</ele><time>2026-04-12T12:00:19Z</time></trkpt><trkpt lat="44.25544165700928" lon="11.553909870175401"><ele>170.33333333333331</ele><time>2026-04-12T12:00:20Z</time></trkpt><trkpt lat="44.25552794357279" lon="11.554087452004724"><ele>170.66666666666666</ele><time>2026-04-12T12:00:21Z</time></trkpt><trkpt lat="44.25563791021457" lon="11.554271315482412"><ele>171.0</ele><time>2026-04-12T12:00:22Z</time></trkpt><trkpt lat="44.25575325009976" lon="11.554432200789757"><ele>171.75</ele><time>2026-04-12T12:00:23Z</time></trkpt><trkpt lat="44.25583783940316" lon="11.554593526961733"><ele>172.5</ele><time>2026-04-12T12:00:24Z</time></trkpt><trkpt lat="44.25593064462432" lon="11.554737365794857"><ele>173.25</ele><time>2026-04-12T12:00:25Z</time></trkpt><trkpt lat="44.25603328096918" lon="11.554861940844829"><ele>174.0</ele><time>2026-04-12T12:00:26Z</time></trkpt><trkpt lat="44.25610500845048" lon="11.555002180595956"><ele>174.0</ele><time>2026-04-12T12:00:27Z</time></trkpt><trkpt lat="44.25619825886963" lon="11.555115981105065"><ele>174.0</ele><time>2026-04-12T12:00:28Z</time></trkpt><trkpt lat="44.25628031319775" lon="11.555249675995535"><ele>174.0</ele><time>2026-04-12T12:00:29Z</time></trkpt><trkpt lat="44.25636180146461" lon="11.555383627273518"><ele>174.0</ele><time>2026-04-12T12:00:30Z</time></trkpt><trkpt lat="44.25644906640785" lon="11.555545356247608"><ele>174.0</ele><time>2026-04-12T12:00:31Z</time></trkpt><trkpt lat="44.25655077767395" lon="11.555686678577558"><ele>174.0</ele><time>2026-04-12T12:00:32Z</time></trkpt><trkpt lat="44.256648704247915" lon="11.555831590526019"><ele>174.0</ele><time>2026-04-12T12:00:33Z</time></trkpt><trkpt lat="44.25674633056278" lon="11.555978262987706"><ele>174.0</ele><time>2026-04-12T12:00:34Z</time></trkpt><trkpt lat="44.25684483584826" lon="11.556125202531863"><ele>174.0</ele><time>2026-04-12T12:00:35Z</time></trkpt><trkpt lat="44.25694685813184" lon="11.556277850386394"><ele>174.0</ele><time>2026-04-12T12:00:36Z</time></trkpt><trkpt lat="44.25704186342775" lon="11.556426814907457"><ele>174.0</ele><time>2026-04-12T12:00:37Z</time></trkpt><trkpt lat="44.2571419492626" lon="11.556571406302456"><ele>174.0</ele><time>2026-04-12T12:00:38Z</time></trkpt><trkpt lat="44.25724225510663" lon="11.556719664222012"><ele>173.75</ele><time>2026-04-12T12:00:39Z</time></trkpt><trkpt lat="44.25734039186859" lon="11.55686833765134"><ele>173.5</ele><time>2026-04-12T12:00:40Z</time></trkpt><trkpt lat="44.25743809728542" lon="11.557013245323851"><ele>173.25</ele><time>2026-04-12T12:00:41Z</time></trkpt><trkpt lat="44.25753685391" lon="11.557162411521197"><ele>173.0</ele><time>2026-04-12T12:00:42Z</time></trkpt><trkpt lat="44.257632403845136" lon="11.557311415521719"><ele>173.0</ele><time>2026-04-12T12:00:43Z</time></trkpt><trkpt lat="44.25772896560852" lon="11.557460887860483"><ele>173.0</ele><time>2026-04-12T12:00:44Z</time></trkpt><trkpt lat="44.257822309100334" lon="11.557596311050625"><ele>173.0</ele><time>2026-04-12T12:00:45Z</time></trkpt><trkpt lat="44.25791395078807" lon="11.557720532617445"><ele>173.0</ele><time>2026-04-12T12:00:46Z</time></trkpt><trkpt lat="44.25800396556009" lon="11.55785774355273"><ele>173.5</ele><time>2026-04-12T12:00:47Z</time></trkpt><trkpt lat="44.258097150985904" lon="11.557983546165726"><ele>174.0</ele><time>2026-04-12T12:00:48Z</time></trkpt><trkpt lat="44.258172738693304" lon="11.558110101873329"><ele>174.5</ele><time>2026-04-12T12:00:49Z</time></trkpt><trkpt lat="44.25825565759702" lon="11.558223487358509"><ele>175.0</ele><time>2026-04-12T12:00:50Z</time></trkpt><trkpt lat="44.25833433221148" lon="11.558339091808476"><ele>175.0</ele><time>2026-04-12T12:00:51Z</time></trkpt><trkpt lat="44.25840539825547" lon="11.558461964494771"><ele>175.0</ele><time>2026-04-12T12:00:52Z</time></trkpt><trkpt lat="44.258463915421785" lon="11.558560118408305"><ele>175.0</ele><time>2026-04-12T12:00:53Z</time></trkpt><trkpt lat="44.258514348419105" lon="11.558698717491804"><ele>175.0</ele><time>2026-04-12T12:00:54Z</time></trkpt><trkpt lat="44.258552053278855" lon="11.558836888441947"><ele>175.0</ele><time>2026-04-12T12:00:55Z</time></trkpt><trkpt lat="44.25858782003577" lon="11.558960993227142"><ele>175.2</ele><time>2026-04-12T12:00:56Z</time></trkpt><trkpt lat="44.25862072521074" lon="11.559109677913797"><ele>175.4</ele><time>2026-04-12T12:00:57Z</time></trkpt><trkpt lat="44.25865781510715" lon="11.559235361698326"><ele>175.60000000000002</ele><time>2026-04-12T12:00:58Z</time></trkpt><trkpt lat="44.25868984518539" lon="11.559360012992087"><ele>175.8</ele><time>2026-04-12T12:00:59Z</time></trkpt><trkpt lat="44.258717106343965" lon="11.559483415715217"><ele>176.0</ele><time>2026-04-12T12:01:00Z</time></trkpt><trkpt lat="44.25874051309995" lon="11.559596004934765"><ele>174.60000000000002</ele><time>2026-04-12T12:01:01Z</time></trkpt><trkpt lat="44.25876481131867" lon="11.559702998403369"><ele>173.2</ele><time>2026-04-12T12:01:02Z</time></trkpt><trkpt lat="44.25879036733545" lon="11.559797641071674"><ele>171.8</ele><time>2026-04-12T12:01:03Z</time></trkpt><trkpt lat="44.25883595282203" lon="11.559953181690735"><ele>170.39999999999998</ele><time>2026-04-12T12:01:05Z</time></trkpt><trkpt lat="44.25886854401473" lon="11.560113258644435"><ele>169.0</ele><time>2026-04-12T12:01:07Z</time></trkpt><trkpt lat="44.25890034221782" lon="11.560264686561604"><ele>169.16666666666669</ele><time>2026-04-12T12:01:09Z</time></trkpt><trkpt lat="44.258947658279894" lon="11.560426595710032"><ele>169.33333333333334</ele><time>2026-04-12T12:01:11Z</time></trkpt><trkpt lat="44.258972610999244" lon="11.560510168946388"><ele>169.5</ele><time>2026-04-12T12:01:12Z</time></trkpt><trkpt lat="44.2589966541032" lon="11.560595496683073"><ele>169.66666666666666</ele><time>2026-04-12T12:01:13Z</time></trkpt><trkpt lat="44.25902480999919" lon="11.560702287418748"><ele>169.83333333333331</ele><time>2026-04-12T12:01:14Z</time></trkpt><trkpt lat="44.25904655710963" lon="11.560808371687385"><ele>170.0</ele><time>2026-04-12T12:01:15Z</time></trkpt><trkpt lat="44.259074293308295" lon="11.56092911305308"><ele>170.0</ele><time>2026-04-12T12:01:16Z</time></trkpt><trkpt lat="44.2590985945151" lon="11.561055377860592"><ele>170.0</ele><time>2026-04-12T12:01:17Z</time></trkpt><trkpt lat="44.2591410541357" lon="11.56119182934804"><ele>170.0</ele><time>2026-04-12T12:01:18Z</time></trkpt><trkpt lat="44.25920478255046" lon="11.561324466649179"><ele>170.0</ele><time>2026-04-12T12:01:19Z</time></trkpt><trkpt lat="44.25931095465216" lon="11.561404577973915"><ele>170.0</ele><time>2026-04-12T12:01:20Z</time></trkpt><trkpt lat="44.25940919960077" lon="11.561538001124829"><ele>170.75</ele><time>2026-04-12T12:01:21Z</time></trkpt><trkpt lat="44.259514429469185" lon="11.561663434356884"><ele>171.5</ele><time>2026-04-12T12:01:22Z</time></trkpt><trkpt lat="44.25963648432045" lon="11.561754718632669"><ele>172.25</ele><time>2026-04-12T12:01:23Z</time></trkpt><trkpt lat="44.25976448397766" lon="11.561847817723883"><ele>173.0</ele><time>2026-04-12T12:01:24Z</time></trkpt><trkpt lat="44.25990256727328" lon="11.561922018491094"><ele>171.66666666666666</ele><time>2026-04-12T12:01:25Z</time></trkpt><trkpt lat="44.26005570806155" lon="11.561997028761107"><ele>170.33333333333334</ele><time>2026-04-12T12:01:26Z</time></trkpt><trkpt lat="44.26022388030954" lon="11.562071271583914"><ele>169.0</ele><time>2026-04-12T12:01:27Z</time></trkpt><trkpt lat="44.26038160448685" lon="11.562137965376465"><ele>169.0</ele><time>2026-04-12T12:01:28Z</time></trkpt><trkpt lat="44.260518850787214" lon="11.56220503895588"><ele>169.0</ele><time>2026-04-12T12:01:29Z</time></trkpt><trkpt lat="44.26063394907342" lon="11.562264535076721"><ele>169.0</ele><time>2026-04-12T12:01:30Z</time></trkpt><trkpt lat="44.260759536369115" lon="11.562329510403542"><ele>169.0</ele><time>2026-04-12T12:01:31Z</time></trkpt><trkpt lat="44.26086781695089" lon="11.562409240424001"><ele>169.5</ele><time>2026-04-12T12:01:32Z</time></trkpt><trkpt lat="44.26097153989502" lon="11.562499398157039"><ele>170.0</ele><time>2026-04-12T12:01:33Z</time></trkpt><trkpt lat="44.26107578000579" lon="11.562609357908366"><ele>170.5</ele><time>2026-04-12T12:01:34Z</time></trkpt><trkpt lat="44.26118773615734" lon="11.562738146317905"><ele>171.0</ele><time>2026-04-12T12:01:35Z</time></trkpt><trkpt lat="44.26129650867357" lon="11.562867176257798"><ele>169.75</ele><time>2026-04-12T12:01:36Z</time></trkpt><trkpt lat="44.261402872931605" lon="11.56300566228404"><ele>168.5</ele><time>2026-04-12T12:01:37Z</time></trkpt><trkpt lat="44.2615087976019" lon="11.563133918125367"><ele>167.25</ele><time>2026-04-12T12:01:38Z</time></trkpt><trkpt lat="44.26161140068207" lon="11.563271621854515"><ele>166.0</ele><time>2026-04-12T12:01:39Z</time></trkpt><trkpt lat="44.261713905206996" lon="11.563400694802734"><ele>166.0</ele><time>2026-04-12T12:01:40Z</time></trkpt><trkpt lat="44.26181192615994" lon="11.563529182453468"><ele>166.0</ele><time>2026-04-12T12:01:41Z</time></trkpt><trkpt lat="44.261916152154235" lon="11.563655082788593"><ele>166.0</ele><time>2026-04-12T12:01:42Z</time></trkpt><trkpt lat="44.26201257148685" lon="11.563777181832146"><ele>166.0</ele><time>2026-04-12T12:01:43Z</time></trkpt><trkpt lat="44.26210603944989" lon="11.563909385380446"><ele>165.0</ele><time>2026-04-12T12:01:44Z</time></trkpt><trkpt lat="44.26220397410862" lon="11.564036969848013"><ele>164.0</ele><time>2026-04-12T12:01:45Z</time></trkpt><trkpt lat="44.262303249289424" lon="11.564162204373563"><ele>163.0</ele><time>2026-04-12T12:01:46Z</time></trkpt><trkpt lat="44.26240641943245" lon="11.56429451032009"><ele>162.0</ele><time>2026-04-12T12:01:47Z</time></trkpt><trkpt lat="44.262504093848435" lon="11.564421236705094"><ele>163.0</ele><time>2026-04-12T12:01:48Z</time></trkpt><trkpt lat="44.2626068300158" lon="11.564552522696621"><ele>164.0</ele><time>2026-04-12T12:01:49Z</time></trkpt><trkpt lat="44.26271616114527" lon="11.56469846669191"><ele>165.0</ele><time>2026-04-12T12:01:50Z</time></trkpt><trkpt lat="44.262822277544856" lon="11.564830366991703"><ele>166.0</ele><time>2026-04-12T12:01:51Z</time></trkpt><trkpt lat="44.26293612224271" lon="11.564959193033042"><ele>166.0</ele><time>2026-04-12T12:01:52Z</time></trkpt><trkpt lat="44.26303611687116" lon="11.565084899033291"><ele>166.0</ele><time>2026-04-12T12:01:53Z</time></trkpt><trkpt lat="44.26313420798615" lon="11.565201405720263"><ele>166.0</ele><time>2026-04-12T12:01:54Z</time></trkpt><trkpt lat="44.26322893927217" lon="11.565315569482813"><ele>166.0</ele><time>2026-04-12T12:01:55Z</time></trkpt><trkpt lat="44.26332257179949" lon="11.56544298802453"><ele>165.0</ele><time>2026-04-12T12:01:56Z</time></trkpt><trkpt lat="44.26342100290891" lon="11.56557349225907"><ele>164.0</ele><time>2026-04-12T12:01:57Z</time></trkpt><trkpt lat="44.26352062025999" lon="11.565694266187586"><ele>163.0</ele><time>2026-04-12T12:01:58Z</time></trkpt><trkpt lat="44.26362670973607" lon="11.565824968689377"><ele>162.0</ele><time>2026-04-12T12:01:59Z</time></trkpt><trkpt lat="44.263726495807454" lon="11.565959226532977"><ele>162.0</ele><time>2026-04-12T12:02:00Z</time></trkpt><trkpt lat="44.263817779194625" lon="11.566108810271773"><ele>162.0</ele><time>2026-04-12T12:02:01Z</time></trkpt><trkpt lat="44.26389365971648" lon="11.566269442471663"><ele>162.0</ele><time>2026-04-12T12:02:02Z</time></trkpt><trkpt lat="44.2639625393953" lon="11.566439846766887"><ele>162.0</ele><time>2026-04-12T12:02:03Z</time></trkpt><trkpt lat="44.26403167556786" lon="11.566614613413861"><ele>161.25</ele><time>2026-04-12T12:02:04Z</time></trkpt><trkpt lat="44.26409590853299" lon="11.566798409724058"><ele>160.5</ele><time>2026-04-12T12:02:05Z</time></trkpt><trkpt lat="44.264152681528515" lon="11.566982670621908"><ele>159.75</ele><time>2026-04-12T12:02:06Z</time></trkpt><trkpt lat="44.264210802986725" lon="11.567162861003327"><ele>159.0</ele><time>2026-04-12T12:02:07Z</time></trkpt><trkpt lat="44.264266230051156" lon="11.567339142253386"><ele>159.0</ele><time>2026-04-12T12:02:08Z</time></trkpt><trkpt lat="44.26432225771189" lon="11.567513242290419"><ele>159.0</ele><time>2026-04-12T12:02:09Z</time></trkpt><trkpt lat="44.264375953223606" lon="11.567689645570582"><ele>159.0</ele><time>2026-04-12T12:02:10Z</time></trkpt><trkpt lat="44.26442710596911" lon="11.567869952090382"><ele>159.0</ele><time>2026-04-12T12:02:11Z</time></trkpt><trkpt lat="44.26448680237199" lon="11.56804337778752"><ele>159.25</ele><time>2026-04-12T12:02:12Z</time></trkpt><trkpt lat="44.2645430567183" lon="11.568207882560063"><ele>159.5</ele><time>2026-04-12T12:02:13Z</time></trkpt><trkpt lat="44.2645956570164" lon="11.568373440119862"><ele>159.75</ele><time>2026-04-12T12:02:14Z</time></trkpt><trkpt lat="44.26464824093866" lon="11.568538957938145"><ele>160.0</ele><time>2026-04-12T12:02:15Z</time></trkpt><trkpt lat="44.26469956361932" lon="11.568706670754999"><ele>159.0</ele><time>2026-04-12T12:02:16Z</time></trkpt><trkpt lat="44.264753418800325" lon="11.56887402005753"><ele>158.0</ele><time>2026-04-12T12:02:17Z</time></trkpt><trkpt lat="44.2648072483818" lon="11.569044785039535"><ele>157.0</ele><time>2026-04-12T12:02:18Z</time></trkpt><trkpt lat="44.264863824034165" lon="11.569216721943913"><ele>156.0</ele><time>2026-04-12T12:02:19Z</time></trkpt><trkpt lat="44.26492589817204" lon="11.569391809338658"><ele>157.0</ele><time>2026-04-12T12:02:20Z</time></trkpt><trkpt lat="44.26499931666451" lon="11.569565233777473"><ele>158.0</ele><time>2026-04-12T12:02:21Z</time></trkpt><trkpt lat="44.265082843182974" lon="11.56971904868795"><ele>159.0</ele><time>2026-04-12T12:02:22Z</time></trkpt><trkpt lat="44.2651711711861" lon="11.569869947050746"><ele>160.0</ele><time>2026-04-12T12:02:23Z</time></trkpt><trkpt lat="44.26527320380992" lon="11.570001307220194"><ele>160.0</ele><time>2026-04-12T12:02:24Z</time></trkpt><trkpt lat="44.26537495998345" lon="11.570126018056538"><ele>160.0</ele><time>2026-04-12T12:02:25Z</time></trkpt><trkpt lat="44.26548176815678" lon="11.570256887760483"><ele>160.0</ele><time>2026-04-12T12:02:26Z</time></trkpt><trkpt lat="44.26558869132411" lon="11.57038070411345"><ele>160.0</ele><time>2026-04-12T12:02:27Z</time></trkpt><trkpt lat="44.26569679818252" lon="11.570504783409651"><ele>159.5</ele><time>2026-04-12T12:02:28Z</time></trkpt><trkpt lat="44.265804805436716" lon="11.570632219153564"><ele>159.0</ele><time>2026-04-12T12:02:29Z</time></trkpt><trkpt lat="44.26591023179246" lon="11.570762683607853"><ele>158.5</ele><time>2026-04-12T12:02:30Z</time></trkpt><trkpt lat="44.266024778327264" lon="11.570899458924252"><ele>158.0</ele><time>2026-04-12T12:02:31Z</time></trkpt><trkpt lat="44.26613749381794" lon="11.571032294452053"><ele>158.0</ele><time>2026-04-12T12:02:32Z</time></trkpt><trkpt lat="44.26625356597947" lon="11.57117123889626"><ele>158.0</ele><time>2026-04-12T12:02:33Z</time></trkpt><trkpt lat="44.266367326595606" lon="11.57130524735608"><ele>158.0</ele><time>2026-04-12T12:02:34Z</time></trkpt><trkpt lat="44.2664740833027" lon="11.571434920961082"><ele>158.0</ele><time>2026-04-12T12:02:35Z</time></trkpt><trkpt lat="44.26657889982068" lon="11.571562197875034"><ele>156.75</ele><time>2026-04-12T12:02:36Z</time></trkpt><trkpt lat="44.26668294119957" lon="11.571689242195935"><ele>155.5</ele><time>2026-04-12T12:02:37Z</time></trkpt><trkpt lat="44.266787753253055" lon="11.57181675759114"><ele>154.25</ele><time>2026-04-12T12:02:38Z</time></trkpt><trkpt lat="44.266884830884344" lon="11.57194434551387"><ele>153.0</ele><time>2026-04-12T12:02:39Z</time></trkpt><trkpt lat="44.26697277776227" lon="11.57208387279465"><ele>153.0</ele><time>2026-04-12T12:02:40Z</time></trkpt><trkpt lat="44.267048646768636" lon="11.572238394965217"><ele>153.0</ele><time>2026-04-12T12:02:41Z</time></trkpt><trkpt lat="44.267116763484665" lon="11.572406223685608"><ele>153.0</ele><time>2026-04-12T12:02:42Z</time></trkpt><trkpt lat="44.26717558843384" lon="11.57258765449942"><ele>153.0</ele><time>2026-04-12T12:02:43Z</time></trkpt><trkpt lat="44.26723134189945" lon="11.57278101406071"><ele>150.0</ele><time>2026-04-12T12:02:44Z</time></trkpt><trkpt lat="44.26728738009414" lon="11.572979623046244"><ele>147.0</ele><time>2026-04-12T12:02:45Z</time></trkpt><trkpt lat="44.267348895776614" lon="11.57318685353432"><ele>144.0</ele><time>2026-04-12T12:02:46Z</time></trkpt><trkpt lat="44.26740882157805" lon="11.573396762035172"><ele>144.0</ele><time>2026-04-12T12:02:47Z</time></trkpt><trkpt lat="44.26747009998431" lon="11.573607028649093"><ele>144.0</ele><time>2026-04-12T12:02:48Z</time></trkpt><trkpt lat="44.26752801046349" lon="11.573820779590488"><ele>144.0</ele><time>2026-04-12T12:02:49Z</time></trkpt><trkpt lat="44.26758885306114" lon="11.574037031548043"><ele>142.66666666666666</ele><time>2026-04-12T12:02:50Z</time></trkpt><trkpt lat="44.26764796383069" lon="11.574248439242568"><ele>141.33333333333331</ele><time>2026-04-12T12:02:51Z</time></trkpt><trkpt lat="44.26770667896427" lon="11.574459032654774"><ele>140.0</ele><time>2026-04-12T12:02:52Z</time></trkpt><trkpt lat="44.267767043133865" lon="11.574671017945002"><ele>138.66666666666666</ele><time>2026-04-12T12:02:53Z</time></trkpt><trkpt lat="44.267824743800986" lon="11.57488996527856"><ele>137.33333333333334</ele><time>2026-04-12T12:02:54Z</time></trkpt><trkpt lat="44.26788459139324" lon="11.57510594714076"><ele>136.0</ele><time>2026-04-12T12:02:55Z</time></trkpt><trkpt lat="44.26794431593304" lon="11.575322042767297"><ele>136.66666666666669</ele><time>2026-04-12T12:02:56Z</time></trkpt><trkpt lat="44.26800403561636" lon="11.575536554457278"><ele>137.33333333333334</ele><time>2026-04-12T12:02:57Z</time></trkpt><trkpt lat="44.26806120522935" lon="11.575743488504708"><ele>138.0</ele><time>2026-04-12T12:02:58Z</time></trkpt><trkpt lat="44.268116145561706" lon="11.57594056205206"><ele>135.33333333333334</ele><time>2026-04-12T12:02:59Z</time></trkpt><trkpt lat="44.268172935698125" lon="11.576137246201563"><ele>132.66666666666669</ele><time>2026-04-12T12:03:00Z</time></trkpt><trkpt lat="44.26822535368834" lon="11.576332216562095"><ele>130.0</ele><time>2026-04-12T12:03:01Z</time></trkpt><trkpt lat="44.26827870133902" lon="11.576526051498963"><ele>129.75</ele><time>2026-04-12T12:03:02Z</time></trkpt><trkpt lat="44.268335514054066" lon="11.576721334167297"><ele>129.5</ele><time>2026-04-12T12:03:03Z</time></trkpt><trkpt lat="44.268390074976516" lon="11.576910407610947"><ele>129.25</ele><time>2026-04-12T12:03:04Z</time></trkpt><trkpt lat="44.268440911983305" lon="11.577096507214712"><ele>129.0</ele><time>2026-04-12T12:03:05Z</time></trkpt><trkpt lat="44.26849069443872" lon="11.577286960094593"><ele>129.5</ele><time>2026-04-12T12:03:06Z</time></trkpt><trkpt lat="44.26854095927248" lon="11.577476640497133"><ele>130.0</ele><time>2026-04-12T12:03:07Z</time></trkpt><trkpt lat="44.26858895705787" lon="11.577654154083579"><ele>130.5</ele><time>2026-04-12T12:03:08Z</time></trkpt><trkpt lat="44.26863511225201" lon="11.577833834866734"><ele>131.0</ele><time>2026-04-12T12:03:09Z</time></trkpt><trkpt lat="44.2686842639916" lon="11.578014831839804"><ele>131.75</ele><time>2026-04-12T12:03:10Z</time></trkpt><trkpt lat="44.268731937667326" lon="11.578194078992773"><ele>132.5</ele><time>2026-04-12T12:03:11Z</time></trkpt><trkpt lat="44.26878228235506" lon="11.57837755012325"><ele>133.25</ele><time>2026-04-12T12:03:12Z</time></trkpt><trkpt lat="44.26882724256432" lon="11.578557919572484"><ele>134.0</ele><time>2026-04-12T12:03:13Z</time></trkpt><trkpt lat="44.26887658149237" lon="11.578726246734934"><ele>132.5</ele><time>2026-04-12T12:03:14Z</time></trkpt><trkpt lat="44.268925566778485" lon="11.578896034787308"><ele>131.0</ele><time>2026-04-12T12:03:15Z</time></trkpt><trkpt lat="44.26897848705255" lon="11.579068120777391"><ele>129.5</ele><time>2026-04-12T12:03:16Z</time></trkpt><trkpt lat="44.26904636666228" lon="11.57922713857905"><ele>128.0</ele><time>2026-04-12T12:03:17Z</time></trkpt><trkpt lat="44.269129649393825" lon="11.579376992189855"><ele>129.5</ele><time>2026-04-12T12:03:18Z</time></trkpt><trkpt lat="44.26922730701948" lon="11.579517281269851"><ele>131.0</ele><time>2026-04-12T12:03:19Z</time></trkpt><trkpt lat="44.26933426616295" lon="11.57966058538475"><ele>132.5</ele><time>2026-04-12T12:03:20Z</time></trkpt><trkpt lat="44.26943938054725" lon="11.579803386532639"><ele>134.0</ele><time>2026-04-12T12:03:21Z</time></trkpt><trkpt lat="44.269541995761664" lon="11.579949796647552"><ele>134.0</ele><time>2026-04-12T12:03:22Z</time></trkpt><trkpt lat="44.26963978257732" lon="11.580102016814452"><ele>134.0</ele><time>2026-04-12T12:03:23Z</time></trkpt><trkpt lat="44.269732310700626" lon="11.580232803116468"><ele>134.0</ele><time>2026-04-12T12:03:24Z</time></trkpt><trkpt lat="44.26981675415062" lon="11.580344179707408"><ele>134.0</ele><time>2026-04-12T12:03:25Z</time></trkpt><trkpt lat="44.26990348260851" lon="11.580458551728615"><ele>132.75</ele><time>2026-04-12T12:03:26Z</time></trkpt><trkpt lat="44.26998893111088" lon="11.580576378039348"><ele>131.5</ele><time>2026-04-12T12:03:27Z</time></trkpt><trkpt lat="44.27007608118042" lon="11.58069431073446"><ele>130.25</ele><time>2026-04-12T12:03:28Z</time></trkpt><trkpt lat="44.27016900076642" lon="11.580817973939206"><ele>129.0</ele><time>2026-04-12T12:03:29Z</time></trkpt><trkpt lat="44.27026682568037" lon="11.580951003611302"><ele>129.0</ele><time>2026-04-12T12:03:30Z</time></trkpt><trkpt lat="44.27036614649423" lon="11.581082004184633"><ele>129.0</ele><time>2026-04-12T12:03:31Z</time></trkpt><trkpt lat="44.270468305278506" lon="11.581217481774756"><ele>129.0</ele><time>2026-04-12T12:03:32Z</time></trkpt><trkpt lat="44.27056643624408" lon="11.581352377078039"><ele>129.0</ele><time>2026-04-12T12:03:33Z</time></trkpt><trkpt lat="44.270669094402606" lon="11.581488819611213"><ele>126.5</ele><time>2026-04-12T12:03:34Z</time></trkpt><trkpt lat="44.2707655977917" lon="11.581614773039904"><ele>124.0</ele><time>2026-04-12T12:03:35Z</time></trkpt><trkpt lat="44.27086907495465" lon="11.581731357860235"><ele>121.5</ele><time>2026-04-12T12:03:36Z</time></trkpt><trkpt lat="44.27097778816147" lon="11.581847837105755"><ele>119.0</ele><time>2026-04-12T12:03:37Z</time></trkpt><trkpt lat="44.27109184169696" lon="11.581966919952306"><ele>118.5</ele><time>2026-04-12T12:03:38Z</time></trkpt><trkpt lat="44.271212581138954" lon="11.58208424726398"><ele>118.0</ele><time>2026-04-12T12:03:39Z</time></trkpt><trkpt lat="44.27133625024854" lon="11.582202524955074"><ele>117.5</ele><time>2026-04-12T12:03:40Z</time></trkpt><trkpt lat="44.27145519156928" lon="11.582316678389992"><ele>117.0</ele><time>2026-04-12T12:03:41Z</time></trkpt><trkpt lat="44.271564010632105" lon="11.582420449802939"><ele>117.0</ele><time>2026-04-12T12:03:42Z</time></trkpt><trkpt lat="44.27166889697278" lon="11.582522960722374"><ele>117.0</ele><time>2026-04-12T12:03:43Z</time></trkpt><trkpt lat="44.27177095066106" lon="11.582618896204314"><ele>117.0</ele><time>2026-04-12T12:03:44Z</time></trkpt><trkpt lat="44.27187633068452" lon="11.582717140248723"><ele>117.0</ele><time>2026-04-12T12:03:45Z</time></trkpt><trkpt lat="44.27197881566326" lon="11.582823546849253"><ele>118.5</ele><time>2026-04-12T12:03:46Z</time></trkpt><trkpt lat="44.27207967289595" lon="11.582940580493107"><ele>120.0</ele><time>2026-04-12T12:03:47Z</time></trkpt><trkpt lat="44.272175940254755" lon="11.583073981737979"><ele>121.5</ele><time>2026-04-12T12:03:48Z</time></trkpt><trkpt lat="44.27226869605907" lon="11.583225674520405"><ele>123.0</ele><time>2026-04-12T12:03:49Z</time></trkpt><trkpt lat="44.27234719489709" lon="11.583398571697098"><ele>119.75</ele><time>2026-04-12T12:03:50Z</time></trkpt><trkpt lat="44.27240554228065" lon="11.583573762711739"><ele>116.5</ele><time>2026-04-12T12:03:51Z</time></trkpt><trkpt lat="44.272442540359506" lon="11.58375022392285"><ele>113.25</ele><time>2026-04-12T12:03:52Z</time></trkpt><trkpt lat="44.27247211489111" lon="11.583921439736976"><ele>110.0</ele><time>2026-04-12T12:03:53Z</time></trkpt><trkpt lat="44.27249363087842" lon="11.584083875651203"><ele>110.0</ele><time>2026-04-12T12:03:54Z</time></trkpt><trkpt lat="44.272514984164616" lon="11.584243832847912"><ele>110.0</ele><time>2026-04-12T12:03:55Z</time></trkpt><trkpt lat="44.2725411504019" lon="11.584397165874117"><ele>110.0</ele><time>2026-04-12T12:03:56Z</time></trkpt><trkpt lat="44.27256850899625" lon="11.58455301467587"><ele>110.0</ele><time>2026-04-12T12:03:57Z</time></trkpt><trkpt lat="44.27258972493697" lon="11.584707483572608"><ele>110.4</ele><time>2026-04-12T12:03:58Z</time></trkpt><trkpt lat="44.27260985707495" lon="11.584861276381847"><ele>110.8</ele><time>2026-04-12T12:03:59Z</time></trkpt><trkpt lat="44.272632332844786" lon="11.585013890574988"><ele>111.19999999999999</ele><time>2026-04-12T12:04:00Z</time></trkpt><trkpt lat="44.272660414656585" lon="11.585159943606694"><ele>111.6</ele><time>2026-04-12T12:04:01Z</time></trkpt><trkpt lat="44.27270516072997" lon="11.58530593321006"><ele>112.0</ele><time>2026-04-12T12:04:02Z</time></trkpt><trkpt lat="44.27276020329521" lon="11.585456705403992"><ele>112.0</ele><time>2026-04-12T12:04:03Z</time></trkpt><trkpt lat="44.272826175401256" lon="11.585602576766828"><ele>112.0</ele><time>2026-04-12T12:04:04Z</time></trkpt><trkpt lat="44.27290156310589" lon="11.585752573416181"><ele>112.0</ele><time>2026-04-12T12:04:05Z</time></trkpt><trkpt lat="44.2729721027911" lon="11.585903339933292"><ele>112.0</ele><time>2026-04-12T12:04:06Z</time></trkpt><trkpt lat="44.27303763281268" lon="11.586046908027155"><ele>111.75</ele><time>2026-04-12T12:04:07Z</time></trkpt><trkpt lat="44.273104806611286" lon="11.586187625640326"><ele>111.5</ele><time>2026-04-12T12:04:08Z</time></trkpt><trkpt lat="44.27317320028764" lon="11.586333679705586"><ele>111.25</ele><time>2026-04-12T12:04:09Z</time></trkpt><trkpt lat="44.27323969653048" lon="11.586469076925844"><ele>111.0</ele><time>2026-04-12T12:04:10Z</time></trkpt><trkpt lat="44.27330300048475" lon="11.586598744329661"><ele>111.25</ele><time>2026-04-12T12:04:11Z</time></trkpt><trkpt lat="44.2733693804363" lon="11.586742041956043"><ele>111.5</ele><time>2026-04-12T12:04:12Z</time></trkpt><trkpt lat="44.2734366434332" lon="11.586882300199521"><ele>111.75</ele><time>2026-04-12T12:04:13Z</time></trkpt><trkpt lat="44.27350038159078" lon="11.587022485175014"><ele>112.0</ele><time>2026-04-12T12:04:14Z</time></trkpt><trkpt lat="44.27356196170738" lon="11.58715408326044"><ele>112.0</ele><time>2026-04-12T12:04:15Z</time></trkpt><trkpt lat="44.273627759579036" lon="11.587288882223143"><ele>111.99999999999999</ele><time>2026-04-12T12:04:16Z</time></trkpt><trkpt lat="44.27368331357604" lon="11.58741300731032"><ele>111.99999999999999</ele><time>2026-04-12T12:04:17Z</time></trkpt><trkpt lat="44.27373942008009" lon="11.58755093226908"><ele>112.0</ele><time>2026-04-12T12:04:18Z</time></trkpt><trkpt lat="44.27380387335275" lon="11.587672420577972"><ele>112.0</ele><time>2026-04-12T12:04:19Z</time></trkpt><trkpt lat="44.27387368010684" lon="11.587787881395812"><ele>110.0</ele><time>2026-04-12T12:04:20Z</time></trkpt><trkpt lat="44.27395552304292" lon="11.5878736809838"><ele>107.99999999999999</ele><time>2026-04-12T12:04:21Z</time></trkpt><trkpt lat="44.27405376284166" lon="11.587945714272301"><ele>106.0</ele><time>2026-04-12T12:04:22Z</time></trkpt><trkpt lat="44.27416112433016" lon="11.587963367548332"><ele>104.0</ele><time>2026-04-12T12:04:23Z</time></trkpt><trkpt lat="44.27427354454644" lon="11.587927011515895"><ele>102.0</ele><time>2026-04-12T12:04:24Z</time></trkpt><trkpt lat="44.27438932855834" lon="11.587876606308424"><ele>102.0</ele><time>2026-04-12T12:04:25Z</time></trkpt><trkpt lat="44.274487600629094" lon="11.587822252026184"><ele>102.0</ele><time>2026-04-12T12:04:26Z</time></trkpt><trkpt lat="44.274593277842364" lon="11.587778932047657"><ele>102.0</ele><time>2026-04-12T12:04:27Z</time></trkpt><trkpt lat="44.27469804495193" lon="11.587732124463567"><ele>102.0</ele><time>2026-04-12T12:04:28Z</time></trkpt><trkpt lat="44.27479876585365" lon="11.587687104891234"><ele>102.0</ele><time>2026-04-12T12:04:29Z</time></trkpt><trkpt lat="44.274900186121116" lon="11.587644558067247"><ele>101.8</ele><time>2026-04-12T12:04:30Z</time></trkpt><trkpt lat="44.27499675509737" lon="11.58759416353575"><ele>101.6</ele><time>2026-04-12T12:04:31Z</time></trkpt><trkpt lat="44.27509665913417" lon="11.58754861657231"><ele>101.39999999999999</ele><time>2026-04-12T12:04:32Z</time></trkpt><trkpt lat="44.27519191314651" lon="11.58749573021855"><ele>101.19999999999999</ele><time>2026-04-12T12:04:33Z</time></trkpt><trkpt lat="44.275287321287124" lon="11.58745404755952"><ele>101.0</ele><time>2026-04-12T12:04:34Z</time></trkpt><trkpt lat="44.27538125997862" lon="11.587412111575961"><ele>101.0</ele><time>2026-04-12T12:04:35Z</time></trkpt><trkpt lat="44.275481640921136" lon="11.587367025022346"><ele>101.0</ele><time>2026-04-12T12:04:36Z</time></trkpt><trkpt lat="44.275555068038315" lon="11.587331046311013"><ele>101.0</ele><time>2026-04-12T12:04:37Z</time></trkpt><trkpt lat="44.275645178687114" lon="11.587296085857338"><ele>101.0</ele><time>2026-04-12T12:04:38Z</time></trkpt><trkpt lat="44.275727001838646" lon="11.587285642772033"><ele>101.0</ele><time>2026-04-12T12:04:39Z</time></trkpt><trkpt lat="44.275849568022764" lon="11.587332380194837"><ele>101.0</ele><time>2026-04-12T12:04:41Z</time></trkpt><trkpt lat="44.2759345679515" lon="11.58737556743918"><ele>101.0</ele><time>2026-04-12T12:04:42Z</time></trkpt><trkpt lat="44.275989767130795" lon="11.587422119685549"><ele>101.0</ele><time>2026-04-12T12:04:43Z</time></trkpt><trkpt lat="44.276033698422296" lon="11.58760878051333"><ele>101.0</ele><time>2026-04-12T12:04:45Z</time></trkpt><trkpt lat="44.276035659524524" lon="11.587747560753163"><ele>101.0</ele><time>2026-04-12T12:04:46Z</time></trkpt><trkpt lat="44.27604988171711" lon="11.587921854075272"><ele>101.0</ele><time>2026-04-12T12:04:47Z</time></trkpt><trkpt lat="44.27606426215743" lon="11.588104664089725"><ele>101.0</ele><time>2026-04-12T12:04:48Z</time></trkpt><trkpt lat="44.27605924417371" lon="11.588326231106937"><ele>101.0</ele><time>2026-04-12T12:04:49Z</time></trkpt><trkpt lat="44.27607715916644" lon="11.588546020563944"><ele>101.0</ele><time>2026-04-12T12:04:50Z</time></trkpt><trkpt lat="44.27609554982681" lon="11.588783767177492"><ele>101.33333333333333</ele><time>2026-04-12T12:04:51Z</time></trkpt><trkpt lat="44.276114289704374" lon="11.589034324264398"><ele>101.66666666666666</ele><time>2026-04-12T12:04:52Z</time></trkpt><trkpt lat="44.27613574927056" lon="11.589271577154808"><ele>102.0</ele><time>2026-04-12T12:04:53Z</time></trkpt><trkpt lat="44.27615843110397" lon="11.589508213784892"><ele>101.66666666666666</ele><time>2026-04-12T12:04:54Z</time></trkpt><trkpt lat="44.27617859254804" lon="11.589735367756218"><ele>101.33333333333333</ele><time>2026-04-12T12:04:55Z</time></trkpt><trkpt lat="44.27619803554489" lon="11.589958014168223"><ele>101.0</ele><time>2026-04-12T12:04:56Z</time></trkpt><trkpt lat="44.276230971787164" lon="11.590176136687838"><ele>100.33333333333333</ele><time>2026-04-12T12:04:57Z</time></trkpt><trkpt lat="44.276231749506515" lon="11.590399064285922"><ele>99.66666666666666</ele><time>2026-04-12T12:04:58Z</time></trkpt><trkpt lat="44.27624773654847" lon="11.590614952385321"><ele>99.0</ele><time>2026-04-12T12:04:59Z</time></trkpt><trkpt lat="44.27628190865563" lon="11.590817754820318"><ele>99.0</ele><time>2026-04-12T12:05:00Z</time></trkpt><trkpt lat="44.27628606894726" lon="11.59099503029389"><ele>99.0</ele><time>2026-04-12T12:05:01Z</time></trkpt><trkpt lat="44.276302427383534" lon="11.591155210250461"><ele>99.0</ele><time>2026-04-12T12:05:02Z</time></trkpt><trkpt lat="44.27632077572697" lon="11.591316727224092"><ele>99.0</ele><time>2026-04-12T12:05:03Z</time></trkpt><trkpt lat="44.27633824658299" lon="11.591486894201637"><ele>99.4</ele><time>2026-04-12T12:05:04Z</time></trkpt><trkpt lat="44.276350495445335" lon="11.591652022296863"><ele>99.80000000000001</ele><time>2026-04-12T12:05:05Z</time></trkpt><trkpt lat="44.276361339065055" lon="11.591791735481785"><ele>100.19999999999999</ele><time>2026-04-12T12:05:06Z</time></trkpt><trkpt lat="44.27636977442231" lon="11.591923067148576"><ele>100.6</ele><time>2026-04-12T12:05:07Z</time></trkpt><trkpt lat="44.276383278535256" lon="11.592023562111232"><ele>101.0</ele><time>2026-04-12T12:05:08Z</time></trkpt><trkpt lat="44.27643835294265" lon="11.592130262436687"><ele>101.5</ele><time>2026-04-12T12:05:10Z</time></trkpt><trkpt lat="44.27644818499431" lon="11.592307630910438"><ele>102.0</ele><time>2026-04-12T12:05:12Z</time></trkpt><trkpt lat="44.27642405217938" lon="11.59242616196502"><ele>102.5</ele><time>2026-04-12T12:05:13Z</time></trkpt><trkpt lat="44.27641372816107" lon="11.592548934146226"><ele>103.0</ele><time>2026-04-12T12:05:14Z</time></trkpt><trkpt lat="44.276521616505" lon="11.592720027494"><ele>103.0</ele><time>2026-04-12T12:05:16Z</time></trkpt><trkpt lat="44.2766218052132" lon="11.592825268645656"><ele>103.0</ele><time>2026-04-12T12:05:17Z</time></trkpt><trkpt lat="44.27671283354948" lon="11.592987833443047"><ele>103.0</ele><time>2026-04-12T12:05:18Z</time></trkpt><trkpt lat="44.276805142714124" lon="11.593189977123783"><ele>103.0</ele><time>2026-04-12T12:05:19Z</time></trkpt><trkpt lat="44.27688894106789" lon="11.59334464030322"><ele>103.33333333333334</ele><time>2026-04-12T12:05:20Z</time></trkpt><trkpt lat="44.27698464738781" lon="11.593498490995893"><ele>103.66666666666666</ele><time>2026-04-12T12:05:21Z</time></trkpt><trkpt lat="44.277082689394575" lon="11.593685465328322"><ele>104.0</ele><time>2026-04-12T12:05:22Z</time></trkpt><trkpt lat="44.277181874507946" lon="11.593909181215805"><ele>103.66666666666666</ele><time>2026-04-12T12:05:23Z</time></trkpt><trkpt lat="44.27728101799112" lon="11.594100721670701"><ele>103.33333333333334</ele><time>2026-04-12T12:05:24Z</time></trkpt><trkpt lat="44.27737085228078" lon="11.594282484811977"><ele>103.0</ele><time>2026-04-12T12:05:25Z</time></trkpt><trkpt lat="44.27745329019272" lon="11.594478395437125"><ele>102.66666666666667</ele><time>2026-04-12T12:05:26Z</time></trkpt><trkpt lat="44.277534140672266" lon="11.59468533900371"><ele>102.33333333333334</ele><time>2026-04-12T12:05:27Z</time></trkpt><trkpt lat="44.277601043790725" lon="11.594900823327725"><ele>102.0</ele><time>2026-04-12T12:05:28Z</time></trkpt><trkpt lat="44.277667931012815" lon="11.595138134168732"><ele>101.66666666666666</ele><time>2026-04-12T12:05:29Z</time></trkpt><trkpt lat="44.277723737213826" lon="11.595407829609403"><ele>101.33333333333333</ele><time>2026-04-12T12:05:30Z</time></trkpt><trkpt lat="44.27777578821271" lon="11.59567534093534"><ele>101.0</ele><time>2026-04-12T12:05:31Z</time></trkpt><trkpt lat="44.27782046140529" lon="11.595937946811267"><ele>100.66666666666666</ele><time>2026-04-12T12:05:32Z</time></trkpt><trkpt lat="44.27787155575384" lon="11.59620759191181"><ele>100.33333333333334</ele><time>2026-04-12T12:05:33Z</time></trkpt><trkpt lat="44.277916051177115" lon="11.596472184670075"><ele>100.0</ele><time>2026-04-12T12:05:34Z</time></trkpt><trkpt lat="44.277962148056396" lon="11.59673815183265"><ele>101.66666666666667</ele><time>2026-04-12T12:05:35Z</time></trkpt><trkpt lat="44.27800603771112" lon="11.59700461118451"><ele>103.33333333333334</ele><time>2026-04-12T12:05:36Z</time></trkpt><trkpt lat="44.27805005925064" lon="11.597275671453739"><ele>105.0</ele><time>2026-04-12T12:05:37Z</time></trkpt><trkpt lat="44.278095434286755" lon="11.597545440336095"><ele>101.0</ele><time>2026-04-12T12:05:38Z</time></trkpt><trkpt lat="44.27814312127952" lon="11.597817234947614"><ele>97.0</ele><time>2026-04-12T12:05:39Z</time></trkpt><trkpt lat="44.278191028542516" lon="11.598087432037547"><ele>93.0</ele><time>2026-04-12T12:05:40Z</time></trkpt><trkpt lat="44.27823645095855" lon="11.59834963212817"><ele>93.0</ele><time>2026-04-12T12:05:41Z</time></trkpt><trkpt lat="44.27828267523412" lon="11.598606129164684"><ele>93.0</ele><time>2026-04-12T12:05:42Z</time></trkpt><trkpt lat="44.27832549923173" lon="11.598864857872583"><ele>93.0</ele><time>2026-04-12T12:05:43Z</time></trkpt><trkpt lat="44.27836996190361" lon="11.599122219101808"><ele>92.66666666666667</ele><time>2026-04-12T12:05:44Z</time></trkpt><trkpt lat="44.278423849824165" lon="11.599385821311893"><ele>92.33333333333334</ele><time>2026-04-12T12:05:45Z</time></trkpt><trkpt lat="44.278491407367014" lon="11.599644184722955"><ele>92.0</ele><time>2026-04-12T12:05:46Z</time></trkpt><trkpt lat="44.278558549926714" lon="11.599913340494835"><ele>92.0</ele><time>2026-04-12T12:05:47Z</time></trkpt><trkpt lat="44.27865261576445" lon="11.600159105954718"><ele>92.0</ele><time>2026-04-12T12:05:48Z</time></trkpt><trkpt lat="44.27873070363747" lon="11.60042182154797"><ele>92.0</ele><time>2026-04-12T12:05:49Z</time></trkpt><trkpt lat="44.27880615318934" lon="11.600689024061639"><ele>91.66666666666667</ele><time>2026-04-12T12:05:50Z</time></trkpt><trkpt lat="44.27887978409069" lon="11.600947196727017"><ele>91.33333333333333</ele><time>2026-04-12T12:05:51Z</time></trkpt><trkpt lat="44.278960340592576" lon="11.601197114224389"><ele>91.0</ele><time>2026-04-12T12:05:52Z</time></trkpt><trkpt lat="44.279030346109565" lon="11.601444287638667"><ele>90.33333333333333</ele><time>2026-04-12T12:05:53Z</time></trkpt><trkpt lat="44.27910022287282" lon="11.601690647273525"><ele>89.66666666666667</ele><time>2026-04-12T12:05:54Z</time></trkpt><trkpt lat="44.27916975321734" lon="11.601932899785542"><ele>89.0</ele><time>2026-04-12T12:05:55Z</time></trkpt><trkpt lat="44.279241996083236" lon="11.602175768108918"><ele>89.0</ele><time>2026-04-12T12:05:56Z</time></trkpt><trkpt lat="44.279315069972434" lon="11.60241900802174"><ele>89.0</ele><time>2026-04-12T12:05:57Z</time></trkpt><trkpt lat="44.279385982403326" lon="11.602663410585409"><ele>89.0</ele><time>2026-04-12T12:05:58Z</time></trkpt><trkpt lat="44.27945995686081" lon="11.602907476783045"><ele>88.66666666666667</ele><time>2026-04-12T12:05:59Z</time></trkpt><trkpt lat="44.27952757093976" lon="11.603154193531516"><ele>88.33333333333333</ele><time>2026-04-12T12:06:00Z</time></trkpt><trkpt lat="44.279597396428166" lon="11.603403575644812"><ele>88.0</ele><time>2026-04-12T12:06:01Z</time></trkpt><trkpt lat="44.27967217362243" lon="11.60365578060016"><ele>87.66666666666666</ele><time>2026-04-12T12:06:02Z</time></trkpt><trkpt lat="44.279741620977894" lon="11.603910388112153"><ele>87.33333333333333</ele><time>2026-04-12T12:06:03Z</time></trkpt><trkpt lat="44.27982259320025" lon="11.604157767230161"><ele>87.0</ele><time>2026-04-12T12:06:04Z</time></trkpt><trkpt lat="44.279899740440264" lon="11.60440972800817"><ele>86.66666666666667</ele><time>2026-04-12T12:06:05Z</time></trkpt><trkpt lat="44.27997392444681" lon="11.60466955442648"><ele>86.33333333333334</ele><time>2026-04-12T12:06:06Z</time></trkpt><trkpt lat="44.280051937904304" lon="11.604927499570193"><ele>86.0</ele><time>2026-04-12T12:06:07Z</time></trkpt><trkpt lat="44.28012502164861" lon="11.605187368927405"><ele>85.66666666666667</ele><time>2026-04-12T12:06:08Z</time></trkpt><trkpt lat="44.280195261574505" lon="11.605449665162473"><ele>85.33333333333333</ele><time>2026-04-12T12:06:09Z</time></trkpt><trkpt lat="44.28025883664899" lon="11.605714521498953"><ele>85.0</ele><time>2026-04-12T12:06:10Z</time></trkpt><trkpt lat="44.28031268015714" lon="11.605981616295402"><ele>85.33333333333333</ele><time>2026-04-12T12:06:11Z</time></trkpt><trkpt lat="44.28036860983634" lon="11.606250748478988"><ele>85.66666666666667</ele><time>2026-04-12T12:06:12Z</time></trkpt><trkpt lat="44.28042123000777" lon="11.606527141671778"><ele>86.0</ele><time>2026-04-12T12:06:13Z</time></trkpt><trkpt lat="44.280466878583184" lon="11.6068081891438"><ele>85.66666666666667</ele><time>2026-04-12T12:06:14Z</time></trkpt><trkpt lat="44.28051128704226" lon="11.607094632982266"><ele>85.33333333333333</ele><time>2026-04-12T12:06:15Z</time></trkpt><trkpt lat="44.28054865357987" lon="11.607382465740201"><ele>85.0</ele><time>2026-04-12T12:06:16Z</time></trkpt><trkpt lat="44.28059067038537" lon="11.60767228444261"><ele>84.33333333333333</ele><time>2026-04-12T12:06:17Z</time></trkpt><trkpt lat="44.280634466677576" lon="11.607964884321563"><ele>83.66666666666667</ele><time>2026-04-12T12:06:18Z</time></trkpt><trkpt lat="44.28068882208013" lon="11.608255084345457"><ele>83.0</ele><time>2026-04-12T12:06:19Z</time></trkpt><trkpt lat="44.28071547113586" lon="11.608565018793719"><ele>83.33333333333334</ele><time>2026-04-12T12:06:20Z</time></trkpt><trkpt lat="44.28076122654928" lon="11.608866813827373"><ele>83.66666666666667</ele><time>2026-04-12T12:06:21Z</time></trkpt><trkpt lat="44.28080398728444" lon="11.60917263015928"><ele>84.0</ele><time>2026-04-12T12:06:22Z</time></trkpt><trkpt lat="44.28084721459691" lon="11.609482770324465"><ele>83.0</ele><time>2026-04-12T12:06:23Z</time></trkpt><trkpt lat="44.28089225753102" lon="11.609792269302403"><ele>82.0</ele><time>2026-04-12T12:06:24Z</time></trkpt><trkpt lat="44.28093552061737" lon="11.610098786983787"><ele>81.0</ele><time>2026-04-12T12:06:25Z</time></trkpt><trkpt lat="44.280979404608566" lon="11.610410716505747"><ele>80.0</ele><time>2026-04-12T12:06:26Z</time></trkpt><trkpt lat="44.28102446157192" lon="11.610730740989883"><ele>80.0</ele><time>2026-04-12T12:06:27Z</time></trkpt><trkpt lat="44.28106994956822" lon="11.611044813365618"><ele>80.0</ele><time>2026-04-12T12:06:28Z</time></trkpt><trkpt lat="44.2811165356537" lon="11.611366467664842"><ele>80.0</ele><time>2026-04-12T12:06:29Z</time></trkpt><trkpt lat="44.281162300655005" lon="11.611685073955723"><ele>80.0</ele><time>2026-04-12T12:06:30Z</time></trkpt><trkpt lat="44.28120734885044" lon="11.612001065906329"><ele>80.5</ele><time>2026-04-12T12:06:31Z</time></trkpt><trkpt lat="44.28126811928087" lon="11.612314923542577"><ele>81.0</ele><time>2026-04-12T12:06:32Z</time></trkpt><trkpt lat="44.28131450085309" lon="11.612632035955139"><ele>81.5</ele><time>2026-04-12T12:06:33Z</time></trkpt><trkpt lat="44.281372223791806" lon="11.612946082909641"><ele>82.0</ele><time>2026-04-12T12:06:34Z</time></trkpt><trkpt lat="44.28141737201129" lon="11.613269989399368"><ele>81.5</ele><time>2026-04-12T12:06:35Z</time></trkpt><trkpt lat="44.28148650544716" lon="11.613595845642934"><ele>81.0</ele><time>2026-04-12T12:06:36Z</time></trkpt><trkpt lat="44.281563300322794" lon="11.613912397643743"><ele>80.0</ele><time>2026-04-12T12:06:37Z</time></trkpt><trkpt lat="44.28164430582601" lon="11.614225872027735"><ele>79.0</ele><time>2026-04-12T12:06:38Z</time></trkpt><trkpt lat="44.28173955226214" lon="11.61453844072683"><ele>79.0</ele><time>2026-04-12T12:06:39Z</time></trkpt><trkpt lat="44.28181853244272" lon="11.614836695073949"><ele>79.0</ele><time>2026-04-12T12:06:40Z</time></trkpt><trkpt lat="44.28189661689775" lon="11.615130840793642"><ele>79.5</ele><time>2026-04-12T12:06:41Z</time></trkpt><trkpt lat="44.281973825210954" lon="11.615430389700167"><ele>80.0</ele><time>2026-04-12T12:06:42Z</time></trkpt><trkpt lat="44.28205275742617" lon="11.615729060896387"><ele>80.0</ele><time>2026-04-12T12:06:43Z</time></trkpt><trkpt lat="44.28211815310317" lon="11.61603944892131"><ele>80.0</ele><time>2026-04-12T12:06:44Z</time></trkpt><trkpt lat="44.28221393438421" lon="11.616333305919918"><ele>79.0</ele><time>2026-04-12T12:06:45Z</time></trkpt><trkpt lat="44.28229882332903" lon="11.61663979688626"><ele>78.0</ele><time>2026-04-12T12:06:46Z</time></trkpt><trkpt lat="44.282364510512494" lon="11.616952525346756"><ele>78.0</ele><time>2026-04-12T12:06:47Z</time></trkpt><trkpt lat="44.28244566325861" lon="11.617257322907502"><ele>78.0</ele><time>2026-04-12T12:06:48Z</time></trkpt><trkpt lat="44.282527542021384" lon="11.6175654362357"><ele>78.0</ele><time>2026-04-12T12:06:49Z</time></trkpt><trkpt lat="44.282609414086735" lon="11.617873819205007"><ele>78.0</ele><time>2026-04-12T12:06:50Z</time></trkpt><trkpt lat="44.28270466350772" lon="11.6181767990372"><ele>78.0</ele><time>2026-04-12T12:06:51Z</time></trkpt><trkpt lat="44.282785523357276" lon="11.61847991190262"><ele>78.0</ele><time>2026-04-12T12:06:52Z</time></trkpt><trkpt lat="44.2828615058981" lon="11.618774199452865"><ele>78.0</ele><time>2026-04-12T12:06:53Z</time></trkpt><trkpt lat="44.28293422041008" lon="11.619046773360468"><ele>78.0</ele><time>2026-04-12T12:06:54Z</time></trkpt><trkpt lat="44.28300051868026" lon="11.61931356325082"><ele>78.0</ele><time>2026-04-12T12:06:55Z</time></trkpt><trkpt lat="44.28306694277286" lon="11.619585550574115"><ele>78.0</ele><time>2026-04-12T12:06:56Z</time></trkpt><trkpt lat="44.283136868308304" lon="11.619852102622668"><ele>78.0</ele><time>2026-04-12T12:06:57Z</time></trkpt><trkpt lat="44.283210316653275" lon="11.62011785653176"><ele>78.0</ele><time>2026-04-12T12:06:58Z</time></trkpt><trkpt lat="44.283280896905126" lon="11.620388843072957"><ele>78.0</ele><time>2026-04-12T12:06:59Z</time></trkpt><trkpt lat="44.28335130995794" lon="11.620664515080517"><ele>78.0</ele><time>2026-04-12T12:07:00Z</time></trkpt><trkpt lat="44.28342352684664" lon="11.620942253185337"><ele>78.0</ele><time>2026-04-12T12:07:01Z</time></trkpt><trkpt lat="44.28349646256394" lon="11.6212237317454"><ele>78.33333333333333</ele><time>2026-04-12T12:07:02Z</time></trkpt><trkpt lat="44.28356875198518" lon="11.621513555415001"><ele>78.66666666666666</ele><time>2026-04-12T12:07:03Z</time></trkpt><trkpt lat="44.2836445916657" lon="11.621802744573468"><ele>79.0</ele><time>2026-04-12T12:07:04Z</time></trkpt><trkpt lat="44.283721228869645" lon="11.622093425705238"><ele>79.0</ele><time>2026-04-12T12:07:05Z</time></trkpt><trkpt lat="44.28379897523037" lon="11.622389795669118"><ele>79.0</ele><time>2026-04-12T12:07:06Z</time></trkpt><trkpt lat="44.28387652974109" lon="11.622688976521463"><ele>78.5</ele><time>2026-04-12T12:07:07Z</time></trkpt><trkpt lat="44.283954506007156" lon="11.62299032326337"><ele>78.0</ele><time>2026-04-12T12:07:08Z</time></trkpt><trkpt lat="44.28403504149806" lon="11.623287926001794"><ele>78.0</ele><time>2026-04-12T12:07:09Z</time></trkpt><trkpt lat="44.28411892733662" lon="11.623584159591523"><ele>78.0</ele><time>2026-04-12T12:07:10Z</time></trkpt><trkpt lat="44.28420627649197" lon="11.623876446285461"><ele>79.5</ele><time>2026-04-12T12:07:11Z</time></trkpt><trkpt lat="44.28427654434471" lon="11.624180160115433"><ele>81.0</ele><time>2026-04-12T12:07:12Z</time></trkpt><trkpt lat="44.28436072739531" lon="11.624476744343795"><ele>82.0</ele><time>2026-04-12T12:07:13Z</time></trkpt><trkpt lat="44.284498251695325" lon="11.624744598380142"><ele>83.0</ele><time>2026-04-12T12:07:14Z</time></trkpt><trkpt lat="44.28459524448099" lon="11.625034287361892"><ele>83.0</ele><time>2026-04-12T12:07:15Z</time></trkpt><trkpt lat="44.28469086278434" lon="11.62531288188171"><ele>83.0</ele><time>2026-04-12T12:07:16Z</time></trkpt><trkpt lat="44.28478769515144" lon="11.625598454049987"><ele>83.0</ele><time>2026-04-12T12:07:17Z</time></trkpt><trkpt lat="44.28487229818823" lon="11.625888173062332"><ele>81.0</ele><time>2026-04-12T12:07:18Z</time></trkpt><trkpt lat="44.28496296013246" lon="11.626174759503035"><ele>79.0</ele><time>2026-04-12T12:07:19Z</time></trkpt><trkpt lat="44.28505906109813" lon="11.626456762990845"><ele>77.0</ele><time>2026-04-12T12:07:20Z</time></trkpt><trkpt lat="44.28515445850561" lon="11.626733432264647"><ele>78.33333333333334</ele><time>2026-04-12T12:07:21Z</time></trkpt><trkpt lat="44.28524369546583" lon="11.626996825651133"><ele>79.66666666666667</ele><time>2026-04-12T12:07:22Z</time></trkpt><trkpt lat="44.285326463331664" lon="11.627242795809092"><ele>81.0</ele><time>2026-04-12T12:07:23Z</time></trkpt><trkpt lat="44.285410121521124" lon="11.6274925045054"><ele>81.0</ele><time>2026-04-12T12:07:24Z</time></trkpt><trkpt lat="44.28549798019808" lon="11.627747045854587"><ele>81.0</ele><time>2026-04-12T12:07:25Z</time></trkpt><trkpt lat="44.285587513828666" lon="11.628004412148202"><ele>81.0</ele><time>2026-04-12T12:07:26Z</time></trkpt><trkpt lat="44.285674969531286" lon="11.628258352606004"><ele>81.0</ele><time>2026-04-12T12:07:27Z</time></trkpt><trkpt lat="44.28575959099915" lon="11.628503803398399"><ele>81.0</ele><time>2026-04-12T12:07:28Z</time></trkpt><trkpt lat="44.2858417195596" lon="11.62874656559561"><ele>81.0</ele><time>2026-04-12T12:07:29Z</time></trkpt><trkpt lat="44.285918856306864" lon="11.628977346752619"><ele>81.0</ele><time>2026-04-12T12:07:30Z</time></trkpt><trkpt lat="44.286007095664765" lon="11.629208355150572"><ele>81.0</ele><time>2026-04-12T12:07:31Z</time></trkpt><trkpt lat="44.286075079232546" lon="11.629442355331074"><ele>81.0</ele><time>2026-04-12T12:07:32Z</time></trkpt><trkpt lat="44.28614741006514" lon="11.629660904251136"><ele>80.33333333333333</ele><time>2026-04-12T12:07:33Z</time></trkpt><trkpt lat="44.28622737822038" lon="11.629880833571102"><ele>79.66666666666666</ele><time>2026-04-12T12:07:34Z</time></trkpt><trkpt lat="44.2863267452113" lon="11.630095650340841"><ele>79.0</ele><time>2026-04-12T12:07:35Z</time></trkpt><trkpt lat="44.28645334654728" lon="11.630301194763343"><ele>81.33333333333333</ele><time>2026-04-12T12:07:36Z</time></trkpt><trkpt lat="44.28660134009873" lon="11.630480215551504"><ele>83.66666666666667</ele><time>2026-04-12T12:07:37Z</time></trkpt><trkpt lat="44.28677294592286" lon="11.63064685415696"><ele>86.0</ele><time>2026-04-12T12:07:38Z</time></trkpt><trkpt lat="44.28695259738458" lon="11.630813172510654"><ele>86.0</ele><time>2026-04-12T12:07:39Z</time></trkpt><trkpt lat="44.28713731403947" lon="11.630984250995729"><ele>86.0</ele><time>2026-04-12T12:07:40Z</time></trkpt><trkpt lat="44.28731459069047" lon="11.631157738884307"><ele>86.0</ele><time>2026-04-12T12:07:41Z</time></trkpt><trkpt lat="44.287491696906365" lon="11.63132926091436"><ele>86.0</ele><time>2026-04-12T12:07:42Z</time></trkpt><trkpt lat="44.28766963746696" lon="11.631495158619524"><ele>86.0</ele><time>2026-04-12T12:07:43Z</time></trkpt><trkpt lat="44.287840161358254" lon="11.631660042316069"><ele>86.0</ele><time>2026-04-12T12:07:44Z</time></trkpt><trkpt lat="44.28800224917517" lon="11.631838482085975"><ele>84.66666666666667</ele><time>2026-04-12T12:07:45Z</time></trkpt><trkpt lat="44.28816541096313" lon="11.63201489312766"><ele>83.33333333333333</ele><time>2026-04-12T12:07:46Z</time></trkpt><trkpt lat="44.28832313553735" lon="11.632194611158463"><ele>82.0</ele><time>2026-04-12T12:07:47Z</time></trkpt><trkpt lat="44.28848252188913" lon="11.632384259996645"><ele>82.0</ele><time>2026-04-12T12:07:48Z</time></trkpt><trkpt lat="44.2886284369324" lon="11.632604348555898"><ele>82.0</ele><time>2026-04-12T12:07:49Z</time></trkpt><trkpt lat="44.288778069106954" lon="11.632828584092964"><ele>82.0</ele><time>2026-04-12T12:07:50Z</time></trkpt><trkpt lat="44.288922658873176" lon="11.6330651246156"><ele>82.0</ele><time>2026-04-12T12:07:51Z</time></trkpt><trkpt lat="44.28906720105205" lon="11.633304742612705"><ele>82.0</ele><time>2026-04-12T12:07:52Z</time></trkpt><trkpt lat="44.28921685237805" lon="11.633539809826008"><ele>82.0</ele><time>2026-04-12T12:07:53Z</time></trkpt><trkpt lat="44.289368526496744" lon="11.633776781477208"><ele>82.0</ele><time>2026-04-12T12:07:54Z</time></trkpt><trkpt lat="44.28952290110538" lon="11.634023341079024"><ele>82.0</ele><time>2026-04-12T12:07:55Z</time></trkpt><trkpt lat="44.289679322826515" lon="11.634269802405353"><ele>82.0</ele><time>2026-04-12T12:07:56Z</time></trkpt><trkpt lat="44.289836535587064" lon="11.634513820760573"><ele>82.0</ele><time>2026-04-12T12:07:57Z</time></trkpt><trkpt lat="44.28998888918338" lon="11.634773970196113"><ele>82.0</ele><time>2026-04-12T12:07:58Z</time></trkpt><trkpt lat="44.290135387798315" lon="11.635024807506257"><ele>82.0</ele><time>2026-04-12T12:07:59Z</time></trkpt><trkpt lat="44.29029259985543" lon="11.63528546543815"><ele>81.5</ele><time>2026-04-12T12:08:00Z</time></trkpt><trkpt lat="44.29044952387798" lon="11.635541331247845"><ele>81.0</ele><time>2026-04-12T12:08:01Z</time></trkpt><trkpt lat="44.29060132487859" lon="11.635793843061487"><ele>80.66666666666667</ele><time>2026-04-12T12:08:02Z</time></trkpt><trkpt lat="44.290747142600445" lon="11.63602633177189"><ele>80.33333333333334</ele><time>2026-04-12T12:08:03Z</time></trkpt><trkpt lat="44.29089391571599" lon="11.636255802471792"><ele>80.0</ele><time>2026-04-12T12:08:04Z</time></trkpt><trkpt lat="44.2910398442981" lon="11.63649425733449"><ele>80.0</ele><time>2026-04-12T12:08:05Z</time></trkpt><trkpt lat="44.29118290780717" lon="11.636725310747817"><ele>80.0</ele><time>2026-04-12T12:08:06Z</time></trkpt><trkpt lat="44.29132100840009" lon="11.636943242820752"><ele>80.0</ele><time>2026-04-12T12:08:07Z</time></trkpt><trkpt lat="44.291461515459005" lon="11.637175526452582"><ele>79.33333333333334</ele><time>2026-04-12T12:08:08Z</time></trkpt><trkpt lat="44.29159916306992" lon="11.637401975246151"><ele>78.66666666666667</ele><time>2026-04-12T12:08:09Z</time></trkpt><trkpt lat="44.29173847349718" lon="11.637638505307947"><ele>78.0</ele><time>2026-04-12T12:08:10Z</time></trkpt><trkpt lat="44.29187030048163" lon="11.637868350039026"><ele>77.33333333333333</ele><time>2026-04-12T12:08:11Z</time></trkpt><trkpt lat="44.29202231833182" lon="11.638098079625424"><ele>76.66666666666666</ele><time>2026-04-12T12:08:12Z</time></trkpt><trkpt lat="44.29216638652969" lon="11.638319575962687"><ele>76.0</ele><time>2026-04-12T12:08:13Z</time></trkpt><trkpt lat="44.29231213283674" lon="11.63853949239236"><ele>78.33333333333333</ele><time>2026-04-12T12:08:14Z</time></trkpt><trkpt lat="44.2924505520792" lon="11.638759737296606"><ele>80.66666666666667</ele><time>2026-04-12T12:08:15Z</time></trkpt><trkpt lat="44.29258355978421" lon="11.638975077052473"><ele>83.0</ele><time>2026-04-12T12:08:16Z</time></trkpt><trkpt lat="44.29270540922506" lon="11.639173433584686"><ele>83.0</ele><time>2026-04-12T12:08:17Z</time></trkpt><trkpt lat="44.29280825840763" lon="11.639355762462944"><ele>83.0</ele><time>2026-04-12T12:08:18Z</time></trkpt><trkpt lat="44.2929114228089" lon="11.639505768752434"><ele>83.0</ele><time>2026-04-12T12:08:19Z</time></trkpt><trkpt lat="44.293008645507435" lon="11.63966037312321"><ele>83.5</ele><time>2026-04-12T12:08:20Z</time></trkpt><trkpt lat="44.29309514089554" lon="11.639811300300961"><ele>84.0</ele><time>2026-04-12T12:08:21Z</time></trkpt><trkpt lat="44.293180085852896" lon="11.639960157855338"><ele>84.5</ele><time>2026-04-12T12:08:22Z</time></trkpt><trkpt lat="44.29326239849544" lon="11.640125432317005"><ele>85.0</ele><time>2026-04-12T12:08:23Z</time></trkpt><trkpt lat="44.29333423796588" lon="11.640292364013936"><ele>86.75</ele><time>2026-04-12T12:08:24Z</time></trkpt><trkpt lat="44.293405502221795" lon="11.64044765190582"><ele>88.5</ele><time>2026-04-12T12:08:25Z</time></trkpt><trkpt lat="44.293478797624644" lon="11.640602461297659"><ele>90.25</ele><time>2026-04-12T12:08:26Z</time></trkpt><trkpt lat="44.293532268301455" lon="11.64074542503141"><ele>92.0</ele><time>2026-04-12T12:08:27Z</time></trkpt><trkpt lat="44.29358790073258" lon="11.640864487693799"><ele>92.0</ele><time>2026-04-12T12:08:28Z</time></trkpt><trkpt lat="44.293640759553995" lon="11.640994718049697"><ele>92.0</ele><time>2026-04-12T12:08:29Z</time></trkpt><trkpt lat="44.293703110307426" lon="11.641124343665938"><ele>92.0</ele><time>2026-04-12T12:08:30Z</time></trkpt><trkpt lat="44.29376014377631" lon="11.641258391415267"><ele>92.0</ele><time>2026-04-12T12:08:31Z</time></trkpt><trkpt lat="44.29380826429454" lon="11.641398161991974"><ele>92.0</ele><time>2026-04-12T12:08:32Z</time></trkpt><trkpt lat="44.29383462511781" lon="11.641559086573142"><ele>92.19999999999999</ele><time>2026-04-12T12:08:33Z</time></trkpt><trkpt lat="44.29386490279718" lon="11.64170918480121"><ele>92.4</ele><time>2026-04-12T12:08:34Z</time></trkpt><trkpt lat="44.29388378112352" lon="11.641866723439266"><ele>92.6</ele><time>2026-04-12T12:08:35Z</time></trkpt><trkpt lat="44.29390149146782" lon="11.64202177382252"><ele>92.80000000000001</ele><time>2026-04-12T12:08:36Z</time></trkpt><trkpt lat="44.29392474804334" lon="11.642156576872399"><ele>93.0</ele><time>2026-04-12T12:08:37Z</time></trkpt><trkpt lat="44.29394953351545" lon="11.642285270525072"><ele>93.0</ele><time>2026-04-12T12:08:38Z</time></trkpt><trkpt lat="44.29398534050308" lon="11.642410067534904"><ele>93.0</ele><time>2026-04-12T12:08:39Z</time></trkpt><trkpt lat="44.29402062751734" lon="11.6425269996316"><ele>93.0</ele><time>2026-04-12T12:08:40Z</time></trkpt><trkpt lat="44.29405897262567" lon="11.642629660836546"><ele>93.0</ele><time>2026-04-12T12:08:41Z</time></trkpt><trkpt lat="44.2940911694604" lon="11.642723124397163"><ele>93.0</ele><time>2026-04-12T12:08:42Z</time></trkpt><trkpt lat="44.29412485538165" lon="11.64280431193739"><ele>93.0</ele><time>2026-04-12T12:08:43Z</time></trkpt><trkpt lat="44.294179367729974" lon="11.642944124021707"><ele>93.0</ele><time>2026-04-12T12:08:45Z</time></trkpt><trkpt lat="44.29421025910248" lon="11.643055044346172"><ele>93.0</ele><time>2026-04-12T12:08:47Z</time></trkpt><trkpt lat="44.2942065457852" lon="11.643149427009414"><ele>93.0</ele><time>2026-04-12T12:08:49Z</time></trkpt><trkpt lat="44.294128394882456" lon="11.643195543038248"><ele>93.0</ele><time>2026-04-12T12:08:51Z</time></trkpt><trkpt lat="44.29404485094713" lon="11.643261064393599"><ele>93.0</ele><time>2026-04-12T12:08:53Z</time></trkpt><trkpt lat="44.29398883066238" lon="11.643330687518933"><ele>93.0</ele><time>2026-04-12T12:08:55Z</time></trkpt><trkpt lat="44.293913345793385" lon="11.643364338066615"><ele>96.0</ele><time>2026-04-12T12:08:57Z</time></trkpt><trkpt lat="44.29395912187996" lon="11.643302271867437"><ele>93.0</ele><time>2026-04-12T12:09:59Z</time></trkpt></trkseg></trk></gpx>